<?xml version='1.0' encoding='UTF-8'?><gpx version="1.1" creator="JPX - https://github.com/jenetics/jpx" xmlns="http://www.topografix.com/GPX/1/1"><trk><trkseg><trkpt lat="45.9512416117813" lon="12.312493525160829"><ele>100.99999999999999</ele><time>2026-03-26T04:00:29Z</time></trkpt><trkpt lat="45.95127572757399" lon="12.31261141176385"><ele>101.0</ele><time>2026-03-26T04:00:32Z</time></trkpt><trkpt lat="45.95130302067887" lon="12.312697896003083"><ele>101.0</ele><time>2026-03-26T04:00:34Z</time></trkpt><trkpt lat="45.95131391692559" lon="12.312792668598545"><ele>101.0</ele><time>2026-03-26T04:00:36Z</time></trkpt><trkpt lat="45.951284636742876" lon="12.312885639481223"><ele>100.99999999999999</ele><time>2026-03-26T04:00:38Z</time></trkpt><trkpt lat="45.9512236974959" lon="12.312956046343308"><ele>101.0</ele><time>2026-03-26T04:00:40Z</time></trkpt><trkpt lat="45.95115706320084" lon="12.313024068596198"><ele>100.8</ele><time>2026-03-26T04:00:42Z</time></trkpt><trkpt lat="45.95109186931772" lon="12.313099699150138"><ele>100.6</ele><time>2026-03-26T04:00:44Z</time></trkpt><trkpt lat="45.95100752319095" lon="12.31318869179942"><ele>100.4</ele><time>2026-03-26T04:00:46Z</time></trkpt><trkpt lat="45.95093085043949" lon="12.313280620994536"><ele>100.2</ele><time>2026-03-26T04:00:48Z</time></trkpt><trkpt lat="45.95085496934496" lon="12.31339644415986"><ele>100.0</ele><time>2026-03-26T04:00:50Z</time></trkpt><trkpt lat="45.95080402975664" lon="12.313541767682468"><ele>100.00000000000001</ele><time>2026-03-26T04:00:52Z</time></trkpt><trkpt lat="45.95081760967708" lon="12.313633099810376"><ele>100.0</ele><time>2026-03-26T04:00:53Z</time></trkpt><trkpt lat="45.95086283859797" lon="12.313706816337316"><ele>100.0</ele><time>2026-03-26T04:00:54Z</time></trkpt><trkpt lat="45.95093096808835" lon="12.313738459770128"><ele>100.0</ele><time>2026-03-26T04:00:55Z</time></trkpt><trkpt lat="45.951001708699415" lon="12.313876776116047"><ele>100.00000000000001</ele><time>2026-03-26T04:00:57Z</time></trkpt><trkpt lat="45.95104492705422" lon="12.313954139560291"><ele>100.0</ele><time>2026-03-26T04:00:58Z</time></trkpt><trkpt lat="45.95109687316297" lon="12.314047184514989"><ele>100.4</ele><time>2026-03-26T04:00:59Z</time></trkpt><trkpt lat="45.95116331243309" lon="12.314124187069261"><ele>100.8</ele><time>2026-03-26T04:01:00Z</time></trkpt><trkpt lat="45.95122623702584" lon="12.314227183034406"><ele>101.19999999999999</ele><time>2026-03-26T04:01:01Z</time></trkpt><trkpt lat="45.951289747155606" lon="12.31433280656668"><ele>101.6</ele><time>2026-03-26T04:01:02Z</time></trkpt><trkpt lat="45.95134704428625" lon="12.314428097317426"><ele>102.0</ele><time>2026-03-26T04:01:03Z</time></trkpt><trkpt lat="45.95140616765488" lon="12.314526425264022"><ele>102.0</ele><time>2026-03-26T04:01:04Z</time></trkpt><trkpt lat="45.95146855840821" lon="12.314630187164479"><ele>102.0</ele><time>2026-03-26T04:01:04.999Z</time></trkpt><trkpt lat="45.95153386868236" lon="12.31473880455426"><ele>102.0</ele><time>2026-03-26T04:01:05.999Z</time></trkpt><trkpt lat="45.9516023612908" lon="12.314852714462559"><ele>102.0</ele><time>2026-03-26T04:01:06.999Z</time></trkpt><trkpt lat="45.951673399180976" lon="12.314970857316487"><ele>102.0</ele><time>2026-03-26T04:01:07.999Z</time></trkpt><trkpt lat="45.951743142040534" lon="12.315086846505137"><ele>102.0</ele><time>2026-03-26T04:01:08.999Z</time></trkpt><trkpt lat="45.951816224302824" lon="12.31520839059152"><ele>102.0</ele><time>2026-03-26T04:01:09.999Z</time></trkpt><trkpt lat="45.95187611430474" lon="12.31535350196507"><ele>102.0</ele><time>2026-03-26T04:01:10.999Z</time></trkpt><trkpt lat="45.951951026105434" lon="12.315481855976062"><ele>102.0</ele><time>2026-03-26T04:01:11.999Z</time></trkpt><trkpt lat="45.95202797477382" lon="12.315613623759958"><ele>102.0</ele><time>2026-03-26T04:01:12.999Z</time></trkpt><trkpt lat="45.95210816330584" lon="12.315743443505907"><ele>102.0</ele><time>2026-03-26T04:01:13.999Z</time></trkpt><trkpt lat="45.95218949559264" lon="12.315877694665467"><ele>102.0</ele><time>2026-03-26T04:01:14.999Z</time></trkpt><trkpt lat="45.952271029848305" lon="12.316006099556722"><ele>102.0</ele><time>2026-03-26T04:01:15.999Z</time></trkpt><trkpt lat="45.952361096404736" lon="12.3161238869991"><ele>102.0</ele><time>2026-03-26T04:01:16.999Z</time></trkpt><trkpt lat="45.95241853856173" lon="12.316257312975113"><ele>102.0</ele><time>2026-03-26T04:01:17.999Z</time></trkpt><trkpt lat="45.95248469469856" lon="12.316368966226126"><ele>102.0</ele><time>2026-03-26T04:01:18.999Z</time></trkpt><trkpt lat="45.95254741522853" lon="12.31647215908632"><ele>102.0</ele><time>2026-03-26T04:01:19.999Z</time></trkpt><trkpt lat="45.952597669758674" lon="12.316555787984964"><ele>102.0</ele><time>2026-03-26T04:01:20.999Z</time></trkpt><trkpt lat="45.952638286806696" lon="12.316636527475232"><ele>102.19999999999999</ele><time>2026-03-26T04:01:21.999Z</time></trkpt><trkpt lat="45.95270558244842" lon="12.316701006718077"><ele>102.4</ele><time>2026-03-26T04:01:23.999Z</time></trkpt><trkpt lat="45.95277064451808" lon="12.316809644488297"><ele>102.6</ele><time>2026-03-26T04:01:34.999Z</time></trkpt><trkpt lat="45.9528745701769" lon="12.316664776758255"><ele>102.80000000000001</ele><time>2026-03-26T04:01:36.999Z</time></trkpt><trkpt lat="45.9529641161479" lon="12.316550044892558"><ele>103.0</ele><time>2026-03-26T04:01:38.999Z</time></trkpt><trkpt lat="45.95306471776751" lon="12.316421975450751"><ele>103.0</ele><time>2026-03-26T04:01:40.999Z</time></trkpt><trkpt lat="45.95312699660814" lon="12.316343531320152"><ele>103.0</ele><time>2026-03-26T04:01:41.999Z</time></trkpt><trkpt lat="45.9531975878243" lon="12.316254617220794"><ele>103.0</ele><time>2026-03-26T04:01:42.999Z</time></trkpt><trkpt lat="45.95327559123617" lon="12.316156367050072"><ele>103.0</ele><time>2026-03-26T04:01:43.999Z</time></trkpt><trkpt lat="45.95335999476228" lon="12.316050059175648"><ele>103.0</ele><time>2026-03-26T04:01:44.999Z</time></trkpt><trkpt lat="45.95344485957034" lon="12.315944395930282"><ele>103.0</ele><time>2026-03-26T04:01:45.999Z</time></trkpt><trkpt lat="45.95352603014913" lon="12.315843192080932"><ele>103.0</ele><time>2026-03-26T04:01:46.999Z</time></trkpt><trkpt lat="45.953607819982416" lon="12.31574330424517"><ele>103.0</ele><time>2026-03-26T04:01:47.999Z</time></trkpt><trkpt lat="45.95369719495442" lon="12.315636363950496"><ele>103.0</ele><time>2026-03-26T04:01:48.999Z</time></trkpt><trkpt lat="45.95378787082942" lon="12.315528837178569"><ele>103.0</ele><time>2026-03-26T04:01:49.999Z</time></trkpt><trkpt lat="45.95388358595515" lon="12.315415262917094"><ele>103.0</ele><time>2026-03-26T04:01:50.999Z</time></trkpt><trkpt lat="45.953981810018504" lon="12.31529725023832"><ele>103.0</ele><time>2026-03-26T04:01:51.999Z</time></trkpt><trkpt lat="45.95408084637851" lon="12.315178261357142"><ele>103.0</ele><time>2026-03-26T04:01:52.999Z</time></trkpt><trkpt lat="45.95417478263578" lon="12.315065400095538"><ele>103.0</ele><time>2026-03-26T04:01:53.999Z</time></trkpt><trkpt lat="45.954270798554504" lon="12.31494955679319"><ele>103.0</ele><time>2026-03-26T04:01:54.999Z</time></trkpt><trkpt lat="45.95436792882366" lon="12.314832344157344"><ele>103.0</ele><time>2026-03-26T04:01:55.999Z</time></trkpt><trkpt lat="45.95446559980287" lon="12.314713960694357"><ele>103.0</ele><time>2026-03-26T04:01:56.999Z</time></trkpt><trkpt lat="45.95456458464547" lon="12.31459075687667"><ele>103.0</ele><time>2026-03-26T04:01:57.999Z</time></trkpt><trkpt lat="45.954671442320226" lon="12.31447635765862"><ele>103.0</ele><time>2026-03-26T04:01:58.999Z</time></trkpt><trkpt lat="45.95476256975417" lon="12.314335168056196"><ele>103.0</ele><time>2026-03-26T04:01:59.999Z</time></trkpt><trkpt lat="45.95486230200081" lon="12.3142049672411"><ele>103.0</ele><time>2026-03-26T04:02:00.999Z</time></trkpt><trkpt lat="45.95496308668587" lon="12.314071509185922"><ele>103.0</ele><time>2026-03-26T04:02:01.999Z</time></trkpt><trkpt lat="45.9550657327869" lon="12.313935585427028"><ele>102.75</ele><time>2026-03-26T04:02:02.999Z</time></trkpt><trkpt lat="45.95517439442597" lon="12.313802413374725"><ele>102.5</ele><time>2026-03-26T04:02:03.999Z</time></trkpt><trkpt lat="45.95528413027315" lon="12.31367604426222"><ele>102.25</ele><time>2026-03-26T04:02:04.999Z</time></trkpt><trkpt lat="45.95539855682601" lon="12.313545139708205"><ele>102.0</ele><time>2026-03-26T04:02:05.999Z</time></trkpt><trkpt lat="45.95550975490814" lon="12.313417928559097"><ele>102.0</ele><time>2026-03-26T04:02:06.999Z</time></trkpt><trkpt lat="45.95561268860985" lon="12.313296206633037"><ele>102.0</ele><time>2026-03-26T04:02:07.999Z</time></trkpt><trkpt lat="45.955705438703035" lon="12.3131799789874"><ele>102.0</ele><time>2026-03-26T04:02:09Z</time></trkpt><trkpt lat="45.95578822511867" lon="12.313076422213902"><ele>102.0</ele><time>2026-03-26T04:02:10Z</time></trkpt><trkpt lat="45.955863606270775" lon="12.312979330269526"><ele>102.33333333333333</ele><time>2026-03-26T04:02:11Z</time></trkpt><trkpt lat="45.95596287472235" lon="12.312934428955872"><ele>102.66666666666666</ele><time>2026-03-26T04:02:12Z</time></trkpt><trkpt lat="45.956048494629115" lon="12.31289201086121"><ele>103.0</ele><time>2026-03-26T04:02:13Z</time></trkpt><trkpt lat="45.956120954883545" lon="12.312840636666271"><ele>103.33333333333333</ele><time>2026-03-26T04:02:14Z</time></trkpt><trkpt lat="45.956216362254395" lon="12.312867023883292"><ele>103.66666666666666</ele><time>2026-03-26T04:02:15Z</time></trkpt><trkpt lat="45.95628384372185" lon="12.312822989711892"><ele>104.0</ele><time>2026-03-26T04:02:16Z</time></trkpt><trkpt lat="45.95633924341859" lon="12.312753107735007"><ele>103.99999999999999</ele><time>2026-03-26T04:02:17Z</time></trkpt><trkpt lat="45.95637593515638" lon="12.312664536274688"><ele>104.0</ele><time>2026-03-26T04:02:18Z</time></trkpt><trkpt lat="45.95640240324814" lon="12.312564127148141"><ele>104.0</ele><time>2026-03-26T04:02:19Z</time></trkpt><trkpt lat="45.95642357689329" lon="12.312453375345338"><ele>104.0</ele><time>2026-03-26T04:02:20Z</time></trkpt><trkpt lat="45.95644568875626" lon="12.312338361975307"><ele>103.99999999999999</ele><time>2026-03-26T04:02:21Z</time></trkpt><trkpt lat="45.95648372643073" lon="12.312229104780782"><ele>104.0</ele><time>2026-03-26T04:02:22Z</time></trkpt><trkpt lat="45.95653128690533" lon="12.312116269794839"><ele>103.80000000000001</ele><time>2026-03-26T04:02:23Z</time></trkpt><trkpt lat="45.956579013359736" lon="12.312007195827015"><ele>103.60000000000001</ele><time>2026-03-26T04:02:24Z</time></trkpt><trkpt lat="45.95665886346145" lon="12.31193161809569"><ele>103.4</ele><time>2026-03-26T04:02:25Z</time></trkpt><trkpt lat="45.95673318922546" lon="12.311851510547928"><ele>103.2</ele><time>2026-03-26T04:02:26Z</time></trkpt><trkpt lat="45.956810272090216" lon="12.311761699541789"><ele>103.0</ele><time>2026-03-26T04:02:27Z</time></trkpt><trkpt lat="45.956886728809884" lon="12.311664745511978"><ele>102.75</ele><time>2026-03-26T04:02:28Z</time></trkpt><trkpt lat="45.95696706859965" lon="12.31156109046817"><ele>102.5</ele><time>2026-03-26T04:02:29Z</time></trkpt><trkpt lat="45.95705442051353" lon="12.311455360071504"><ele>102.25</ele><time>2026-03-26T04:02:30Z</time></trkpt><trkpt lat="45.95714434880142" lon="12.311345974255945"><ele>102.0</ele><time>2026-03-26T04:02:31Z</time></trkpt><trkpt lat="45.95723493262792" lon="12.311232767387983"><ele>102.75</ele><time>2026-03-26T04:02:32Z</time></trkpt><trkpt lat="45.957329815700255" lon="12.31111256550491"><ele>103.5</ele><time>2026-03-26T04:02:33Z</time></trkpt><trkpt lat="45.95742386383043" lon="12.31099242766836"><ele>104.25</ele><time>2026-03-26T04:02:34Z</time></trkpt><trkpt lat="45.95751600642074" lon="12.310880002392999"><ele>105.0</ele><time>2026-03-26T04:02:35Z</time></trkpt><trkpt lat="45.957611297883865" lon="12.310761506321047"><ele>105.75</ele><time>2026-03-26T04:02:36Z</time></trkpt><trkpt lat="45.9577049385131" lon="12.310647093117598"><ele>106.5</ele><time>2026-03-26T04:02:37Z</time></trkpt><trkpt lat="45.95780111740768" lon="12.310530396913567"><ele>107.25</ele><time>2026-03-26T04:02:38Z</time></trkpt><trkpt lat="45.95790080931559" lon="12.310410729989831"><ele>108.0</ele><time>2026-03-26T04:02:39Z</time></trkpt><trkpt lat="45.95800098957278" lon="12.310289747429302"><ele>108.0</ele><time>2026-03-26T04:02:40Z</time></trkpt><trkpt lat="45.9581019567967" lon="12.31016743223711"><ele>108.0</ele><time>2026-03-26T04:02:41Z</time></trkpt><trkpt lat="45.95820540377339" lon="12.310039857180671"><ele>108.0</ele><time>2026-03-26T04:02:42Z</time></trkpt><trkpt lat="45.958307658879534" lon="12.309909755952448"><ele>108.0</ele><time>2026-03-26T04:02:43Z</time></trkpt><trkpt lat="45.958405309450754" lon="12.309786347404366"><ele>108.4</ele><time>2026-03-26T04:02:44Z</time></trkpt><trkpt lat="45.958498158491366" lon="12.30966657415541"><ele>108.80000000000001</ele><time>2026-03-26T04:02:45Z</time></trkpt><trkpt lat="45.95858576408173" lon="12.309558539677344"><ele>109.2</ele><time>2026-03-26T04:02:46Z</time></trkpt><trkpt lat="45.958660381461726" lon="12.309464100722183"><ele>109.6</ele><time>2026-03-26T04:02:47Z</time></trkpt><trkpt lat="45.958725475289626" lon="12.309382089918751"><ele>110.0</ele><time>2026-03-26T04:02:48Z</time></trkpt><trkpt lat="45.958778442880515" lon="12.30931242687976"><ele>110.0</ele><time>2026-03-26T04:02:49Z</time></trkpt><trkpt lat="45.958847475038915" lon="12.30922485753766"><ele>110.0</ele><time>2026-03-26T04:02:51Z</time></trkpt><trkpt lat="45.95887921919132" lon="12.309122000066054"><ele>110.0</ele><time>2026-03-26T04:02:56Z</time></trkpt><trkpt lat="45.958814324827415" lon="12.308974568167697"><ele>110.0</ele><time>2026-03-26T04:02:58Z</time></trkpt><trkpt lat="45.95875868053269" lon="12.308918575462796"><ele>110.0</ele><time>2026-03-26T04:02:59Z</time></trkpt><trkpt lat="45.95867052152763" lon="12.308808129342161"><ele>109.6</ele><time>2026-03-26T04:03:01Z</time></trkpt><trkpt lat="45.95861523559419" lon="12.308734742137396"><ele>109.2</ele><time>2026-03-26T04:03:01.999Z</time></trkpt><trkpt lat="45.95855360193149" lon="12.308650259442492"><ele>108.80000000000001</ele><time>2026-03-26T04:03:02.999Z</time></trkpt><trkpt lat="45.95848325027573" lon="12.308555490244819"><ele>108.4</ele><time>2026-03-26T04:03:03.999Z</time></trkpt><trkpt lat="45.958410344090005" lon="12.308450663588362"><ele>108.0</ele><time>2026-03-26T04:03:04.999Z</time></trkpt><trkpt lat="45.95833775267695" lon="12.308357929616497"><ele>108.0</ele><time>2026-03-26T04:03:05.999Z</time></trkpt><trkpt lat="45.958268830433454" lon="12.30826882306364"><ele>108.00000000000001</ele><time>2026-03-26T04:03:06.999Z</time></trkpt><trkpt lat="45.95820071721967" lon="12.308177645887588"><ele>108.00000000000001</ele><time>2026-03-26T04:03:07.999Z</time></trkpt><trkpt lat="45.958129464647904" lon="12.308086942818791"><ele>108.0</ele><time>2026-03-26T04:03:08.999Z</time></trkpt><trkpt lat="45.95805829781641" lon="12.307992250212104"><ele>108.0</ele><time>2026-03-26T04:03:09.999Z</time></trkpt><trkpt lat="45.95798479041073" lon="12.307891517084496"><ele>108.0</ele><time>2026-03-26T04:03:10.999Z</time></trkpt><trkpt lat="45.95790705550061" lon="12.307787653939119"><ele>108.0</ele><time>2026-03-26T04:03:11.999Z</time></trkpt><trkpt lat="45.95782691465257" lon="12.307677646520636"><ele>108.0</ele><time>2026-03-26T04:03:12.999Z</time></trkpt><trkpt lat="45.95774489694771" lon="12.307561512252047"><ele>108.0</ele><time>2026-03-26T04:03:13.999Z</time></trkpt><trkpt lat="45.957660030861376" lon="12.307443855738487"><ele>108.0</ele><time>2026-03-26T04:03:14.999Z</time></trkpt><trkpt lat="45.957577345650975" lon="12.307321371135096"><ele>108.00000000000001</ele><time>2026-03-26T04:03:15.999Z</time></trkpt><trkpt lat="45.95749981721156" lon="12.307199803165664"><ele>108.00000000000001</ele><time>2026-03-26T04:03:16.999Z</time></trkpt><trkpt lat="45.957431064911624" lon="12.307085651218781"><ele>108.0</ele><time>2026-03-26T04:03:17.999Z</time></trkpt><trkpt lat="45.95737073436947" lon="12.306981389757627"><ele>108.0</ele><time>2026-03-26T04:03:18.999Z</time></trkpt><trkpt lat="45.957315957171275" lon="12.306892026877405"><ele>108.0</ele><time>2026-03-26T04:03:19.999Z</time></trkpt><trkpt lat="45.957267754968115" lon="12.306818655039677"><ele>108.0</ele><time>2026-03-26T04:03:20.999Z</time></trkpt><trkpt lat="45.95722438786926" lon="12.30675256279806"><ele>108.0</ele><time>2026-03-26T04:03:21.999Z</time></trkpt><trkpt lat="45.95714388132838" lon="12.30661335083789"><ele>108.0</ele><time>2026-03-26T04:03:23.999Z</time></trkpt><trkpt lat="45.9571067014418" lon="12.306523732875446"><ele>108.0</ele><time>2026-03-26T04:03:24.999Z</time></trkpt><trkpt lat="45.95706855551393" lon="12.306427066314964"><ele>108.0</ele><time>2026-03-26T04:03:25.999Z</time></trkpt><trkpt lat="45.95702642357023" lon="12.30631900827694"><ele>108.2</ele><time>2026-03-26T04:03:26.999Z</time></trkpt><trkpt lat="45.95697270716465" lon="12.306209699899439"><ele>108.4</ele><time>2026-03-26T04:03:27.999Z</time></trkpt><trkpt lat="45.95692063974169" lon="12.306097674160409"><ele>108.60000000000001</ele><time>2026-03-26T04:03:28.999Z</time></trkpt><trkpt lat="45.95686960420486" lon="12.305988346821144"><ele>108.80000000000001</ele><time>2026-03-26T04:03:29.999Z</time></trkpt><trkpt lat="45.95682033105126" lon="12.305879440678659"><ele>109.0</ele><time>2026-03-26T04:03:30.999Z</time></trkpt><trkpt lat="45.95676501014201" lon="12.30576278275313"><ele>109.0</ele><time>2026-03-26T04:03:31.999Z</time></trkpt><trkpt lat="45.95670685976059" lon="12.305640395663845"><ele>109.0</ele><time>2026-03-26T04:03:32.999Z</time></trkpt><trkpt lat="45.95664687740172" lon="12.305509266522817"><ele>109.0</ele><time>2026-03-26T04:03:33.999Z</time></trkpt><trkpt lat="45.956585609326154" lon="12.305372383858233"><ele>109.0</ele><time>2026-03-26T04:03:34.999Z</time></trkpt><trkpt lat="45.95652118263979" lon="12.305227941856417"><ele>109.0</ele><time>2026-03-26T04:03:35.999Z</time></trkpt><trkpt lat="45.95646115220511" lon="12.305074191029119"><ele>108.75</ele><time>2026-03-26T04:03:36.999Z</time></trkpt><trkpt lat="45.95640439867921" lon="12.30490947389476"><ele>108.5</ele><time>2026-03-26T04:03:37.999Z</time></trkpt><trkpt lat="45.95635183681231" lon="12.304733398134454"><ele>108.25</ele><time>2026-03-26T04:03:38.999Z</time></trkpt><trkpt lat="45.95629992560392" lon="12.30454886325158"><ele>108.0</ele><time>2026-03-26T04:03:39.999Z</time></trkpt><trkpt lat="45.95624864697859" lon="12.304358990289348"><ele>107.25</ele><time>2026-03-26T04:03:40.999Z</time></trkpt><trkpt lat="45.95620028448705" lon="12.304176704386249"><ele>106.5</ele><time>2026-03-26T04:03:41.999Z</time></trkpt><trkpt lat="45.95615001983276" lon="12.303995760009064"><ele>105.75</ele><time>2026-03-26T04:03:42.999Z</time></trkpt><trkpt lat="45.95609733106845" lon="12.303806703039871"><ele>105.0</ele><time>2026-03-26T04:03:43.999Z</time></trkpt><trkpt lat="45.95604213421905" lon="12.303617267681032"><ele>105.0</ele><time>2026-03-26T04:03:44.999Z</time></trkpt><trkpt lat="45.955990546870474" lon="12.303420861202428"><ele>105.0</ele><time>2026-03-26T04:03:45.999Z</time></trkpt><trkpt lat="45.95593621936491" lon="12.303222572988734"><ele>105.0</ele><time>2026-03-26T04:03:46.999Z</time></trkpt><trkpt lat="45.95588104350389" lon="12.303020010025184"><ele>105.0</ele><time>2026-03-26T04:03:47.999Z</time></trkpt><trkpt lat="45.95582473011287" lon="12.302817154126451"><ele>105.66666666666666</ele><time>2026-03-26T04:03:48.999Z</time></trkpt><trkpt lat="45.955768645913764" lon="12.302611461178017"><ele>106.33333333333333</ele><time>2026-03-26T04:03:49.999Z</time></trkpt><trkpt lat="45.95571329377556" lon="12.302400754073219"><ele>107.0</ele><time>2026-03-26T04:03:50.999Z</time></trkpt><trkpt lat="45.95565550159463" lon="12.30218835285105"><ele>107.0</ele><time>2026-03-26T04:03:51.999Z</time></trkpt><trkpt lat="45.955594161131216" lon="12.301976539459094"><ele>107.0</ele><time>2026-03-26T04:03:52.999Z</time></trkpt><trkpt lat="45.955532038102824" lon="12.301758872515217"><ele>107.0</ele><time>2026-03-26T04:03:53.999Z</time></trkpt><trkpt lat="45.9554694725918" lon="12.301541144542567"><ele>106.33333333333333</ele><time>2026-03-26T04:03:54.999Z</time></trkpt><trkpt lat="45.95540962200386" lon="12.301316341185185"><ele>105.66666666666666</ele><time>2026-03-26T04:03:55.999Z</time></trkpt><trkpt lat="45.955348256553485" lon="12.30108994568738"><ele>105.0</ele><time>2026-03-26T04:03:56.999Z</time></trkpt><trkpt lat="45.95528679011465" lon="12.300862427806095"><ele>105.0</ele><time>2026-03-26T04:03:57.999Z</time></trkpt><trkpt lat="45.95522661760601" lon="12.300643603044234"><ele>105.0</ele><time>2026-03-26T04:03:58.999Z</time></trkpt><trkpt lat="45.95517047075903" lon="12.30043139164695"><ele>105.0</ele><time>2026-03-26T04:03:59.999Z</time></trkpt><trkpt lat="45.955121278994696" lon="12.300225885840954"><ele>105.5</ele><time>2026-03-26T04:04:00.999Z</time></trkpt><trkpt lat="45.955088709477884" lon="12.300016399432666"><ele>106.0</ele><time>2026-03-26T04:04:01.999Z</time></trkpt><trkpt lat="45.95506234638517" lon="12.299805395302867"><ele>106.5</ele><time>2026-03-26T04:04:02.999Z</time></trkpt><trkpt lat="45.955046903444" lon="12.299592490483855"><ele>107.0</ele><time>2026-03-26T04:04:03.999Z</time></trkpt><trkpt lat="45.95503865763944" lon="12.299380882830645"><ele>106.75</ele><time>2026-03-26T04:04:04.999Z</time></trkpt><trkpt lat="45.95503243456629" lon="12.299165857138815"><ele>106.5</ele><time>2026-03-26T04:04:05.999Z</time></trkpt><trkpt lat="45.95502254804148" lon="12.29895312549632"><ele>106.25</ele><time>2026-03-26T04:04:06.999Z</time></trkpt><trkpt lat="45.955009030406266" lon="12.298744432843467"><ele>106.0</ele><time>2026-03-26T04:04:07.999Z</time></trkpt><trkpt lat="45.95498165401578" lon="12.298535236655812"><ele>106.0</ele><time>2026-03-26T04:04:08.999Z</time></trkpt><trkpt lat="45.9549470482532" lon="12.298328457926104"><ele>106.0</ele><time>2026-03-26T04:04:09.999Z</time></trkpt><trkpt lat="45.95489694554297" lon="12.298126290739939"><ele>106.0</ele><time>2026-03-26T04:04:10.999Z</time></trkpt><trkpt lat="45.954836676812356" lon="12.297925398623251"><ele>106.0</ele><time>2026-03-26T04:04:11.999Z</time></trkpt><trkpt lat="45.954770483674" lon="12.297726153235526"><ele>107.0</ele><time>2026-03-26T04:04:12.999Z</time></trkpt><trkpt lat="45.954705966488966" lon="12.297526352480388"><ele>108.0</ele><time>2026-03-26T04:04:13.999Z</time></trkpt><trkpt lat="45.95464129762191" lon="12.297330386186365"><ele>109.0</ele><time>2026-03-26T04:04:15Z</time></trkpt><trkpt lat="45.95457686020292" lon="12.297138807090452"><ele>109.5</ele><time>2026-03-26T04:04:16Z</time></trkpt><trkpt lat="45.95451354529015" lon="12.296949016788837"><ele>110.0</ele><time>2026-03-26T04:04:17Z</time></trkpt><trkpt lat="45.95445015682208" lon="12.296760608325837"><ele>110.5</ele><time>2026-03-26T04:04:18Z</time></trkpt><trkpt lat="45.9543863540172" lon="12.296570157460527"><ele>111.0</ele><time>2026-03-26T04:04:19Z</time></trkpt><trkpt lat="45.954321044981555" lon="12.296379747294203"><ele>111.0</ele><time>2026-03-26T04:04:20Z</time></trkpt><trkpt lat="45.9542587991485" lon="12.296198621282585"><ele>111.0</ele><time>2026-03-26T04:04:21Z</time></trkpt><trkpt lat="45.954203747881635" lon="12.296034899727871"><ele>111.0</ele><time>2026-03-26T04:04:22Z</time></trkpt><trkpt lat="45.95415721481034" lon="12.295891207305294"><ele>111.0</ele><time>2026-03-26T04:04:23Z</time></trkpt><trkpt lat="45.95412107341743" lon="12.295756294444299"><ele>110.8</ele><time>2026-03-26T04:04:24Z</time></trkpt><trkpt lat="45.95410404370631" lon="12.295624566775162"><ele>110.6</ele><time>2026-03-26T04:04:25Z</time></trkpt><trkpt lat="45.95405914045869" lon="12.295530433212557"><ele>110.4</ele><time>2026-03-26T04:04:26Z</time></trkpt><trkpt lat="45.9541351024208" lon="12.295358117601856"><ele>110.2</ele><time>2026-03-26T04:04:27Z</time></trkpt><trkpt lat="45.954146685961966" lon="12.295210496431276"><ele>110.0</ele><time>2026-03-26T04:04:28Z</time></trkpt><trkpt lat="45.954154489016794" lon="12.295055062665318"><ele>111.0</ele><time>2026-03-26T04:04:29Z</time></trkpt><trkpt lat="45.95417203330055" lon="12.294897741580773"><ele>112.0</ele><time>2026-03-26T04:04:30Z</time></trkpt><trkpt lat="45.954209146581384" lon="12.294742147112732"><ele>113.0</ele><time>2026-03-26T04:04:31Z</time></trkpt><trkpt lat="45.95426492005772" lon="12.294604603405695"><ele>114.0</ele><time>2026-03-26T04:04:32Z</time></trkpt><trkpt lat="45.954336724486716" lon="12.294482313719795"><ele>115.0</ele><time>2026-03-26T04:04:33Z</time></trkpt><trkpt lat="45.954431446747705" lon="12.294380335551445"><ele>116.0</ele><time>2026-03-26T04:04:34Z</time></trkpt><trkpt lat="45.9545336550056" lon="12.294289235361797"><ele>117.0</ele><time>2026-03-26T04:04:35Z</time></trkpt><trkpt lat="45.95464846300472" lon="12.29421987478839"><ele>118.0</ele><time>2026-03-26T04:04:36Z</time></trkpt><trkpt lat="45.954769492725596" lon="12.294162529694683"><ele>119.0</ele><time>2026-03-26T04:04:37Z</time></trkpt><trkpt lat="45.95489595347023" lon="12.294106763882517"><ele>119.0</ele><time>2026-03-26T04:04:38Z</time></trkpt><trkpt lat="45.95502698116234" lon="12.294058198434357"><ele>119.0</ele><time>2026-03-26T04:04:39Z</time></trkpt><trkpt lat="45.955160274373085" lon="12.294008931796519"><ele>119.0</ele><time>2026-03-26T04:04:40Z</time></trkpt><trkpt lat="45.95529916368149" lon="12.293963886996547"><ele>119.0</ele><time>2026-03-26T04:04:41Z</time></trkpt><trkpt lat="45.95544258160808" lon="12.293943877332184"><ele>118.5</ele><time>2026-03-26T04:04:42Z</time></trkpt><trkpt lat="45.95558590728638" lon="12.293945645162072"><ele>118.0</ele><time>2026-03-26T04:04:43Z</time></trkpt><trkpt lat="45.955724955376034" lon="12.293951765432853"><ele>117.5</ele><time>2026-03-26T04:04:44Z</time></trkpt><trkpt lat="45.955865961137796" lon="12.293950327627007"><ele>117.0</ele><time>2026-03-26T04:04:45Z</time></trkpt><trkpt lat="45.95600810170058" lon="12.293945629388324"><ele>117.0</ele><time>2026-03-26T04:04:46Z</time></trkpt><trkpt lat="45.95615276139718" lon="12.293924102013662"><ele>117.0</ele><time>2026-03-26T04:04:47Z</time></trkpt><trkpt lat="45.956298285949934" lon="12.29389394955249"><ele>117.0</ele><time>2026-03-26T04:04:48Z</time></trkpt><trkpt lat="45.95644487410351" lon="12.293857105119088"><ele>117.0</ele><time>2026-03-26T04:04:49Z</time></trkpt><trkpt lat="45.95659192139425" lon="12.293821081675203"><ele>118.66666666666666</ele><time>2026-03-26T04:04:50Z</time></trkpt><trkpt lat="45.956740092007536" lon="12.293779582958932"><ele>120.33333333333333</ele><time>2026-03-26T04:04:51Z</time></trkpt><trkpt lat="45.956889200897365" lon="12.293738714065702"><ele>122.0</ele><time>2026-03-26T04:04:52Z</time></trkpt><trkpt lat="45.95703825123839" lon="12.293697184854405"><ele>122.0</ele><time>2026-03-26T04:04:53Z</time></trkpt><trkpt lat="45.95718767749186" lon="12.293652668490203"><ele>122.0</ele><time>2026-03-26T04:04:54Z</time></trkpt><trkpt lat="45.95733792977623" lon="12.293604559995288"><ele>122.0</ele><time>2026-03-26T04:04:55Z</time></trkpt><trkpt lat="45.95748825645794" lon="12.293548826570616"><ele>121.0</ele><time>2026-03-26T04:04:56Z</time></trkpt><trkpt lat="45.95763825083468" lon="12.29348244295936"><ele>120.0</ele><time>2026-03-26T04:04:57Z</time></trkpt><trkpt lat="45.957784490414085" lon="12.293401237158868"><ele>119.0</ele><time>2026-03-26T04:04:58Z</time></trkpt><trkpt lat="45.95792469111243" lon="12.293304967685549"><ele>119.0</ele><time>2026-03-26T04:04:59Z</time></trkpt><trkpt lat="45.958067565104045" lon="12.29320400675437"><ele>119.0</ele><time>2026-03-26T04:05:00Z</time></trkpt><trkpt lat="45.958213573979954" lon="12.293108547008979"><ele>119.0</ele><time>2026-03-26T04:05:01Z</time></trkpt><trkpt lat="45.95836458650323" lon="12.293032259704122"><ele>121.0</ele><time>2026-03-26T04:05:02Z</time></trkpt><trkpt lat="45.95851057946378" lon="12.292956047178052"><ele>123.0</ele><time>2026-03-26T04:05:03Z</time></trkpt><trkpt lat="45.9586579709529" lon="12.292881340555295"><ele>125.0</ele><time>2026-03-26T04:05:04Z</time></trkpt><trkpt lat="45.95880527273348" lon="12.292808000631203"><ele>125.0</ele><time>2026-03-26T04:05:04.999Z</time></trkpt><trkpt lat="45.9589501070556" lon="12.292730692132297"><ele>125.0</ele><time>2026-03-26T04:05:05.999Z</time></trkpt><trkpt lat="45.95909509311308" lon="12.292649615872971"><ele>125.0</ele><time>2026-03-26T04:05:06.999Z</time></trkpt><trkpt lat="45.95923849323312" lon="12.292569442996909"><ele>123.33333333333333</ele><time>2026-03-26T04:05:07.999Z</time></trkpt><trkpt lat="45.95938240302305" lon="12.292489247455393"><ele>121.66666666666666</ele><time>2026-03-26T04:05:08.999Z</time></trkpt><trkpt lat="45.95952464567457" lon="12.292406100096072"><ele>120.0</ele><time>2026-03-26T04:05:09.999Z</time></trkpt><trkpt lat="45.95966862643085" lon="12.292323178781754"><ele>124.66666666666666</ele><time>2026-03-26T04:05:10.999Z</time></trkpt><trkpt lat="45.959812975889875" lon="12.29224314874888"><ele>129.33333333333331</ele><time>2026-03-26T04:05:11.999Z</time></trkpt><trkpt lat="45.95995898340162" lon="12.292164204183047"><ele>134.0</ele><time>2026-03-26T04:05:12.999Z</time></trkpt><trkpt lat="45.96010488140558" lon="12.292087608789377"><ele>134.0</ele><time>2026-03-26T04:05:13.999Z</time></trkpt><trkpt lat="45.96025092162686" lon="12.292007921982666"><ele>134.0</ele><time>2026-03-26T04:05:14.999Z</time></trkpt><trkpt lat="45.96039812144418" lon="12.291936186680028"><ele>134.0</ele><time>2026-03-26T04:05:15.999Z</time></trkpt><trkpt lat="45.960550424845145" lon="12.291869498930922"><ele>134.0</ele><time>2026-03-26T04:05:16.999Z</time></trkpt><trkpt lat="45.960700688216505" lon="12.291815323921433"><ele>134.0</ele><time>2026-03-26T04:05:17.999Z</time></trkpt><trkpt lat="45.96085396844831" lon="12.291767681847022"><ele>134.0</ele><time>2026-03-26T04:05:18.999Z</time></trkpt><trkpt lat="45.96100715759141" lon="12.29172177044065"><ele>133.5</ele><time>2026-03-26T04:05:19.999Z</time></trkpt><trkpt lat="45.9611482044882" lon="12.291676122707596"><ele>133.0</ele><time>2026-03-26T04:05:20.999Z</time></trkpt><trkpt lat="45.961281569659555" lon="12.291630144602497"><ele>132.5</ele><time>2026-03-26T04:05:21.999Z</time></trkpt><trkpt lat="45.961417457385075" lon="12.291581817084712"><ele>132.0</ele><time>2026-03-26T04:05:22.999Z</time></trkpt><trkpt lat="45.96155303158652" lon="12.291522428825932"><ele>132.0</ele><time>2026-03-26T04:05:23.999Z</time></trkpt><trkpt lat="45.961684405723965" lon="12.291447894198372"><ele>132.0</ele><time>2026-03-26T04:05:24.999Z</time></trkpt><trkpt lat="45.96181135093564" lon="12.29135741028991"><ele>132.0</ele><time>2026-03-26T04:05:25.999Z</time></trkpt><trkpt lat="45.96193303900168" lon="12.291256833698066"><ele>132.0</ele><time>2026-03-26T04:05:26.999Z</time></trkpt><trkpt lat="45.96204602858749" lon="12.291148338254017"><ele>132.6</ele><time>2026-03-26T04:05:27.999Z</time></trkpt><trkpt lat="45.962149324174646" lon="12.291047270728527"><ele>133.2</ele><time>2026-03-26T04:05:28.999Z</time></trkpt><trkpt lat="45.96223513504549" lon="12.290958770860495"><ele>133.8</ele><time>2026-03-26T04:05:29.999Z</time></trkpt><trkpt lat="45.962306014773425" lon="12.290887187255572"><ele>134.4</ele><time>2026-03-26T04:05:30.999Z</time></trkpt><trkpt lat="45.96236763052561" lon="12.290832955435283"><ele>135.0</ele><time>2026-03-26T04:05:31.999Z</time></trkpt><trkpt lat="45.96246101108228" lon="12.290747345240769"><ele>134.83333333333334</ele><time>2026-03-26T04:05:33.999Z</time></trkpt><trkpt lat="45.96255843373683" lon="12.290690795549324"><ele>134.66666666666666</ele><time>2026-03-26T04:05:35.999Z</time></trkpt><trkpt lat="45.962625823130345" lon="12.290668107787596"><ele>134.5</ele><time>2026-03-26T04:05:36.999Z</time></trkpt><trkpt lat="45.96270454982155" lon="12.290656314455846"><ele>134.33333333333331</ele><time>2026-03-26T04:05:37.999Z</time></trkpt><trkpt lat="45.96279263298076" lon="12.290648948711155"><ele>134.16666666666666</ele><time>2026-03-26T04:05:38.999Z</time></trkpt><trkpt lat="45.962894645716155" lon="12.29063873953313"><ele>134.0</ele><time>2026-03-26T04:05:39.999Z</time></trkpt><trkpt lat="45.96300443001763" lon="12.290624582797712"><ele>134.0</ele><time>2026-03-26T04:05:40.999Z</time></trkpt><trkpt lat="45.96310801590178" lon="12.290607734951417"><ele>134.0</ele><time>2026-03-26T04:05:41.999Z</time></trkpt><trkpt lat="45.96321083946485" lon="12.29059198777085"><ele>134.0</ele><time>2026-03-26T04:05:42.999Z</time></trkpt><trkpt lat="45.963318170241486" lon="12.290577176869373"><ele>134.0</ele><time>2026-03-26T04:05:43.999Z</time></trkpt><trkpt lat="45.96343514418124" lon="12.290564220297302"><ele>134.0</ele><time>2026-03-26T04:05:44.999Z</time></trkpt><trkpt lat="45.96355258466183" lon="12.290539534992686"><ele>134.75</ele><time>2026-03-26T04:05:45.999Z</time></trkpt><trkpt lat="45.963674117167564" lon="12.290500356348003"><ele>135.5</ele><time>2026-03-26T04:05:46.999Z</time></trkpt><trkpt lat="45.96379521005108" lon="12.290436266973932"><ele>136.25</ele><time>2026-03-26T04:05:47.999Z</time></trkpt><trkpt lat="45.96390476926319" lon="12.290362066268296"><ele>137.0</ele><time>2026-03-26T04:05:48.999Z</time></trkpt><trkpt lat="45.96401839051333" lon="12.290281310430075"><ele>137.0</ele><time>2026-03-26T04:05:49.999Z</time></trkpt><trkpt lat="45.96412990255371" lon="12.290194711935806"><ele>137.0</ele><time>2026-03-26T04:05:50.999Z</time></trkpt><trkpt lat="45.96424401725081" lon="12.29010136693528"><ele>137.0</ele><time>2026-03-26T04:05:51.999Z</time></trkpt><trkpt lat="45.96435592996568" lon="12.290010352959616"><ele>137.0</ele><time>2026-03-26T04:05:52.999Z</time></trkpt><trkpt lat="45.96446262749554" lon="12.289924364031547"><ele>136.33333333333331</ele><time>2026-03-26T04:05:53.999Z</time></trkpt><trkpt lat="45.96455696995417" lon="12.289839466053653"><ele>135.66666666666666</ele><time>2026-03-26T04:05:54.999Z</time></trkpt><trkpt lat="45.96464446125428" lon="12.289764697842275"><ele>135.0</ele><time>2026-03-26T04:05:55.999Z</time></trkpt><trkpt lat="45.96471151131027" lon="12.289708238276164"><ele>134.33333333333334</ele><time>2026-03-26T04:05:56.999Z</time></trkpt><trkpt lat="45.96479049196337" lon="12.289662351931307"><ele>133.66666666666669</ele><time>2026-03-26T04:05:58.999Z</time></trkpt><trkpt lat="45.964854871530314" lon="12.289621525216802"><ele>133.0</ele><time>2026-03-26T04:06:03.999Z</time></trkpt><trkpt lat="45.96497861821158" lon="12.289609915368269"><ele>132.8</ele><time>2026-03-26T04:06:05.999Z</time></trkpt><trkpt lat="45.96507607738035" lon="12.289495826212418"><ele>132.60000000000002</ele><time>2026-03-26T04:06:07.999Z</time></trkpt><trkpt lat="45.96508970628816" lon="12.289394386713635"><ele>132.39999999999998</ele><time>2026-03-26T04:06:08.999Z</time></trkpt><trkpt lat="45.9651854350399" lon="12.2893398882362"><ele>132.2</ele><time>2026-03-26T04:06:09.999Z</time></trkpt><trkpt lat="45.96524446621233" lon="12.28924151128354"><ele>132.0</ele><time>2026-03-26T04:06:10.999Z</time></trkpt><trkpt lat="45.96536170755007" lon="12.289217230277657"><ele>132.0</ele><time>2026-03-26T04:06:11.999Z</time></trkpt><trkpt lat="45.96546091249068" lon="12.289154559044405"><ele>132.0</ele><time>2026-03-26T04:06:12.999Z</time></trkpt><trkpt lat="45.96555115464758" lon="12.289092976267321"><ele>132.0</ele><time>2026-03-26T04:06:13.999Z</time></trkpt><trkpt lat="45.96564164321641" lon="12.289026954290259"><ele>132.0</ele><time>2026-03-26T04:06:14.999Z</time></trkpt><trkpt lat="45.96573659522149" lon="12.2889560862792"><ele>132.0</ele><time>2026-03-26T04:06:15.999Z</time></trkpt><trkpt lat="45.96583546009884" lon="12.288882090633589"><ele>132.25</ele><time>2026-03-26T04:06:16.999Z</time></trkpt><trkpt lat="45.96593789224283" lon="12.288805312453038"><ele>132.5</ele><time>2026-03-26T04:06:17.999Z</time></trkpt><trkpt lat="45.966041866574926" lon="12.288724668049715"><ele>132.75</ele><time>2026-03-26T04:06:18.999Z</time></trkpt><trkpt lat="45.96614817223716" lon="12.288642745177116"><ele>133.0</ele><time>2026-03-26T04:06:20Z</time></trkpt><trkpt lat="45.96624833471777" lon="12.288571108914736"><ele>133.0</ele><time>2026-03-26T04:06:21Z</time></trkpt><trkpt lat="45.966347022056304" lon="12.28852118269478"><ele>133.0</ele><time>2026-03-26T04:06:22Z</time></trkpt><trkpt lat="45.96643924314615" lon="12.28849745200174"><ele>133.0</ele><time>2026-03-26T04:06:23Z</time></trkpt><trkpt lat="45.96652709545518" lon="12.28849026993061"><ele>133.0</ele><time>2026-03-26T04:06:24Z</time></trkpt><trkpt lat="45.966603033107596" lon="12.288492427258559"><ele>133.0</ele><time>2026-03-26T04:06:25Z</time></trkpt><trkpt lat="45.966670526258945" lon="12.288466450408356"><ele>133.0</ele><time>2026-03-26T04:06:26Z</time></trkpt><trkpt lat="45.966746166974744" lon="12.288345000291708"><ele>133.0</ele><time>2026-03-26T04:06:28Z</time></trkpt><trkpt lat="45.966714195073436" lon="12.288167666898794"><ele>133.0</ele><time>2026-03-26T04:06:30Z</time></trkpt><trkpt lat="45.966663042412875" lon="12.288094850208937"><ele>133.0</ele><time>2026-03-26T04:06:31Z</time></trkpt><trkpt lat="45.96659422845963" lon="12.288032703369606"><ele>133.0</ele><time>2026-03-26T04:06:32Z</time></trkpt><trkpt lat="45.96652412370958" lon="12.287968190286502"><ele>133.0</ele><time>2026-03-26T04:06:33Z</time></trkpt><trkpt lat="45.966449227637" lon="12.28788469511307"><ele>133.4</ele><time>2026-03-26T04:06:34Z</time></trkpt><trkpt lat="45.96637140142508" lon="12.28779278243752"><ele>133.8</ele><time>2026-03-26T04:06:35Z</time></trkpt><trkpt lat="45.96630217273408" lon="12.287701970467468"><ele>134.2</ele><time>2026-03-26T04:06:36Z</time></trkpt><trkpt lat="45.966233164893865" lon="12.287611191447859"><ele>134.6</ele><time>2026-03-26T04:06:37Z</time></trkpt><trkpt lat="45.96615991504655" lon="12.287515306479152"><ele>135.0</ele><time>2026-03-26T04:06:38Z</time></trkpt><trkpt lat="45.96608415292381" lon="12.287414596787212"><ele>135.0</ele><time>2026-03-26T04:06:39Z</time></trkpt><trkpt lat="45.966007497783544" lon="12.2873074829307"><ele>135.0</ele><time>2026-03-26T04:06:40Z</time></trkpt><trkpt lat="45.965929690300975" lon="12.287194997885555"><ele>135.0</ele><time>2026-03-26T04:06:41Z</time></trkpt><trkpt lat="45.96584926921231" lon="12.287079343578196"><ele>135.0</ele><time>2026-03-26T04:06:42Z</time></trkpt><trkpt lat="45.96576422945471" lon="12.286959664665138"><ele>135.5</ele><time>2026-03-26T04:06:43Z</time></trkpt><trkpt lat="45.96567750218188" lon="12.286836480835314"><ele>136.0</ele><time>2026-03-26T04:06:44Z</time></trkpt><trkpt lat="45.96558729343457" lon="12.286710539961447"><ele>136.5</ele><time>2026-03-26T04:06:45Z</time></trkpt><trkpt lat="45.965492478986526" lon="12.286581532282645"><ele>137.0</ele><time>2026-03-26T04:06:46Z</time></trkpt><trkpt lat="45.96539602855242" lon="12.286446600718408"><ele>137.5</ele><time>2026-03-26T04:06:47Z</time></trkpt><trkpt lat="45.96529741678487" lon="12.286303683303268"><ele>138.0</ele><time>2026-03-26T04:06:48Z</time></trkpt><trkpt lat="45.96519541597401" lon="12.286154797115028"><ele>138.5</ele><time>2026-03-26T04:06:49Z</time></trkpt><trkpt lat="45.96509019038455" lon="12.286006494742905"><ele>139.0</ele><time>2026-03-26T04:06:50Z</time></trkpt><trkpt lat="45.96498280922199" lon="12.285857128079206"><ele>139.0</ele><time>2026-03-26T04:06:51Z</time></trkpt><trkpt lat="45.96487883358736" lon="12.285718884695632"><ele>139.0</ele><time>2026-03-26T04:06:52Z</time></trkpt><trkpt lat="45.96477515331424" lon="12.28558117305406"><ele>139.0</ele><time>2026-03-26T04:06:53Z</time></trkpt><trkpt lat="45.96466143819818" lon="12.285444048327532"><ele>139.0</ele><time>2026-03-26T04:06:54Z</time></trkpt><trkpt lat="45.96454508132396" lon="12.285309957387767"><ele>139.5</ele><time>2026-03-26T04:06:55Z</time></trkpt><trkpt lat="45.964423522268355" lon="12.285210574043749"><ele>140.0</ele><time>2026-03-26T04:06:56Z</time></trkpt><trkpt lat="45.96429704750882" lon="12.285131919736891"><ele>140.5</ele><time>2026-03-26T04:06:57Z</time></trkpt><trkpt lat="45.96416515423623" lon="12.285071890116392"><ele>141.0</ele><time>2026-03-26T04:06:58Z</time></trkpt><trkpt lat="45.96402420769738" lon="12.285040470549012"><ele>141.0</ele><time>2026-03-26T04:06:59Z</time></trkpt><trkpt lat="45.96387763619923" lon="12.285033634268665"><ele>141.0</ele><time>2026-03-26T04:07:00Z</time></trkpt><trkpt lat="45.96373056080069" lon="12.285040045532485"><ele>141.0</ele><time>2026-03-26T04:07:01Z</time></trkpt><trkpt lat="45.963579323408084" lon="12.285056398587884"><ele>141.0</ele><time>2026-03-26T04:07:02Z</time></trkpt><trkpt lat="45.963430228882565" lon="12.285074839309337"><ele>141.33333333333334</ele><time>2026-03-26T04:07:03Z</time></trkpt><trkpt lat="45.96327868444751" lon="12.285090882998986"><ele>141.66666666666669</ele><time>2026-03-26T04:07:04Z</time></trkpt><trkpt lat="45.96312145104022" lon="12.285101813173231"><ele>142.0</ele><time>2026-03-26T04:07:04.999Z</time></trkpt><trkpt lat="45.9629613538837" lon="12.285100034276446"><ele>142.0</ele><time>2026-03-26T04:07:05.999Z</time></trkpt><trkpt lat="45.962801471484354" lon="12.285081708325363"><ele>142.0</ele><time>2026-03-26T04:07:06.999Z</time></trkpt><trkpt lat="45.96264938180417" lon="12.285032207966127"><ele>142.0</ele><time>2026-03-26T04:07:07.999Z</time></trkpt><trkpt lat="45.96250056627709" lon="12.284967299807185"><ele>142.0</ele><time>2026-03-26T04:07:08.999Z</time></trkpt><trkpt lat="45.96235040793188" lon="12.284894492299692"><ele>142.0</ele><time>2026-03-26T04:07:09.999Z</time></trkpt><trkpt lat="45.96220166639743" lon="12.28481658764171"><ele>142.0</ele><time>2026-03-26T04:07:10.999Z</time></trkpt><trkpt lat="45.962047340187155" lon="12.2847422898086"><ele>142.0</ele><time>2026-03-26T04:07:11.999Z</time></trkpt><trkpt lat="45.96188996480684" lon="12.284664223476286"><ele>142.0</ele><time>2026-03-26T04:07:12.999Z</time></trkpt><trkpt lat="45.96173062263343" lon="12.284581359768318"><ele>142.0</ele><time>2026-03-26T04:07:13.999Z</time></trkpt><trkpt lat="45.961567095200785" lon="12.284496089228279"><ele>141.33333333333334</ele><time>2026-03-26T04:07:14.999Z</time></trkpt><trkpt lat="45.96140127991779" lon="12.284406217257347"><ele>140.66666666666666</ele><time>2026-03-26T04:07:15.999Z</time></trkpt><trkpt lat="45.96123102686793" lon="12.28431897168223"><ele>140.0</ele><time>2026-03-26T04:07:16.999Z</time></trkpt><trkpt lat="45.96105809584644" lon="12.284231392128165"><ele>140.0</ele><time>2026-03-26T04:07:17.999Z</time></trkpt><trkpt lat="45.96088223727956" lon="12.284142680647733"><ele>140.0</ele><time>2026-03-26T04:07:18.999Z</time></trkpt><trkpt lat="45.96070529794608" lon="12.284052981579292"><ele>140.0</ele><time>2026-03-26T04:07:19.999Z</time></trkpt><trkpt lat="45.9605253342179" lon="12.28396039033727"><ele>137.66666666666666</ele><time>2026-03-26T04:07:20.999Z</time></trkpt><trkpt lat="45.96034318512859" lon="12.283867913204872"><ele>135.33333333333334</ele><time>2026-03-26T04:07:21.999Z</time></trkpt><trkpt lat="45.96015941431706" lon="12.283775462292823"><ele>133.0</ele><time>2026-03-26T04:07:22.999Z</time></trkpt><trkpt lat="45.95997370451233" lon="12.283681658450607"><ele>133.0</ele><time>2026-03-26T04:07:23.999Z</time></trkpt><trkpt lat="45.95978873156448" lon="12.283587179971565"><ele>133.0</ele><time>2026-03-26T04:07:24.999Z</time></trkpt><trkpt lat="45.95960681015897" lon="12.283494294199862"><ele>133.0</ele><time>2026-03-26T04:07:25.999Z</time></trkpt><trkpt lat="45.95942917257244" lon="12.283404479210361"><ele>133.0</ele><time>2026-03-26T04:07:26.999Z</time></trkpt><trkpt lat="45.95925526397848" lon="12.28331737982962"><ele>133.0</ele><time>2026-03-26T04:07:27.999Z</time></trkpt><trkpt lat="45.959086912163464" lon="12.283234937280609"><ele>133.0</ele><time>2026-03-26T04:07:28.999Z</time></trkpt><trkpt lat="45.95892033403177" lon="12.283166084588744"><ele>133.0</ele><time>2026-03-26T04:07:29.999Z</time></trkpt><trkpt lat="45.958752804628006" lon="12.283115065418068"><ele>133.0</ele><time>2026-03-26T04:07:30.999Z</time></trkpt><trkpt lat="45.95858048430184" lon="12.283083331997021"><ele>133.0</ele><time>2026-03-26T04:07:31.999Z</time></trkpt><trkpt lat="45.95840782945614" lon="12.28307233222196"><ele>136.0</ele><time>2026-03-26T04:07:32.999Z</time></trkpt><trkpt lat="45.958236763623496" lon="12.283071526359809"><ele>139.0</ele><time>2026-03-26T04:07:33.999Z</time></trkpt><trkpt lat="45.958067100372666" lon="12.283073193962052"><ele>142.0</ele><time>2026-03-26T04:07:34.999Z</time></trkpt><trkpt lat="45.95789969635258" lon="12.283076541008318"><ele>142.0</ele><time>2026-03-26T04:07:35.999Z</time></trkpt><trkpt lat="45.957735975229475" lon="12.28307877212177"><ele>142.0</ele><time>2026-03-26T04:07:36.999Z</time></trkpt><trkpt lat="45.95758130935084" lon="12.283082611725176"><ele>142.0</ele><time>2026-03-26T04:07:37.999Z</time></trkpt><trkpt lat="45.95743817319615" lon="12.283076883571177"><ele>145.0</ele><time>2026-03-26T04:07:38.999Z</time></trkpt><trkpt lat="45.95730247508404" lon="12.283051898074918"><ele>148.0</ele><time>2026-03-26T04:07:39.999Z</time></trkpt><trkpt lat="45.95717914903968" lon="12.282991151385225"><ele>151.0</ele><time>2026-03-26T04:07:40.999Z</time></trkpt><trkpt lat="45.957065041658666" lon="12.282899987779766"><ele>154.0</ele><time>2026-03-26T04:07:41.999Z</time></trkpt><trkpt lat="45.95696808033692" lon="12.282783068585601"><ele>154.0</ele><time>2026-03-26T04:07:42.999Z</time></trkpt><trkpt lat="45.95688861193121" lon="12.282651285915358"><ele>154.0</ele><time>2026-03-26T04:07:43.999Z</time></trkpt><trkpt lat="45.956824537325645" lon="12.282507808972566"><ele>154.0</ele><time>2026-03-26T04:07:44.999Z</time></trkpt><trkpt lat="45.95677116329044" lon="12.282378204858254"><ele>154.0</ele><time>2026-03-26T04:07:45.999Z</time></trkpt><trkpt lat="45.95671447546336" lon="12.282245984665968"><ele>154.8</ele><time>2026-03-26T04:07:46.999Z</time></trkpt><trkpt lat="45.95665603593725" lon="12.282113946621077"><ele>155.60000000000002</ele><time>2026-03-26T04:07:47.999Z</time></trkpt><trkpt lat="45.95659735543789" lon="12.281983552599927"><ele>156.4</ele><time>2026-03-26T04:07:48.999Z</time></trkpt><trkpt lat="45.956539227153414" lon="12.281851583631678"><ele>157.20000000000002</ele><time>2026-03-26T04:07:49.999Z</time></trkpt><trkpt lat="45.95648139567131" lon="12.281721118865624"><ele>158.0</ele><time>2026-03-26T04:07:50.999Z</time></trkpt><trkpt lat="45.9564244725665" lon="12.281589995145904"><ele>158.0</ele><time>2026-03-26T04:07:51.999Z</time></trkpt><trkpt lat="45.956367359686496" lon="12.281459742664603"><ele>158.0</ele><time>2026-03-26T04:07:52.999Z</time></trkpt><trkpt lat="45.956310243418855" lon="12.28132778386371"><ele>158.0</ele><time>2026-03-26T04:07:53.999Z</time></trkpt><trkpt lat="45.95625303908578" lon="12.281197034595188"><ele>158.0</ele><time>2026-03-26T04:07:54.999Z</time></trkpt><trkpt lat="45.956195002615715" lon="12.281066634850806"><ele>158.0</ele><time>2026-03-26T04:07:55.999Z</time></trkpt><trkpt lat="45.95613758006136" lon="12.280938190439246"><ele>158.8</ele><time>2026-03-26T04:07:56.999Z</time></trkpt><trkpt lat="45.95607994680568" lon="12.280809392641894"><ele>159.60000000000002</ele><time>2026-03-26T04:07:57.999Z</time></trkpt><trkpt lat="45.95601739498309" lon="12.28068447763073"><ele>160.39999999999998</ele><time>2026-03-26T04:07:58.999Z</time></trkpt><trkpt lat="45.95594562883289" lon="12.280568724746741"><ele>161.2</ele><time>2026-03-26T04:07:59.999Z</time></trkpt><trkpt lat="45.95586585998948" lon="12.28046425123702"><ele>162.0</ele><time>2026-03-26T04:08:00.999Z</time></trkpt><trkpt lat="45.95577845658449" lon="12.280370684914455"><ele>162.0</ele><time>2026-03-26T04:08:01.999Z</time></trkpt><trkpt lat="45.95568116401478" lon="12.280291548552471"><ele>162.0</ele><time>2026-03-26T04:08:02.999Z</time></trkpt><trkpt lat="45.95557810385629" lon="12.280231304600843"><ele>162.0</ele><time>2026-03-26T04:08:03.999Z</time></trkpt><trkpt lat="45.9554714685059" lon="12.28018405357869"><ele>162.0</ele><time>2026-03-26T04:08:04.999Z</time></trkpt><trkpt lat="45.955359768399596" lon="12.28014353945937"><ele>162.0</ele><time>2026-03-26T04:08:05.999Z</time></trkpt><trkpt lat="45.95525026452451" lon="12.280099144130155"><ele>162.0</ele><time>2026-03-26T04:08:06.999Z</time></trkpt><trkpt lat="45.95514036597" lon="12.280053114531185"><ele>162.0</ele><time>2026-03-26T04:08:07.999Z</time></trkpt><trkpt lat="45.95502825731567" lon="12.280009249869464"><ele>162.0</ele><time>2026-03-26T04:08:08.999Z</time></trkpt><trkpt lat="45.954914729850806" lon="12.279965739825617"><ele>162.25</ele><time>2026-03-26T04:08:09.999Z</time></trkpt><trkpt lat="45.95480047718947" lon="12.279917316179354"><ele>162.5</ele><time>2026-03-26T04:08:10.999Z</time></trkpt><trkpt lat="45.95468492956942" lon="12.279871760291966"><ele>162.75</ele><time>2026-03-26T04:08:11.999Z</time></trkpt><trkpt lat="45.95456792807665" lon="12.279826040511034"><ele>163.0</ele><time>2026-03-26T04:08:12.999Z</time></trkpt><trkpt lat="45.954450116322256" lon="12.27978084643063"><ele>163.25</ele><time>2026-03-26T04:08:13.999Z</time></trkpt><trkpt lat="45.95432966014284" lon="12.279733822240402"><ele>163.5</ele><time>2026-03-26T04:08:14.999Z</time></trkpt><trkpt lat="45.95420515965377" lon="12.279685929770503"><ele>163.75</ele><time>2026-03-26T04:08:15.999Z</time></trkpt><trkpt lat="45.95407615904681" lon="12.279633923905406"><ele>164.0</ele><time>2026-03-26T04:08:16.999Z</time></trkpt><trkpt lat="45.953939583286825" lon="12.279580531670288"><ele>164.0</ele><time>2026-03-26T04:08:17.999Z</time></trkpt><trkpt lat="45.95379820128665" lon="12.27952450113123"><ele>164.0</ele><time>2026-03-26T04:08:18.999Z</time></trkpt><trkpt lat="45.95365795500479" lon="12.27946762492546"><ele>164.0</ele><time>2026-03-26T04:08:19.999Z</time></trkpt><trkpt lat="45.95351582856646" lon="12.27940815445328"><ele>164.0</ele><time>2026-03-26T04:08:20.999Z</time></trkpt><trkpt lat="45.95336982061278" lon="12.279346174532833"><ele>163.0</ele><time>2026-03-26T04:08:21.999Z</time></trkpt><trkpt lat="45.95322290129644" lon="12.279284629614796"><ele>162.0</ele><time>2026-03-26T04:08:22.999Z</time></trkpt><trkpt lat="45.953075537738705" lon="12.279220399896078"><ele>161.0</ele><time>2026-03-26T04:08:23.999Z</time></trkpt><trkpt lat="45.952927267120465" lon="12.27915139453384"><ele>161.0</ele><time>2026-03-26T04:08:24.999Z</time></trkpt><trkpt lat="45.95277809173339" lon="12.279082962284303"><ele>161.0</ele><time>2026-03-26T04:08:26Z</time></trkpt><trkpt lat="45.9526293558342" lon="12.27901628197434"><ele>161.0</ele><time>2026-03-26T04:08:27Z</time></trkpt><trkpt lat="45.95247800879133" lon="12.27895624281807"><ele>157.33333333333331</ele><time>2026-03-26T04:08:28Z</time></trkpt><trkpt lat="45.95232705557482" lon="12.278897368764767"><ele>153.66666666666666</ele><time>2026-03-26T04:08:29Z</time></trkpt><trkpt lat="45.95217136153428" lon="12.278849512117132"><ele>150.0</ele><time>2026-03-26T04:08:30Z</time></trkpt><trkpt lat="45.95201160612307" lon="12.27881158044922"><ele>150.0</ele><time>2026-03-26T04:08:31Z</time></trkpt><trkpt lat="45.95185088542" lon="12.278781214728927"><ele>150.0</ele><time>2026-03-26T04:08:32Z</time></trkpt><trkpt lat="45.95168435516012" lon="12.278748871732487"><ele>150.0</ele><time>2026-03-26T04:08:33Z</time></trkpt><trkpt lat="45.95151677493294" lon="12.278717440723893"><ele>152.0</ele><time>2026-03-26T04:08:34Z</time></trkpt><trkpt lat="45.951345827539726" lon="12.278682125237609"><ele>154.0</ele><time>2026-03-26T04:08:35Z</time></trkpt><trkpt lat="45.95117580084308" lon="12.27864494372051"><ele>156.0</ele><time>2026-03-26T04:08:36Z</time></trkpt><trkpt lat="45.95100893864654" lon="12.278607729225387"><ele>155.33333333333334</ele><time>2026-03-26T04:08:37Z</time></trkpt><trkpt lat="45.950845688766044" lon="12.278571263238687"><ele>154.66666666666669</ele><time>2026-03-26T04:08:38Z</time></trkpt><trkpt lat="45.95068407156796" lon="12.278534684273925"><ele>154.0</ele><time>2026-03-26T04:08:39Z</time></trkpt><trkpt lat="45.95052683394953" lon="12.27850193739962"><ele>154.0</ele><time>2026-03-26T04:08:40Z</time></trkpt><trkpt lat="45.9503701935776" lon="12.27847274237217"><ele>154.0</ele><time>2026-03-26T04:08:41Z</time></trkpt><trkpt lat="45.95021673716481" lon="12.278445074161501"><ele>154.0</ele><time>2026-03-26T04:08:42Z</time></trkpt><trkpt lat="45.950065557793465" lon="12.278425203635758"><ele>154.0</ele><time>2026-03-26T04:08:43Z</time></trkpt><trkpt lat="45.94991299820084" lon="12.27841983838821"><ele>154.0</ele><time>2026-03-26T04:08:44Z</time></trkpt><trkpt lat="45.949757491191164" lon="12.278431445529643"><ele>154.0</ele><time>2026-03-26T04:08:45Z</time></trkpt><trkpt lat="45.94960052452842" lon="12.278460416666125"><ele>154.0</ele><time>2026-03-26T04:08:46Z</time></trkpt><trkpt lat="45.94944428356477" lon="12.278508673071524"><ele>154.0</ele><time>2026-03-26T04:08:47Z</time></trkpt><trkpt lat="45.9492881386936" lon="12.278572091185223"><ele>154.0</ele><time>2026-03-26T04:08:48Z</time></trkpt><trkpt lat="45.949137030596525" lon="12.278651432052897"><ele>157.33333333333334</ele><time>2026-03-26T04:08:49Z</time></trkpt><trkpt lat="45.94899325973723" lon="12.27873906026628"><ele>160.66666666666666</ele><time>2026-03-26T04:08:50Z</time></trkpt><trkpt lat="45.948852659572964" lon="12.278827860178604"><ele>164.0</ele><time>2026-03-26T04:08:51Z</time></trkpt><trkpt lat="45.94871893861222" lon="12.27891301065971"><ele>163.25</ele><time>2026-03-26T04:08:52Z</time></trkpt><trkpt lat="45.94858763989773" lon="12.2789914199827"><ele>162.5</ele><time>2026-03-26T04:08:53Z</time></trkpt><trkpt lat="45.948456523205586" lon="12.279047011444408"><ele>161.75</ele><time>2026-03-26T04:08:54Z</time></trkpt><trkpt lat="45.94832627084129" lon="12.279080124228779"><ele>161.0</ele><time>2026-03-26T04:08:55Z</time></trkpt><trkpt lat="45.948197929238994" lon="12.279088961053553"><ele>161.0</ele><time>2026-03-26T04:08:56Z</time></trkpt><trkpt lat="45.94806575294158" lon="12.279083246847625"><ele>161.0</ele><time>2026-03-26T04:08:57Z</time></trkpt><trkpt lat="45.94793137551458" lon="12.279056954546336"><ele>161.0</ele><time>2026-03-26T04:08:58Z</time></trkpt><trkpt lat="45.94779338477273" lon="12.27901092169313"><ele>161.0</ele><time>2026-03-26T04:08:59Z</time></trkpt><trkpt lat="45.94765566786064" lon="12.278942807396625"><ele>160.0</ele><time>2026-03-26T04:09:00Z</time></trkpt><trkpt lat="45.947518624910785" lon="12.27885640568481"><ele>159.0</ele><time>2026-03-26T04:09:01Z</time></trkpt><trkpt lat="45.94738015580217" lon="12.27876186901242"><ele>158.0</ele><time>2026-03-26T04:09:02Z</time></trkpt><trkpt lat="45.94723554252144" lon="12.278665707981359"><ele>158.0</ele><time>2026-03-26T04:09:03Z</time></trkpt><trkpt lat="45.94708757210357" lon="12.278571277647565"><ele>158.0</ele><time>2026-03-26T04:09:03.999Z</time></trkpt><trkpt lat="45.946935858134474" lon="12.278474202287832"><ele>158.0</ele><time>2026-03-26T04:09:04.999Z</time></trkpt><trkpt lat="45.94678130814474" lon="12.27837600631454"><ele>156.33333333333331</ele><time>2026-03-26T04:09:05.999Z</time></trkpt><trkpt lat="45.94662600328433" lon="12.278278195445324"><ele>154.66666666666666</ele><time>2026-03-26T04:09:06.999Z</time></trkpt><trkpt lat="45.94646988216404" lon="12.278181217520704"><ele>153.0</ele><time>2026-03-26T04:09:07.999Z</time></trkpt><trkpt lat="45.946314560426444" lon="12.278083475906048"><ele>152.0</ele><time>2026-03-26T04:09:08.999Z</time></trkpt><trkpt lat="45.94616083747694" lon="12.277986420988286"><ele>151.0</ele><time>2026-03-26T04:09:09.999Z</time></trkpt><trkpt lat="45.94600898515991" lon="12.277888262180081"><ele>150.0</ele><time>2026-03-26T04:09:10.999Z</time></trkpt><trkpt lat="45.94585808412289" lon="12.277787942640526"><ele>148.66666666666666</ele><time>2026-03-26T04:09:11.999Z</time></trkpt><trkpt lat="45.945710580254215" lon="12.277682408025855"><ele>147.33333333333331</ele><time>2026-03-26T04:09:12.999Z</time></trkpt><trkpt lat="45.94556682082477" lon="12.277567889972982"><ele>146.0</ele><time>2026-03-26T04:09:13.999Z</time></trkpt><trkpt lat="45.94542605534752" lon="12.277447527366608"><ele>146.0</ele><time>2026-03-26T04:09:14.999Z</time></trkpt><trkpt lat="45.94528624967353" lon="12.27732572367882"><ele>146.0</ele><time>2026-03-26T04:09:15.999Z</time></trkpt><trkpt lat="45.945145217816965" lon="12.277207394590372"><ele>146.0</ele><time>2026-03-26T04:09:16.999Z</time></trkpt><trkpt lat="45.94500510088892" lon="12.27708683825377"><ele>144.33333333333331</ele><time>2026-03-26T04:09:17.999Z</time></trkpt><trkpt lat="45.944864225910834" lon="12.276967659140606"><ele>142.66666666666666</ele><time>2026-03-26T04:09:18.999Z</time></trkpt><trkpt lat="45.94472463165647" lon="12.276844960255477"><ele>141.0</ele><time>2026-03-26T04:09:19.999Z</time></trkpt><trkpt lat="45.94458307452435" lon="12.276724879046261"><ele>141.0</ele><time>2026-03-26T04:09:20.999Z</time></trkpt><trkpt lat="45.944441982933974" lon="12.276604072227858"><ele>141.0</ele><time>2026-03-26T04:09:21.999Z</time></trkpt><trkpt lat="45.94430021009463" lon="12.27648334719077"><ele>141.0</ele><time>2026-03-26T04:09:22.999Z</time></trkpt><trkpt lat="45.94415891590342" lon="12.276362820062108"><ele>139.0</ele><time>2026-03-26T04:09:23.999Z</time></trkpt><trkpt lat="45.944017226552916" lon="12.27624559826539"><ele>137.0</ele><time>2026-03-26T04:09:24.999Z</time></trkpt><trkpt lat="45.94387502258928" lon="12.276124528046886"><ele>135.0</ele><time>2026-03-26T04:09:25.999Z</time></trkpt><trkpt lat="45.94373294025316" lon="12.27600340896616"><ele>135.0</ele><time>2026-03-26T04:09:26.999Z</time></trkpt><trkpt lat="45.94359088685963" lon="12.275884646518334"><ele>135.0</ele><time>2026-03-26T04:09:27.999Z</time></trkpt><trkpt lat="45.94344960427993" lon="12.275764654992013"><ele>135.0</ele><time>2026-03-26T04:09:28.999Z</time></trkpt><trkpt lat="45.94330725818231" lon="12.27564469170876"><ele>131.33333333333334</ele><time>2026-03-26T04:09:29.999Z</time></trkpt><trkpt lat="45.94316514721261" lon="12.275524694856854"><ele>127.66666666666667</ele><time>2026-03-26T04:09:30.999Z</time></trkpt><trkpt lat="45.94302485177514" lon="12.27540361992218"><ele>124.0</ele><time>2026-03-26T04:09:31.999Z</time></trkpt><trkpt lat="45.942886751377074" lon="12.275285476383491"><ele>124.0</ele><time>2026-03-26T04:09:32.999Z</time></trkpt><trkpt lat="45.9427490497274" lon="12.275169890119368"><ele>124.0</ele><time>2026-03-26T04:09:33.999Z</time></trkpt><trkpt lat="45.94261145648409" lon="12.275054150480926"><ele>124.0</ele><time>2026-03-26T04:09:34.999Z</time></trkpt><trkpt lat="45.94247524865091" lon="12.274939358807359"><ele>124.0</ele><time>2026-03-26T04:09:35.999Z</time></trkpt><trkpt lat="45.942341247323284" lon="12.274827847643184"><ele>124.0</ele><time>2026-03-26T04:09:36.999Z</time></trkpt><trkpt lat="45.94220348690537" lon="12.274725150505366"><ele>124.0</ele><time>2026-03-26T04:09:37.999Z</time></trkpt><trkpt lat="45.94207026430796" lon="12.274610509019688"><ele>121.66666666666667</ele><time>2026-03-26T04:09:38.999Z</time></trkpt><trkpt lat="45.94192629678599" lon="12.274525768557753"><ele>119.33333333333334</ele><time>2026-03-26T04:09:39.999Z</time></trkpt><trkpt lat="45.9417748059807" lon="12.27446855017009"><ele>117.0</ele><time>2026-03-26T04:09:40.999Z</time></trkpt><trkpt lat="45.94162888007986" lon="12.27439218227641"><ele>117.0</ele><time>2026-03-26T04:09:41.999Z</time></trkpt><trkpt lat="45.94148425558216" lon="12.274317635326959"><ele>117.0</ele><time>2026-03-26T04:09:42.999Z</time></trkpt><trkpt lat="45.94134577334678" lon="12.274248758141622"><ele>117.0</ele><time>2026-03-26T04:09:43.999Z</time></trkpt><trkpt lat="45.94121560512255" lon="12.274185821903512"><ele>117.0</ele><time>2026-03-26T04:09:44.999Z</time></trkpt><trkpt lat="45.941090510914954" lon="12.274125089888198"><ele>117.0</ele><time>2026-03-26T04:09:45.999Z</time></trkpt><trkpt lat="45.940976406999226" lon="12.274070098420372"><ele>116.99999999999999</ele><time>2026-03-26T04:09:46.999Z</time></trkpt><trkpt lat="45.94087132050243" lon="12.274014899646069"><ele>116.99999999999999</ele><time>2026-03-26T04:09:47.999Z</time></trkpt><trkpt lat="45.94077706780378" lon="12.27395641210974"><ele>117.0</ele><time>2026-03-26T04:09:48.999Z</time></trkpt><trkpt lat="45.940687069839036" lon="12.273882926426634"><ele>117.0</ele><time>2026-03-26T04:09:49.999Z</time></trkpt><trkpt lat="45.94060330348963" lon="12.273793778076968"><ele>115.6</ele><time>2026-03-26T04:09:50.999Z</time></trkpt><trkpt lat="45.940531144758296" lon="12.273687082325646"><ele>114.19999999999999</ele><time>2026-03-26T04:09:51.999Z</time></trkpt><trkpt lat="45.9404739328338" lon="12.273556459376444"><ele>112.8</ele><time>2026-03-26T04:09:52.999Z</time></trkpt><trkpt lat="45.940433396568366" lon="12.273415931294677"><ele>111.4</ele><time>2026-03-26T04:09:53.999Z</time></trkpt><trkpt lat="45.940414420330505" lon="12.273264577572535"><ele>110.0</ele><time>2026-03-26T04:09:54.999Z</time></trkpt><trkpt lat="45.94041673015088" lon="12.273110535602948"><ele>108.25</ele><time>2026-03-26T04:09:55.999Z</time></trkpt><trkpt lat="45.94043690056428" lon="12.272958161788837"><ele>106.5</ele><time>2026-03-26T04:09:56.999Z</time></trkpt><trkpt lat="45.940481465261314" lon="12.272809901800512"><ele>104.75</ele><time>2026-03-26T04:09:57.999Z</time></trkpt><trkpt lat="45.94054213196841" lon="12.272669667023079"><ele>103.0</ele><time>2026-03-26T04:09:58.999Z</time></trkpt><trkpt lat="45.94061744722486" lon="12.272530884128171"><ele>103.0</ele><time>2026-03-26T04:09:59.999Z</time></trkpt><trkpt lat="45.94069412169957" lon="12.272380607264088"><ele>103.0</ele><time>2026-03-26T04:10:00.999Z</time></trkpt><trkpt lat="45.94077006324818" lon="12.27222968289678"><ele>103.0</ele><time>2026-03-26T04:10:01.999Z</time></trkpt><trkpt lat="45.94084709320313" lon="12.272072061421827"><ele>103.0</ele><time>2026-03-26T04:10:02.999Z</time></trkpt><trkpt lat="45.9409270213169" lon="12.27190865663602"><ele>103.25</ele><time>2026-03-26T04:10:03.999Z</time></trkpt><trkpt lat="45.94100919140225" lon="12.271739036718515"><ele>103.5</ele><time>2026-03-26T04:10:04.999Z</time></trkpt><trkpt lat="45.94109471597534" lon="12.27156578841984"><ele>103.75</ele><time>2026-03-26T04:10:05.999Z</time></trkpt><trkpt lat="45.94118411611959" lon="12.271389925206746"><ele>104.0</ele><time>2026-03-26T04:10:06.999Z</time></trkpt><trkpt lat="45.941274855891876" lon="12.271211779038874"><ele>104.33333333333333</ele><time>2026-03-26T04:10:07.999Z</time></trkpt><trkpt lat="45.94136490152701" lon="12.271030024709269"><ele>104.66666666666666</ele><time>2026-03-26T04:10:08.999Z</time></trkpt><trkpt lat="45.94145459678651" lon="12.270847415400544"><ele>105.0</ele><time>2026-03-26T04:10:09.999Z</time></trkpt><trkpt lat="45.941545631022635" lon="12.27066544133082"><ele>106.0</ele><time>2026-03-26T04:10:10.999Z</time></trkpt><trkpt lat="45.94163707872822" lon="12.270483135019976"><ele>107.0</ele><time>2026-03-26T04:10:11.999Z</time></trkpt><trkpt lat="45.941728530594524" lon="12.270298919620101"><ele>108.0</ele><time>2026-03-26T04:10:12.999Z</time></trkpt><trkpt lat="45.94181989819649" lon="12.270115286636148"><ele>110.0</ele><time>2026-03-26T04:10:13.999Z</time></trkpt><trkpt lat="45.94191102548239" lon="12.269929697358762"><ele>112.0</ele><time>2026-03-26T04:10:14.999Z</time></trkpt><trkpt lat="45.942001972436444" lon="12.269742864638765"><ele>114.0</ele><time>2026-03-26T04:10:15.999Z</time></trkpt><trkpt lat="45.94209394984048" lon="12.269554927574704"><ele>114.0</ele><time>2026-03-26T04:10:16.999Z</time></trkpt><trkpt lat="45.942185385914655" lon="12.269366173437128"><ele>114.0</ele><time>2026-03-26T04:10:17.999Z</time></trkpt><trkpt lat="45.94227809237398" lon="12.269177622157773"><ele>114.0</ele><time>2026-03-26T04:10:18.999Z</time></trkpt><trkpt lat="45.94237108403131" lon="12.268988140774644"><ele>114.0</ele><time>2026-03-26T04:10:19.999Z</time></trkpt><trkpt lat="45.94246594376206" lon="12.268799161591271"><ele>114.0</ele><time>2026-03-26T04:10:20.999Z</time></trkpt><trkpt lat="45.942560953013206" lon="12.268609362840607"><ele>114.0</ele><time>2026-03-26T04:10:21.999Z</time></trkpt><trkpt lat="45.94265563169163" lon="12.26841833207124"><ele>114.0</ele><time>2026-03-26T04:10:22.999Z</time></trkpt><trkpt lat="45.94275076210651" lon="12.268226824719946"><ele>114.0</ele><time>2026-03-26T04:10:23.999Z</time></trkpt><trkpt lat="45.94284492199955" lon="12.26803405244102"><ele>114.0</ele><time>2026-03-26T04:10:24.999Z</time></trkpt><trkpt lat="45.942940049427335" lon="12.267841625378276"><ele>114.0</ele><time>2026-03-26T04:10:25.999Z</time></trkpt><trkpt lat="45.94303513752519" lon="12.267647617785366"><ele>114.0</ele><time>2026-03-26T04:10:26.999Z</time></trkpt><trkpt lat="45.94313051486129" lon="12.267454187844697"><ele>114.0</ele><time>2026-03-26T04:10:27.999Z</time></trkpt><trkpt lat="45.94322571574307" lon="12.267258818016375"><ele>114.33333333333334</ele><time>2026-03-26T04:10:28.999Z</time></trkpt><trkpt lat="45.9433213411994" lon="12.267061398576116"><ele>114.66666666666667</ele><time>2026-03-26T04:10:29.999Z</time></trkpt><trkpt lat="45.9434150808926" lon="12.266861915288601"><ele>115.0</ele><time>2026-03-26T04:10:30.999Z</time></trkpt><trkpt lat="45.943502455830036" lon="12.266653571289801"><ele>116.33333333333334</ele><time>2026-03-26T04:10:32Z</time></trkpt><trkpt lat="45.94358423716119" lon="12.266440495631926"><ele>117.66666666666666</ele><time>2026-03-26T04:10:33Z</time></trkpt><trkpt lat="45.9436568567573" lon="12.26621921946537"><ele>119.0</ele><time>2026-03-26T04:10:34Z</time></trkpt><trkpt lat="45.943724312744315" lon="12.265994202011244"><ele>119.0</ele><time>2026-03-26T04:10:35Z</time></trkpt><trkpt lat="45.9437901460992" lon="12.265767861337482"><ele>119.0</ele><time>2026-03-26T04:10:36Z</time></trkpt><trkpt lat="45.9438514924228" lon="12.265540600270675"><ele>119.0</ele><time>2026-03-26T04:10:37Z</time></trkpt><trkpt lat="45.94391269891121" lon="12.265315226009252"><ele>119.66666666666666</ele><time>2026-03-26T04:10:38Z</time></trkpt><trkpt lat="45.94396779755826" lon="12.265087904136792"><ele>120.33333333333334</ele><time>2026-03-26T04:10:39Z</time></trkpt><trkpt lat="45.944036987834" lon="12.26487178787164"><ele>121.0</ele><time>2026-03-26T04:10:40Z</time></trkpt><trkpt lat="45.94410134172048" lon="12.264657047992749"><ele>121.0</ele><time>2026-03-26T04:10:41Z</time></trkpt><trkpt lat="45.944165718851075" lon="12.264450647679599"><ele>121.0</ele><time>2026-03-26T04:10:42Z</time></trkpt><trkpt lat="45.94422830808627" lon="12.264256820190981"><ele>121.0</ele><time>2026-03-26T04:10:43Z</time></trkpt><trkpt lat="45.944293408062734" lon="12.26407033617765"><ele>122.0</ele><time>2026-03-26T04:10:44Z</time></trkpt><trkpt lat="45.944368183706" lon="12.263889012089425"><ele>123.0</ele><time>2026-03-26T04:10:45Z</time></trkpt><trkpt lat="45.944445471639504" lon="12.263711002703404"><ele>124.0</ele><time>2026-03-26T04:10:46Z</time></trkpt><trkpt lat="45.94452422829965" lon="12.263534772384427"><ele>125.0</ele><time>2026-03-26T04:10:47Z</time></trkpt><trkpt lat="45.94459841552105" lon="12.263373812923914"><ele>125.0</ele><time>2026-03-26T04:10:48Z</time></trkpt><trkpt lat="45.94466749108833" lon="12.263217470711018"><ele>125.0</ele><time>2026-03-26T04:10:49Z</time></trkpt><trkpt lat="45.944726354299455" lon="12.263058972693806"><ele>125.0</ele><time>2026-03-26T04:10:50Z</time></trkpt><trkpt lat="45.94477632065186" lon="12.262895551246904"><ele>125.0</ele><time>2026-03-26T04:10:51Z</time></trkpt><trkpt lat="45.94481177899511" lon="12.26273047848655"><ele>127.5</ele><time>2026-03-26T04:10:52Z</time></trkpt><trkpt lat="45.944838461354166" lon="12.262567350368473"><ele>130.0</ele><time>2026-03-26T04:10:53Z</time></trkpt><trkpt lat="45.94485451781111" lon="12.262411603681882"><ele>132.5</ele><time>2026-03-26T04:10:54Z</time></trkpt><trkpt lat="45.944865395666675" lon="12.262249663570316"><ele>135.0</ele><time>2026-03-26T04:10:55Z</time></trkpt><trkpt lat="45.94487004012558" lon="12.262088586664843"><ele>136.4</ele><time>2026-03-26T04:10:56Z</time></trkpt><trkpt lat="45.94487121086381" lon="12.261927382018904"><ele>137.8</ele><time>2026-03-26T04:10:57Z</time></trkpt><trkpt lat="45.94487229018768" lon="12.261768338847737"><ele>139.2</ele><time>2026-03-26T04:10:58Z</time></trkpt><trkpt lat="45.94487548285757" lon="12.261611040273381"><ele>140.6</ele><time>2026-03-26T04:10:59Z</time></trkpt><trkpt lat="45.94487932739115" lon="12.261454944392506"><ele>142.0</ele><time>2026-03-26T04:11:00Z</time></trkpt><trkpt lat="45.94488214066694" lon="12.261303506081246"><ele>143.0</ele><time>2026-03-26T04:11:01Z</time></trkpt><trkpt lat="45.94488907778693" lon="12.261168282663919"><ele>144.0</ele><time>2026-03-26T04:11:02Z</time></trkpt><trkpt lat="45.94490138683093" lon="12.261024916164889"><ele>145.0</ele><time>2026-03-26T04:11:03Z</time></trkpt><trkpt lat="45.944920581863464" lon="12.260875487284439"><ele>146.0</ele><time>2026-03-26T04:11:04Z</time></trkpt><trkpt lat="45.94495215677588" lon="12.260722566602228"><ele>147.0</ele><time>2026-03-26T04:11:05Z</time></trkpt><trkpt lat="45.94499248113268" lon="12.26056842356874"><ele>148.2</ele><time>2026-03-26T04:11:06Z</time></trkpt><trkpt lat="45.9450447283534" lon="12.26041728487731"><ele>149.39999999999998</ele><time>2026-03-26T04:11:07Z</time></trkpt><trkpt lat="45.94510343139873" lon="12.260285542461258"><ele>150.60000000000002</ele><time>2026-03-26T04:11:07.999Z</time></trkpt><trkpt lat="45.945164035622014" lon="12.26017218763796"><ele>151.8</ele><time>2026-03-26T04:11:08.999Z</time></trkpt><trkpt lat="45.94522879457405" lon="12.260065593352508"><ele>153.0</ele><time>2026-03-26T04:11:09.999Z</time></trkpt><trkpt lat="45.945298610188246" lon="12.259966470502494"><ele>153.6</ele><time>2026-03-26T04:11:10.999Z</time></trkpt><trkpt lat="45.94537161406195" lon="12.259874835371981"><ele>154.20000000000002</ele><time>2026-03-26T04:11:11.999Z</time></trkpt><trkpt lat="45.94544570316321" lon="12.259789529178413"><ele>154.8</ele><time>2026-03-26T04:11:12.999Z</time></trkpt><trkpt lat="45.94551271422023" lon="12.259712581457828"><ele>155.4</ele><time>2026-03-26T04:11:13.999Z</time></trkpt><trkpt lat="45.94557610002441" lon="12.259639876296607"><ele>156.0</ele><time>2026-03-26T04:11:14.999Z</time></trkpt><trkpt lat="45.94564594026424" lon="12.25955560916792"><ele>156.8</ele><time>2026-03-26T04:11:15.999Z</time></trkpt><trkpt lat="45.94571666328148" lon="12.259461026187964"><ele>157.6</ele><time>2026-03-26T04:11:16.999Z</time></trkpt><trkpt lat="45.9457829941124" lon="12.25934882650852"><ele>158.4</ele><time>2026-03-26T04:11:17.999Z</time></trkpt><trkpt lat="45.94584407227907" lon="12.259223442999884"><ele>159.2</ele><time>2026-03-26T04:11:18.999Z</time></trkpt><trkpt lat="45.94588994512792" lon="12.259093666445974"><ele>160.0</ele><time>2026-03-26T04:11:19.999Z</time></trkpt><trkpt lat="45.94592823596721" lon="12.25896504889993"><ele>160.2</ele><time>2026-03-26T04:11:20.999Z</time></trkpt><trkpt lat="45.945956004268886" lon="12.258824935680483"><ele>160.4</ele><time>2026-03-26T04:11:21.999Z</time></trkpt><trkpt lat="45.945975491471906" lon="12.2586760080446"><ele>160.60000000000002</ele><time>2026-03-26T04:11:22.999Z</time></trkpt><trkpt lat="45.94598358469313" lon="12.258517729029164"><ele>160.8</ele><time>2026-03-26T04:11:23.999Z</time></trkpt><trkpt lat="45.94597517909118" lon="12.258351912884043"><ele>161.0</ele><time>2026-03-26T04:11:24.999Z</time></trkpt><trkpt lat="45.94595725514007" lon="12.258181496125768"><ele>161.25</ele><time>2026-03-26T04:11:25.999Z</time></trkpt><trkpt lat="45.94591894701001" lon="12.258009596850135"><ele>161.5</ele><time>2026-03-26T04:11:26.999Z</time></trkpt><trkpt lat="45.94586728676057" lon="12.257837582395556"><ele>161.75</ele><time>2026-03-26T04:11:27.999Z</time></trkpt><trkpt lat="45.945835528359915" lon="12.257649341204985"><ele>162.0</ele><time>2026-03-26T04:11:28.999Z</time></trkpt><trkpt lat="45.94579517672677" lon="12.25746505615199"><ele>159.25</ele><time>2026-03-26T04:11:29.999Z</time></trkpt><trkpt lat="45.945751243439425" lon="12.25726988354837"><ele>156.5</ele><time>2026-03-26T04:11:30.999Z</time></trkpt><trkpt lat="45.94570919848339" lon="12.25707060119146"><ele>153.75</ele><time>2026-03-26T04:11:31.999Z</time></trkpt><trkpt lat="45.945667407810404" lon="12.256870289865477"><ele>151.0</ele><time>2026-03-26T04:11:32.999Z</time></trkpt><trkpt lat="45.94562242501667" lon="12.256667903555238"><ele>151.0</ele><time>2026-03-26T04:11:33.999Z</time></trkpt><trkpt lat="45.94557640184208" lon="12.256462211721162"><ele>151.0</ele><time>2026-03-26T04:11:34.999Z</time></trkpt><trkpt lat="45.945527143785576" lon="12.256254964717973"><ele>151.0</ele><time>2026-03-26T04:11:35.999Z</time></trkpt><trkpt lat="45.945479579649415" lon="12.256044142213131"><ele>150.66666666666669</ele><time>2026-03-26T04:11:36.999Z</time></trkpt><trkpt lat="45.94543470285707" lon="12.255830351347207"><ele>150.33333333333334</ele><time>2026-03-26T04:11:37.999Z</time></trkpt><trkpt lat="45.945388280284355" lon="12.255615989369831"><ele>150.0</ele><time>2026-03-26T04:11:38.999Z</time></trkpt><trkpt lat="45.9453412904315" lon="12.255401470281251"><ele>149.66666666666666</ele><time>2026-03-26T04:11:39.999Z</time></trkpt><trkpt lat="45.94529486111102" lon="12.255187484077025"><ele>149.33333333333331</ele><time>2026-03-26T04:11:40.999Z</time></trkpt><trkpt lat="45.94525034518797" lon="12.254973331406731"><ele>149.0</ele><time>2026-03-26T04:11:41.999Z</time></trkpt><trkpt lat="45.94520522683367" lon="12.254761574634834"><ele>148.25</ele><time>2026-03-26T04:11:42.999Z</time></trkpt><trkpt lat="45.94515820693544" lon="12.25455738785895"><ele>147.5</ele><time>2026-03-26T04:11:43.999Z</time></trkpt><trkpt lat="45.945103267039926" lon="12.254359864468283"><ele>146.75</ele><time>2026-03-26T04:11:44.999Z</time></trkpt><trkpt lat="45.94504431783786" lon="12.254164187400043"><ele>146.0</ele><time>2026-03-26T04:11:45.999Z</time></trkpt><trkpt lat="45.94496992928556" lon="12.253981059501404"><ele>145.75</ele><time>2026-03-26T04:11:46.999Z</time></trkpt><trkpt lat="45.94488467961497" lon="12.253811879051955"><ele>145.5</ele><time>2026-03-26T04:11:47.999Z</time></trkpt><trkpt lat="45.944788438035914" lon="12.25365196313156"><ele>145.25</ele><time>2026-03-26T04:11:48.999Z</time></trkpt><trkpt lat="45.94468202407296" lon="12.253503282249113"><ele>145.0</ele><time>2026-03-26T04:11:49.999Z</time></trkpt><trkpt lat="45.94456406196775" lon="12.253364350290598"><ele>145.0</ele><time>2026-03-26T04:11:50.999Z</time></trkpt><trkpt lat="45.94443674370245" lon="12.253233513400414"><ele>145.0</ele><time>2026-03-26T04:11:51.999Z</time></trkpt><trkpt lat="45.94430674386984" lon="12.253102579391493"><ele>145.0</ele><time>2026-03-26T04:11:52.999Z</time></trkpt><trkpt lat="45.94417081570673" lon="12.252974372999327"><ele>144.0</ele><time>2026-03-26T04:11:53.999Z</time></trkpt><trkpt lat="45.94403541611517" lon="12.252851277399296"><ele>143.0</ele><time>2026-03-26T04:11:54.999Z</time></trkpt><trkpt lat="45.943906205925636" lon="12.252729347448131"><ele>142.0</ele><time>2026-03-26T04:11:55.999Z</time></trkpt><trkpt lat="45.94378826540027" lon="12.252611020784055"><ele>142.0</ele><time>2026-03-26T04:11:56.999Z</time></trkpt><trkpt lat="45.9436828978563" lon="12.25248876657445"><ele>142.0</ele><time>2026-03-26T04:11:57.999Z</time></trkpt><trkpt lat="45.943588297976376" lon="12.252353965331759"><ele>142.0</ele><time>2026-03-26T04:11:58.999Z</time></trkpt><trkpt lat="45.94350560416496" lon="12.252205117579576"><ele>142.0</ele><time>2026-03-26T04:11:59.999Z</time></trkpt><trkpt lat="45.9434336834907" lon="12.25203880652111"><ele>140.75</ele><time>2026-03-26T04:12:00.999Z</time></trkpt><trkpt lat="45.94337725673064" lon="12.251853701666725"><ele>139.5</ele><time>2026-03-26T04:12:01.999Z</time></trkpt><trkpt lat="45.943340473561825" lon="12.251652520827603"><ele>138.25</ele><time>2026-03-26T04:12:02.999Z</time></trkpt><trkpt lat="45.94331560923147" lon="12.25144534312631"><ele>137.0</ele><time>2026-03-26T04:12:03.999Z</time></trkpt><trkpt lat="45.94329947354542" lon="12.251228916817201"><ele>137.0</ele><time>2026-03-26T04:12:04.999Z</time></trkpt><trkpt lat="45.943281512111795" lon="12.251009211704535"><ele>137.0</ele><time>2026-03-26T04:12:05.999Z</time></trkpt><trkpt lat="45.94326204449552" lon="12.250782869453031"><ele>137.0</ele><time>2026-03-26T04:12:06.999Z</time></trkpt><trkpt lat="45.94324783542934" lon="12.250551968058877"><ele>136.0</ele><time>2026-03-26T04:12:07.999Z</time></trkpt><trkpt lat="45.943238389489" lon="12.250315851023839"><ele>135.0</ele><time>2026-03-26T04:12:08.999Z</time></trkpt><trkpt lat="45.94322942973185" lon="12.250074994672287"><ele>134.0</ele><time>2026-03-26T04:12:09.999Z</time></trkpt><trkpt lat="45.94321982057612" lon="12.249830273186909"><ele>133.33333333333331</ele><time>2026-03-26T04:12:10.999Z</time></trkpt><trkpt lat="45.943211664014775" lon="12.24958104181475"><ele>132.66666666666666</ele><time>2026-03-26T04:12:11.999Z</time></trkpt><trkpt lat="45.94320458229151" lon="12.2493269949916"><ele>132.0</ele><time>2026-03-26T04:12:12.999Z</time></trkpt><trkpt lat="45.94319718329511" lon="12.249068752594665"><ele>131.33333333333334</ele><time>2026-03-26T04:12:13.999Z</time></trkpt><trkpt lat="45.94319054911357" lon="12.248817366438358"><ele>130.66666666666669</ele><time>2026-03-26T04:12:14.999Z</time></trkpt><trkpt lat="45.943183182100164" lon="12.24857162344182"><ele>130.0</ele><time>2026-03-26T04:12:15.999Z</time></trkpt><trkpt lat="45.94317688853203" lon="12.248332898657116"><ele>129.66666666666669</ele><time>2026-03-26T04:12:16.999Z</time></trkpt><trkpt lat="45.94316996341937" lon="12.248099954936212"><ele>129.33333333333334</ele><time>2026-03-26T04:12:17.999Z</time></trkpt><trkpt lat="45.94316288883692" lon="12.247880410743457"><ele>129.0</ele><time>2026-03-26T04:12:18.999Z</time></trkpt><trkpt lat="45.94315434220254" lon="12.247668842153765"><ele>129.0</ele><time>2026-03-26T04:12:19.999Z</time></trkpt><trkpt lat="45.94314065658505" lon="12.247469603649016"><ele>129.0</ele><time>2026-03-26T04:12:20.999Z</time></trkpt><trkpt lat="45.943110701142416" lon="12.247282598822249"><ele>129.0</ele><time>2026-03-26T04:12:21.999Z</time></trkpt><trkpt lat="45.943072164408704" lon="12.247103534347975"><ele>129.0</ele><time>2026-03-26T04:12:22.999Z</time></trkpt><trkpt lat="45.94302208458794" lon="12.24692660834857"><ele>129.5</ele><time>2026-03-26T04:12:23.999Z</time></trkpt><trkpt lat="45.942961228517085" lon="12.24675339252647"><ele>130.0</ele><time>2026-03-26T04:12:24.999Z</time></trkpt><trkpt lat="45.94289332222358" lon="12.246583114865052"><ele>130.5</ele><time>2026-03-26T04:12:25.999Z</time></trkpt><trkpt lat="45.942821114587744" lon="12.246411554555896"><ele>131.0</ele><time>2026-03-26T04:12:26.999Z</time></trkpt><trkpt lat="45.94274930733527" lon="12.246238307305285"><ele>131.0</ele><time>2026-03-26T04:12:27.999Z</time></trkpt><trkpt lat="45.942675369998646" lon="12.246061116056703"><ele>131.0</ele><time>2026-03-26T04:12:28.999Z</time></trkpt><trkpt lat="45.942599558106934" lon="12.245880711327686"><ele>131.0</ele><time>2026-03-26T04:12:29.999Z</time></trkpt><trkpt lat="45.9425206022566" lon="12.245697147986823"><ele>131.0</ele><time>2026-03-26T04:12:30.999Z</time></trkpt><trkpt lat="45.94244020037244" lon="12.245513317977865"><ele>130.75</ele><time>2026-03-26T04:12:31.999Z</time></trkpt><trkpt lat="45.942360429621225" lon="12.245332949433344"><ele>130.5</ele><time>2026-03-26T04:12:32.999Z</time></trkpt><trkpt lat="45.9422841375971" lon="12.245150388474492"><ele>130.25</ele><time>2026-03-26T04:12:33.999Z</time></trkpt><trkpt lat="45.942208849523546" lon="12.24496769778591"><ele>130.0</ele><time>2026-03-26T04:12:34.999Z</time></trkpt><trkpt lat="45.942133519561175" lon="12.24478248440537"><ele>130.0</ele><time>2026-03-26T04:12:35.999Z</time></trkpt><trkpt lat="45.942055414785806" lon="12.244599438278305"><ele>130.0</ele><time>2026-03-26T04:12:37Z</time></trkpt><trkpt lat="45.94197726263635" lon="12.244416290570241"><ele>130.0</ele><time>2026-03-26T04:12:38Z</time></trkpt><trkpt lat="45.94189690430025" lon="12.244233280451846"><ele>130.0</ele><time>2026-03-26T04:12:39Z</time></trkpt><trkpt lat="45.94181842823624" lon="12.244051002767945"><ele>129.5</ele><time>2026-03-26T04:12:40Z</time></trkpt><trkpt lat="45.94174200662888" lon="12.243872900174631"><ele>129.0</ele><time>2026-03-26T04:12:41Z</time></trkpt><trkpt lat="45.94166920207243" lon="12.24370011470674"><ele>128.5</ele><time>2026-03-26T04:12:42Z</time></trkpt><trkpt lat="45.941599672844234" lon="12.243534839838084"><ele>128.0</ele><time>2026-03-26T04:12:43Z</time></trkpt><trkpt lat="45.94153635202969" lon="12.24338305761774"><ele>127.60000000000001</ele><time>2026-03-26T04:12:44Z</time></trkpt><trkpt lat="45.941478556422844" lon="12.243244823800106"><ele>127.20000000000002</ele><time>2026-03-26T04:12:45Z</time></trkpt><trkpt lat="45.941434065089865" lon="12.243115667143375"><ele>126.8</ele><time>2026-03-26T04:12:46Z</time></trkpt><trkpt lat="45.941403038764804" lon="12.242990030670628"><ele>126.4</ele><time>2026-03-26T04:12:47Z</time></trkpt><trkpt lat="45.94138731898346" lon="12.242874880495947"><ele>126.0</ele><time>2026-03-26T04:12:48Z</time></trkpt><trkpt lat="45.941387865338484" lon="12.242766856066417"><ele>126.0</ele><time>2026-03-26T04:12:49Z</time></trkpt><trkpt lat="45.941407719973355" lon="12.242664522698941"><ele>126.0</ele><time>2026-03-26T04:12:50Z</time></trkpt><trkpt lat="45.94142291370769" lon="12.24256009651432"><ele>126.0</ele><time>2026-03-26T04:12:51Z</time></trkpt><trkpt lat="45.94150544886056" lon="12.242469933307367"><ele>126.0</ele><time>2026-03-26T04:12:52Z</time></trkpt><trkpt lat="45.94158723070657" lon="12.2423889078973"><ele>126.0</ele><time>2026-03-26T04:12:53Z</time></trkpt><trkpt lat="45.94168342968723" lon="12.24231434877529"><ele>126.25</ele><time>2026-03-26T04:12:54Z</time></trkpt><trkpt lat="45.9417841755973" lon="12.24223229087289"><ele>126.5</ele><time>2026-03-26T04:12:55Z</time></trkpt><trkpt lat="45.94187809982256" lon="12.242151143114073"><ele>126.75</ele><time>2026-03-26T04:12:56Z</time></trkpt><trkpt lat="45.941972253558255" lon="12.242069731139535"><ele>127.0</ele><time>2026-03-26T04:12:57Z</time></trkpt><trkpt lat="45.94207107930046" lon="12.241984520673276"><ele>127.0</ele><time>2026-03-26T04:12:58Z</time></trkpt><trkpt lat="45.94217345565449" lon="12.241895145017885"><ele>127.0</ele><time>2026-03-26T04:12:59Z</time></trkpt><trkpt lat="45.9422801264236" lon="12.24180353329578"><ele>127.0</ele><time>2026-03-26T04:13:00Z</time></trkpt><trkpt lat="45.94238860846346" lon="12.241708578613382"><ele>127.0</ele><time>2026-03-26T04:13:01Z</time></trkpt><trkpt lat="45.942501566873155" lon="12.241611794125758"><ele>127.0</ele><time>2026-03-26T04:13:02Z</time></trkpt><trkpt lat="45.94261852356373" lon="12.24151418209873"><ele>127.0</ele><time>2026-03-26T04:13:03Z</time></trkpt><trkpt lat="45.94274060672521" lon="12.241412896769752"><ele>127.0</ele><time>2026-03-26T04:13:04Z</time></trkpt><trkpt lat="45.94285900115642" lon="12.241312997544673"><ele>127.0</ele><time>2026-03-26T04:13:05Z</time></trkpt><trkpt lat="45.94297557780294" lon="12.24121626273245"><ele>127.5</ele><time>2026-03-26T04:13:06Z</time></trkpt><trkpt lat="45.94309630915539" lon="12.241119033260308"><ele>128.0</ele><time>2026-03-26T04:13:07Z</time></trkpt><trkpt lat="45.94321842115332" lon="12.24102340113491"><ele>128.5</ele><time>2026-03-26T04:13:07.999Z</time></trkpt><trkpt lat="45.943342134934454" lon="12.240928254758776"><ele>129.0</ele><time>2026-03-26T04:13:08.999Z</time></trkpt><trkpt lat="45.94346805083583" lon="12.240836276547391"><ele>129.0</ele><time>2026-03-26T04:13:09.999Z</time></trkpt><trkpt lat="45.94359721001376" lon="12.240749452896468"><ele>129.0</ele><time>2026-03-26T04:13:10.999Z</time></trkpt><trkpt lat="45.94372882737158" lon="12.2406648689596"><ele>129.0</ele><time>2026-03-26T04:13:11.999Z</time></trkpt><trkpt lat="45.94386071825474" lon="12.240579159032318"><ele>129.0</ele><time>2026-03-26T04:13:12.999Z</time></trkpt><trkpt lat="45.943995586315815" lon="12.240497139402072"><ele>129.25</ele><time>2026-03-26T04:13:13.999Z</time></trkpt><trkpt lat="45.94413302951823" lon="12.240418376212192"><ele>129.5</ele><time>2026-03-26T04:13:14.999Z</time></trkpt><trkpt lat="45.94427366165198" lon="12.24034304201346"><ele>129.75</ele><time>2026-03-26T04:13:15.999Z</time></trkpt><trkpt lat="45.94441592587529" lon="12.240273525241813"><ele>130.0</ele><time>2026-03-26T04:13:16.999Z</time></trkpt><trkpt lat="45.94456058799945" lon="12.240206436887123"><ele>130.66666666666669</ele><time>2026-03-26T04:13:17.999Z</time></trkpt><trkpt lat="45.94470739488862" lon="12.24013894693459"><ele>131.33333333333334</ele><time>2026-03-26T04:13:18.999Z</time></trkpt><trkpt lat="45.944853942656486" lon="12.24007174636909"><ele>132.0</ele><time>2026-03-26T04:13:19.999Z</time></trkpt><trkpt lat="45.94500240102975" lon="12.240005209310311"><ele>132.33333333333334</ele><time>2026-03-26T04:13:20.999Z</time></trkpt><trkpt lat="45.94515368313729" lon="12.239938403339448"><ele>132.66666666666669</ele><time>2026-03-26T04:13:21.999Z</time></trkpt><trkpt lat="45.945305104155466" lon="12.239870901594955"><ele>133.0</ele><time>2026-03-26T04:13:22.999Z</time></trkpt><trkpt lat="45.945458226918944" lon="12.239802625324186"><ele>133.33333333333334</ele><time>2026-03-26T04:13:23.999Z</time></trkpt><trkpt lat="45.945612250814065" lon="12.23973639450495"><ele>133.66666666666666</ele><time>2026-03-26T04:13:24.999Z</time></trkpt><trkpt lat="45.945766983592954" lon="12.239666857894406"><ele>134.0</ele><time>2026-03-26T04:13:25.999Z</time></trkpt><trkpt lat="45.945921892591166" lon="12.239597327336334"><ele>134.66666666666666</ele><time>2026-03-26T04:13:26.999Z</time></trkpt><trkpt lat="45.946078914687575" lon="12.239529718086825"><ele>135.33333333333334</ele><time>2026-03-26T04:13:27.999Z</time></trkpt><trkpt lat="45.94623543681274" lon="12.239457150586215"><ele>136.0</ele><time>2026-03-26T04:13:28.999Z</time></trkpt><trkpt lat="45.946390805703146" lon="12.23937438491342"><ele>136.0</ele><time>2026-03-26T04:13:29.999Z</time></trkpt><trkpt lat="45.946545143777826" lon="12.23928863327232"><ele>136.0</ele><time>2026-03-26T04:13:30.999Z</time></trkpt><trkpt lat="45.94669742501632" lon="12.239194277211853"><ele>136.0</ele><time>2026-03-26T04:13:31.999Z</time></trkpt><trkpt lat="45.94684699358934" lon="12.239088297592197"><ele>136.66666666666669</ele><time>2026-03-26T04:13:32.999Z</time></trkpt><trkpt lat="45.94699557496563" lon="12.238976120395874"><ele>137.33333333333334</ele><time>2026-03-26T04:13:33.999Z</time></trkpt><trkpt lat="45.947141916813074" lon="12.23886023849587"><ele>138.0</ele><time>2026-03-26T04:13:34.999Z</time></trkpt><trkpt lat="45.94728648435987" lon="12.2387402248924"><ele>138.0</ele><time>2026-03-26T04:13:35.999Z</time></trkpt><trkpt lat="45.94743024653966" lon="12.238618875162494"><ele>138.0</ele><time>2026-03-26T04:13:36.999Z</time></trkpt><trkpt lat="45.94757325183206" lon="12.238496527732666"><ele>138.0</ele><time>2026-03-26T04:13:37.999Z</time></trkpt><trkpt lat="45.94771564962402" lon="12.23837414329939"><ele>138.33333333333334</ele><time>2026-03-26T04:13:38.999Z</time></trkpt><trkpt lat="45.94785737841076" lon="12.23824966296742"><ele>138.66666666666669</ele><time>2026-03-26T04:13:39.999Z</time></trkpt><trkpt lat="45.948000695998736" lon="12.238126635046237"><ele>139.0</ele><time>2026-03-26T04:13:40.999Z</time></trkpt><trkpt lat="45.94814418899429" lon="12.238005563717415"><ele>139.33333333333334</ele><time>2026-03-26T04:13:41.999Z</time></trkpt><trkpt lat="45.94828803118765" lon="12.237881493183547"><ele>139.66666666666666</ele><time>2026-03-26T04:13:42.999Z</time></trkpt><trkpt lat="45.94843183239202" lon="12.23775976617857"><ele>140.0</ele><time>2026-03-26T04:13:43.999Z</time></trkpt><trkpt lat="45.94857291700327" lon="12.237633285934539"><ele>141.33333333333331</ele><time>2026-03-26T04:13:44.999Z</time></trkpt><trkpt lat="45.94871584911814" lon="12.237507653770779"><ele>142.66666666666666</ele><time>2026-03-26T04:13:45.999Z</time></trkpt><trkpt lat="45.9488591870679" lon="12.237385274340548"><ele>144.0</ele><time>2026-03-26T04:13:46.999Z</time></trkpt><trkpt lat="45.94900145559225" lon="12.237261995906032"><ele>144.5</ele><time>2026-03-26T04:13:47.999Z</time></trkpt><trkpt lat="45.94913943670209" lon="12.237142723405903"><ele>145.0</ele><time>2026-03-26T04:13:48.999Z</time></trkpt><trkpt lat="45.949267209322876" lon="12.237038738943161"><ele>145.5</ele><time>2026-03-26T04:13:49.999Z</time></trkpt><trkpt lat="45.94938218697787" lon="12.23694269356441"><ele>146.0</ele><time>2026-03-26T04:13:50.999Z</time></trkpt><trkpt lat="45.949487414094854" lon="12.236848008171505"><ele>146.5</ele><time>2026-03-26T04:13:51.999Z</time></trkpt><trkpt lat="45.9495912745375" lon="12.236763532802746"><ele>147.0</ele><time>2026-03-26T04:13:52.999Z</time></trkpt><trkpt lat="45.94969919101438" lon="12.236697078073584"><ele>147.5</ele><time>2026-03-26T04:13:53.999Z</time></trkpt><trkpt lat="45.94980674753294" lon="12.236638117406745"><ele>148.0</ele><time>2026-03-26T04:13:54.999Z</time></trkpt><trkpt lat="45.94991394430854" lon="12.236576493120936"><ele>148.0</ele><time>2026-03-26T04:13:55.999Z</time></trkpt><trkpt lat="45.95001587978921" lon="12.236510009650646"><ele>148.0</ele><time>2026-03-26T04:13:56.999Z</time></trkpt><trkpt lat="45.95012227801501" lon="12.236439066190492"><ele>148.0</ele><time>2026-03-26T04:13:57.999Z</time></trkpt><trkpt lat="45.95023129651597" lon="12.23636654859086"><ele>148.0</ele><time>2026-03-26T04:13:58.999Z</time></trkpt><trkpt lat="45.950346254787334" lon="12.236295371839207"><ele>148.5</ele><time>2026-03-26T04:13:59.999Z</time></trkpt><trkpt lat="45.95046138965891" lon="12.23623224205278"><ele>149.0</ele><time>2026-03-26T04:14:00.999Z</time></trkpt><trkpt lat="45.950573101187445" lon="12.236177431972413"><ele>149.5</ele><time>2026-03-26T04:14:01.999Z</time></trkpt><trkpt lat="45.95068582175251" lon="12.236119202286293"><ele>150.0</ele><time>2026-03-26T04:14:02.999Z</time></trkpt><trkpt lat="45.95079752696131" lon="12.236052417453791"><ele>150.0</ele><time>2026-03-26T04:14:03.999Z</time></trkpt><trkpt lat="45.950908606807396" lon="12.235984161583982"><ele>150.0</ele><time>2026-03-26T04:14:04.999Z</time></trkpt><trkpt lat="45.95102012173507" lon="12.235912802566494"><ele>150.0</ele><time>2026-03-26T04:14:05.999Z</time></trkpt><trkpt lat="45.95112891123574" lon="12.235833676287552"><ele>150.0</ele><time>2026-03-26T04:14:06.999Z</time></trkpt><trkpt lat="45.95123473130324" lon="12.235739265553102"><ele>150.5</ele><time>2026-03-26T04:14:07.999Z</time></trkpt><trkpt lat="45.951331125003975" lon="12.235626132576135"><ele>151.0</ele><time>2026-03-26T04:14:08.999Z</time></trkpt><trkpt lat="45.95141855535797" lon="12.235498203442539"><ele>151.5</ele><time>2026-03-26T04:14:09.999Z</time></trkpt><trkpt lat="45.951499867966476" lon="12.2353599180503"><ele>152.0</ele><time>2026-03-26T04:14:10.999Z</time></trkpt><trkpt lat="45.951578467871" lon="12.235218926695545"><ele>152.0</ele><time>2026-03-26T04:14:11.999Z</time></trkpt><trkpt lat="45.95165714002208" lon="12.235074540472992"><ele>152.0</ele><time>2026-03-26T04:14:12.999Z</time></trkpt><trkpt lat="45.951742866368676" lon="12.234939691500124"><ele>152.0</ele><time>2026-03-26T04:14:13.999Z</time></trkpt><trkpt lat="45.95184016344358" lon="12.234814189382675"><ele>152.0</ele><time>2026-03-26T04:14:14.999Z</time></trkpt><trkpt lat="45.95194567947526" lon="12.234703352467308"><ele>152.75</ele><time>2026-03-26T04:14:15.999Z</time></trkpt><trkpt lat="45.952054901930985" lon="12.234601205904722"><ele>153.5</ele><time>2026-03-26T04:14:16.999Z</time></trkpt><trkpt lat="45.9521685108539" lon="12.234503679620573"><ele>154.25</ele><time>2026-03-26T04:14:17.999Z</time></trkpt><trkpt lat="45.95228191343245" lon="12.234409630191509"><ele>155.0</ele><time>2026-03-26T04:14:18.999Z</time></trkpt><trkpt lat="45.95239548131359" lon="12.23431159951448"><ele>155.0</ele><time>2026-03-26T04:14:19.999Z</time></trkpt><trkpt lat="45.95251018276733" lon="12.234215824296234"><ele>155.0</ele><time>2026-03-26T04:14:20.999Z</time></trkpt><trkpt lat="45.952623477687155" lon="12.2341200885458"><ele>155.0</ele><time>2026-03-26T04:14:21.999Z</time></trkpt><trkpt lat="45.952734511451894" lon="12.234022038338685"><ele>155.0</ele><time>2026-03-26T04:14:22.999Z</time></trkpt><trkpt lat="45.95284748997369" lon="12.23392202811893"><ele>155.5</ele><time>2026-03-26T04:14:23.999Z</time></trkpt><trkpt lat="45.95296028228238" lon="12.233821902272124"><ele>156.0</ele><time>2026-03-26T04:14:24.999Z</time></trkpt><trkpt lat="45.953073138503356" lon="12.23372186640147"><ele>156.5</ele><time>2026-03-26T04:14:25.999Z</time></trkpt><trkpt lat="45.953187387859394" lon="12.23362153822108"><ele>157.0</ele><time>2026-03-26T04:14:26.999Z</time></trkpt><trkpt lat="45.95330451135758" lon="12.23352459920012"><ele>156.25</ele><time>2026-03-26T04:14:27.999Z</time></trkpt><trkpt lat="45.95342561580698" lon="12.233431694684233"><ele>155.5</ele><time>2026-03-26T04:14:28.999Z</time></trkpt><trkpt lat="45.953546024268654" lon="12.233333786188025"><ele>154.75</ele><time>2026-03-26T04:14:29.999Z</time></trkpt><trkpt lat="45.953668412054384" lon="12.23323354945344"><ele>154.0</ele><time>2026-03-26T04:14:30.999Z</time></trkpt><trkpt lat="45.953790432365146" lon="12.233131362815897"><ele>154.25</ele><time>2026-03-26T04:14:31.999Z</time></trkpt><trkpt lat="45.95391403614052" lon="12.233026639101817"><ele>154.5</ele><time>2026-03-26T04:14:32.999Z</time></trkpt><trkpt lat="45.954037062387364" lon="12.232919953940863"><ele>154.75</ele><time>2026-03-26T04:14:33.999Z</time></trkpt><trkpt lat="45.95416267494388" lon="12.23281334575206"><ele>155.0</ele><time>2026-03-26T04:14:34.999Z</time></trkpt><trkpt lat="45.95429216727353" lon="12.232704553026235"><ele>155.0</ele><time>2026-03-26T04:14:35.999Z</time></trkpt><trkpt lat="45.954420807338444" lon="12.232590843423452"><ele>155.0</ele><time>2026-03-26T04:14:36.999Z</time></trkpt><trkpt lat="45.95454747244852" lon="12.232466722903514"><ele>155.0</ele><time>2026-03-26T04:14:37.999Z</time></trkpt><trkpt lat="45.95467043200633" lon="12.23233006598362"><ele>156.0</ele><time>2026-03-26T04:14:38.999Z</time></trkpt><trkpt lat="45.954791130308536" lon="12.232186163348358"><ele>157.0</ele><time>2026-03-26T04:14:39.999Z</time></trkpt><trkpt lat="45.95490919755566" lon="12.232041716616186"><ele>158.0</ele><time>2026-03-26T04:14:40.999Z</time></trkpt><trkpt lat="45.95502993748965" lon="12.231892002821919"><ele>156.66666666666666</ele><time>2026-03-26T04:14:42Z</time></trkpt><trkpt lat="45.95515149457123" lon="12.23174228547306"><ele>155.33333333333334</ele><time>2026-03-26T04:14:43Z</time></trkpt><trkpt lat="45.95527372232484" lon="12.231588931174699"><ele>154.0</ele><time>2026-03-26T04:14:44Z</time></trkpt><trkpt lat="45.95539541741799" lon="12.231436104298476"><ele>157.66666666666669</ele><time>2026-03-26T04:14:45Z</time></trkpt><trkpt lat="45.9555205403254" lon="12.231283924050832"><ele>161.33333333333334</ele><time>2026-03-26T04:14:46Z</time></trkpt><trkpt lat="45.95564755556158" lon="12.231128170484661"><ele>165.0</ele><time>2026-03-26T04:14:47Z</time></trkpt><trkpt lat="45.955772822662674" lon="12.23097236372992"><ele>165.33333333333334</ele><time>2026-03-26T04:14:48Z</time></trkpt><trkpt lat="45.95589503701356" lon="12.230817862565805"><ele>165.66666666666669</ele><time>2026-03-26T04:14:49Z</time></trkpt><trkpt lat="45.95601743933902" lon="12.230669500191064"><ele>166.0</ele><time>2026-03-26T04:14:50Z</time></trkpt><trkpt lat="45.956140171239156" lon="12.230525589559745"><ele>166.0</ele><time>2026-03-26T04:14:51Z</time></trkpt><trkpt lat="45.95626359529471" lon="12.230380543458304"><ele>166.0</ele><time>2026-03-26T04:14:52Z</time></trkpt><trkpt lat="45.95638112263349" lon="12.230222434816032"><ele>166.0</ele><time>2026-03-26T04:14:53Z</time></trkpt><trkpt lat="45.95649642134297" lon="12.230059966047678"><ele>166.0</ele><time>2026-03-26T04:14:54Z</time></trkpt><trkpt lat="45.95661261945965" lon="12.2298970729506"><ele>166.0</ele><time>2026-03-26T04:14:55Z</time></trkpt><trkpt lat="45.956730457552446" lon="12.229734238527433"><ele>166.0</ele><time>2026-03-26T04:14:56Z</time></trkpt><trkpt lat="45.95685079253278" lon="12.229572304940442"><ele>165.0</ele><time>2026-03-26T04:14:57Z</time></trkpt><trkpt lat="45.95696228410297" lon="12.229399436003217"><ele>164.0</ele><time>2026-03-26T04:14:58Z</time></trkpt><trkpt lat="45.95707207816449" lon="12.229222419725902"><ele>163.0</ele><time>2026-03-26T04:14:59Z</time></trkpt><trkpt lat="45.95717765588752" lon="12.22904002967413"><ele>166.33333333333334</ele><time>2026-03-26T04:15:00Z</time></trkpt><trkpt lat="45.95727909796199" lon="12.228855546639979"><ele>169.66666666666666</ele><time>2026-03-26T04:15:01Z</time></trkpt><trkpt lat="45.95738221718708" lon="12.228671324501786"><ele>173.0</ele><time>2026-03-26T04:15:02Z</time></trkpt><trkpt lat="45.95748543103506" lon="12.22848445997665"><ele>171.0</ele><time>2026-03-26T04:15:03Z</time></trkpt><trkpt lat="45.957587987354955" lon="12.228297111815564"><ele>169.0</ele><time>2026-03-26T04:15:04Z</time></trkpt><trkpt lat="45.957693277836185" lon="12.228109985285766"><ele>167.0</ele><time>2026-03-26T04:15:05Z</time></trkpt><trkpt lat="45.9578002132658" lon="12.227923260147147"><ele>167.0</ele><time>2026-03-26T04:15:06Z</time></trkpt><trkpt lat="45.95790927947372" lon="12.22773679582178"><ele>167.0</ele><time>2026-03-26T04:15:07Z</time></trkpt><trkpt lat="45.958020006022224" lon="12.227553162173306"><ele>167.0</ele><time>2026-03-26T04:15:07.999Z</time></trkpt><trkpt lat="45.958138240834224" lon="12.227379272429301"><ele>167.66666666666666</ele><time>2026-03-26T04:15:08.999Z</time></trkpt><trkpt lat="45.958267563233264" lon="12.227220803867727"><ele>168.33333333333334</ele><time>2026-03-26T04:15:09.999Z</time></trkpt><trkpt lat="45.9584080428074" lon="12.227084341070407"><ele>169.0</ele><time>2026-03-26T04:15:10.999Z</time></trkpt><trkpt lat="45.958553597611846" lon="12.226960141897138"><ele>169.66666666666669</ele><time>2026-03-26T04:15:11.999Z</time></trkpt><trkpt lat="45.95870337456884" lon="12.226842030286655"><ele>170.33333333333334</ele><time>2026-03-26T04:15:12.999Z</time></trkpt><trkpt lat="45.9588512628911" lon="12.226729117020716"><ele>171.0</ele><time>2026-03-26T04:15:13.999Z</time></trkpt><trkpt lat="45.95899776045895" lon="12.226612115685475"><ele>171.0</ele><time>2026-03-26T04:15:14.999Z</time></trkpt><trkpt lat="45.959143510219775" lon="12.226495149106345"><ele>171.0</ele><time>2026-03-26T04:15:15.999Z</time></trkpt><trkpt lat="45.95928893566908" lon="12.226383427169212"><ele>171.0</ele><time>2026-03-26T04:15:16.999Z</time></trkpt><trkpt lat="45.95943146827867" lon="12.226275412528919"><ele>173.25</ele><time>2026-03-26T04:15:17.999Z</time></trkpt><trkpt lat="45.959565826015115" lon="12.22616816225569"><ele>175.5</ele><time>2026-03-26T04:15:18.999Z</time></trkpt><trkpt lat="45.95969495050379" lon="12.226070353733556"><ele>177.75</ele><time>2026-03-26T04:15:19.999Z</time></trkpt><trkpt lat="45.95982008522228" lon="12.2259840326223"><ele>180.0</ele><time>2026-03-26T04:15:20.999Z</time></trkpt><trkpt lat="45.95994019192823" lon="12.22591023259347"><ele>182.25</ele><time>2026-03-26T04:15:21.999Z</time></trkpt><trkpt lat="45.96006387162298" lon="12.225861175345276"><ele>184.5</ele><time>2026-03-26T04:15:22.999Z</time></trkpt><trkpt lat="45.96019113365462" lon="12.225834757961742"><ele>186.75</ele><time>2026-03-26T04:15:23.999Z</time></trkpt><trkpt lat="45.96031726370731" lon="12.225824452171656"><ele>189.0</ele><time>2026-03-26T04:15:24.999Z</time></trkpt><trkpt lat="45.96043811150987" lon="12.22582188314135"><ele>189.0</ele><time>2026-03-26T04:15:25.999Z</time></trkpt><trkpt lat="45.96055461114029" lon="12.225822102655068"><ele>189.0</ele><time>2026-03-26T04:15:26.999Z</time></trkpt><trkpt lat="45.96067560701298" lon="12.225821688635678"><ele>189.0</ele><time>2026-03-26T04:15:27.999Z</time></trkpt><trkpt lat="45.9607971609236" lon="12.225821895798916"><ele>189.0</ele><time>2026-03-26T04:15:28.999Z</time></trkpt><trkpt lat="45.96091742985288" lon="12.225820601150685"><ele>190.5</ele><time>2026-03-26T04:15:29.999Z</time></trkpt><trkpt lat="45.96103811594979" lon="12.225822418631099"><ele>192.0</ele><time>2026-03-26T04:15:30.999Z</time></trkpt><trkpt lat="45.961160360683614" lon="12.225821889743242"><ele>193.5</ele><time>2026-03-26T04:15:31.999Z</time></trkpt><trkpt lat="45.961285092151094" lon="12.225822485570768"><ele>195.0</ele><time>2026-03-26T04:15:32.999Z</time></trkpt><trkpt lat="45.96140850607382" lon="12.22582447534783"><ele>195.0</ele><time>2026-03-26T04:15:33.999Z</time></trkpt><trkpt lat="45.96153285334312" lon="12.225824288701792"><ele>195.0</ele><time>2026-03-26T04:15:34.999Z</time></trkpt><trkpt lat="45.96165855882589" lon="12.225824528942473"><ele>195.0</ele><time>2026-03-26T04:15:35.999Z</time></trkpt><trkpt lat="45.96178577506407" lon="12.22582555950703"><ele>195.0</ele><time>2026-03-26T04:15:36.999Z</time></trkpt><trkpt lat="45.96191326858275" lon="12.225827674596268"><ele>196.5</ele><time>2026-03-26T04:15:37.999Z</time></trkpt><trkpt lat="45.96204198071771" lon="12.22582844716928"><ele>198.0</ele><time>2026-03-26T04:15:38.999Z</time></trkpt><trkpt lat="45.9621720835152" lon="12.22582821233957"><ele>199.5</ele><time>2026-03-26T04:15:39.999Z</time></trkpt><trkpt lat="45.96230408183547" lon="12.225830347734945"><ele>201.0</ele><time>2026-03-26T04:15:40.999Z</time></trkpt><trkpt lat="45.96243706696047" lon="12.225831365220765"><ele>201.75</ele><time>2026-03-26T04:15:41.999Z</time></trkpt><trkpt lat="45.96257122403703" lon="12.225832917795303"><ele>202.5</ele><time>2026-03-26T04:15:42.999Z</time></trkpt><trkpt lat="45.96270808388431" lon="12.225835001661126"><ele>203.25</ele><time>2026-03-26T04:15:43.999Z</time></trkpt><trkpt lat="45.96284249978882" lon="12.225836829025399"><ele>204.0</ele><time>2026-03-26T04:15:44.999Z</time></trkpt><trkpt lat="45.962979255521596" lon="12.225835292937212"><ele>204.0</ele><time>2026-03-26T04:15:45.999Z</time></trkpt><trkpt lat="45.96311684794341" lon="12.225836162555652"><ele>204.0</ele><time>2026-03-26T04:15:46.999Z</time></trkpt><trkpt lat="45.96325580223824" lon="12.225838297751409"><ele>204.0</ele><time>2026-03-26T04:15:47.999Z</time></trkpt><trkpt lat="45.96339544235515" lon="12.225838836757438"><ele>204.0</ele><time>2026-03-26T04:15:48.999Z</time></trkpt><trkpt lat="45.96353461730278" lon="12.225838117142413"><ele>204.25</ele><time>2026-03-26T04:15:49.999Z</time></trkpt><trkpt lat="45.96367382682187" lon="12.225837831850544"><ele>204.5</ele><time>2026-03-26T04:15:50.999Z</time></trkpt><trkpt lat="45.96381277115343" lon="12.225836305324455"><ele>204.75</ele><time>2026-03-26T04:15:51.999Z</time></trkpt><trkpt lat="45.96395153664166" lon="12.225834827171742"><ele>205.0</ele><time>2026-03-26T04:15:52.999Z</time></trkpt><trkpt lat="45.96409097147893" lon="12.225834232372298"><ele>206.25</ele><time>2026-03-26T04:15:53.999Z</time></trkpt><trkpt lat="45.96423100659515" lon="12.225832358957735"><ele>207.5</ele><time>2026-03-26T04:15:54.999Z</time></trkpt><trkpt lat="45.96437286865717" lon="12.225832150186562"><ele>208.75</ele><time>2026-03-26T04:15:55.999Z</time></trkpt><trkpt lat="45.964504983700735" lon="12.225832247996912"><ele>210.0</ele><time>2026-03-26T04:15:56.999Z</time></trkpt><trkpt lat="45.96462653755972" lon="12.225833457186923"><ele>210.0</ele><time>2026-03-26T04:15:57.999Z</time></trkpt><trkpt lat="45.96473763785827" lon="12.225835313139301"><ele>210.0</ele><time>2026-03-26T04:15:58.999Z</time></trkpt><trkpt lat="45.964841126450665" lon="12.225836657083699"><ele>210.0</ele><time>2026-03-26T04:15:59.999Z</time></trkpt><trkpt lat="45.964939295144625" lon="12.225844489970086"><ele>210.0</ele><time>2026-03-26T04:16:00.999Z</time></trkpt><trkpt lat="45.965027981860736" lon="12.225885265053721"><ele>210.0</ele><time>2026-03-26T04:16:01.999Z</time></trkpt><trkpt lat="45.96510554112316" lon="12.225959399539143"><ele>213.2</ele><time>2026-03-26T04:16:02.999Z</time></trkpt><trkpt lat="45.96516590106457" lon="12.226060600499304"><ele>216.4</ele><time>2026-03-26T04:16:03.999Z</time></trkpt><trkpt lat="45.9652017258703" lon="12.226184034911073"><ele>219.60000000000002</ele><time>2026-03-26T04:16:04.999Z</time></trkpt><trkpt lat="45.96520895952145" lon="12.226317599167263"><ele>222.8</ele><time>2026-03-26T04:16:05.999Z</time></trkpt><trkpt lat="45.96519501458752" lon="12.226446093387102"><ele>226.0</ele><time>2026-03-26T04:16:06.999Z</time></trkpt><trkpt lat="45.965159818427836" lon="12.226561146967898"><ele>226.8</ele><time>2026-03-26T04:16:07.999Z</time></trkpt><trkpt lat="45.96512015017737" lon="12.22665728142239"><ele>227.60000000000002</ele><time>2026-03-26T04:16:08.999Z</time></trkpt><trkpt lat="45.965075855768944" lon="12.226767758568437"><ele>228.4</ele><time>2026-03-26T04:16:09.999Z</time></trkpt><trkpt lat="45.96503064747641" lon="12.226890190520473"><ele>229.2</ele><time>2026-03-26T04:16:10.999Z</time></trkpt><trkpt lat="45.964985878729124" lon="12.227022054076745"><ele>230.0</ele><time>2026-03-26T04:16:11.999Z</time></trkpt><trkpt lat="45.9649477028044" lon="12.227168408692185"><ele>227.0</ele><time>2026-03-26T04:16:12.999Z</time></trkpt><trkpt lat="45.96491999590144" lon="12.227326611053835"><ele>224.0</ele><time>2026-03-26T04:16:13.999Z</time></trkpt><trkpt lat="45.96490218532688" lon="12.227496039334275"><ele>221.0</ele><time>2026-03-26T04:16:14.999Z</time></trkpt><trkpt lat="45.96490133730271" lon="12.227656433488715"><ele>218.0</ele><time>2026-03-26T04:16:15.999Z</time></trkpt><trkpt lat="45.96491664412279" lon="12.227807064592565"><ele>218.0</ele><time>2026-03-26T04:16:16.999Z</time></trkpt><trkpt lat="45.96493481340482" lon="12.227958202905572"><ele>218.0</ele><time>2026-03-26T04:16:17.999Z</time></trkpt><trkpt lat="45.96496513367402" lon="12.228106546741865"><ele>218.0</ele><time>2026-03-26T04:16:18.999Z</time></trkpt><trkpt lat="45.96500800011695" lon="12.228251939872617"><ele>218.0</ele><time>2026-03-26T04:16:19.999Z</time></trkpt><trkpt lat="45.965062606228145" lon="12.228391716115967"><ele>218.0</ele><time>2026-03-26T04:16:20.999Z</time></trkpt><trkpt lat="45.965129998747706" lon="12.228522232734026"><ele>222.25</ele><time>2026-03-26T04:16:21.999Z</time></trkpt><trkpt lat="45.965200479814115" lon="12.228646904621781"><ele>226.5</ele><time>2026-03-26T04:16:22.999Z</time></trkpt><trkpt lat="45.965273299152265" lon="12.228769465325318"><ele>230.75</ele><time>2026-03-26T04:16:23.999Z</time></trkpt><trkpt lat="45.96534665181753" lon="12.228894143409834"><ele>235.0</ele><time>2026-03-26T04:16:24.999Z</time></trkpt><trkpt lat="45.965419276230044" lon="12.229019801966633"><ele>235.0</ele><time>2026-03-26T04:16:25.999Z</time></trkpt><trkpt lat="45.96549502057727" lon="12.229142476534628"><ele>235.0</ele><time>2026-03-26T04:16:26.999Z</time></trkpt><trkpt lat="45.96557298949242" lon="12.229265592079132"><ele>235.0</ele><time>2026-03-26T04:16:27.999Z</time></trkpt><trkpt lat="45.96565389101012" lon="12.22938548211871"><ele>235.0</ele><time>2026-03-26T04:16:28.999Z</time></trkpt><trkpt lat="45.96574338712027" lon="12.229495779343067"><ele>235.0</ele><time>2026-03-26T04:16:29.999Z</time></trkpt><trkpt lat="45.96583877433595" lon="12.229596478712194"><ele>235.0</ele><time>2026-03-26T04:16:30.999Z</time></trkpt><trkpt lat="45.9659386963251" lon="12.229688122115087"><ele>235.0</ele><time>2026-03-26T04:16:31.999Z</time></trkpt><trkpt lat="45.96604477140978" lon="12.229769338516512"><ele>235.0</ele><time>2026-03-26T04:16:32.999Z</time></trkpt><trkpt lat="45.96615675153349" lon="12.229838737367151"><ele>233.75</ele><time>2026-03-26T04:16:33.999Z</time></trkpt><trkpt lat="45.96627371718388" lon="12.229895575561649"><ele>232.5</ele><time>2026-03-26T04:16:34.999Z</time></trkpt><trkpt lat="45.966394030723286" lon="12.229945098446926"><ele>231.25</ele><time>2026-03-26T04:16:35.999Z</time></trkpt><trkpt lat="45.96651690589011" lon="12.229988565999367"><ele>230.0</ele><time>2026-03-26T04:16:36.999Z</time></trkpt><trkpt lat="45.96664313621777" lon="12.230022609359267"><ele>231.25</ele><time>2026-03-26T04:16:37.999Z</time></trkpt><trkpt lat="45.96677279313255" lon="12.230053302566818"><ele>232.5</ele><time>2026-03-26T04:16:38.999Z</time></trkpt><trkpt lat="45.96690354994272" lon="12.23007983879492"><ele>233.75</ele><time>2026-03-26T04:16:39.999Z</time></trkpt><trkpt lat="45.967038581529586" lon="12.230100888611114"><ele>235.0</ele><time>2026-03-26T04:16:40.999Z</time></trkpt><trkpt lat="45.967171696316505" lon="12.230100674280733"><ele>235.0</ele><time>2026-03-26T04:16:41.999Z</time></trkpt><trkpt lat="45.967296256502514" lon="12.230092652574136"><ele>235.0</ele><time>2026-03-26T04:16:42.999Z</time></trkpt><trkpt lat="45.967421112378986" lon="12.230076486340316"><ele>235.0</ele><time>2026-03-26T04:16:43.999Z</time></trkpt><trkpt lat="45.96754324188388" lon="12.230052463121025"><ele>235.0</ele><time>2026-03-26T04:16:44.999Z</time></trkpt><trkpt lat="45.96766530304108" lon="12.230020232140978"><ele>236.4</ele><time>2026-03-26T04:16:45.998Z</time></trkpt><trkpt lat="45.96778202398105" lon="12.229987184932744"><ele>237.8</ele><time>2026-03-26T04:16:46.998Z</time></trkpt><trkpt lat="45.967897476455725" lon="12.229957182248805"><ele>239.2</ele><time>2026-03-26T04:16:48Z</time></trkpt><trkpt lat="45.96800485138311" lon="12.229940613748555"><ele>240.6</ele><time>2026-03-26T04:16:49Z</time></trkpt><trkpt lat="45.96810640032661" lon="12.229963658562749"><ele>242.0</ele><time>2026-03-26T04:16:50Z</time></trkpt><trkpt lat="45.96819402062268" lon="12.230027808962046"><ele>242.00000000000003</ele><time>2026-03-26T04:16:51Z</time></trkpt><trkpt lat="45.968261582209465" lon="12.230120329055902"><ele>242.0</ele><time>2026-03-26T04:16:52Z</time></trkpt><trkpt lat="45.968308763803414" lon="12.230235735790815"><ele>242.0</ele><time>2026-03-26T04:16:53Z</time></trkpt><trkpt lat="45.968334695166156" lon="12.230366629310485"><ele>242.0</ele><time>2026-03-26T04:16:54Z</time></trkpt><trkpt lat="45.96834494095717" lon="12.230485067055112"><ele>242.00000000000003</ele><time>2026-03-26T04:16:55Z</time></trkpt><trkpt lat="45.96836321396433" lon="12.230605232608008"><ele>242.0</ele><time>2026-03-26T04:16:56Z</time></trkpt><trkpt lat="45.96838979109285" lon="12.230733677781718"><ele>244.39999999999998</ele><time>2026-03-26T04:16:57Z</time></trkpt><trkpt lat="45.968434023678974" lon="12.230861076110877"><ele>246.79999999999998</ele><time>2026-03-26T04:16:58Z</time></trkpt><trkpt lat="45.9684978890249" lon="12.230962057100573"><ele>249.2</ele><time>2026-03-26T04:16:59Z</time></trkpt><trkpt lat="45.968566670498596" lon="12.231039166814227"><ele>251.6</ele><time>2026-03-26T04:17:00Z</time></trkpt><trkpt lat="45.968641330539015" lon="12.231102962411367"><ele>254.0</ele><time>2026-03-26T04:17:01Z</time></trkpt><trkpt lat="45.96872227666673" lon="12.231150099606268"><ele>254.00000000000003</ele><time>2026-03-26T04:17:02Z</time></trkpt><trkpt lat="45.968801976531154" lon="12.231188408128656"><ele>254.0</ele><time>2026-03-26T04:17:03Z</time></trkpt><trkpt lat="45.968884958147704" lon="12.23121309949452"><ele>254.0</ele><time>2026-03-26T04:17:04Z</time></trkpt><trkpt lat="45.96896781029381" lon="12.231236904542527"><ele>254.0</ele><time>2026-03-26T04:17:05Z</time></trkpt><trkpt lat="45.969049791917854" lon="12.231268577846743"><ele>254.00000000000003</ele><time>2026-03-26T04:17:06Z</time></trkpt><trkpt lat="45.96913315548053" lon="12.231307663697581"><ele>254.0</ele><time>2026-03-26T04:17:07Z</time></trkpt><trkpt lat="45.969212208100636" lon="12.231364503670457"><ele>255.16666666666669</ele><time>2026-03-26T04:17:08Z</time></trkpt><trkpt lat="45.96927775220254" lon="12.231446847929623"><ele>256.33333333333337</ele><time>2026-03-26T04:17:09Z</time></trkpt><trkpt lat="45.969320799158986" lon="12.231555891889753"><ele>257.5</ele><time>2026-03-26T04:17:09.999Z</time></trkpt><trkpt lat="45.969332302112676" lon="12.231680436669144"><ele>258.6666666666667</ele><time>2026-03-26T04:17:10.999Z</time></trkpt><trkpt lat="45.969324479147225" lon="12.231790438039194"><ele>259.8333333333333</ele><time>2026-03-26T04:17:11.999Z</time></trkpt><trkpt lat="45.96930668226749" lon="12.23190227226469"><ele>261.0</ele><time>2026-03-26T04:17:12.999Z</time></trkpt><trkpt lat="45.969288054884174" lon="12.232022202651054"><ele>261.0</ele><time>2026-03-26T04:17:13.999Z</time></trkpt><trkpt lat="45.969284087148026" lon="12.232137510087805"><ele>261.0</ele><time>2026-03-26T04:17:14.999Z</time></trkpt><trkpt lat="45.96930073154778" lon="12.23224984422831"><ele>261.0</ele><time>2026-03-26T04:17:15.999Z</time></trkpt><trkpt lat="45.969343079283284" lon="12.232361321630586"><ele>261.0</ele><time>2026-03-26T04:17:16.999Z</time></trkpt><trkpt lat="45.969398851322254" lon="12.232466090840196"><ele>261.0</ele><time>2026-03-26T04:17:17.999Z</time></trkpt><trkpt lat="45.969469389184574" lon="12.232567679862326"><ele>261.0</ele><time>2026-03-26T04:17:18.999Z</time></trkpt><trkpt lat="45.96955669075936" lon="12.232660250165894"><ele>260.40000000000003</ele><time>2026-03-26T04:17:19.999Z</time></trkpt><trkpt lat="45.96964424407348" lon="12.232748097167626"><ele>259.8</ele><time>2026-03-26T04:17:20.999Z</time></trkpt><trkpt lat="45.96972037624918" lon="12.232839593422145"><ele>259.20000000000005</ele><time>2026-03-26T04:17:21.999Z</time></trkpt><trkpt lat="45.96979871275683" lon="12.232929939332031"><ele>258.6</ele><time>2026-03-26T04:17:22.999Z</time></trkpt><trkpt lat="45.96988001280466" lon="12.233022013605568"><ele>258.0</ele><time>2026-03-26T04:17:23.999Z</time></trkpt><trkpt lat="45.9699632439915" lon="12.233116246019225"><ele>258.2</ele><time>2026-03-26T04:17:24.999Z</time></trkpt><trkpt lat="45.970049742188195" lon="12.233210687110422"><ele>258.4</ele><time>2026-03-26T04:17:25.999Z</time></trkpt><trkpt lat="45.970136957754086" lon="12.233306311960902"><ele>258.59999999999997</ele><time>2026-03-26T04:17:26.999Z</time></trkpt><trkpt lat="45.97022562107721" lon="12.233404088060256"><ele>258.8</ele><time>2026-03-26T04:17:27.999Z</time></trkpt><trkpt lat="45.9703160962376" lon="12.233503703239553"><ele>259.0</ele><time>2026-03-26T04:17:28.999Z</time></trkpt><trkpt lat="45.97040856678993" lon="12.233604887621116"><ele>259.0</ele><time>2026-03-26T04:17:29.999Z</time></trkpt><trkpt lat="45.97050613056615" lon="12.233703493493524"><ele>259.0</ele><time>2026-03-26T04:17:30.999Z</time></trkpt><trkpt lat="45.97061340472983" lon="12.233784137553332"><ele>259.0</ele><time>2026-03-26T04:17:31.999Z</time></trkpt><trkpt lat="45.970724242188105" lon="12.233848778374494"><ele>259.0</ele><time>2026-03-26T04:17:32.999Z</time></trkpt><trkpt lat="45.97084175706785" lon="12.233900969769245"><ele>259.75</ele><time>2026-03-26T04:17:33.999Z</time></trkpt><trkpt lat="45.97096235776869" lon="12.23394438870967"><ele>260.5</ele><time>2026-03-26T04:17:34.999Z</time></trkpt><trkpt lat="45.9710883064158" lon="12.233979980762594"><ele>261.25</ele><time>2026-03-26T04:17:35.999Z</time></trkpt><trkpt lat="45.97120570877641" lon="12.234006890147048"><ele>262.0</ele><time>2026-03-26T04:17:36.999Z</time></trkpt><trkpt lat="45.97131470192931" lon="12.234014328731158"><ele>262.0</ele><time>2026-03-26T04:17:37.999Z</time></trkpt><trkpt lat="45.971422127987516" lon="12.234007996751648"><ele>262.0</ele><time>2026-03-26T04:17:38.999Z</time></trkpt><trkpt lat="45.97153022240107" lon="12.233981008161017"><ele>262.0</ele><time>2026-03-26T04:17:39.999Z</time></trkpt><trkpt lat="45.971641779980395" lon="12.233943711916545"><ele>262.0</ele><time>2026-03-26T04:17:40.999Z</time></trkpt><trkpt lat="45.97175286190099" lon="12.233891304081066"><ele>262.0</ele><time>2026-03-26T04:17:41.999Z</time></trkpt><trkpt lat="45.97186026658901" lon="12.23382448517654"><ele>264.0</ele><time>2026-03-26T04:17:42.999Z</time></trkpt><trkpt lat="45.97196395191409" lon="12.233740682224662"><ele>266.0</ele><time>2026-03-26T04:17:43.999Z</time></trkpt><trkpt lat="45.97206292519546" lon="12.233641674921143"><ele>268.0</ele><time>2026-03-26T04:17:44.999Z</time></trkpt><trkpt lat="45.97215686989709" lon="12.233523949683338"><ele>270.0</ele><time>2026-03-26T04:17:45.999Z</time></trkpt><trkpt lat="45.97224446764022" lon="12.233390304078842"><ele>270.0</ele><time>2026-03-26T04:17:46.999Z</time></trkpt><trkpt lat="45.97232937218649" lon="12.233244340190852"><ele>270.0</ele><time>2026-03-26T04:17:47.999Z</time></trkpt><trkpt lat="45.97241648620612" lon="12.23309131432637"><ele>270.0</ele><time>2026-03-26T04:17:48.999Z</time></trkpt><trkpt lat="45.97250345819707" lon="12.232947320861777"><ele>270.0</ele><time>2026-03-26T04:17:49.999Z</time></trkpt><trkpt lat="45.97259697546709" lon="12.232803018306948"><ele>270.0</ele><time>2026-03-26T04:17:50.999Z</time></trkpt><trkpt lat="45.97268997951219" lon="12.23265836150624"><ele>270.0</ele><time>2026-03-26T04:17:51.999Z</time></trkpt><trkpt lat="45.97278312229005" lon="12.232512949108425"><ele>270.0</ele><time>2026-03-26T04:17:52.999Z</time></trkpt><trkpt lat="45.972878856051615" lon="12.232366119131804"><ele>270.0</ele><time>2026-03-26T04:17:53.999Z</time></trkpt><trkpt lat="45.972974618403754" lon="12.232219951343097"><ele>270.0</ele><time>2026-03-26T04:17:54.999Z</time></trkpt><trkpt lat="45.97307656558232" lon="12.232084251505508"><ele>270.0</ele><time>2026-03-26T04:17:55.999Z</time></trkpt><trkpt lat="45.973185951411324" lon="12.231959918762056"><ele>270.0</ele><time>2026-03-26T04:17:56.999Z</time></trkpt><trkpt lat="45.97329922251744" lon="12.23184149800556"><ele>270.0</ele><time>2026-03-26T04:17:57.999Z</time></trkpt><trkpt lat="45.97341420450979" lon="12.23172254239789"><ele>270.0</ele><time>2026-03-26T04:17:58.999Z</time></trkpt><trkpt lat="45.97353091879706" lon="12.231606980796544"><ele>270.0</ele><time>2026-03-26T04:17:59.999Z</time></trkpt><trkpt lat="45.973650857579344" lon="12.231494119766928"><ele>270.0</ele><time>2026-03-26T04:18:00.999Z</time></trkpt><trkpt lat="45.97377907012261" lon="12.231399768927297"><ele>270.0</ele><time>2026-03-26T04:18:01.999Z</time></trkpt><trkpt lat="45.97390916220071" lon="12.231315730881676"><ele>270.0</ele><time>2026-03-26T04:18:02.999Z</time></trkpt><trkpt lat="45.97404225255051" lon="12.231248790795256"><ele>270.0</ele><time>2026-03-26T04:18:03.999Z</time></trkpt><trkpt lat="45.97417780270575" lon="12.231200258939968"><ele>270.0</ele><time>2026-03-26T04:18:04.999Z</time></trkpt><trkpt lat="45.974316992018416" lon="12.231168862760676"><ele>270.0</ele><time>2026-03-26T04:18:05.999Z</time></trkpt><trkpt lat="45.974455651235964" lon="12.23115606648868"><ele>270.0</ele><time>2026-03-26T04:18:06.999Z</time></trkpt><trkpt lat="45.9745966903476" lon="12.23116378981917"><ele>270.0</ele><time>2026-03-26T04:18:07.999Z</time></trkpt><trkpt lat="45.97473797594532" lon="12.231169231854462"><ele>270.0</ele><time>2026-03-26T04:18:08.999Z</time></trkpt><trkpt lat="45.97487710764993" lon="12.231165949676967"><ele>270.0</ele><time>2026-03-26T04:18:09.999Z</time></trkpt><trkpt lat="45.97501726524803" lon="12.231160693977154"><ele>271.0</ele><time>2026-03-26T04:18:10.999Z</time></trkpt><trkpt lat="45.975157630447605" lon="12.231156561745909"><ele>272.0</ele><time>2026-03-26T04:18:11.999Z</time></trkpt><trkpt lat="45.97529823667449" lon="12.231151359393222"><ele>273.0</ele><time>2026-03-26T04:18:12.999Z</time></trkpt><trkpt lat="45.975439901738305" lon="12.231143324511534"><ele>274.0</ele><time>2026-03-26T04:18:13.999Z</time></trkpt><trkpt lat="45.975580280129606" lon="12.231128923373012"><ele>274.0</ele><time>2026-03-26T04:18:14.999Z</time></trkpt><trkpt lat="45.975720843073226" lon="12.231111501845191"><ele>274.0</ele><time>2026-03-26T04:18:15.999Z</time></trkpt><trkpt lat="45.975861607923925" lon="12.231092477172972"><ele>274.0</ele><time>2026-03-26T04:18:16.999Z</time></trkpt><trkpt lat="45.97600238198512" lon="12.231075752986808"><ele>274.0</ele><time>2026-03-26T04:18:17.999Z</time></trkpt><trkpt lat="45.9761443807828" lon="12.231055952311216"><ele>274.25</ele><time>2026-03-26T04:18:18.999Z</time></trkpt><trkpt lat="45.97628695158413" lon="12.231035890229208"><ele>274.5</ele><time>2026-03-26T04:18:19.999Z</time></trkpt><trkpt lat="45.97642890625039" lon="12.23101643609457"><ele>274.75</ele><time>2026-03-26T04:18:20.999Z</time></trkpt><trkpt lat="45.97657252841939" lon="12.230997463531104"><ele>275.0</ele><time>2026-03-26T04:18:21.999Z</time></trkpt><trkpt lat="45.97671645275782" lon="12.230978314310743"><ele>275.75</ele><time>2026-03-26T04:18:22.999Z</time></trkpt><trkpt lat="45.97686031816254" lon="12.230954150086436"><ele>276.5</ele><time>2026-03-26T04:18:23.999Z</time></trkpt><trkpt lat="45.97700477576341" lon="12.230941104404646"><ele>277.25</ele><time>2026-03-26T04:18:24.999Z</time></trkpt><trkpt lat="45.97715045651537" lon="12.230917722268371"><ele>278.0</ele><time>2026-03-26T04:18:25.999Z</time></trkpt><trkpt lat="45.977296189796164" lon="12.23089932841297"><ele>278.0</ele><time>2026-03-26T04:18:26.999Z</time></trkpt><trkpt lat="45.97744323775806" lon="12.230876679542511"><ele>278.0</ele><time>2026-03-26T04:18:27.999Z</time></trkpt><trkpt lat="45.97758747174217" lon="12.230859059891209"><ele>278.0</ele><time>2026-03-26T04:18:28.999Z</time></trkpt><trkpt lat="45.97773502730103" lon="12.230842392855894"><ele>278.0</ele><time>2026-03-26T04:18:29.999Z</time></trkpt><trkpt lat="45.97788261350326" lon="12.230822016654262"><ele>278.25</ele><time>2026-03-26T04:18:30.999Z</time></trkpt><trkpt lat="45.97803004002157" lon="12.23080195001993"><ele>278.5</ele><time>2026-03-26T04:18:31.999Z</time></trkpt><trkpt lat="45.97817478980303" lon="12.230783909239074"><ele>278.75</ele><time>2026-03-26T04:18:32.999Z</time></trkpt><trkpt lat="45.97831366198038" lon="12.230764531215911"><ele>279.0</ele><time>2026-03-26T04:18:33.999Z</time></trkpt><trkpt lat="45.97844348384609" lon="12.230756213549444"><ele>280.0</ele><time>2026-03-26T04:18:34.999Z</time></trkpt><trkpt lat="45.978570831137816" lon="12.230738598650795"><ele>281.0</ele><time>2026-03-26T04:18:35.999Z</time></trkpt><trkpt lat="45.97869894549725" lon="12.230708400756392"><ele>282.0</ele><time>2026-03-26T04:18:36.999Z</time></trkpt><trkpt lat="45.97882028457007" lon="12.230662465173445"><ele>283.0</ele><time>2026-03-26T04:18:37.999Z</time></trkpt><trkpt lat="45.97893359209372" lon="12.230600686680457"><ele>284.5</ele><time>2026-03-26T04:18:38.999Z</time></trkpt><trkpt lat="45.97904101378662" lon="12.23053439487634"><ele>286.0</ele><time>2026-03-26T04:18:39.999Z</time></trkpt><trkpt lat="45.97914531986856" lon="12.230455346048203"><ele>287.5</ele><time>2026-03-26T04:18:40.999Z</time></trkpt><trkpt lat="45.97924764319252" lon="12.230366219725727"><ele>289.0</ele><time>2026-03-26T04:18:41.999Z</time></trkpt><trkpt lat="45.97934281876945" lon="12.230247908144317"><ele>286.2</ele><time>2026-03-26T04:18:42.999Z</time></trkpt><trkpt lat="45.9794432161367" lon="12.230138027927723"><ele>283.4</ele><time>2026-03-26T04:18:43.999Z</time></trkpt><trkpt lat="45.97953820563648" lon="12.230039437629266"><ele>280.6</ele><time>2026-03-26T04:18:44.999Z</time></trkpt><trkpt lat="45.97962508606187" lon="12.229951495557208"><ele>277.8</ele><time>2026-03-26T04:18:45.999Z</time></trkpt><trkpt lat="45.97970341354381" lon="12.229864693647096"><ele>275.0</ele><time>2026-03-26T04:18:46.998Z</time></trkpt><trkpt lat="45.97977735457033" lon="12.229783918531707"><ele>273.6</ele><time>2026-03-26T04:18:47.998Z</time></trkpt><trkpt lat="45.97983830258215" lon="12.229683111487045"><ele>272.2</ele><time>2026-03-26T04:18:48.998Z</time></trkpt><trkpt lat="45.97988470853135" lon="12.22956715923393"><ele>270.8</ele><time>2026-03-26T04:18:49.998Z</time></trkpt><trkpt lat="45.97990982388666" lon="12.22943482690261"><ele>269.4</ele><time>2026-03-26T04:18:50.998Z</time></trkpt><trkpt lat="45.97991732685348" lon="12.229303210423554"><ele>268.0</ele><time>2026-03-26T04:18:51.998Z</time></trkpt><trkpt lat="45.97990905172841" lon="12.229167915300721"><ele>268.0</ele><time>2026-03-26T04:18:52.998Z</time></trkpt><trkpt lat="45.97987301169642" lon="12.229033093371763"><ele>268.0</ele><time>2026-03-26T04:18:54Z</time></trkpt><trkpt lat="45.979818292683014" lon="12.228901204660321"><ele>268.0</ele><time>2026-03-26T04:18:55Z</time></trkpt><trkpt lat="45.97974133984203" lon="12.228771622927464"><ele>268.0</ele><time>2026-03-26T04:18:56Z</time></trkpt><trkpt lat="45.97965294436154" lon="12.228649228327772"><ele>268.0</ele><time>2026-03-26T04:18:57Z</time></trkpt><trkpt lat="45.97955581765687" lon="12.228529942052642"><ele>265.75</ele><time>2026-03-26T04:18:58Z</time></trkpt><trkpt lat="45.979466429059954" lon="12.228396374224014"><ele>263.5</ele><time>2026-03-26T04:18:59Z</time></trkpt><trkpt lat="45.97938415994204" lon="12.22825013964118"><ele>261.25</ele><time>2026-03-26T04:19:00Z</time></trkpt><trkpt lat="45.97930572867676" lon="12.22808917367638"><ele>259.0</ele><time>2026-03-26T04:19:01Z</time></trkpt><trkpt lat="45.9792344008136" lon="12.22791651142183"><ele>258.75</ele><time>2026-03-26T04:19:02Z</time></trkpt><trkpt lat="45.97917198929223" lon="12.227728886516395"><ele>258.5</ele><time>2026-03-26T04:19:03Z</time></trkpt><trkpt lat="45.97912193789902" lon="12.227529047856287"><ele>258.25</ele><time>2026-03-26T04:19:04Z</time></trkpt><trkpt lat="45.97907444717693" lon="12.227319509470217"><ele>258.0</ele><time>2026-03-26T04:19:05Z</time></trkpt><trkpt lat="45.979025314447256" lon="12.227109721931141"><ele>258.0</ele><time>2026-03-26T04:19:06Z</time></trkpt><trkpt lat="45.97897329971486" lon="12.226895194776008"><ele>258.0</ele><time>2026-03-26T04:19:07Z</time></trkpt><trkpt lat="45.978921194331946" lon="12.226679669248641"><ele>258.0</ele><time>2026-03-26T04:19:08Z</time></trkpt><trkpt lat="45.97886782628454" lon="12.226461007708814"><ele>256.3333333333333</ele><time>2026-03-26T04:19:09Z</time></trkpt><trkpt lat="45.978814016121504" lon="12.226241155600926"><ele>254.66666666666666</ele><time>2026-03-26T04:19:10Z</time></trkpt><trkpt lat="45.978762666285846" lon="12.226017115449528"><ele>253.0</ele><time>2026-03-26T04:19:10.999Z</time></trkpt><trkpt lat="45.9787119227689" lon="12.22578963076574"><ele>252.33333333333331</ele><time>2026-03-26T04:19:11.999Z</time></trkpt><trkpt lat="45.97866217456914" lon="12.22556071761376"><ele>251.66666666666669</ele><time>2026-03-26T04:19:12.999Z</time></trkpt><trkpt lat="45.978614254666624" lon="12.225329573264286"><ele>251.0</ele><time>2026-03-26T04:19:13.999Z</time></trkpt><trkpt lat="45.978564872612914" lon="12.2250980835361"><ele>251.0</ele><time>2026-03-26T04:19:14.999Z</time></trkpt><trkpt lat="45.978510313003255" lon="12.224865915744635"><ele>251.0</ele><time>2026-03-26T04:19:15.999Z</time></trkpt><trkpt lat="45.97845265444291" lon="12.224634378418875"><ele>251.0</ele><time>2026-03-26T04:19:16.999Z</time></trkpt><trkpt lat="45.9783902796001" lon="12.224402866242144"><ele>250.33333333333334</ele><time>2026-03-26T04:19:17.999Z</time></trkpt><trkpt lat="45.97832885189291" lon="12.224167480907411"><ele>249.66666666666669</ele><time>2026-03-26T04:19:18.999Z</time></trkpt><trkpt lat="45.97827101197653" lon="12.223928013105299"><ele>249.0</ele><time>2026-03-26T04:19:19.999Z</time></trkpt><trkpt lat="45.97821350141155" lon="12.223689120415095"><ele>249.0</ele><time>2026-03-26T04:19:20.999Z</time></trkpt><trkpt lat="45.97815555927829" lon="12.223449885933977"><ele>249.0</ele><time>2026-03-26T04:19:21.999Z</time></trkpt><trkpt lat="45.9780975304004" lon="12.22321164514058"><ele>249.0</ele><time>2026-03-26T04:19:22.999Z</time></trkpt><trkpt lat="45.97803986110361" lon="12.222972998807764"><ele>247.66666666666669</ele><time>2026-03-26T04:19:23.999Z</time></trkpt><trkpt lat="45.977983893619005" lon="12.222733596622046"><ele>246.33333333333334</ele><time>2026-03-26T04:19:24.999Z</time></trkpt><trkpt lat="45.97792886000292" lon="12.222491177896229"><ele>245.0</ele><time>2026-03-26T04:19:25.999Z</time></trkpt><trkpt lat="45.977874038972104" lon="12.222251680496083"><ele>244.0</ele><time>2026-03-26T04:19:26.999Z</time></trkpt><trkpt lat="45.977820601930404" lon="12.222013616240035"><ele>243.0</ele><time>2026-03-26T04:19:27.999Z</time></trkpt><trkpt lat="45.97776984847803" lon="12.221777377701713"><ele>242.0</ele><time>2026-03-26T04:19:28.999Z</time></trkpt><trkpt lat="45.97771759206032" lon="12.221543979850201"><ele>240.66666666666669</ele><time>2026-03-26T04:19:29.999Z</time></trkpt><trkpt lat="45.977665466032754" lon="12.221314448225742"><ele>239.33333333333331</ele><time>2026-03-26T04:19:30.999Z</time></trkpt><trkpt lat="45.97761699433697" lon="12.221090508294932"><ele>238.0</ele><time>2026-03-26T04:19:31.999Z</time></trkpt><trkpt lat="45.97757055075779" lon="12.220873708500209"><ele>238.0</ele><time>2026-03-26T04:19:32.999Z</time></trkpt><trkpt lat="45.97752506173786" lon="12.220657724495547"><ele>238.0</ele><time>2026-03-26T04:19:33.999Z</time></trkpt><trkpt lat="45.9774803872737" lon="12.22044003608442"><ele>238.0</ele><time>2026-03-26T04:19:34.999Z</time></trkpt><trkpt lat="45.97743715555622" lon="12.22021770424349"><ele>239.33333333333331</ele><time>2026-03-26T04:19:35.999Z</time></trkpt><trkpt lat="45.97739635110405" lon="12.219985390579309"><ele>240.66666666666669</ele><time>2026-03-26T04:19:36.999Z</time></trkpt><trkpt lat="45.97736344495099" lon="12.219744886639198"><ele>242.0</ele><time>2026-03-26T04:19:37.999Z</time></trkpt><trkpt lat="45.97733556104665" lon="12.219497753187284"><ele>242.0</ele><time>2026-03-26T04:19:38.999Z</time></trkpt><trkpt lat="45.97731023280329" lon="12.219244136993238"><ele>242.0</ele><time>2026-03-26T04:19:39.999Z</time></trkpt><trkpt lat="45.97728216500795" lon="12.218985631475242"><ele>242.0</ele><time>2026-03-26T04:19:40.999Z</time></trkpt><trkpt lat="45.97725299815566" lon="12.218722544406052"><ele>240.66666666666669</ele><time>2026-03-26T04:19:41.999Z</time></trkpt><trkpt lat="45.97722470132858" lon="12.218455950530414"><ele>239.33333333333331</ele><time>2026-03-26T04:19:42.999Z</time></trkpt><trkpt lat="45.977194226825645" lon="12.218190103455203"><ele>238.0</ele><time>2026-03-26T04:19:43.999Z</time></trkpt><trkpt lat="45.97716454763086" lon="12.217930652525721"><ele>237.33333333333331</ele><time>2026-03-26T04:19:44.999Z</time></trkpt><trkpt lat="45.97713671518198" lon="12.21768260600618"><ele>236.66666666666669</ele><time>2026-03-26T04:19:45.999Z</time></trkpt><trkpt lat="45.97710956412467" lon="12.217443571109401"><ele>236.0</ele><time>2026-03-26T04:19:46.999Z</time></trkpt><trkpt lat="45.977084285475705" lon="12.217222978760823"><ele>235.5</ele><time>2026-03-26T04:19:47.999Z</time></trkpt><trkpt lat="45.977058735357765" lon="12.217013796612784"><ele>235.0</ele><time>2026-03-26T04:19:48.999Z</time></trkpt><trkpt lat="45.977037400720626" lon="12.216810595883892"><ele>234.5</ele><time>2026-03-26T04:19:49.999Z</time></trkpt><trkpt lat="45.97701701907449" lon="12.216620381707598"><ele>234.0</ele><time>2026-03-26T04:19:50.999Z</time></trkpt><trkpt lat="45.97699787863132" lon="12.216437266567828"><ele>233.0</ele><time>2026-03-26T04:19:51.999Z</time></trkpt><trkpt lat="45.97697985987062" lon="12.216266302089265"><ele>232.0</ele><time>2026-03-26T04:19:52.999Z</time></trkpt><trkpt lat="45.97696659401759" lon="12.216105103997108"><ele>231.0</ele><time>2026-03-26T04:19:53.999Z</time></trkpt><trkpt lat="45.97696605513693" lon="12.215942143234665"><ele>230.0</ele><time>2026-03-26T04:19:54.999Z</time></trkpt><trkpt lat="45.97698195175609" lon="12.215781453273518"><ele>229.5</ele><time>2026-03-26T04:19:55.999Z</time></trkpt><trkpt lat="45.97702808432004" lon="12.215618819128354"><ele>229.0</ele><time>2026-03-26T04:19:56.999Z</time></trkpt><trkpt lat="45.97708949482142" lon="12.21546255700132"><ele>228.5</ele><time>2026-03-26T04:19:57.999Z</time></trkpt><trkpt lat="45.97718775190258" lon="12.215331358372458"><ele>228.0</ele><time>2026-03-26T04:19:59Z</time></trkpt><trkpt lat="45.97728634414667" lon="12.215221808090645"><ele>228.0</ele><time>2026-03-26T04:20:00Z</time></trkpt><trkpt lat="45.9774027426456" lon="12.21513676157452"><ele>228.0</ele><time>2026-03-26T04:20:01Z</time></trkpt><trkpt lat="45.97752691707464" lon="12.215059380643467"><ele>228.0</ele><time>2026-03-26T04:20:02Z</time></trkpt><trkpt lat="45.977651896397475" lon="12.21497462349125"><ele>228.0</ele><time>2026-03-26T04:20:03Z</time></trkpt><trkpt lat="45.977782056728806" lon="12.214887687358878"><ele>227.0</ele><time>2026-03-26T04:20:04Z</time></trkpt><trkpt lat="45.97791410318653" lon="12.214797604185167"><ele>226.0</ele><time>2026-03-26T04:20:05Z</time></trkpt><trkpt lat="45.97805092378972" lon="12.214704792894194"><ele>225.0</ele><time>2026-03-26T04:20:06Z</time></trkpt><trkpt lat="45.9781909787879" lon="12.214609127570835"><ele>225.0</ele><time>2026-03-26T04:20:07Z</time></trkpt><trkpt lat="45.97833426710973" lon="12.214509181511113"><ele>225.0</ele><time>2026-03-26T04:20:08Z</time></trkpt><trkpt lat="45.978479278066374" lon="12.214405581698818"><ele>225.0</ele><time>2026-03-26T04:20:09Z</time></trkpt><trkpt lat="45.97862690888982" lon="12.214300640711322"><ele>225.0</ele><time>2026-03-26T04:20:10Z</time></trkpt><trkpt lat="45.978779255086366" lon="12.214192508674966"><ele>225.0</ele><time>2026-03-26T04:20:11Z</time></trkpt><trkpt lat="45.97893368151276" lon="12.214083965444509"><ele>225.0</ele><time>2026-03-26T04:20:12Z</time></trkpt><trkpt lat="45.97909048140385" lon="12.213976343594457"><ele>224.33333333333331</ele><time>2026-03-26T04:20:13Z</time></trkpt><trkpt lat="45.97924874990867" lon="12.213864547110173"><ele>223.66666666666666</ele><time>2026-03-26T04:20:14Z</time></trkpt><trkpt lat="45.97940746016774" lon="12.213750543360483"><ele>223.0</ele><time>2026-03-26T04:20:15Z</time></trkpt><trkpt lat="45.9795697293951" lon="12.21363680850428"><ele>223.0</ele><time>2026-03-26T04:20:16Z</time></trkpt><trkpt lat="45.97973515769528" lon="12.213521016276408"><ele>223.0</ele><time>2026-03-26T04:20:17Z</time></trkpt><trkpt lat="45.97990196042048" lon="12.213404176065824"><ele>223.0</ele><time>2026-03-26T04:20:18Z</time></trkpt><trkpt lat="45.9800694137084" lon="12.21328701855723"><ele>223.66666666666666</ele><time>2026-03-26T04:20:19Z</time></trkpt><trkpt lat="45.98023854360491" lon="12.213168006587246"><ele>224.33333333333331</ele><time>2026-03-26T04:20:20Z</time></trkpt><trkpt lat="45.980410064929615" lon="12.213044958367062"><ele>225.0</ele><time>2026-03-26T04:20:21Z</time></trkpt><trkpt lat="45.98058297654715" lon="12.21292254501074"><ele>225.0</ele><time>2026-03-26T04:20:22Z</time></trkpt><trkpt lat="45.98075624248867" lon="12.212800663099562"><ele>225.0</ele><time>2026-03-26T04:20:23Z</time></trkpt><trkpt lat="45.98092998025993" lon="12.212682776499951"><ele>225.0</ele><time>2026-03-26T04:20:24Z</time></trkpt><trkpt lat="45.98110287010176" lon="12.212563055826566"><ele>224.66666666666669</ele><time>2026-03-26T04:20:25Z</time></trkpt><trkpt lat="45.98127497141934" lon="12.212443437021772"><ele>224.33333333333334</ele><time>2026-03-26T04:20:26Z</time></trkpt><trkpt lat="45.9814458120002" lon="12.212323461413442"><ele>224.0</ele><time>2026-03-26T04:20:27Z</time></trkpt><trkpt lat="45.981614827523906" lon="12.212203374550782"><ele>223.66666666666669</ele><time>2026-03-26T04:20:28Z</time></trkpt><trkpt lat="45.98178133426957" lon="12.212085651402937"><ele>223.33333333333331</ele><time>2026-03-26T04:20:29Z</time></trkpt><trkpt lat="45.98194521342842" lon="12.21196781565163"><ele>223.0</ele><time>2026-03-26T04:20:30Z</time></trkpt><trkpt lat="45.982106855956765" lon="12.211850370382598"><ele>223.0</ele><time>2026-03-26T04:20:31Z</time></trkpt><trkpt lat="45.98226252308028" lon="12.211736995231938"><ele>223.0</ele><time>2026-03-26T04:20:32Z</time></trkpt><trkpt lat="45.98241433346175" lon="12.211634559246265"><ele>223.0</ele><time>2026-03-26T04:20:33Z</time></trkpt><trkpt lat="45.982559107976364" lon="12.211535353952641"><ele>223.75</ele><time>2026-03-26T04:20:34Z</time></trkpt><trkpt lat="45.98269920635365" lon="12.21143821372286"><ele>224.5</ele><time>2026-03-26T04:20:35Z</time></trkpt><trkpt lat="45.982830726149025" lon="12.2113462607971"><ele>225.25</ele><time>2026-03-26T04:20:36Z</time></trkpt><trkpt lat="45.98295674404813" lon="12.211258906820547"><ele>226.0</ele><time>2026-03-26T04:20:37Z</time></trkpt><trkpt lat="45.98307632369865" lon="12.211177388023422"><ele>226.0</ele><time>2026-03-26T04:20:38Z</time></trkpt><trkpt lat="45.98319161168954" lon="12.211098922969533"><ele>226.0</ele><time>2026-03-26T04:20:39Z</time></trkpt><trkpt lat="45.98329784534458" lon="12.211009647393379"><ele>226.0</ele><time>2026-03-26T04:20:40Z</time></trkpt><trkpt lat="45.98339106246089" lon="12.210912561316896"><ele>226.0</ele><time>2026-03-26T04:20:41Z</time></trkpt><trkpt lat="45.98347292971688" lon="12.210803218089355"><ele>227.20000000000002</ele><time>2026-03-26T04:20:42Z</time></trkpt><trkpt lat="45.98353992856565" lon="12.210680970248859"><ele>228.40000000000003</ele><time>2026-03-26T04:20:43Z</time></trkpt><trkpt lat="45.98359243984159" lon="12.210532604911714"><ele>229.6</ele><time>2026-03-26T04:20:44Z</time></trkpt><trkpt lat="45.98361900515886" lon="12.210379911986372"><ele>230.8</ele><time>2026-03-26T04:20:45Z</time></trkpt><trkpt lat="45.983621599090576" lon="12.210217632004746"><ele>232.0</ele><time>2026-03-26T04:20:46Z</time></trkpt><trkpt lat="45.983602772639415" lon="12.210056135814972"><ele>232.5</ele><time>2026-03-26T04:20:47Z</time></trkpt><trkpt lat="45.98356450705514" lon="12.209899977923582"><ele>233.0</ele><time>2026-03-26T04:20:48Z</time></trkpt><trkpt lat="45.98350517234411" lon="12.209750117370744"><ele>233.5</ele><time>2026-03-26T04:20:49Z</time></trkpt><trkpt lat="45.98344077337529" lon="12.209602916842401"><ele>234.0</ele><time>2026-03-26T04:20:49.999Z</time></trkpt><trkpt lat="45.983375775199605" lon="12.20944208922097"><ele>233.75</ele><time>2026-03-26T04:20:50.999Z</time></trkpt><trkpt lat="45.98331567207877" lon="12.209275403856058"><ele>233.5</ele><time>2026-03-26T04:20:51.999Z</time></trkpt><trkpt lat="45.98325746803034" lon="12.20909897139472"><ele>233.25</ele><time>2026-03-26T04:20:52.999Z</time></trkpt><trkpt lat="45.98320107776326" lon="12.208912933638869"><ele>233.0</ele><time>2026-03-26T04:20:53.999Z</time></trkpt><trkpt lat="45.98314865252911" lon="12.208730850076467"><ele>233.0</ele><time>2026-03-26T04:20:54.999Z</time></trkpt><trkpt lat="45.98309960330858" lon="12.208548014775177"><ele>233.0</ele><time>2026-03-26T04:20:55.999Z</time></trkpt><trkpt lat="45.98304881128867" lon="12.208360921432883"><ele>233.0</ele><time>2026-03-26T04:20:56.999Z</time></trkpt><trkpt lat="45.98299525481053" lon="12.208170905833152"><ele>233.0</ele><time>2026-03-26T04:20:57.999Z</time></trkpt><trkpt lat="45.982940199676484" lon="12.207978440127459"><ele>234.33333333333334</ele><time>2026-03-26T04:20:58.999Z</time></trkpt><trkpt lat="45.98288306129929" lon="12.207782268104202"><ele>235.66666666666669</ele><time>2026-03-26T04:21:00.001Z</time></trkpt><trkpt lat="45.98282717237961" lon="12.207581571271074"><ele>237.0</ele><time>2026-03-26T04:21:01.001Z</time></trkpt><trkpt lat="45.982771826788586" lon="12.20737687005851"><ele>236.66666666666669</ele><time>2026-03-26T04:21:02Z</time></trkpt><trkpt lat="45.98271589888998" lon="12.207167384484475"><ele>236.33333333333334</ele><time>2026-03-26T04:21:03Z</time></trkpt><trkpt lat="45.98265725187258" lon="12.206953760825508"><ele>236.0</ele><time>2026-03-26T04:21:04Z</time></trkpt><trkpt lat="45.9825962303571" lon="12.206737057140655"><ele>236.0</ele><time>2026-03-26T04:21:05Z</time></trkpt><trkpt lat="45.98253500363932" lon="12.206516060362748"><ele>236.0</ele><time>2026-03-26T04:21:06Z</time></trkpt><trkpt lat="45.98247159300997" lon="12.206290751342582"><ele>236.0</ele><time>2026-03-26T04:21:07Z</time></trkpt><trkpt lat="45.9824065116151" lon="12.206062005988377"><ele>236.0</ele><time>2026-03-26T04:21:08Z</time></trkpt><trkpt lat="45.9823409559601" lon="12.205830208632168"><ele>236.0</ele><time>2026-03-26T04:21:09Z</time></trkpt><trkpt lat="45.98227426394863" lon="12.205594548875451"><ele>236.0</ele><time>2026-03-26T04:21:10Z</time></trkpt><trkpt lat="45.98220790592284" lon="12.205353732862527"><ele>236.0</ele><time>2026-03-26T04:21:11Z</time></trkpt><trkpt lat="45.98214163013798" lon="12.205108319009236"><ele>236.0</ele><time>2026-03-26T04:21:12Z</time></trkpt><trkpt lat="45.98207518243643" lon="12.204860924801139"><ele>236.0</ele><time>2026-03-26T04:21:13Z</time></trkpt><trkpt lat="45.9820091886713" lon="12.204613306766943"><ele>237.0</ele><time>2026-03-26T04:21:14Z</time></trkpt><trkpt lat="45.98194106782324" lon="12.204367078194194"><ele>238.0</ele><time>2026-03-26T04:21:15Z</time></trkpt><trkpt lat="45.981872821538964" lon="12.204119665089884"><ele>239.0</ele><time>2026-03-26T04:21:16Z</time></trkpt><trkpt lat="45.98180236944042" lon="12.203873310512195"><ele>239.0</ele><time>2026-03-26T04:21:17Z</time></trkpt><trkpt lat="45.981731123003314" lon="12.203626876049025"><ele>239.0</ele><time>2026-03-26T04:21:18Z</time></trkpt><trkpt lat="45.98166102033827" lon="12.203379843899375"><ele>239.0</ele><time>2026-03-26T04:21:19Z</time></trkpt><trkpt lat="45.981590401209104" lon="12.20313091178208"><ele>237.0</ele><time>2026-03-26T04:21:20Z</time></trkpt><trkpt lat="45.98151956178024" lon="12.202885485565428"><ele>235.0</ele><time>2026-03-26T04:21:21Z</time></trkpt><trkpt lat="45.98144942051286" lon="12.202643871604767"><ele>233.0</ele><time>2026-03-26T04:21:22Z</time></trkpt><trkpt lat="45.98137976960931" lon="12.202404790430469"><ele>233.0</ele><time>2026-03-26T04:21:23Z</time></trkpt><trkpt lat="45.98130900621792" lon="12.20216986279802"><ele>233.0</ele><time>2026-03-26T04:21:24Z</time></trkpt><trkpt lat="45.98122802937811" lon="12.201943553703414"><ele>233.0</ele><time>2026-03-26T04:21:25Z</time></trkpt><trkpt lat="45.98114276692641" lon="12.201723558740253"><ele>233.0</ele><time>2026-03-26T04:21:26Z</time></trkpt><trkpt lat="45.98105260373438" lon="12.20150972949606"><ele>233.0</ele><time>2026-03-26T04:21:27Z</time></trkpt><trkpt lat="45.98095740553151" lon="12.201297054304554"><ele>233.0</ele><time>2026-03-26T04:21:28Z</time></trkpt><trkpt lat="45.98085984679184" lon="12.201083853557483"><ele>232.66666666666669</ele><time>2026-03-26T04:21:29Z</time></trkpt><trkpt lat="45.980764073933926" lon="12.200865380579508"><ele>232.33333333333331</ele><time>2026-03-26T04:21:30Z</time></trkpt><trkpt lat="45.980667880996585" lon="12.20064428401126"><ele>232.0</ele><time>2026-03-26T04:21:31Z</time></trkpt><trkpt lat="45.98056826621764" lon="12.200423227793893"><ele>232.0</ele><time>2026-03-26T04:21:32Z</time></trkpt><trkpt lat="45.980467099963874" lon="12.200200735057535"><ele>232.0</ele><time>2026-03-26T04:21:33Z</time></trkpt><trkpt lat="45.9803663975502" lon="12.19997471371783"><ele>232.0</ele><time>2026-03-26T04:21:34Z</time></trkpt><trkpt lat="45.98026635555429" lon="12.199745812322233"><ele>231.33333333333331</ele><time>2026-03-26T04:21:35Z</time></trkpt><trkpt lat="45.9801641313201" lon="12.199516166065727"><ele>230.66666666666669</ele><time>2026-03-26T04:21:36Z</time></trkpt><trkpt lat="45.98006182826562" lon="12.19928475222098"><ele>230.0</ele><time>2026-03-26T04:21:37Z</time></trkpt><trkpt lat="45.97996135715548" lon="12.199050855362309"><ele>230.0</ele><time>2026-03-26T04:21:38Z</time></trkpt><trkpt lat="45.97985533239897" lon="12.198820567103832"><ele>230.0</ele><time>2026-03-26T04:21:39Z</time></trkpt><trkpt lat="45.979753987436624" lon="12.198586372860774"><ele>230.0</ele><time>2026-03-26T04:21:40Z</time></trkpt><trkpt lat="45.97965339914965" lon="12.19835386353884"><ele>230.0</ele><time>2026-03-26T04:21:41Z</time></trkpt><trkpt lat="45.97955038231037" lon="12.198123602196748"><ele>230.0</ele><time>2026-03-26T04:21:42Z</time></trkpt><trkpt lat="45.979449989728195" lon="12.197891778296787"><ele>230.0</ele><time>2026-03-26T04:21:43Z</time></trkpt><trkpt lat="45.97934677872152" lon="12.197664177152507"><ele>230.0</ele><time>2026-03-26T04:21:44Z</time></trkpt><trkpt lat="45.979243599757616" lon="12.19743383511703"><ele>230.0</ele><time>2026-03-26T04:21:45Z</time></trkpt><trkpt lat="45.979140026239186" lon="12.19720103645743"><ele>230.0</ele><time>2026-03-26T04:21:46Z</time></trkpt><trkpt lat="45.979037183118116" lon="12.196963359805002"><ele>229.0</ele><time>2026-03-26T04:21:47Z</time></trkpt><trkpt lat="45.97893412708398" lon="12.19672146590722"><ele>228.0</ele><time>2026-03-26T04:21:48Z</time></trkpt><trkpt lat="45.97883349659668" lon="12.196474313298715"><ele>227.0</ele><time>2026-03-26T04:21:49Z</time></trkpt><trkpt lat="45.978742771479965" lon="12.196219147505127"><ele>227.0</ele><time>2026-03-26T04:21:50Z</time></trkpt><trkpt lat="45.97865811959528" lon="12.195953615976698"><ele>227.0</ele><time>2026-03-26T04:21:51Z</time></trkpt><trkpt lat="45.97857803137112" lon="12.195685143085422"><ele>227.0</ele><time>2026-03-26T04:21:52Z</time></trkpt><trkpt lat="45.97849923942229" lon="12.195415877400198"><ele>227.33333333333334</ele><time>2026-03-26T04:21:53Z</time></trkpt><trkpt lat="45.97841871323102" lon="12.19514746263671"><ele>227.66666666666669</ele><time>2026-03-26T04:21:54Z</time></trkpt><trkpt lat="45.97833530410354" lon="12.194879349938919"><ele>228.0</ele><time>2026-03-26T04:21:55Z</time></trkpt><trkpt lat="45.97825287801534" lon="12.194610672822668"><ele>228.66666666666669</ele><time>2026-03-26T04:21:56Z</time></trkpt><trkpt lat="45.97817203746004" lon="12.194342218147739"><ele>229.33333333333334</ele><time>2026-03-26T04:21:57Z</time></trkpt><trkpt lat="45.978091826561005" lon="12.194072989524422"><ele>230.0</ele><time>2026-03-26T04:21:58Z</time></trkpt><trkpt lat="45.978013388585765" lon="12.19380368410895"><ele>230.33333333333334</ele><time>2026-03-26T04:21:59Z</time></trkpt><trkpt lat="45.97793465272276" lon="12.19353423490505"><ele>230.66666666666669</ele><time>2026-03-26T04:22:00Z</time></trkpt><trkpt lat="45.977853674648784" lon="12.19326615355066"><ele>231.0</ele><time>2026-03-26T04:22:01Z</time></trkpt><trkpt lat="45.977773331683075" lon="12.192998644445769"><ele>231.33333333333331</ele><time>2026-03-26T04:22:02Z</time></trkpt><trkpt lat="45.977691906937714" lon="12.192733348550956"><ele>231.66666666666666</ele><time>2026-03-26T04:22:03Z</time></trkpt><trkpt lat="45.97761298396637" lon="12.192467656568912"><ele>232.0</ele><time>2026-03-26T04:22:04Z</time></trkpt><trkpt lat="45.97753275756118" lon="12.192204058711098"><ele>230.66666666666666</ele><time>2026-03-26T04:22:05Z</time></trkpt><trkpt lat="45.97745246775804" lon="12.19194044486265"><ele>229.33333333333331</ele><time>2026-03-26T04:22:06Z</time></trkpt><trkpt lat="45.97737299813698" lon="12.191677985140707"><ele>228.0</ele><time>2026-03-26T04:22:07Z</time></trkpt><trkpt lat="45.977293927296756" lon="12.191416454947229"><ele>227.33333333333331</ele><time>2026-03-26T04:22:08Z</time></trkpt><trkpt lat="45.97721513915377" lon="12.191154949617776"><ele>226.66666666666666</ele><time>2026-03-26T04:22:09Z</time></trkpt><trkpt lat="45.977138819312025" lon="12.190894530178848"><ele>226.0</ele><time>2026-03-26T04:22:10Z</time></trkpt><trkpt lat="45.97706518256687" lon="12.190635829534097"><ele>228.0</ele><time>2026-03-26T04:22:11Z</time></trkpt><trkpt lat="45.97698947572676" lon="12.190381536408058"><ele>230.0</ele><time>2026-03-26T04:22:12Z</time></trkpt><trkpt lat="45.976915451703576" lon="12.190133317606413"><ele>232.0</ele><time>2026-03-26T04:22:13Z</time></trkpt><trkpt lat="45.97684259716648" lon="12.189893518943784"><ele>231.0</ele><time>2026-03-26T04:22:14Z</time></trkpt><trkpt lat="45.97677055869846" lon="12.189659694320738"><ele>230.0</ele><time>2026-03-26T04:22:15Z</time></trkpt><trkpt lat="45.976697129659485" lon="12.189429304384529"><ele>229.0</ele><time>2026-03-26T04:22:16Z</time></trkpt><trkpt lat="45.97661484640716" lon="12.189207263949939"><ele>230.33333333333331</ele><time>2026-03-26T04:22:17Z</time></trkpt><trkpt lat="45.97652720754407" lon="12.188987049694832"><ele>231.66666666666669</ele><time>2026-03-26T04:22:18Z</time></trkpt><trkpt lat="45.97643799620791" lon="12.18876769133454"><ele>233.0</ele><time>2026-03-26T04:22:19Z</time></trkpt><trkpt lat="45.9763480712307" lon="12.188546773270913"><ele>233.0</ele><time>2026-03-26T04:22:20Z</time></trkpt><trkpt lat="45.976255297448" lon="12.18832227933708"><ele>233.0</ele><time>2026-03-26T04:22:21Z</time></trkpt><trkpt lat="45.976159646244504" lon="12.188096907566674"><ele>233.0</ele><time>2026-03-26T04:22:22Z</time></trkpt><trkpt lat="45.97606266122351" lon="12.187869450606554"><ele>232.33333333333334</ele><time>2026-03-26T04:22:23Z</time></trkpt><trkpt lat="45.97596271664709" lon="12.187639807650083"><ele>231.66666666666669</ele><time>2026-03-26T04:22:24Z</time></trkpt><trkpt lat="45.97586247790135" lon="12.187406406532618"><ele>231.0</ele><time>2026-03-26T04:22:25Z</time></trkpt><trkpt lat="45.97576200991047" lon="12.187169626539813"><ele>231.0</ele><time>2026-03-26T04:22:26Z</time></trkpt><trkpt lat="45.975663699988374" lon="12.186935555732205"><ele>231.0</ele><time>2026-03-26T04:22:27Z</time></trkpt><trkpt lat="45.97556775467266" lon="12.186701512632272"><ele>231.0</ele><time>2026-03-26T04:22:28Z</time></trkpt><trkpt lat="45.97547391061629" lon="12.186469726487045"><ele>234.33333333333331</ele><time>2026-03-26T04:22:29Z</time></trkpt><trkpt lat="45.975385421737805" lon="12.186235390191648"><ele>237.66666666666666</ele><time>2026-03-26T04:22:30Z</time></trkpt><trkpt lat="45.975303184640296" lon="12.1859993505254"><ele>241.0</ele><time>2026-03-26T04:22:31Z</time></trkpt><trkpt lat="45.975231917409914" lon="12.185757954934628"><ele>243.0</ele><time>2026-03-26T04:22:32Z</time></trkpt><trkpt lat="45.97517181203176" lon="12.185514600049169"><ele>245.0</ele><time>2026-03-26T04:22:33Z</time></trkpt><trkpt lat="45.97512472001322" lon="12.185265643984527"><ele>247.0</ele><time>2026-03-26T04:22:34Z</time></trkpt><trkpt lat="45.97508545263711" lon="12.185014105960944"><ele>249.33333333333331</ele><time>2026-03-26T04:22:35Z</time></trkpt><trkpt lat="45.975046779927986" lon="12.184762086824513"><ele>251.66666666666669</ele><time>2026-03-26T04:22:36Z</time></trkpt><trkpt lat="45.97501266463697" lon="12.184509392885548"><ele>254.0</ele><time>2026-03-26T04:22:37Z</time></trkpt><trkpt lat="45.97497369002592" lon="12.184257796264939"><ele>248.66666666666669</ele><time>2026-03-26T04:22:38Z</time></trkpt><trkpt lat="45.974935913729794" lon="12.184006698887512"><ele>243.33333333333331</ele><time>2026-03-26T04:22:39Z</time></trkpt><trkpt lat="45.97489926412476" lon="12.183755745120362"><ele>238.0</ele><time>2026-03-26T04:22:40Z</time></trkpt><trkpt lat="45.97486430950317" lon="12.183503247252126"><ele>238.0</ele><time>2026-03-26T04:22:41Z</time></trkpt><trkpt lat="45.9748285777157" lon="12.183251920368066"><ele>238.0</ele><time>2026-03-26T04:22:42Z</time></trkpt><trkpt lat="45.97479357769173" lon="12.183001894184367"><ele>238.0</ele><time>2026-03-26T04:22:43Z</time></trkpt><trkpt lat="45.974756655113936" lon="12.182751776569273"><ele>237.33333333333331</ele><time>2026-03-26T04:22:44Z</time></trkpt><trkpt lat="45.97471867993258" lon="12.182501838695364"><ele>236.66666666666669</ele><time>2026-03-26T04:22:45Z</time></trkpt><trkpt lat="45.974681064204574" lon="12.18225227725789"><ele>236.0</ele><time>2026-03-26T04:22:46Z</time></trkpt><trkpt lat="45.97464619857839" lon="12.18200293062301"><ele>234.66666666666669</ele><time>2026-03-26T04:22:47Z</time></trkpt><trkpt lat="45.97461423038166" lon="12.18175242197826"><ele>233.33333333333331</ele><time>2026-03-26T04:22:48Z</time></trkpt><trkpt lat="45.97457945588142" lon="12.181503317225607"><ele>232.0</ele><time>2026-03-26T04:22:49Z</time></trkpt><trkpt lat="45.97454311451602" lon="12.18125493133418"><ele>232.0</ele><time>2026-03-26T04:22:49.999Z</time></trkpt><trkpt lat="45.974507225475776" lon="12.181005092654228"><ele>232.0</ele><time>2026-03-26T04:22:50.999Z</time></trkpt><trkpt lat="45.974471371351115" lon="12.180754732924544"><ele>232.0</ele><time>2026-03-26T04:22:51.999Z</time></trkpt><trkpt lat="45.974437491466766" lon="12.180503329362292"><ele>232.66666666666666</ele><time>2026-03-26T04:22:52.999Z</time></trkpt><trkpt lat="45.974402784648454" lon="12.180251444594306"><ele>233.33333333333331</ele><time>2026-03-26T04:22:53.999Z</time></trkpt><trkpt lat="45.974366755416646" lon="12.180000293651604"><ele>234.0</ele><time>2026-03-26T04:22:54.999Z</time></trkpt><trkpt lat="45.97433006704771" lon="12.179746473027803"><ele>235.0</ele><time>2026-03-26T04:22:55.999Z</time></trkpt><trkpt lat="45.97429183739742" lon="12.179493456514033"><ele>236.0</ele><time>2026-03-26T04:22:56.999Z</time></trkpt><trkpt lat="45.974254549504714" lon="12.17924070680265"><ele>237.0</ele><time>2026-03-26T04:22:57.999Z</time></trkpt><trkpt lat="45.9742210420826" lon="12.17898644829966"><ele>237.0</ele><time>2026-03-26T04:22:58.999Z</time></trkpt><trkpt lat="45.97418528744799" lon="12.178733762142414"><ele>237.0</ele><time>2026-03-26T04:22:59.999Z</time></trkpt><trkpt lat="45.97414888347481" lon="12.178489821515855"><ele>237.0</ele><time>2026-03-26T04:23:00.999Z</time></trkpt><trkpt lat="45.974114151209754" lon="12.178254438799415"><ele>236.66666666666669</ele><time>2026-03-26T04:23:01.999Z</time></trkpt><trkpt lat="45.97408292642093" lon="12.178028741111104"><ele>236.33333333333334</ele><time>2026-03-26T04:23:02.999Z</time></trkpt><trkpt lat="45.97405373634126" lon="12.177812310418894"><ele>236.0</ele><time>2026-03-26T04:23:03.999Z</time></trkpt><trkpt lat="45.974025341447884" lon="12.177604484276854"><ele>236.0</ele><time>2026-03-26T04:23:04.999Z</time></trkpt><trkpt lat="45.973999159300014" lon="12.17740367488021"><ele>236.0</ele><time>2026-03-26T04:23:06Z</time></trkpt><trkpt lat="45.97397839831406" lon="12.177217834890428"><ele>236.0</ele><time>2026-03-26T04:23:07Z</time></trkpt><trkpt lat="45.97396277395712" lon="12.177047929402537"><ele>236.0</ele><time>2026-03-26T04:23:08Z</time></trkpt><trkpt lat="45.97395008544472" lon="12.17688920404672"><ele>236.0</ele><time>2026-03-26T04:23:09Z</time></trkpt><trkpt lat="45.973939940401905" lon="12.17674263161947"><ele>236.00000000000003</ele><time>2026-03-26T04:23:10Z</time></trkpt><trkpt lat="45.9739747333614" lon="12.176614141249745"><ele>236.00000000000003</ele><time>2026-03-26T04:23:11Z</time></trkpt><trkpt lat="45.973883691675816" lon="12.176461108427661"><ele>236.0</ele><time>2026-03-26T04:23:12Z</time></trkpt><trkpt lat="45.97384323254723" lon="12.176313635534388"><ele>236.0</ele><time>2026-03-26T04:23:13Z</time></trkpt><trkpt lat="45.97380908053329" lon="12.17615439234261"><ele>236.0</ele><time>2026-03-26T04:23:14Z</time></trkpt><trkpt lat="45.97378575250061" lon="12.175977629990767"><ele>236.0</ele><time>2026-03-26T04:23:15Z</time></trkpt><trkpt lat="45.9737666188101" lon="12.175789930662535"><ele>236.0</ele><time>2026-03-26T04:23:16Z</time></trkpt><trkpt lat="45.973743430878265" lon="12.175597890063479"><ele>236.0</ele><time>2026-03-26T04:23:17Z</time></trkpt><trkpt lat="45.97371527188993" lon="12.175401095907258"><ele>236.5</ele><time>2026-03-26T04:23:18Z</time></trkpt><trkpt lat="45.973687985575815" lon="12.175210169934514"><ele>237.0</ele><time>2026-03-26T04:23:19Z</time></trkpt><trkpt lat="45.97365906069566" lon="12.175018942104213"><ele>237.5</ele><time>2026-03-26T04:23:20Z</time></trkpt><trkpt lat="45.9736291295753" lon="12.174819941260584"><ele>238.0</ele><time>2026-03-26T04:23:21Z</time></trkpt><trkpt lat="45.97359821598119" lon="12.174619052922363"><ele>238.0</ele><time>2026-03-26T04:23:22Z</time></trkpt><trkpt lat="45.97356451766985" lon="12.174413448104943"><ele>238.0</ele><time>2026-03-26T04:23:23Z</time></trkpt><trkpt lat="45.97352297095948" lon="12.174206408427716"><ele>238.0</ele><time>2026-03-26T04:23:24Z</time></trkpt><trkpt lat="45.97347642189566" lon="12.173998682340846"><ele>238.0</ele><time>2026-03-26T04:23:25Z</time></trkpt><trkpt lat="45.973424537719545" lon="12.173787586904945"><ele>238.66666666666666</ele><time>2026-03-26T04:23:26Z</time></trkpt><trkpt lat="45.973369182316" lon="12.173573727279022"><ele>239.33333333333331</ele><time>2026-03-26T04:23:27Z</time></trkpt><trkpt lat="45.97330918071481" lon="12.173357320554414"><ele>240.0</ele><time>2026-03-26T04:23:28Z</time></trkpt><trkpt lat="45.973246085301795" lon="12.173136442285987"><ele>244.0</ele><time>2026-03-26T04:23:29Z</time></trkpt><trkpt lat="45.97318169741597" lon="12.172910043271331"><ele>248.0</ele><time>2026-03-26T04:23:30Z</time></trkpt><trkpt lat="45.97311391565681" lon="12.172677350115974"><ele>252.0</ele><time>2026-03-26T04:23:31Z</time></trkpt><trkpt lat="45.973044240441006" lon="12.172439282969618"><ele>259.6666666666667</ele><time>2026-03-26T04:23:32Z</time></trkpt><trkpt lat="45.97297226313778" lon="12.172196813263588"><ele>267.33333333333337</ele><time>2026-03-26T04:23:33Z</time></trkpt><trkpt lat="45.97289922336778" lon="12.171951564874695"><ele>275.0</ele><time>2026-03-26T04:23:34Z</time></trkpt><trkpt lat="45.97282739348568" lon="12.171705220358254"><ele>282.33333333333337</ele><time>2026-03-26T04:23:35Z</time></trkpt><trkpt lat="45.97275670171183" lon="12.171458128031661"><ele>289.6666666666667</ele><time>2026-03-26T04:23:36Z</time></trkpt><trkpt lat="45.972688967372484" lon="12.171206776062133"><ele>297.0</ele><time>2026-03-26T04:23:37Z</time></trkpt><trkpt lat="45.972621902461235" lon="12.170955451834887"><ele>297.0</ele><time>2026-03-26T04:23:38Z</time></trkpt><trkpt lat="45.97255913840331" lon="12.170701928535461"><ele>297.0</ele><time>2026-03-26T04:23:39Z</time></trkpt><trkpt lat="45.972510886154794" lon="12.170448405721988"><ele>297.0</ele><time>2026-03-26T04:23:40Z</time></trkpt><trkpt lat="45.97246692443643" lon="12.170198792744554"><ele>283.3333333333333</ele><time>2026-03-26T04:23:41Z</time></trkpt><trkpt lat="45.97242385699952" lon="12.169951449242799"><ele>269.66666666666663</ele><time>2026-03-26T04:23:42Z</time></trkpt><trkpt lat="45.97237995531974" lon="12.16970547887899"><ele>256.0</ele><time>2026-03-26T04:23:43Z</time></trkpt><trkpt lat="45.97233374665864" lon="12.169459034117462"><ele>256.0</ele><time>2026-03-26T04:23:44Z</time></trkpt><trkpt lat="45.9722900891267" lon="12.169212833584258"><ele>256.0</ele><time>2026-03-26T04:23:45Z</time></trkpt><trkpt lat="45.97224350580239" lon="12.168966012580835"><ele>256.0</ele><time>2026-03-26T04:23:46Z</time></trkpt><trkpt lat="45.97219615797889" lon="12.168716315700442"><ele>258.66666666666663</ele><time>2026-03-26T04:23:47Z</time></trkpt><trkpt lat="45.972152810548735" lon="12.16846841729855"><ele>261.3333333333333</ele><time>2026-03-26T04:23:48Z</time></trkpt><trkpt lat="45.97210685261595" lon="12.168222258301016"><ele>264.0</ele><time>2026-03-26T04:23:49Z</time></trkpt><trkpt lat="45.97206284785937" lon="12.167974432976438"><ele>265.3333333333333</ele><time>2026-03-26T04:23:50Z</time></trkpt><trkpt lat="45.97202085926488" lon="12.167729405340708"><ele>266.66666666666663</ele><time>2026-03-26T04:23:51Z</time></trkpt><trkpt lat="45.97197684969153" lon="12.167489904793086"><ele>268.0</ele><time>2026-03-26T04:23:52Z</time></trkpt><trkpt lat="45.97193241524474" lon="12.16725509142528"><ele>268.66666666666663</ele><time>2026-03-26T04:23:53Z</time></trkpt><trkpt lat="45.97188994497521" lon="12.167023597270065"><ele>269.3333333333333</ele><time>2026-03-26T04:23:54Z</time></trkpt><trkpt lat="45.97185511976372" lon="12.166794094278425"><ele>270.0</ele><time>2026-03-26T04:23:55Z</time></trkpt><trkpt lat="45.9718258956981" lon="12.16655791335817"><ele>268.3333333333333</ele><time>2026-03-26T04:23:56Z</time></trkpt><trkpt lat="45.971804683893865" lon="12.16631816408286"><ele>266.66666666666663</ele><time>2026-03-26T04:23:57Z</time></trkpt><trkpt lat="45.97178885255948" lon="12.166075618086078"><ele>265.0</ele><time>2026-03-26T04:23:58Z</time></trkpt><trkpt lat="45.9717760853624" lon="12.165831893294282"><ele>263.66666666666663</ele><time>2026-03-26T04:23:59Z</time></trkpt><trkpt lat="45.971766212001754" lon="12.165587565541143"><ele>262.3333333333333</ele><time>2026-03-26T04:24:00Z</time></trkpt><trkpt lat="45.97176015861376" lon="12.165342618416167"><ele>261.0</ele><time>2026-03-26T04:24:01Z</time></trkpt><trkpt lat="45.97175460437395" lon="12.165099860587722"><ele>261.0</ele><time>2026-03-26T04:24:02Z</time></trkpt><trkpt lat="45.97175177023948" lon="12.164867807739993"><ele>261.0</ele><time>2026-03-26T04:24:03Z</time></trkpt><trkpt lat="45.971747103317846" lon="12.164635392020024"><ele>261.0</ele><time>2026-03-26T04:24:04Z</time></trkpt><trkpt lat="45.97174079798882" lon="12.164408221860377"><ele>261.0</ele><time>2026-03-26T04:24:05Z</time></trkpt><trkpt lat="45.971735768700206" lon="12.164184837621365"><ele>261.0</ele><time>2026-03-26T04:24:06Z</time></trkpt><trkpt lat="45.97173254582949" lon="12.163965827759913"><ele>261.0</ele><time>2026-03-26T04:24:07Z</time></trkpt><trkpt lat="45.971731019722874" lon="12.16374914510396"><ele>261.0</ele><time>2026-03-26T04:24:08Z</time></trkpt><trkpt lat="45.97172964838262" lon="12.163534953971794"><ele>261.0</ele><time>2026-03-26T04:24:09Z</time></trkpt><trkpt lat="45.9717259979646" lon="12.16332230828854"><ele>261.0</ele><time>2026-03-26T04:24:10Z</time></trkpt><trkpt lat="45.971722641933205" lon="12.163112546384212"><ele>261.0</ele><time>2026-03-26T04:24:11Z</time></trkpt><trkpt lat="45.97172438490656" lon="12.162903231301074"><ele>261.0</ele><time>2026-03-26T04:24:12Z</time></trkpt><trkpt lat="45.971729430854445" lon="12.16269802919412"><ele>261.0</ele><time>2026-03-26T04:24:13Z</time></trkpt><trkpt lat="45.971737325629995" lon="12.162490717055686"><ele>261.0</ele><time>2026-03-26T04:24:14Z</time></trkpt><trkpt lat="45.97173768245233" lon="12.162287256720859"><ele>261.0</ele><time>2026-03-26T04:24:15Z</time></trkpt><trkpt lat="45.971733550460314" lon="12.16208462485142"><ele>261.0</ele><time>2026-03-26T04:24:16Z</time></trkpt><trkpt lat="45.971724243475514" lon="12.161878572446147"><ele>261.0</ele><time>2026-03-26T04:24:17Z</time></trkpt><trkpt lat="45.97170751960194" lon="12.161670609845714"><ele>261.0</ele><time>2026-03-26T04:24:18Z</time></trkpt><trkpt lat="45.97167903277587" lon="12.161463587756115"><ele>261.0</ele><time>2026-03-26T04:24:19Z</time></trkpt><trkpt lat="45.971644228493204" lon="12.161255257019517"><ele>258.3333333333333</ele><time>2026-03-26T04:24:20Z</time></trkpt><trkpt lat="45.97160280667201" lon="12.161047147765135"><ele>255.66666666666666</ele><time>2026-03-26T04:24:21Z</time></trkpt><trkpt lat="45.97155627536078" lon="12.160837899639718"><ele>253.0</ele><time>2026-03-26T04:24:22Z</time></trkpt><trkpt lat="45.971505823725735" lon="12.160630701126127"><ele>253.0</ele><time>2026-03-26T04:24:23Z</time></trkpt><trkpt lat="45.97145136764131" lon="12.160423335043912"><ele>253.0</ele><time>2026-03-26T04:24:24Z</time></trkpt><trkpt lat="45.971393691665135" lon="12.160214326484489"><ele>253.0</ele><time>2026-03-26T04:24:25Z</time></trkpt><trkpt lat="45.971337504205934" lon="12.160002628296098"><ele>258.3333333333333</ele><time>2026-03-26T04:24:26Z</time></trkpt><trkpt lat="45.97128500935546" lon="12.159788495399557"><ele>263.6666666666667</ele><time>2026-03-26T04:24:27Z</time></trkpt><trkpt lat="45.971230434780566" lon="12.159573017774306"><ele>269.0</ele><time>2026-03-26T04:24:28Z</time></trkpt><trkpt lat="45.971172433831406" lon="12.159359603241098"><ele>269.0</ele><time>2026-03-26T04:24:29Z</time></trkpt><trkpt lat="45.97111510148782" lon="12.159146760242196"><ele>269.0</ele><time>2026-03-26T04:24:30Z</time></trkpt><trkpt lat="45.97105830608263" lon="12.158936869847613"><ele>269.0</ele><time>2026-03-26T04:24:31Z</time></trkpt><trkpt lat="45.97100325656059" lon="12.158729003632278"><ele>272.0</ele><time>2026-03-26T04:24:32Z</time></trkpt><trkpt lat="45.970946824556776" lon="12.158523809407813"><ele>275.0</ele><time>2026-03-26T04:24:33Z</time></trkpt><trkpt lat="45.970882944014875" lon="12.158323310327383"><ele>278.0</ele><time>2026-03-26T04:24:34Z</time></trkpt><trkpt lat="45.97080881035182" lon="12.158128029153989"><ele>271.0</ele><time>2026-03-26T04:24:35Z</time></trkpt><trkpt lat="45.97072954754898" lon="12.157937016113006"><ele>264.0</ele><time>2026-03-26T04:24:36Z</time></trkpt><trkpt lat="45.97064477131511" lon="12.157750604331145"><ele>257.0</ele><time>2026-03-26T04:24:37Z</time></trkpt><trkpt lat="45.970553994871956" lon="12.157572318573138"><ele>257.0</ele><time>2026-03-26T04:24:38Z</time></trkpt><trkpt lat="45.97045929006782" lon="12.157397942095269"><ele>257.0</ele><time>2026-03-26T04:24:39Z</time></trkpt><trkpt lat="45.970364553317324" lon="12.157222813559365"><ele>257.0</ele><time>2026-03-26T04:24:40Z</time></trkpt><trkpt lat="45.970270592173385" lon="12.157047962281048"><ele>255.0</ele><time>2026-03-26T04:24:41Z</time></trkpt><trkpt lat="45.97017544923525" lon="12.156874132465601"><ele>253.0</ele><time>2026-03-26T04:24:42Z</time></trkpt><trkpt lat="45.97008203212338" lon="12.156698082117348"><ele>251.0</ele><time>2026-03-26T04:24:43Z</time></trkpt><trkpt lat="45.969988765328324" lon="12.15652181409429"><ele>251.0</ele><time>2026-03-26T04:24:44Z</time></trkpt><trkpt lat="45.969892861547926" lon="12.156343898229235"><ele>251.0</ele><time>2026-03-26T04:24:45Z</time></trkpt><trkpt lat="45.969795643724055" lon="12.156168598202605"><ele>251.0</ele><time>2026-03-26T04:24:46Z</time></trkpt><trkpt lat="45.9696967479254" lon="12.155994381227183"><ele>251.0</ele><time>2026-03-26T04:24:47Z</time></trkpt><trkpt lat="45.96959967375483" lon="12.15581780448611"><ele>251.0</ele><time>2026-03-26T04:24:48Z</time></trkpt><trkpt lat="45.969503295382935" lon="12.155640733074609"><ele>251.0</ele><time>2026-03-26T04:24:48.999Z</time></trkpt><trkpt lat="45.96940737788264" lon="12.155461696787054"><ele>249.66666666666669</ele><time>2026-03-26T04:24:49.999Z</time></trkpt><trkpt lat="45.96931188802936" lon="12.155282650667495"><ele>248.33333333333331</ele><time>2026-03-26T04:24:50.999Z</time></trkpt><trkpt lat="45.96921724755982" lon="12.155103558587136"><ele>247.0</ele><time>2026-03-26T04:24:51.999Z</time></trkpt><trkpt lat="45.96912075963907" lon="12.154926676876704"><ele>249.66666666666666</ele><time>2026-03-26T04:24:52.999Z</time></trkpt><trkpt lat="45.96902544489879" lon="12.154748505609337"><ele>252.33333333333331</ele><time>2026-03-26T04:24:53.999Z</time></trkpt><trkpt lat="45.96892903511089" lon="12.154570420606783"><ele>255.0</ele><time>2026-03-26T04:24:54.999Z</time></trkpt><trkpt lat="45.96883314947142" lon="12.154394823061194"><ele>255.0</ele><time>2026-03-26T04:24:55.999Z</time></trkpt><trkpt lat="45.96873764196627" lon="12.1542212344919"><ele>255.0</ele><time>2026-03-26T04:24:56.999Z</time></trkpt><trkpt lat="45.96864392596876" lon="12.154051150216622"><ele>255.0</ele><time>2026-03-26T04:24:57.999Z</time></trkpt><trkpt lat="45.968554300740195" lon="12.153885651522565"><ele>256.75</ele><time>2026-03-26T04:24:58.999Z</time></trkpt><trkpt lat="45.96846735509006" lon="12.153722980059925"><ele>258.5</ele><time>2026-03-26T04:24:59.999Z</time></trkpt><trkpt lat="45.96838780323115" lon="12.153557540456102"><ele>260.25</ele><time>2026-03-26T04:25:00.999Z</time></trkpt><trkpt lat="45.968314729347114" lon="12.153386415517314"><ele>262.0</ele><time>2026-03-26T04:25:01.999Z</time></trkpt><trkpt lat="45.96824801863447" lon="12.153208512290842"><ele>259.75</ele><time>2026-03-26T04:25:02.999Z</time></trkpt><trkpt lat="45.96818603504995" lon="12.153026927151892"><ele>257.5</ele><time>2026-03-26T04:25:03.999Z</time></trkpt><trkpt lat="45.96813094123829" lon="12.152839761030407"><ele>255.25</ele><time>2026-03-26T04:25:04.999Z</time></trkpt><trkpt lat="45.96807690434681" lon="12.152647684806006"><ele>253.0</ele><time>2026-03-26T04:25:05.999Z</time></trkpt><trkpt lat="45.96802277922293" lon="12.152454903201459"><ele>255.0</ele><time>2026-03-26T04:25:06.999Z</time></trkpt><trkpt lat="45.9679652161751" lon="12.152261650118358"><ele>257.0</ele><time>2026-03-26T04:25:07.999Z</time></trkpt><trkpt lat="45.96790548586192" lon="12.152069981964129"><ele>259.0</ele><time>2026-03-26T04:25:08.999Z</time></trkpt><trkpt lat="45.96784100707615" lon="12.151876249466952"><ele>261.0</ele><time>2026-03-26T04:25:09.999Z</time></trkpt><trkpt lat="45.967778339613695" lon="12.151679416265253"><ele>261.0</ele><time>2026-03-26T04:25:10.999Z</time></trkpt><trkpt lat="45.9677168092079" lon="12.15148012312092"><ele>261.0</ele><time>2026-03-26T04:25:12Z</time></trkpt><trkpt lat="45.96765404717067" lon="12.151277865617045"><ele>261.0</ele><time>2026-03-26T04:25:13Z</time></trkpt><trkpt lat="45.96758781260488" lon="12.151073312686455"><ele>258.0</ele><time>2026-03-26T04:25:14Z</time></trkpt><trkpt lat="45.967524523933065" lon="12.150863228894645"><ele>255.0</ele><time>2026-03-26T04:25:15Z</time></trkpt><trkpt lat="45.96746238995987" lon="12.15064743882156"><ele>252.0</ele><time>2026-03-26T04:25:16Z</time></trkpt><trkpt lat="45.96739736470538" lon="12.15042857264548"><ele>251.66666666666669</ele><time>2026-03-26T04:25:17Z</time></trkpt><trkpt lat="45.967330899610104" lon="12.150206474654665"><ele>251.33333333333334</ele><time>2026-03-26T04:25:18Z</time></trkpt><trkpt lat="45.96726309393593" lon="12.14997926978621"><ele>251.0</ele><time>2026-03-26T04:25:19Z</time></trkpt><trkpt lat="45.96719213970802" lon="12.14975277740652"><ele>251.0</ele><time>2026-03-26T04:25:20Z</time></trkpt><trkpt lat="45.967118135990354" lon="12.14953402577991"><ele>251.0</ele><time>2026-03-26T04:25:21Z</time></trkpt><trkpt lat="45.96704298712254" lon="12.149319786898637"><ele>251.0</ele><time>2026-03-26T04:25:22Z</time></trkpt><trkpt lat="45.96696679383668" lon="12.14910962654287"><ele>250.66666666666669</ele><time>2026-03-26T04:25:23Z</time></trkpt><trkpt lat="45.96689283611398" lon="12.148899370624061"><ele>250.33333333333331</ele><time>2026-03-26T04:25:24Z</time></trkpt><trkpt lat="45.96681663310927" lon="12.148691929702865"><ele>250.0</ele><time>2026-03-26T04:25:25Z</time></trkpt><trkpt lat="45.96673856070667" lon="12.14848626619739"><ele>249.33333333333331</ele><time>2026-03-26T04:25:26Z</time></trkpt><trkpt lat="45.96665837107538" lon="12.148282363730127"><ele>248.66666666666669</ele><time>2026-03-26T04:25:27Z</time></trkpt><trkpt lat="45.966578301974785" lon="12.148081338215244"><ele>248.0</ele><time>2026-03-26T04:25:28Z</time></trkpt><trkpt lat="45.96649781476733" lon="12.147882724629142"><ele>246.33333333333334</ele><time>2026-03-26T04:25:29Z</time></trkpt><trkpt lat="45.96641641765059" lon="12.147688593775834"><ele>244.66666666666669</ele><time>2026-03-26T04:25:30Z</time></trkpt><trkpt lat="45.966334971043175" lon="12.147495155050422"><ele>243.0</ele><time>2026-03-26T04:25:31Z</time></trkpt><trkpt lat="45.966253154353815" lon="12.147300972145782"><ele>242.33333333333331</ele><time>2026-03-26T04:25:32Z</time></trkpt><trkpt lat="45.96617258382113" lon="12.147102643112191"><ele>241.66666666666666</ele><time>2026-03-26T04:25:33Z</time></trkpt><trkpt lat="45.96609382571575" lon="12.146900938524242"><ele>241.0</ele><time>2026-03-26T04:25:34Z</time></trkpt><trkpt lat="45.966016500525164" lon="12.146703783186075"><ele>240.66666666666666</ele><time>2026-03-26T04:25:35Z</time></trkpt><trkpt lat="45.9659414083347" lon="12.146506881050636"><ele>240.33333333333331</ele><time>2026-03-26T04:25:36Z</time></trkpt><trkpt lat="45.96587171436702" lon="12.146301879622463"><ele>240.0</ele><time>2026-03-26T04:25:37Z</time></trkpt><trkpt lat="45.96580641282648" lon="12.146090185320741"><ele>239.0</ele><time>2026-03-26T04:25:38Z</time></trkpt><trkpt lat="45.96574574849857" lon="12.145872393586133"><ele>238.0</ele><time>2026-03-26T04:25:39Z</time></trkpt><trkpt lat="45.96569039877627" lon="12.14564877950969"><ele>237.0</ele><time>2026-03-26T04:25:40Z</time></trkpt><trkpt lat="45.965642214391416" lon="12.14541520576553"><ele>237.0</ele><time>2026-03-26T04:25:41Z</time></trkpt><trkpt lat="45.965597351963616" lon="12.145177102538948"><ele>237.0</ele><time>2026-03-26T04:25:42Z</time></trkpt><trkpt lat="45.96556246093315" lon="12.14493293543437"><ele>237.0</ele><time>2026-03-26T04:25:43Z</time></trkpt><trkpt lat="45.965535544235834" lon="12.1446857222275"><ele>237.0</ele><time>2026-03-26T04:25:44Z</time></trkpt><trkpt lat="45.965520574937756" lon="12.144436891435404"><ele>237.0</ele><time>2026-03-26T04:25:45Z</time></trkpt><trkpt lat="45.96550795485964" lon="12.144198326168885"><ele>237.0</ele><time>2026-03-26T04:25:46Z</time></trkpt><trkpt lat="45.96549687348602" lon="12.143977013038775"><ele>237.75</ele><time>2026-03-26T04:25:47Z</time></trkpt><trkpt lat="45.965480358381136" lon="12.143766031155476"><ele>238.5</ele><time>2026-03-26T04:25:48Z</time></trkpt><trkpt lat="45.965471306790754" lon="12.143565673197692"><ele>239.25</ele><time>2026-03-26T04:25:49Z</time></trkpt><trkpt lat="45.965461521364304" lon="12.143370850935812"><ele>240.0</ele><time>2026-03-26T04:25:50Z</time></trkpt><trkpt lat="45.9654500170424" lon="12.143183442988862"><ele>240.25</ele><time>2026-03-26T04:25:51Z</time></trkpt><trkpt lat="45.965437092623105" lon="12.142997892149312"><ele>240.5</ele><time>2026-03-26T04:25:52Z</time></trkpt><trkpt lat="45.965425941430134" lon="12.142815654542945"><ele>240.75</ele><time>2026-03-26T04:25:53Z</time></trkpt><trkpt lat="45.96541991938144" lon="12.142638209258061"><ele>241.0</ele><time>2026-03-26T04:25:54Z</time></trkpt><trkpt lat="45.965421978729864" lon="12.142477687233418"><ele>241.16666666666666</ele><time>2026-03-26T04:25:55Z</time></trkpt><trkpt lat="45.96542324614039" lon="12.142333799390755"><ele>241.33333333333331</ele><time>2026-03-26T04:25:56Z</time></trkpt><trkpt lat="45.96542651215166" lon="12.142196119576688"><ele>241.5</ele><time>2026-03-26T04:25:57Z</time></trkpt><trkpt lat="45.96541326457917" lon="12.142077535283338"><ele>241.66666666666669</ele><time>2026-03-26T04:25:58Z</time></trkpt><trkpt lat="45.965408009810794" lon="12.141965094731441"><ele>241.83333333333334</ele><time>2026-03-26T04:25:59Z</time></trkpt><trkpt lat="45.965448370474505" lon="12.141852127167647"><ele>242.0</ele><time>2026-03-26T04:26:00Z</time></trkpt><trkpt lat="45.965442690495884" lon="12.141744114609109"><ele>242.00000000000003</ele><time>2026-03-26T04:26:01Z</time></trkpt><trkpt lat="45.96542476429028" lon="12.14163435799477"><ele>242.0</ele><time>2026-03-26T04:26:02Z</time></trkpt><trkpt lat="45.96540788102247" lon="12.141521998672962"><ele>242.0</ele><time>2026-03-26T04:26:03Z</time></trkpt><trkpt lat="45.96540541096534" lon="12.141406495220368"><ele>242.0</ele><time>2026-03-26T04:26:04Z</time></trkpt><trkpt lat="45.9654158400576" lon="12.141279897186283"><ele>242.00000000000003</ele><time>2026-03-26T04:26:05Z</time></trkpt><trkpt lat="45.96543038554055" lon="12.14114992709844"><ele>242.0</ele><time>2026-03-26T04:26:06Z</time></trkpt><trkpt lat="45.96544503460795" lon="12.141018200187466"><ele>242.0</ele><time>2026-03-26T04:26:07Z</time></trkpt><trkpt lat="45.96545855965816" lon="12.140887087020815"><ele>242.0</ele><time>2026-03-26T04:26:08Z</time></trkpt><trkpt lat="45.9654733583478" lon="12.140747778116593"><ele>242.0</ele><time>2026-03-26T04:26:09Z</time></trkpt><trkpt lat="45.965491207115264" lon="12.140604080827131"><ele>242.0</ele><time>2026-03-26T04:26:10Z</time></trkpt><trkpt lat="45.965507613430276" lon="12.14045325190363"><ele>242.0</ele><time>2026-03-26T04:26:11Z</time></trkpt><trkpt lat="45.9655277962953" lon="12.140295285568257"><ele>241.25</ele><time>2026-03-26T04:26:12Z</time></trkpt><trkpt lat="45.96554869577104" lon="12.140132118714554"><ele>240.5</ele><time>2026-03-26T04:26:13Z</time></trkpt><trkpt lat="45.96557170814691" lon="12.139962052863359"><ele>239.75</ele><time>2026-03-26T04:26:14Z</time></trkpt><trkpt lat="45.96559456382217" lon="12.139783005583656"><ele>239.0</ele><time>2026-03-26T04:26:15Z</time></trkpt><trkpt lat="45.96561851093726" lon="12.139598744273743"><ele>239.0</ele><time>2026-03-26T04:26:16Z</time></trkpt><trkpt lat="45.96564408234779" lon="12.139408296695612"><ele>239.0</ele><time>2026-03-26T04:26:17Z</time></trkpt><trkpt lat="45.96566940711112" lon="12.139211359564792"><ele>239.0</ele><time>2026-03-26T04:26:18Z</time></trkpt><trkpt lat="45.965692806049546" lon="12.1390195085653"><ele>239.0</ele><time>2026-03-26T04:26:19Z</time></trkpt><trkpt lat="45.965716104790076" lon="12.138831994561952"><ele>239.0</ele><time>2026-03-26T04:26:20Z</time></trkpt><trkpt lat="45.96573894629677" lon="12.138650990755062"><ele>239.0</ele><time>2026-03-26T04:26:21Z</time></trkpt><trkpt lat="45.96576125219919" lon="12.138479658717348"><ele>239.0</ele><time>2026-03-26T04:26:22Z</time></trkpt><trkpt lat="45.96577983382962" lon="12.138319725736705"><ele>239.0</ele><time>2026-03-26T04:26:23Z</time></trkpt><trkpt lat="45.965797953840635" lon="12.138165411382161"><ele>238.66666666666669</ele><time>2026-03-26T04:26:24Z</time></trkpt><trkpt lat="45.96581907580204" lon="12.138026245548131"><ele>238.33333333333334</ele><time>2026-03-26T04:26:25Z</time></trkpt><trkpt lat="45.965847026601494" lon="12.137910593312842"><ele>238.0</ele><time>2026-03-26T04:26:26Z</time></trkpt><trkpt lat="45.96588810685568" lon="12.137810451077748"><ele>237.66666666666669</ele><time>2026-03-26T04:26:27Z</time></trkpt><trkpt lat="45.96593022549959" lon="12.137703194370989"><ele>237.33333333333334</ele><time>2026-03-26T04:26:28Z</time></trkpt><trkpt lat="45.96595074298802" lon="12.137582584428353"><ele>237.0</ele><time>2026-03-26T04:26:29Z</time></trkpt><trkpt lat="45.965947419562376" lon="12.137446362063741"><ele>242.0</ele><time>2026-03-26T04:26:30Z</time></trkpt><trkpt lat="45.965929133168665" lon="12.137304249678088"><ele>247.0</ele><time>2026-03-26T04:26:31Z</time></trkpt><trkpt lat="45.96590121096734" lon="12.13716446745184"><ele>252.0</ele><time>2026-03-26T04:26:32Z</time></trkpt><trkpt lat="45.965883207773686" lon="12.137021662113087"><ele>257.0</ele><time>2026-03-26T04:26:33Z</time></trkpt><trkpt lat="45.965877316387385" lon="12.136872456029407"><ele>262.0</ele><time>2026-03-26T04:26:34Z</time></trkpt><trkpt lat="45.96588124051764" lon="12.136720034237031"><ele>262.0</ele><time>2026-03-26T04:26:35Z</time></trkpt><trkpt lat="45.965874234024845" lon="12.136565688376793"><ele>262.0</ele><time>2026-03-26T04:26:36Z</time></trkpt><trkpt lat="45.96586036234533" lon="12.136410381773631"><ele>262.0</ele><time>2026-03-26T04:26:37Z</time></trkpt><trkpt lat="45.96584336231232" lon="12.136260691724779"><ele>262.0</ele><time>2026-03-26T04:26:38Z</time></trkpt><trkpt lat="45.9658203790928" lon="12.136116048443862"><ele>262.0</ele><time>2026-03-26T04:26:39Z</time></trkpt><trkpt lat="45.96579463775259" lon="12.135966892462237"><ele>257.0</ele><time>2026-03-26T04:26:40Z</time></trkpt><trkpt lat="45.96576534182311" lon="12.135811320515657"><ele>252.0</ele><time>2026-03-26T04:26:41Z</time></trkpt><trkpt lat="45.96573181299167" lon="12.135646689478914"><ele>247.0</ele><time>2026-03-26T04:26:42Z</time></trkpt><trkpt lat="45.96569234404131" lon="12.135484664040716"><ele>242.0</ele><time>2026-03-26T04:26:43Z</time></trkpt><trkpt lat="45.965645020904915" lon="12.135323536788908"><ele>241.25</ele><time>2026-03-26T04:26:44Z</time></trkpt><trkpt lat="45.96559145272613" lon="12.135166887568259"><ele>240.5</ele><time>2026-03-26T04:26:45Z</time></trkpt><trkpt lat="45.96552831440762" lon="12.135015484070246"><ele>239.75</ele><time>2026-03-26T04:26:46Z</time></trkpt><trkpt lat="45.96546106297561" lon="12.134867285477743"><ele>239.0</ele><time>2026-03-26T04:26:47Z</time></trkpt><trkpt lat="45.96538844366631" lon="12.134718086836822"><ele>238.0</ele><time>2026-03-26T04:26:48Z</time></trkpt><trkpt lat="45.965308216234305" lon="12.134579710244108"><ele>237.0</ele><time>2026-03-26T04:26:49Z</time></trkpt><trkpt lat="45.965221453172866" lon="12.134445429317802"><ele>236.0</ele><time>2026-03-26T04:26:50Z</time></trkpt><trkpt lat="45.965127455111" lon="12.134314137238627"><ele>235.0</ele><time>2026-03-26T04:26:51Z</time></trkpt><trkpt lat="45.96502704696651" lon="12.134185193384479"><ele>234.25</ele><time>2026-03-26T04:26:52Z</time></trkpt><trkpt lat="45.964924487962854" lon="12.134052205102787"><ele>233.5</ele><time>2026-03-26T04:26:52.999Z</time></trkpt><trkpt lat="45.964823723041846" lon="12.13391172290876"><ele>232.75</ele><time>2026-03-26T04:26:53.999Z</time></trkpt><trkpt lat="45.96471976422921" lon="12.133769429215167"><ele>232.0</ele><time>2026-03-26T04:26:54.999Z</time></trkpt><trkpt lat="45.96461536762135" lon="12.133625355296335"><ele>232.0</ele><time>2026-03-26T04:26:55.999Z</time></trkpt><trkpt lat="45.96450845445855" lon="12.133478905266626"><ele>232.0</ele><time>2026-03-26T04:26:56.999Z</time></trkpt><trkpt lat="45.9643984348623" lon="12.133329723870737"><ele>232.0</ele><time>2026-03-26T04:26:57.999Z</time></trkpt><trkpt lat="45.96428646536365" lon="12.133182951431344"><ele>230.66666666666666</ele><time>2026-03-26T04:26:58.999Z</time></trkpt><trkpt lat="45.96417461357419" lon="12.133037396959308"><ele>229.33333333333331</ele><time>2026-03-26T04:26:59.999Z</time></trkpt><trkpt lat="45.964064424277225" lon="12.132890482311177"><ele>228.0</ele><time>2026-03-26T04:27:00.999Z</time></trkpt><trkpt lat="45.963953262057615" lon="12.132739813223065"><ele>228.0</ele><time>2026-03-26T04:27:01.999Z</time></trkpt><trkpt lat="45.96384061871631" lon="12.132589011603818"><ele>228.0</ele><time>2026-03-26T04:27:02.999Z</time></trkpt><trkpt lat="45.96372793545975" lon="12.132435651001558"><ele>228.0</ele><time>2026-03-26T04:27:03.999Z</time></trkpt><trkpt lat="45.96361331318944" lon="12.1322804512953"><ele>227.66666666666669</ele><time>2026-03-26T04:27:04.999Z</time></trkpt><trkpt lat="45.96349650171488" lon="12.132127082682599"><ele>227.33333333333334</ele><time>2026-03-26T04:27:05.999Z</time></trkpt><trkpt lat="45.96337771983269" lon="12.131970844058444"><ele>227.0</ele><time>2026-03-26T04:27:06.999Z</time></trkpt><trkpt lat="45.963258795506164" lon="12.13181072081302"><ele>227.0</ele><time>2026-03-26T04:27:07.999Z</time></trkpt><trkpt lat="45.96314314429524" lon="12.131656723374917"><ele>227.0</ele><time>2026-03-26T04:27:08.999Z</time></trkpt><trkpt lat="45.963027169813856" lon="12.131500173164122"><ele>227.0</ele><time>2026-03-26T04:27:09.999Z</time></trkpt><trkpt lat="45.96290993032786" lon="12.131341783845679"><ele>225.66666666666669</ele><time>2026-03-26T04:27:10.999Z</time></trkpt><trkpt lat="45.96279385342328" lon="12.131181274281102"><ele>224.33333333333331</ele><time>2026-03-26T04:27:11.999Z</time></trkpt><trkpt lat="45.962677701681535" lon="12.131020326143847"><ele>223.0</ele><time>2026-03-26T04:27:12.999Z</time></trkpt><trkpt lat="45.96256014997014" lon="12.130857949773928"><ele>222.0</ele><time>2026-03-26T04:27:13.999Z</time></trkpt><trkpt lat="45.96244383916897" lon="12.130696222635853"><ele>221.0</ele><time>2026-03-26T04:27:14.999Z</time></trkpt><trkpt lat="45.9623255831233" lon="12.13053798734158"><ele>220.0</ele><time>2026-03-26T04:27:15.999Z</time></trkpt><trkpt lat="45.96220772985175" lon="12.130377676110246"><ele>220.0</ele><time>2026-03-26T04:27:16.999Z</time></trkpt><trkpt lat="45.962089239262696" lon="12.130219153912645"><ele>220.0</ele><time>2026-03-26T04:27:18Z</time></trkpt><trkpt lat="45.961971078502195" lon="12.130060556318229"><ele>220.0</ele><time>2026-03-26T04:27:19Z</time></trkpt><trkpt lat="45.961851821212775" lon="12.129902457759073"><ele>220.0</ele><time>2026-03-26T04:27:20Z</time></trkpt><trkpt lat="45.96173387139477" lon="12.129741713468931"><ele>220.0</ele><time>2026-03-26T04:27:21Z</time></trkpt><trkpt lat="45.96161684254962" lon="12.12957823581014"><ele>220.0</ele><time>2026-03-26T04:27:22Z</time></trkpt><trkpt lat="45.96149788867356" lon="12.12941575531708"><ele>220.33333333333331</ele><time>2026-03-26T04:27:23Z</time></trkpt><trkpt lat="45.96138052736211" lon="12.129255386456052"><ele>220.66666666666669</ele><time>2026-03-26T04:27:24Z</time></trkpt><trkpt lat="45.96125980556562" lon="12.129095265147235"><ele>221.0</ele><time>2026-03-26T04:27:25Z</time></trkpt><trkpt lat="45.961140404478236" lon="12.128935865509497"><ele>220.0</ele><time>2026-03-26T04:27:26Z</time></trkpt><trkpt lat="45.961021289849974" lon="12.128773639287928"><ele>219.0</ele><time>2026-03-26T04:27:27Z</time></trkpt><trkpt lat="45.960898963857346" lon="12.128611093765006"><ele>218.0</ele><time>2026-03-26T04:27:28Z</time></trkpt><trkpt lat="45.96077737130611" lon="12.128450804759991"><ele>218.0</ele><time>2026-03-26T04:27:29Z</time></trkpt><trkpt lat="45.960661152007276" lon="12.128287039036206"><ele>218.0</ele><time>2026-03-26T04:27:30Z</time></trkpt><trkpt lat="45.960545393448086" lon="12.128118368318134"><ele>218.0</ele><time>2026-03-26T04:27:31Z</time></trkpt><trkpt lat="45.960434817037026" lon="12.127947168803805"><ele>218.0</ele><time>2026-03-26T04:27:32Z</time></trkpt><trkpt lat="45.960337024395066" lon="12.127768151686867"><ele>218.0</ele><time>2026-03-26T04:27:33Z</time></trkpt><trkpt lat="45.96024422924019" lon="12.127582202570494"><ele>218.0</ele><time>2026-03-26T04:27:34Z</time></trkpt><trkpt lat="45.96015814835397" lon="12.127390925948493"><ele>217.33333333333334</ele><time>2026-03-26T04:27:35Z</time></trkpt><trkpt lat="45.960080582273726" lon="12.127190426797803"><ele>216.66666666666669</ele><time>2026-03-26T04:27:36Z</time></trkpt><trkpt lat="45.96000964832421" lon="12.126984022666074"><ele>216.0</ele><time>2026-03-26T04:27:37Z</time></trkpt><trkpt lat="45.959944421728736" lon="12.12677153011842"><ele>215.66666666666669</ele><time>2026-03-26T04:27:38Z</time></trkpt><trkpt lat="45.959878576166155" lon="12.126559735540967"><ele>215.33333333333334</ele><time>2026-03-26T04:27:39Z</time></trkpt><trkpt lat="45.95980796725592" lon="12.126348072428762"><ele>215.0</ele><time>2026-03-26T04:27:40Z</time></trkpt><trkpt lat="45.95973936356718" lon="12.126141722768494"><ele>215.0</ele><time>2026-03-26T04:27:41Z</time></trkpt><trkpt lat="45.95967022183482" lon="12.125940607156494"><ele>215.0</ele><time>2026-03-26T04:27:42Z</time></trkpt><trkpt lat="45.95959832160762" lon="12.125742844194837"><ele>215.0</ele><time>2026-03-26T04:27:43Z</time></trkpt><trkpt lat="45.95952435498146" lon="12.125548588270089"><ele>214.66666666666669</ele><time>2026-03-26T04:27:44Z</time></trkpt><trkpt lat="45.95944980842597" lon="12.12535303952633"><ele>214.33333333333331</ele><time>2026-03-26T04:27:45Z</time></trkpt><trkpt lat="45.959373128641055" lon="12.125155939219258"><ele>214.0</ele><time>2026-03-26T04:27:46Z</time></trkpt><trkpt lat="45.959290023936475" lon="12.124963851104248"><ele>214.0</ele><time>2026-03-26T04:27:47Z</time></trkpt><trkpt lat="45.95920277221899" lon="12.124776549961368"><ele>214.0</ele><time>2026-03-26T04:27:48Z</time></trkpt><trkpt lat="45.95910967856484" lon="12.124600129425845"><ele>214.0</ele><time>2026-03-26T04:27:49Z</time></trkpt><trkpt lat="45.959009290235855" lon="12.124432613341664"><ele>213.33333333333331</ele><time>2026-03-26T04:27:50Z</time></trkpt><trkpt lat="45.958902681846" lon="12.124270352783903"><ele>212.66666666666669</ele><time>2026-03-26T04:27:51Z</time></trkpt><trkpt lat="45.958790723999975" lon="12.124112709250468"><ele>212.0</ele><time>2026-03-26T04:27:52Z</time></trkpt><trkpt lat="45.95867470042715" lon="12.123959249303798"><ele>210.66666666666669</ele><time>2026-03-26T04:27:53Z</time></trkpt><trkpt lat="45.95855020283191" lon="12.123818745301632"><ele>209.33333333333331</ele><time>2026-03-26T04:27:54Z</time></trkpt><trkpt lat="45.95842368082049" lon="12.12368597889232"><ele>208.0</ele><time>2026-03-26T04:27:55Z</time></trkpt><trkpt lat="45.958293772111745" lon="12.123556630049062"><ele>207.66666666666666</ele><time>2026-03-26T04:27:56Z</time></trkpt><trkpt lat="45.95815915107563" lon="12.12342962998414"><ele>207.33333333333331</ele><time>2026-03-26T04:27:57Z</time></trkpt><trkpt lat="45.958022418105415" lon="12.12329950658007"><ele>207.0</ele><time>2026-03-26T04:27:58Z</time></trkpt><trkpt lat="45.95788441683913" lon="12.123168250279845"><ele>206.0</ele><time>2026-03-26T04:27:59Z</time></trkpt><trkpt lat="45.957743293805244" lon="12.123035899472512"><ele>205.0</ele><time>2026-03-26T04:28:00Z</time></trkpt><trkpt lat="45.957601447841334" lon="12.122903039771526"><ele>204.0</ele><time>2026-03-26T04:28:01Z</time></trkpt><trkpt lat="45.957458849139684" lon="12.122770476206748"><ele>203.66666666666669</ele><time>2026-03-26T04:28:02Z</time></trkpt><trkpt lat="45.95731623079566" lon="12.122635612456298"><ele>203.33333333333334</ele><time>2026-03-26T04:28:03Z</time></trkpt><trkpt lat="45.95717323642568" lon="12.122497911471417"><ele>203.0</ele><time>2026-03-26T04:28:04Z</time></trkpt><trkpt lat="45.95702809212119" lon="12.122363554324611"><ele>203.0</ele><time>2026-03-26T04:28:05Z</time></trkpt><trkpt lat="45.956883196589" lon="12.122226445486008"><ele>203.0</ele><time>2026-03-26T04:28:06Z</time></trkpt><trkpt lat="45.956736330993245" lon="12.122090423869764"><ele>203.0</ele><time>2026-03-26T04:28:07Z</time></trkpt><trkpt lat="45.9565893931606" lon="12.121951927901318"><ele>203.0</ele><time>2026-03-26T04:28:08Z</time></trkpt><trkpt lat="45.956442229413014" lon="12.121813305187763"><ele>203.0</ele><time>2026-03-26T04:28:09Z</time></trkpt><trkpt lat="45.95629351740704" lon="12.121677689935412"><ele>203.0</ele><time>2026-03-26T04:28:10Z</time></trkpt><trkpt lat="45.95614428807904" lon="12.121543061998889"><ele>203.0</ele><time>2026-03-26T04:28:11Z</time></trkpt><trkpt lat="45.95599759469206" lon="12.121408423456847"><ele>203.0</ele><time>2026-03-26T04:28:12Z</time></trkpt><trkpt lat="45.955854164267755" lon="12.121277791884017"><ele>203.0</ele><time>2026-03-26T04:28:13Z</time></trkpt><trkpt lat="45.95571366473295" lon="12.121148706132024"><ele>201.66666666666669</ele><time>2026-03-26T04:28:14Z</time></trkpt><trkpt lat="45.955575187069314" lon="12.121024501902268"><ele>200.33333333333331</ele><time>2026-03-26T04:28:15Z</time></trkpt><trkpt lat="45.95543687129275" lon="12.120897232912895"><ele>199.0</ele><time>2026-03-26T04:28:16Z</time></trkpt><trkpt lat="45.95529898985416" lon="12.120767409306282"><ele>199.33333333333331</ele><time>2026-03-26T04:28:17Z</time></trkpt><trkpt lat="45.95516143910025" lon="12.120638701058883"><ele>199.66666666666669</ele><time>2026-03-26T04:28:18Z</time></trkpt><trkpt lat="45.95502508864255" lon="12.120506991096445"><ele>200.0</ele><time>2026-03-26T04:28:19Z</time></trkpt><trkpt lat="45.954891926844894" lon="12.120364937959744"><ele>199.0</ele><time>2026-03-26T04:28:20Z</time></trkpt><trkpt lat="45.95475838307503" lon="12.120222542015725"><ele>198.0</ele><time>2026-03-26T04:28:21Z</time></trkpt><trkpt lat="45.95462394541879" lon="12.1200838057163"><ele>197.0</ele><time>2026-03-26T04:28:22Z</time></trkpt><trkpt lat="45.9544911410235" lon="12.119946421180625"><ele>198.0</ele><time>2026-03-26T04:28:23Z</time></trkpt><trkpt lat="45.95436198516979" lon="12.119809977598033"><ele>199.0</ele><time>2026-03-26T04:28:24Z</time></trkpt><trkpt lat="45.954234161112545" lon="12.119678683743798"><ele>200.0</ele><time>2026-03-26T04:28:25Z</time></trkpt><trkpt lat="45.95411176770737" lon="12.11955405272275"><ele>200.0</ele><time>2026-03-26T04:28:26Z</time></trkpt><trkpt lat="45.9539982049816" lon="12.1194344364551"><ele>200.0</ele><time>2026-03-26T04:28:27Z</time></trkpt><trkpt lat="45.953895103456475" lon="12.119308486601753"><ele>200.0</ele><time>2026-03-26T04:28:28Z</time></trkpt><trkpt lat="45.9537972146539" lon="12.11916504925526"><ele>200.0</ele><time>2026-03-26T04:28:29Z</time></trkpt><trkpt lat="45.953706554865796" lon="12.119003335154114"><ele>199.0</ele><time>2026-03-26T04:28:30Z</time></trkpt><trkpt lat="45.953625336713756" lon="12.118831058625169"><ele>198.0</ele><time>2026-03-26T04:28:31Z</time></trkpt><trkpt lat="45.95354331406498" lon="12.118656308561622"><ele>197.0</ele><time>2026-03-26T04:28:32Z</time></trkpt><trkpt lat="45.953450325250294" lon="12.118491735833048"><ele>196.0</ele><time>2026-03-26T04:28:33Z</time></trkpt><trkpt lat="45.95334570551101" lon="12.118337096812526"><ele>195.33333333333331</ele><time>2026-03-26T04:28:34Z</time></trkpt><trkpt lat="45.953232121245264" lon="12.118187285059765"><ele>194.66666666666669</ele><time>2026-03-26T04:28:35Z</time></trkpt><trkpt lat="45.953123619635385" lon="12.118029877614417"><ele>194.0</ele><time>2026-03-26T04:28:36Z</time></trkpt><trkpt lat="45.953023968274714" lon="12.117856346537357"><ele>194.0</ele><time>2026-03-26T04:28:37Z</time></trkpt><trkpt lat="45.952934259274606" lon="12.117673393421603"><ele>194.0</ele><time>2026-03-26T04:28:38Z</time></trkpt><trkpt lat="45.95284968500065" lon="12.117482608390501"><ele>194.0</ele><time>2026-03-26T04:28:39Z</time></trkpt><trkpt lat="45.952756619706534" lon="12.117295969889541"><ele>194.0</ele><time>2026-03-26T04:28:40Z</time></trkpt><trkpt lat="45.95266359620848" lon="12.11710935559004"><ele>194.0</ele><time>2026-03-26T04:28:41Z</time></trkpt><trkpt lat="45.95256849274882" lon="12.116919206898494"><ele>194.0</ele><time>2026-03-26T04:28:42Z</time></trkpt><trkpt lat="45.95247426124439" lon="12.11672655417329"><ele>194.66666666666669</ele><time>2026-03-26T04:28:43Z</time></trkpt><trkpt lat="45.95238007033264" lon="12.11653142260667"><ele>195.33333333333331</ele><time>2026-03-26T04:28:44Z</time></trkpt><trkpt lat="45.952282967684205" lon="12.116337706178031"><ele>196.0</ele><time>2026-03-26T04:28:45Z</time></trkpt><trkpt lat="45.95218912886208" lon="12.11613973495592"><ele>196.0</ele><time>2026-03-26T04:28:46Z</time></trkpt><trkpt lat="45.95210367443251" lon="12.11593316036774"><ele>196.0</ele><time>2026-03-26T04:28:47Z</time></trkpt><trkpt lat="45.95202911452116" lon="12.115720490089231"><ele>196.0</ele><time>2026-03-26T04:28:48Z</time></trkpt><trkpt lat="45.951963798361206" lon="12.115504919812304"><ele>197.0</ele><time>2026-03-26T04:28:49Z</time></trkpt><trkpt lat="45.95191382791264" lon="12.115278567179912"><ele>198.0</ele><time>2026-03-26T04:28:50Z</time></trkpt><trkpt lat="45.95187694323736" lon="12.115048045072228"><ele>199.0</ele><time>2026-03-26T04:28:50.999Z</time></trkpt><trkpt lat="45.95184418838579" lon="12.114818607606606"><ele>200.0</ele><time>2026-03-26T04:28:51.999Z</time></trkpt><trkpt lat="45.95182168719212" lon="12.114587433142418"><ele>201.0</ele><time>2026-03-26T04:28:52.999Z</time></trkpt><trkpt lat="45.951807749032085" lon="12.114354760338381"><ele>202.0</ele><time>2026-03-26T04:28:53.999Z</time></trkpt><trkpt lat="45.95179039678346" lon="12.11412157851087"><ele>203.66666666666666</ele><time>2026-03-26T04:28:54.999Z</time></trkpt><trkpt lat="45.951774602554224" lon="12.113886910412639"><ele>205.33333333333331</ele><time>2026-03-26T04:28:55.999Z</time></trkpt><trkpt lat="45.95176056031165" lon="12.113654614284261"><ele>207.0</ele><time>2026-03-26T04:28:56.999Z</time></trkpt><trkpt lat="45.95174730126421" lon="12.113421491110861"><ele>206.66666666666669</ele><time>2026-03-26T04:28:57.999Z</time></trkpt><trkpt lat="45.951729925889936" lon="12.113190944411237"><ele>206.33333333333334</ele><time>2026-03-26T04:28:58.999Z</time></trkpt><trkpt lat="45.95171497615489" lon="12.112963769032095"><ele>206.0</ele><time>2026-03-26T04:28:59.999Z</time></trkpt><trkpt lat="45.95170045441778" lon="12.112739982507222"><ele>206.0</ele><time>2026-03-26T04:29:00.999Z</time></trkpt><trkpt lat="45.95168803458281" lon="12.112518063831663"><ele>206.0</ele><time>2026-03-26T04:29:01.999Z</time></trkpt><trkpt lat="45.95167682401178" lon="12.112299285709772"><ele>206.0</ele><time>2026-03-26T04:29:02.999Z</time></trkpt><trkpt lat="45.95166286938878" lon="12.112091273264424"><ele>206.75</ele><time>2026-03-26T04:29:03.999Z</time></trkpt><trkpt lat="45.951646146620504" lon="12.111890455976756"><ele>207.5</ele><time>2026-03-26T04:29:04.999Z</time></trkpt><trkpt lat="45.9516216329299" lon="12.111703308331963"><ele>208.25</ele><time>2026-03-26T04:29:05.999Z</time></trkpt><trkpt lat="45.95158507652784" lon="12.111522419953484"><ele>209.0</ele><time>2026-03-26T04:29:06.999Z</time></trkpt><trkpt lat="45.95153819563822" lon="12.11134509714235"><ele>210.0</ele><time>2026-03-26T04:29:07.999Z</time></trkpt><trkpt lat="45.95148065047123" lon="12.11117358059924"><ele>211.0</ele><time>2026-03-26T04:29:08.999Z</time></trkpt><trkpt lat="45.95141752938435" lon="12.111007945756688"><ele>212.0</ele><time>2026-03-26T04:29:09.999Z</time></trkpt><trkpt lat="45.95134861181591" lon="12.110845237538967"><ele>213.0</ele><time>2026-03-26T04:29:10.999Z</time></trkpt><trkpt lat="45.95127693770324" lon="12.110682060659055"><ele>214.25</ele><time>2026-03-26T04:29:11.999Z</time></trkpt><trkpt lat="45.95120486561213" lon="12.110517601414548"><ele>215.5</ele><time>2026-03-26T04:29:12.999Z</time></trkpt><trkpt lat="45.951131516553794" lon="12.110352714313473"><ele>216.75</ele><time>2026-03-26T04:29:13.999Z</time></trkpt><trkpt lat="45.951061029042066" lon="12.110190563236433"><ele>218.0</ele><time>2026-03-26T04:29:14.999Z</time></trkpt><trkpt lat="45.95099091652982" lon="12.110028374213472"><ele>218.75</ele><time>2026-03-26T04:29:15.999Z</time></trkpt><trkpt lat="45.95092268168364" lon="12.109867113635731"><ele>219.5</ele><time>2026-03-26T04:29:16.999Z</time></trkpt><trkpt lat="45.950852986414844" lon="12.109709167448747"><ele>220.25</ele><time>2026-03-26T04:29:17.999Z</time></trkpt><trkpt lat="45.9507851233243" lon="12.109557536273451"><ele>221.0</ele><time>2026-03-26T04:29:18.999Z</time></trkpt><trkpt lat="45.9507176287155" lon="12.109409213699246"><ele>220.25</ele><time>2026-03-26T04:29:19.999Z</time></trkpt><trkpt lat="45.95064458563968" lon="12.109266093070515"><ele>219.5</ele><time>2026-03-26T04:29:20.999Z</time></trkpt><trkpt lat="45.95056052036346" lon="12.10913463240225"><ele>218.75</ele><time>2026-03-26T04:29:21.999Z</time></trkpt><trkpt lat="45.950469841352316" lon="12.109010533537827"><ele>218.0</ele><time>2026-03-26T04:29:22.999Z</time></trkpt><trkpt lat="45.95037741710171" lon="12.108894253147419"><ele>218.0</ele><time>2026-03-26T04:29:24Z</time></trkpt><trkpt lat="45.950288313705535" lon="12.108790956629557"><ele>218.0</ele><time>2026-03-26T04:29:25Z</time></trkpt><trkpt lat="45.95020289317866" lon="12.108692397256972"><ele>218.0</ele><time>2026-03-26T04:29:26Z</time></trkpt><trkpt lat="45.95012360551236" lon="12.108599159032499"><ele>218.0</ele><time>2026-03-26T04:29:27Z</time></trkpt><trkpt lat="45.95004569360061" lon="12.10850798552899"><ele>218.0</ele><time>2026-03-26T04:29:28Z</time></trkpt><trkpt lat="45.94996590822088" lon="12.10841689992757"><ele>218.0</ele><time>2026-03-26T04:29:29Z</time></trkpt><trkpt lat="45.94988264131462" lon="12.10832664494102"><ele>218.0</ele><time>2026-03-26T04:29:30Z</time></trkpt><trkpt lat="45.94980040728846" lon="12.108228747924509"><ele>218.0</ele><time>2026-03-26T04:29:31Z</time></trkpt><trkpt lat="45.94971699752096" lon="12.108132142797562"><ele>218.0</ele><time>2026-03-26T04:29:32Z</time></trkpt><trkpt lat="45.949630854147905" lon="12.10803464757861"><ele>218.0</ele><time>2026-03-26T04:29:33Z</time></trkpt><trkpt lat="45.94954516907353" lon="12.107935927433447"><ele>218.00000000000003</ele><time>2026-03-26T04:29:34Z</time></trkpt><trkpt lat="45.94948327170106" lon="12.107862075848374"><ele>218.0</ele><time>2026-03-26T04:29:35Z</time></trkpt><trkpt lat="45.94943103556396" lon="12.107803600346337"><ele>218.0</ele><time>2026-03-26T04:29:37Z</time></trkpt><trkpt lat="45.949350963872504" lon="12.10772521701734"><ele>218.0</ele><time>2026-03-26T04:30:28Z</time></trkpt><trkpt lat="45.94929821445899" lon="12.107663139768963"><ele>218.00000000000003</ele><time>2026-03-26T04:30:29Z</time></trkpt><trkpt lat="45.949212430285286" lon="12.107567267232803"><ele>218.0</ele><time>2026-03-26T04:30:31Z</time></trkpt><trkpt lat="45.94912526423081" lon="12.107462424199557"><ele>219.16666666666669</ele><time>2026-03-26T04:30:33Z</time></trkpt><trkpt lat="45.949064033778114" lon="12.107386699223218"><ele>220.33333333333334</ele><time>2026-03-26T04:30:35Z</time></trkpt><trkpt lat="45.94898306698935" lon="12.10728887150368"><ele>221.5</ele><time>2026-03-26T04:30:54.999Z</time></trkpt><trkpt lat="45.9489288596933" lon="12.107235065881419"><ele>222.66666666666669</ele><time>2026-03-26T04:30:55.999Z</time></trkpt><trkpt lat="45.94888006683263" lon="12.107176987776684"><ele>223.83333333333334</ele><time>2026-03-26T04:30:56.999Z</time></trkpt><trkpt lat="45.948792094305695" lon="12.10707521693422"><ele>225.0</ele><time>2026-03-26T04:30:58.999Z</time></trkpt><trkpt lat="45.94871909669434" lon="12.106985568803035"><ele>225.0</ele><time>2026-03-26T04:31:00.999Z</time></trkpt><trkpt lat="45.94873386205148" lon="12.106872038188385"><ele>225.0</ele><time>2026-03-26T04:31:02.999Z</time></trkpt><trkpt lat="45.9488109270442" lon="12.106779453537431"><ele>225.0</ele><time>2026-03-26T04:31:04.999Z</time></trkpt><trkpt lat="45.948883270602686" lon="12.106689013360894"><ele>225.0</ele><time>2026-03-26T04:31:06.999Z</time></trkpt><trkpt lat="45.94896403531911" lon="12.106586388109148"><ele>225.0</ele><time>2026-03-26T04:31:08.999Z</time></trkpt><trkpt lat="45.94902713700051" lon="12.106504568010187"><ele>226.0</ele><time>2026-03-26T04:31:10.999Z</time></trkpt><trkpt lat="45.94909155832344" lon="12.1064108808671"><ele>227.0</ele><time>2026-03-26T04:31:12.999Z</time></trkpt><trkpt lat="45.949172767264095" lon="12.106298009578818"><ele>228.0</ele><time>2026-03-26T04:31:14.999Z</time></trkpt><trkpt lat="45.94922676644542" lon="12.106228862673456"><ele>229.0</ele><time>2026-03-26T04:31:16.999Z</time></trkpt><trkpt lat="45.949171269042395" lon="12.106296452430433"><ele>230.0</ele><time>2026-03-26T04:31:23.999Z</time></trkpt><trkpt lat="45.9490818174062" lon="12.106403721795086"><ele>229.99999999999997</ele><time>2026-03-26T04:31:26.999Z</time></trkpt><trkpt lat="45.94902644597543" lon="12.106483713477887"><ele>230.0</ele><time>2026-03-26T04:31:30Z</time></trkpt><trkpt lat="45.94898270472178" lon="12.106553706863386"><ele>229.99999999999997</ele><time>2026-03-26T04:31:33Z</time></trkpt><trkpt lat="45.94892784949276" lon="12.106630876883564"><ele>229.99999999999997</ele><time>2026-03-26T04:31:38Z</time></trkpt><trkpt lat="45.948879437208014" lon="12.106696543407358"><ele>230.0</ele><time>2026-03-26T04:31:41Z</time></trkpt><trkpt lat="45.94882418024021" lon="12.106775269601018"><ele>229.99999999999997</ele><time>2026-03-26T04:31:44Z</time></trkpt><trkpt lat="45.94878249536734" lon="12.106848339021765"><ele>229.99999999999997</ele><time>2026-03-26T04:31:47Z</time></trkpt><trkpt lat="45.9487350871985" lon="12.106925771930532"><ele>230.00000000000003</ele><time>2026-03-26T04:31:54Z</time></trkpt><trkpt lat="45.94861983968555" lon="12.106878033325613"><ele>230.0</ele><time>2026-03-26T04:32:04Z</time></trkpt><trkpt lat="45.94856595640331" lon="12.106815109685028"><ele>230.0</ele><time>2026-03-26T04:32:05Z</time></trkpt><trkpt lat="45.948480892318386" lon="12.106704089109853"><ele>230.0</ele><time>2026-03-26T04:32:07Z</time></trkpt><trkpt lat="45.94843346657168" lon="12.106641661296573"><ele>230.00000000000003</ele><time>2026-03-26T04:32:08Z</time></trkpt><trkpt lat="45.94838364958356" lon="12.106569155481033"><ele>230.0</ele><time>2026-03-26T04:32:09Z</time></trkpt><trkpt lat="45.94832704474232" lon="12.106491840271348"><ele>229.66666666666669</ele><time>2026-03-26T04:32:10Z</time></trkpt><trkpt lat="45.94828059718496" lon="12.106413866788339"><ele>229.33333333333334</ele><time>2026-03-26T04:32:11Z</time></trkpt><trkpt lat="45.94823668239031" lon="12.106338402699778"><ele>229.0</ele><time>2026-03-26T04:32:12Z</time></trkpt><trkpt lat="45.94819371328035" lon="12.106263152865434"><ele>228.66666666666669</ele><time>2026-03-26T04:32:13Z</time></trkpt><trkpt lat="45.94812588718317" lon="12.106142013316653"><ele>228.33333333333334</ele><time>2026-03-26T04:32:15Z</time></trkpt><trkpt lat="45.94807668777922" lon="12.10604994127682"><ele>228.0</ele><time>2026-03-26T04:32:17Z</time></trkpt><trkpt lat="45.94801817857743" lon="12.105928764895072"><ele>228.0</ele><time>2026-03-26T04:32:24Z</time></trkpt><trkpt lat="45.94796064183715" lon="12.105797266891619"><ele>228.0</ele><time>2026-03-26T04:32:26Z</time></trkpt><trkpt lat="45.9478948769291" lon="12.10566937446451"><ele>228.0</ele><time>2026-03-26T04:32:28Z</time></trkpt><trkpt lat="45.94782916167704" lon="12.105533442801098"><ele>228.0</ele><time>2026-03-26T04:32:30Z</time></trkpt><trkpt lat="45.947779928828126" lon="12.105435023908875"><ele>228.0</ele><time>2026-03-26T04:32:32Z</time></trkpt><trkpt lat="45.947705054531575" lon="12.105302556140124"><ele>229.0</ele><time>2026-03-26T04:32:56Z</time></trkpt><trkpt lat="45.94763753237249" lon="12.105172852195594"><ele>230.0</ele><time>2026-03-26T04:32:57.999Z</time></trkpt><trkpt lat="45.94757187531797" lon="12.105070565761295"><ele>231.0</ele><time>2026-03-26T04:32:59.999Z</time></trkpt><trkpt lat="45.94751263230281" lon="12.104966993207182"><ele>232.0</ele><time>2026-03-26T04:33:01.999Z</time></trkpt><trkpt lat="45.947459164484144" lon="12.104895277954624"><ele>233.0</ele><time>2026-03-26T04:33:38Z</time></trkpt><trkpt lat="45.94740128485124" lon="12.104742364507274"><ele>233.50000000000003</ele><time>2026-03-26T04:33:40Z</time></trkpt><trkpt lat="45.947361618550765" lon="12.104666163714226"><ele>234.0</ele><time>2026-03-26T04:33:41Z</time></trkpt><trkpt lat="45.9473191637626" lon="12.104592968932248"><ele>234.5</ele><time>2026-03-26T04:33:42Z</time></trkpt><trkpt lat="45.947259528870255" lon="12.104461969088234"><ele>235.0</ele><time>2026-03-26T04:33:44Z</time></trkpt><trkpt lat="45.94730413379752" lon="12.104365920825225"><ele>235.50000000000003</ele><time>2026-03-26T04:33:46Z</time></trkpt><trkpt lat="45.94739269709967" lon="12.104400640406444"><ele>236.0</ele><time>2026-03-26T04:33:48Z</time></trkpt><trkpt lat="45.94748605391629" lon="12.104513550165754"><ele>236.0</ele><time>2026-03-26T04:33:50Z</time></trkpt><trkpt lat="45.947531983660255" lon="12.104575714735853"><ele>236.0</ele><time>2026-03-26T04:33:51Z</time></trkpt><trkpt lat="45.94758439327834" lon="12.104630607173071"><ele>236.0</ele><time>2026-03-26T04:33:52Z</time></trkpt><trkpt lat="45.94764736152458" lon="12.104675761459726"><ele>236.0</ele><time>2026-03-26T04:33:53Z</time></trkpt><trkpt lat="45.94770793527696" lon="12.104705554665667"><ele>236.0</ele><time>2026-03-26T04:33:54Z</time></trkpt><trkpt lat="45.94778472456384" lon="12.104713895044064"><ele>236.0</ele><time>2026-03-26T04:33:56Z</time></trkpt><trkpt lat="45.947862964670435" lon="12.10465761111473"><ele>236.0</ele><time>2026-03-26T04:34:27Z</time></trkpt><trkpt lat="45.947973140375616" lon="12.10459402446781"><ele>237.00000000000003</ele><time>2026-03-26T04:34:32Z</time></trkpt><trkpt lat="45.94803584757627" lon="12.104553829406324"><ele>238.0</ele><time>2026-03-26T04:34:33Z</time></trkpt><trkpt lat="45.94810342515954" lon="12.104486610273703"><ele>239.0</ele><time>2026-03-26T04:34:35Z</time></trkpt><trkpt lat="45.948187495529545" lon="12.10440097679839"><ele>240.0</ele><time>2026-03-26T04:34:53Z</time></trkpt><trkpt lat="45.94826082086848" lon="12.104281664503842"><ele>241.00000000000003</ele><time>2026-03-26T04:34:55Z</time></trkpt><trkpt lat="45.94832315552299" lon="12.104213550934709"><ele>242.0</ele><time>2026-03-26T04:34:57.999Z</time></trkpt><trkpt lat="45.94837072383936" lon="12.104139648395622"><ele>245.00000000000003</ele><time>2026-03-26T04:35:22.999Z</time></trkpt><trkpt lat="45.94846216672507" lon="12.104095616158896"><ele>248.0</ele><time>2026-03-26T04:35:24.999Z</time></trkpt><trkpt lat="45.9485805434214" lon="12.104139475432207"><ele>251.0</ele><time>2026-03-26T04:35:26.999Z</time></trkpt><trkpt lat="45.948635444457146" lon="12.104202442622137"><ele>254.0</ele><time>2026-03-26T04:35:28.999Z</time></trkpt><trkpt lat="45.9486915448854" lon="12.104282488844563"><ele>257.0</ele><time>2026-03-26T04:35:30.999Z</time></trkpt><trkpt lat="45.9487590714489" lon="12.104316807952824"><ele>260.0</ele><time>2026-03-26T04:35:31.999Z</time></trkpt><trkpt lat="45.94885417455049" lon="12.104371873138986"><ele>260.0</ele><time>2026-03-26T04:35:33.999Z</time></trkpt><trkpt lat="45.948939173407865" lon="12.104277314112743"><ele>260.0</ele><time>2026-03-26T04:35:35.999Z</time></trkpt><trkpt lat="45.948982778258795" lon="12.104163156275618"><ele>260.0</ele><time>2026-03-26T04:35:38.999Z</time></trkpt><trkpt lat="45.94893325986361" lon="12.104072794434218"><ele>260.0</ele><time>2026-03-26T04:35:42Z</time></trkpt><trkpt lat="45.948868266633205" lon="12.10403833868556"><ele>260.0</ele><time>2026-03-26T04:36:07Z</time></trkpt><trkpt lat="45.9487831332526" lon="12.104002222863508"><ele>260.0</ele><time>2026-03-26T04:36:09Z</time></trkpt><trkpt lat="45.94872398556315" lon="12.103940955146367"><ele>263.5</ele><time>2026-03-26T04:36:12Z</time></trkpt><trkpt lat="45.94867211125642" lon="12.103876159953957"><ele>267.0</ele><time>2026-03-26T04:36:33Z</time></trkpt><trkpt lat="45.94858468054841" lon="12.10376843767111"><ele>270.5</ele><time>2026-03-26T04:36:35Z</time></trkpt><trkpt lat="45.948537095952105" lon="12.10370183616347"><ele>274.0</ele><time>2026-03-26T04:36:36Z</time></trkpt><trkpt lat="45.9485091792121" lon="12.103606181821512"><ele>277.5</ele><time>2026-03-26T04:36:38Z</time></trkpt><trkpt lat="45.94848830940036" lon="12.103483154682387"><ele>281.0</ele><time>2026-03-26T04:36:57Z</time></trkpt><trkpt lat="45.94848226973877" lon="12.103389274322481"><ele>281.0</ele><time>2026-03-26T04:36:58Z</time></trkpt><trkpt lat="45.94847891627259" lon="12.103297185562472"><ele>281.0</ele><time>2026-03-26T04:36:58.999Z</time></trkpt><trkpt lat="45.94850123105293" lon="12.103150360230298"><ele>281.0</ele><time>2026-03-26T04:37:00.999Z</time></trkpt><trkpt lat="45.948508723410185" lon="12.10304029387923"><ele>281.0</ele><time>2026-03-26T04:37:02.999Z</time></trkpt><trkpt lat="45.948573372196925" lon="12.103113786518348"><ele>281.0</ele><time>2026-03-26T04:37:08.999Z</time></trkpt><trkpt lat="45.94850774056865" lon="12.103104477335906"><ele>281.0</ele><time>2026-03-26T04:37:22.999Z</time></trkpt><trkpt lat="45.94847377226359" lon="12.103227181756539"><ele>281.0</ele><time>2026-03-26T04:37:25.999Z</time></trkpt><trkpt lat="45.948469880321944" lon="12.103384239574423"><ele>281.0</ele><time>2026-03-26T04:37:27.999Z</time></trkpt><trkpt lat="45.94847861175299" lon="12.103541405529363"><ele>281.0</ele><time>2026-03-26T04:37:29.999Z</time></trkpt><trkpt lat="45.94851939939583" lon="12.103686435552657"><ele>281.0</ele><time>2026-03-26T04:37:31.999Z</time></trkpt><trkpt lat="45.94859585065804" lon="12.103805203015126"><ele>281.0</ele><time>2026-03-26T04:37:33.999Z</time></trkpt><trkpt lat="45.948666989810555" lon="12.103928623783105"><ele>281.0</ele><time>2026-03-26T04:37:35.999Z</time></trkpt><trkpt lat="45.9487686931991" lon="12.104011493832612"><ele>281.0</ele><time>2026-03-26T04:37:37.999Z</time></trkpt><trkpt lat="45.948867037975766" lon="12.104095704800692"><ele>281.0</ele><time>2026-03-26T04:37:39.999Z</time></trkpt><trkpt lat="45.94894655114676" lon="12.104145957595236"><ele>281.0</ele><time>2026-03-26T04:37:41.999Z</time></trkpt><trkpt lat="45.94895615732917" lon="12.104238603442488"><ele>281.0</ele><time>2026-03-26T04:37:43.999Z</time></trkpt><trkpt lat="45.948881553739874" lon="12.104321259868643"><ele>281.0</ele><time>2026-03-26T04:37:45.999Z</time></trkpt><trkpt lat="45.94878209943112" lon="12.104318539168451"><ele>281.0</ele><time>2026-03-26T04:37:48Z</time></trkpt><trkpt lat="45.94867995095489" lon="12.104229951175801"><ele>281.0</ele><time>2026-03-26T04:37:50Z</time></trkpt><trkpt lat="45.948628697060045" lon="12.10416580579311"><ele>281.0</ele><time>2026-03-26T04:37:51Z</time></trkpt><trkpt lat="45.94856918225617" lon="12.10411404077766"><ele>281.0</ele><time>2026-03-26T04:37:52Z</time></trkpt><trkpt lat="45.94844579894885" lon="12.104060382383246"><ele>274.5</ele><time>2026-03-26T04:37:54Z</time></trkpt><trkpt lat="45.94837387458019" lon="12.104085502399158"><ele>268.0</ele><time>2026-03-26T04:37:55Z</time></trkpt><trkpt lat="45.9483036818904" lon="12.104130394400826"><ele>261.5</ele><time>2026-03-26T04:37:56Z</time></trkpt><trkpt lat="45.94825017985355" lon="12.10419990527488"><ele>255.0</ele><time>2026-03-26T04:37:57Z</time></trkpt><trkpt lat="45.94819514644431" lon="12.104288859396542"><ele>248.50000000000003</ele><time>2026-03-26T04:37:58Z</time></trkpt><trkpt lat="45.94813899057024" lon="12.1043795266407"><ele>242.0</ele><time>2026-03-26T04:37:59Z</time></trkpt><trkpt lat="45.948075626608734" lon="12.104459733156924"><ele>242.00000000000003</ele><time>2026-03-26T04:38:00Z</time></trkpt><trkpt lat="45.94800980298952" lon="12.104530672023198"><ele>242.0</ele><time>2026-03-26T04:38:01Z</time></trkpt><trkpt lat="45.94794111954457" lon="12.104587668849902"><ele>242.0</ele><time>2026-03-26T04:38:02Z</time></trkpt><trkpt lat="45.947873104657205" lon="12.104633408180336"><ele>242.0</ele><time>2026-03-26T04:38:03Z</time></trkpt><trkpt lat="45.947796847453674" lon="12.104634259971423"><ele>242.00000000000003</ele><time>2026-03-26T04:38:04Z</time></trkpt><trkpt lat="45.94772758883185" lon="12.104663089915704"><ele>242.0</ele><time>2026-03-26T04:38:05Z</time></trkpt><trkpt lat="45.94765278575401" lon="12.10465213635141"><ele>242.00000000000003</ele><time>2026-03-26T04:38:06Z</time></trkpt><trkpt lat="45.947577288263844" lon="12.104609583888221"><ele>242.0</ele><time>2026-03-26T04:38:07Z</time></trkpt><trkpt lat="45.947523486973516" lon="12.10452217557972"><ele>242.0</ele><time>2026-03-26T04:38:08Z</time></trkpt><trkpt lat="45.9474560952776" lon="12.104466733957057"><ele>242.0</ele><time>2026-03-26T04:38:09Z</time></trkpt><trkpt lat="45.94741106257349" lon="12.104393924333111"><ele>242.00000000000003</ele><time>2026-03-26T04:38:10Z</time></trkpt><trkpt lat="45.94734093096744" lon="12.104289751324169"><ele>242.0</ele><time>2026-03-26T04:38:12Z</time></trkpt><trkpt lat="45.94727341003208" lon="12.10432951888536"><ele>241.83333333333334</ele><time>2026-03-26T04:38:51Z</time></trkpt><trkpt lat="45.94719824830574" lon="12.104332778940714"><ele>241.66666666666669</ele><time>2026-03-26T04:38:55Z</time></trkpt><trkpt lat="45.94713944004829" lon="12.104196887767351"><ele>241.5</ele><time>2026-03-26T04:38:57Z</time></trkpt><trkpt lat="45.94711072319411" lon="12.104113785660926"><ele>241.33333333333331</ele><time>2026-03-26T04:38:58Z</time></trkpt><trkpt lat="45.947062123761356" lon="12.10396620614437"><ele>241.16666666666666</ele><time>2026-03-26T04:39:00Z</time></trkpt><trkpt lat="45.94703425987354" lon="12.103882930534212"><ele>241.0</ele><time>2026-03-26T04:39:01Z</time></trkpt><trkpt lat="45.94700552246048" lon="12.103787632543563"><ele>240.99999999999997</ele><time>2026-03-26T04:39:01.999Z</time></trkpt><trkpt lat="45.94697231707964" lon="12.103684301427338"><ele>241.0</ele><time>2026-03-26T04:39:02.999Z</time></trkpt><trkpt lat="45.94693669983906" lon="12.103574776935412"><ele>241.0</ele><time>2026-03-26T04:39:03.999Z</time></trkpt><trkpt lat="45.94690371255192" lon="12.103461912545152"><ele>241.0</ele><time>2026-03-26T04:39:04.999Z</time></trkpt><trkpt lat="45.94687264534114" lon="12.103351386334179"><ele>240.99999999999997</ele><time>2026-03-26T04:39:05.999Z</time></trkpt><trkpt lat="45.94684034321992" lon="12.103241051616479"><ele>241.0</ele><time>2026-03-26T04:39:06.999Z</time></trkpt><trkpt lat="45.9468073301062" lon="12.1031215873284"><ele>241.33333333333331</ele><time>2026-03-26T04:39:07.999Z</time></trkpt><trkpt lat="45.94677029746856" lon="12.10299442758776"><ele>241.66666666666666</ele><time>2026-03-26T04:39:08.999Z</time></trkpt><trkpt lat="45.946736136253556" lon="12.10287342731739"><ele>242.0</ele><time>2026-03-26T04:39:09.999Z</time></trkpt><trkpt lat="45.9467032202361" lon="12.102769583551522"><ele>242.33333333333331</ele><time>2026-03-26T04:39:10.999Z</time></trkpt><trkpt lat="45.94667724784672" lon="12.102684765904245"><ele>242.66666666666666</ele><time>2026-03-26T04:39:11.999Z</time></trkpt><trkpt lat="45.946685594365015" lon="12.102591920891086"><ele>243.0</ele><time>2026-03-26T04:39:13.999Z</time></trkpt><trkpt lat="45.946778265970934" lon="12.102565550582206"><ele>243.8</ele><time>2026-03-26T04:39:16.999Z</time></trkpt><trkpt lat="45.946862230897295" lon="12.102511906276655"><ele>244.60000000000002</ele><time>2026-03-26T04:39:18.999Z</time></trkpt><trkpt lat="45.94696483524208" lon="12.102437380220467"><ele>245.39999999999998</ele><time>2026-03-26T04:39:20.999Z</time></trkpt><trkpt lat="45.94706200323282" lon="12.102378469808931"><ele>246.2</ele><time>2026-03-26T04:39:22.999Z</time></trkpt><trkpt lat="45.947134685628704" lon="12.102328678198704"><ele>247.0</ele><time>2026-03-26T04:39:24.999Z</time></trkpt><trkpt lat="45.94720465909002" lon="12.102288533271778"><ele>247.0</ele><time>2026-03-26T04:39:46.999Z</time></trkpt><trkpt lat="45.94727388965631" lon="12.10224305561164"><ele>247.0</ele><time>2026-03-26T04:39:48.999Z</time></trkpt><trkpt lat="45.947180607745274" lon="12.102270202416506"><ele>247.0</ele><time>2026-03-26T04:40:06Z</time></trkpt><trkpt lat="45.947086376308" lon="12.102330574502705"><ele>247.0</ele><time>2026-03-26T04:40:08Z</time></trkpt><trkpt lat="45.94698326960717" lon="12.102395071160725"><ele>247.0</ele><time>2026-03-26T04:40:10Z</time></trkpt><trkpt lat="45.946899642711244" lon="12.10245625601147"><ele>247.0</ele><time>2026-03-26T04:40:12Z</time></trkpt><trkpt lat="45.94679784203173" lon="12.102523673134176"><ele>247.0</ele><time>2026-03-26T04:40:14Z</time></trkpt><trkpt lat="45.946712586629914" lon="12.102555584153775"><ele>247.0</ele><time>2026-03-26T04:40:16Z</time></trkpt><trkpt lat="45.94664192450238" lon="12.102568714974359"><ele>247.0</ele><time>2026-03-26T04:40:21Z</time></trkpt><trkpt lat="45.946610819810715" lon="12.102477667252858"><ele>247.0</ele><time>2026-03-26T04:40:22Z</time></trkpt><trkpt lat="45.94658545488749" lon="12.102307623217074"><ele>246.83333333333331</ele><time>2026-03-26T04:40:24Z</time></trkpt><trkpt lat="45.94654987907706" lon="12.102196248077318"><ele>246.66666666666666</ele><time>2026-03-26T04:40:26Z</time></trkpt><trkpt lat="45.94651172492694" lon="12.102108597613377"><ele>246.5</ele><time>2026-03-26T04:40:43Z</time></trkpt><trkpt lat="45.94648759349918" lon="12.102022572335875"><ele>246.33333333333331</ele><time>2026-03-26T04:40:44Z</time></trkpt><trkpt lat="45.94646458918119" lon="12.101932751175712"><ele>246.16666666666666</ele><time>2026-03-26T04:40:45Z</time></trkpt><trkpt lat="45.94641914492245" lon="12.10178030253511"><ele>246.0</ele><time>2026-03-26T04:40:47Z</time></trkpt><trkpt lat="45.94638403643579" lon="12.101646801967382"><ele>246.83333333333334</ele><time>2026-03-26T04:40:49Z</time></trkpt><trkpt lat="45.946346107807216" lon="12.101523123307011"><ele>247.66666666666669</ele><time>2026-03-26T04:41:09.999Z</time></trkpt><trkpt lat="45.94631558699501" lon="12.101437447017744"><ele>248.5</ele><time>2026-03-26T04:41:10.999Z</time></trkpt><trkpt lat="45.94626301575594" lon="12.101317738640033"><ele>249.33333333333334</ele><time>2026-03-26T04:41:12.999Z</time></trkpt><trkpt lat="45.9462082687428" lon="12.101233553531314"><ele>250.16666666666669</ele><time>2026-03-26T04:41:14.999Z</time></trkpt><trkpt lat="45.94618643119558" lon="12.101105240102827"><ele>251.0</ele><time>2026-03-26T04:42:02Z</time></trkpt><trkpt lat="45.94616729839384" lon="12.100999197604319"><ele>251.00000000000003</ele><time>2026-03-26T04:42:04Z</time></trkpt><trkpt lat="45.94613284784017" lon="12.10084442580039"><ele>251.0</ele><time>2026-03-26T04:42:06Z</time></trkpt><trkpt lat="45.94614913597889" lon="12.100747490937952"><ele>251.0</ele><time>2026-03-26T04:42:08Z</time></trkpt><trkpt lat="45.946223355986334" lon="12.10074438709908"><ele>251.0</ele><time>2026-03-26T04:42:11Z</time></trkpt><trkpt lat="45.946321511663086" lon="12.100727300091384"><ele>251.00000000000003</ele><time>2026-03-26T04:42:13Z</time></trkpt><trkpt lat="45.946406398311716" lon="12.100700511895822"><ele>251.0</ele><time>2026-03-26T04:42:15Z</time></trkpt><trkpt lat="45.94647649543944" lon="12.100726208683009"><ele>251.00000000000003</ele><time>2026-03-26T04:42:17Z</time></trkpt><trkpt lat="45.94654520068998" lon="12.100761108251454"><ele>251.0</ele><time>2026-03-26T04:42:19Z</time></trkpt><trkpt lat="45.94662002025622" lon="12.100749938870786"><ele>251.0</ele><time>2026-03-26T04:42:22Z</time></trkpt><trkpt lat="45.94652751747041" lon="12.100707299835735"><ele>251.0</ele><time>2026-03-26T04:42:38Z</time></trkpt><trkpt lat="45.946428394970084" lon="12.100717600191741"><ele>251.00000000000003</ele><time>2026-03-26T04:42:40Z</time></trkpt><trkpt lat="45.94636566153799" lon="12.100700588322663"><ele>251.0</ele><time>2026-03-26T04:42:41Z</time></trkpt><trkpt lat="45.94629180602624" lon="12.100715547686415"><ele>252.00000000000003</ele><time>2026-03-26T04:42:42Z</time></trkpt><trkpt lat="45.94622644010733" lon="12.100734590222896"><ele>253.0</ele><time>2026-03-26T04:42:43Z</time></trkpt><trkpt lat="45.946142170150765" lon="12.10072614540957"><ele>254.0</ele><time>2026-03-26T04:42:45Z</time></trkpt><trkpt lat="45.946074916040565" lon="12.100717069426457"><ele>255.0</ele><time>2026-03-26T04:42:51Z</time></trkpt><trkpt lat="45.94604591377807" lon="12.100541120472998"><ele>256.0</ele><time>2026-03-26T04:42:53Z</time></trkpt><trkpt lat="45.946017236158085" lon="12.100441748988903"><ele>257.0</ele><time>2026-03-26T04:42:54Z</time></trkpt><trkpt lat="45.945993942905844" lon="12.100350646542463"><ele>257.0</ele><time>2026-03-26T04:42:55Z</time></trkpt><trkpt lat="45.94597052679198" lon="12.100265277626587"><ele>257.0</ele><time>2026-03-26T04:42:56Z</time></trkpt><trkpt lat="45.945943971172774" lon="12.100170057124219"><ele>257.0</ele><time>2026-03-26T04:42:57Z</time></trkpt><trkpt lat="45.94591187417013" lon="12.10006195719676"><ele>257.0</ele><time>2026-03-26T04:42:58Z</time></trkpt><trkpt lat="45.94587689152775" lon="12.099944384414336"><ele>257.0</ele><time>2026-03-26T04:42:59Z</time></trkpt><trkpt lat="45.94584245340426" lon="12.099827377250504"><ele>257.0</ele><time>2026-03-26T04:43:00Z</time></trkpt><trkpt lat="45.94580764382477" lon="12.099716731019988"><ele>256.6</ele><time>2026-03-26T04:43:01Z</time></trkpt><trkpt lat="45.945778976622414" lon="12.099618148059948"><ele>256.2</ele><time>2026-03-26T04:43:02Z</time></trkpt><trkpt lat="45.945751568114254" lon="12.099530629270392"><ele>255.8</ele><time>2026-03-26T04:43:03Z</time></trkpt><trkpt lat="45.945720048700615" lon="12.099407782162402"><ele>255.4</ele><time>2026-03-26T04:43:04.999Z</time></trkpt><trkpt lat="45.94581378585182" lon="12.099330249722765"><ele>255.0</ele><time>2026-03-26T04:43:07.999Z</time></trkpt><trkpt lat="45.94592049289389" lon="12.09929557060793"><ele>256.0</ele><time>2026-03-26T04:43:09.999Z</time></trkpt><trkpt lat="45.94601261063965" lon="12.0992570607707"><ele>257.0</ele><time>2026-03-26T04:43:11.999Z</time></trkpt><trkpt lat="45.94609285949392" lon="12.099208848427255"><ele>258.0</ele><time>2026-03-26T04:43:13.999Z</time></trkpt><trkpt lat="45.94615484777404" lon="12.099190445573072"><ele>259.0</ele><time>2026-03-26T04:43:14.999Z</time></trkpt><trkpt lat="45.946227932336406" lon="12.099169093916773"><ele>260.0</ele><time>2026-03-26T04:43:15.999Z</time></trkpt><trkpt lat="45.94629302062936" lon="12.09912720777384"><ele>261.0</ele><time>2026-03-26T04:43:16.999Z</time></trkpt><trkpt lat="45.946343668639486" lon="12.099068538367543"><ele>261.40000000000003</ele><time>2026-03-26T04:43:17.999Z</time></trkpt><trkpt lat="45.94642035129668" lon="12.098944652761759"><ele>261.8</ele><time>2026-03-26T04:43:19.999Z</time></trkpt><trkpt lat="45.94647140587464" lon="12.098884645612886"><ele>262.20000000000005</ele><time>2026-03-26T04:43:20.999Z</time></trkpt><trkpt lat="45.946555633852384" lon="12.098813573018976"><ele>262.6</ele><time>2026-03-26T04:43:22.999Z</time></trkpt><trkpt lat="45.94663315326287" lon="12.098727038179495"><ele>263.0</ele><time>2026-03-26T04:43:24.999Z</time></trkpt><trkpt lat="45.94670566440047" lon="12.09864376523675"><ele>263.6</ele><time>2026-03-26T04:43:26.999Z</time></trkpt><trkpt lat="45.94676489166837" lon="12.09858701062708"><ele>264.20000000000005</ele><time>2026-03-26T04:43:28.999Z</time></trkpt><trkpt lat="45.94684860022265" lon="12.098499588347762"><ele>264.8</ele><time>2026-03-26T04:43:30.999Z</time></trkpt><trkpt lat="45.94693947541385" lon="12.098407655213837"><ele>265.40000000000003</ele><time>2026-03-26T04:43:32.999Z</time></trkpt><trkpt lat="45.947031983179116" lon="12.09831916365573"><ele>266.0</ele><time>2026-03-26T04:43:34.999Z</time></trkpt><trkpt lat="45.94713453897227" lon="12.098219463269636"><ele>266.0</ele><time>2026-03-26T04:43:36.999Z</time></trkpt><trkpt lat="45.94719618003451" lon="12.098181270803183"><ele>266.0</ele><time>2026-03-26T04:43:37.999Z</time></trkpt><trkpt lat="45.94730966804418" lon="12.098170027391399"><ele>266.0</ele><time>2026-03-26T04:43:39.999Z</time></trkpt><trkpt lat="45.94735504946975" lon="12.098247625036379"><ele>266.0</ele><time>2026-03-26T04:43:40.999Z</time></trkpt><trkpt lat="45.9473801254686" lon="12.09834132904475"><ele>266.0</ele><time>2026-03-26T04:43:42.999Z</time></trkpt><trkpt lat="45.94729753274789" lon="12.098250484173358"><ele>266.0</ele><time>2026-03-26T04:43:47.999Z</time></trkpt><trkpt lat="45.947197402200594" lon="12.09817792035095"><ele>266.0</ele><time>2026-03-26T04:43:49.999Z</time></trkpt><trkpt lat="45.94712869443871" lon="12.098200662836057"><ele>266.0</ele><time>2026-03-26T04:43:50.999Z</time></trkpt><trkpt lat="45.94707164307051" lon="12.098242544942147"><ele>266.0</ele><time>2026-03-26T04:43:51.999Z</time></trkpt><trkpt lat="45.94700713497445" lon="12.09830548319223"><ele>266.0</ele><time>2026-03-26T04:43:52.999Z</time></trkpt><trkpt lat="45.94693022457927" lon="12.098387227474454"><ele>266.0</ele><time>2026-03-26T04:43:53.999Z</time></trkpt><trkpt lat="45.946837938880954" lon="12.09847736996082"><ele>266.0</ele><time>2026-03-26T04:43:54.999Z</time></trkpt><trkpt lat="45.94673642351445" lon="12.098579919521246"><ele>265.25</ele><time>2026-03-26T04:43:55.999Z</time></trkpt><trkpt lat="45.94663520245074" lon="12.098684439846894"><ele>264.5</ele><time>2026-03-26T04:43:56.999Z</time></trkpt><trkpt lat="45.94653702734193" lon="12.098788195537292"><ele>263.75</ele><time>2026-03-26T04:43:57.999Z</time></trkpt><trkpt lat="45.94644969201042" lon="12.098884907303907"><ele>263.0</ele><time>2026-03-26T04:43:58.999Z</time></trkpt><trkpt lat="45.946370486010665" lon="12.098977345327905"><ele>263.0</ele><time>2026-03-26T04:43:59.999Z</time></trkpt><trkpt lat="45.946302123407605" lon="12.09905317686122"><ele>263.0</ele><time>2026-03-26T04:44:00.999Z</time></trkpt><trkpt lat="45.946243446887195" lon="12.099113580920982"><ele>263.0</ele><time>2026-03-26T04:44:01.999Z</time></trkpt><trkpt lat="45.94618630990657" lon="12.099164247664328"><ele>263.0</ele><time>2026-03-26T04:44:02.999Z</time></trkpt><trkpt lat="45.946110044521006" lon="12.099198869703935"><ele>263.0</ele><time>2026-03-26T04:44:03.999Z</time></trkpt><trkpt lat="45.946030680296964" lon="12.099218017665443"><ele>263.0</ele><time>2026-03-26T04:44:05Z</time></trkpt><trkpt lat="45.94594996392491" lon="12.099244034809463"><ele>262.33333333333337</ele><time>2026-03-26T04:44:06Z</time></trkpt><trkpt lat="45.94587769840418" lon="12.099279893129992"><ele>261.6666666666667</ele><time>2026-03-26T04:44:07Z</time></trkpt><trkpt lat="45.945810792637566" lon="12.099317958779341"><ele>261.0</ele><time>2026-03-26T04:44:08Z</time></trkpt><trkpt lat="45.945723963657414" lon="12.09934738464488"><ele>260.3333333333333</ele><time>2026-03-26T04:44:10Z</time></trkpt><trkpt lat="45.945639090471104" lon="12.099209627306001"><ele>259.66666666666663</ele><time>2026-03-26T04:44:16Z</time></trkpt><trkpt lat="45.945618424503756" lon="12.099112800336162"><ele>259.0</ele><time>2026-03-26T04:44:17Z</time></trkpt><trkpt lat="45.94559611391651" lon="12.09902384329931"><ele>259.0</ele><time>2026-03-26T04:44:18Z</time></trkpt><trkpt lat="45.94557112828839" lon="12.098938367129312"><ele>259.0</ele><time>2026-03-26T04:44:19Z</time></trkpt><trkpt lat="45.9455442584084" lon="12.098842689440946"><ele>259.0</ele><time>2026-03-26T04:44:20Z</time></trkpt><trkpt lat="45.94551107170736" lon="12.098735582520574"><ele>259.0</ele><time>2026-03-26T04:44:21Z</time></trkpt><trkpt lat="45.94547624423626" lon="12.09861334342453"><ele>259.0</ele><time>2026-03-26T04:44:22Z</time></trkpt><trkpt lat="45.945439484908064" lon="12.098483658984875"><ele>259.0</ele><time>2026-03-26T04:44:23Z</time></trkpt><trkpt lat="45.945404373474695" lon="12.098358902662635"><ele>259.7142857142857</ele><time>2026-03-26T04:44:24Z</time></trkpt><trkpt lat="45.945371619259525" lon="12.098243974743454"><ele>260.42857142857144</ele><time>2026-03-26T04:44:25Z</time></trkpt><trkpt lat="45.945341521511885" lon="12.098146790861554"><ele>261.1428571428571</ele><time>2026-03-26T04:44:26Z</time></trkpt><trkpt lat="45.945314644378655" lon="12.098059848739354"><ele>261.8571428571429</ele><time>2026-03-26T04:44:27Z</time></trkpt><trkpt lat="45.94528992085151" lon="12.09797061985902"><ele>262.57142857142856</ele><time>2026-03-26T04:44:28Z</time></trkpt><trkpt lat="45.94526358448582" lon="12.097876876456633"><ele>263.2857142857143</ele><time>2026-03-26T04:44:29Z</time></trkpt><trkpt lat="45.94523643098631" lon="12.097780943961062"><ele>264.0</ele><time>2026-03-26T04:44:30Z</time></trkpt><trkpt lat="45.945209411778734" lon="12.097688693479107"><ele>264.0</ele><time>2026-03-26T04:44:31Z</time></trkpt><trkpt lat="45.94518530229742" lon="12.097604920707653"><ele>264.0</ele><time>2026-03-26T04:44:32Z</time></trkpt><trkpt lat="45.94515687842974" lon="12.097520916105726"><ele>264.0</ele><time>2026-03-26T04:44:33Z</time></trkpt><trkpt lat="45.945126471766436" lon="12.097418541964778"><ele>264.0</ele><time>2026-03-26T04:44:34Z</time></trkpt><trkpt lat="45.94509221350916" lon="12.097308997107463"><ele>264.0</ele><time>2026-03-26T04:44:35Z</time></trkpt><trkpt lat="45.94505925408964" lon="12.097202975001855"><ele>264.0</ele><time>2026-03-26T04:44:36Z</time></trkpt><trkpt lat="45.94502618154131" lon="12.097098814144516"><ele>264.0</ele><time>2026-03-26T04:44:37Z</time></trkpt><trkpt lat="45.944995737442525" lon="12.097000516427206"><ele>264.3333333333333</ele><time>2026-03-26T04:44:38Z</time></trkpt><trkpt lat="45.9449577834925" lon="12.09687968427911"><ele>264.6666666666667</ele><time>2026-03-26T04:44:40Z</time></trkpt><trkpt lat="45.945013578502284" lon="12.096818835344836"><ele>265.0</ele><time>2026-03-26T04:44:43Z</time></trkpt><trkpt lat="45.94508534265866" lon="12.096786798668692"><ele>265.33333333333337</ele><time>2026-03-26T04:44:45Z</time></trkpt><trkpt lat="45.94518022842108" lon="12.096733052629622"><ele>265.6666666666667</ele><time>2026-03-26T04:44:47Z</time></trkpt><trkpt lat="45.94527744050202" lon="12.096677417826681"><ele>266.0</ele><time>2026-03-26T04:44:49Z</time></trkpt><trkpt lat="45.94535353727703" lon="12.096639372742857"><ele>266.25</ele><time>2026-03-26T04:44:51Z</time></trkpt><trkpt lat="45.94547735557989" lon="12.096558003154831"><ele>266.5</ele><time>2026-03-26T04:44:53Z</time></trkpt><trkpt lat="45.94558562354687" lon="12.09649402272102"><ele>266.75</ele><time>2026-03-26T04:44:55Z</time></trkpt><trkpt lat="45.94567969800262" lon="12.096446817906507"><ele>267.0</ele><time>2026-03-26T04:44:57Z</time></trkpt><trkpt lat="45.94577595356318" lon="12.096403164060067"><ele>268.1666666666667</ele><time>2026-03-26T04:45:15.999Z</time></trkpt><trkpt lat="45.94589196038326" lon="12.09633073612626"><ele>269.3333333333333</ele><time>2026-03-26T04:45:17.999Z</time></trkpt><trkpt lat="45.94595986188027" lon="12.096288671791008"><ele>270.5</ele><time>2026-03-26T04:45:18.999Z</time></trkpt><trkpt lat="45.9460222969133" lon="12.096253705438679"><ele>271.66666666666663</ele><time>2026-03-26T04:45:19.999Z</time></trkpt><trkpt lat="45.94612931860553" lon="12.096190315410732"><ele>272.8333333333333</ele><time>2026-03-26T04:45:21.999Z</time></trkpt><trkpt lat="45.94618982368645" lon="12.096153407032128"><ele>274.0</ele><time>2026-03-26T04:45:22.999Z</time></trkpt><trkpt lat="45.94628733392202" lon="12.096094087532151"><ele>274.0</ele><time>2026-03-26T04:45:24.999Z</time></trkpt><trkpt lat="45.946387337584746" lon="12.096028563031133"><ele>274.0</ele><time>2026-03-26T04:45:46.999Z</time></trkpt><trkpt lat="45.94650323666376" lon="12.09595607625431"><ele>274.0</ele><time>2026-03-26T04:45:48.999Z</time></trkpt><trkpt lat="45.946597893417014" lon="12.095902942666356"><ele>274.0</ele><time>2026-03-26T04:45:50.999Z</time></trkpt><trkpt lat="45.94670100781298" lon="12.095838095107322"><ele>275.2</ele><time>2026-03-26T04:45:52.999Z</time></trkpt><trkpt lat="45.946812726643614" lon="12.095767473349765"><ele>276.4</ele><time>2026-03-26T04:45:54.999Z</time></trkpt><trkpt lat="45.94689238356963" lon="12.09573027564061"><ele>277.6</ele><time>2026-03-26T04:45:56.999Z</time></trkpt><trkpt lat="45.94698731919055" lon="12.095661218162313"><ele>278.8</ele><time>2026-03-26T04:46:17Z</time></trkpt><trkpt lat="45.94708342887273" lon="12.095601184645858"><ele>280.0</ele><time>2026-03-26T04:46:19Z</time></trkpt><trkpt lat="45.94715874117342" lon="12.09555318334174"><ele>280.3333333333333</ele><time>2026-03-26T04:46:23Z</time></trkpt><trkpt lat="45.947071410591484" lon="12.09557097355394"><ele>280.66666666666663</ele><time>2026-03-26T04:46:37Z</time></trkpt><trkpt lat="45.94697887344143" lon="12.095606117597848"><ele>281.0</ele><time>2026-03-26T04:46:39Z</time></trkpt><trkpt lat="45.946881861682684" lon="12.095681882749327"><ele>281.3333333333333</ele><time>2026-03-26T04:46:41Z</time></trkpt><trkpt lat="45.94682266757522" lon="12.095714533731456"><ele>281.6666666666667</ele><time>2026-03-26T04:46:42Z</time></trkpt><trkpt lat="45.946758742624326" lon="12.095730268630946"><ele>282.0</ele><time>2026-03-26T04:46:43Z</time></trkpt><trkpt lat="45.946691400087765" lon="12.095771021317125"><ele>280.6666666666667</ele><time>2026-03-26T04:46:44Z</time></trkpt><trkpt lat="45.94661545540061" lon="12.095816979642782"><ele>279.3333333333333</ele><time>2026-03-26T04:46:45Z</time></trkpt><trkpt lat="45.946539718640814" lon="12.095862812133277"><ele>278.0</ele><time>2026-03-26T04:46:46Z</time></trkpt><trkpt lat="45.9464648006764" lon="12.09590814912552"><ele>276.66666666666663</ele><time>2026-03-26T04:46:47Z</time></trkpt><trkpt lat="45.94638874093148" lon="12.09595480740805"><ele>275.3333333333333</ele><time>2026-03-26T04:46:48Z</time></trkpt><trkpt lat="45.9463123056176" lon="12.096002074252812"><ele>274.0</ele><time>2026-03-26T04:46:49Z</time></trkpt><trkpt lat="45.946237731261164" lon="12.096048190296255"><ele>274.0</ele><time>2026-03-26T04:46:50Z</time></trkpt><trkpt lat="45.946166836003414" lon="12.096113558627575"><ele>274.0</ele><time>2026-03-26T04:46:51Z</time></trkpt><trkpt lat="45.946088540237504" lon="12.096159410246306"><ele>274.0</ele><time>2026-03-26T04:46:52Z</time></trkpt><trkpt lat="45.946010948765334" lon="12.096201508077465"><ele>274.0</ele><time>2026-03-26T04:46:53Z</time></trkpt><trkpt lat="45.94593290678381" lon="12.096253208214897"><ele>274.0</ele><time>2026-03-26T04:46:54Z</time></trkpt><trkpt lat="45.94585333824663" lon="12.096300124696405"><ele>274.0</ele><time>2026-03-26T04:46:55Z</time></trkpt><trkpt lat="45.94577479490723" lon="12.096348941388879"><ele>272.8333333333333</ele><time>2026-03-26T04:46:56Z</time></trkpt><trkpt lat="45.94569840046312" lon="12.096398825581725"><ele>271.66666666666663</ele><time>2026-03-26T04:46:57Z</time></trkpt><trkpt lat="45.94561329900815" lon="12.09642328520755"><ele>270.5</ele><time>2026-03-26T04:46:58Z</time></trkpt><trkpt lat="45.945534825848526" lon="12.096469300170948"><ele>269.3333333333333</ele><time>2026-03-26T04:46:59Z</time></trkpt><trkpt lat="45.94546177092343" lon="12.096537697431094"><ele>268.1666666666667</ele><time>2026-03-26T04:47:00Z</time></trkpt><trkpt lat="45.94538053933791" lon="12.096581932130437"><ele>267.0</ele><time>2026-03-26T04:47:01Z</time></trkpt><trkpt lat="45.94530466315323" lon="12.09662535098363"><ele>266.8333333333333</ele><time>2026-03-26T04:47:02Z</time></trkpt><trkpt lat="45.945233558596826" lon="12.09667195042062"><ele>266.6666666666667</ele><time>2026-03-26T04:47:03Z</time></trkpt><trkpt lat="45.945165236186355" lon="12.096714522621513"><ele>266.5</ele><time>2026-03-26T04:47:04Z</time></trkpt><trkpt lat="45.94510610790178" lon="12.096747154404444"><ele>266.33333333333337</ele><time>2026-03-26T04:47:05Z</time></trkpt><trkpt lat="45.94501202751824" lon="12.096800819999682"><ele>266.1666666666667</ele><time>2026-03-26T04:47:06.999Z</time></trkpt><trkpt lat="45.94493443192553" lon="12.09681563452316"><ele>266.0</ele><time>2026-03-26T04:47:12.999Z</time></trkpt><trkpt lat="45.944887636553666" lon="12.096740576253573"><ele>265.2</ele><time>2026-03-26T04:47:14.999Z</time></trkpt><trkpt lat="45.94485931655237" lon="12.096581561920262"><ele>264.40000000000003</ele><time>2026-03-26T04:47:16.999Z</time></trkpt><trkpt lat="45.944830401147506" lon="12.096416277862478"><ele>263.6</ele><time>2026-03-26T04:47:18.999Z</time></trkpt><trkpt lat="45.94477751737772" lon="12.096249563855652"><ele>262.8</ele><time>2026-03-26T04:47:20.999Z</time></trkpt><trkpt lat="45.94474987252704" lon="12.096151372883211"><ele>262.0</ele><time>2026-03-26T04:47:21.999Z</time></trkpt><trkpt lat="45.944717178417314" lon="12.096060936997654"><ele>262.0</ele><time>2026-03-26T04:47:23.999Z</time></trkpt><trkpt lat="45.94461627552761" lon="12.096094547841817"><ele>262.0</ele><time>2026-03-26T04:47:27.999Z</time></trkpt><trkpt lat="45.94454186170792" lon="12.096173272228109"><ele>262.0</ele><time>2026-03-26T04:47:57.999Z</time></trkpt><trkpt lat="45.94445767369225" lon="12.096268971313217"><ele>262.0</ele><time>2026-03-26T04:47:59.999Z</time></trkpt><trkpt lat="45.94437876928733" lon="12.096356527565458"><ele>262.0</ele><time>2026-03-26T04:48:01.999Z</time></trkpt><trkpt lat="45.9442943633486" lon="12.096451323093696"><ele>261.3333333333333</ele><time>2026-03-26T04:48:03.999Z</time></trkpt><trkpt lat="45.9442047059003" lon="12.096554126584117"><ele>260.66666666666663</ele><time>2026-03-26T04:48:05.999Z</time></trkpt><trkpt lat="45.944153188769754" lon="12.0966100793878"><ele>260.0</ele><time>2026-03-26T04:48:06.999Z</time></trkpt><trkpt lat="45.94409918940861" lon="12.09666664775509"><ele>259.3333333333333</ele><time>2026-03-26T04:48:07.999Z</time></trkpt><trkpt lat="45.94404082681952" lon="12.096726930248213"><ele>258.6666666666667</ele><time>2026-03-26T04:48:08.999Z</time></trkpt><trkpt lat="45.94397644785888" lon="12.096799226007603"><ele>258.0</ele><time>2026-03-26T04:48:09.999Z</time></trkpt><trkpt lat="45.94390637307278" lon="12.096877142958249"><ele>257.5</ele><time>2026-03-26T04:48:10.999Z</time></trkpt><trkpt lat="45.943836148923204" lon="12.096958007381692"><ele>257.0</ele><time>2026-03-26T04:48:11.999Z</time></trkpt><trkpt lat="45.94377276094349" lon="12.097032308155683"><ele>256.5</ele><time>2026-03-26T04:48:12.999Z</time></trkpt><trkpt lat="45.94371357721215" lon="12.097104981147533"><ele>256.0</ele><time>2026-03-26T04:48:13.999Z</time></trkpt><trkpt lat="45.94365201851909" lon="12.09717156359798"><ele>255.5</ele><time>2026-03-26T04:48:14.999Z</time></trkpt><trkpt lat="45.94359563310193" lon="12.09723279370116"><ele>255.0</ele><time>2026-03-26T04:48:15.999Z</time></trkpt><trkpt lat="45.94351920543464" lon="12.09731044817104"><ele>255.0</ele><time>2026-03-26T04:48:18Z</time></trkpt><trkpt lat="45.943463135397415" lon="12.097373393999812"><ele>255.0</ele><time>2026-03-26T04:48:23Z</time></trkpt><trkpt lat="45.94339834168789" lon="12.097445508197065"><ele>255.0</ele><time>2026-03-26T04:48:25Z</time></trkpt><trkpt lat="45.94332345074697" lon="12.097497778667911"><ele>255.0</ele><time>2026-03-26T04:48:27Z</time></trkpt><trkpt lat="45.94321410594124" lon="12.097477618982182"><ele>255.0</ele><time>2026-03-26T04:48:29Z</time></trkpt><trkpt lat="45.943132608013535" lon="12.097499239464879"><ele>255.0</ele><time>2026-03-26T04:48:32Z</time></trkpt><trkpt lat="45.94304226289008" lon="12.097564643835195"><ele>254.66666666666666</ele><time>2026-03-26T04:48:34Z</time></trkpt><trkpt lat="45.94297735037176" lon="12.097546180119998"><ele>254.33333333333331</ele><time>2026-03-26T04:48:35Z</time></trkpt><trkpt lat="45.94291235094945" lon="12.097565331494417"><ele>254.0</ele><time>2026-03-26T04:48:36Z</time></trkpt><trkpt lat="45.94284738878865" lon="12.09758447189171"><ele>253.66666666666666</ele><time>2026-03-26T04:48:37Z</time></trkpt><trkpt lat="45.94275936866125" lon="12.097613080575211"><ele>253.33333333333331</ele><time>2026-03-26T04:48:39Z</time></trkpt><trkpt lat="45.942667399523046" lon="12.097643485018041"><ele>253.0</ele><time>2026-03-26T04:48:42Z</time></trkpt><trkpt lat="45.94256320325595" lon="12.097677931690283"><ele>255.0</ele><time>2026-03-26T04:48:44Z</time></trkpt><trkpt lat="45.94243798914445" lon="12.097704061599321"><ele>257.0</ele><time>2026-03-26T04:48:46Z</time></trkpt><trkpt lat="45.94233114808864" lon="12.097699579448532"><ele>259.0</ele><time>2026-03-26T04:48:48Z</time></trkpt><trkpt lat="45.94224828725977" lon="12.097692023072334"><ele>261.0</ele><time>2026-03-26T04:48:51Z</time></trkpt><trkpt lat="45.942160410074784" lon="12.097686186882662"><ele>263.0</ele><time>2026-03-26T04:48:53Z</time></trkpt><trkpt lat="45.9420518124868" lon="12.097727153897932"><ele>263.0</ele><time>2026-03-26T04:48:55Z</time></trkpt><trkpt lat="45.94192861073237" lon="12.097767380512973"><ele>263.0</ele><time>2026-03-26T04:48:57Z</time></trkpt><trkpt lat="45.941867206849345" lon="12.09780347372376"><ele>263.0</ele><time>2026-03-26T04:48:58Z</time></trkpt><trkpt lat="45.94179401647635" lon="12.097843248209095"><ele>263.0</ele><time>2026-03-26T04:48:59Z</time></trkpt><trkpt lat="45.9417163280518" lon="12.097889684617414"><ele>263.0</ele><time>2026-03-26T04:49:00Z</time></trkpt><trkpt lat="45.94163568982983" lon="12.0979309832771"><ele>263.0</ele><time>2026-03-26T04:49:01Z</time></trkpt><trkpt lat="45.94156193152365" lon="12.097965892166396"><ele>265.1666666666667</ele><time>2026-03-26T04:49:02Z</time></trkpt><trkpt lat="45.94150035557317" lon="12.09799321372881"><ele>267.33333333333337</ele><time>2026-03-26T04:49:03Z</time></trkpt><trkpt lat="45.941402055866696" lon="12.098036792391714"><ele>269.5</ele><time>2026-03-26T04:49:05Z</time></trkpt><trkpt lat="45.94131324480253" lon="12.098078177929127"><ele>271.6666666666667</ele><time>2026-03-26T04:49:08Z</time></trkpt><trkpt lat="45.9413798256969" lon="12.098073079627992"><ele>273.8333333333333</ele><time>2026-03-26T04:49:35.999Z</time></trkpt><trkpt lat="45.941456909756525" lon="12.098032847447932"><ele>276.0</ele><time>2026-03-26T04:49:39.999Z</time></trkpt><trkpt lat="45.9415259689667" lon="12.097993561082172"><ele>276.0</ele><time>2026-03-26T04:49:42.999Z</time></trkpt><trkpt lat="45.941594818284216" lon="12.097958456824392"><ele>276.0</ele><time>2026-03-26T04:49:45.999Z</time></trkpt><trkpt lat="45.941660700043926" lon="12.097928183271188"><ele>276.0</ele><time>2026-03-26T04:49:48.999Z</time></trkpt><trkpt lat="45.94172272094773" lon="12.097900313847422"><ele>276.0</ele><time>2026-03-26T04:49:51.999Z</time></trkpt><trkpt lat="45.9417894988651" lon="12.097861576259954"><ele>276.0</ele><time>2026-03-26T04:49:54.999Z</time></trkpt><trkpt lat="45.9418581770665" lon="12.097827853638837"><ele>276.0</ele><time>2026-03-26T04:49:57.999Z</time></trkpt><trkpt lat="45.94192009086964" lon="12.097792231930608"><ele>276.0</ele><time>2026-03-26T04:50:00.999Z</time></trkpt><trkpt lat="45.941993333932544" lon="12.097764509202928"><ele>273.8333333333333</ele><time>2026-03-26T04:50:04.999Z</time></trkpt><trkpt lat="45.942057421725785" lon="12.09773959339961"><ele>271.6666666666667</ele><time>2026-03-26T04:50:11.999Z</time></trkpt><trkpt lat="45.94212394178624" lon="12.097749947677674"><ele>269.5</ele><time>2026-03-26T04:50:20.999Z</time></trkpt><trkpt lat="45.94220909410581" lon="12.097746445506358"><ele>267.33333333333337</ele><time>2026-03-26T04:50:23Z</time></trkpt><trkpt lat="45.942315008787" lon="12.097751057927074"><ele>265.1666666666667</ele><time>2026-03-26T04:50:25Z</time></trkpt><trkpt lat="45.94243467482478" lon="12.097757434497279"><ele>263.0</ele><time>2026-03-26T04:50:27Z</time></trkpt><trkpt lat="45.942498098279096" lon="12.097747856217612"><ele>261.57142857142856</ele><time>2026-03-26T04:50:28Z</time></trkpt><trkpt lat="45.94256222561687" lon="12.097733097613887"><ele>260.1428571428571</ele><time>2026-03-26T04:50:29Z</time></trkpt><trkpt lat="45.94262450415301" lon="12.097713340470898"><ele>258.7142857142857</ele><time>2026-03-26T04:50:30Z</time></trkpt><trkpt lat="45.94268766094441" lon="12.097688949112374"><ele>257.2857142857143</ele><time>2026-03-26T04:50:31Z</time></trkpt><trkpt lat="45.942754763170946" lon="12.097666111392138"><ele>255.85714285714286</ele><time>2026-03-26T04:50:32Z</time></trkpt><trkpt lat="45.94281978402545" lon="12.097640338282964"><ele>254.42857142857144</ele><time>2026-03-26T04:50:33Z</time></trkpt><trkpt lat="45.942888963701776" lon="12.097616395938266"><ele>253.00000000000003</ele><time>2026-03-26T04:50:34Z</time></trkpt><trkpt lat="45.942957111480276" lon="12.097594336975662"><ele>253.00000000000003</ele><time>2026-03-26T04:50:35Z</time></trkpt><trkpt lat="45.94302642092537" lon="12.097573839241143"><ele>253.0</ele><time>2026-03-26T04:50:36Z</time></trkpt><trkpt lat="45.94309681451605" lon="12.097553536146526"><ele>253.00000000000003</ele><time>2026-03-26T04:50:37Z</time></trkpt><trkpt lat="45.94316265761863" lon="12.097532510120372"><ele>253.00000000000003</ele><time>2026-03-26T04:50:38Z</time></trkpt><trkpt lat="45.943226913564466" lon="12.097517817869798"><ele>253.0</ele><time>2026-03-26T04:50:39Z</time></trkpt><trkpt lat="45.94328941297788" lon="12.097501180560595"><ele>253.00000000000003</ele><time>2026-03-26T04:50:40Z</time></trkpt><trkpt lat="45.943392107530876" lon="12.09748227549204"><ele>253.00000000000003</ele><time>2026-03-26T04:50:42Z</time></trkpt><trkpt lat="45.9434543502909" lon="12.09746624940354"><ele>253.2</ele><time>2026-03-26T04:50:44Z</time></trkpt><trkpt lat="45.94356182657769" lon="12.097605837149565"><ele>253.4</ele><time>2026-03-26T04:50:49Z</time></trkpt><trkpt lat="45.94358901704204" lon="12.09769701652538"><ele>253.59999999999997</ele><time>2026-03-26T04:50:50Z</time></trkpt><trkpt lat="45.94363665225608" lon="12.097872161876131"><ele>253.79999999999998</ele><time>2026-03-26T04:50:52Z</time></trkpt><trkpt lat="45.94367591323451" lon="12.097976560857472"><ele>254.0</ele><time>2026-03-26T04:50:53Z</time></trkpt><trkpt lat="45.94373335062857" lon="12.098116099333629"><ele>254.0</ele><time>2026-03-26T04:50:54Z</time></trkpt><trkpt lat="45.943787775489106" lon="12.09824612017983"><ele>253.99999999999997</ele><time>2026-03-26T04:50:55Z</time></trkpt><trkpt lat="45.943840645633244" lon="12.098378354110524"><ele>253.99999999999997</ele><time>2026-03-26T04:50:56Z</time></trkpt><trkpt lat="45.943893316901466" lon="12.09851406458128"><ele>254.0</ele><time>2026-03-26T04:50:57Z</time></trkpt><trkpt lat="45.94395082624971" lon="12.098657544008903"><ele>254.0</ele><time>2026-03-26T04:50:58Z</time></trkpt><trkpt lat="45.9440161240646" lon="12.098824494371689"><ele>254.0</ele><time>2026-03-26T04:50:59Z</time></trkpt><trkpt lat="45.94408038973604" lon="12.09899163771367"><ele>254.0</ele><time>2026-03-26T04:51:00Z</time></trkpt><trkpt lat="45.944143620353685" lon="12.099154094535104"><ele>254.0</ele><time>2026-03-26T04:51:01Z</time></trkpt><trkpt lat="45.944210809404595" lon="12.09932304251841"><ele>254.0</ele><time>2026-03-26T04:51:02Z</time></trkpt><trkpt lat="45.944281305543186" lon="12.099496608004483"><ele>253.5</ele><time>2026-03-26T04:51:03Z</time></trkpt><trkpt lat="45.94435929323594" lon="12.099673280015686"><ele>253.0</ele><time>2026-03-26T04:51:04Z</time></trkpt><trkpt lat="45.944438706303266" lon="12.099841498473522"><ele>252.5</ele><time>2026-03-26T04:51:05Z</time></trkpt><trkpt lat="45.94452286335454" lon="12.100005242542254"><ele>252.0</ele><time>2026-03-26T04:51:06Z</time></trkpt><trkpt lat="45.94461500823267" lon="12.100165542893814"><ele>251.25</ele><time>2026-03-26T04:51:07Z</time></trkpt><trkpt lat="45.94471045447565" lon="12.10032111189204"><ele>250.5</ele><time>2026-03-26T04:51:08Z</time></trkpt><trkpt lat="45.94479399568478" lon="12.100478958900634"><ele>249.75</ele><time>2026-03-26T04:51:09Z</time></trkpt><trkpt lat="45.9448853621637" lon="12.100630126290167"><ele>249.0</ele><time>2026-03-26T04:51:09.999Z</time></trkpt><trkpt lat="45.9449630847136" lon="12.100789106027573"><ele>249.25</ele><time>2026-03-26T04:51:10.999Z</time></trkpt><trkpt lat="45.94505487853091" lon="12.100902384351047"><ele>249.5</ele><time>2026-03-26T04:51:11.999Z</time></trkpt><trkpt lat="45.9451325010274" lon="12.101033887958224"><ele>249.75</ele><time>2026-03-26T04:51:12.999Z</time></trkpt><trkpt lat="45.94521070098673" lon="12.101166675492266"><ele>250.0</ele><time>2026-03-26T04:51:13.999Z</time></trkpt><trkpt lat="45.94528898843309" lon="12.101301360578136"><ele>250.0</ele><time>2026-03-26T04:51:14.999Z</time></trkpt><trkpt lat="45.945371558802364" lon="12.101435056791683"><ele>250.0</ele><time>2026-03-26T04:51:15.999Z</time></trkpt><trkpt lat="45.94544765801041" lon="12.101558291237719"><ele>250.0</ele><time>2026-03-26T04:51:16.999Z</time></trkpt><trkpt lat="45.945523011331915" lon="12.101673840187006"><ele>250.0</ele><time>2026-03-26T04:51:17.999Z</time></trkpt><trkpt lat="45.94559465629518" lon="12.101780842450648"><ele>249.2</ele><time>2026-03-26T04:51:18.999Z</time></trkpt><trkpt lat="45.94566386588145" lon="12.10188420961997"><ele>248.4</ele><time>2026-03-26T04:51:19.999Z</time></trkpt><trkpt lat="45.94573136669181" lon="12.101989063711114"><ele>247.60000000000002</ele><time>2026-03-26T04:51:20.999Z</time></trkpt><trkpt lat="45.94579840985629" lon="12.102093039733386"><ele>246.8</ele><time>2026-03-26T04:51:21.999Z</time></trkpt><trkpt lat="45.945864583799505" lon="12.10219482695725"><ele>246.0</ele><time>2026-03-26T04:51:22.999Z</time></trkpt><trkpt lat="45.94592934403391" lon="12.102294470728342"><ele>246.0</ele><time>2026-03-26T04:51:23.999Z</time></trkpt><trkpt lat="45.94598803952324" lon="12.102376315758438"><ele>246.00000000000003</ele><time>2026-03-26T04:51:24.999Z</time></trkpt><trkpt lat="45.94602947104463" lon="12.10245690046394"><ele>246.00000000000003</ele><time>2026-03-26T04:51:26.999Z</time></trkpt><trkpt lat="45.946100938869535" lon="12.102553814921485"><ele>246.0</ele><time>2026-03-26T04:51:48.999Z</time></trkpt><trkpt lat="45.94617431723689" lon="12.102684584446926"><ele>246.0</ele><time>2026-03-26T04:51:50.999Z</time></trkpt><trkpt lat="45.946255200329446" lon="12.102823757565648"><ele>245.5</ele><time>2026-03-26T04:51:52.999Z</time></trkpt><trkpt lat="45.94630460182611" lon="12.102902609182461"><ele>245.0</ele><time>2026-03-26T04:51:53.999Z</time></trkpt><trkpt lat="45.946354133875026" lon="12.10297439145901"><ele>244.5</ele><time>2026-03-26T04:51:54.999Z</time></trkpt><trkpt lat="45.9463995821385" lon="12.103057615762431"><ele>244.0</ele><time>2026-03-26T04:51:56.999Z</time></trkpt><trkpt lat="45.946354770136445" lon="12.102939817123616"><ele>243.5</ele><time>2026-03-26T04:52:43Z</time></trkpt><trkpt lat="45.94628364694211" lon="12.102788176512448"><ele>243.0</ele><time>2026-03-26T04:52:45Z</time></trkpt><trkpt lat="45.94620011105624" lon="12.102660033161111"><ele>243.0</ele><time>2026-03-26T04:52:47Z</time></trkpt><trkpt lat="45.946154567527934" lon="12.102585526583342"><ele>243.0</ele><time>2026-03-26T04:52:48Z</time></trkpt><trkpt lat="45.946102668491804" lon="12.102501909524136"><ele>243.0</ele><time>2026-03-26T04:52:49Z</time></trkpt><trkpt lat="45.946049198762005" lon="12.102407348379883"><ele>243.0</ele><time>2026-03-26T04:52:50Z</time></trkpt><trkpt lat="45.94598866509714" lon="12.102306530535344"><ele>243.0</ele><time>2026-03-26T04:52:51Z</time></trkpt><trkpt lat="45.945921713621054" lon="12.102198194869494"><ele>243.0</ele><time>2026-03-26T04:52:52Z</time></trkpt><trkpt lat="45.945849494237955" lon="12.102082853538214"><ele>243.75</ele><time>2026-03-26T04:52:53Z</time></trkpt><trkpt lat="45.945771781219754" lon="12.101959789862777"><ele>244.5</ele><time>2026-03-26T04:52:54Z</time></trkpt><trkpt lat="45.94569061833556" lon="12.101830067109393"><ele>245.25</ele><time>2026-03-26T04:52:55Z</time></trkpt><trkpt lat="45.945610205427855" lon="12.1016996491995"><ele>246.0</ele><time>2026-03-26T04:52:56Z</time></trkpt><trkpt lat="45.9455372067207" lon="12.101574596394327"><ele>246.0</ele><time>2026-03-26T04:52:57Z</time></trkpt><trkpt lat="45.94546509255243" lon="12.10145321244246"><ele>246.0</ele><time>2026-03-26T04:52:58Z</time></trkpt><trkpt lat="45.945408292067995" lon="12.101363574425946"><ele>246.0</ele><time>2026-03-26T04:52:59Z</time></trkpt><trkpt lat="45.94546528593971" lon="12.101443861057826"><ele>246.0</ele><time>2026-03-26T04:53:08Z</time></trkpt><trkpt lat="45.9455104887311" lon="12.101513528313282"><ele>246.0</ele><time>2026-03-26T04:53:09.999Z</time></trkpt><trkpt lat="45.9455710506444" lon="12.101606151886696"><ele>246.0</ele><time>2026-03-26T04:53:11.999Z</time></trkpt><trkpt lat="45.94562885456338" lon="12.10171232765577"><ele>246.0</ele><time>2026-03-26T04:53:17.999Z</time></trkpt><trkpt lat="45.945678038609316" lon="12.101800399229564"><ele>246.0</ele><time>2026-03-26T04:53:19.999Z</time></trkpt><trkpt lat="45.945726085974314" lon="12.101871902036867"><ele>246.0</ele><time>2026-03-26T04:53:21.999Z</time></trkpt><trkpt lat="45.945773575307754" lon="12.101944476916303"><ele>246.0</ele><time>2026-03-26T04:53:23.999Z</time></trkpt><trkpt lat="45.94581945620632" lon="12.102017785379894"><ele>246.0</ele><time>2026-03-26T04:53:25.999Z</time></trkpt><trkpt lat="45.945875961890366" lon="12.102071716051285"><ele>246.0</ele><time>2026-03-26T04:53:34.999Z</time></trkpt><trkpt lat="45.94579375847145" lon="12.101977629930115"><ele>246.00000000000003</ele><time>2026-03-26T04:53:54.999Z</time></trkpt><trkpt lat="45.94574967561661" lon="12.101901308597403"><ele>246.0</ele><time>2026-03-26T04:53:55.999Z</time></trkpt><trkpt lat="45.94570022545157" lon="12.101814674250914"><ele>246.00000000000003</ele><time>2026-03-26T04:53:56.999Z</time></trkpt><trkpt lat="45.94565516084186" lon="12.101741275696202"><ele>246.00000000000003</ele><time>2026-03-26T04:53:57.999Z</time></trkpt><trkpt lat="45.9456094490272" lon="12.101666877730436"><ele>246.0</ele><time>2026-03-26T04:53:58.999Z</time></trkpt><trkpt lat="45.945565860540626" lon="12.101598119079611"><ele>246.00000000000003</ele><time>2026-03-26T04:53:59.999Z</time></trkpt><trkpt lat="45.94551134824751" lon="12.10150458527044"><ele>246.00000000000003</ele><time>2026-03-26T04:54:01.999Z</time></trkpt><trkpt lat="45.94545466530039" lon="12.101428481737884"><ele>246.5714285714286</ele><time>2026-03-26T04:54:41Z</time></trkpt><trkpt lat="45.94540583947019" lon="12.101351545073678"><ele>247.14285714285717</ele><time>2026-03-26T04:54:42Z</time></trkpt><trkpt lat="45.94535695366947" lon="12.101272783702486"><ele>247.71428571428572</ele><time>2026-03-26T04:54:43Z</time></trkpt><trkpt lat="45.9453144869551" lon="12.101202635253042"><ele>248.2857142857143</ele><time>2026-03-26T04:54:44Z</time></trkpt><trkpt lat="45.945270272535154" lon="12.101125287458581"><ele>248.8571428571429</ele><time>2026-03-26T04:54:45Z</time></trkpt><trkpt lat="45.9452212311705" lon="12.101044914840429"><ele>249.42857142857142</ele><time>2026-03-26T04:54:46Z</time></trkpt><trkpt lat="45.945175193388316" lon="12.100971018505527"><ele>250.0</ele><time>2026-03-26T04:54:47Z</time></trkpt><trkpt lat="45.945122125377445" lon="12.100893925858209"><ele>250.0</ele><time>2026-03-26T04:54:48Z</time></trkpt><trkpt lat="45.94507295080269" lon="12.100812972094596"><ele>250.0</ele><time>2026-03-26T04:54:49Z</time></trkpt><trkpt lat="45.94501863022885" lon="12.10072412415698"><ele>250.0</ele><time>2026-03-26T04:54:50Z</time></trkpt><trkpt lat="45.94495630511377" lon="12.100625261944353"><ele>250.0</ele><time>2026-03-26T04:54:51Z</time></trkpt><trkpt lat="45.94488281239643" lon="12.100517955374187"><ele>250.0</ele><time>2026-03-26T04:54:52Z</time></trkpt><trkpt lat="45.94480969523726" lon="12.100406564502107"><ele>249.8</ele><time>2026-03-26T04:54:53Z</time></trkpt><trkpt lat="45.94474690677216" lon="12.10029189299442"><ele>249.6</ele><time>2026-03-26T04:54:54Z</time></trkpt><trkpt lat="45.94468021785425" lon="12.100178337683586"><ele>249.39999999999998</ele><time>2026-03-26T04:54:55Z</time></trkpt><trkpt lat="45.94460952990368" lon="12.10005994637399"><ele>249.2</ele><time>2026-03-26T04:54:56Z</time></trkpt><trkpt lat="45.94453642995106" lon="12.099933880332022"><ele>249.0</ele><time>2026-03-26T04:54:57Z</time></trkpt><trkpt lat="45.944466424180014" lon="12.099805376139763"><ele>249.75</ele><time>2026-03-26T04:54:58Z</time></trkpt><trkpt lat="45.944403461495256" lon="12.099666026631743"><ele>250.5</ele><time>2026-03-26T04:54:59Z</time></trkpt><trkpt lat="45.9443429401517" lon="12.099519337136224"><ele>251.25</ele><time>2026-03-26T04:55:00Z</time></trkpt><trkpt lat="45.94428144065802" lon="12.099368714810538"><ele>252.0</ele><time>2026-03-26T04:55:01Z</time></trkpt><trkpt lat="45.944220529236794" lon="12.099217266871333"><ele>252.5</ele><time>2026-03-26T04:55:02Z</time></trkpt><trkpt lat="45.94415927198438" lon="12.099061735899665"><ele>253.0</ele><time>2026-03-26T04:55:03Z</time></trkpt><trkpt lat="45.944091224888304" lon="12.098904339101953"><ele>253.5</ele><time>2026-03-26T04:55:04Z</time></trkpt><trkpt lat="45.94402707496543" lon="12.098749851682552"><ele>254.0</ele><time>2026-03-26T04:55:05Z</time></trkpt><trkpt lat="45.943961422570055" lon="12.09858921377432"><ele>254.0</ele><time>2026-03-26T04:55:06Z</time></trkpt><trkpt lat="45.943895298410546" lon="12.09842760542502"><ele>254.0</ele><time>2026-03-26T04:55:07Z</time></trkpt><trkpt lat="45.943831533413764" lon="12.098260528932048"><ele>254.0</ele><time>2026-03-26T04:55:08Z</time></trkpt><trkpt lat="45.94376488174566" lon="12.098093332887121"><ele>254.0</ele><time>2026-03-26T04:55:09Z</time></trkpt><trkpt lat="45.9436951994715" lon="12.09792503749034"><ele>254.0</ele><time>2026-03-26T04:55:10Z</time></trkpt><trkpt lat="45.9436259797217" lon="12.09775124959271"><ele>254.0</ele><time>2026-03-26T04:55:11Z</time></trkpt><trkpt lat="45.94355821758553" lon="12.09757920417853"><ele>254.0</ele><time>2026-03-26T04:55:12Z</time></trkpt><trkpt lat="45.9434933913666" lon="12.097415949910431"><ele>254.0</ele><time>2026-03-26T04:55:12.999Z</time></trkpt><trkpt lat="45.943430107280754" lon="12.097261008990673"><ele>253.5</ele><time>2026-03-26T04:55:13.999Z</time></trkpt><trkpt lat="45.94336822346105" lon="12.097115372638205"><ele>253.0</ele><time>2026-03-26T04:55:14.999Z</time></trkpt><trkpt lat="45.94330636601877" lon="12.096969808896974"><ele>252.5</ele><time>2026-03-26T04:55:15.999Z</time></trkpt><trkpt lat="45.943245528336504" lon="12.096823961819265"><ele>252.0</ele><time>2026-03-26T04:55:16.999Z</time></trkpt><trkpt lat="45.943182530163455" lon="12.09667331825277"><ele>252.0</ele><time>2026-03-26T04:55:17.999Z</time></trkpt><trkpt lat="45.943122540508995" lon="12.09653325556109"><ele>252.0</ele><time>2026-03-26T04:55:18.999Z</time></trkpt><trkpt lat="45.94307488948189" lon="12.096416765550897"><ele>252.0</ele><time>2026-03-26T04:55:19.999Z</time></trkpt><trkpt lat="45.94303544561769" lon="12.096339671327021"><ele>252.0</ele><time>2026-03-26T04:55:20.999Z</time></trkpt><trkpt lat="45.94300065255059" lon="12.096227211828431"><ele>252.0</ele><time>2026-03-26T04:55:22.999Z</time></trkpt><trkpt lat="45.9431228578911" lon="12.09610052119696"><ele>252.0</ele><time>2026-03-26T04:55:25.999Z</time></trkpt><trkpt lat="45.94322844805071" lon="12.096033947504422"><ele>252.0</ele><time>2026-03-26T04:55:27.999Z</time></trkpt><trkpt lat="45.94332083843338" lon="12.095990142538605"><ele>252.0</ele><time>2026-03-26T04:55:29.999Z</time></trkpt><trkpt lat="45.94339392181454" lon="12.095934853081179"><ele>252.0</ele><time>2026-03-26T04:55:47.999Z</time></trkpt><trkpt lat="45.94345748592257" lon="12.09590892636103"><ele>252.0</ele><time>2026-03-26T04:55:48.999Z</time></trkpt><trkpt lat="45.94352648650945" lon="12.095870410217428"><ele>252.0</ele><time>2026-03-26T04:55:49.999Z</time></trkpt><trkpt lat="45.94359747006835" lon="12.095827274470116"><ele>252.71428571428572</ele><time>2026-03-26T04:55:50.999Z</time></trkpt><trkpt lat="45.94365884429464" lon="12.095788355225476"><ele>253.42857142857144</ele><time>2026-03-26T04:55:51.999Z</time></trkpt><trkpt lat="45.943718238089055" lon="12.095754196418417"><ele>254.14285714285714</ele><time>2026-03-26T04:55:52.999Z</time></trkpt><trkpt lat="45.94377804848307" lon="12.09572039482506"><ele>254.85714285714286</ele><time>2026-03-26T04:55:54.999Z</time></trkpt><trkpt lat="45.943849101896745" lon="12.095676534485563"><ele>255.57142857142858</ele><time>2026-03-26T04:56:13.999Z</time></trkpt><trkpt lat="45.94393260891391" lon="12.09562899596728"><ele>256.2857142857143</ele><time>2026-03-26T04:56:15.999Z</time></trkpt><trkpt lat="45.94394685544899" lon="12.095537415586463"><ele>257.0</ele><time>2026-03-26T04:56:18.999Z</time></trkpt><trkpt lat="45.943854664236966" lon="12.095598723831282"><ele>257.0</ele><time>2026-03-26T04:56:34.999Z</time></trkpt><trkpt lat="45.94376571393904" lon="12.095659249427747"><ele>257.0</ele><time>2026-03-26T04:56:36.999Z</time></trkpt><trkpt lat="45.94365256411162" lon="12.095725623215388"><ele>257.0</ele><time>2026-03-26T04:56:38.999Z</time></trkpt><trkpt lat="45.943594733989606" lon="12.095762554550031"><ele>257.0</ele><time>2026-03-26T04:56:40Z</time></trkpt><trkpt lat="45.94352327236164" lon="12.095808764343095"><ele>257.0</ele><time>2026-03-26T04:56:41Z</time></trkpt><trkpt lat="45.943447141051976" lon="12.09586166717549"><ele>257.0</ele><time>2026-03-26T04:56:42Z</time></trkpt><trkpt lat="45.94336450597087" lon="12.095913796459943"><ele>256.1666666666667</ele><time>2026-03-26T04:56:43Z</time></trkpt><trkpt lat="45.943283396837366" lon="12.095971133066945"><ele>255.33333333333334</ele><time>2026-03-26T04:56:44Z</time></trkpt><trkpt lat="45.94320754574535" lon="12.096019374332887"><ele>254.5</ele><time>2026-03-26T04:56:45Z</time></trkpt><trkpt lat="45.94313767001196" lon="12.0960591033623"><ele>253.66666666666669</ele><time>2026-03-26T04:56:46Z</time></trkpt><trkpt lat="45.94307787458219" lon="12.096097434172817"><ele>252.83333333333334</ele><time>2026-03-26T04:56:47Z</time></trkpt><trkpt lat="45.943004417876224" lon="12.096149377870985"><ele>252.0</ele><time>2026-03-26T04:56:49Z</time></trkpt><trkpt lat="45.94290824389639" lon="12.09606026733979"><ele>252.0</ele><time>2026-03-26T04:56:54Z</time></trkpt><trkpt lat="45.94287702427601" lon="12.095960233803567"><ele>252.0</ele><time>2026-03-26T04:56:55Z</time></trkpt><trkpt lat="45.942845886510455" lon="12.095880595482148"><ele>252.0</ele><time>2026-03-26T04:56:56Z</time></trkpt><trkpt lat="45.942809378762" lon="12.095786846258218"><ele>252.0</ele><time>2026-03-26T04:56:57Z</time></trkpt><trkpt lat="45.94275786202568" lon="12.095691132154995"><ele>252.0</ele><time>2026-03-26T04:56:58Z</time></trkpt><trkpt lat="45.94269857715696" lon="12.095582208401005"><ele>252.0</ele><time>2026-03-26T04:56:59Z</time></trkpt><trkpt lat="45.9426386684978" lon="12.095486554721322"><ele>252.0</ele><time>2026-03-26T04:57:00Z</time></trkpt><trkpt lat="45.94258864008829" lon="12.095407552182744"><ele>252.0</ele><time>2026-03-26T04:57:01Z</time></trkpt><trkpt lat="45.94255053729447" lon="12.095304772099226"><ele>252.0</ele><time>2026-03-26T04:57:03Z</time></trkpt><trkpt lat="45.942620246756114" lon="12.095208840696962"><ele>252.0</ele><time>2026-03-26T04:57:05Z</time></trkpt><trkpt lat="45.94271219009148" lon="12.09514091243179"><ele>252.0</ele><time>2026-03-26T04:57:07Z</time></trkpt><trkpt lat="45.94276718034671" lon="12.095089115599233"><ele>252.0</ele><time>2026-03-26T04:57:08Z</time></trkpt><trkpt lat="45.942866664154835" lon="12.0949895439024"><ele>252.0</ele><time>2026-03-26T04:57:10Z</time></trkpt><trkpt lat="45.94292661397348" lon="12.09493128789452"><ele>252.0</ele><time>2026-03-26T04:57:11Z</time></trkpt><trkpt lat="45.942990286163344" lon="12.09487230273843"><ele>252.0</ele><time>2026-03-26T04:57:12Z</time></trkpt><trkpt lat="45.94304701780018" lon="12.094817985341017"><ele>252.0</ele><time>2026-03-26T04:57:13Z</time></trkpt><trkpt lat="45.94313133798353" lon="12.094735613832492"><ele>252.0</ele><time>2026-03-26T04:57:14.999Z</time></trkpt><trkpt lat="45.94319569440935" lon="12.094760744632403"><ele>252.0</ele><time>2026-03-26T04:57:16.999Z</time></trkpt><trkpt lat="45.943229560787465" lon="12.094849652177679"><ele>252.16666666666666</ele><time>2026-03-26T04:57:18.999Z</time></trkpt><trkpt lat="45.94328473029427" lon="12.094919835464877"><ele>252.33333333333331</ele><time>2026-03-26T04:57:20.999Z</time></trkpt><trkpt lat="45.943345979007624" lon="12.094862824530784"><ele>252.5</ele><time>2026-03-26T04:57:22.999Z</time></trkpt><trkpt lat="45.943417140867275" lon="12.094804590003182"><ele>252.66666666666666</ele><time>2026-03-26T04:57:23.999Z</time></trkpt><trkpt lat="45.94349917752747" lon="12.09470849295855"><ele>252.83333333333331</ele><time>2026-03-26T04:57:25.999Z</time></trkpt><trkpt lat="45.943576791511404" lon="12.094629908068253"><ele>253.0</ele><time>2026-03-26T04:57:27.999Z</time></trkpt><trkpt lat="45.94365603359995" lon="12.09457623190092"><ele>253.83333333333331</ele><time>2026-03-26T04:57:29.999Z</time></trkpt><trkpt lat="45.94374023896558" lon="12.094579845840352"><ele>254.66666666666666</ele><time>2026-03-26T04:57:31.999Z</time></trkpt><trkpt lat="45.943810170357345" lon="12.094570672523117"><ele>255.5</ele><time>2026-03-26T04:57:33.999Z</time></trkpt><trkpt lat="45.94387230960898" lon="12.09453044906053"><ele>256.3333333333333</ele><time>2026-03-26T04:57:35.999Z</time></trkpt><trkpt lat="45.94387464417757" lon="12.09441752307791"><ele>257.1666666666667</ele><time>2026-03-26T04:57:38.999Z</time></trkpt><trkpt lat="45.94383750434746" lon="12.094236807474"><ele>258.0</ele><time>2026-03-26T04:57:40.999Z</time></trkpt><trkpt lat="45.943822523056475" lon="12.09413686208688"><ele>257.8333333333333</ele><time>2026-03-26T04:57:41.999Z</time></trkpt><trkpt lat="45.94381171263682" lon="12.094045285037607"><ele>257.6666666666667</ele><time>2026-03-26T04:57:42.999Z</time></trkpt><trkpt lat="45.94377912565934" lon="12.093880454897052"><ele>257.5</ele><time>2026-03-26T04:57:44.999Z</time></trkpt><trkpt lat="45.943765137938676" lon="12.093765520441906"><ele>257.33333333333337</ele><time>2026-03-26T04:57:46.999Z</time></trkpt><trkpt lat="45.943743987368784" lon="12.09366979200236"><ele>257.1666666666667</ele><time>2026-03-26T04:57:48.999Z</time></trkpt><trkpt lat="45.943728007343445" lon="12.09357471741913"><ele>257.0</ele><time>2026-03-26T04:57:50.999Z</time></trkpt><trkpt lat="45.943781930151104" lon="12.093508185140008"><ele>257.0</ele><time>2026-03-26T04:57:53.999Z</time></trkpt><trkpt lat="45.94383918467707" lon="12.093469756573334"><ele>257.0</ele><time>2026-03-26T04:57:56.999Z</time></trkpt><trkpt lat="45.943781424765824" lon="12.09352853042398"><ele>257.0</ele><time>2026-03-26T04:58:22.999Z</time></trkpt><trkpt lat="45.9437177968774" lon="12.093574740783113"><ele>257.0</ele><time>2026-03-26T04:58:26.999Z</time></trkpt><trkpt lat="45.94365654248179" lon="12.093621315003292"><ele>257.0</ele><time>2026-03-26T04:58:30.999Z</time></trkpt><trkpt lat="45.94374962935647" lon="12.0935283900431"><ele>257.0</ele><time>2026-03-26T04:59:01Z</time></trkpt><trkpt lat="45.9438527420492" lon="12.093452429235938"><ele>257.0</ele><time>2026-03-26T04:59:03Z</time></trkpt><trkpt lat="45.94395299720089" lon="12.093379924277189"><ele>257.0</ele><time>2026-03-26T04:59:05Z</time></trkpt><trkpt lat="45.9438970056885" lon="12.093179023056138"><ele>257.0</ele><time>2026-03-26T04:59:18.999Z</time></trkpt><trkpt lat="45.94385052625582" lon="12.093101992176528"><ele>257.0</ele><time>2026-03-26T04:59:19.999Z</time></trkpt><trkpt lat="45.94381007676727" lon="12.093031954009536"><ele>257.0</ele><time>2026-03-26T04:59:20.999Z</time></trkpt><trkpt lat="45.943765151680175" lon="12.09296754033285"><ele>257.33333333333337</ele><time>2026-03-26T04:59:21.999Z</time></trkpt><trkpt lat="45.94371608928921" lon="12.092885656381549"><ele>257.6666666666667</ele><time>2026-03-26T04:59:22.999Z</time></trkpt><trkpt lat="45.9436706372298" lon="12.092820449796655"><ele>258.0</ele><time>2026-03-26T04:59:23.999Z</time></trkpt><trkpt lat="45.943628413926525" lon="12.092703403880591"><ele>258.3333333333333</ele><time>2026-03-26T04:59:25.999Z</time></trkpt><trkpt lat="45.943601472851434" lon="12.092620385129154"><ele>258.66666666666663</ele><time>2026-03-26T04:59:52.999Z</time></trkpt><trkpt lat="45.94370480099372" lon="12.09252463238607"><ele>259.0</ele><time>2026-03-26T04:59:55.999Z</time></trkpt><trkpt lat="45.94379094759276" lon="12.092453705076942"><ele>259.0</ele><time>2026-03-26T04:59:57.999Z</time></trkpt><trkpt lat="45.94384485282532" lon="12.092398982711906"><ele>259.0</ele><time>2026-03-26T04:59:59.999Z</time></trkpt><trkpt lat="45.94391229748627" lon="12.092386423959896"><ele>259.0</ele><time>2026-03-26T05:00:45.999Z</time></trkpt><trkpt lat="45.943982353838464" lon="12.092418995734457"><ele>259.0</ele><time>2026-03-26T05:00:47.998Z</time></trkpt><trkpt lat="45.94403443271038" lon="12.092502219793055"><ele>259.0</ele><time>2026-03-26T05:01:07Z</time></trkpt><trkpt lat="45.94407046494757" lon="12.092601056748839"><ele>259.0</ele><time>2026-03-26T05:01:08Z</time></trkpt><trkpt lat="45.944133987393" lon="12.092736280988444"><ele>259.0</ele><time>2026-03-26T05:01:11Z</time></trkpt><trkpt lat="45.944192835237985" lon="12.092953759930039"><ele>259.0</ele><time>2026-03-26T05:01:27.999Z</time></trkpt><trkpt lat="45.944189513423495" lon="12.09309305570643"><ele>259.0</ele><time>2026-03-26T05:01:29.999Z</time></trkpt><trkpt lat="45.94422469275404" lon="12.093168323814437"><ele>259.0</ele><time>2026-03-26T05:01:49.999Z</time></trkpt><trkpt lat="45.94427700574916" lon="12.093245904379105"><ele>259.0</ele><time>2026-03-26T05:01:52.999Z</time></trkpt><trkpt lat="45.944315766588936" lon="12.093359258984377"><ele>259.8333333333333</ele><time>2026-03-26T05:01:54.999Z</time></trkpt><trkpt lat="45.94432727494839" lon="12.093488174710922"><ele>260.66666666666663</ele><time>2026-03-26T05:01:56.999Z</time></trkpt><trkpt lat="45.94431100730108" lon="12.093575639872896"><ele>261.5</ele><time>2026-03-26T05:01:58.999Z</time></trkpt><trkpt lat="45.944285263755816" lon="12.093701374478488"><ele>262.3333333333333</ele><time>2026-03-26T05:02:02.999Z</time></trkpt><trkpt lat="45.94432787658119" lon="12.093787018895396"><ele>263.1666666666667</ele><time>2026-03-26T05:02:05.999Z</time></trkpt><trkpt lat="45.94437423749481" lon="12.093878477460613"><ele>264.0</ele><time>2026-03-26T05:02:23.999Z</time></trkpt><trkpt lat="45.944393909728234" lon="12.094064489832263"><ele>263.8</ele><time>2026-03-26T05:02:25.999Z</time></trkpt><trkpt lat="45.94435431459269" lon="12.094148196979313"><ele>263.59999999999997</ele><time>2026-03-26T05:02:26.999Z</time></trkpt><trkpt lat="45.94434739727474" lon="12.094329033387464"><ele>263.4</ele><time>2026-03-26T05:02:28.999Z</time></trkpt><trkpt lat="45.94434584823301" lon="12.094480368963724"><ele>263.2</ele><time>2026-03-26T05:02:30.999Z</time></trkpt><trkpt lat="45.944342710244165" lon="12.094587816468175"><ele>263.0</ele><time>2026-03-26T05:02:32.999Z</time></trkpt><trkpt lat="45.94435236043886" lon="12.094730927287213"><ele>263.0</ele><time>2026-03-26T05:02:50.998Z</time></trkpt><trkpt lat="45.94436845850498" lon="12.094870453278126"><ele>263.0</ele><time>2026-03-26T05:02:52.998Z</time></trkpt><trkpt lat="45.94438684093874" lon="12.094993799772084"><ele>263.0</ele><time>2026-03-26T05:02:54.998Z</time></trkpt><trkpt lat="45.94443173162243" lon="12.095065878482142"><ele>263.0</ele><time>2026-03-26T05:02:57Z</time></trkpt><trkpt lat="45.94446027793039" lon="12.09518618514509"><ele>263.0</ele><time>2026-03-26T05:03:18.999Z</time></trkpt><trkpt lat="45.94450204942987" lon="12.09533377944819"><ele>263.0</ele><time>2026-03-26T05:03:20.999Z</time></trkpt><trkpt lat="45.944512401977164" lon="12.095480470718071"><ele>263.0</ele><time>2026-03-26T05:03:22.999Z</time></trkpt><trkpt lat="45.944606428837396" lon="12.095701659970024"><ele>263.0</ele><time>2026-03-26T05:03:52.999Z</time></trkpt><trkpt lat="45.94466183268815" lon="12.095622175094247"><ele>263.0</ele><time>2026-03-26T05:04:29.999Z</time></trkpt><trkpt lat="45.94474165973504" lon="12.095547399378486"><ele>263.0</ele><time>2026-03-26T05:04:31.999Z</time></trkpt><trkpt lat="45.944820757103855" lon="12.095479415220813"><ele>263.0</ele><time>2026-03-26T05:04:33.999Z</time></trkpt><trkpt lat="45.94486995273181" lon="12.095406095043698"><ele>263.0</ele><time>2026-03-26T05:04:35.999Z</time></trkpt><trkpt lat="45.944928306779715" lon="12.095320857230579"><ele>263.0</ele><time>2026-03-26T05:05:19Z</time></trkpt><trkpt lat="45.94494482460482" lon="12.095223787643077"><ele>263.0</ele><time>2026-03-26T05:05:21Z</time></trkpt><trkpt lat="45.94496740591852" lon="12.09513113590414"><ele>263.0</ele><time>2026-03-26T05:05:23Z</time></trkpt><trkpt lat="45.94498326745086" lon="12.095002355571632"><ele>263.0</ele><time>2026-03-26T05:05:26Z</time></trkpt><trkpt lat="45.944985607946684" lon="12.094900415178698"><ele>263.0</ele><time>2026-03-26T05:05:28Z</time></trkpt><trkpt lat="45.9450064936671" lon="12.094807114342894"><ele>263.0</ele><time>2026-03-26T05:05:31Z</time></trkpt><trkpt lat="45.94502580169169" lon="12.094694716602204"><ele>263.0</ele><time>2026-03-26T05:05:52Z</time></trkpt><trkpt lat="45.94504576927716" lon="12.094608056443946"><ele>263.0</ele><time>2026-03-26T05:05:54Z</time></trkpt><trkpt lat="45.945114676192134" lon="12.094458839789077"><ele>263.0</ele><time>2026-03-26T05:05:56Z</time></trkpt><trkpt lat="45.94517610037575" lon="12.094327060138392"><ele>264.8</ele><time>2026-03-26T05:05:58Z</time></trkpt><trkpt lat="45.94522593361029" lon="12.094269840236306"><ele>266.6</ele><time>2026-03-26T05:06:22Z</time></trkpt><trkpt lat="45.9452946348271" lon="12.094406227378123"><ele>268.4</ele><time>2026-03-26T05:06:26Z</time></trkpt><trkpt lat="45.94532065774351" lon="12.094530194002637"><ele>270.2</ele><time>2026-03-26T05:06:29Z</time></trkpt><trkpt lat="45.94536726679665" lon="12.094678852078475"><ele>272.0</ele><time>2026-03-26T05:06:31Z</time></trkpt><trkpt lat="45.94540902795121" lon="12.094807247656856"><ele>272.0</ele><time>2026-03-26T05:06:33Z</time></trkpt><trkpt lat="45.94545085154757" lon="12.094888064698798"><ele>272.0</ele><time>2026-03-26T05:06:35Z</time></trkpt><trkpt lat="45.945492688484926" lon="12.094962639113374"><ele>272.0</ele><time>2026-03-26T05:06:50Z</time></trkpt><trkpt lat="45.94551524785118" lon="12.095065730834502"><ele>272.0</ele><time>2026-03-26T05:06:52.999Z</time></trkpt><trkpt lat="45.9455360949496" lon="12.095170593870055"><ele>272.0</ele><time>2026-03-26T05:06:54.999Z</time></trkpt><trkpt lat="45.94555724153933" lon="12.095267000597708"><ele>272.0</ele><time>2026-03-26T05:06:56.999Z</time></trkpt><trkpt lat="45.94560353446264" lon="12.095393219459046"><ele>272.33333333333337</ele><time>2026-03-26T05:06:59.999Z</time></trkpt><trkpt lat="45.94566462475546" lon="12.095428414828442"><ele>272.6666666666667</ele><time>2026-03-26T05:07:01.999Z</time></trkpt><trkpt lat="45.94573159520072" lon="12.095475237391032"><ele>273.0</ele><time>2026-03-26T05:07:03.999Z</time></trkpt><trkpt lat="45.94581463464001" lon="12.095550235123126"><ele>273.3333333333333</ele><time>2026-03-26T05:07:06Z</time></trkpt><trkpt lat="45.945891332731144" lon="12.095608803403918"><ele>273.66666666666663</ele><time>2026-03-26T05:07:08Z</time></trkpt><trkpt lat="45.94596424269734" lon="12.095615372551059"><ele>274.0</ele><time>2026-03-26T05:07:11Z</time></trkpt><trkpt lat="45.945896943017175" lon="12.095582327996507"><ele>273.16666666666663</ele><time>2026-03-26T05:07:49Z</time></trkpt><trkpt lat="45.94583457305461" lon="12.095530291353935"><ele>272.3333333333333</ele><time>2026-03-26T05:07:54Z</time></trkpt><trkpt lat="45.945772920498" lon="12.095490628161798"><ele>271.5</ele><time>2026-03-26T05:08:00Z</time></trkpt><trkpt lat="45.94569448308821" lon="12.095471944427638"><ele>270.6666666666667</ele><time>2026-03-26T05:08:28Z</time></trkpt><trkpt lat="45.945640010332454" lon="12.095400116872254"><ele>269.83333333333337</ele><time>2026-03-26T05:08:49Z</time></trkpt><trkpt lat="45.9455671572821" lon="12.095324831067563"><ele>269.0</ele><time>2026-03-26T05:08:51.999Z</time></trkpt><trkpt lat="45.94555085440499" lon="12.095199807360567"><ele>269.0</ele><time>2026-03-26T05:08:54.999Z</time></trkpt><trkpt lat="45.94553212308636" lon="12.095102914485055"><ele>269.0</ele><time>2026-03-26T05:08:56.999Z</time></trkpt><trkpt lat="45.94550031383997" lon="12.094984138141447"><ele>269.0</ele><time>2026-03-26T05:08:58.999Z</time></trkpt><trkpt lat="45.94546627137291" lon="12.094889910498091"><ele>269.0</ele><time>2026-03-26T05:09:05.999Z</time></trkpt><trkpt lat="45.94543359709389" lon="12.094802269659533"><ele>269.0</ele><time>2026-03-26T05:09:10.999Z</time></trkpt><trkpt lat="45.9453904019302" lon="12.094711934418282"><ele>269.0</ele><time>2026-03-26T05:09:13Z</time></trkpt><trkpt lat="45.94534927237046" lon="12.094556601717226"><ele>269.59999999999997</ele><time>2026-03-26T05:09:15Z</time></trkpt><trkpt lat="45.94530555285016" lon="12.094400639816824"><ele>270.2</ele><time>2026-03-26T05:09:17Z</time></trkpt><trkpt lat="45.945255279294535" lon="12.094273901829212"><ele>270.79999999999995</ele><time>2026-03-26T05:09:19Z</time></trkpt><trkpt lat="45.94514542328285" lon="12.094324990413266"><ele>271.4</ele><time>2026-03-26T05:09:23Z</time></trkpt><trkpt lat="45.94509120412661" lon="12.094457726095865"><ele>272.0</ele><time>2026-03-26T05:09:25Z</time></trkpt><trkpt lat="45.94503457992193" lon="12.094585872436218"><ele>270.5</ele><time>2026-03-26T05:09:27Z</time></trkpt><trkpt lat="45.94497117869636" lon="12.09463196737742"><ele>269.0</ele><time>2026-03-26T05:09:29Z</time></trkpt><trkpt lat="45.94493495360859" lon="12.0945361438179"><ele>267.5</ele><time>2026-03-26T05:09:32Z</time></trkpt><trkpt lat="45.944876693845025" lon="12.094455496135131"><ele>266.0</ele><time>2026-03-26T05:09:35Z</time></trkpt><trkpt lat="45.94484053488982" lon="12.09436205876784"><ele>264.5</ele><time>2026-03-26T05:09:54Z</time></trkpt><trkpt lat="45.944792676808426" lon="12.0942595822703"><ele>263.0</ele><time>2026-03-26T05:09:56Z</time></trkpt><trkpt lat="45.94473447607949" lon="12.094159500874829"><ele>263.0</ele><time>2026-03-26T05:10:14Z</time></trkpt><trkpt lat="45.94466811443521" lon="12.094123613569554"><ele>263.0</ele><time>2026-03-26T05:10:16Z</time></trkpt><trkpt lat="45.944596019381606" lon="12.09410330814628"><ele>263.0</ele><time>2026-03-26T05:10:18Z</time></trkpt><trkpt lat="45.94451315724688" lon="12.094084708350701"><ele>263.0</ele><time>2026-03-26T05:10:20Z</time></trkpt><trkpt lat="45.94443029970805" lon="12.094071843882235"><ele>263.0</ele><time>2026-03-26T05:10:23Z</time></trkpt><trkpt lat="45.94439662215874" lon="12.093971663541923"><ele>263.0</ele><time>2026-03-26T05:10:27Z</time></trkpt><trkpt lat="45.94446057411516" lon="12.093927835118105"><ele>263.1666666666667</ele><time>2026-03-26T05:10:30Z</time></trkpt><trkpt lat="45.944426413924454" lon="12.093846434793935"><ele>263.33333333333337</ele><time>2026-03-26T05:11:13.999Z</time></trkpt><trkpt lat="45.944415390005474" lon="12.093694457650876"><ele>263.5</ele><time>2026-03-26T05:11:15.999Z</time></trkpt><trkpt lat="45.94443029169976" lon="12.093585600096711"><ele>263.6666666666667</ele><time>2026-03-26T05:11:18Z</time></trkpt><trkpt lat="45.944490259403096" lon="12.093546469555733"><ele>263.8333333333333</ele><time>2026-03-26T05:11:20Z</time></trkpt><trkpt lat="45.944558496049936" lon="12.09359247932691"><ele>264.0</ele><time>2026-03-26T05:11:22Z</time></trkpt><trkpt lat="45.94465597282531" lon="12.093621162584606"><ele>264.0</ele><time>2026-03-26T05:11:24Z</time></trkpt><trkpt lat="45.94474012426531" lon="12.093654204044183"><ele>264.0</ele><time>2026-03-26T05:11:26Z</time></trkpt><trkpt lat="45.94482565359753" lon="12.093693521212277"><ele>264.0</ele><time>2026-03-26T05:11:28Z</time></trkpt><trkpt lat="45.944927350831776" lon="12.09368242924073"><ele>264.0</ele><time>2026-03-26T05:11:30Z</time></trkpt><trkpt lat="45.94501121975336" lon="12.093705071999839"><ele>264.0</ele><time>2026-03-26T05:11:32Z</time></trkpt><trkpt lat="45.94511704591561" lon="12.093713620331174"><ele>265.8333333333333</ele><time>2026-03-26T05:11:34Z</time></trkpt><trkpt lat="45.945194450251016" lon="12.093733537218242"><ele>267.6666666666667</ele><time>2026-03-26T05:11:52Z</time></trkpt><trkpt lat="45.94528273512231" lon="12.093730516766195"><ele>269.5</ele><time>2026-03-26T05:11:54Z</time></trkpt><trkpt lat="45.94536877483526" lon="12.093782034997272"><ele>271.33333333333337</ele><time>2026-03-26T05:11:56Z</time></trkpt><trkpt lat="45.945422202154894" lon="12.093842400092676"><ele>273.1666666666667</ele><time>2026-03-26T05:11:58Z</time></trkpt><trkpt lat="45.94548616251832" lon="12.09393689046301"><ele>275.0</ele><time>2026-03-26T05:12:02Z</time></trkpt><trkpt lat="45.94556730301957" lon="12.094032385014994"><ele>275.0</ele><time>2026-03-26T05:12:04Z</time></trkpt><trkpt lat="45.94564853444167" lon="12.094082434487444"><ele>275.0</ele><time>2026-03-26T05:12:06Z</time></trkpt><trkpt lat="45.945727508745485" lon="12.094140681809124"><ele>275.0</ele><time>2026-03-26T05:12:08Z</time></trkpt><trkpt lat="45.94582628063946" lon="12.094208905840766"><ele>275.0</ele><time>2026-03-26T05:12:10Z</time></trkpt><trkpt lat="45.945911977811285" lon="12.094266026026515"><ele>275.0</ele><time>2026-03-26T05:12:12Z</time></trkpt><trkpt lat="45.9460016306336" lon="12.094332177276353"><ele>275.0</ele><time>2026-03-26T05:12:14Z</time></trkpt><trkpt lat="45.94609115515896" lon="12.094398135366934"><ele>275.0</ele><time>2026-03-26T05:12:16Z</time></trkpt><trkpt lat="45.94619955936473" lon="12.094471238806396"><ele>275.0</ele><time>2026-03-26T05:12:18Z</time></trkpt><trkpt lat="45.946260751148955" lon="12.094504961240018"><ele>275.0</ele><time>2026-03-26T05:12:19Z</time></trkpt><trkpt lat="45.94632500456724" lon="12.094521796059878"><ele>275.0</ele><time>2026-03-26T05:12:20Z</time></trkpt><trkpt lat="45.946391798079894" lon="12.09452863854623"><ele>275.0</ele><time>2026-03-26T05:12:21Z</time></trkpt><trkpt lat="45.946462880309554" lon="12.094536474358996"><ele>275.0</ele><time>2026-03-26T05:12:22Z</time></trkpt><trkpt lat="45.94653280413901" lon="12.09453934785791"><ele>275.0</ele><time>2026-03-26T05:12:23Z</time></trkpt><trkpt lat="45.94660247272611" lon="12.094534429029647"><ele>275.0</ele><time>2026-03-26T05:12:24Z</time></trkpt><trkpt lat="45.94666672111948" lon="12.09453016479452"><ele>275.0</ele><time>2026-03-26T05:12:25Z</time></trkpt><trkpt lat="45.94673791139487" lon="12.094532081189163"><ele>275.0</ele><time>2026-03-26T05:12:26Z</time></trkpt><trkpt lat="45.94681143836056" lon="12.094503595982054"><ele>275.0</ele><time>2026-03-26T05:12:27Z</time></trkpt><trkpt lat="45.94687332376311" lon="12.094461602374636"><ele>275.0</ele><time>2026-03-26T05:12:28Z</time></trkpt><trkpt lat="45.946930570448764" lon="12.09442063994584"><ele>275.6666666666667</ele><time>2026-03-26T05:12:29Z</time></trkpt><trkpt lat="45.947012678041986" lon="12.094382904473797"><ele>276.33333333333337</ele><time>2026-03-26T05:12:31Z</time></trkpt><trkpt lat="45.94708043071504" lon="12.094363564477332"><ele>277.0</ele><time>2026-03-26T05:12:50Z</time></trkpt><trkpt lat="45.94715797471876" lon="12.094331372420825"><ele>277.6666666666667</ele><time>2026-03-26T05:12:52Z</time></trkpt><trkpt lat="45.94723024300787" lon="12.094294053292977"><ele>278.3333333333333</ele><time>2026-03-26T05:12:52.999Z</time></trkpt><trkpt lat="45.9473305815423" lon="12.09425461225677"><ele>279.0</ele><time>2026-03-26T05:12:54.999Z</time></trkpt><trkpt lat="45.94745171813832" lon="12.094216239354001"><ele>279.0</ele><time>2026-03-26T05:12:56.999Z</time></trkpt><trkpt lat="45.94751387150717" lon="12.094195476627092"><ele>279.0</ele><time>2026-03-26T05:12:57.999Z</time></trkpt><trkpt lat="45.947610529272715" lon="12.094150207588115"><ele>279.0</ele><time>2026-03-26T05:12:59.999Z</time></trkpt><trkpt lat="45.94759070563681" lon="12.094014922973594"><ele>279.0</ele><time>2026-03-26T05:13:02.999Z</time></trkpt><trkpt lat="45.9476327814729" lon="12.09408885870534"><ele>279.0</ele><time>2026-03-26T05:13:12.999Z</time></trkpt><trkpt lat="45.94755346533424" lon="12.094016711917936"><ele>279.0</ele><time>2026-03-26T05:13:41Z</time></trkpt><trkpt lat="45.947446170637036" lon="12.093969586806645"><ele>280.3333333333333</ele><time>2026-03-26T05:13:43Z</time></trkpt><trkpt lat="45.94733982474735" lon="12.09392225215934"><ele>281.6666666666667</ele><time>2026-03-26T05:13:45Z</time></trkpt><trkpt lat="45.94727559365638" lon="12.093876659792697"><ele>283.0</ele><time>2026-03-26T05:13:46Z</time></trkpt><trkpt lat="45.94720654137777" lon="12.093851028608517"><ele>284.33333333333337</ele><time>2026-03-26T05:13:47Z</time></trkpt><trkpt lat="45.9471342966854" lon="12.093824721105413"><ele>285.6666666666667</ele><time>2026-03-26T05:13:48Z</time></trkpt><trkpt lat="45.94705825209142" lon="12.093822641667153"><ele>287.0</ele><time>2026-03-26T05:13:49Z</time></trkpt><trkpt lat="45.946985146667316" lon="12.093806425478551"><ele>287.0</ele><time>2026-03-26T05:13:50Z</time></trkpt><trkpt lat="45.94687564262729" lon="12.093751532136036"><ele>287.0</ele><time>2026-03-26T05:13:52Z</time></trkpt><trkpt lat="45.94681893606153" lon="12.09364610032536"><ele>287.0</ele><time>2026-03-26T05:13:55Z</time></trkpt><trkpt lat="45.94676487804954" lon="12.093548624420068"><ele>287.0</ele><time>2026-03-26T05:13:57Z</time></trkpt><trkpt lat="45.946712851429005" lon="12.093460313051436"><ele>287.0</ele><time>2026-03-26T05:13:59Z</time></trkpt><trkpt lat="45.946610325071816" lon="12.093460325994897"><ele>286.1666666666667</ele><time>2026-03-26T05:14:24Z</time></trkpt><trkpt lat="45.946564439304744" lon="12.093385556985377"><ele>285.33333333333337</ele><time>2026-03-26T05:14:27Z</time></trkpt><trkpt lat="45.94652774677431" lon="12.093283129997824"><ele>284.5</ele><time>2026-03-26T05:14:30Z</time></trkpt><trkpt lat="45.946490172090655" lon="12.093202907325034"><ele>283.6666666666667</ele><time>2026-03-26T05:14:32Z</time></trkpt><trkpt lat="45.946428718671214" lon="12.09314191392728"><ele>282.8333333333333</ele><time>2026-03-26T05:14:34Z</time></trkpt><trkpt lat="45.94635404766112" lon="12.09318918895161"><ele>282.0</ele><time>2026-03-26T05:14:36Z</time></trkpt><trkpt lat="45.946270860485996" lon="12.093257498974152"><ele>282.0</ele><time>2026-03-26T05:14:38Z</time></trkpt><trkpt lat="45.946195522409475" lon="12.093344120468196"><ele>282.0</ele><time>2026-03-26T05:14:40Z</time></trkpt><trkpt lat="45.946100093414806" lon="12.093411509723712"><ele>282.0</ele><time>2026-03-26T05:14:42Z</time></trkpt><trkpt lat="45.946053587174205" lon="12.093475213495994"><ele>282.0</ele><time>2026-03-26T05:14:44Z</time></trkpt><trkpt lat="45.94597888205151" lon="12.093536153234476"><ele>282.0</ele><time>2026-03-26T05:14:47Z</time></trkpt><trkpt lat="45.94596843775678" lon="12.093434074774976"><ele>282.0</ele><time>2026-03-26T05:15:06.999Z</time></trkpt><trkpt lat="45.945951730385275" lon="12.093321924675854"><ele>282.5</ele><time>2026-03-26T05:15:08.999Z</time></trkpt><trkpt lat="45.94592902057967" lon="12.093220480446567"><ele>283.0</ele><time>2026-03-26T05:15:10.999Z</time></trkpt><trkpt lat="45.94585802287033" lon="12.093217902041289"><ele>283.5</ele><time>2026-03-26T05:15:12.999Z</time></trkpt><trkpt lat="45.945798214050896" lon="12.093171630115263"><ele>284.0</ele><time>2026-03-26T05:15:31Z</time></trkpt><trkpt lat="45.94569819598649" lon="12.093134940006767"><ele>284.5</ele><time>2026-03-26T05:15:33Z</time></trkpt><trkpt lat="45.94562662949663" lon="12.093111268262467"><ele>285.0</ele><time>2026-03-26T05:15:35Z</time></trkpt><trkpt lat="45.945562774341724" lon="12.093086911771989"><ele>285.0</ele><time>2026-03-26T05:15:37Z</time></trkpt><trkpt lat="45.94548114747937" lon="12.093051586948034"><ele>285.0</ele><time>2026-03-26T05:16:08Z</time></trkpt><trkpt lat="45.94540458365728" lon="12.093019215276078"><ele>285.0</ele><time>2026-03-26T05:16:11Z</time></trkpt><trkpt lat="45.94531327265857" lon="12.093038260116915"><ele>285.0</ele><time>2026-03-26T05:16:14Z</time></trkpt><trkpt lat="45.945258618948536" lon="12.09299182330362"><ele>285.0</ele><time>2026-03-26T05:16:17Z</time></trkpt><trkpt lat="45.94520623239761" lon="12.09293334197742"><ele>285.0</ele><time>2026-03-26T05:16:19Z</time></trkpt><trkpt lat="45.94511749187877" lon="12.092859988357173"><ele>283.6666666666667</ele><time>2026-03-26T05:16:21Z</time></trkpt><trkpt lat="45.94502686516864" lon="12.09277453191787"><ele>282.3333333333333</ele><time>2026-03-26T05:16:23Z</time></trkpt><trkpt lat="45.94495887744482" lon="12.092685238930578"><ele>281.0</ele><time>2026-03-26T05:16:25Z</time></trkpt><trkpt lat="45.944889539568415" lon="12.09264511297853"><ele>279.66666666666663</ele><time>2026-03-26T05:16:46Z</time></trkpt><trkpt lat="45.94486117612695" lon="12.09251540662942"><ele>278.3333333333333</ele><time>2026-03-26T05:16:48Z</time></trkpt><trkpt lat="45.94483181373624" lon="12.0924118638865"><ele>277.0</ele><time>2026-03-26T05:16:50Z</time></trkpt><trkpt lat="45.94477658933433" lon="12.092293061744659"><ele>277.0</ele><time>2026-03-26T05:16:52Z</time></trkpt><trkpt lat="45.944709592490696" lon="12.092217391357739"><ele>277.0</ele><time>2026-03-26T05:16:54Z</time></trkpt><trkpt lat="45.94467125525071" lon="12.092138033885783"><ele>277.0</ele><time>2026-03-26T05:17:13.999Z</time></trkpt><trkpt lat="45.94461110724508" lon="12.091985143958592"><ele>277.0</ele><time>2026-03-26T05:17:17.999Z</time></trkpt><trkpt lat="45.944558413636045" lon="12.091912877942319"><ele>277.0</ele><time>2026-03-26T05:17:24.999Z</time></trkpt><trkpt lat="45.944517603478516" lon="12.091823145716864"><ele>277.0</ele><time>2026-03-26T05:17:29.999Z</time></trkpt><trkpt lat="45.94446415815907" lon="12.091748641855325"><ele>277.0</ele><time>2026-03-26T05:17:31.999Z</time></trkpt><trkpt lat="45.94441894695368" lon="12.09165741849864"><ele>277.0</ele><time>2026-03-26T05:17:35Z</time></trkpt><trkpt lat="45.944359950435135" lon="12.091596065422115"><ele>277.0</ele><time>2026-03-26T05:17:41Z</time></trkpt><trkpt lat="45.944289093973204" lon="12.091547114145147"><ele>277.0</ele><time>2026-03-26T05:17:45Z</time></trkpt><trkpt lat="45.94422802402902" lon="12.091426603637057"><ele>277.0</ele><time>2026-03-26T05:17:47Z</time></trkpt><trkpt lat="45.94416866728928" lon="12.09129064394982"><ele>277.0</ele><time>2026-03-26T05:17:49Z</time></trkpt><trkpt lat="45.94410307343353" lon="12.091154401499843"><ele>275.5</ele><time>2026-03-26T05:17:51Z</time></trkpt><trkpt lat="45.9440511557224" lon="12.091024093924597"><ele>274.0</ele><time>2026-03-26T05:17:53Z</time></trkpt><trkpt lat="45.94403316313822" lon="12.090931053458538"><ele>272.5</ele><time>2026-03-26T05:17:55Z</time></trkpt><trkpt lat="45.944079855320005" lon="12.091004732672857"><ele>271.0</ele><time>2026-03-26T05:18:10Z</time></trkpt><trkpt lat="45.94407919760553" lon="12.09113290526348"><ele>269.5</ele><time>2026-03-26T05:18:13Z</time></trkpt><trkpt lat="45.94413057214185" lon="12.091286738733306"><ele>268.0</ele><time>2026-03-26T05:18:15Z</time></trkpt><trkpt lat="45.94416886956539" lon="12.091359044810908"><ele>268.0</ele><time>2026-03-26T05:18:16Z</time></trkpt><trkpt lat="45.944206608758684" lon="12.091441764027474"><ele>268.0</ele><time>2026-03-26T05:18:17Z</time></trkpt><trkpt lat="45.944251414935" lon="12.091527617333995"><ele>268.0</ele><time>2026-03-26T05:18:18Z</time></trkpt><trkpt lat="45.944295878231884" lon="12.091640690410115"><ele>268.0</ele><time>2026-03-26T05:18:20Z</time></trkpt><trkpt lat="45.944257214763766" lon="12.091752195268656"><ele>268.0</ele><time>2026-03-26T05:18:23Z</time></trkpt><trkpt lat="45.94427852316101" lon="12.091666802646222"><ele>268.0</ele><time>2026-03-26T05:18:52.999Z</time></trkpt><trkpt lat="45.944347947891636" lon="12.091661241410343"><ele>269.5</ele><time>2026-03-26T05:19:02.999Z</time></trkpt><trkpt lat="45.944405528478846" lon="12.091728906251161"><ele>271.0</ele><time>2026-03-26T05:19:08.999Z</time></trkpt><trkpt lat="45.944464133151996" lon="12.091833569376552"><ele>272.5</ele><time>2026-03-26T05:19:11.999Z</time></trkpt><trkpt lat="45.94452219268624" lon="12.091885538421042"><ele>274.0</ele><time>2026-03-26T05:19:14.999Z</time></trkpt><trkpt lat="45.94456058733275" lon="12.091974491909475"><ele>275.5</ele><time>2026-03-26T05:19:17.999Z</time></trkpt><trkpt lat="45.944596808971426" lon="12.092067240709522"><ele>277.0</ele><time>2026-03-26T05:19:20.999Z</time></trkpt><trkpt lat="45.94464282343297" lon="12.09216882955753"><ele>277.0</ele><time>2026-03-26T05:19:22.999Z</time></trkpt><trkpt lat="45.94469282301879" lon="12.0922272774051"><ele>277.0</ele><time>2026-03-26T05:19:23.999Z</time></trkpt><trkpt lat="45.944739026278036" lon="12.092337607718347"><ele>277.0</ele><time>2026-03-26T05:19:25.999Z</time></trkpt><trkpt lat="45.94478465558404" lon="12.092445949004725"><ele>277.0</ele><time>2026-03-26T05:19:27.999Z</time></trkpt><trkpt lat="45.94483665038145" lon="12.09255148659249"><ele>277.0</ele><time>2026-03-26T05:19:29.999Z</time></trkpt><trkpt lat="45.944883581357715" lon="12.092651375678985"><ele>277.0</ele><time>2026-03-26T05:19:31.999Z</time></trkpt><trkpt lat="45.944804812452304" lon="12.092678946243819"><ele>275.2</ele><time>2026-03-26T05:19:35.999Z</time></trkpt><trkpt lat="45.944714562310935" lon="12.092702459737334"><ele>273.4</ele><time>2026-03-26T05:19:37.999Z</time></trkpt><trkpt lat="45.94461766761522" lon="12.092798008703756"><ele>271.6</ele><time>2026-03-26T05:19:39.999Z</time></trkpt><trkpt lat="45.94453648989126" lon="12.092883497327577"><ele>269.8</ele><time>2026-03-26T05:19:42Z</time></trkpt><trkpt lat="45.94449268864184" lon="12.092972482322722"><ele>268.0</ele><time>2026-03-26T05:20:02Z</time></trkpt><trkpt lat="45.944427322829384" lon="12.093020489859525"><ele>268.0</ele><time>2026-03-26T05:20:12Z</time></trkpt><trkpt lat="45.94434041714582" lon="12.09309507332698"><ele>268.0</ele><time>2026-03-26T05:20:14Z</time></trkpt><trkpt lat="45.94428924117099" lon="12.09315811183683"><ele>268.0</ele><time>2026-03-26T05:20:16Z</time></trkpt><trkpt lat="45.944285812267104" lon="12.09329078006251"><ele>268.0</ele><time>2026-03-26T05:20:18Z</time></trkpt><trkpt lat="45.9443160371986" lon="12.093448989409856"><ele>268.0</ele><time>2026-03-26T05:20:20Z</time></trkpt><trkpt lat="45.944269133169115" lon="12.093533027577266"><ele>265.75</ele><time>2026-03-26T05:20:22Z</time></trkpt><trkpt lat="45.94418983320309" lon="12.093512865379529"><ele>263.5</ele><time>2026-03-26T05:20:25Z</time></trkpt><trkpt lat="45.9441233088583" lon="12.093418188252977"><ele>261.25</ele><time>2026-03-26T05:20:27Z</time></trkpt><trkpt lat="45.94395011557614" lon="12.093208838371599"><ele>259.0</ele><time>2026-03-26T05:21:09.999Z</time></trkpt><trkpt lat="45.94389292839756" lon="12.093162353844484"><ele>259.0</ele><time>2026-03-26T05:21:10.999Z</time></trkpt><trkpt lat="45.943839765296296" lon="12.093080010485897"><ele>259.0</ele><time>2026-03-26T05:21:11.999Z</time></trkpt><trkpt lat="45.94378762080459" lon="12.092988960747743"><ele>259.0</ele><time>2026-03-26T05:21:12.999Z</time></trkpt><trkpt lat="45.94372015932757" lon="12.09289374152954"><ele>259.0</ele><time>2026-03-26T05:21:13.999Z</time></trkpt><trkpt lat="45.94365914191803" lon="12.092796793042963"><ele>259.0</ele><time>2026-03-26T05:21:14.999Z</time></trkpt><trkpt lat="45.94360210336861" lon="12.092711386299905"><ele>259.0</ele><time>2026-03-26T05:21:15.999Z</time></trkpt><trkpt lat="45.943554788254694" lon="12.092623762304319"><ele>259.0</ele><time>2026-03-26T05:21:16.999Z</time></trkpt><trkpt lat="45.94350519957958" lon="12.092528336098638"><ele>259.0</ele><time>2026-03-26T05:21:17.999Z</time></trkpt><trkpt lat="45.94345179965582" lon="12.092441551071563"><ele>259.0</ele><time>2026-03-26T05:21:18.999Z</time></trkpt><trkpt lat="45.94340475916838" lon="12.092360226443112"><ele>259.0</ele><time>2026-03-26T05:21:19.999Z</time></trkpt><trkpt lat="45.94335754490122" lon="12.092274349646544"><ele>259.0</ele><time>2026-03-26T05:21:20.999Z</time></trkpt><trkpt lat="45.94330402068417" lon="12.092180947443302"><ele>259.0</ele><time>2026-03-26T05:21:21.999Z</time></trkpt><trkpt lat="45.94324861872772" lon="12.092089012354434"><ele>259.16666666666663</ele><time>2026-03-26T05:21:22.999Z</time></trkpt><trkpt lat="45.94319480490139" lon="12.092001927249887"><ele>259.3333333333333</ele><time>2026-03-26T05:21:23.999Z</time></trkpt><trkpt lat="45.943145285897295" lon="12.091928810899386"><ele>259.5</ele><time>2026-03-26T05:21:24.999Z</time></trkpt><trkpt lat="45.943100074969195" lon="12.091862514340562"><ele>259.6666666666667</ele><time>2026-03-26T05:21:26.999Z</time></trkpt><trkpt lat="45.94302737591572" lon="12.091837375705735"><ele>259.83333333333337</ele><time>2026-03-26T05:21:56Z</time></trkpt><trkpt lat="45.94299346224986" lon="12.09175083060204"><ele>260.0</ele><time>2026-03-26T05:21:58Z</time></trkpt><trkpt lat="45.942927239470045" lon="12.09161098965524"><ele>260.0</ele><time>2026-03-26T05:22:00Z</time></trkpt><trkpt lat="45.942839278778564" lon="12.091515702327273"><ele>260.0</ele><time>2026-03-26T05:22:02Z</time></trkpt><trkpt lat="45.942766542780056" lon="12.091586705301461"><ele>260.0</ele><time>2026-03-26T05:22:05Z</time></trkpt><trkpt lat="45.94269480315712" lon="12.091659510193494"><ele>260.0</ele><time>2026-03-26T05:22:07Z</time></trkpt><trkpt lat="45.94263888226215" lon="12.091729139614047"><ele>260.0</ele><time>2026-03-26T05:22:23Z</time></trkpt><trkpt lat="45.942574294089304" lon="12.091809560988175"><ele>260.0</ele><time>2026-03-26T05:22:25Z</time></trkpt><trkpt lat="45.942516481635266" lon="12.091882834067015"><ele>260.0</ele><time>2026-03-26T05:22:27Z</time></trkpt><trkpt lat="45.94250178976052" lon="12.091977956438312"><ele>260.0</ele><time>2026-03-26T05:22:32Z</time></trkpt><trkpt lat="45.942586478089595" lon="12.091880413163725"><ele>260.0</ele><time>2026-03-26T05:22:56.999Z</time></trkpt><trkpt lat="45.94264371195564" lon="12.091813679402502"><ele>260.0</ele><time>2026-03-26T05:22:58.999Z</time></trkpt><trkpt lat="45.94266325000154" lon="12.091705723746118"><ele>260.0</ele><time>2026-03-26T05:23:00.999Z</time></trkpt><trkpt lat="45.942737339365344" lon="12.091581338722483"><ele>260.0</ele><time>2026-03-26T05:23:02.999Z</time></trkpt><trkpt lat="45.94279429266237" lon="12.09150915870456"><ele>260.33333333333337</ele><time>2026-03-26T05:23:04.999Z</time></trkpt><trkpt lat="45.942809044442974" lon="12.091411304206492"><ele>260.6666666666667</ele><time>2026-03-26T05:23:16.999Z</time></trkpt><trkpt lat="45.94273681733176" lon="12.09133788126485"><ele>261.0</ele><time>2026-03-26T05:23:18.999Z</time></trkpt><trkpt lat="45.942700948551014" lon="12.091262270671772"><ele>261.3333333333333</ele><time>2026-03-26T05:23:38.999Z</time></trkpt><trkpt lat="45.94275302927952" lon="12.091165157407806"><ele>261.66666666666663</ele><time>2026-03-26T05:23:40.999Z</time></trkpt><trkpt lat="45.94283838896103" lon="12.091095439433994"><ele>262.0</ele><time>2026-03-26T05:23:42.999Z</time></trkpt><trkpt lat="45.942894126691506" lon="12.091038477565466"><ele>262.0</ele><time>2026-03-26T05:23:43.999Z</time></trkpt><trkpt lat="45.94297133599006" lon="12.090926445603834"><ele>262.0</ele><time>2026-03-26T05:23:45.999Z</time></trkpt><trkpt lat="45.9430511219431" lon="12.090844564496155"><ele>262.0</ele><time>2026-03-26T05:23:47.999Z</time></trkpt><trkpt lat="45.943155532460864" lon="12.090997625019547"><ele>262.0</ele><time>2026-03-26T05:23:49.999Z</time></trkpt><trkpt lat="45.943202116358826" lon="12.091077727350246"><ele>262.0</ele><time>2026-03-26T05:23:50.999Z</time></trkpt><trkpt lat="45.94326196449639" lon="12.091225081329272"><ele>262.0</ele><time>2026-03-26T05:23:53Z</time></trkpt><trkpt lat="45.94329826725429" lon="12.091325069217291"><ele>262.0</ele><time>2026-03-26T05:23:55Z</time></trkpt><trkpt lat="45.94337620753316" lon="12.091192069089631"><ele>262.0</ele><time>2026-03-26T05:24:09Z</time></trkpt><trkpt lat="45.94343276380766" lon="12.091123896916944"><ele>262.0</ele><time>2026-03-26T05:24:11Z</time></trkpt><trkpt lat="45.9434864377581" lon="12.09105787837784"><ele>262.0</ele><time>2026-03-26T05:24:13Z</time></trkpt><trkpt lat="45.94353954240898" lon="12.090946071404092"><ele>262.0</ele><time>2026-03-26T05:24:15Z</time></trkpt><trkpt lat="45.94359714048028" lon="12.090871933498965"><ele>263.0</ele><time>2026-03-26T05:24:17Z</time></trkpt><trkpt lat="45.94366002019925" lon="12.090790661694212"><ele>264.0</ele><time>2026-03-26T05:24:19Z</time></trkpt><trkpt lat="45.943723780364" lon="12.090710621393443"><ele>265.0</ele><time>2026-03-26T05:24:21Z</time></trkpt><trkpt lat="45.94377907871535" lon="12.090633967125537"><ele>266.0</ele><time>2026-03-26T05:24:23Z</time></trkpt><trkpt lat="45.94383939981377" lon="12.090559379799483"><ele>267.0</ele><time>2026-03-26T05:24:25Z</time></trkpt><trkpt lat="45.94376684601256" lon="12.090627842473607"><ele>268.0</ele><time>2026-03-26T05:24:55Z</time></trkpt><trkpt lat="45.9437187796001" lon="12.090686961546766"><ele>268.0</ele><time>2026-03-26T05:24:55.999Z</time></trkpt><trkpt lat="45.94367188705608" lon="12.090749799542523"><ele>268.0</ele><time>2026-03-26T05:24:56.999Z</time></trkpt><trkpt lat="45.9436149443314" lon="12.090830525815418"><ele>268.0</ele><time>2026-03-26T05:24:58.999Z</time></trkpt><trkpt lat="45.94355065642657" lon="12.09093590674518"><ele>268.0</ele><time>2026-03-26T05:25:54.999Z</time></trkpt><trkpt lat="45.94349524496395" lon="12.091007804635266"><ele>268.0</ele><time>2026-03-26T05:25:55.999Z</time></trkpt><trkpt lat="45.94343195073971" lon="12.091091329527396"><ele>268.0</ele><time>2026-03-26T05:25:56.999Z</time></trkpt><trkpt lat="45.9433599688514" lon="12.091150562237805"><ele>266.8</ele><time>2026-03-26T05:25:57.999Z</time></trkpt><trkpt lat="45.943286228699904" lon="12.091255921449974"><ele>265.6</ele><time>2026-03-26T05:26:00Z</time></trkpt><trkpt lat="45.94323620366094" lon="12.091098820305154"><ele>264.4</ele><time>2026-03-26T05:26:03Z</time></trkpt><trkpt lat="45.943203821303385" lon="12.091018779021615"><ele>263.2</ele><time>2026-03-26T05:26:04Z</time></trkpt><trkpt lat="45.94314493785591" lon="12.09088246192302"><ele>262.0</ele><time>2026-03-26T05:26:06Z</time></trkpt><trkpt lat="45.94308992687226" lon="12.09080210844302"><ele>262.6</ele><time>2026-03-26T05:26:09Z</time></trkpt><trkpt lat="45.94315787905364" lon="12.09066604721775"><ele>263.2</ele><time>2026-03-26T05:26:12Z</time></trkpt><trkpt lat="45.94321199793406" lon="12.090609923464404"><ele>263.8</ele><time>2026-03-26T05:26:13Z</time></trkpt><trkpt lat="45.94330275768381" lon="12.090513082330839"><ele>264.4</ele><time>2026-03-26T05:26:15Z</time></trkpt><trkpt lat="45.943396129222464" lon="12.090401539370527"><ele>265.0</ele><time>2026-03-26T05:26:17Z</time></trkpt><trkpt lat="45.943445624391515" lon="12.0903334441548"><ele>265.3333333333333</ele><time>2026-03-26T05:26:18Z</time></trkpt><trkpt lat="45.94349502380859" lon="12.090268961106874"><ele>265.66666666666663</ele><time>2026-03-26T05:26:19Z</time></trkpt><trkpt lat="45.94356107695042" lon="12.090175823286804"><ele>266.0</ele><time>2026-03-26T05:26:21Z</time></trkpt><trkpt lat="45.94351589588457" lon="12.090074946691441"><ele>266.3333333333333</ele><time>2026-03-26T05:26:22Z</time></trkpt><trkpt lat="45.94344518601373" lon="12.089978328317306"><ele>266.6666666666667</ele><time>2026-03-26T05:26:24Z</time></trkpt><trkpt lat="45.943380411467786" lon="12.08988885154431"><ele>267.0</ele><time>2026-03-26T05:26:26Z</time></trkpt><trkpt lat="45.94332894898615" lon="12.089812834906175"><ele>267.0</ele><time>2026-03-26T05:26:28Z</time></trkpt><trkpt lat="45.943258188974745" lon="12.089707713298727"><ele>267.0</ele><time>2026-03-26T05:26:30Z</time></trkpt><trkpt lat="45.943213017350814" lon="12.089582825810004"><ele>267.0</ele><time>2026-03-26T05:26:32Z</time></trkpt><trkpt lat="45.94324053529612" lon="12.089686047856251"><ele>267.0</ele><time>2026-03-26T05:27:02.999Z</time></trkpt><trkpt lat="45.94329074023442" lon="12.089769410774403"><ele>267.0</ele><time>2026-03-26T05:27:05.999Z</time></trkpt><trkpt lat="45.9433373925559" lon="12.08984024575263"><ele>267.0</ele><time>2026-03-26T05:27:09.999Z</time></trkpt><trkpt lat="45.94338932054599" lon="12.089899197102682"><ele>267.6666666666667</ele><time>2026-03-26T05:27:21.999Z</time></trkpt><trkpt lat="45.94344289620365" lon="12.089841960233613"><ele>268.3333333333333</ele><time>2026-03-26T05:27:24.999Z</time></trkpt><trkpt lat="45.943498607280134" lon="12.089774872603966"><ele>269.0</ele><time>2026-03-26T05:27:28.999Z</time></trkpt><trkpt lat="45.943422450859295" lon="12.089849742110474"><ele>269.66666666666663</ele><time>2026-03-26T05:27:58.999Z</time></trkpt><trkpt lat="45.94339020794175" lon="12.089939894886994"><ele>270.3333333333333</ele><time>2026-03-26T05:28:01.999Z</time></trkpt><trkpt lat="45.943427013018386" lon="12.090026381920968"><ele>271.0</ele><time>2026-03-26T05:28:03.999Z</time></trkpt><trkpt lat="45.9434938900357" lon="12.09011268958805"><ele>271.0</ele><time>2026-03-26T05:28:06Z</time></trkpt><trkpt lat="45.94354402404643" lon="12.090170263551391"><ele>271.0</ele><time>2026-03-26T05:28:15Z</time></trkpt><trkpt lat="45.94361120983993" lon="12.09008507773314"><ele>271.0</ele><time>2026-03-26T05:28:28Z</time></trkpt><trkpt lat="45.943662034941156" lon="12.090022632399993"><ele>271.0</ele><time>2026-03-26T05:28:30Z</time></trkpt><trkpt lat="45.94371476908033" lon="12.089960282783101"><ele>271.0</ele><time>2026-03-26T05:28:32Z</time></trkpt><trkpt lat="45.94376949397845" lon="12.089899877492424"><ele>271.0</ele><time>2026-03-26T05:28:35Z</time></trkpt><trkpt lat="45.94369336910059" lon="12.089970967727789"><ele>271.0</ele><time>2026-03-26T05:29:14.999Z</time></trkpt><trkpt lat="45.94361414403031" lon="12.090069399534961"><ele>271.0</ele><time>2026-03-26T05:29:16.999Z</time></trkpt><trkpt lat="45.943526063249344" lon="12.090175771005574"><ele>271.0</ele><time>2026-03-26T05:29:18.999Z</time></trkpt><trkpt lat="45.94342449234261" lon="12.090301397426444"><ele>271.0</ele><time>2026-03-26T05:29:20.999Z</time></trkpt><trkpt lat="45.94335717023367" lon="12.090378207459137"><ele>271.0</ele><time>2026-03-26T05:29:21.999Z</time></trkpt><trkpt lat="45.94329266629957" lon="12.090462028635141"><ele>271.0</ele><time>2026-03-26T05:29:22.999Z</time></trkpt><trkpt lat="45.94324171915914" lon="12.090534006612565"><ele>269.8</ele><time>2026-03-26T05:29:23.999Z</time></trkpt><trkpt lat="45.943182251698566" lon="12.090598054806746"><ele>268.6</ele><time>2026-03-26T05:29:25.999Z</time></trkpt><trkpt lat="45.94311561877938" lon="12.090541928056483"><ele>267.4</ele><time>2026-03-26T05:29:28.999Z</time></trkpt><trkpt lat="45.94305073536215" lon="12.090402590882801"><ele>266.2</ele><time>2026-03-26T05:29:30.999Z</time></trkpt><trkpt lat="45.94297387949226" lon="12.090273538034939"><ele>265.0</ele><time>2026-03-26T05:29:32.999Z</time></trkpt><trkpt lat="45.94288913322244" lon="12.090191603444044"><ele>265.0</ele><time>2026-03-26T05:29:34.999Z</time></trkpt><trkpt lat="45.942797243523515" lon="12.090219144521194"><ele>265.0</ele><time>2026-03-26T05:29:36.999Z</time></trkpt><trkpt lat="45.942782650871855" lon="12.090331947848076"><ele>265.0</ele><time>2026-03-26T05:29:38.999Z</time></trkpt><trkpt lat="45.94275766314472" lon="12.090447474695418"><ele>265.0</ele><time>2026-03-26T05:29:40.999Z</time></trkpt><trkpt lat="45.94283000261647" lon="12.090561370852502"><ele>265.0</ele><time>2026-03-26T05:29:42.999Z</time></trkpt><trkpt lat="45.94289926649273" lon="12.090641437858675"><ele>265.0</ele><time>2026-03-26T05:29:44.999Z</time></trkpt><trkpt lat="45.94295269306587" lon="12.090724957344806"><ele>265.0</ele><time>2026-03-26T05:30:04.999Z</time></trkpt><trkpt lat="45.942993117685475" lon="12.090827480021272"><ele>265.0</ele><time>2026-03-26T05:30:06.999Z</time></trkpt><trkpt lat="45.94295425023433" lon="12.090921359795948"><ele>265.0</ele><time>2026-03-26T05:30:09.999Z</time></trkpt><trkpt lat="45.942854214138706" lon="12.091008530554001"><ele>265.0</ele><time>2026-03-26T05:30:12Z</time></trkpt><trkpt lat="45.94276582564465" lon="12.091097567253142"><ele>264.4</ele><time>2026-03-26T05:30:14Z</time></trkpt><trkpt lat="45.94269718187179" lon="12.091185514396452"><ele>263.8</ele><time>2026-03-26T05:30:16Z</time></trkpt><trkpt lat="45.94260891345394" lon="12.091088672390347"><ele>263.2</ele><time>2026-03-26T05:30:21Z</time></trkpt><trkpt lat="45.942542482799055" lon="12.090987412797466"><ele>262.6</ele><time>2026-03-26T05:30:23Z</time></trkpt><trkpt lat="45.94246347693888" lon="12.090979409445502"><ele>262.0</ele><time>2026-03-26T05:30:43Z</time></trkpt><trkpt lat="45.94242750354998" lon="12.090859308363518"><ele>261.8</ele><time>2026-03-26T05:30:46Z</time></trkpt><trkpt lat="45.9423578256245" lon="12.090712031674668"><ele>261.6</ele><time>2026-03-26T05:30:48Z</time></trkpt><trkpt lat="45.94228077419587" lon="12.090599697160584"><ele>261.40000000000003</ele><time>2026-03-26T05:30:50Z</time></trkpt><trkpt lat="45.94223789822635" lon="12.090530013093504"><ele>261.2</ele><time>2026-03-26T05:30:51Z</time></trkpt><trkpt lat="45.94219029976562" lon="12.090446048465074"><ele>261.0</ele><time>2026-03-26T05:30:52Z</time></trkpt><trkpt lat="45.94213510490058" lon="12.090367891778527"><ele>261.0</ele><time>2026-03-26T05:30:53Z</time></trkpt><trkpt lat="45.9420889207998" lon="12.090297883103899"><ele>261.0</ele><time>2026-03-26T05:30:54Z</time></trkpt><trkpt lat="45.942043021076415" lon="12.090193421552847"><ele>261.0</ele><time>2026-03-26T05:30:56Z</time></trkpt><trkpt lat="45.94199903785764" lon="12.09012321718459"><ele>261.0</ele><time>2026-03-26T05:30:59.999Z</time></trkpt><trkpt lat="45.94195876913203" lon="12.090052014835221"><ele>261.0</ele><time>2026-03-26T05:31:25.999Z</time></trkpt><trkpt lat="45.94192356348384" lon="12.08995629240272"><ele>261.0</ele><time>2026-03-26T05:31:27.999Z</time></trkpt><trkpt lat="45.9418606705668" lon="12.089961019483713"><ele>261.0</ele><time>2026-03-26T05:32:25Z</time></trkpt><trkpt lat="45.94179824340929" lon="12.08994562014568"><ele>261.0</ele><time>2026-03-26T05:32:28Z</time></trkpt><trkpt lat="45.94175033484849" lon="12.090030771420999"><ele>261.0</ele><time>2026-03-26T05:32:30Z</time></trkpt><trkpt lat="45.9416508430336" lon="12.090142210922751"><ele>261.0</ele><time>2026-03-26T05:32:32Z</time></trkpt><trkpt lat="45.941554248367325" lon="12.090268835983661"><ele>261.0</ele><time>2026-03-26T05:32:34Z</time></trkpt><trkpt lat="45.941506884800575" lon="12.09033871640992"><ele>261.0</ele><time>2026-03-26T05:32:35Z</time></trkpt><trkpt lat="45.941447429826745" lon="12.090426436556012"><ele>261.0</ele><time>2026-03-26T05:32:37Z</time></trkpt><trkpt lat="45.94140171167985" lon="12.090522577171704"><ele>261.0</ele><time>2026-03-26T05:32:57Z</time></trkpt><trkpt lat="45.94131588115801" lon="12.090604244688777"><ele>261.0</ele><time>2026-03-26T05:32:58.999Z</time></trkpt><trkpt lat="45.94125800657258" lon="12.09068361971624"><ele>261.0</ele><time>2026-03-26T05:33:00.999Z</time></trkpt><trkpt lat="45.9412080125731" lon="12.090788595742962"><ele>261.0</ele><time>2026-03-26T05:34:31Z</time></trkpt><trkpt lat="45.94112192454192" lon="12.090904400121385"><ele>260.0</ele><time>2026-03-26T05:34:33Z</time></trkpt><trkpt lat="45.941074074171354" lon="12.090968116786144"><ele>259.0</ele><time>2026-03-26T05:34:34Z</time></trkpt><trkpt lat="45.94102554507332" lon="12.091032255538684"><ele>258.0</ele><time>2026-03-26T05:34:35Z</time></trkpt><trkpt lat="45.940959871485" lon="12.091122408003873"><ele>257.0</ele><time>2026-03-26T05:34:37Z</time></trkpt><trkpt lat="45.940883483382976" lon="12.091171376138767"><ele>256.0</ele><time>2026-03-26T05:34:57.999Z</time></trkpt><trkpt lat="45.9407987576907" lon="12.091263265283681"><ele>255.0</ele><time>2026-03-26T05:34:59.999Z</time></trkpt><trkpt lat="45.9407018691884" lon="12.091363863515289"><ele>254.33333333333334</ele><time>2026-03-26T05:35:01.999Z</time></trkpt><trkpt lat="45.9406469092651" lon="12.091422048158094"><ele>253.66666666666669</ele><time>2026-03-26T05:35:02.999Z</time></trkpt><trkpt lat="45.9405821780965" lon="12.09148506651274"><ele>253.0</ele><time>2026-03-26T05:35:03.999Z</time></trkpt><trkpt lat="45.94052244537144" lon="12.091543995261011"><ele>252.33333333333334</ele><time>2026-03-26T05:35:04.999Z</time></trkpt><trkpt lat="45.94044979267779" lon="12.091608479781284"><ele>251.66666666666669</ele><time>2026-03-26T05:35:06.999Z</time></trkpt><trkpt lat="45.940389157028015" lon="12.091684382150477"><ele>251.0</ele><time>2026-03-26T05:35:34.999Z</time></trkpt><trkpt lat="45.94032375350556" lon="12.091751739667107"><ele>250.83333333333334</ele><time>2026-03-26T05:35:35.999Z</time></trkpt><trkpt lat="45.940268498828324" lon="12.09180884185076"><ele>250.66666666666669</ele><time>2026-03-26T05:35:36.999Z</time></trkpt><trkpt lat="45.94021491505984" lon="12.091884438979024"><ele>250.5</ele><time>2026-03-26T05:35:37.999Z</time></trkpt><trkpt lat="45.940296726415575" lon="12.092072469700716"><ele>250.33333333333331</ele><time>2026-03-26T05:35:40.999Z</time></trkpt><trkpt lat="45.940331696552754" lon="12.092151595499619"><ele>250.16666666666666</ele><time>2026-03-26T05:35:41.999Z</time></trkpt><trkpt lat="45.9403737209471" lon="12.0922198024074"><ele>250.0</ele><time>2026-03-26T05:35:42.999Z</time></trkpt><trkpt lat="45.940418362992354" lon="12.092291691793388"><ele>250.0</ele><time>2026-03-26T05:35:43.999Z</time></trkpt><trkpt lat="45.940464199053054" lon="12.092375325669995"><ele>250.0</ele><time>2026-03-26T05:35:44.999Z</time></trkpt><trkpt lat="45.940516134056665" lon="12.092473900920682"><ele>250.0</ele><time>2026-03-26T05:35:45.999Z</time></trkpt><trkpt lat="45.940574366343114" lon="12.092579788992902"><ele>250.0</ele><time>2026-03-26T05:35:46.999Z</time></trkpt><trkpt lat="45.94063811588621" lon="12.092699671157446"><ele>250.0</ele><time>2026-03-26T05:35:47.999Z</time></trkpt><trkpt lat="45.94071002876699" lon="12.092825604121522"><ele>250.0</ele><time>2026-03-26T05:35:48.999Z</time></trkpt><trkpt lat="45.940787451275554" lon="12.09295173970246"><ele>250.0</ele><time>2026-03-26T05:35:49.999Z</time></trkpt><trkpt lat="45.940864548898276" lon="12.093094913069185"><ele>250.0</ele><time>2026-03-26T05:35:50.999Z</time></trkpt><trkpt lat="45.94094092306209" lon="12.093225205686082"><ele>250.0</ele><time>2026-03-26T05:35:51.999Z</time></trkpt><trkpt lat="45.94102141319472" lon="12.093348532232772"><ele>249.75</ele><time>2026-03-26T05:35:52.999Z</time></trkpt><trkpt lat="45.941102856992806" lon="12.09346378757663"><ele>249.5</ele><time>2026-03-26T05:35:53.999Z</time></trkpt><trkpt lat="45.94118117280234" lon="12.093571778996601"><ele>249.25</ele><time>2026-03-26T05:35:54.999Z</time></trkpt><trkpt lat="45.94126237303048" lon="12.093683249848493"><ele>249.0</ele><time>2026-03-26T05:35:55.999Z</time></trkpt><trkpt lat="45.94134700177669" lon="12.093794814003479"><ele>249.0</ele><time>2026-03-26T05:35:56.999Z</time></trkpt><trkpt lat="45.94142409790639" lon="12.093903724959388"><ele>248.99999999999997</ele><time>2026-03-26T05:35:57.999Z</time></trkpt><trkpt lat="45.94149988413374" lon="12.094009491716932"><ele>248.99999999999997</ele><time>2026-03-26T05:35:58.999Z</time></trkpt><trkpt lat="45.94158008827919" lon="12.094114879926911"><ele>249.0</ele><time>2026-03-26T05:35:59.999Z</time></trkpt><trkpt lat="45.94165672154088" lon="12.094215889944127"><ele>249.0</ele><time>2026-03-26T05:36:00.999Z</time></trkpt><trkpt lat="45.94172390467769" lon="12.09430491007119"><ele>249.33333333333334</ele><time>2026-03-26T05:36:01.999Z</time></trkpt><trkpt lat="45.94178088637686" lon="12.094372643897968"><ele>249.66666666666669</ele><time>2026-03-26T05:36:02.999Z</time></trkpt><trkpt lat="45.94185643130415" lon="12.094461141885416"><ele>250.0</ele><time>2026-03-26T05:36:04.999Z</time></trkpt><trkpt lat="45.94195956810896" lon="12.09435661981474"><ele>250.33333333333334</ele><time>2026-03-26T05:36:05.999Z</time></trkpt><trkpt lat="45.942010764861614" lon="12.094284130514486"><ele>250.66666666666669</ele><time>2026-03-26T05:36:06.999Z</time></trkpt><trkpt lat="45.94206644903552" lon="12.094203404559881"><ele>251.0</ele><time>2026-03-26T05:36:07.999Z</time></trkpt><trkpt lat="45.9421280840283" lon="12.094127890069961"><ele>250.83333333333334</ele><time>2026-03-26T05:36:08.999Z</time></trkpt><trkpt lat="45.942196266999794" lon="12.0940494520832"><ele>250.66666666666669</ele><time>2026-03-26T05:36:09.999Z</time></trkpt><trkpt lat="45.94226955871104" lon="12.093968791341636"><ele>250.5</ele><time>2026-03-26T05:36:10.999Z</time></trkpt><trkpt lat="45.94234269207155" lon="12.093884338919759"><ele>250.33333333333331</ele><time>2026-03-26T05:36:11.999Z</time></trkpt><trkpt lat="45.94241070182338" lon="12.093806848106398"><ele>250.16666666666666</ele><time>2026-03-26T05:36:12.999Z</time></trkpt><trkpt lat="45.942474961434996" lon="12.093729332117737"><ele>250.0</ele><time>2026-03-26T05:36:13.999Z</time></trkpt><trkpt lat="45.9425304915098" lon="12.093659245038788"><ele>250.49999999999997</ele><time>2026-03-26T05:36:14.999Z</time></trkpt><trkpt lat="45.9426102586105" lon="12.093586578127196"><ele>251.0</ele><time>2026-03-26T05:36:16.999Z</time></trkpt><trkpt lat="45.94266196353002" lon="12.093532090432642"><ele>251.5</ele><time>2026-03-26T05:36:20.999Z</time></trkpt><trkpt lat="45.94260170274534" lon="12.093580483167894"><ele>252.0</ele><time>2026-03-26T05:36:58.999Z</time></trkpt><trkpt lat="45.9425534796313" lon="12.093651631311127"><ele>252.49999999999997</ele><time>2026-03-26T05:37:05.999Z</time></trkpt><trkpt lat="45.942622322764834" lon="12.093561401668621"><ele>253.0</ele><time>2026-03-26T05:37:10.999Z</time></trkpt><trkpt lat="45.942678608943666" lon="12.093499616022516"><ele>253.00000000000003</ele><time>2026-03-26T05:37:12.999Z</time></trkpt><trkpt lat="45.94273043188615" lon="12.093442852770707"><ele>253.0</ele><time>2026-03-26T05:37:14.999Z</time></trkpt><trkpt lat="45.942780642308094" lon="12.093377399441085"><ele>253.00000000000003</ele><time>2026-03-26T05:37:16.999Z</time></trkpt><trkpt lat="45.94283628930171" lon="12.093309731935522"><ele>253.00000000000003</ele><time>2026-03-26T05:37:18.999Z</time></trkpt><trkpt lat="45.942893286403354" lon="12.093242029803752"><ele>253.0</ele><time>2026-03-26T05:37:20.999Z</time></trkpt><trkpt lat="45.94294815146026" lon="12.093176975397377"><ele>253.00000000000003</ele><time>2026-03-26T05:37:22.999Z</time></trkpt><trkpt lat="45.94300261595695" lon="12.093111819701834"><ele>253.00000000000003</ele><time>2026-03-26T05:37:24.999Z</time></trkpt><trkpt lat="45.943059709638845" lon="12.093053309587807"><ele>253.49999999999997</ele><time>2026-03-26T05:37:26.999Z</time></trkpt><trkpt lat="45.94311922818149" lon="12.093002017743276"><ele>254.0</ele><time>2026-03-26T05:37:28.999Z</time></trkpt><trkpt lat="45.94319349990386" lon="12.092946550196734"><ele>254.5</ele><time>2026-03-26T05:37:31.999Z</time></trkpt><trkpt lat="45.94326220948793" lon="12.092907209259593"><ele>255.0</ele><time>2026-03-26T05:37:34.999Z</time></trkpt><trkpt lat="45.94317692530178" lon="12.092974207291036"><ele>255.49999999999997</ele><time>2026-03-26T05:37:45.999Z</time></trkpt><trkpt lat="45.94306856072595" lon="12.093048000815953"><ele>256.0</ele><time>2026-03-26T05:37:47.999Z</time></trkpt><trkpt lat="45.94296505914096" lon="12.093129263152345"><ele>255.99999999999997</ele><time>2026-03-26T05:37:49.999Z</time></trkpt><trkpt lat="45.9428851774228" lon="12.09321014841043"><ele>256.0</ele><time>2026-03-26T05:37:51.999Z</time></trkpt><trkpt lat="45.94283890924592" lon="12.093271679692966"><ele>256.0</ele><time>2026-03-26T05:38:10.999Z</time></trkpt><trkpt lat="45.94280008804724" lon="12.093344250056045"><ele>256.0</ele><time>2026-03-26T05:38:38Z</time></trkpt><trkpt lat="45.94270176829867" lon="12.093466047152114"><ele>255.99999999999997</ele><time>2026-03-26T05:38:40Z</time></trkpt><trkpt lat="45.94264546804402" lon="12.093524001208293"><ele>256.0</ele><time>2026-03-26T05:38:41Z</time></trkpt><trkpt lat="45.9425741587201" lon="12.093566876615723"><ele>254.8</ele><time>2026-03-26T05:38:42Z</time></trkpt><trkpt lat="45.94251900459276" lon="12.093658136931165"><ele>253.60000000000002</ele><time>2026-03-26T05:38:43Z</time></trkpt><trkpt lat="45.94244086721267" lon="12.093740184682712"><ele>252.4</ele><time>2026-03-26T05:38:44Z</time></trkpt><trkpt lat="45.94234886671477" lon="12.093818932776665"><ele>251.2</ele><time>2026-03-26T05:38:45Z</time></trkpt><trkpt lat="45.94226599862549" lon="12.093910128939843"><ele>250.0</ele><time>2026-03-26T05:38:46Z</time></trkpt><trkpt lat="45.942184222911415" lon="12.094000122934922"><ele>249.99999999999997</ele><time>2026-03-26T05:38:47Z</time></trkpt><trkpt lat="45.94210157425052" lon="12.094088245762803"><ele>250.0</ele><time>2026-03-26T05:38:48Z</time></trkpt><trkpt lat="45.94202097615872" lon="12.094171646260309"><ele>250.0</ele><time>2026-03-26T05:38:49Z</time></trkpt><trkpt lat="45.94196031392241" lon="12.09426020189746"><ele>250.0</ele><time>2026-03-26T05:38:50Z</time></trkpt><trkpt lat="45.94189453492603" lon="12.09430881861161"><ele>249.99999999999997</ele><time>2026-03-26T05:38:51Z</time></trkpt><trkpt lat="45.941824236532895" lon="12.094322462207787"><ele>250.0</ele><time>2026-03-26T05:38:53Z</time></trkpt><trkpt lat="45.941714167375295" lon="12.094226869317284"><ele>249.83333333333331</ele><time>2026-03-26T05:38:55.999Z</time></trkpt><trkpt lat="45.9416652556564" lon="12.09415184125902"><ele>249.66666666666666</ele><time>2026-03-26T05:38:56.999Z</time></trkpt><trkpt lat="45.941621095936696" lon="12.094083912387724"><ele>249.5</ele><time>2026-03-26T05:38:57.999Z</time></trkpt><trkpt lat="45.94157182440722" lon="12.094015353596255"><ele>249.33333333333331</ele><time>2026-03-26T05:38:58.999Z</time></trkpt><trkpt lat="45.941516221516835" lon="12.0939377912053"><ele>249.16666666666666</ele><time>2026-03-26T05:38:59.999Z</time></trkpt><trkpt lat="45.94145123148438" lon="12.09384856935315"><ele>249.0</ele><time>2026-03-26T05:39:00.999Z</time></trkpt><trkpt lat="45.94137859376181" lon="12.09375307433155"><ele>249.0</ele><time>2026-03-26T05:39:01.999Z</time></trkpt><trkpt lat="45.94129920070145" lon="12.093650968134071"><ele>248.99999999999997</ele><time>2026-03-26T05:39:02.999Z</time></trkpt><trkpt lat="45.941221855326646" lon="12.093546312462218"><ele>248.99999999999997</ele><time>2026-03-26T05:39:03.999Z</time></trkpt><trkpt lat="45.94114855940264" lon="12.09344236360266"><ele>249.0</ele><time>2026-03-26T05:39:04.999Z</time></trkpt><trkpt lat="45.941075848595545" lon="12.093334426584578"><ele>249.0</ele><time>2026-03-26T05:39:05.999Z</time></trkpt><trkpt lat="45.94100181203686" lon="12.093220611982009"><ele>249.0</ele><time>2026-03-26T05:39:06.999Z</time></trkpt><trkpt lat="45.94092470116834" lon="12.093097374296306"><ele>249.0</ele><time>2026-03-26T05:39:07.999Z</time></trkpt><trkpt lat="45.94084551612076" lon="12.092969551844424"><ele>249.0</ele><time>2026-03-26T05:39:08.999Z</time></trkpt><trkpt lat="45.94077118000314" lon="12.09283711222877"><ele>249.0</ele><time>2026-03-26T05:39:09.999Z</time></trkpt><trkpt lat="45.940701886466364" lon="12.092704576301836"><ele>249.0</ele><time>2026-03-26T05:39:10.999Z</time></trkpt><trkpt lat="45.940634340405865" lon="12.09256561780176"><ele>248.99999999999997</ele><time>2026-03-26T05:39:11.999Z</time></trkpt><trkpt lat="45.94056343825645" lon="12.092438863300195"><ele>248.99999999999997</ele><time>2026-03-26T05:39:12.999Z</time></trkpt><trkpt lat="45.94049717934695" lon="12.092319688365953"><ele>249.0</ele><time>2026-03-26T05:39:13.999Z</time></trkpt><trkpt lat="45.9404355812402" lon="12.092211092625691"><ele>249.0</ele><time>2026-03-26T05:39:14.999Z</time></trkpt><trkpt lat="45.940385767289065" lon="12.092114051421756"><ele>249.2</ele><time>2026-03-26T05:39:15.999Z</time></trkpt><trkpt lat="45.94034783808815" lon="12.092035621841175"><ele>249.39999999999998</ele><time>2026-03-26T05:39:16.999Z</time></trkpt><trkpt lat="45.94030683374727" lon="12.091948190317927"><ele>249.6</ele><time>2026-03-26T05:39:18.999Z</time></trkpt><trkpt lat="45.940378374530304" lon="12.091775780664666"><ele>249.8</ele><time>2026-03-26T05:39:23.999Z</time></trkpt><trkpt lat="45.940472695169625" lon="12.091694212412158"><ele>250.0</ele><time>2026-03-26T05:39:25.999Z</time></trkpt><trkpt lat="45.940562620874374" lon="12.091609984266215"><ele>250.16666666666666</ele><time>2026-03-26T05:39:27.999Z</time></trkpt><trkpt lat="45.94066310315973" lon="12.091514224248662"><ele>250.33333333333331</ele><time>2026-03-26T05:39:29.999Z</time></trkpt><trkpt lat="45.94071939829616" lon="12.0914594910214"><ele>250.5</ele><time>2026-03-26T05:39:30.999Z</time></trkpt><trkpt lat="45.940780459352965" lon="12.09140314653805"><ele>250.66666666666669</ele><time>2026-03-26T05:39:31.999Z</time></trkpt><trkpt lat="45.94084452626219" lon="12.091340116832994"><ele>250.83333333333334</ele><time>2026-03-26T05:39:32.999Z</time></trkpt><trkpt lat="45.94091040921498" lon="12.091267104561393"><ele>251.0</ele><time>2026-03-26T05:39:33.999Z</time></trkpt><trkpt lat="45.94097657171392" lon="12.09118577173471"><ele>251.8</ele><time>2026-03-26T05:39:34.999Z</time></trkpt><trkpt lat="45.941046683064215" lon="12.091097309494264"><ele>252.60000000000002</ele><time>2026-03-26T05:39:35.999Z</time></trkpt><trkpt lat="45.94111795874725" lon="12.090998794013801"><ele>253.4</ele><time>2026-03-26T05:39:36.999Z</time></trkpt><trkpt lat="45.94119110355989" lon="12.090895763202836"><ele>254.2</ele><time>2026-03-26T05:39:37.999Z</time></trkpt><trkpt lat="45.94126188852855" lon="12.090792648234508"><ele>255.0</ele><time>2026-03-26T05:39:38.999Z</time></trkpt><trkpt lat="45.941323443507635" lon="12.090696934735199"><ele>256.0</ele><time>2026-03-26T05:39:39.999Z</time></trkpt><trkpt lat="45.94138354816858" lon="12.090605239302153"><ele>257.0</ele><time>2026-03-26T05:39:40.999Z</time></trkpt><trkpt lat="45.94144489700534" lon="12.090513778441494"><ele>258.0</ele><time>2026-03-26T05:39:41.999Z</time></trkpt><trkpt lat="45.94150576230592" lon="12.090425317682126"><ele>259.0</ele><time>2026-03-26T05:39:42.999Z</time></trkpt><trkpt lat="45.94156520978445" lon="12.090339527015349"><ele>260.0</ele><time>2026-03-26T05:39:43.999Z</time></trkpt><trkpt lat="45.941623725486345" lon="12.090257030550571"><ele>261.0</ele><time>2026-03-26T05:39:44.999Z</time></trkpt><trkpt lat="45.94167871494283" lon="12.090181662770368"><ele>261.0</ele><time>2026-03-26T05:39:45.999Z</time></trkpt><trkpt lat="45.94172640544549" lon="12.090117180582025"><ele>261.0</ele><time>2026-03-26T05:39:46.999Z</time></trkpt><trkpt lat="45.94177363977229" lon="12.090041910204649"><ele>261.0</ele><time>2026-03-26T05:39:47.999Z</time></trkpt><trkpt lat="45.94182812171763" lon="12.089959148202594"><ele>261.0</ele><time>2026-03-26T05:39:49.999Z</time></trkpt><trkpt lat="45.94185715215923" lon="12.089860879535292"><ele>261.0</ele><time>2026-03-26T05:40:12.999Z</time></trkpt><trkpt lat="45.941896574386135" lon="12.089769079639925"><ele>261.0</ele><time>2026-03-26T05:40:14.999Z</time></trkpt><trkpt lat="45.94195754433683" lon="12.089681134644012"><ele>262.0</ele><time>2026-03-26T05:40:16.999Z</time></trkpt><trkpt lat="45.94201051432752" lon="12.089562631241304"><ele>263.0</ele><time>2026-03-26T05:40:18.999Z</time></trkpt><trkpt lat="45.94209712443756" lon="12.089472932683682"><ele>264.0</ele><time>2026-03-26T05:40:20.999Z</time></trkpt><trkpt lat="45.94216505574521" lon="12.089366409082432"><ele>265.0</ele><time>2026-03-26T05:40:22.999Z</time></trkpt><trkpt lat="45.94218854595965" lon="12.089230203032688"><ele>266.0</ele><time>2026-03-26T05:40:25.999Z</time></trkpt><trkpt lat="45.94220047871362" lon="12.089106158316111"><ele>266.5</ele><time>2026-03-26T05:40:55.999Z</time></trkpt><trkpt lat="45.94221195120573" lon="12.088977249515784"><ele>267.0</ele><time>2026-03-26T05:40:57.999Z</time></trkpt><trkpt lat="45.94221890943023" lon="12.0888327016518"><ele>267.5</ele><time>2026-03-26T05:40:59.999Z</time></trkpt><trkpt lat="45.94222713372098" lon="12.088735743874079"><ele>268.0</ele><time>2026-03-26T05:41:29.999Z</time></trkpt><trkpt lat="45.94216156204001" lon="12.088709434134909"><ele>268.5</ele><time>2026-03-26T05:41:35.999Z</time></trkpt><trkpt lat="45.94212156862924" lon="12.0886279677205"><ele>269.0</ele><time>2026-03-26T05:41:39.999Z</time></trkpt><trkpt lat="45.94207235824624" lon="12.088519120371148"><ele>269.0</ele><time>2026-03-26T05:41:41.999Z</time></trkpt><trkpt lat="45.94202932575284" lon="12.088385508291543"><ele>269.0</ele><time>2026-03-26T05:41:44Z</time></trkpt><trkpt lat="45.941964409777434" lon="12.088259314727397"><ele>269.0</ele><time>2026-03-26T05:42:14Z</time></trkpt><trkpt lat="45.94195304014532" lon="12.088168584131235"><ele>269.0</ele><time>2026-03-26T05:42:19Z</time></trkpt><trkpt lat="45.94191747158845" lon="12.08807809794945"><ele>269.0</ele><time>2026-03-26T05:42:37.999Z</time></trkpt><trkpt lat="45.94185093644303" lon="12.087977897071365"><ele>269.0</ele><time>2026-03-26T05:42:41.999Z</time></trkpt><trkpt lat="45.94181359747127" lon="12.08789346946134"><ele>269.0</ele><time>2026-03-26T05:42:44.999Z</time></trkpt><trkpt lat="45.94177398451065" lon="12.087791197045917"><ele>269.0</ele><time>2026-03-26T05:42:49Z</time></trkpt><trkpt lat="45.94183896202" lon="12.087806112247511"><ele>269.0</ele><time>2026-03-26T05:43:05Z</time></trkpt><trkpt lat="45.941853479480635" lon="12.087916413863693"><ele>269.0</ele><time>2026-03-26T05:43:09Z</time></trkpt><trkpt lat="45.94189018130797" lon="12.08799081261612"><ele>269.0</ele><time>2026-03-26T05:43:11Z</time></trkpt><trkpt lat="45.941956729404154" lon="12.088083347233294"><ele>269.0</ele><time>2026-03-26T05:43:13Z</time></trkpt><trkpt lat="45.94197688970248" lon="12.088171416370564"><ele>269.0</ele><time>2026-03-26T05:43:16Z</time></trkpt><trkpt lat="45.94199907239881" lon="12.088283037120116"><ele>269.0</ele><time>2026-03-26T05:43:19Z</time></trkpt><trkpt lat="45.94203746613262" lon="12.088422867040274"><ele>269.0</ele><time>2026-03-26T05:43:21Z</time></trkpt><trkpt lat="45.94209135304426" lon="12.088542491472895"><ele>269.0</ele><time>2026-03-26T05:43:23Z</time></trkpt><trkpt lat="45.942012556606784" lon="12.08864199540655"><ele>269.0</ele><time>2026-03-26T05:43:28Z</time></trkpt><trkpt lat="45.941930618749694" lon="12.088681735272559"><ele>269.0</ele><time>2026-03-26T05:43:30Z</time></trkpt><trkpt lat="45.941829978364275" lon="12.088776296059137"><ele>269.0</ele><time>2026-03-26T05:43:32Z</time></trkpt><trkpt lat="45.94171910461093" lon="12.088842634593435"><ele>269.0</ele><time>2026-03-26T05:43:34Z</time></trkpt><trkpt lat="45.94164140324975" lon="12.088916473174187"><ele>269.0</ele><time>2026-03-26T05:43:36Z</time></trkpt><trkpt lat="45.941583929933394" lon="12.08897347321057"><ele>269.0</ele><time>2026-03-26T05:43:51Z</time></trkpt><trkpt lat="45.94151319464505" lon="12.08905029051112"><ele>269.0</ele><time>2026-03-26T05:43:53Z</time></trkpt><trkpt lat="45.94146747934473" lon="12.089118628564567"><ele>269.0</ele><time>2026-03-26T05:43:56Z</time></trkpt><trkpt lat="45.94147849160169" lon="12.089223014322702"><ele>267.8</ele><time>2026-03-26T05:44:04Z</time></trkpt><trkpt lat="45.9415582643134" lon="12.089323764997294"><ele>266.59999999999997</ele><time>2026-03-26T05:44:06Z</time></trkpt><trkpt lat="45.9416258664244" lon="12.089464289999786"><ele>265.4</ele><time>2026-03-26T05:44:08Z</time></trkpt><trkpt lat="45.94168343799737" lon="12.089598742760352"><ele>264.2</ele><time>2026-03-26T05:44:10Z</time></trkpt><trkpt lat="45.941674157103634" lon="12.089487617650022"><ele>263.0</ele><time>2026-03-26T05:44:32Z</time></trkpt><trkpt lat="45.94161323003695" lon="12.089362984139289"><ele>263.0</ele><time>2026-03-26T05:44:34Z</time></trkpt><trkpt lat="45.941547159622424" lon="12.089239214602292"><ele>263.0</ele><time>2026-03-26T05:44:36Z</time></trkpt><trkpt lat="45.941495034044806" lon="12.089168311520137"><ele>263.0</ele><time>2026-03-26T05:44:59Z</time></trkpt><trkpt lat="45.941407462996466" lon="12.089042072653717"><ele>263.0</ele><time>2026-03-26T05:45:01Z</time></trkpt><trkpt lat="45.941357858665846" lon="12.08897344991844"><ele>263.0</ele><time>2026-03-26T05:45:02Z</time></trkpt><trkpt lat="45.94131110420725" lon="12.088910369879123"><ele>263.0</ele><time>2026-03-26T05:45:04Z</time></trkpt><trkpt lat="45.941249266085414" lon="12.088838536755784"><ele>263.6</ele><time>2026-03-26T05:45:44Z</time></trkpt><trkpt lat="45.94117965666225" lon="12.088748753415619"><ele>264.20000000000005</ele><time>2026-03-26T05:45:46Z</time></trkpt><trkpt lat="45.94111220003854" lon="12.088631486233611"><ele>264.8</ele><time>2026-03-26T05:45:48Z</time></trkpt><trkpt lat="45.941046974179564" lon="12.088504045746392"><ele>265.40000000000003</ele><time>2026-03-26T05:45:50Z</time></trkpt><trkpt lat="45.94096568309366" lon="12.0883609205485"><ele>266.0</ele><time>2026-03-26T05:45:52Z</time></trkpt><trkpt lat="45.94092047278111" lon="12.088279882267905"><ele>265.83333333333337</ele><time>2026-03-26T05:45:53Z</time></trkpt><trkpt lat="45.940879389985426" lon="12.088201074061452"><ele>265.6666666666667</ele><time>2026-03-26T05:45:54Z</time></trkpt><trkpt lat="45.94083713654079" lon="12.088117101046718"><ele>265.5</ele><time>2026-03-26T05:45:55Z</time></trkpt><trkpt lat="45.940791152608796" lon="12.088030108953063"><ele>265.3333333333333</ele><time>2026-03-26T05:45:56Z</time></trkpt><trkpt lat="45.94075313741527" lon="12.087948501814397"><ele>265.16666666666663</ele><time>2026-03-26T05:45:57Z</time></trkpt><trkpt lat="45.940694905482815" lon="12.087835176126028"><ele>265.0</ele><time>2026-03-26T05:45:59Z</time></trkpt><trkpt lat="45.94071203707997" lon="12.087723607285733"><ele>265.0</ele><time>2026-03-26T05:46:02Z</time></trkpt><trkpt lat="45.9407759184695" lon="12.087663736017465"><ele>265.0</ele><time>2026-03-26T05:46:04Z</time></trkpt><trkpt lat="45.940875753834256" lon="12.087547418610367"><ele>265.0</ele><time>2026-03-26T05:46:06Z</time></trkpt><trkpt lat="45.940951275988034" lon="12.087452940586243"><ele>265.0</ele><time>2026-03-26T05:46:08Z</time></trkpt><trkpt lat="45.94101586941438" lon="12.087353081039861"><ele>265.0</ele><time>2026-03-26T05:46:10Z</time></trkpt><trkpt lat="45.94107207761913" lon="12.087258846866836"><ele>266.4</ele><time>2026-03-26T05:46:13Z</time></trkpt><trkpt lat="45.94113110776757" lon="12.08717327438588"><ele>267.8</ele><time>2026-03-26T05:46:32Z</time></trkpt><trkpt lat="45.94122133571968" lon="12.08707221633882"><ele>269.2</ele><time>2026-03-26T05:46:34Z</time></trkpt><trkpt lat="45.94133268037597" lon="12.086979246657107"><ele>270.6</ele><time>2026-03-26T05:46:36Z</time></trkpt><trkpt lat="45.94143011967225" lon="12.08688136888745"><ele>272.0</ele><time>2026-03-26T05:46:37.999Z</time></trkpt><trkpt lat="45.941488155696696" lon="12.086807446518694"><ele>272.0</ele><time>2026-03-26T05:46:39.999Z</time></trkpt><trkpt lat="45.94154420033025" lon="12.08676502088842"><ele>272.0</ele><time>2026-03-26T05:46:44.999Z</time></trkpt><trkpt lat="45.941610114613134" lon="12.08672621289602"><ele>272.0</ele><time>2026-03-26T05:46:46.999Z</time></trkpt><trkpt lat="45.94167866078891" lon="12.086669521961616"><ele>272.0</ele><time>2026-03-26T05:46:48.999Z</time></trkpt><trkpt lat="45.941781402317076" lon="12.08661280164195"><ele>272.0</ele><time>2026-03-26T05:46:50.999Z</time></trkpt><trkpt lat="45.941850778051716" lon="12.086594235456497"><ele>272.0</ele><time>2026-03-26T05:46:52.999Z</time></trkpt><trkpt lat="45.94188536497141" lon="12.086694984754956"><ele>272.6666666666667</ele><time>2026-03-26T05:46:54.999Z</time></trkpt><trkpt lat="45.94193325409118" lon="12.08684021437688"><ele>273.33333333333337</ele><time>2026-03-26T05:46:56.999Z</time></trkpt><trkpt lat="45.94196751684486" lon="12.086920466093812"><ele>274.0</ele><time>2026-03-26T05:46:58Z</time></trkpt><trkpt lat="45.94200139659392" lon="12.087002790755557"><ele>274.6666666666667</ele><time>2026-03-26T05:46:59Z</time></trkpt><trkpt lat="45.942039468525294" lon="12.087092591887906"><ele>275.3333333333333</ele><time>2026-03-26T05:47:00Z</time></trkpt><trkpt lat="45.94207271288932" lon="12.087173138584566"><ele>276.0</ele><time>2026-03-26T05:47:01Z</time></trkpt><trkpt lat="45.94212666800128" lon="12.087257631205972"><ele>276.0</ele><time>2026-03-26T05:47:22Z</time></trkpt><trkpt lat="45.94211535231813" lon="12.087129236728991"><ele>276.0</ele><time>2026-03-26T05:48:17Z</time></trkpt><trkpt lat="45.942048580899105" lon="12.087008173776857"><ele>276.0</ele><time>2026-03-26T05:48:21Z</time></trkpt><trkpt lat="45.942015665234045" lon="12.08693055994151"><ele>276.0</ele><time>2026-03-26T05:48:22Z</time></trkpt><trkpt lat="45.94197740188352" lon="12.08685191971859"><ele>276.0</ele><time>2026-03-26T05:48:23Z</time></trkpt><trkpt lat="45.94192334230152" lon="12.086707269402822"><ele>276.0</ele><time>2026-03-26T05:48:25Z</time></trkpt><trkpt lat="45.94189479383803" lon="12.086576773318695"><ele>276.6666666666667</ele><time>2026-03-26T05:48:27Z</time></trkpt><trkpt lat="45.94190624164473" lon="12.086466868405896"><ele>277.3333333333333</ele><time>2026-03-26T05:48:31Z</time></trkpt><trkpt lat="45.941970936449906" lon="12.086342177047374"><ele>278.0</ele><time>2026-03-26T05:48:33Z</time></trkpt><trkpt lat="45.94203844576515" lon="12.0862229887187"><ele>278.66666666666663</ele><time>2026-03-26T05:48:35Z</time></trkpt><trkpt lat="45.942102974230366" lon="12.086156433929796"><ele>279.3333333333333</ele><time>2026-03-26T05:48:37Z</time></trkpt><trkpt lat="45.94215034932877" lon="12.086073830412452"><ele>280.0</ele><time>2026-03-26T05:48:38.999Z</time></trkpt><trkpt lat="45.94220462121967" lon="12.08598324922796"><ele>280.0</ele><time>2026-03-26T05:48:40.999Z</time></trkpt><trkpt lat="45.94226821341808" lon="12.08591323607044"><ele>280.0</ele><time>2026-03-26T05:49:04Z</time></trkpt><trkpt lat="45.94232597508552" lon="12.085815290570455"><ele>280.0</ele><time>2026-03-26T05:49:06Z</time></trkpt><trkpt lat="45.942415855916295" lon="12.085800914502622"><ele>280.0</ele><time>2026-03-26T05:49:08Z</time></trkpt><trkpt lat="45.942472348090874" lon="12.085851849860758"><ele>280.0</ele><time>2026-03-26T05:49:12Z</time></trkpt><trkpt lat="45.9425110806867" lon="12.085957753832615"><ele>280.0</ele><time>2026-03-26T05:49:34Z</time></trkpt><trkpt lat="45.94255270732515" lon="12.086043034020697"><ele>280.5</ele><time>2026-03-26T05:49:36Z</time></trkpt><trkpt lat="45.942623045425876" lon="12.086104624549408"><ele>281.0</ele><time>2026-03-26T05:49:38Z</time></trkpt><trkpt lat="45.94268975097622" lon="12.08618704938599"><ele>281.5</ele><time>2026-03-26T05:49:41Z</time></trkpt><trkpt lat="45.94273311212721" lon="12.086287399011733"><ele>282.0</ele><time>2026-03-26T05:49:43Z</time></trkpt><trkpt lat="45.942781421319374" lon="12.086414515147212"><ele>282.5</ele><time>2026-03-26T05:49:45Z</time></trkpt><trkpt lat="45.94283315993895" lon="12.086517350834594"><ele>283.0</ele><time>2026-03-26T05:49:47Z</time></trkpt><trkpt lat="45.9427861502114" lon="12.086406257889683"><ele>283.0</ele><time>2026-03-26T05:50:09Z</time></trkpt><trkpt lat="45.9427365215231" lon="12.086311243944952"><ele>283.0</ele><time>2026-03-26T05:50:11Z</time></trkpt><trkpt lat="45.942670239404386" lon="12.086175239089965"><ele>283.0</ele><time>2026-03-26T05:50:13Z</time></trkpt><trkpt lat="45.942608852473" lon="12.086058570764857"><ele>283.0</ele><time>2026-03-26T05:50:15Z</time></trkpt><trkpt lat="45.94251942235097" lon="12.08594265331433"><ele>283.0</ele><time>2026-03-26T05:50:17Z</time></trkpt><trkpt lat="45.942475550471286" lon="12.08585971500473"><ele>283.0</ele><time>2026-03-26T05:50:18Z</time></trkpt><trkpt lat="45.94242784174044" lon="12.085793337404757"><ele>283.0</ele><time>2026-03-26T05:50:19Z</time></trkpt><trkpt lat="45.942370699942394" lon="12.085745718874165"><ele>283.0</ele><time>2026-03-26T05:50:21Z</time></trkpt><trkpt lat="45.94244997427113" lon="12.085634145153005"><ele>283.0</ele><time>2026-03-26T05:50:27Z</time></trkpt><trkpt lat="45.94252153592984" lon="12.085539298936625"><ele>283.0</ele><time>2026-03-26T05:50:29Z</time></trkpt><trkpt lat="45.94261195572628" lon="12.08546497326569"><ele>283.0</ele><time>2026-03-26T05:50:31Z</time></trkpt><trkpt lat="45.94270720318098" lon="12.08540270700041"><ele>283.8</ele><time>2026-03-26T05:50:33Z</time></trkpt><trkpt lat="45.942793603840656" lon="12.085330165474653"><ele>284.6</ele><time>2026-03-26T05:50:35Z</time></trkpt><trkpt lat="45.94288445574813" lon="12.085266214854505"><ele>285.4</ele><time>2026-03-26T05:50:36.999Z</time></trkpt><trkpt lat="45.942976700713295" lon="12.085157460743735"><ele>286.2</ele><time>2026-03-26T05:50:38.999Z</time></trkpt><trkpt lat="45.94301717809454" lon="12.085080306598773"><ele>287.0</ele><time>2026-03-26T05:50:39.999Z</time></trkpt><trkpt lat="45.943083430627986" lon="12.084922912303908"><ele>287.8</ele><time>2026-03-26T05:50:41.999Z</time></trkpt><trkpt lat="45.943113739826096" lon="12.084832755134716"><ele>288.6</ele><time>2026-03-26T05:50:42.999Z</time></trkpt><trkpt lat="45.94316235551269" lon="12.084707719705936"><ele>289.40000000000003</ele><time>2026-03-26T05:50:44.999Z</time></trkpt><trkpt lat="45.94316965801039" lon="12.084587197400989"><ele>290.2</ele><time>2026-03-26T05:51:06.999Z</time></trkpt><trkpt lat="45.943212499917635" lon="12.084457389200189"><ele>291.0</ele><time>2026-03-26T05:51:08.999Z</time></trkpt><trkpt lat="45.943253572287574" lon="12.084326753011249"><ele>291.0</ele><time>2026-03-26T05:51:11Z</time></trkpt><trkpt lat="45.943280434190115" lon="12.084163601369564"><ele>291.0</ele><time>2026-03-26T05:51:13Z</time></trkpt><trkpt lat="45.943316429678546" lon="12.084039873269873"><ele>291.0</ele><time>2026-03-26T05:51:15Z</time></trkpt><trkpt lat="45.94336194599567" lon="12.083899063969783"><ele>291.0</ele><time>2026-03-26T05:51:17Z</time></trkpt><trkpt lat="45.94340758649638" lon="12.083769083669917"><ele>291.0</ele><time>2026-03-26T05:51:19Z</time></trkpt><trkpt lat="45.943455201170764" lon="12.083636319055216"><ele>292.6666666666667</ele><time>2026-03-26T05:51:21Z</time></trkpt><trkpt lat="45.94351424467488" lon="12.083517754351195"><ele>294.3333333333333</ele><time>2026-03-26T05:51:23Z</time></trkpt><trkpt lat="45.943560432923455" lon="12.083437532032331"><ele>296.0</ele><time>2026-03-26T05:51:26Z</time></trkpt><trkpt lat="45.94364690785663" lon="12.083483760255442"><ele>297.66666666666663</ele><time>2026-03-26T05:51:38Z</time></trkpt><trkpt lat="45.94372458936081" lon="12.083519629790363"><ele>299.3333333333333</ele><time>2026-03-26T05:51:40Z</time></trkpt><trkpt lat="45.94379119952424" lon="12.0835507019968"><ele>301.0</ele><time>2026-03-26T05:51:41Z</time></trkpt><trkpt lat="45.94389034796621" lon="12.08355089610458"><ele>301.0</ele><time>2026-03-26T05:51:43Z</time></trkpt><trkpt lat="45.94379576011527" lon="12.083520244536864"><ele>301.0</ele><time>2026-03-26T05:52:01Z</time></trkpt><trkpt lat="45.94370458427662" lon="12.083500666807266"><ele>301.0</ele><time>2026-03-26T05:52:03Z</time></trkpt><trkpt lat="45.9436344065254" lon="12.083468687033644"><ele>301.0</ele><time>2026-03-26T05:52:05Z</time></trkpt><trkpt lat="45.943600450411516" lon="12.083363848482529"><ele>301.0</ele><time>2026-03-26T05:52:10Z</time></trkpt><trkpt lat="45.943601423507" lon="12.083216318809765"><ele>301.0</ele><time>2026-03-26T05:52:12Z</time></trkpt><trkpt lat="45.943608670853344" lon="12.083049604068988"><ele>302.2857142857143</ele><time>2026-03-26T05:52:14Z</time></trkpt><trkpt lat="45.943596237001415" lon="12.082951035246184"><ele>303.57142857142856</ele><time>2026-03-26T05:52:15Z</time></trkpt><trkpt lat="45.94358838197255" lon="12.082856952554751"><ele>304.8571428571429</ele><time>2026-03-26T05:52:16Z</time></trkpt><trkpt lat="45.943576235448404" lon="12.0827621274353"><ele>306.1428571428571</ele><time>2026-03-26T05:52:17Z</time></trkpt><trkpt lat="45.94355703263212" lon="12.082663730425077"><ele>307.42857142857144</ele><time>2026-03-26T05:52:18Z</time></trkpt><trkpt lat="45.943513950292704" lon="12.082572645561209"><ele>308.7142857142857</ele><time>2026-03-26T05:52:19Z</time></trkpt><trkpt lat="45.94347165447328" lon="12.082496633520023"><ele>310.0</ele><time>2026-03-26T05:52:20Z</time></trkpt><trkpt lat="45.94342120723445" lon="12.082420068639939"><ele>311.14285714285717</ele><time>2026-03-26T05:52:21Z</time></trkpt><trkpt lat="45.94336981155612" lon="12.082365285236694"><ele>312.2857142857143</ele><time>2026-03-26T05:52:22Z</time></trkpt><trkpt lat="45.94330909479724" lon="12.082300813078133"><ele>313.42857142857144</ele><time>2026-03-26T05:52:23Z</time></trkpt><trkpt lat="45.94325624679569" lon="12.082240319020341"><ele>314.57142857142856</ele><time>2026-03-26T05:52:24Z</time></trkpt><trkpt lat="45.94320126947437" lon="12.082183197542868"><ele>315.7142857142857</ele><time>2026-03-26T05:52:25Z</time></trkpt><trkpt lat="45.94314841933398" lon="12.082125640653995"><ele>316.85714285714283</ele><time>2026-03-26T05:52:26Z</time></trkpt><trkpt lat="45.94308970909048" lon="12.08207190226746"><ele>318.0</ele><time>2026-03-26T05:52:27Z</time></trkpt><trkpt lat="45.9430308377219" lon="12.082020992274142"><ele>318.0</ele><time>2026-03-26T05:52:28Z</time></trkpt><trkpt lat="45.942984300022125" lon="12.081947230048744"><ele>318.0</ele><time>2026-03-26T05:52:28.999Z</time></trkpt><trkpt lat="45.942886482681246" lon="12.081870914491914"><ele>318.0</ele><time>2026-03-26T05:52:30.999Z</time></trkpt><trkpt lat="45.94290901015112" lon="12.081770975608407"><ele>318.0</ele><time>2026-03-26T05:52:32.999Z</time></trkpt><trkpt lat="45.942981546293794" lon="12.081744345132224"><ele>318.0</ele><time>2026-03-26T05:52:34.999Z</time></trkpt><trkpt lat="45.943079519866906" lon="12.081776364006764"><ele>318.0</ele><time>2026-03-26T05:52:36.999Z</time></trkpt><trkpt lat="45.943203727427566" lon="12.081786417550617"><ele>318.0</ele><time>2026-03-26T05:52:38.999Z</time></trkpt><trkpt lat="45.94327555669741" lon="12.081767426634626"><ele>318.0</ele><time>2026-03-26T05:52:39.999Z</time></trkpt><trkpt lat="45.943381590692304" lon="12.081713251884707"><ele>318.0</ele><time>2026-03-26T05:52:41.999Z</time></trkpt><trkpt lat="45.943495217559814" lon="12.081642450994462"><ele>318.0</ele><time>2026-03-26T05:52:43.999Z</time></trkpt><trkpt lat="45.94362134444628" lon="12.081576010182472"><ele>318.0</ele><time>2026-03-26T05:52:45.999Z</time></trkpt><trkpt lat="45.94369242608046" lon="12.081537644262479"><ele>318.3333333333333</ele><time>2026-03-26T05:52:46.999Z</time></trkpt><trkpt lat="45.94376746654793" lon="12.081501773269785"><ele>318.6666666666667</ele><time>2026-03-26T05:52:47.999Z</time></trkpt><trkpt lat="45.94384689383546" lon="12.081479041404885"><ele>319.0</ele><time>2026-03-26T05:52:48.999Z</time></trkpt><trkpt lat="45.94392858581418" lon="12.081483365909712"><ele>319.33333333333337</ele><time>2026-03-26T05:52:49.999Z</time></trkpt><trkpt lat="45.94400984194586" lon="12.081518556314338"><ele>319.6666666666667</ele><time>2026-03-26T05:52:50.999Z</time></trkpt><trkpt lat="45.944082379727696" lon="12.08157211917653"><ele>320.0</ele><time>2026-03-26T05:52:51.999Z</time></trkpt><trkpt lat="45.944162857215794" lon="12.081627822866134"><ele>320.0</ele><time>2026-03-26T05:52:52.999Z</time></trkpt><trkpt lat="45.944241278970665" lon="12.08166064734795"><ele>320.0</ele><time>2026-03-26T05:52:53.999Z</time></trkpt><trkpt lat="45.94432119291978" lon="12.081666375582076"><ele>320.0</ele><time>2026-03-26T05:52:54.999Z</time></trkpt><trkpt lat="45.94439788298689" lon="12.0816155140126"><ele>320.0</ele><time>2026-03-26T05:52:55.999Z</time></trkpt><trkpt lat="45.94446517122464" lon="12.081551678309095"><ele>320.0</ele><time>2026-03-26T05:52:56.999Z</time></trkpt><trkpt lat="45.944552799130186" lon="12.081465024816396"><ele>320.0</ele><time>2026-03-26T05:52:57.999Z</time></trkpt><trkpt lat="45.944631839334946" lon="12.08138268019447"><ele>324.0</ele><time>2026-03-26T05:52:58.999Z</time></trkpt><trkpt lat="45.94471271764021" lon="12.081293757839905"><ele>328.0</ele><time>2026-03-26T05:52:59.999Z</time></trkpt><trkpt lat="45.94481419061903" lon="12.08120040448776"><ele>332.0</ele><time>2026-03-26T05:53:00.999Z</time></trkpt><trkpt lat="45.944910079437065" lon="12.081103332586164"><ele>336.0</ele><time>2026-03-26T05:53:01.999Z</time></trkpt><trkpt lat="45.94500211247261" lon="12.081004653012856"><ele>335.6</ele><time>2026-03-26T05:53:02.999Z</time></trkpt><trkpt lat="45.945112732200876" lon="12.08093381151157"><ele>335.20000000000005</ele><time>2026-03-26T05:53:03.999Z</time></trkpt><trkpt lat="45.94520785848534" lon="12.080874673845537"><ele>334.79999999999995</ele><time>2026-03-26T05:53:04.999Z</time></trkpt><trkpt lat="45.945291395109365" lon="12.080813313579169"><ele>334.4</ele><time>2026-03-26T05:53:05.999Z</time></trkpt><trkpt lat="45.945351151526864" lon="12.080741725747918"><ele>334.0</ele><time>2026-03-26T05:53:06.999Z</time></trkpt><trkpt lat="45.945411533131626" lon="12.080667333066764"><ele>337.4</ele><time>2026-03-26T05:53:07.999Z</time></trkpt><trkpt lat="45.9454679632359" lon="12.080598298973939"><ele>340.79999999999995</ele><time>2026-03-26T05:53:08.999Z</time></trkpt><trkpt lat="45.94555207641204" lon="12.08051729025339"><ele>344.20000000000005</ele><time>2026-03-26T05:53:10.999Z</time></trkpt><trkpt lat="45.945638966248495" lon="12.080408694356626"><ele>347.6</ele><time>2026-03-26T05:53:12.999Z</time></trkpt><trkpt lat="45.945726229177765" lon="12.080331007965865"><ele>351.0</ele><time>2026-03-26T05:53:14.999Z</time></trkpt><trkpt lat="45.945792386946536" lon="12.080279592031548"><ele>350.20000000000005</ele><time>2026-03-26T05:53:17Z</time></trkpt><trkpt lat="45.945878597917265" lon="12.080208525491175"><ele>349.40000000000003</ele><time>2026-03-26T05:53:19Z</time></trkpt><trkpt lat="45.94598143118387" lon="12.080114832130395"><ele>348.6</ele><time>2026-03-26T05:53:21Z</time></trkpt><trkpt lat="45.946047060496596" lon="12.080062196883247"><ele>347.8</ele><time>2026-03-26T05:53:22Z</time></trkpt><trkpt lat="45.94610617766588" lon="12.079988356291723"><ele>347.0</ele><time>2026-03-26T05:53:23Z</time></trkpt><trkpt lat="45.946165340209696" lon="12.079899485263908"><ele>349.0</ele><time>2026-03-26T05:53:24Z</time></trkpt><trkpt lat="45.94621512807028" lon="12.079827200365857"><ele>351.0</ele><time>2026-03-26T05:53:25Z</time></trkpt><trkpt lat="45.94626306169979" lon="12.07975744208439"><ele>353.0</ele><time>2026-03-26T05:53:26Z</time></trkpt><trkpt lat="45.9463115694726" lon="12.07968392740923"><ele>355.0</ele><time>2026-03-26T05:53:27Z</time></trkpt><trkpt lat="45.94636036695222" lon="12.079608342464677"><ele>357.0</ele><time>2026-03-26T05:53:28Z</time></trkpt><trkpt lat="45.946407518286065" lon="12.079534884193658"><ele>359.0</ele><time>2026-03-26T05:53:29Z</time></trkpt><trkpt lat="45.94645462324389" lon="12.07946430735479"><ele>361.0</ele><time>2026-03-26T05:53:30Z</time></trkpt><trkpt lat="45.94649847422055" lon="12.07939439827701"><ele>361.0</ele><time>2026-03-26T05:53:31Z</time></trkpt><trkpt lat="45.94658071334758" lon="12.079266247655042"><ele>361.0</ele><time>2026-03-26T05:53:33Z</time></trkpt><trkpt lat="45.94665592789188" lon="12.07914086855856"><ele>361.0</ele><time>2026-03-26T05:53:35Z</time></trkpt><trkpt lat="45.9467243541959" lon="12.079032517940847"><ele>361.0</ele><time>2026-03-26T05:53:37Z</time></trkpt><trkpt lat="45.94677686954188" lon="12.078965029787785"><ele>361.0</ele><time>2026-03-26T05:53:39Z</time></trkpt><trkpt lat="45.946835377981834" lon="12.078927851387256"><ele>364.6</ele><time>2026-03-26T05:53:41Z</time></trkpt><trkpt lat="45.946925021839334" lon="12.078886625954539"><ele>368.20000000000005</ele><time>2026-03-26T05:53:43Z</time></trkpt><trkpt lat="45.94704784693627" lon="12.078859310866077"><ele>371.79999999999995</ele><time>2026-03-26T05:53:45Z</time></trkpt><trkpt lat="45.94711851906632" lon="12.078869025626886"><ele>375.4</ele><time>2026-03-26T05:53:46Z</time></trkpt><trkpt lat="45.94723281714016" lon="12.07891361283502"><ele>379.0</ele><time>2026-03-26T05:53:48Z</time></trkpt><trkpt lat="45.94733492504836" lon="12.078978813671604"><ele>379.0</ele><time>2026-03-26T05:53:50Z</time></trkpt><trkpt lat="45.9474247129711" lon="12.079083156237697"><ele>379.0</ele><time>2026-03-26T05:53:52Z</time></trkpt><trkpt lat="45.94750847129662" lon="12.079197812747305"><ele>379.0</ele><time>2026-03-26T05:53:54Z</time></trkpt><trkpt lat="45.94760784682272" lon="12.07923983407769"><ele>379.0</ele><time>2026-03-26T05:53:56Z</time></trkpt><trkpt lat="45.94769159768221" lon="12.079183685553568"><ele>379.0</ele><time>2026-03-26T05:53:58Z</time></trkpt><trkpt lat="45.94772324654324" lon="12.079078645557068"><ele>380.79999999999995</ele><time>2026-03-26T05:54:00Z</time></trkpt><trkpt lat="45.947726247271135" lon="12.078939507759932"><ele>382.59999999999997</ele><time>2026-03-26T05:54:02Z</time></trkpt><trkpt lat="45.947681647154106" lon="12.078871659914178"><ele>384.4</ele><time>2026-03-26T05:54:27Z</time></trkpt><trkpt lat="45.94769315755977" lon="12.0787528891389"><ele>386.2</ele><time>2026-03-26T05:54:30Z</time></trkpt><trkpt lat="45.94766755242884" lon="12.078615410537376"><ele>388.0</ele><time>2026-03-26T05:54:32Z</time></trkpt><trkpt lat="45.9476407386575" lon="12.078435306213715"><ele>388.0</ele><time>2026-03-26T05:54:34Z</time></trkpt><trkpt lat="45.947618241595315" lon="12.078334494181641"><ele>388.0</ele><time>2026-03-26T05:54:35Z</time></trkpt><trkpt lat="45.947564132327855" lon="12.078197114963855"><ele>388.0</ele><time>2026-03-26T05:54:36.999Z</time></trkpt><trkpt lat="45.94749666997777" lon="12.07807671142296"><ele>388.0</ele><time>2026-03-26T05:54:38.999Z</time></trkpt><trkpt lat="45.947413096536174" lon="12.077971067440654"><ele>388.0</ele><time>2026-03-26T05:54:40.999Z</time></trkpt><trkpt lat="45.94733420258715" lon="12.077889277710996"><ele>389.79999999999995</ele><time>2026-03-26T05:54:42.999Z</time></trkpt><trkpt lat="45.947280948103234" lon="12.07783268387858"><ele>391.6</ele><time>2026-03-26T05:54:44.999Z</time></trkpt><trkpt lat="45.947196387199625" lon="12.077754061266019"><ele>393.4</ele><time>2026-03-26T05:54:46.999Z</time></trkpt><trkpt lat="45.94708350173344" lon="12.077659214155412"><ele>395.20000000000005</ele><time>2026-03-26T05:54:48.999Z</time></trkpt><trkpt lat="45.94701481913718" lon="12.077613864035108"><ele>397.0</ele><time>2026-03-26T05:54:49.999Z</time></trkpt><trkpt lat="45.94694301086889" lon="12.077565900942991"><ele>397.00000000000006</ele><time>2026-03-26T05:54:50.999Z</time></trkpt><trkpt lat="45.946865580566985" lon="12.077551386943043"><ele>397.0</ele><time>2026-03-26T05:54:51.999Z</time></trkpt><trkpt lat="45.946788446658424" lon="12.077567254632683"><ele>397.0</ele><time>2026-03-26T05:54:52.999Z</time></trkpt><trkpt lat="45.946715689892436" lon="12.07759921730555"><ele>397.0</ele><time>2026-03-26T05:54:53.999Z</time></trkpt><trkpt lat="45.94664277394443" lon="12.077629935283044"><ele>397.00000000000006</ele><time>2026-03-26T05:54:54.999Z</time></trkpt><trkpt lat="45.94656788763233" lon="12.077652843136411"><ele>397.0</ele><time>2026-03-26T05:54:55.999Z</time></trkpt><trkpt lat="45.94648915662457" lon="12.077693418146156"><ele>398.00000000000006</ele><time>2026-03-26T05:54:56.999Z</time></trkpt><trkpt lat="45.94641454713926" lon="12.077728898431086"><ele>399.0</ele><time>2026-03-26T05:54:57.999Z</time></trkpt><trkpt lat="45.94633393740185" lon="12.077761468125207"><ele>400.0</ele><time>2026-03-26T05:54:58.999Z</time></trkpt><trkpt lat="45.94625398827531" lon="12.077799140479062"><ele>401.0</ele><time>2026-03-26T05:54:59.999Z</time></trkpt><trkpt lat="45.946176439472936" lon="12.077858603599362"><ele>402.00000000000006</ele><time>2026-03-26T05:55:00.999Z</time></trkpt><trkpt lat="45.946121620719794" lon="12.077935353368805"><ele>403.0</ele><time>2026-03-26T05:55:01.999Z</time></trkpt><trkpt lat="45.946061237435515" lon="12.078023942684789"><ele>403.00000000000006</ele><time>2026-03-26T05:55:02.999Z</time></trkpt><trkpt lat="45.94601244779927" lon="12.078111715015732"><ele>403.0</ele><time>2026-03-26T05:55:03.999Z</time></trkpt><trkpt lat="45.94595918804489" lon="12.078186428940349"><ele>403.0</ele><time>2026-03-26T05:55:04.999Z</time></trkpt><trkpt lat="45.945871871538024" lon="12.078274105637218"><ele>403.0</ele><time>2026-03-26T05:55:06.999Z</time></trkpt><trkpt lat="45.945822077847346" lon="12.078203950851083"><ele>403.00000000000006</ele><time>2026-03-26T05:55:08.999Z</time></trkpt><trkpt lat="45.945888026646344" lon="12.078098572820124"><ele>403.0</ele><time>2026-03-26T05:55:10.999Z</time></trkpt><trkpt lat="45.94597842562207" lon="12.078017053069091"><ele>403.00000000000006</ele><time>2026-03-26T05:55:12.999Z</time></trkpt><trkpt lat="45.94601905522047" lon="12.077922081881479"><ele>403.0</ele><time>2026-03-26T05:55:13.999Z</time></trkpt><trkpt lat="45.94607312274429" lon="12.07784427212141"><ele>403.0</ele><time>2026-03-26T05:55:14.999Z</time></trkpt><trkpt lat="45.94611807915375" lon="12.077756242968787"><ele>403.0</ele><time>2026-03-26T05:55:15.999Z</time></trkpt><trkpt lat="45.94616560633122" lon="12.077675410347917"><ele>403.00000000000006</ele><time>2026-03-26T05:55:16.999Z</time></trkpt><trkpt lat="45.94621093660885" lon="12.077590378208148"><ele>403.0</ele><time>2026-03-26T05:55:17.999Z</time></trkpt><trkpt lat="45.946269182814866" lon="12.077505460238458"><ele>408.83333333333337</ele><time>2026-03-26T05:55:18.999Z</time></trkpt><trkpt lat="45.946325303584835" lon="12.077420982499307"><ele>414.6666666666667</ele><time>2026-03-26T05:55:19.999Z</time></trkpt><trkpt lat="45.94638721456296" lon="12.07733730499257"><ele>420.5</ele><time>2026-03-26T05:55:20.999Z</time></trkpt><trkpt lat="45.946450262520216" lon="12.077263592545961"><ele>426.33333333333337</ele><time>2026-03-26T05:55:22Z</time></trkpt><trkpt lat="45.94652473781149" lon="12.077196547351024"><ele>432.1666666666667</ele><time>2026-03-26T05:55:23Z</time></trkpt><trkpt lat="45.94661064449448" lon="12.077130716391279"><ele>438.0</ele><time>2026-03-26T05:55:24Z</time></trkpt><trkpt lat="45.94667873040822" lon="12.077051102011687"><ele>434.6666666666667</ele><time>2026-03-26T05:55:25Z</time></trkpt><trkpt lat="45.94674341318788" lon="12.07697118867183"><ele>431.33333333333337</ele><time>2026-03-26T05:55:26Z</time></trkpt><trkpt lat="45.946810023010755" lon="12.07688606751283"><ele>428.0</ele><time>2026-03-26T05:55:27Z</time></trkpt><trkpt lat="45.94689003032314" lon="12.076845979985317"><ele>424.6666666666667</ele><time>2026-03-26T05:55:28Z</time></trkpt><trkpt lat="45.94698153522943" lon="12.076839131799916"><ele>421.33333333333337</ele><time>2026-03-26T05:55:29Z</time></trkpt><trkpt lat="45.947060173156686" lon="12.076788026547792"><ele>418.0</ele><time>2026-03-26T05:55:30Z</time></trkpt><trkpt lat="45.94712173906556" lon="12.076721971792201"><ele>418.00000000000006</ele><time>2026-03-26T05:55:31Z</time></trkpt><trkpt lat="45.94717613538101" lon="12.076632994377496"><ele>418.0</ele><time>2026-03-26T05:55:32Z</time></trkpt><trkpt lat="45.94723726763725" lon="12.076541854335737"><ele>418.0</ele><time>2026-03-26T05:55:33Z</time></trkpt><trkpt lat="45.947294500153724" lon="12.076438031010083"><ele>418.0</ele><time>2026-03-26T05:55:34Z</time></trkpt><trkpt lat="45.94736667740698" lon="12.076385307609662"><ele>418.00000000000006</ele><time>2026-03-26T05:55:35Z</time></trkpt><trkpt lat="45.94744312798137" lon="12.076332161468473"><ele>418.0</ele><time>2026-03-26T05:55:36Z</time></trkpt><trkpt lat="45.9475248952149" lon="12.07632316003131"><ele>423.50000000000006</ele><time>2026-03-26T05:55:37Z</time></trkpt><trkpt lat="45.947602984796305" lon="12.07633729272747"><ele>429.0</ele><time>2026-03-26T05:55:38Z</time></trkpt><trkpt lat="45.94769569792591" lon="12.076344780188032"><ele>434.5</ele><time>2026-03-26T05:55:39Z</time></trkpt><trkpt lat="45.947780398289034" lon="12.076335189943958"><ele>440.0</ele><time>2026-03-26T05:55:40Z</time></trkpt><trkpt lat="45.947860052982655" lon="12.076345917946723"><ele>445.50000000000006</ele><time>2026-03-26T05:55:41Z</time></trkpt><trkpt lat="45.94792732553763" lon="12.076358149088971"><ele>451.0</ele><time>2026-03-26T05:55:42Z</time></trkpt><trkpt lat="45.94799837242364" lon="12.076356196097375"><ele>451.00000000000006</ele><time>2026-03-26T05:55:43Z</time></trkpt><trkpt lat="45.948072030817166" lon="12.076355618288957"><ele>451.0</ele><time>2026-03-26T05:55:44Z</time></trkpt><trkpt lat="45.94814373627045" lon="12.076347521882141"><ele>451.0</ele><time>2026-03-26T05:55:45Z</time></trkpt><trkpt lat="45.948213706608975" lon="12.076330131995208"><ele>451.0</ele><time>2026-03-26T05:55:46Z</time></trkpt><trkpt lat="45.94829855955035" lon="12.076311301539766"><ele>451.00000000000006</ele><time>2026-03-26T05:55:47Z</time></trkpt><trkpt lat="45.94838522265056" lon="12.076337340082802"><ele>451.0</ele><time>2026-03-26T05:55:48Z</time></trkpt><trkpt lat="45.9484712657743" lon="12.076389414143332"><ele>453.0</ele><time>2026-03-26T05:55:49Z</time></trkpt><trkpt lat="45.948553923606454" lon="12.07644279635828"><ele>455.0</ele><time>2026-03-26T05:55:50Z</time></trkpt><trkpt lat="45.94863500062267" lon="12.076495079556297"><ele>457.0</ele><time>2026-03-26T05:55:51Z</time></trkpt><trkpt lat="45.94872800685956" lon="12.076535443361767"><ele>459.0</ele><time>2026-03-26T05:55:52Z</time></trkpt><trkpt lat="45.94882426766329" lon="12.076572231724517"><ele>461.0</ele><time>2026-03-26T05:55:53Z</time></trkpt><trkpt lat="45.948921020361794" lon="12.076599956853588"><ele>460.99999999999994</ele><time>2026-03-26T05:55:54Z</time></trkpt><trkpt lat="45.94900143587182" lon="12.076616769925783"><ele>461.0</ele><time>2026-03-26T05:55:55Z</time></trkpt><trkpt lat="45.94908281024616" lon="12.076621257126789"><ele>461.0</ele><time>2026-03-26T05:55:56Z</time></trkpt><trkpt lat="45.94917557505056" lon="12.07659849617765"><ele>461.0</ele><time>2026-03-26T05:55:57Z</time></trkpt><trkpt lat="45.94926244154275" lon="12.076540885662691"><ele>460.99999999999994</ele><time>2026-03-26T05:55:58Z</time></trkpt><trkpt lat="45.94933901390715" lon="12.076459796077389"><ele>461.0</ele><time>2026-03-26T05:55:59Z</time></trkpt><trkpt lat="45.949408534327" lon="12.076358330518914"><ele>461.6</ele><time>2026-03-26T05:56:00Z</time></trkpt><trkpt lat="45.94948047106313" lon="12.076272742981754"><ele>462.20000000000005</ele><time>2026-03-26T05:56:01Z</time></trkpt><trkpt lat="45.94957460164105" lon="12.076222411368203"><ele>462.79999999999995</ele><time>2026-03-26T05:56:02Z</time></trkpt><trkpt lat="45.94965937658943" lon="12.076157658467036"><ele>463.4</ele><time>2026-03-26T05:56:03Z</time></trkpt><trkpt lat="45.949757335125675" lon="12.076131446673315"><ele>464.0</ele><time>2026-03-26T05:56:04Z</time></trkpt><trkpt lat="45.949849106112055" lon="12.076128357317192"><ele>464.0</ele><time>2026-03-26T05:56:05Z</time></trkpt><trkpt lat="45.94994150146424" lon="12.076136638927677"><ele>464.0</ele><time>2026-03-26T05:56:06Z</time></trkpt><trkpt lat="45.95002956676364" lon="12.076161873540478"><ele>464.0</ele><time>2026-03-26T05:56:07Z</time></trkpt><trkpt lat="45.95011495705285" lon="12.076202313955566"><ele>464.0</ele><time>2026-03-26T05:56:08Z</time></trkpt><trkpt lat="45.95018299153683" lon="12.076246081548849"><ele>464.0</ele><time>2026-03-26T05:56:09Z</time></trkpt><trkpt lat="45.950280431863796" lon="12.076297653548167"><ele>465.25</ele><time>2026-03-26T05:56:11Z</time></trkpt><trkpt lat="45.95035652392912" lon="12.0762362249188"><ele>466.5</ele><time>2026-03-26T05:56:13Z</time></trkpt><trkpt lat="45.9502418986301" lon="12.076032164975286"><ele>467.75</ele><time>2026-03-26T05:56:39.999Z</time></trkpt><trkpt lat="45.95012615892113" lon="12.07595292376562"><ele>469.0</ele><time>2026-03-26T05:56:41.999Z</time></trkpt><trkpt lat="45.95005197020203" lon="12.07591112856934"><ele>468.0</ele><time>2026-03-26T05:56:42.999Z</time></trkpt><trkpt lat="45.949946415706265" lon="12.07585740203393"><ele>467.0</ele><time>2026-03-26T05:56:44.999Z</time></trkpt><trkpt lat="45.949854476431085" lon="12.075808582617345"><ele>466.0</ele><time>2026-03-26T05:56:46.999Z</time></trkpt><trkpt lat="45.9497774251359" lon="12.075757258579879"><ele>465.0</ele><time>2026-03-26T05:56:48.999Z</time></trkpt><trkpt lat="45.949706341057016" lon="12.07571377324916"><ele>464.0</ele><time>2026-03-26T05:56:50.999Z</time></trkpt><trkpt lat="45.94959740434613" lon="12.075636964290839"><ele>470.4</ele><time>2026-03-26T05:56:52.999Z</time></trkpt><trkpt lat="45.94952365903247" lon="12.075656161708142"><ele>476.79999999999995</ele><time>2026-03-26T05:56:53.999Z</time></trkpt><trkpt lat="45.94941782834405" lon="12.075626813434123"><ele>483.20000000000005</ele><time>2026-03-26T05:56:55.999Z</time></trkpt><trkpt lat="45.94945833867896" lon="12.075556120535715"><ele>489.6</ele><time>2026-03-26T05:56:58.999Z</time></trkpt><trkpt lat="45.94955553437774" lon="12.07558036025332"><ele>496.0</ele><time>2026-03-26T05:57:00.999Z</time></trkpt><trkpt lat="45.949688517761864" lon="12.075588530451501"><ele>496.00000000000006</ele><time>2026-03-26T05:57:02.999Z</time></trkpt><trkpt lat="45.94975465532736" lon="12.07558412148587"><ele>496.0</ele><time>2026-03-26T05:57:03.999Z</time></trkpt><trkpt lat="45.94986996217529" lon="12.075576231418237"><ele>496.0</ele><time>2026-03-26T05:57:05.999Z</time></trkpt><trkpt lat="45.94997928075017" lon="12.075576089583484"><ele>496.0</ele><time>2026-03-26T05:57:07.999Z</time></trkpt><trkpt lat="45.95006808857386" lon="12.075563638356318"><ele>496.00000000000006</ele><time>2026-03-26T05:57:09.999Z</time></trkpt><trkpt lat="45.95013363895778" lon="12.075545448038012"><ele>496.0</ele><time>2026-03-26T05:57:11.999Z</time></trkpt><trkpt lat="45.95022727942506" lon="12.075519586713906"><ele>496.00000000000006</ele><time>2026-03-26T05:57:13.999Z</time></trkpt><trkpt lat="45.950293599557895" lon="12.075497335964508"><ele>496.0</ele><time>2026-03-26T05:57:15.999Z</time></trkpt><trkpt lat="45.9503254156733" lon="12.075413885765135"><ele>496.0</ele><time>2026-03-26T05:57:17.999Z</time></trkpt><trkpt lat="45.95024877527263" lon="12.075321548335854"><ele>496.0</ele><time>2026-03-26T05:57:19.999Z</time></trkpt><trkpt lat="45.950188451058764" lon="12.075348164789942"><ele>496.00000000000006</ele><time>2026-03-26T05:57:21.999Z</time></trkpt><trkpt lat="45.95013142628723" lon="12.075407935627638"><ele>496.0</ele><time>2026-03-26T05:58:43.999Z</time></trkpt><trkpt lat="45.950022813218965" lon="12.075384546332918"><ele>496.00000000000006</ele><time>2026-03-26T05:58:45.999Z</time></trkpt><trkpt lat="45.9499514109724" lon="12.075355765444343"><ele>496.0</ele><time>2026-03-26T05:58:46.999Z</time></trkpt><trkpt lat="45.94988577613849" lon="12.075334204259047"><ele>496.0</ele><time>2026-03-26T05:58:47.999Z</time></trkpt><trkpt lat="45.94978486545892" lon="12.075282433689534"><ele>496.0</ele><time>2026-03-26T05:58:49.999Z</time></trkpt><trkpt lat="45.94969094475651" lon="12.075276572785292"><ele>496.00000000000006</ele><time>2026-03-26T05:58:51.999Z</time></trkpt><trkpt lat="45.949597656248066" lon="12.075253201704664"><ele>496.0</ele><time>2026-03-26T05:58:53.999Z</time></trkpt><trkpt lat="45.949508217844006" lon="12.075233636240164"><ele>496.0</ele><time>2026-03-26T05:58:55.999Z</time></trkpt><trkpt lat="45.94941824828976" lon="12.075091631217768"><ele>496.0</ele><time>2026-03-26T05:58:58.999Z</time></trkpt><trkpt lat="45.949498234813845" lon="12.075093540044623"><ele>496.0</ele><time>2026-03-26T05:59:01.999Z</time></trkpt><trkpt lat="45.94943584797706" lon="12.075120234408516"><ele>496.0</ele><time>2026-03-26T05:59:07.999Z</time></trkpt><trkpt lat="45.94946494761469" lon="12.075222744802984"><ele>496.0</ele><time>2026-03-26T05:59:20.999Z</time></trkpt><trkpt lat="45.949581229241424" lon="12.075228745700317"><ele>496.0</ele><time>2026-03-26T05:59:23.999Z</time></trkpt><trkpt lat="45.94978077297228" lon="12.075296439338876"><ele>496.0</ele><time>2026-03-26T05:59:28.999Z</time></trkpt><trkpt lat="45.94988539230367" lon="12.07535675959331"><ele>496.0</ele><time>2026-03-26T05:59:30.999Z</time></trkpt><trkpt lat="45.94995102870353" lon="12.075390115116686"><ele>496.0</ele><time>2026-03-26T05:59:31.999Z</time></trkpt><trkpt lat="45.95002047271182" lon="12.07539753552199"><ele>495.50000000000006</ele><time>2026-03-26T05:59:32.999Z</time></trkpt><trkpt lat="45.950091297745736" lon="12.07539373519334"><ele>495.0</ele><time>2026-03-26T05:59:34Z</time></trkpt><trkpt lat="45.95019032774421" lon="12.075395810632672"><ele>494.5</ele><time>2026-03-26T05:59:36Z</time></trkpt><trkpt lat="45.95026897628527" lon="12.075415616698548"><ele>494.0</ele><time>2026-03-26T05:59:39Z</time></trkpt><trkpt lat="45.95025193134337" lon="12.075504118391317"><ele>493.50000000000006</ele><time>2026-03-26T05:59:40Z</time></trkpt><trkpt lat="45.950156644329944" lon="12.075481411621812"><ele>493.0</ele><time>2026-03-26T05:59:43Z</time></trkpt><trkpt lat="45.95007366405754" lon="12.075496453118761"><ele>493.59999999999997</ele><time>2026-03-26T05:59:44Z</time></trkpt><trkpt lat="45.94997831502761" lon="12.075512718113687"><ele>494.19999999999993</ele><time>2026-03-26T05:59:46Z</time></trkpt><trkpt lat="45.94986447536901" lon="12.075528023552062"><ele>494.8</ele><time>2026-03-26T05:59:47Z</time></trkpt><trkpt lat="45.9497634168159" lon="12.075536900356157"><ele>495.4</ele><time>2026-03-26T05:59:48Z</time></trkpt><trkpt lat="45.94967162167948" lon="12.075543416625809"><ele>496.0</ele><time>2026-03-26T05:59:49Z</time></trkpt><trkpt lat="45.949586021744786" lon="12.075548103666543"><ele>496.0</ele><time>2026-03-26T05:59:50Z</time></trkpt><trkpt lat="45.94948554044373" lon="12.07551172008653"><ele>496.0</ele><time>2026-03-26T05:59:52Z</time></trkpt><trkpt lat="45.94937882487438" lon="12.075515944408744"><ele>496.0</ele><time>2026-03-26T05:59:54Z</time></trkpt><trkpt lat="45.94937776420219" lon="12.075635770229551"><ele>496.0</ele><time>2026-03-26T05:59:56Z</time></trkpt><trkpt lat="45.94946351456964" lon="12.075698923768346"><ele>496.0</ele><time>2026-03-26T05:59:58Z</time></trkpt><trkpt lat="45.94955228625572" lon="12.075668159106844"><ele>496.0</ele><time>2026-03-26T06:00:00Z</time></trkpt><trkpt lat="45.949678679668665" lon="12.075719529597608"><ele>496.0</ele><time>2026-03-26T06:00:02Z</time></trkpt><trkpt lat="45.949745535167835" lon="12.07576949373108"><ele>496.0</ele><time>2026-03-26T06:00:03Z</time></trkpt><trkpt lat="45.94983630316172" lon="12.07581714993998"><ele>496.0</ele><time>2026-03-26T06:00:04Z</time></trkpt><trkpt lat="45.949917880321735" lon="12.075882107418987"><ele>496.0</ele><time>2026-03-26T06:00:05Z</time></trkpt><trkpt lat="45.94999907872535" lon="12.075926339600139"><ele>491.50000000000006</ele><time>2026-03-26T06:00:06Z</time></trkpt><trkpt lat="45.950072187691916" lon="12.075968488782003"><ele>487.0</ele><time>2026-03-26T06:00:07Z</time></trkpt><trkpt lat="45.95014677837548" lon="12.076004313160725"><ele>482.5</ele><time>2026-03-26T06:00:08Z</time></trkpt><trkpt lat="45.950206814685814" lon="12.076043052017583"><ele>478.0</ele><time>2026-03-26T06:00:09Z</time></trkpt><trkpt lat="45.950287722978565" lon="12.076135914658524"><ele>473.50000000000006</ele><time>2026-03-26T06:00:11Z</time></trkpt><trkpt lat="45.950269187797396" lon="12.076244625509162"><ele>469.0</ele><time>2026-03-26T06:00:13Z</time></trkpt><trkpt lat="45.950167992949325" lon="12.076180561554336"><ele>469.0</ele><time>2026-03-26T06:00:15Z</time></trkpt><trkpt lat="45.950088247127" lon="12.07613333890158"><ele>469.0</ele><time>2026-03-26T06:00:18Z</time></trkpt><trkpt lat="45.94994774969045" lon="12.07609284701339"><ele>469.0</ele><time>2026-03-26T06:00:20Z</time></trkpt><trkpt lat="45.94987285401314" lon="12.076081687218535"><ele>469.0</ele><time>2026-03-26T06:00:21Z</time></trkpt><trkpt lat="45.949777711158035" lon="12.076090064240411"><ele>469.0</ele><time>2026-03-26T06:00:22Z</time></trkpt><trkpt lat="45.94968783096205" lon="12.076118970716658"><ele>468.0</ele><time>2026-03-26T06:00:23Z</time></trkpt><trkpt lat="45.94959365927298" lon="12.076160560612998"><ele>467.0</ele><time>2026-03-26T06:00:24Z</time></trkpt><trkpt lat="45.94949486726638" lon="12.076219277328494"><ele>466.0</ele><time>2026-03-26T06:00:25Z</time></trkpt><trkpt lat="45.949405152788856" lon="12.076295463512492"><ele>465.0</ele><time>2026-03-26T06:00:26Z</time></trkpt><trkpt lat="45.94932578098258" lon="12.076383802536874"><ele>464.0</ele><time>2026-03-26T06:00:27Z</time></trkpt><trkpt lat="45.94926463383606" lon="12.07645720190406"><ele>463.49999999999994</ele><time>2026-03-26T06:00:28Z</time></trkpt><trkpt lat="45.94920227530946" lon="12.076519692683036"><ele>463.0</ele><time>2026-03-26T06:00:29Z</time></trkpt><trkpt lat="45.94913006745821" lon="12.076549143163081"><ele>462.5</ele><time>2026-03-26T06:00:30Z</time></trkpt><trkpt lat="45.94904708070025" lon="12.0765462026845"><ele>462.0</ele><time>2026-03-26T06:00:31Z</time></trkpt><trkpt lat="45.9489627767361" lon="12.07654874174022"><ele>461.49999999999994</ele><time>2026-03-26T06:00:32Z</time></trkpt><trkpt lat="45.948870113955564" lon="12.076532493935094"><ele>461.0</ele><time>2026-03-26T06:00:33Z</time></trkpt><trkpt lat="45.94877488756801" lon="12.076494643840919"><ele>461.0</ele><time>2026-03-26T06:00:34Z</time></trkpt><trkpt lat="45.948682094295705" lon="12.076449116200505"><ele>461.0</ele><time>2026-03-26T06:00:35Z</time></trkpt><trkpt lat="45.94858920524462" lon="12.07640492196799"><ele>461.0</ele><time>2026-03-26T06:00:36Z</time></trkpt><trkpt lat="45.9485064520748" lon="12.076365550124201"><ele>461.0</ele><time>2026-03-26T06:00:37Z</time></trkpt><trkpt lat="45.948438745736915" lon="12.076333337168279"><ele>461.0</ele><time>2026-03-26T06:00:38Z</time></trkpt><trkpt lat="45.948338217735234" lon="12.076305956119953"><ele>459.3333333333333</ele><time>2026-03-26T06:00:39.999Z</time></trkpt><trkpt lat="45.94824939931814" lon="12.076279292746845"><ele>457.66666666666663</ele><time>2026-03-26T06:00:42.999Z</time></trkpt><trkpt lat="45.948244254537435" lon="12.076417687964591"><ele>456.0</ele><time>2026-03-26T06:00:46.999Z</time></trkpt><trkpt lat="45.948310109981534" lon="12.07647061730112"><ele>454.33333333333337</ele><time>2026-03-26T06:00:52.999Z</time></trkpt><trkpt lat="45.9483732590332" lon="12.076535993895096"><ele>452.6666666666667</ele><time>2026-03-26T06:00:56.999Z</time></trkpt><trkpt lat="45.9484290713865" lon="12.07660713325961"><ele>451.0</ele><time>2026-03-26T06:00:59.999Z</time></trkpt><trkpt lat="45.948486753001504" lon="12.076690220407777"><ele>448.1666666666667</ele><time>2026-03-26T06:01:02.999Z</time></trkpt><trkpt lat="45.94856617800798" lon="12.076755910974686"><ele>445.33333333333337</ele><time>2026-03-26T06:01:04.999Z</time></trkpt><trkpt lat="45.94859453162374" lon="12.076874858775696"><ele>442.5</ele><time>2026-03-26T06:01:06.999Z</time></trkpt><trkpt lat="45.948631635735886" lon="12.07695110304877"><ele>439.66666666666663</ele><time>2026-03-26T06:01:08.999Z</time></trkpt><trkpt lat="45.94863895060642" lon="12.077072209201658"><ele>436.8333333333333</ele><time>2026-03-26T06:01:12.999Z</time></trkpt><trkpt lat="45.94862426945004" lon="12.077168277000688"><ele>434.0</ele><time>2026-03-26T06:01:15.999Z</time></trkpt><trkpt lat="45.948603524431036" lon="12.077266750843927"><ele>433.99999999999994</ele><time>2026-03-26T06:01:18.999Z</time></trkpt><trkpt lat="45.948599574614875" lon="12.077393478402612"><ele>434.0</ele><time>2026-03-26T06:01:21.999Z</time></trkpt><trkpt lat="45.94860518663926" lon="12.0775009747202"><ele>434.0</ele><time>2026-03-26T06:01:25.999Z</time></trkpt><trkpt lat="45.94861647968543" lon="12.077612512698204"><ele>434.0</ele><time>2026-03-26T06:01:28.999Z</time></trkpt><trkpt lat="45.94866482890557" lon="12.077690436707195"><ele>433.99999999999994</ele><time>2026-03-26T06:01:32.999Z</time></trkpt><trkpt lat="45.9487462425906" lon="12.077675455702709"><ele>434.0</ele><time>2026-03-26T06:01:36.999Z</time></trkpt><trkpt lat="45.94880985937099" lon="12.077662948642695"><ele>432.14285714285717</ele><time>2026-03-26T06:01:40Z</time></trkpt><trkpt lat="45.94886958873877" lon="12.077620736203674"><ele>430.2857142857143</ele><time>2026-03-26T06:01:43Z</time></trkpt><trkpt lat="45.94895252468768" lon="12.07759594469028"><ele>428.42857142857144</ele><time>2026-03-26T06:01:47Z</time></trkpt><trkpt lat="45.949031859821375" lon="12.077586393653608"><ele>426.57142857142856</ele><time>2026-03-26T06:01:50Z</time></trkpt><trkpt lat="45.94909097979589" lon="12.077553283891515"><ele>424.7142857142857</ele><time>2026-03-26T06:01:52Z</time></trkpt><trkpt lat="45.94916541359675" lon="12.07753467511117"><ele>422.8571428571429</ele><time>2026-03-26T06:01:54Z</time></trkpt><trkpt lat="45.94922878080162" lon="12.077524515915732"><ele>421.0</ele><time>2026-03-26T06:01:56Z</time></trkpt><trkpt lat="45.949312862061916" lon="12.077521181434179"><ele>421.00000000000006</ele><time>2026-03-26T06:01:58Z</time></trkpt><trkpt lat="45.94940679106504" lon="12.077522571335786"><ele>421.0</ele><time>2026-03-26T06:02:00Z</time></trkpt><trkpt lat="45.94948422223559" lon="12.077535270695645"><ele>421.0</ele><time>2026-03-26T06:02:03Z</time></trkpt><trkpt lat="45.9495401497739" lon="12.077629313410267"><ele>421.0</ele><time>2026-03-26T06:02:05Z</time></trkpt><trkpt lat="45.94952645014018" lon="12.07773861021072"><ele>421.00000000000006</ele><time>2026-03-26T06:02:08Z</time></trkpt><trkpt lat="45.949480778596744" lon="12.077813294913138"><ele>421.0</ele><time>2026-03-26T06:02:12Z</time></trkpt><trkpt lat="45.949468030785575" lon="12.077907120666254"><ele>421.00000000000006</ele><time>2026-03-26T06:02:15Z</time></trkpt><trkpt lat="45.94940590285964" lon="12.077968271582856"><ele>421.0</ele><time>2026-03-26T06:02:18Z</time></trkpt><trkpt lat="45.949324128946294" lon="12.078017334732435"><ele>421.0</ele><time>2026-03-26T06:02:21Z</time></trkpt><trkpt lat="45.94924437786658" lon="12.078069000215756"><ele>421.0</ele><time>2026-03-26T06:02:24Z</time></trkpt><trkpt lat="45.949190860993205" lon="12.078181569027452"><ele>421.00000000000006</ele><time>2026-03-26T06:02:26Z</time></trkpt><trkpt lat="45.94920916982323" lon="12.078326424404882"><ele>421.0</ele><time>2026-03-26T06:02:28Z</time></trkpt><trkpt lat="45.94923462231269" lon="12.078432810383223"><ele>421.8</ele><time>2026-03-26T06:02:30Z</time></trkpt><trkpt lat="45.94923836543982" lon="12.078546326727887"><ele>422.6</ele><time>2026-03-26T06:02:32Z</time></trkpt><trkpt lat="45.949242291410805" lon="12.078643798278572"><ele>423.4</ele><time>2026-03-26T06:02:34Z</time></trkpt><trkpt lat="45.94922794151937" lon="12.0787846934143"><ele>424.2</ele><time>2026-03-26T06:02:36Z</time></trkpt><trkpt lat="45.94920300236096" lon="12.078900041665893"><ele>425.0</ele><time>2026-03-26T06:02:38Z</time></trkpt><trkpt lat="45.949133721288504" lon="12.079045782889533"><ele>418.6</ele><time>2026-03-26T06:02:40Z</time></trkpt><trkpt lat="45.94908348828896" lon="12.079196832135269"><ele>412.2</ele><time>2026-03-26T06:02:42Z</time></trkpt><trkpt lat="45.94905390706572" lon="12.07927903440973"><ele>405.79999999999995</ele><time>2026-03-26T06:02:43Z</time></trkpt><trkpt lat="45.94900051168227" lon="12.07942450946411"><ele>399.4</ele><time>2026-03-26T06:02:44.999Z</time></trkpt><trkpt lat="45.948967858355694" lon="12.079543994157804"><ele>393.0</ele><time>2026-03-26T06:02:46.999Z</time></trkpt><trkpt lat="45.948939843929736" lon="12.079701861626104"><ele>393.0</ele><time>2026-03-26T06:02:49.999Z</time></trkpt><trkpt lat="45.948896102939536" lon="12.079843009501573"><ele>393.0</ele><time>2026-03-26T06:02:51.999Z</time></trkpt><trkpt lat="45.94886095746805" lon="12.079919836239938"><ele>393.0</ele><time>2026-03-26T06:02:52.999Z</time></trkpt><trkpt lat="45.94876974694755" lon="12.08001577530086"><ele>393.0</ele><time>2026-03-26T06:02:54.999Z</time></trkpt><trkpt lat="45.94869255685988" lon="12.08009223513176"><ele>393.0</ele><time>2026-03-26T06:02:56.999Z</time></trkpt><trkpt lat="45.948614002179966" lon="12.080164868204173"><ele>393.0</ele><time>2026-03-26T06:02:58.999Z</time></trkpt><trkpt lat="45.94852961234243" lon="12.08022053516159"><ele>393.0</ele><time>2026-03-26T06:03:00.999Z</time></trkpt><trkpt lat="45.94841938284101" lon="12.080274270730108"><ele>393.0</ele><time>2026-03-26T06:03:02.999Z</time></trkpt><trkpt lat="45.948314377664495" lon="12.080326158016131"><ele>393.0</ele><time>2026-03-26T06:03:04.999Z</time></trkpt><trkpt lat="45.94819980946828" lon="12.0803860310669"><ele>393.0</ele><time>2026-03-26T06:03:06.999Z</time></trkpt><trkpt lat="45.94813425864537" lon="12.080420049198498"><ele>389.5</ele><time>2026-03-26T06:03:07.999Z</time></trkpt><trkpt lat="45.94806794063441" lon="12.08042982730867"><ele>386.0</ele><time>2026-03-26T06:03:08.999Z</time></trkpt><trkpt lat="45.94797755379325" lon="12.080469358419407"><ele>382.5</ele><time>2026-03-26T06:03:10.999Z</time></trkpt><trkpt lat="45.94787476398446" lon="12.080502570923626"><ele>379.0</ele><time>2026-03-26T06:03:12.999Z</time></trkpt><trkpt lat="45.9477834015141" lon="12.080524382127711"><ele>375.5</ele><time>2026-03-26T06:03:14.999Z</time></trkpt><trkpt lat="45.94771330754443" lon="12.080539357874763"><ele>372.0</ele><time>2026-03-26T06:03:16.999Z</time></trkpt><trkpt lat="45.94761875021435" lon="12.080555086473128"><ele>369.0</ele><time>2026-03-26T06:03:19.999Z</time></trkpt><trkpt lat="45.94753050080749" lon="12.0805694957332"><ele>366.0</ele><time>2026-03-26T06:03:21.999Z</time></trkpt><trkpt lat="45.947425562756706" lon="12.080605188434886"><ele>363.0</ele><time>2026-03-26T06:03:23.999Z</time></trkpt><trkpt lat="45.94736511880869" lon="12.080639202892732"><ele>360.0</ele><time>2026-03-26T06:03:24.999Z</time></trkpt><trkpt lat="45.94724442010029" lon="12.080703669964787"><ele>357.0</ele><time>2026-03-26T06:03:26.999Z</time></trkpt><trkpt lat="45.94718248806692" lon="12.080735652994733"><ele>356.6666666666667</ele><time>2026-03-26T06:03:27.999Z</time></trkpt><trkpt lat="45.947123190976754" lon="12.080776147771392"><ele>356.3333333333333</ele><time>2026-03-26T06:03:28.999Z</time></trkpt><trkpt lat="45.947067974102836" lon="12.080829552869611"><ele>356.0</ele><time>2026-03-26T06:03:29.999Z</time></trkpt><trkpt lat="45.9470288966147" lon="12.080910708423604"><ele>355.66666666666663</ele><time>2026-03-26T06:03:30.999Z</time></trkpt><trkpt lat="45.94697912509963" lon="12.080981133724269"><ele>355.3333333333333</ele><time>2026-03-26T06:03:31.999Z</time></trkpt><trkpt lat="45.94693164041113" lon="12.081050697625258"><ele>355.0</ele><time>2026-03-26T06:03:32.999Z</time></trkpt><trkpt lat="45.94684910100279" lon="12.08117974484218"><ele>355.0</ele><time>2026-03-26T06:03:34.999Z</time></trkpt><trkpt lat="45.9467996279102" lon="12.081253917948736"><ele>355.0</ele><time>2026-03-26T06:03:35.999Z</time></trkpt><trkpt lat="45.94669496590625" lon="12.08135899473261"><ele>355.0</ele><time>2026-03-26T06:03:37.999Z</time></trkpt><trkpt lat="45.94663809992096" lon="12.081417039622218"><ele>355.0</ele><time>2026-03-26T06:03:38.999Z</time></trkpt><trkpt lat="45.946541960788956" lon="12.081523187162404"><ele>355.0</ele><time>2026-03-26T06:03:40.999Z</time></trkpt><trkpt lat="45.946488854161245" lon="12.08158229705066"><ele>351.6</ele><time>2026-03-26T06:03:41.999Z</time></trkpt><trkpt lat="45.94643944278353" lon="12.081643037188453"><ele>348.2</ele><time>2026-03-26T06:03:42.999Z</time></trkpt><trkpt lat="45.946353051403385" lon="12.081766263079649"><ele>344.79999999999995</ele><time>2026-03-26T06:03:45Z</time></trkpt><trkpt lat="45.94627943793138" lon="12.081887949583772"><ele>341.4</ele><time>2026-03-26T06:03:47Z</time></trkpt><trkpt lat="45.94620980312191" lon="12.082033426983624"><ele>338.0</ele><time>2026-03-26T06:03:49Z</time></trkpt><trkpt lat="45.946138250986245" lon="12.082189333992503"><ele>338.0</ele><time>2026-03-26T06:03:51Z</time></trkpt><trkpt lat="45.94606497869238" lon="12.082323766712813"><ele>338.0</ele><time>2026-03-26T06:03:53Z</time></trkpt><trkpt lat="45.9459576034081" lon="12.082328476071398"><ele>338.0</ele><time>2026-03-26T06:03:55Z</time></trkpt><trkpt lat="45.945841536444895" lon="12.082303851195281"><ele>338.0</ele><time>2026-03-26T06:03:57Z</time></trkpt><trkpt lat="45.94571358266064" lon="12.082331451143752"><ele>335.33333333333337</ele><time>2026-03-26T06:03:59Z</time></trkpt><trkpt lat="45.94565447113041" lon="12.082365709541477"><ele>332.6666666666667</ele><time>2026-03-26T06:04:00Z</time></trkpt><trkpt lat="45.94554176587367" lon="12.082420166997588"><ele>330.0</ele><time>2026-03-26T06:04:02Z</time></trkpt><trkpt lat="45.94547854381123" lon="12.082437448327097"><ele>327.3333333333333</ele><time>2026-03-26T06:04:03Z</time></trkpt><trkpt lat="45.9454087414959" lon="12.082454752753936"><ele>324.66666666666663</ele><time>2026-03-26T06:04:04Z</time></trkpt><trkpt lat="45.94534220969039" lon="12.08247397888633"><ele>322.0</ele><time>2026-03-26T06:04:05Z</time></trkpt><trkpt lat="45.94523032891742" lon="12.0825382034219"><ele>321.42857142857144</ele><time>2026-03-26T06:04:07Z</time></trkpt><trkpt lat="45.94519122186788" lon="12.082621633709156"><ele>320.8571428571429</ele><time>2026-03-26T06:04:08Z</time></trkpt><trkpt lat="45.9451443120814" lon="12.082693457301549"><ele>320.2857142857143</ele><time>2026-03-26T06:04:09Z</time></trkpt><trkpt lat="45.945102008699976" lon="12.08277781480961"><ele>319.7142857142857</ele><time>2026-03-26T06:04:10Z</time></trkpt><trkpt lat="45.94506539485044" lon="12.082860970402448"><ele>319.14285714285717</ele><time>2026-03-26T06:04:11Z</time></trkpt><trkpt lat="45.945010374019446" lon="12.082925178310447"><ele>318.57142857142856</ele><time>2026-03-26T06:04:12Z</time></trkpt><trkpt lat="45.94496217500276" lon="12.082990097967942"><ele>318.0</ele><time>2026-03-26T06:04:13Z</time></trkpt><trkpt lat="45.94486934978576" lon="12.083074345163382"><ele>316.8</ele><time>2026-03-26T06:04:15Z</time></trkpt><trkpt lat="45.9447984707244" lon="12.083083059737165"><ele>315.6</ele><time>2026-03-26T06:04:17Z</time></trkpt><trkpt lat="45.9448356274731" lon="12.083252080025554"><ele>314.4</ele><time>2026-03-26T06:04:20Z</time></trkpt><trkpt lat="45.94488754609207" lon="12.083330617284657"><ele>313.2</ele><time>2026-03-26T06:04:22Z</time></trkpt><trkpt lat="45.94492821618955" lon="12.08345539790635"><ele>312.0</ele><time>2026-03-26T06:04:24Z</time></trkpt><trkpt lat="45.94498588191452" lon="12.083600723642787"><ele>312.0</ele><time>2026-03-26T06:04:26Z</time></trkpt><trkpt lat="45.94504881682724" lon="12.083752469776897"><ele>312.0</ele><time>2026-03-26T06:04:28Z</time></trkpt><trkpt lat="45.945090801311146" lon="12.08385065604745"><ele>312.0</ele><time>2026-03-26T06:04:29Z</time></trkpt><trkpt lat="45.94513016693997" lon="12.083942443884425"><ele>312.0</ele><time>2026-03-26T06:04:30Z</time></trkpt><trkpt lat="45.94516175100803" lon="12.084023771970875"><ele>312.0</ele><time>2026-03-26T06:04:31Z</time></trkpt><trkpt lat="45.94518624153364" lon="12.084153606659102"><ele>312.0</ele><time>2026-03-26T06:04:33Z</time></trkpt><trkpt lat="45.94507279395875" lon="12.084200070976626"><ele>310.0</ele><time>2026-03-26T06:04:34Z</time></trkpt><trkpt lat="45.94501296045293" lon="12.08424687055686"><ele>308.0</ele><time>2026-03-26T06:04:35Z</time></trkpt><trkpt lat="45.944941030017375" lon="12.08430548002493"><ele>306.0</ele><time>2026-03-26T06:04:36Z</time></trkpt><trkpt lat="45.9448688310529" lon="12.084344409814587"><ele>304.0</ele><time>2026-03-26T06:04:37Z</time></trkpt><trkpt lat="45.944799963825766" lon="12.084377518119624"><ele>302.0</ele><time>2026-03-26T06:04:38Z</time></trkpt><trkpt lat="45.944730431149495" lon="12.084414583641758"><ele>300.0</ele><time>2026-03-26T06:04:39Z</time></trkpt><trkpt lat="45.9446537891228" lon="12.08442804347093"><ele>300.0</ele><time>2026-03-26T06:04:40Z</time></trkpt><trkpt lat="45.944587222809325" lon="12.084459474532933"><ele>300.0</ele><time>2026-03-26T06:04:41Z</time></trkpt><trkpt lat="45.94449243922553" lon="12.084507663119249"><ele>300.0</ele><time>2026-03-26T06:04:42.999Z</time></trkpt><trkpt lat="45.94442507478036" lon="12.084525957820297"><ele>300.0</ele><time>2026-03-26T06:04:45.999Z</time></trkpt><trkpt lat="45.94433961544864" lon="12.084567203464461"><ele>300.0</ele><time>2026-03-26T06:04:48.999Z</time></trkpt><trkpt lat="45.94440490101836" lon="12.08458008216389"><ele>300.0</ele><time>2026-03-26T06:04:51.999Z</time></trkpt><trkpt lat="45.94437569405885" lon="12.084426212585448"><ele>299.99999999999994</ele><time>2026-03-26T06:04:58.999Z</time></trkpt><trkpt lat="45.944307259462036" lon="12.084444865942578"><ele>300.0</ele><time>2026-03-26T06:05:12.999Z</time></trkpt><trkpt lat="45.94424382365301" lon="12.084426288042298"><ele>300.0</ele><time>2026-03-26T06:05:14.999Z</time></trkpt><trkpt lat="45.944143152398" lon="12.084385541454505"><ele>300.0</ele><time>2026-03-26T06:05:17.999Z</time></trkpt><trkpt lat="45.94409627134089" lon="12.084320868627023"><ele>300.0</ele><time>2026-03-26T06:05:23.999Z</time></trkpt><trkpt lat="45.94414921318731" lon="12.084264058962361"><ele>299.99999999999994</ele><time>2026-03-26T06:05:59Z</time></trkpt><trkpt lat="45.944136431164594" lon="12.084365702898246"><ele>300.0</ele><time>2026-03-26T06:06:13Z</time></trkpt><trkpt lat="45.94418915268469" lon="12.084454532722486"><ele>300.0</ele><time>2026-03-26T06:06:15Z</time></trkpt><trkpt lat="45.94430449039494" lon="12.084485562053588"><ele>300.0</ele><time>2026-03-26T06:06:17Z</time></trkpt><trkpt lat="45.94437185762866" lon="12.084503505152746"><ele>300.0</ele><time>2026-03-26T06:06:18Z</time></trkpt><trkpt lat="45.944447662949855" lon="12.084544054752723"><ele>300.0</ele><time>2026-03-26T06:06:20Z</time></trkpt><trkpt lat="45.94443036166983" lon="12.08463612827893"><ele>300.0</ele><time>2026-03-26T06:06:24Z</time></trkpt><trkpt lat="45.94437050630285" lon="12.084738253035646"><ele>300.0</ele><time>2026-03-26T06:06:27Z</time></trkpt><trkpt lat="45.94432235191773" lon="12.084819263271052"><ele>300.0</ele><time>2026-03-26T06:06:29Z</time></trkpt><trkpt lat="45.94427309208175" lon="12.084904213868022"><ele>300.0</ele><time>2026-03-26T06:06:31Z</time></trkpt><trkpt lat="45.94423021836706" lon="12.085007731455704"><ele>300.0</ele><time>2026-03-26T06:06:33Z</time></trkpt><trkpt lat="45.9441880277614" lon="12.08513405820104"><ele>300.0</ele><time>2026-03-26T06:06:35Z</time></trkpt><trkpt lat="45.94416979070086" lon="12.08528070593508"><ele>300.0</ele><time>2026-03-26T06:06:37Z</time></trkpt><trkpt lat="45.944169373695644" lon="12.085376292165163"><ele>300.0</ele><time>2026-03-26T06:06:39Z</time></trkpt><trkpt lat="45.94414982672468" lon="12.085482739073834"><ele>297.8</ele><time>2026-03-26T06:07:00.999Z</time></trkpt><trkpt lat="45.944150885788865" lon="12.085601428588959"><ele>295.6</ele><time>2026-03-26T06:07:02.999Z</time></trkpt><trkpt lat="45.94414216412689" lon="12.085746946840501"><ele>293.4</ele><time>2026-03-26T06:07:05.999Z</time></trkpt><trkpt lat="45.944149447227076" lon="12.085883843967206"><ele>291.2</ele><time>2026-03-26T06:07:07.999Z</time></trkpt><trkpt lat="45.94414566598428" lon="12.085996986248928"><ele>289.0</ele><time>2026-03-26T06:07:09.999Z</time></trkpt><trkpt lat="45.94414398776699" lon="12.086140374108671"><ele>288.3333333333333</ele><time>2026-03-26T06:07:27.999Z</time></trkpt><trkpt lat="45.94413960324001" lon="12.086244186413474"><ele>287.66666666666663</ele><time>2026-03-26T06:07:28.999Z</time></trkpt><trkpt lat="45.944145325796036" lon="12.08634231908603"><ele>287.0</ele><time>2026-03-26T06:07:29.999Z</time></trkpt><trkpt lat="45.944140111952464" lon="12.086438658179857"><ele>286.3333333333333</ele><time>2026-03-26T06:07:31.999Z</time></trkpt><trkpt lat="45.94411446657747" lon="12.086586911054342"><ele>285.6666666666667</ele><time>2026-03-26T06:07:51.999Z</time></trkpt><trkpt lat="45.9440472154113" lon="12.086710392013599"><ele>285.0</ele><time>2026-03-26T06:07:53.999Z</time></trkpt><trkpt lat="45.94395223334865" lon="12.086817572519053"><ele>284.6666666666667</ele><time>2026-03-26T06:08:14Z</time></trkpt><trkpt lat="45.94389382739195" lon="12.08687788878545"><ele>284.3333333333333</ele><time>2026-03-26T06:08:15Z</time></trkpt><trkpt lat="45.94383479795808" lon="12.08692939449823"><ele>284.0</ele><time>2026-03-26T06:08:16Z</time></trkpt><trkpt lat="45.94377832699062" lon="12.086978726178295"><ele>283.66666666666663</ele><time>2026-03-26T06:08:17Z</time></trkpt><trkpt lat="45.94369665142544" lon="12.08706650814064"><ele>283.3333333333333</ele><time>2026-03-26T06:08:19Z</time></trkpt><trkpt lat="45.94360614081187" lon="12.087153337847855"><ele>283.0</ele><time>2026-03-26T06:08:21Z</time></trkpt><trkpt lat="45.943523154883216" lon="12.087230954577235"><ele>283.0</ele><time>2026-03-26T06:08:23Z</time></trkpt><trkpt lat="45.94347361259099" lon="12.087287204207255"><ele>283.0</ele><time>2026-03-26T06:08:27Z</time></trkpt><trkpt lat="45.94338834191411" lon="12.087355333533818"><ele>283.0</ele><time>2026-03-26T06:08:33Z</time></trkpt><trkpt lat="45.94333170004844" lon="12.087411515524472"><ele>283.0</ele><time>2026-03-26T06:08:35Z</time></trkpt><trkpt lat="45.943283868577204" lon="12.08750245507244"><ele>283.0</ele><time>2026-03-26T06:08:50.999Z</time></trkpt><trkpt lat="45.94313649029658" lon="12.087621869365908"><ele>281.8333333333333</ele><time>2026-03-26T06:09:14.999Z</time></trkpt><trkpt lat="45.94303247087208" lon="12.087717338771126"><ele>280.66666666666663</ele><time>2026-03-26T06:09:16.999Z</time></trkpt><trkpt lat="45.94297620906885" lon="12.087769154988464"><ele>279.5</ele><time>2026-03-26T06:09:17.999Z</time></trkpt><trkpt lat="45.9429220040272" lon="12.087820943872554"><ele>278.3333333333333</ele><time>2026-03-26T06:09:18.999Z</time></trkpt><trkpt lat="45.94284031472485" lon="12.087903389396567"><ele>277.1666666666667</ele><time>2026-03-26T06:09:20.999Z</time></trkpt><trkpt lat="45.942783421270256" lon="12.087966064501837"><ele>276.0</ele><time>2026-03-26T06:09:23.999Z</time></trkpt><trkpt lat="45.942900764623595" lon="12.088052737450168"><ele>276.0</ele><time>2026-03-26T06:09:25.999Z</time></trkpt><trkpt lat="45.94299592757053" lon="12.088105404001027"><ele>276.0</ele><time>2026-03-26T06:09:27.999Z</time></trkpt><trkpt lat="45.94306563243226" lon="12.088132329088543"><ele>276.0</ele><time>2026-03-26T06:09:28.999Z</time></trkpt><trkpt lat="45.943169818128595" lon="12.088184544313684"><ele>276.0</ele><time>2026-03-26T06:09:30.999Z</time></trkpt><trkpt lat="45.94324478988105" lon="12.088210313858383"><ele>276.0</ele><time>2026-03-26T06:09:32.999Z</time></trkpt><trkpt lat="45.943317538005154" lon="12.088179173116295"><ele>276.0</ele><time>2026-03-26T06:09:55.999Z</time></trkpt><trkpt lat="45.94340408462884" lon="12.088143765930692"><ele>276.8333333333333</ele><time>2026-03-26T06:09:57.999Z</time></trkpt><trkpt lat="45.94346901707766" lon="12.08813928972727"><ele>277.6666666666667</ele><time>2026-03-26T06:09:58.999Z</time></trkpt><trkpt lat="45.943557776224885" lon="12.088103972958038"><ele>278.5</ele><time>2026-03-26T06:10:00.999Z</time></trkpt><trkpt lat="45.94367556719336" lon="12.088063723106629"><ele>279.33333333333337</ele><time>2026-03-26T06:10:03Z</time></trkpt><trkpt lat="45.943744695693454" lon="12.088035569017498"><ele>280.1666666666667</ele><time>2026-03-26T06:10:07Z</time></trkpt><trkpt lat="45.943819787763104" lon="12.088030610786515"><ele>281.0</ele><time>2026-03-26T06:10:33Z</time></trkpt><trkpt lat="45.94391567090572" lon="12.08801249610694"><ele>281.0</ele><time>2026-03-26T06:10:35Z</time></trkpt><trkpt lat="45.94402213379964" lon="12.087972409602255"><ele>281.0</ele><time>2026-03-26T06:10:37Z</time></trkpt><trkpt lat="45.94411669271603" lon="12.087939758853677"><ele>281.0</ele><time>2026-03-26T06:10:39Z</time></trkpt><trkpt lat="45.94422244237973" lon="12.08790873491339"><ele>281.0</ele><time>2026-03-26T06:10:41Z</time></trkpt><trkpt lat="45.944285967827945" lon="12.087846541018752"><ele>281.0</ele><time>2026-03-26T06:10:42.999Z</time></trkpt><trkpt lat="45.9443832523951" lon="12.087773281346529"><ele>283.33333333333337</ele><time>2026-03-26T06:11:03.999Z</time></trkpt><trkpt lat="45.944461044134485" lon="12.087704494509495"><ele>285.6666666666667</ele><time>2026-03-26T06:11:05.999Z</time></trkpt><trkpt lat="45.944520018278155" lon="12.087623537057116"><ele>288.0</ele><time>2026-03-26T06:11:08.999Z</time></trkpt><trkpt lat="45.944447036478934" lon="12.087641268004118"><ele>290.3333333333333</ele><time>2026-03-26T06:11:23.999Z</time></trkpt><trkpt lat="45.9443856444679" lon="12.08767763863202"><ele>292.66666666666663</ele><time>2026-03-26T06:11:34.999Z</time></trkpt><trkpt lat="45.944304190189776" lon="12.08776996135015"><ele>295.0</ele><time>2026-03-26T06:11:36.999Z</time></trkpt><trkpt lat="45.94425144157768" lon="12.087823769683165"><ele>292.66666666666663</ele><time>2026-03-26T06:11:37.999Z</time></trkpt><trkpt lat="45.94419039814364" lon="12.087870038634488"><ele>290.3333333333333</ele><time>2026-03-26T06:11:38.999Z</time></trkpt><trkpt lat="45.94411762627776" lon="12.08790729439453"><ele>288.0</ele><time>2026-03-26T06:11:39.999Z</time></trkpt><trkpt lat="45.94403851269439" lon="12.08792978151372"><ele>285.6666666666667</ele><time>2026-03-26T06:11:40.999Z</time></trkpt><trkpt lat="45.943958469438066" lon="12.08795010551842"><ele>283.33333333333337</ele><time>2026-03-26T06:11:41.999Z</time></trkpt><trkpt lat="45.94387901520937" lon="12.087973732914705"><ele>281.0</ele><time>2026-03-26T06:11:42.999Z</time></trkpt><trkpt lat="45.94379867680997" lon="12.088000771606698"><ele>281.00000000000006</ele><time>2026-03-26T06:11:43.999Z</time></trkpt><trkpt lat="45.94372121862653" lon="12.08802922660594"><ele>281.0</ele><time>2026-03-26T06:11:44.999Z</time></trkpt><trkpt lat="45.94364987736945" lon="12.088051479529826"><ele>281.0</ele><time>2026-03-26T06:11:45.999Z</time></trkpt><trkpt lat="45.94357714252883" lon="12.088071283741213"><ele>281.0</ele><time>2026-03-26T06:11:46.999Z</time></trkpt><trkpt lat="45.94350449247684" lon="12.088093098948985"><ele>281.0</ele><time>2026-03-26T06:11:47.999Z</time></trkpt><trkpt lat="45.9434332427452" lon="12.088114830727049"><ele>281.00000000000006</ele><time>2026-03-26T06:11:48.999Z</time></trkpt><trkpt lat="45.943361584469976" lon="12.088138758446563"><ele>281.0</ele><time>2026-03-26T06:11:49.999Z</time></trkpt><trkpt lat="45.943293424413824" lon="12.088162960408757"><ele>280.1666666666667</ele><time>2026-03-26T06:11:50.999Z</time></trkpt><trkpt lat="45.94321825649436" lon="12.088162731320516"><ele>279.33333333333337</ele><time>2026-03-26T06:11:51.999Z</time></trkpt><trkpt lat="45.94314490645527" lon="12.088141112766833"><ele>278.5</ele><time>2026-03-26T06:11:52.999Z</time></trkpt><trkpt lat="45.94306649942217" lon="12.088102413978119"><ele>277.6666666666667</ele><time>2026-03-26T06:11:53.999Z</time></trkpt><trkpt lat="45.94299013762279" lon="12.0880617781384"><ele>276.8333333333333</ele><time>2026-03-26T06:11:54.999Z</time></trkpt><trkpt lat="45.94292401079228" lon="12.088026796300344"><ele>276.0</ele><time>2026-03-26T06:11:55.999Z</time></trkpt><trkpt lat="45.94283983139885" lon="12.087985019492685"><ele>276.0</ele><time>2026-03-26T06:11:57.999Z</time></trkpt><trkpt lat="45.942764406642716" lon="12.087943749724996"><ele>276.0</ele><time>2026-03-26T06:12:02.999Z</time></trkpt><trkpt lat="45.94272924629194" lon="12.088039294757685"><ele>276.0</ele><time>2026-03-26T06:12:22Z</time></trkpt><trkpt lat="45.94266923196698" lon="12.088115576909866"><ele>276.0</ele><time>2026-03-26T06:12:24Z</time></trkpt><trkpt lat="45.94259392108504" lon="12.088156925902995"><ele>276.0</ele><time>2026-03-26T06:12:26Z</time></trkpt><trkpt lat="45.94254055076629" lon="12.088220842419346"><ele>276.0</ele><time>2026-03-26T06:13:03.999Z</time></trkpt><trkpt lat="45.94248036781662" lon="12.088255430459743"><ele>274.8333333333333</ele><time>2026-03-26T06:13:06.999Z</time></trkpt><trkpt lat="45.94240703105105" lon="12.08836223548107"><ele>273.6666666666667</ele><time>2026-03-26T06:13:09.999Z</time></trkpt><trkpt lat="45.94233625667874" lon="12.088453972464434"><ele>272.5</ele><time>2026-03-26T06:13:11.999Z</time></trkpt><trkpt lat="45.94229059985156" lon="12.088543626157447"><ele>271.33333333333337</ele><time>2026-03-26T06:13:13.999Z</time></trkpt><trkpt lat="45.94225683542819" lon="12.088640121086348"><ele>270.1666666666667</ele><time>2026-03-26T06:13:15.999Z</time></trkpt><trkpt lat="45.94218093945207" lon="12.088625583114784"><ele>269.0</ele><time>2026-03-26T06:13:35.999Z</time></trkpt><trkpt lat="45.942105113379036" lon="12.088621253288728"><ele>269.0</ele><time>2026-03-26T06:13:38.999Z</time></trkpt><trkpt lat="45.942037387377596" lon="12.088650412628743"><ele>269.0</ele><time>2026-03-26T06:13:40.999Z</time></trkpt><trkpt lat="45.941954350177085" lon="12.088722554590738"><ele>269.0</ele><time>2026-03-26T06:13:42.999Z</time></trkpt><trkpt lat="45.941855423859515" lon="12.08878193901142"><ele>269.0</ele><time>2026-03-26T06:13:44.999Z</time></trkpt><trkpt lat="45.94174011701397" lon="12.088825515535484"><ele>269.0</ele><time>2026-03-26T06:13:46.999Z</time></trkpt><trkpt lat="45.941637125118746" lon="12.088912723238206"><ele>268.5</ele><time>2026-03-26T06:13:48.999Z</time></trkpt><trkpt lat="45.94155489798758" lon="12.088998522369426"><ele>268.0</ele><time>2026-03-26T06:13:50.999Z</time></trkpt><trkpt lat="45.94149455807058" lon="12.089071069695317"><ele>267.5</ele><time>2026-03-26T06:13:52.999Z</time></trkpt><trkpt lat="45.941439018107936" lon="12.089114238768168"><ele>267.0</ele><time>2026-03-26T06:13:57.999Z</time></trkpt><trkpt lat="45.94138402916531" lon="12.089020240545487"><ele>266.5</ele><time>2026-03-26T06:13:59.999Z</time></trkpt><trkpt lat="45.94130118050896" lon="12.08891133471372"><ele>266.0</ele><time>2026-03-26T06:14:01.999Z</time></trkpt><trkpt lat="45.941219140060205" lon="12.088806804325246"><ele>266.0</ele><time>2026-03-26T06:14:03.999Z</time></trkpt><trkpt lat="45.94113183287838" lon="12.088680422063163"><ele>266.0</ele><time>2026-03-26T06:14:05.999Z</time></trkpt><trkpt lat="45.94107863352762" lon="12.088594586918877"><ele>266.0</ele><time>2026-03-26T06:14:06.999Z</time></trkpt><trkpt lat="45.94102757449191" lon="12.08850434470041"><ele>266.0</ele><time>2026-03-26T06:14:07.999Z</time></trkpt><trkpt lat="45.940976515738825" lon="12.088405986234468"><ele>266.0</ele><time>2026-03-26T06:14:08.999Z</time></trkpt><trkpt lat="45.94092129516341" lon="12.088300909413368"><ele>265.8</ele><time>2026-03-26T06:14:09.999Z</time></trkpt><trkpt lat="45.94086275273821" lon="12.088191349567044"><ele>265.6</ele><time>2026-03-26T06:14:10.999Z</time></trkpt><trkpt lat="45.94081222022723" lon="12.088077848457575"><ele>265.4</ele><time>2026-03-26T06:14:11.999Z</time></trkpt><trkpt lat="45.9407643497721" lon="12.087984775177583"><ele>265.2</ele><time>2026-03-26T06:14:12.999Z</time></trkpt><trkpt lat="45.940715267065336" lon="12.087878885353515"><ele>265.0</ele><time>2026-03-26T06:14:14Z</time></trkpt><trkpt lat="45.940670402770685" lon="12.087757302978854"><ele>265.0</ele><time>2026-03-26T06:14:15Z</time></trkpt><trkpt lat="45.940620102308344" lon="12.087640296740272"><ele>265.0</ele><time>2026-03-26T06:14:16Z</time></trkpt><trkpt lat="45.94057120938781" lon="12.08751898823748"><ele>265.0</ele><time>2026-03-26T06:14:17Z</time></trkpt><trkpt lat="45.94052015213424" lon="12.087393184265942"><ele>265.0</ele><time>2026-03-26T06:14:18Z</time></trkpt><trkpt lat="45.94046834570201" lon="12.087264768538667"><ele>265.0</ele><time>2026-03-26T06:14:19Z</time></trkpt><trkpt lat="45.94041957662451" lon="12.08714247372927"><ele>265.6</ele><time>2026-03-26T06:14:20Z</time></trkpt><trkpt lat="45.940372126941114" lon="12.087025126621336"><ele>266.2</ele><time>2026-03-26T06:14:21Z</time></trkpt><trkpt lat="45.940327334250725" lon="12.086915990578152"><ele>266.8</ele><time>2026-03-26T06:14:22Z</time></trkpt><trkpt lat="45.94028225333832" lon="12.08680709440281"><ele>267.4</ele><time>2026-03-26T06:14:23Z</time></trkpt><trkpt lat="45.94023586915134" lon="12.086698436544426"><ele>268.0</ele><time>2026-03-26T06:14:24Z</time></trkpt><trkpt lat="45.94018426978752" lon="12.086589333880102"><ele>268.2</ele><time>2026-03-26T06:14:25Z</time></trkpt><trkpt lat="45.940123365697" lon="12.086471872883907"><ele>268.4</ele><time>2026-03-26T06:14:26Z</time></trkpt><trkpt lat="45.940051606166676" lon="12.086360576683747"><ele>268.59999999999997</ele><time>2026-03-26T06:14:27Z</time></trkpt><trkpt lat="45.93997267431368" lon="12.086283460616718"><ele>268.8</ele><time>2026-03-26T06:14:28Z</time></trkpt><trkpt lat="45.9398789641245" lon="12.086197712684976"><ele>269.0</ele><time>2026-03-26T06:14:29Z</time></trkpt><trkpt lat="45.93979099427462" lon="12.086116535641198"><ele>269.0</ele><time>2026-03-26T06:14:30Z</time></trkpt><trkpt lat="45.93970549792958" lon="12.086037968358537"><ele>269.0</ele><time>2026-03-26T06:14:31Z</time></trkpt><trkpt lat="45.93964529590053" lon="12.085983267046316"><ele>269.0</ele><time>2026-03-26T06:14:32Z</time></trkpt><trkpt lat="45.939583561967275" lon="12.085922250826783"><ele>269.0</ele><time>2026-03-26T06:14:34Z</time></trkpt><trkpt lat="45.93951527957356" lon="12.085893623834899"><ele>269.0</ele><time>2026-03-26T06:14:40Z</time></trkpt><trkpt lat="45.93949993627124" lon="12.08580505987748"><ele>269.0</ele><time>2026-03-26T06:14:43Z</time></trkpt><trkpt lat="45.93954937242252" lon="12.08571997311223"><ele>270.0</ele><time>2026-03-26T06:14:50.999Z</time></trkpt><trkpt lat="45.93956722014988" lon="12.085611569806371"><ele>271.0</ele><time>2026-03-26T06:14:53.999Z</time></trkpt><trkpt lat="45.939502247859174" lon="12.08561714537134"><ele>272.0</ele><time>2026-03-26T06:15:21.999Z</time></trkpt><trkpt lat="45.93942652396007" lon="12.085568959959165"><ele>273.0</ele><time>2026-03-26T06:15:25.999Z</time></trkpt><trkpt lat="45.93935498469225" lon="12.085541390262446"><ele>274.0</ele><time>2026-03-26T06:15:28.999Z</time></trkpt><trkpt lat="45.93928006956012" lon="12.085511926854613"><ele>275.0</ele><time>2026-03-26T06:15:44.999Z</time></trkpt><trkpt lat="45.93920385298221" lon="12.085499310135338"><ele>275.33333333333337</ele><time>2026-03-26T06:15:46.999Z</time></trkpt><trkpt lat="45.93914135736625" lon="12.085469501758078"><ele>275.6666666666667</ele><time>2026-03-26T06:15:50.999Z</time></trkpt><trkpt lat="45.939077348293026" lon="12.085444756473759"><ele>276.0</ele><time>2026-03-26T06:15:56.999Z</time></trkpt><trkpt lat="45.93900291705586" lon="12.085407443585744"><ele>276.3333333333333</ele><time>2026-03-26T06:15:58.999Z</time></trkpt><trkpt lat="45.93890392357053" lon="12.085317366377042"><ele>276.66666666666663</ele><time>2026-03-26T06:16:00.999Z</time></trkpt><trkpt lat="45.93883029498535" lon="12.085237634417263"><ele>277.0</ele><time>2026-03-26T06:16:02.999Z</time></trkpt><trkpt lat="45.93872675884986" lon="12.085289444969007"><ele>277.0</ele><time>2026-03-26T06:16:11.999Z</time></trkpt><trkpt lat="45.93864163906607" lon="12.085395637713864"><ele>277.0</ele><time>2026-03-26T06:16:13.999Z</time></trkpt><trkpt lat="45.93858187796259" lon="12.085464502368788"><ele>277.0</ele><time>2026-03-26T06:16:15.999Z</time></trkpt><trkpt lat="45.938550519356745" lon="12.08556797555002"><ele>277.0</ele><time>2026-03-26T06:16:42Z</time></trkpt><trkpt lat="45.93847396637123" lon="12.085681404985861"><ele>277.0</ele><time>2026-03-26T06:16:44Z</time></trkpt><trkpt lat="45.93840107209626" lon="12.085811644276106"><ele>276.0</ele><time>2026-03-26T06:16:46Z</time></trkpt><trkpt lat="45.93831502292234" lon="12.085900397569377"><ele>275.0</ele><time>2026-03-26T06:16:47.999Z</time></trkpt><trkpt lat="45.938251460237126" lon="12.086046483135188"><ele>274.0</ele><time>2026-03-26T06:16:49.999Z</time></trkpt><trkpt lat="45.93822184209594" lon="12.086131552668345"><ele>273.0</ele><time>2026-03-26T06:16:50.999Z</time></trkpt><trkpt lat="45.9381934008639" lon="12.086216219951792"><ele>272.0</ele><time>2026-03-26T06:16:51.999Z</time></trkpt><trkpt lat="45.938157167081954" lon="12.086327152948849"><ele>271.0</ele><time>2026-03-26T06:16:53.999Z</time></trkpt><trkpt lat="45.93830474870223" lon="12.08645346956288"><ele>271.0</ele><time>2026-03-26T06:16:55.999Z</time></trkpt><trkpt lat="45.9383975419049" lon="12.08651410572327"><ele>271.0</ele><time>2026-03-26T06:16:57.999Z</time></trkpt><trkpt lat="45.93846111168139" lon="12.086551172711939"><ele>271.0</ele><time>2026-03-26T06:16:59.999Z</time></trkpt><trkpt lat="45.938561513456904" lon="12.086627624211806"><ele>271.0</ele><time>2026-03-26T06:17:22.999Z</time></trkpt><trkpt lat="45.93861938223146" lon="12.086671313203848"><ele>271.0</ele><time>2026-03-26T06:17:23.999Z</time></trkpt><trkpt lat="45.938679092082516" lon="12.086712166111194"><ele>271.0</ele><time>2026-03-26T06:17:24.999Z</time></trkpt><trkpt lat="45.93874538160114" lon="12.086757042477394"><ele>269.8333333333333</ele><time>2026-03-26T06:17:25.999Z</time></trkpt><trkpt lat="45.938809444101054" lon="12.086805687626462"><ele>268.66666666666663</ele><time>2026-03-26T06:17:26.999Z</time></trkpt><trkpt lat="45.93886988961108" lon="12.086852672493324"><ele>267.5</ele><time>2026-03-26T06:17:27.999Z</time></trkpt><trkpt lat="45.93892481971456" lon="12.086897894141249"><ele>266.3333333333333</ele><time>2026-03-26T06:17:28.999Z</time></trkpt><trkpt lat="45.9390257011045" lon="12.086986529328685"><ele>265.1666666666667</ele><time>2026-03-26T06:17:30.999Z</time></trkpt><trkpt lat="45.939104763657134" lon="12.087044212478625"><ele>264.0</ele><time>2026-03-26T06:17:32.999Z</time></trkpt><trkpt lat="45.93901772861623" lon="12.086984424769737"><ele>264.0</ele><time>2026-03-26T06:17:40.999Z</time></trkpt><trkpt lat="45.93895937950691" lon="12.086919590664616"><ele>264.0</ele><time>2026-03-26T06:17:44.999Z</time></trkpt><trkpt lat="45.93891116192063" lon="12.086858437016458"><ele>264.0</ele><time>2026-03-26T06:17:54.999Z</time></trkpt><trkpt lat="45.93883371634692" lon="12.086768777323057"><ele>264.0</ele><time>2026-03-26T06:17:56.999Z</time></trkpt><trkpt lat="45.938724605645085" lon="12.08670922791304"><ele>264.0</ele><time>2026-03-26T06:17:58.999Z</time></trkpt><trkpt lat="45.938631002687615" lon="12.086623276518884"><ele>265.1666666666667</ele><time>2026-03-26T06:18:00.999Z</time></trkpt><trkpt lat="45.93852050808557" lon="12.086553919468212"><ele>266.3333333333333</ele><time>2026-03-26T06:18:02.999Z</time></trkpt><trkpt lat="45.9384584415269" lon="12.086512572928058"><ele>267.5</ele><time>2026-03-26T06:18:03.999Z</time></trkpt><trkpt lat="45.938391582297676" lon="12.086476728455324"><ele>268.66666666666663</ele><time>2026-03-26T06:18:04.999Z</time></trkpt><trkpt lat="45.93832295186837" lon="12.086440408087041"><ele>269.8333333333333</ele><time>2026-03-26T06:18:05.999Z</time></trkpt><trkpt lat="45.93827190801284" lon="12.086387125044107"><ele>271.0</ele><time>2026-03-26T06:18:06.999Z</time></trkpt><trkpt lat="45.938197061585335" lon="12.08634514838328"><ele>271.0</ele><time>2026-03-26T06:18:08.999Z</time></trkpt><trkpt lat="45.93822593347042" lon="12.086222834263697"><ele>271.0</ele><time>2026-03-26T06:18:11.999Z</time></trkpt><trkpt lat="45.93828080214671" lon="12.08607848673703"><ele>271.0</ele><time>2026-03-26T06:18:13.999Z</time></trkpt><trkpt lat="45.938323268718825" lon="12.085992026284933"><ele>271.0</ele><time>2026-03-26T06:18:14.999Z</time></trkpt><trkpt lat="45.93836358615407" lon="12.085906176122373"><ele>271.0</ele><time>2026-03-26T06:18:15.999Z</time></trkpt><trkpt lat="45.93840307411976" lon="12.085835456176033"><ele>271.0</ele><time>2026-03-26T06:18:16.999Z</time></trkpt><trkpt lat="45.93844463890608" lon="12.085763931072531"><ele>272.0</ele><time>2026-03-26T06:18:17.999Z</time></trkpt><trkpt lat="45.93848517901991" lon="12.085684402057353"><ele>273.0</ele><time>2026-03-26T06:18:18.999Z</time></trkpt><trkpt lat="45.93853520712572" lon="12.085611132428062"><ele>274.0</ele><time>2026-03-26T06:18:19.999Z</time></trkpt><trkpt lat="45.93858495296044" lon="12.085535074507293"><ele>275.0</ele><time>2026-03-26T06:18:20.999Z</time></trkpt><trkpt lat="45.938636083889094" lon="12.085457951053428"><ele>276.0</ele><time>2026-03-26T06:18:21.999Z</time></trkpt><trkpt lat="45.938682715342146" lon="12.085376498320063"><ele>277.0</ele><time>2026-03-26T06:18:22.999Z</time></trkpt><trkpt lat="45.938758233061236" lon="12.085305226066327"><ele>277.0</ele><time>2026-03-26T06:18:25Z</time></trkpt><trkpt lat="45.93885734150654" lon="12.08529384510605"><ele>277.0</ele><time>2026-03-26T06:18:32Z</time></trkpt><trkpt lat="45.938952776539836" lon="12.085395712553256"><ele>277.0</ele><time>2026-03-26T06:18:34Z</time></trkpt><trkpt lat="45.93901305793259" lon="12.08545556375793"><ele>277.0</ele><time>2026-03-26T06:18:36Z</time></trkpt><trkpt lat="45.93908520858576" lon="12.085489447078421"><ele>277.0</ele><time>2026-03-26T06:18:45Z</time></trkpt><trkpt lat="45.939151775573" lon="12.08541127774462"><ele>277.0</ele><time>2026-03-26T06:18:47Z</time></trkpt><trkpt lat="45.93921297724958" lon="12.08526173520338"><ele>277.0</ele><time>2026-03-26T06:18:49.999Z</time></trkpt><trkpt lat="45.93926212439158" lon="12.08512536325247"><ele>277.0</ele><time>2026-03-26T06:18:51.999Z</time></trkpt><trkpt lat="45.9393010704408" lon="12.08502102400421"><ele>277.0</ele><time>2026-03-26T06:18:53.999Z</time></trkpt><trkpt lat="45.939331671988995" lon="12.084905548024564"><ele>277.0</ele><time>2026-03-26T06:18:55.999Z</time></trkpt><trkpt lat="45.93936593170454" lon="12.084800869997675"><ele>277.8</ele><time>2026-03-26T06:18:57.999Z</time></trkpt><trkpt lat="45.93942870247386" lon="12.084672101539205"><ele>278.6</ele><time>2026-03-26T06:19:21.999Z</time></trkpt><trkpt lat="45.939486471744424" lon="12.084515803692282"><ele>279.40000000000003</ele><time>2026-03-26T06:19:23.999Z</time></trkpt><trkpt lat="45.93951515229705" lon="12.084431881921073"><ele>280.2</ele><time>2026-03-26T06:19:24.999Z</time></trkpt><trkpt lat="45.939540509277535" lon="12.084337930694694"><ele>281.0</ele><time>2026-03-26T06:19:25.999Z</time></trkpt><trkpt lat="45.93954969874115" lon="12.084186302644085"><ele>282.83333333333337</ele><time>2026-03-26T06:19:27.999Z</time></trkpt><trkpt lat="45.939542396031335" lon="12.084055625025105"><ele>284.6666666666667</ele><time>2026-03-26T06:19:30.999Z</time></trkpt><trkpt lat="45.939525368785716" lon="12.08394407276336"><ele>286.5</ele><time>2026-03-26T06:19:53.999Z</time></trkpt><trkpt lat="45.93951231512877" lon="12.083815086902662"><ele>288.3333333333333</ele><time>2026-03-26T06:19:55.999Z</time></trkpt><trkpt lat="45.9395012185735" lon="12.083665655227735"><ele>290.16666666666663</ele><time>2026-03-26T06:19:57.999Z</time></trkpt><trkpt lat="45.93948518527449" lon="12.083552513767936"><ele>292.0</ele><time>2026-03-26T06:19:59.999Z</time></trkpt><trkpt lat="45.93944445878368" lon="12.083446727900398"><ele>292.0</ele><time>2026-03-26T06:20:02.999Z</time></trkpt><trkpt lat="45.93936742192067" lon="12.083424711665252"><ele>292.0</ele><time>2026-03-26T06:20:06.999Z</time></trkpt><trkpt lat="45.93927958495576" lon="12.083343885311658"><ele>292.0</ele><time>2026-03-26T06:20:08.999Z</time></trkpt><trkpt lat="45.9391806291033" lon="12.083295655790733"><ele>292.0</ele><time>2026-03-26T06:20:10.999Z</time></trkpt><trkpt lat="45.93902783708517" lon="12.08370911543048"><ele>292.66666666666663</ele><time>2026-03-26T06:20:11.999Z</time></trkpt><trkpt lat="45.93891756473836" lon="12.083750241639146"><ele>293.3333333333333</ele><time>2026-03-26T06:20:13.999Z</time></trkpt><trkpt lat="45.93882910177419" lon="12.083764460052647"><ele>294.0</ele><time>2026-03-26T06:20:15.999Z</time></trkpt><trkpt lat="45.93875348332292" lon="12.083827819688421"><ele>294.6666666666667</ele><time>2026-03-26T06:20:17.999Z</time></trkpt><trkpt lat="45.93869595464609" lon="12.083872684387565"><ele>295.33333333333337</ele><time>2026-03-26T06:20:19.999Z</time></trkpt><trkpt lat="45.93862239211271" lon="12.083937975406997"><ele>296.0</ele><time>2026-03-26T06:20:21.999Z</time></trkpt><trkpt lat="45.938578699346046" lon="12.084007670268605"><ele>296.0</ele><time>2026-03-26T06:20:23.999Z</time></trkpt><trkpt lat="45.938476264520524" lon="12.084031420678398"><ele>296.0</ele><time>2026-03-26T06:20:25.998Z</time></trkpt><trkpt lat="45.93837479828557" lon="12.084037783452324"><ele>296.0</ele><time>2026-03-26T06:20:27.998Z</time></trkpt><trkpt lat="45.93830508620061" lon="12.084022074041455"><ele>296.0</ele><time>2026-03-26T06:20:33.999Z</time></trkpt><trkpt lat="45.93823337900911" lon="12.083985450692982"><ele>296.0</ele><time>2026-03-26T06:20:49.999Z</time></trkpt><trkpt lat="45.93817716952212" lon="12.084055646223858"><ele>296.0</ele><time>2026-03-26T06:20:54.999Z</time></trkpt><trkpt lat="45.93817015320604" lon="12.084184355686856"><ele>293.6</ele><time>2026-03-26T06:20:56.999Z</time></trkpt><trkpt lat="45.93813816161614" lon="12.084325164688035"><ele>291.20000000000005</ele><time>2026-03-26T06:20:58.999Z</time></trkpt><trkpt lat="45.938106832209506" lon="12.08446574438779"><ele>288.79999999999995</ele><time>2026-03-26T06:21:00.999Z</time></trkpt><trkpt lat="45.938075603851594" lon="12.084554973984895"><ele>286.4</ele><time>2026-03-26T06:21:02.999Z</time></trkpt><trkpt lat="45.93797533400179" lon="12.084569221091517"><ele>284.0</ele><time>2026-03-26T06:21:18.999Z</time></trkpt><trkpt lat="45.93786877801774" lon="12.084518528261698"><ele>284.0</ele><time>2026-03-26T06:21:20.999Z</time></trkpt><trkpt lat="45.93781035601323" lon="12.084470759090301"><ele>284.0</ele><time>2026-03-26T06:21:21.999Z</time></trkpt><trkpt lat="45.93771980326297" lon="12.0843519634251"><ele>284.0</ele><time>2026-03-26T06:21:23.999Z</time></trkpt><trkpt lat="45.937665837935164" lon="12.084225064482364"><ele>284.0</ele><time>2026-03-26T06:21:25.999Z</time></trkpt><trkpt lat="45.93761252537668" lon="12.08412374154324"><ele>284.0</ele><time>2026-03-26T06:21:46.999Z</time></trkpt><trkpt lat="45.937585246866384" lon="12.084003052088102"><ele>285.2</ele><time>2026-03-26T06:21:48.999Z</time></trkpt><trkpt lat="45.937541970359845" lon="12.08387441678093"><ele>286.4</ele><time>2026-03-26T06:21:50.999Z</time></trkpt><trkpt lat="45.937490797603104" lon="12.083759361934044"><ele>287.6</ele><time>2026-03-26T06:21:52.999Z</time></trkpt><trkpt lat="45.937427762981486" lon="12.083648694973045"><ele>288.8</ele><time>2026-03-26T06:21:54.999Z</time></trkpt><trkpt lat="45.93732395655908" lon="12.083574208944171"><ele>290.0</ele><time>2026-03-26T06:21:56.999Z</time></trkpt><trkpt lat="45.93723123547601" lon="12.083492814241998"><ele>290.0</ele><time>2026-03-26T06:21:58.999Z</time></trkpt><trkpt lat="45.937166054634154" lon="12.083480367713767"><ele>290.0</ele><time>2026-03-26T06:21:59.999Z</time></trkpt><trkpt lat="45.9370629292874" lon="12.083424139116694"><ele>290.0</ele><time>2026-03-26T06:22:01.999Z</time></trkpt><trkpt lat="45.937010697531285" lon="12.083531506117838"><ele>290.0</ele><time>2026-03-26T06:22:09.999Z</time></trkpt><trkpt lat="45.93708206666502" lon="12.083521982520933"><ele>290.0</ele><time>2026-03-26T06:22:46.999Z</time></trkpt><trkpt lat="45.93718746415305" lon="12.08357066750323"><ele>290.0</ele><time>2026-03-26T06:22:48.999Z</time></trkpt><trkpt lat="45.93726649079579" lon="12.08359056312777"><ele>290.0</ele><time>2026-03-26T06:22:51Z</time></trkpt><trkpt lat="45.93733486771016" lon="12.083638735430336"><ele>290.0</ele><time>2026-03-26T06:22:53Z</time></trkpt><trkpt lat="45.937417777805464" lon="12.083731646492268"><ele>290.0</ele><time>2026-03-26T06:22:57Z</time></trkpt><trkpt lat="45.93747324985656" lon="12.08386392549728"><ele>290.0</ele><time>2026-03-26T06:22:59Z</time></trkpt><trkpt lat="45.93755039453108" lon="12.083871959603526"><ele>290.0</ele><time>2026-03-26T06:23:03Z</time></trkpt><trkpt lat="45.937609018873765" lon="12.083784735970982"><ele>290.5</ele><time>2026-03-26T06:23:38Z</time></trkpt><trkpt lat="45.93763632408667" lon="12.08368122215671"><ele>291.0</ele><time>2026-03-26T06:23:43Z</time></trkpt><trkpt lat="45.93766538827553" lon="12.083581859643857"><ele>291.5</ele><time>2026-03-26T06:23:45Z</time></trkpt><trkpt lat="45.93767007002247" lon="12.083453945047665"><ele>292.0</ele><time>2026-03-26T06:23:47Z</time></trkpt><trkpt lat="45.93769152321282" lon="12.083336293190817"><ele>292.5</ele><time>2026-03-26T06:23:49Z</time></trkpt><trkpt lat="45.93771678920617" lon="12.0832222733097"><ele>293.0</ele><time>2026-03-26T06:23:51Z</time></trkpt><trkpt lat="45.93775058023351" lon="12.083136933217771"><ele>293.5</ele><time>2026-03-26T06:23:53Z</time></trkpt><trkpt lat="45.9377831518932" lon="12.083037417211377"><ele>294.0</ele><time>2026-03-26T06:24:12Z</time></trkpt><trkpt lat="45.93780933398045" lon="12.082950201106334"><ele>294.5</ele><time>2026-03-26T06:24:15Z</time></trkpt><trkpt lat="45.93778698128449" lon="12.08286126275448"><ele>295.0</ele><time>2026-03-26T06:24:20Z</time></trkpt><trkpt lat="45.937704414515906" lon="12.082827464868652"><ele>295.5</ele><time>2026-03-26T06:24:22Z</time></trkpt><trkpt lat="45.93761489013574" lon="12.082768078291426"><ele>296.0</ele><time>2026-03-26T06:24:24Z</time></trkpt><trkpt lat="45.937520502947166" lon="12.08268965448429"><ele>296.0</ele><time>2026-03-26T06:24:26Z</time></trkpt><trkpt lat="45.93744713497333" lon="12.082604108214476"><ele>296.0</ele><time>2026-03-26T06:24:27.999Z</time></trkpt><trkpt lat="45.93736711382813" lon="12.08250167999729"><ele>296.0</ele><time>2026-03-26T06:24:29.999Z</time></trkpt><trkpt lat="45.93732216911872" lon="12.082431150648002"><ele>296.0</ele><time>2026-03-26T06:24:30.999Z</time></trkpt><trkpt lat="45.93727792168583" lon="12.082355982429963"><ele>296.0</ele><time>2026-03-26T06:24:31.999Z</time></trkpt><trkpt lat="45.93724092885588" lon="12.082277608125281"><ele>296.0</ele><time>2026-03-26T06:24:32.999Z</time></trkpt><trkpt lat="45.93718080685782" lon="12.082153763134736"><ele>296.83333333333337</ele><time>2026-03-26T06:24:34.999Z</time></trkpt><trkpt lat="45.93711027220591" lon="12.082043912360804"><ele>297.6666666666667</ele><time>2026-03-26T06:24:36.999Z</time></trkpt><trkpt lat="45.93704640192867" lon="12.081906350892625"><ele>298.5</ele><time>2026-03-26T06:24:38.999Z</time></trkpt><trkpt lat="45.93700598024986" lon="12.081829961971579"><ele>299.3333333333333</ele><time>2026-03-26T06:24:39.999Z</time></trkpt><trkpt lat="45.9369663503028" lon="12.081753976589898"><ele>300.16666666666663</ele><time>2026-03-26T06:24:40.999Z</time></trkpt><trkpt lat="45.93692317482844" lon="12.081677514345845"><ele>301.0</ele><time>2026-03-26T06:24:42Z</time></trkpt><trkpt lat="45.93685554455304" lon="12.08154495587914"><ele>300.3333333333333</ele><time>2026-03-26T06:24:44Z</time></trkpt><trkpt lat="45.93681325224386" lon="12.08147406697319"><ele>299.66666666666663</ele><time>2026-03-26T06:24:47Z</time></trkpt><trkpt lat="45.93676582129799" lon="12.081412734726667"><ele>299.0</ele><time>2026-03-26T06:24:50Z</time></trkpt><trkpt lat="45.93671060713106" lon="12.081300062529959"><ele>298.3333333333333</ele><time>2026-03-26T06:24:55Z</time></trkpt><trkpt lat="45.93664544537778" lon="12.081247290589936"><ele>297.6666666666667</ele><time>2026-03-26T06:24:58Z</time></trkpt><trkpt lat="45.936592645813526" lon="12.081139890815194"><ele>297.0</ele><time>2026-03-26T06:25:00Z</time></trkpt><trkpt lat="45.936543994676754" lon="12.081068323449363"><ele>297.0</ele><time>2026-03-26T06:25:01Z</time></trkpt><trkpt lat="45.93649857450026" lon="12.080996779578161"><ele>297.0</ele><time>2026-03-26T06:25:02Z</time></trkpt><trkpt lat="45.93645420161667" lon="12.080922560695008"><ele>297.0</ele><time>2026-03-26T06:25:03Z</time></trkpt><trkpt lat="45.93641268060213" lon="12.08084808951467"><ele>297.0</ele><time>2026-03-26T06:25:04Z</time></trkpt><trkpt lat="45.93633848343461" lon="12.080732899893528"><ele>297.0</ele><time>2026-03-26T06:25:06Z</time></trkpt><trkpt lat="45.936296932759085" lon="12.080635363741182"><ele>297.0</ele><time>2026-03-26T06:25:08Z</time></trkpt><trkpt lat="45.936240739060196" lon="12.080545814799406"><ele>296.3333333333333</ele><time>2026-03-26T06:25:13Z</time></trkpt><trkpt lat="45.93616497745764" lon="12.08046797247291"><ele>295.6666666666667</ele><time>2026-03-26T06:25:15Z</time></trkpt><trkpt lat="45.93607482090776" lon="12.080347270384227"><ele>295.0</ele><time>2026-03-26T06:25:17Z</time></trkpt><trkpt lat="45.93602586479049" lon="12.080279393661792"><ele>294.33333333333337</ele><time>2026-03-26T06:25:18Z</time></trkpt><trkpt lat="45.93597064646673" lon="12.080208289393294"><ele>293.6666666666667</ele><time>2026-03-26T06:25:19Z</time></trkpt><trkpt lat="45.93590510998317" lon="12.080127964224296"><ele>293.0</ele><time>2026-03-26T06:25:20Z</time></trkpt><trkpt lat="45.935832512668625" lon="12.080040766702103"><ele>293.0</ele><time>2026-03-26T06:25:21Z</time></trkpt><trkpt lat="45.93575478848382" lon="12.079959458206847"><ele>293.0</ele><time>2026-03-26T06:25:22Z</time></trkpt><trkpt lat="45.93567725380861" lon="12.079888745061183"><ele>293.0</ele><time>2026-03-26T06:25:23Z</time></trkpt><trkpt lat="45.93559744360055" lon="12.079820991990019"><ele>293.0</ele><time>2026-03-26T06:25:24Z</time></trkpt><trkpt lat="45.93551528228343" lon="12.079746953787899"><ele>293.0</ele><time>2026-03-26T06:25:25Z</time></trkpt><trkpt lat="45.93543801245544" lon="12.079666741248571"><ele>296.4</ele><time>2026-03-26T06:25:26Z</time></trkpt><trkpt lat="45.93536393899253" lon="12.079582830510612"><ele>299.8</ele><time>2026-03-26T06:25:27Z</time></trkpt><trkpt lat="45.935292655578905" lon="12.079492009494478"><ele>303.2</ele><time>2026-03-26T06:25:28Z</time></trkpt><trkpt lat="45.93522219212756" lon="12.079391294323417"><ele>306.6</ele><time>2026-03-26T06:25:29Z</time></trkpt><trkpt lat="45.935146808111455" lon="12.079285887722321"><ele>310.0</ele><time>2026-03-26T06:25:30Z</time></trkpt><trkpt lat="45.935069670121074" lon="12.079178170491145"><ele>310.25</ele><time>2026-03-26T06:25:31Z</time></trkpt><trkpt lat="45.9349868979027" lon="12.079070595893622"><ele>310.5</ele><time>2026-03-26T06:25:32Z</time></trkpt><trkpt lat="45.93489791530564" lon="12.078965449823706"><ele>310.75</ele><time>2026-03-26T06:25:33Z</time></trkpt><trkpt lat="45.934804381362056" lon="12.0788665628754"><ele>311.0</ele><time>2026-03-26T06:25:34Z</time></trkpt><trkpt lat="45.934708406106516" lon="12.078770162661423"><ele>311.0</ele><time>2026-03-26T06:25:35Z</time></trkpt><trkpt lat="45.934613014825274" lon="12.07867325408093"><ele>311.0</ele><time>2026-03-26T06:25:36Z</time></trkpt><trkpt lat="45.934528753444646" lon="12.078570779279197"><ele>311.0</ele><time>2026-03-26T06:25:37Z</time></trkpt><trkpt lat="45.93444241876753" lon="12.078473019370762"><ele>311.0</ele><time>2026-03-26T06:25:38Z</time></trkpt><trkpt lat="45.93435084164096" lon="12.078387747135453"><ele>311.0</ele><time>2026-03-26T06:25:39Z</time></trkpt><trkpt lat="45.93425453289466" lon="12.078320173337087"><ele>311.40000000000003</ele><time>2026-03-26T06:25:40Z</time></trkpt><trkpt lat="45.93415442013935" lon="12.078255199634036"><ele>311.8</ele><time>2026-03-26T06:25:41Z</time></trkpt><trkpt lat="45.93405840052151" lon="12.078202589343725"><ele>312.20000000000005</ele><time>2026-03-26T06:25:42Z</time></trkpt><trkpt lat="45.93397162148118" lon="12.078157327570194"><ele>312.6</ele><time>2026-03-26T06:25:43Z</time></trkpt><trkpt lat="45.933896933720895" lon="12.078120129815618"><ele>313.0</ele><time>2026-03-26T06:25:44Z</time></trkpt><trkpt lat="45.93380201324941" lon="12.078066278709128"><ele>313.0</ele><time>2026-03-26T06:25:46Z</time></trkpt><trkpt lat="45.933733392260315" lon="12.078016666555676"><ele>313.0</ele><time>2026-03-26T06:25:48Z</time></trkpt><trkpt lat="45.93363382563614" lon="12.077940171170185"><ele>313.0</ele><time>2026-03-26T06:25:50Z</time></trkpt><trkpt lat="45.93357179080705" lon="12.07785472522785"><ele>313.0</ele><time>2026-03-26T06:25:52Z</time></trkpt><trkpt lat="45.93351759618433" lon="12.077768147194359"><ele>313.0</ele><time>2026-03-26T06:25:54Z</time></trkpt><trkpt lat="45.933464209064105" lon="12.077689322137111"><ele>313.0</ele><time>2026-03-26T06:25:55Z</time></trkpt><trkpt lat="45.93340788945864" lon="12.077603958730421"><ele>313.0</ele><time>2026-03-26T06:25:57Z</time></trkpt><trkpt lat="45.933367729618155" lon="12.07742634369893"><ele>313.0</ele><time>2026-03-26T06:26:01Z</time></trkpt><trkpt lat="45.93336022667836" lon="12.077560368180396"><ele>313.0</ele><time>2026-03-26T06:26:16Z</time></trkpt><trkpt lat="45.93341639081317" lon="12.077661234236105"><ele>313.0</ele><time>2026-03-26T06:26:18Z</time></trkpt><trkpt lat="45.933462630812755" lon="12.077764669181501"><ele>313.0</ele><time>2026-03-26T06:26:19Z</time></trkpt><trkpt lat="45.93351454945875" lon="12.0778410431788"><ele>313.0</ele><time>2026-03-26T06:26:20Z</time></trkpt><trkpt lat="45.9335687473035" lon="12.077924753890269"><ele>313.0</ele><time>2026-03-26T06:26:21Z</time></trkpt><trkpt lat="45.93362774171604" lon="12.077996703028749"><ele>313.0</ele><time>2026-03-26T06:26:22Z</time></trkpt><trkpt lat="45.933702535810056" lon="12.078055327189487"><ele>313.0</ele><time>2026-03-26T06:26:23Z</time></trkpt><trkpt lat="45.93377485387235" lon="12.078106411693021"><ele>313.0</ele><time>2026-03-26T06:26:24Z</time></trkpt><trkpt lat="45.93384832534954" lon="12.078148869959765"><ele>313.0</ele><time>2026-03-26T06:26:25Z</time></trkpt><trkpt lat="45.93392743765809" lon="12.078188133692251"><ele>313.0</ele><time>2026-03-26T06:26:26Z</time></trkpt><trkpt lat="45.93400805747505" lon="12.078227094217775"><ele>313.0</ele><time>2026-03-26T06:26:27Z</time></trkpt><trkpt lat="45.934090253396924" lon="12.078271356974914"><ele>313.0</ele><time>2026-03-26T06:26:28Z</time></trkpt><trkpt lat="45.93417199522752" lon="12.078321286324787"><ele>313.0</ele><time>2026-03-26T06:26:28.999Z</time></trkpt><trkpt lat="45.93425237943241" lon="12.078378011441146"><ele>313.0</ele><time>2026-03-26T06:26:29.999Z</time></trkpt><trkpt lat="45.93433524315065" lon="12.0784388685883"><ele>313.0</ele><time>2026-03-26T06:26:30.999Z</time></trkpt><trkpt lat="45.93441309079587" lon="12.07850871007808"><ele>312.6</ele><time>2026-03-26T06:26:31.999Z</time></trkpt><trkpt lat="45.93449248729357" lon="12.078583034278342"><ele>312.20000000000005</ele><time>2026-03-26T06:26:32.999Z</time></trkpt><trkpt lat="45.934570995788135" lon="12.078662716410747"><ele>311.8</ele><time>2026-03-26T06:26:33.999Z</time></trkpt><trkpt lat="45.93464604081336" lon="12.078757535642243"><ele>311.40000000000003</ele><time>2026-03-26T06:26:34.999Z</time></trkpt><trkpt lat="45.93472232349713" lon="12.07884436508536"><ele>311.0</ele><time>2026-03-26T06:26:35.999Z</time></trkpt><trkpt lat="45.93480324172677" lon="12.0789258158111"><ele>311.0</ele><time>2026-03-26T06:26:36.999Z</time></trkpt><trkpt lat="45.93488407536915" lon="12.079005953705623"><ele>311.0</ele><time>2026-03-26T06:26:37.999Z</time></trkpt><trkpt lat="45.93496097985663" lon="12.07909234155871"><ele>311.0</ele><time>2026-03-26T06:26:38.999Z</time></trkpt><trkpt lat="45.93503367983352" lon="12.079186785031563"><ele>311.0</ele><time>2026-03-26T06:26:39.999Z</time></trkpt><trkpt lat="45.93510517295069" lon="12.079285206860826"><ele>311.0</ele><time>2026-03-26T06:26:40.999Z</time></trkpt><trkpt lat="45.93517646708346" lon="12.079381359312059"><ele>310.8</ele><time>2026-03-26T06:26:41.999Z</time></trkpt><trkpt lat="45.9352430339674" lon="12.079476233413539"><ele>310.6</ele><time>2026-03-26T06:26:42.999Z</time></trkpt><trkpt lat="45.93530868041772" lon="12.079566825223383"><ele>310.4</ele><time>2026-03-26T06:26:43.999Z</time></trkpt><trkpt lat="45.935376564995515" lon="12.079658524337086"><ele>310.2</ele><time>2026-03-26T06:26:44.999Z</time></trkpt><trkpt lat="45.93545454863181" lon="12.079746127623375"><ele>310.0</ele><time>2026-03-26T06:26:45.999Z</time></trkpt><trkpt lat="45.93554053157082" lon="12.07982959820365"><ele>310.0</ele><time>2026-03-26T06:26:46.999Z</time></trkpt><trkpt lat="45.93563081978657" lon="12.079909332664528"><ele>310.0</ele><time>2026-03-26T06:26:48Z</time></trkpt><trkpt lat="45.93572555047056" lon="12.079989239282426"><ele>310.0</ele><time>2026-03-26T06:26:49Z</time></trkpt><trkpt lat="45.93581920947031" lon="12.080073824043849"><ele>310.0</ele><time>2026-03-26T06:26:50Z</time></trkpt><trkpt lat="45.93591056960996" lon="12.080173308493988"><ele>310.0</ele><time>2026-03-26T06:26:51Z</time></trkpt><trkpt lat="45.93599348636479" lon="12.080282987333666"><ele>310.2</ele><time>2026-03-26T06:26:52Z</time></trkpt><trkpt lat="45.93607049453648" lon="12.080388386562188"><ele>310.4</ele><time>2026-03-26T06:26:53Z</time></trkpt><trkpt lat="45.936140164844126" lon="12.080487537222881"><ele>310.6</ele><time>2026-03-26T06:26:54Z</time></trkpt><trkpt lat="45.936200394322505" lon="12.080565745301387"><ele>310.8</ele><time>2026-03-26T06:26:55Z</time></trkpt><trkpt lat="45.936262704237066" lon="12.08066922912567"><ele>311.0</ele><time>2026-03-26T06:26:57Z</time></trkpt><trkpt lat="45.93631168694972" lon="12.08074943004017"><ele>311.0</ele><time>2026-03-26T06:27:00Z</time></trkpt><trkpt lat="45.93624395412929" lon="12.080742315692444"><ele>311.0</ele><time>2026-03-26T06:27:11Z</time></trkpt><trkpt lat="45.93619916627261" lon="12.08080690869224"><ele>311.0</ele><time>2026-03-26T06:27:14Z</time></trkpt><trkpt lat="45.936132768326146" lon="12.080889332772962"><ele>311.0</ele><time>2026-03-26T06:27:17Z</time></trkpt><trkpt lat="45.93607019848214" lon="12.080978348888536"><ele>311.0</ele><time>2026-03-26T06:27:20Z</time></trkpt><trkpt lat="45.93602989206081" lon="12.081052903448382"><ele>311.0</ele><time>2026-03-26T06:27:28Z</time></trkpt><trkpt lat="45.93607784790764" lon="12.080952725652699"><ele>311.0</ele><time>2026-03-26T06:27:49Z</time></trkpt><trkpt lat="45.936161067333416" lon="12.080845644405654"><ele>311.0</ele><time>2026-03-26T06:27:51Z</time></trkpt><trkpt lat="45.93624715127936" lon="12.080726013350244"><ele>311.0</ele><time>2026-03-26T06:27:53Z</time></trkpt><trkpt lat="45.9363009236631" lon="12.080670423292784"><ele>311.0</ele><time>2026-03-26T06:27:55Z</time></trkpt><trkpt lat="45.93635878463985" lon="12.08080237194024"><ele>311.0</ele><time>2026-03-26T06:27:58Z</time></trkpt><trkpt lat="45.93643583224461" lon="12.080938315749703"><ele>310.5</ele><time>2026-03-26T06:28:00Z</time></trkpt><trkpt lat="45.936483492852325" lon="12.081015160532418"><ele>310.0</ele><time>2026-03-26T06:28:01Z</time></trkpt><trkpt lat="45.936528324969125" lon="12.081087050097478"><ele>309.5</ele><time>2026-03-26T06:28:02Z</time></trkpt><trkpt lat="45.93659982285549" lon="12.08121812996729"><ele>309.0</ele><time>2026-03-26T06:28:04Z</time></trkpt><trkpt lat="45.936649532298205" lon="12.081341228426304"><ele>308.5</ele><time>2026-03-26T06:28:06Z</time></trkpt><trkpt lat="45.936722438592774" lon="12.081303771425768"><ele>308.0</ele><time>2026-03-26T06:28:28Z</time></trkpt><trkpt lat="45.93675460111694" lon="12.08118214791692"><ele>308.0</ele><time>2026-03-26T06:28:30Z</time></trkpt><trkpt lat="45.93675226013147" lon="12.081079994479792"><ele>308.0</ele><time>2026-03-26T06:28:30.999Z</time></trkpt><trkpt lat="45.93674007743099" lon="12.080980733446669"><ele>308.0</ele><time>2026-03-26T06:28:32.999Z</time></trkpt><trkpt lat="45.9367338884076" lon="12.080826405793612"><ele>308.0</ele><time>2026-03-26T06:28:54Z</time></trkpt><trkpt lat="45.93673573452342" lon="12.08073463575526"><ele>308.0</ele><time>2026-03-26T06:29:01Z</time></trkpt><trkpt lat="45.93668451624879" lon="12.080653056876194"><ele>308.0</ele><time>2026-03-26T06:29:31Z</time></trkpt><trkpt lat="45.93665332572488" lon="12.08057141789932"><ele>308.42857142857144</ele><time>2026-03-26T06:29:32Z</time></trkpt><trkpt lat="45.936623193778644" lon="12.080478507948515"><ele>308.8571428571429</ele><time>2026-03-26T06:29:33Z</time></trkpt><trkpt lat="45.93658719783348" lon="12.080380379684923"><ele>309.2857142857143</ele><time>2026-03-26T06:29:34Z</time></trkpt><trkpt lat="45.936552238180205" lon="12.080298147483987"><ele>309.7142857142857</ele><time>2026-03-26T06:29:35Z</time></trkpt><trkpt lat="45.93651706947822" lon="12.080218483074134"><ele>310.14285714285717</ele><time>2026-03-26T06:29:36Z</time></trkpt><trkpt lat="45.936476970081614" lon="12.080133753946253"><ele>310.57142857142856</ele><time>2026-03-26T06:29:37Z</time></trkpt><trkpt lat="45.93643271584792" lon="12.080044324648874"><ele>311.0</ele><time>2026-03-26T06:29:38Z</time></trkpt><trkpt lat="45.936387195815726" lon="12.079950523944623"><ele>314.6</ele><time>2026-03-26T06:29:39Z</time></trkpt><trkpt lat="45.93634152799592" lon="12.079849172663659"><ele>318.20000000000005</ele><time>2026-03-26T06:29:40Z</time></trkpt><trkpt lat="45.936290304476394" lon="12.079741840419556"><ele>321.79999999999995</ele><time>2026-03-26T06:29:41Z</time></trkpt><trkpt lat="45.93623552394848" lon="12.079629195619008"><ele>325.4</ele><time>2026-03-26T06:29:42Z</time></trkpt><trkpt lat="45.936172902147696" lon="12.079512632045153"><ele>329.0</ele><time>2026-03-26T06:29:43Z</time></trkpt><trkpt lat="45.936104075394795" lon="12.079395618298268"><ele>329.0</ele><time>2026-03-26T06:29:44Z</time></trkpt><trkpt lat="45.9360274232865" lon="12.079282378454403"><ele>329.0</ele><time>2026-03-26T06:29:45Z</time></trkpt><trkpt lat="45.935945121783696" lon="12.079169833938591"><ele>329.0</ele><time>2026-03-26T06:29:46Z</time></trkpt><trkpt lat="45.93585906864651" lon="12.079053669182665"><ele>329.0</ele><time>2026-03-26T06:29:47Z</time></trkpt><trkpt lat="45.935772148467755" lon="12.078932878184396"><ele>328.79999999999995</ele><time>2026-03-26T06:29:48Z</time></trkpt><trkpt lat="45.935691670283155" lon="12.078820696532066"><ele>328.59999999999997</ele><time>2026-03-26T06:29:49Z</time></trkpt><trkpt lat="45.935617483705784" lon="12.078717704552965"><ele>328.4</ele><time>2026-03-26T06:29:50Z</time></trkpt><trkpt lat="45.93554186443646" lon="12.07861560705162"><ele>328.2</ele><time>2026-03-26T06:29:51Z</time></trkpt><trkpt lat="45.93546314263814" lon="12.078518931018971"><ele>328.0</ele><time>2026-03-26T06:29:52Z</time></trkpt><trkpt lat="45.93538778282397" lon="12.078415233276454"><ele>328.0</ele><time>2026-03-26T06:29:53Z</time></trkpt><trkpt lat="45.935318270535035" lon="12.078316972706569"><ele>328.0</ele><time>2026-03-26T06:29:54Z</time></trkpt><trkpt lat="45.93525658315258" lon="12.078226204029331"><ele>328.0</ele><time>2026-03-26T06:29:55Z</time></trkpt><trkpt lat="45.9351942473714" lon="12.07811831955265"><ele>328.0</ele><time>2026-03-26T06:29:56Z</time></trkpt><trkpt lat="45.93512273826467" lon="12.078027730228737"><ele>328.0</ele><time>2026-03-26T06:29:57Z</time></trkpt><trkpt lat="45.93504819301533" lon="12.077926956915032"><ele>328.2</ele><time>2026-03-26T06:29:58Z</time></trkpt><trkpt lat="45.9349734623705" lon="12.077818438751896"><ele>328.4</ele><time>2026-03-26T06:29:59Z</time></trkpt><trkpt lat="45.9348923033689" lon="12.077710014750291"><ele>328.59999999999997</ele><time>2026-03-26T06:30:00Z</time></trkpt><trkpt lat="45.93481269060371" lon="12.077600278092806"><ele>328.79999999999995</ele><time>2026-03-26T06:30:01Z</time></trkpt><trkpt lat="45.934731743091774" lon="12.077485708514986"><ele>329.0</ele><time>2026-03-26T06:30:02Z</time></trkpt><trkpt lat="45.93464799298933" lon="12.077368843490063"><ele>335.4</ele><time>2026-03-26T06:30:03Z</time></trkpt><trkpt lat="45.934561902169996" lon="12.077250327941577"><ele>341.79999999999995</ele><time>2026-03-26T06:30:04Z</time></trkpt><trkpt lat="45.93448597614393" lon="12.07714317350055"><ele>348.20000000000005</ele><time>2026-03-26T06:30:05Z</time></trkpt><trkpt lat="45.93441000540108" lon="12.077045038474235"><ele>354.6</ele><time>2026-03-26T06:30:06Z</time></trkpt><trkpt lat="45.93433253539775" lon="12.076946812682191"><ele>361.0</ele><time>2026-03-26T06:30:07Z</time></trkpt><trkpt lat="45.934254467770046" lon="12.07685408350643"><ele>359.66666666666663</ele><time>2026-03-26T06:30:08Z</time></trkpt><trkpt lat="45.93417997961989" lon="12.076763459284773"><ele>358.3333333333333</ele><time>2026-03-26T06:30:09Z</time></trkpt><trkpt lat="45.93410449422264" lon="12.076678441289575"><ele>357.0</ele><time>2026-03-26T06:30:10Z</time></trkpt><trkpt lat="45.93403589440506" lon="12.076601078535735"><ele>355.6666666666667</ele><time>2026-03-26T06:30:11Z</time></trkpt><trkpt lat="45.93396913382845" lon="12.07652850215819"><ele>354.33333333333337</ele><time>2026-03-26T06:30:12Z</time></trkpt><trkpt lat="45.93391077181004" lon="12.076464951274694"><ele>353.0</ele><time>2026-03-26T06:30:13Z</time></trkpt><trkpt lat="45.933853517714255" lon="12.076398047013281"><ele>353.0</ele><time>2026-03-26T06:30:14Z</time></trkpt><trkpt lat="45.93379459505147" lon="12.076323476621647"><ele>353.0</ele><time>2026-03-26T06:30:15Z</time></trkpt><trkpt lat="45.933731197195804" lon="12.076247984683876"><ele>353.0</ele><time>2026-03-26T06:30:16Z</time></trkpt><trkpt lat="45.933662949779944" lon="12.076171809890484"><ele>353.0</ele><time>2026-03-26T06:30:17Z</time></trkpt><trkpt lat="45.933596560403615" lon="12.07609044794003"><ele>353.0</ele><time>2026-03-26T06:30:18Z</time></trkpt><trkpt lat="45.933525902312915" lon="12.076004524370147"><ele>353.0</ele><time>2026-03-26T06:30:19Z</time></trkpt><trkpt lat="45.93345077770422" lon="12.07591927999831"><ele>352.59999999999997</ele><time>2026-03-26T06:30:20Z</time></trkpt><trkpt lat="45.93337401916315" lon="12.075833248851435"><ele>352.2</ele><time>2026-03-26T06:30:21Z</time></trkpt><trkpt lat="45.933295003509066" lon="12.075741395827935"><ele>351.8</ele><time>2026-03-26T06:30:22Z</time></trkpt><trkpt lat="45.9332140392587" lon="12.075647586999839"><ele>351.4</ele><time>2026-03-26T06:30:23Z</time></trkpt><trkpt lat="45.93313005056279" lon="12.07555103295061"><ele>351.0</ele><time>2026-03-26T06:30:24Z</time></trkpt><trkpt lat="45.93304416162253" lon="12.075452122773658"><ele>351.0</ele><time>2026-03-26T06:30:25Z</time></trkpt><trkpt lat="45.932956498761044" lon="12.075351798261318"><ele>351.0</ele><time>2026-03-26T06:30:26Z</time></trkpt><trkpt lat="45.93286868397313" lon="12.075253169817314"><ele>351.0</ele><time>2026-03-26T06:30:27Z</time></trkpt><trkpt lat="45.93279589267066" lon="12.075169868922728"><ele>351.0</ele><time>2026-03-26T06:30:28Z</time></trkpt><trkpt lat="45.932743238876554" lon="12.075104621480756"><ele>351.0</ele><time>2026-03-26T06:30:29Z</time></trkpt><trkpt lat="45.93267371284246" lon="12.07503517092924"><ele>351.0</ele><time>2026-03-26T06:30:50.999Z</time></trkpt><trkpt lat="45.932598483479865" lon="12.07495395107521"><ele>351.0</ele><time>2026-03-26T06:30:52.999Z</time></trkpt><trkpt lat="45.9325021044394" lon="12.0748299832187"><ele>351.0</ele><time>2026-03-26T06:30:54.999Z</time></trkpt><trkpt lat="45.932452796383096" lon="12.074752451055648"><ele>351.0</ele><time>2026-03-26T06:30:55.999Z</time></trkpt><trkpt lat="45.932410168522985" lon="12.074685343087072"><ele>351.0</ele><time>2026-03-26T06:30:56.999Z</time></trkpt><trkpt lat="45.93234164044966" lon="12.0745494666481"><ele>351.75</ele><time>2026-03-26T06:30:58.999Z</time></trkpt><trkpt lat="45.9322757808096" lon="12.074403729015259"><ele>352.5</ele><time>2026-03-26T06:31:01Z</time></trkpt><trkpt lat="45.932205090037314" lon="12.074254772495097"><ele>353.25</ele><time>2026-03-26T06:31:03Z</time></trkpt><trkpt lat="45.93212794292525" lon="12.074117527809221"><ele>354.0</ele><time>2026-03-26T06:31:05Z</time></trkpt><trkpt lat="45.93204936388023" lon="12.074004006190826"><ele>354.79999999999995</ele><time>2026-03-26T06:31:07Z</time></trkpt><trkpt lat="45.93196388420071" lon="12.073909028906508"><ele>355.59999999999997</ele><time>2026-03-26T06:31:09Z</time></trkpt><trkpt lat="45.93189384815413" lon="12.073845536888422"><ele>356.4</ele><time>2026-03-26T06:31:11Z</time></trkpt><trkpt lat="45.931832881865304" lon="12.073776292933484"><ele>357.2</ele><time>2026-03-26T06:31:13Z</time></trkpt><trkpt lat="45.93174543973588" lon="12.073655759431713"><ele>358.0</ele><time>2026-03-26T06:31:15Z</time></trkpt><trkpt lat="45.93170251650925" lon="12.07357660891709"><ele>358.0</ele><time>2026-03-26T06:31:16Z</time></trkpt><trkpt lat="45.93165331089121" lon="12.07342804211749"><ele>358.0</ele><time>2026-03-26T06:31:18Z</time></trkpt><trkpt lat="45.93162101510155" lon="12.07328249930399"><ele>358.0</ele><time>2026-03-26T06:31:20Z</time></trkpt><trkpt lat="45.93159711553668" lon="12.073146174553262"><ele>358.0</ele><time>2026-03-26T06:31:22Z</time></trkpt><trkpt lat="45.93157008501513" lon="12.073013768331915"><ele>358.0</ele><time>2026-03-26T06:31:24Z</time></trkpt><trkpt lat="45.9315418962591" lon="12.072879091278562"><ele>362.4</ele><time>2026-03-26T06:31:26Z</time></trkpt><trkpt lat="45.931505114345704" lon="12.07273737428414"><ele>366.79999999999995</ele><time>2026-03-26T06:31:28Z</time></trkpt><trkpt lat="45.93144780096002" lon="12.072611341027102"><ele>371.2</ele><time>2026-03-26T06:31:30Z</time></trkpt><trkpt lat="45.93137483470975" lon="12.072499732376754"><ele>375.6</ele><time>2026-03-26T06:31:32Z</time></trkpt><trkpt lat="45.9313094979161" lon="12.072424967467484"><ele>380.0</ele><time>2026-03-26T06:31:34Z</time></trkpt><trkpt lat="45.931237159141666" lon="12.072340011402202"><ele>381.33333333333337</ele><time>2026-03-26T06:31:36Z</time></trkpt><trkpt lat="45.93118182067389" lon="12.072288787962593"><ele>382.6666666666667</ele><time>2026-03-26T06:31:37Z</time></trkpt><trkpt lat="45.93112451569748" lon="12.072224467895882"><ele>384.0</ele><time>2026-03-26T06:31:38Z</time></trkpt><trkpt lat="45.93107137845383" lon="12.072144096767492"><ele>385.33333333333337</ele><time>2026-03-26T06:31:39Z</time></trkpt><trkpt lat="45.93103239525502" lon="12.07204224199659"><ele>386.6666666666667</ele><time>2026-03-26T06:31:40Z</time></trkpt><trkpt lat="45.931006370416206" lon="12.071931058959589"><ele>388.0</ele><time>2026-03-26T06:31:41Z</time></trkpt><trkpt lat="45.93099244637858" lon="12.07181379446523"><ele>388.00000000000006</ele><time>2026-03-26T06:31:42Z</time></trkpt><trkpt lat="45.93099238221845" lon="12.071700189868329"><ele>388.0</ele><time>2026-03-26T06:31:43Z</time></trkpt><trkpt lat="45.93100622811722" lon="12.07158196633205"><ele>388.0</ele><time>2026-03-26T06:31:44Z</time></trkpt><trkpt lat="45.93101824084376" lon="12.071459171506438"><ele>388.0</ele><time>2026-03-26T06:31:45Z</time></trkpt><trkpt lat="45.93103218465257" lon="12.071335476255388"><ele>388.00000000000006</ele><time>2026-03-26T06:31:46Z</time></trkpt><trkpt lat="45.931041186781144" lon="12.07121272463988"><ele>388.0</ele><time>2026-03-26T06:31:47Z</time></trkpt><trkpt lat="45.93105089634974" lon="12.071103776814764"><ele>389.6666666666667</ele><time>2026-03-26T06:31:48Z</time></trkpt><trkpt lat="45.93105959766312" lon="12.071004817656453"><ele>391.33333333333337</ele><time>2026-03-26T06:31:49Z</time></trkpt><trkpt lat="45.93106811496652" lon="12.070902652972146"><ele>393.0</ele><time>2026-03-26T06:31:50Z</time></trkpt><trkpt lat="45.93107543484104" lon="12.070792186240974"><ele>394.66666666666663</ele><time>2026-03-26T06:31:51Z</time></trkpt><trkpt lat="45.93107965389522" lon="12.0706760447593"><ele>396.3333333333333</ele><time>2026-03-26T06:31:52Z</time></trkpt><trkpt lat="45.931065141079095" lon="12.070576177606688"><ele>398.0</ele><time>2026-03-26T06:31:53Z</time></trkpt><trkpt lat="45.93093936623618" lon="12.07047846336359"><ele>398.3333333333333</ele><time>2026-03-26T06:31:55Z</time></trkpt><trkpt lat="45.93085435351049" lon="12.070494751732602"><ele>398.66666666666663</ele><time>2026-03-26T06:31:56Z</time></trkpt><trkpt lat="45.930783147298435" lon="12.070562563636438"><ele>399.0</ele><time>2026-03-26T06:31:57Z</time></trkpt><trkpt lat="45.93074615525961" lon="12.070646326277062"><ele>399.33333333333337</ele><time>2026-03-26T06:31:58Z</time></trkpt><trkpt lat="45.930703909506775" lon="12.07074584188714"><ele>399.6666666666667</ele><time>2026-03-26T06:31:59Z</time></trkpt><trkpt lat="45.93065715085103" lon="12.07085254120585"><ele>400.0</ele><time>2026-03-26T06:32:00Z</time></trkpt><trkpt lat="45.930620221295264" lon="12.070944741335195"><ele>397.83333333333337</ele><time>2026-03-26T06:32:01Z</time></trkpt><trkpt lat="45.93058090937784" lon="12.071064880972802"><ele>395.6666666666667</ele><time>2026-03-26T06:32:02Z</time></trkpt><trkpt lat="45.93054227673684" lon="12.071158822553809"><ele>393.5</ele><time>2026-03-26T06:32:03Z</time></trkpt><trkpt lat="45.93049602720599" lon="12.071243415753989"><ele>391.33333333333337</ele><time>2026-03-26T06:32:04Z</time></trkpt><trkpt lat="45.930437743859535" lon="12.071315690543848"><ele>389.1666666666667</ele><time>2026-03-26T06:32:05Z</time></trkpt><trkpt lat="45.93037468063536" lon="12.071357731166614"><ele>387.0</ele><time>2026-03-26T06:32:06Z</time></trkpt><trkpt lat="45.930257381323074" lon="12.07137447585402"><ele>387.0</ele><time>2026-03-26T06:32:08Z</time></trkpt><trkpt lat="45.93016161200396" lon="12.071327904670548"><ele>387.0</ele><time>2026-03-26T06:32:10Z</time></trkpt><trkpt lat="45.930076599853074" lon="12.071244964110443"><ele>387.0</ele><time>2026-03-26T06:32:12Z</time></trkpt><trkpt lat="45.93012270128271" lon="12.0711646486154"><ele>387.0</ele><time>2026-03-26T06:32:15Z</time></trkpt><trkpt lat="45.93018950296551" lon="12.07122614600259"><ele>387.0</ele><time>2026-03-26T06:32:18Z</time></trkpt><trkpt lat="45.93029416409653" lon="12.071181806560391"><ele>387.0</ele><time>2026-03-26T06:32:20Z</time></trkpt><trkpt lat="45.93035780571636" lon="12.071146116786503"><ele>387.0</ele><time>2026-03-26T06:32:21Z</time></trkpt><trkpt lat="45.93043538859031" lon="12.071073381470187"><ele>387.0</ele><time>2026-03-26T06:32:23Z</time></trkpt><trkpt lat="45.930478323699994" lon="12.070984418564468"><ele>387.0</ele><time>2026-03-26T06:32:25Z</time></trkpt><trkpt lat="45.930436423700066" lon="12.07085364766029"><ele>387.0</ele><time>2026-03-26T06:32:47.999Z</time></trkpt><trkpt lat="45.93039158505848" lon="12.070703681194681"><ele>389.1666666666667</ele><time>2026-03-26T06:32:49.999Z</time></trkpt><trkpt lat="45.930362327636814" lon="12.07059615518404"><ele>391.33333333333337</ele><time>2026-03-26T06:32:51.999Z</time></trkpt><trkpt lat="45.93035801565739" lon="12.070504927001549"><ele>393.5</ele><time>2026-03-26T06:33:14Z</time></trkpt><trkpt lat="45.93036756142214" lon="12.070372146127196"><ele>395.6666666666667</ele><time>2026-03-26T06:33:17Z</time></trkpt><trkpt lat="45.93039103157371" lon="12.070287775044028"><ele>397.83333333333337</ele><time>2026-03-26T06:33:18Z</time></trkpt><trkpt lat="45.930431034559845" lon="12.07013428718997"><ele>400.0</ele><time>2026-03-26T06:33:20Z</time></trkpt><trkpt lat="45.93042238936696" lon="12.070022407336138"><ele>402.00000000000006</ele><time>2026-03-26T06:33:22Z</time></trkpt><trkpt lat="45.93043451480644" lon="12.069870099374114"><ele>404.0</ele><time>2026-03-26T06:33:24Z</time></trkpt><trkpt lat="45.93044747551899" lon="12.069760809500439"><ele>406.0</ele><time>2026-03-26T06:33:26Z</time></trkpt><trkpt lat="45.93051580841002" lon="12.069661467373011"><ele>408.0</ele><time>2026-03-26T06:33:29Z</time></trkpt><trkpt lat="45.93057104062997" lon="12.069587816346228"><ele>410.00000000000006</ele><time>2026-03-26T06:33:31Z</time></trkpt><trkpt lat="45.930632402326054" lon="12.069557773835626"><ele>412.0</ele><time>2026-03-26T06:33:33Z</time></trkpt><trkpt lat="45.9307068228503" lon="12.069521278519753"><ele>412.0</ele><time>2026-03-26T06:33:35Z</time></trkpt><trkpt lat="45.930776969111676" lon="12.069430150543672"><ele>412.0</ele><time>2026-03-26T06:33:37Z</time></trkpt><trkpt lat="45.93086319481306" lon="12.069317164254766"><ele>412.0</ele><time>2026-03-26T06:33:39Z</time></trkpt><trkpt lat="45.93093288140755" lon="12.069241332496247"><ele>412.0</ele><time>2026-03-26T06:33:41Z</time></trkpt><trkpt lat="45.93099032193143" lon="12.069131782238669"><ele>412.0</ele><time>2026-03-26T06:33:44Z</time></trkpt><trkpt lat="45.931043413480914" lon="12.069028924435775"><ele>414.83333333333337</ele><time>2026-03-26T06:33:46Z</time></trkpt><trkpt lat="45.931110001719254" lon="12.06891156683686"><ele>417.6666666666667</ele><time>2026-03-26T06:33:48Z</time></trkpt><trkpt lat="45.931178827458595" lon="12.068833480230849"><ele>420.5</ele><time>2026-03-26T06:33:50Z</time></trkpt><trkpt lat="45.93126244325463" lon="12.068774007223645"><ele>423.33333333333337</ele><time>2026-03-26T06:33:52Z</time></trkpt><trkpt lat="45.93131202611225" lon="12.068832909891958"><ele>426.1666666666667</ele><time>2026-03-26T06:33:55Z</time></trkpt><trkpt lat="45.93125296030684" lon="12.068788129031985"><ele>429.0</ele><time>2026-03-26T06:34:30Z</time></trkpt><trkpt lat="45.93119034868393" lon="12.068800126962762"><ele>429.0</ele><time>2026-03-26T06:34:38.999Z</time></trkpt><trkpt lat="45.931107165763336" lon="12.06885700661498"><ele>429.0</ele><time>2026-03-26T06:34:40.999Z</time></trkpt><trkpt lat="45.93105114054194" lon="12.068980125339596"><ele>429.0</ele><time>2026-03-26T06:34:42.999Z</time></trkpt><trkpt lat="45.930968847642205" lon="12.069114214495896"><ele>429.0</ele><time>2026-03-26T06:34:44.999Z</time></trkpt><trkpt lat="45.93092710413585" lon="12.069188486519554"><ele>429.0</ele><time>2026-03-26T06:34:45.999Z</time></trkpt><trkpt lat="45.93084516164451" lon="12.06932413012474"><ele>426.1666666666667</ele><time>2026-03-26T06:34:47.999Z</time></trkpt><trkpt lat="45.93077078511036" lon="12.069355563026482"><ele>423.33333333333337</ele><time>2026-03-26T06:34:48.999Z</time></trkpt><trkpt lat="45.93071997126251" lon="12.069416961873172"><ele>420.5</ele><time>2026-03-26T06:34:49.999Z</time></trkpt><trkpt lat="45.93062155693142" lon="12.069504250764453"><ele>417.6666666666667</ele><time>2026-03-26T06:34:51.999Z</time></trkpt><trkpt lat="45.93054340576109" lon="12.069584353092736"><ele>414.83333333333337</ele><time>2026-03-26T06:34:53.999Z</time></trkpt><trkpt lat="45.9304798353709" lon="12.069657700343468"><ele>412.0</ele><time>2026-03-26T06:34:55.999Z</time></trkpt><trkpt lat="45.930409687994285" lon="12.069734775056427"><ele>412.0</ele><time>2026-03-26T06:34:57.999Z</time></trkpt><trkpt lat="45.930399635994476" lon="12.069898446059195"><ele>412.0</ele><time>2026-03-26T06:34:59.999Z</time></trkpt><trkpt lat="45.93040316154033" lon="12.069991177525615"><ele>412.0</ele><time>2026-03-26T06:35:00.999Z</time></trkpt><trkpt lat="45.93039392513491" lon="12.070170360456626"><ele>412.0</ele><time>2026-03-26T06:35:02.999Z</time></trkpt><trkpt lat="45.93034935566149" lon="12.07033702857286"><ele>412.0</ele><time>2026-03-26T06:35:04.999Z</time></trkpt><trkpt lat="45.930325897161445" lon="12.070507263667235"><ele>409.6</ele><time>2026-03-26T06:35:06.999Z</time></trkpt><trkpt lat="45.93033936475955" lon="12.070661614354826"><ele>407.20000000000005</ele><time>2026-03-26T06:35:08.999Z</time></trkpt><trkpt lat="45.93038310295155" lon="12.070818453087218"><ele>404.8</ele><time>2026-03-26T06:35:10.999Z</time></trkpt><trkpt lat="45.93042841681065" lon="12.070952620067258"><ele>402.4</ele><time>2026-03-26T06:35:13Z</time></trkpt><trkpt lat="45.93041051184937" lon="12.071066584402985"><ele>400.0</ele><time>2026-03-26T06:35:15Z</time></trkpt><trkpt lat="45.9303213762603" lon="12.071147390375812"><ele>398.33333333333337</ele><time>2026-03-26T06:35:17Z</time></trkpt><trkpt lat="45.93021625705605" lon="12.0711574552465"><ele>396.6666666666667</ele><time>2026-03-26T06:35:19Z</time></trkpt><trkpt lat="45.930128210403474" lon="12.071161353828728"><ele>395.0</ele><time>2026-03-26T06:35:21Z</time></trkpt><trkpt lat="45.93006347541902" lon="12.07120090699149"><ele>393.33333333333337</ele><time>2026-03-26T06:35:24Z</time></trkpt><trkpt lat="45.92996573029612" lon="12.071192155518638"><ele>391.6666666666667</ele><time>2026-03-26T06:35:31Z</time></trkpt><trkpt lat="45.929893437553126" lon="12.07113953957157"><ele>390.0</ele><time>2026-03-26T06:35:33Z</time></trkpt><trkpt lat="45.929838651821775" lon="12.071075354023783"><ele>390.0</ele><time>2026-03-26T06:35:52Z</time></trkpt><trkpt lat="45.929775464684916" lon="12.071038873538473"><ele>390.0</ele><time>2026-03-26T06:35:56Z</time></trkpt><trkpt lat="45.92971066408048" lon="12.071010731241765"><ele>390.0</ele><time>2026-03-26T06:36:15Z</time></trkpt><trkpt lat="45.92969888725222" lon="12.070885258499645"><ele>390.0</ele><time>2026-03-26T06:36:18Z</time></trkpt><trkpt lat="45.92968103360967" lon="12.070794979652938"><ele>390.0</ele><time>2026-03-26T06:36:27Z</time></trkpt><trkpt lat="45.929617516240626" lon="12.070777772159476"><ele>390.0</ele><time>2026-03-26T06:36:46.999Z</time></trkpt><trkpt lat="45.92950983923717" lon="12.070796699405541"><ele>390.0</ele><time>2026-03-26T06:36:50.999Z</time></trkpt><trkpt lat="45.929425779710805" lon="12.070842823777468"><ele>390.0</ele><time>2026-03-26T06:36:53.999Z</time></trkpt><trkpt lat="45.92935503728176" lon="12.070871288651222"><ele>390.0</ele><time>2026-03-26T06:37:12.999Z</time></trkpt><trkpt lat="45.92929230557216" lon="12.070911328926655"><ele>390.0</ele><time>2026-03-26T06:37:17Z</time></trkpt><trkpt lat="45.92922055262834" lon="12.070972691959271"><ele>390.0</ele><time>2026-03-26T06:37:19Z</time></trkpt><trkpt lat="45.92913784927229" lon="12.071043096270568"><ele>390.0</ele><time>2026-03-26T06:37:21Z</time></trkpt><trkpt lat="45.929064758371844" lon="12.071127135708567"><ele>388.0</ele><time>2026-03-26T06:37:23Z</time></trkpt><trkpt lat="45.92898149841984" lon="12.071231292162638"><ele>386.0</ele><time>2026-03-26T06:37:25Z</time></trkpt><trkpt lat="45.92891266487669" lon="12.071286108763074"><ele>384.0</ele><time>2026-03-26T06:37:28Z</time></trkpt><trkpt lat="45.9289029428703" lon="12.071078688244146"><ele>382.0</ele><time>2026-03-26T06:37:36Z</time></trkpt><trkpt lat="45.92889125950078" lon="12.070922758024786"><ele>380.0</ele><time>2026-03-26T06:37:38Z</time></trkpt><trkpt lat="45.92887982553952" lon="12.070770156506692"><ele>380.0</ele><time>2026-03-26T06:37:40Z</time></trkpt><trkpt lat="45.92885793084423" lon="12.070622735350533"><ele>380.0</ele><time>2026-03-26T06:37:42Z</time></trkpt><trkpt lat="45.92885340023933" lon="12.070517116420849"><ele>380.0</ele><time>2026-03-26T06:37:44Z</time></trkpt><trkpt lat="45.92885287359264" lon="12.07041692432748"><ele>380.0</ele><time>2026-03-26T06:38:01Z</time></trkpt><trkpt lat="45.928840500655674" lon="12.070249106916153"><ele>380.0</ele><time>2026-03-26T06:38:03Z</time></trkpt><trkpt lat="45.92883429342301" lon="12.070147276045295"><ele>380.0</ele><time>2026-03-26T06:38:04Z</time></trkpt><trkpt lat="45.928828598127154" lon="12.070054307335035"><ele>381.0</ele><time>2026-03-26T06:38:05Z</time></trkpt><trkpt lat="45.92881992546115" lon="12.06989180191779"><ele>382.0</ele><time>2026-03-26T06:38:07Z</time></trkpt><trkpt lat="45.92881154048079" lon="12.069741896840258"><ele>383.0</ele><time>2026-03-26T06:38:09Z</time></trkpt><trkpt lat="45.92879970703674" lon="12.069574922938635"><ele>384.0</ele><time>2026-03-26T06:38:11Z</time></trkpt><trkpt lat="45.92878996891651" lon="12.069391902204778"><ele>384.0</ele><time>2026-03-26T06:38:13Z</time></trkpt><trkpt lat="45.92878355048393" lon="12.069294465596919"><ele>384.0</ele><time>2026-03-26T06:38:14Z</time></trkpt><trkpt lat="45.92878522845811" lon="12.069136768426063"><ele>384.0</ele><time>2026-03-26T06:38:16Z</time></trkpt><trkpt lat="45.928767449417194" lon="12.069044887686093"><ele>384.0</ele><time>2026-03-26T06:38:18Z</time></trkpt><trkpt lat="45.92866034637123" lon="12.069067255932937"><ele>384.0</ele><time>2026-03-26T06:38:21Z</time></trkpt><trkpt lat="45.928543860161305" lon="12.06910341599858"><ele>383.99999999999994</ele><time>2026-03-26T06:38:23Z</time></trkpt><trkpt lat="45.92847919060673" lon="12.069124949046206"><ele>384.0</ele><time>2026-03-26T06:38:24Z</time></trkpt><trkpt lat="45.92841132473002" lon="12.069140989728613"><ele>384.0</ele><time>2026-03-26T06:38:25Z</time></trkpt><trkpt lat="45.92833879259878" lon="12.069140806730678"><ele>384.0</ele><time>2026-03-26T06:38:26Z</time></trkpt><trkpt lat="45.92826390043218" lon="12.069140385225573"><ele>384.0</ele><time>2026-03-26T06:38:27Z</time></trkpt><trkpt lat="45.92818822785681" lon="12.069136059109619"><ele>383.99999999999994</ele><time>2026-03-26T06:38:28Z</time></trkpt><trkpt lat="45.92811152389505" lon="12.069133509934293"><ele>384.0</ele><time>2026-03-26T06:38:29Z</time></trkpt><trkpt lat="45.92803322373933" lon="12.0691391049748"><ele>381.8333333333333</ele><time>2026-03-26T06:38:30Z</time></trkpt><trkpt lat="45.927952882652995" lon="12.069143595949752"><ele>379.6666666666667</ele><time>2026-03-26T06:38:31Z</time></trkpt><trkpt lat="45.927881972174625" lon="12.069154025470612"><ele>377.5</ele><time>2026-03-26T06:38:32Z</time></trkpt><trkpt lat="45.927768588608124" lon="12.069176951838925"><ele>375.33333333333337</ele><time>2026-03-26T06:38:34Z</time></trkpt><trkpt lat="45.92769922819622" lon="12.069223429496267"><ele>373.1666666666667</ele><time>2026-03-26T06:38:36Z</time></trkpt><trkpt lat="45.92767970483571" lon="12.069371378424375"><ele>371.0</ele><time>2026-03-26T06:38:39Z</time></trkpt><trkpt lat="45.927712159836226" lon="12.069472892552225"><ele>371.0</ele><time>2026-03-26T06:38:40.999Z</time></trkpt><trkpt lat="45.92775500849856" lon="12.06961329411805"><ele>371.0</ele><time>2026-03-26T06:38:42.999Z</time></trkpt><trkpt lat="45.927755082702774" lon="12.069711909883916"><ele>371.0</ele><time>2026-03-26T06:38:44.999Z</time></trkpt><trkpt lat="45.92773647276805" lon="12.06981084707772"><ele>371.0</ele><time>2026-03-26T06:38:47.999Z</time></trkpt><trkpt lat="45.92782267550938" lon="12.06978707171637"><ele>371.0</ele><time>2026-03-26T06:38:50.999Z</time></trkpt><trkpt lat="45.927807647511244" lon="12.069677480732139"><ele>371.0</ele><time>2026-03-26T06:38:53.999Z</time></trkpt><trkpt lat="45.92779038973993" lon="12.069558199075603"><ele>371.0</ele><time>2026-03-26T06:39:15.999Z</time></trkpt><trkpt lat="45.92776753267752" lon="12.069462005845573"><ele>371.0</ele><time>2026-03-26T06:39:17.999Z</time></trkpt><trkpt lat="45.92774057276795" lon="12.069354696317783"><ele>371.0</ele><time>2026-03-26T06:39:37Z</time></trkpt><trkpt lat="45.92771805931795" lon="12.069262743459525"><ele>371.0</ele><time>2026-03-26T06:39:39Z</time></trkpt><trkpt lat="45.92763581671956" lon="12.069206478583325"><ele>371.0</ele><time>2026-03-26T06:39:43Z</time></trkpt><trkpt lat="45.92754064635044" lon="12.069234906644365"><ele>371.0</ele><time>2026-03-26T06:39:45Z</time></trkpt><trkpt lat="45.92740870608826" lon="12.069246531143285"><ele>369.1666666666667</ele><time>2026-03-26T06:39:47Z</time></trkpt><trkpt lat="45.92732996180667" lon="12.069253351512996"><ele>367.33333333333337</ele><time>2026-03-26T06:39:48Z</time></trkpt><trkpt lat="45.9272436389223" lon="12.069270255946545"><ele>365.5</ele><time>2026-03-26T06:39:49Z</time></trkpt><trkpt lat="45.927164673707736" lon="12.069292214462656"><ele>363.6666666666667</ele><time>2026-03-26T06:39:50Z</time></trkpt><trkpt lat="45.92709997147959" lon="12.06931646668974"><ele>361.8333333333333</ele><time>2026-03-26T06:39:51Z</time></trkpt><trkpt lat="45.926993261667654" lon="12.069365445434329"><ele>360.0</ele><time>2026-03-26T06:39:53Z</time></trkpt><trkpt lat="45.92694346104736" lon="12.069429853100537"><ele>360.0</ele><time>2026-03-26T06:39:56Z</time></trkpt><trkpt lat="45.926969660224906" lon="12.069601126145667"><ele>360.0</ele><time>2026-03-26T06:40:00Z</time></trkpt><trkpt lat="45.92704673392593" lon="12.069732291581872"><ele>360.0</ele><time>2026-03-26T06:40:02Z</time></trkpt><trkpt lat="45.92709041781768" lon="12.069819704648381"><ele>360.0</ele><time>2026-03-26T06:40:03Z</time></trkpt><trkpt lat="45.927130222296746" lon="12.069901444927721"><ele>360.0</ele><time>2026-03-26T06:40:04Z</time></trkpt><trkpt lat="45.92720642201155" lon="12.070051433778703"><ele>359.0</ele><time>2026-03-26T06:40:06Z</time></trkpt><trkpt lat="45.92725580124274" lon="12.070125533499386"><ele>358.0</ele><time>2026-03-26T06:40:07Z</time></trkpt><trkpt lat="45.92731276027685" lon="12.070199505212807"><ele>357.0</ele><time>2026-03-26T06:40:08Z</time></trkpt><trkpt lat="45.92737352503684" lon="12.07027007189675"><ele>356.0</ele><time>2026-03-26T06:40:09Z</time></trkpt><trkpt lat="45.92744045549917" lon="12.070334774637477"><ele>355.0</ele><time>2026-03-26T06:40:10Z</time></trkpt><trkpt lat="45.9275064133469" lon="12.070407957248083"><ele>354.0</ele><time>2026-03-26T06:40:11Z</time></trkpt><trkpt lat="45.92757571705758" lon="12.070484360100581"><ele>355.5</ele><time>2026-03-26T06:40:12Z</time></trkpt><trkpt lat="45.92764779276642" lon="12.070563399685584"><ele>357.0</ele><time>2026-03-26T06:40:13Z</time></trkpt><trkpt lat="45.927721681762364" lon="12.07064467387526"><ele>358.5</ele><time>2026-03-26T06:40:14Z</time></trkpt><trkpt lat="45.92779534759274" lon="12.070721238436404"><ele>360.0</ele><time>2026-03-26T06:40:15Z</time></trkpt><trkpt lat="45.92786030966945" lon="12.070787836479582"><ele>361.5</ele><time>2026-03-26T06:40:16Z</time></trkpt><trkpt lat="45.92792631366508" lon="12.070859446093666"><ele>363.0</ele><time>2026-03-26T06:40:17Z</time></trkpt><trkpt lat="45.92799727427851" lon="12.070935073123223"><ele>362.99999999999994</ele><time>2026-03-26T06:40:18Z</time></trkpt><trkpt lat="45.928065551229416" lon="12.071011950502745"><ele>363.0</ele><time>2026-03-26T06:40:19Z</time></trkpt><trkpt lat="45.92812569035131" lon="12.07108034472384"><ele>363.0</ele><time>2026-03-26T06:40:20Z</time></trkpt><trkpt lat="45.92817489307255" lon="12.071137124917202"><ele>363.0</ele><time>2026-03-26T06:40:21Z</time></trkpt><trkpt lat="45.9282248302175" lon="12.071197041817296"><ele>363.0</ele><time>2026-03-26T06:40:22Z</time></trkpt><trkpt lat="45.928282042651375" lon="12.071257631556996"><ele>362.99999999999994</ele><time>2026-03-26T06:40:23Z</time></trkpt><trkpt lat="45.92834292804141" lon="12.071323475828223"><ele>363.0</ele><time>2026-03-26T06:40:24Z</time></trkpt><trkpt lat="45.928403376636176" lon="12.071392327970132"><ele>365.0</ele><time>2026-03-26T06:40:25Z</time></trkpt><trkpt lat="45.92845667048756" lon="12.071478383042532"><ele>367.0</ele><time>2026-03-26T06:40:26Z</time></trkpt><trkpt lat="45.92849818312407" lon="12.071583749244745"><ele>369.0</ele><time>2026-03-26T06:40:27Z</time></trkpt><trkpt lat="45.92853452005596" lon="12.071699215136457"><ele>371.0</ele><time>2026-03-26T06:40:28Z</time></trkpt><trkpt lat="45.92857121745345" lon="12.071819357280257"><ele>373.0</ele><time>2026-03-26T06:40:29Z</time></trkpt><trkpt lat="45.92861552417397" lon="12.071938714119808"><ele>375.0</ele><time>2026-03-26T06:40:30Z</time></trkpt><trkpt lat="45.928666676774625" lon="12.072045088728693"><ele>375.0</ele><time>2026-03-26T06:40:31Z</time></trkpt><trkpt lat="45.92872527549891" lon="12.072140214856194"><ele>375.0</ele><time>2026-03-26T06:40:32Z</time></trkpt><trkpt lat="45.928798675357186" lon="12.07219801703656"><ele>375.0</ele><time>2026-03-26T06:40:33Z</time></trkpt><trkpt lat="45.9288754081539" lon="12.072163708440254"><ele>375.0</ele><time>2026-03-26T06:40:34Z</time></trkpt><trkpt lat="45.928974001194234" lon="12.072047041614072"><ele>375.0</ele><time>2026-03-26T06:40:36Z</time></trkpt><trkpt lat="45.92896874288171" lon="12.071896145204253"><ele>375.0</ele><time>2026-03-26T06:40:38Z</time></trkpt><trkpt lat="45.92896359116744" lon="12.071750575016798"><ele>375.0</ele><time>2026-03-26T06:40:56.999Z</time></trkpt><trkpt lat="45.928950764033566" lon="12.071572740882331"><ele>375.0</ele><time>2026-03-26T06:40:58.999Z</time></trkpt><trkpt lat="45.92894308674699" lon="12.07146499992395"><ele>375.0</ele><time>2026-03-26T06:40:59.999Z</time></trkpt><trkpt lat="45.92893302048086" lon="12.071366625311402"><ele>375.0</ele><time>2026-03-26T06:41:00.999Z</time></trkpt><trkpt lat="45.928923451832276" lon="12.071276601907886"><ele>375.0</ele><time>2026-03-26T06:41:01.999Z</time></trkpt><trkpt lat="45.92891809333915" lon="12.071176565654637"><ele>375.5</ele><time>2026-03-26T06:41:02.999Z</time></trkpt><trkpt lat="45.928919208573895" lon="12.071068606581083"><ele>376.0</ele><time>2026-03-26T06:41:03.999Z</time></trkpt><trkpt lat="45.92890377009904" lon="12.070953236868297"><ele>376.5</ele><time>2026-03-26T06:41:04.999Z</time></trkpt><trkpt lat="45.928887853418" lon="12.070833911331075"><ele>377.0</ele><time>2026-03-26T06:41:05.999Z</time></trkpt><trkpt lat="45.928873529265594" lon="12.070709899774135"><ele>377.5</ele><time>2026-03-26T06:41:06.999Z</time></trkpt><trkpt lat="45.928865273493834" lon="12.070578217227409"><ele>378.0</ele><time>2026-03-26T06:41:07.999Z</time></trkpt><trkpt lat="45.9288593668856" lon="12.07044002304401"><ele>378.4</ele><time>2026-03-26T06:41:08.999Z</time></trkpt><trkpt lat="45.92885096937362" lon="12.07029438786339"><ele>378.79999999999995</ele><time>2026-03-26T06:41:09.999Z</time></trkpt><trkpt lat="45.92883855049673" lon="12.070146453981591"><ele>379.2</ele><time>2026-03-26T06:41:10.999Z</time></trkpt><trkpt lat="45.92882638356719" lon="12.06999444680609"><ele>379.6</ele><time>2026-03-26T06:41:11.999Z</time></trkpt><trkpt lat="45.92881484466639" lon="12.069836476216944"><ele>380.0</ele><time>2026-03-26T06:41:12.999Z</time></trkpt><trkpt lat="45.92880301860626" lon="12.069675529342204"><ele>380.6666666666667</ele><time>2026-03-26T06:41:13.999Z</time></trkpt><trkpt lat="45.92879033084309" lon="12.069529049001106"><ele>381.33333333333337</ele><time>2026-03-26T06:41:14.999Z</time></trkpt><trkpt lat="45.928778621447314" lon="12.069392126857123"><ele>382.0</ele><time>2026-03-26T06:41:15.999Z</time></trkpt><trkpt lat="45.928767966660764" lon="12.069271152908549"><ele>382.6666666666667</ele><time>2026-03-26T06:41:16.999Z</time></trkpt><trkpt lat="45.92877139220812" lon="12.069160007241663"><ele>383.3333333333333</ele><time>2026-03-26T06:41:17.999Z</time></trkpt><trkpt lat="45.928785309641604" lon="12.069065259153744"><ele>384.0</ele><time>2026-03-26T06:41:18.999Z</time></trkpt><trkpt lat="45.92882471722114" lon="12.068994294672697"><ele>385.5</ele><time>2026-03-26T06:41:19.999Z</time></trkpt><trkpt lat="45.928885514606414" lon="12.068912793039859"><ele>387.0</ele><time>2026-03-26T06:41:21.999Z</time></trkpt><trkpt lat="45.92889054338778" lon="12.06879807254885"><ele>388.5</ele><time>2026-03-26T06:41:24.999Z</time></trkpt><trkpt lat="45.92885986244266" lon="12.068664905978252"><ele>390.0</ele><time>2026-03-26T06:41:26.999Z</time></trkpt><trkpt lat="45.92885332213692" lon="12.068569586361939"><ele>391.5</ele><time>2026-03-26T06:41:31Z</time></trkpt><trkpt lat="45.92881758216766" lon="12.068453664284394"><ele>393.0</ele><time>2026-03-26T06:41:33Z</time></trkpt><trkpt lat="45.92877643642522" lon="12.068382351598986"><ele>393.0</ele><time>2026-03-26T06:41:34Z</time></trkpt><trkpt lat="45.928724759850475" lon="12.068300944743338"><ele>393.0</ele><time>2026-03-26T06:41:35Z</time></trkpt><trkpt lat="45.9286743063936" lon="12.068223563572055"><ele>393.0</ele><time>2026-03-26T06:41:36Z</time></trkpt><trkpt lat="45.92862677415606" lon="12.068145268583622"><ele>393.0</ele><time>2026-03-26T06:41:37Z</time></trkpt><trkpt lat="45.928574765097046" lon="12.068054145278543"><ele>393.0</ele><time>2026-03-26T06:41:38Z</time></trkpt><trkpt lat="45.92851694349894" lon="12.067960968129904"><ele>393.0</ele><time>2026-03-26T06:41:39Z</time></trkpt><trkpt lat="45.928461012304865" lon="12.067880163743986"><ele>393.8333333333333</ele><time>2026-03-26T06:41:40Z</time></trkpt><trkpt lat="45.9284000487712" lon="12.067815402469007"><ele>394.66666666666663</ele><time>2026-03-26T06:41:41Z</time></trkpt><trkpt lat="45.928328283064815" lon="12.067772632530433"><ele>395.5</ele><time>2026-03-26T06:41:42Z</time></trkpt><trkpt lat="45.92824847200537" lon="12.067769387262144"><ele>396.3333333333333</ele><time>2026-03-26T06:41:43Z</time></trkpt><trkpt lat="45.9281564971471" lon="12.067783355715886"><ele>397.16666666666663</ele><time>2026-03-26T06:41:44Z</time></trkpt><trkpt lat="45.92806869463967" lon="12.0678343576759"><ele>398.0</ele><time>2026-03-26T06:41:45Z</time></trkpt><trkpt lat="45.92798654794676" lon="12.067915406497791"><ele>398.0</ele><time>2026-03-26T06:41:46Z</time></trkpt><trkpt lat="45.92791022689534" lon="12.067997041581844"><ele>398.0</ele><time>2026-03-26T06:41:47Z</time></trkpt><trkpt lat="45.927823576578945" lon="12.06803554991367"><ele>398.0</ele><time>2026-03-26T06:41:48Z</time></trkpt><trkpt lat="45.92773795726333" lon="12.068060050884352"><ele>398.0</ele><time>2026-03-26T06:41:49Z</time></trkpt><trkpt lat="45.92763699791589" lon="12.068062540979811"><ele>398.0</ele><time>2026-03-26T06:41:50Z</time></trkpt><trkpt lat="45.927532446427136" lon="12.06805371551726"><ele>396.4</ele><time>2026-03-26T06:41:51Z</time></trkpt><trkpt lat="45.927431740955704" lon="12.067991922512274"><ele>394.79999999999995</ele><time>2026-03-26T06:41:52Z</time></trkpt><trkpt lat="45.92732500852248" lon="12.067923134177246"><ele>393.2</ele><time>2026-03-26T06:41:53Z</time></trkpt><trkpt lat="45.92722016509278" lon="12.067854651305119"><ele>391.6</ele><time>2026-03-26T06:41:54Z</time></trkpt><trkpt lat="45.927126937209216" lon="12.067795008207971"><ele>390.0</ele><time>2026-03-26T06:41:55Z</time></trkpt><trkpt lat="45.92706767282" lon="12.067692881256074"><ele>390.0</ele><time>2026-03-26T06:41:56Z</time></trkpt><trkpt lat="45.92703934054371" lon="12.067564184161165"><ele>390.0</ele><time>2026-03-26T06:41:57Z</time></trkpt><trkpt lat="45.927034789142155" lon="12.067406097834114"><ele>390.0</ele><time>2026-03-26T06:41:58Z</time></trkpt><trkpt lat="45.92703864240513" lon="12.067282108603251"><ele>390.0</ele><time>2026-03-26T06:41:59Z</time></trkpt><trkpt lat="45.92708021900516" lon="12.067172742515897"><ele>390.0</ele><time>2026-03-26T06:42:00Z</time></trkpt><trkpt lat="45.92715029588188" lon="12.067074430033706"><ele>390.6</ele><time>2026-03-26T06:42:01Z</time></trkpt><trkpt lat="45.927232090437556" lon="12.066985039777727"><ele>391.2</ele><time>2026-03-26T06:42:02Z</time></trkpt><trkpt lat="45.92731837809118" lon="12.06689259734373"><ele>391.79999999999995</ele><time>2026-03-26T06:42:03Z</time></trkpt><trkpt lat="45.927403043534355" lon="12.066792197385416"><ele>392.4</ele><time>2026-03-26T06:42:04Z</time></trkpt><trkpt lat="45.92746728420976" lon="12.066673256577156"><ele>393.0</ele><time>2026-03-26T06:42:05Z</time></trkpt><trkpt lat="45.92750793682522" lon="12.066535262374273"><ele>395.4</ele><time>2026-03-26T06:42:06Z</time></trkpt><trkpt lat="45.927508168671196" lon="12.06639701540956"><ele>397.79999999999995</ele><time>2026-03-26T06:42:07Z</time></trkpt><trkpt lat="45.92747802438675" lon="12.066270135296572"><ele>400.2</ele><time>2026-03-26T06:42:08Z</time></trkpt><trkpt lat="45.92742958888735" lon="12.06615983294901"><ele>402.6</ele><time>2026-03-26T06:42:09Z</time></trkpt><trkpt lat="45.92736527589512" lon="12.06606583203416"><ele>405.0</ele><time>2026-03-26T06:42:10Z</time></trkpt><trkpt lat="45.92730490458162" lon="12.065993608838257"><ele>405.0</ele><time>2026-03-26T06:42:11Z</time></trkpt><trkpt lat="45.927247397023685" lon="12.065933560571644"><ele>405.0</ele><time>2026-03-26T06:42:12Z</time></trkpt><trkpt lat="45.92719037730034" lon="12.065870741192688"><ele>405.0</ele><time>2026-03-26T06:42:13Z</time></trkpt><trkpt lat="45.927128704834686" lon="12.065795876597338"><ele>405.0</ele><time>2026-03-26T06:42:14Z</time></trkpt><trkpt lat="45.92707652854103" lon="12.065711217780041"><ele>405.0</ele><time>2026-03-26T06:42:15Z</time></trkpt><trkpt lat="45.92703719745999" lon="12.06561111116928"><ele>405.0</ele><time>2026-03-26T06:42:16Z</time></trkpt><trkpt lat="45.927003787353094" lon="12.065498901449782"><ele>403.8333333333333</ele><time>2026-03-26T06:42:17Z</time></trkpt><trkpt lat="45.92695292877581" lon="12.065388769956737"><ele>402.66666666666663</ele><time>2026-03-26T06:42:18Z</time></trkpt><trkpt lat="45.926884123705065" lon="12.065303575483407"><ele>401.5</ele><time>2026-03-26T06:42:19Z</time></trkpt><trkpt lat="45.92679765598512" lon="12.065266174262117"><ele>400.3333333333333</ele><time>2026-03-26T06:42:20Z</time></trkpt><trkpt lat="45.92671514377469" lon="12.065253098067902"><ele>399.16666666666663</ele><time>2026-03-26T06:42:21Z</time></trkpt><trkpt lat="45.926631807706265" lon="12.065245731671244"><ele>398.0</ele><time>2026-03-26T06:42:22Z</time></trkpt><trkpt lat="45.9265543000378" lon="12.065211736736225"><ele>397.99999999999994</ele><time>2026-03-26T06:42:23Z</time></trkpt><trkpt lat="45.926479504873086" lon="12.0651525178184"><ele>398.0</ele><time>2026-03-26T06:42:24Z</time></trkpt><trkpt lat="45.92641438800212" lon="12.065063556751573"><ele>398.0</ele><time>2026-03-26T06:42:25Z</time></trkpt><trkpt lat="45.926369941680456" lon="12.064968732528714"><ele>398.0</ele><time>2026-03-26T06:42:26Z</time></trkpt><trkpt lat="45.92633682405027" lon="12.064854501141344"><ele>397.99999999999994</ele><time>2026-03-26T06:42:27Z</time></trkpt><trkpt lat="45.92631899863137" lon="12.0647331959538"><ele>398.0</ele><time>2026-03-26T06:42:28Z</time></trkpt><trkpt lat="45.92631693553694" lon="12.064597854706545"><ele>402.59999999999997</ele><time>2026-03-26T06:42:29Z</time></trkpt><trkpt lat="45.92629928950107" lon="12.064460245807025"><ele>407.2</ele><time>2026-03-26T06:42:30Z</time></trkpt><trkpt lat="45.92627249440984" lon="12.064319799939163"><ele>411.8</ele><time>2026-03-26T06:42:31Z</time></trkpt><trkpt lat="45.926249320590344" lon="12.064172944876473"><ele>416.4</ele><time>2026-03-26T06:42:32Z</time></trkpt><trkpt lat="45.92622728876263" lon="12.064020631927228"><ele>421.0</ele><time>2026-03-26T06:42:33Z</time></trkpt><trkpt lat="45.926212664915994" lon="12.06385855253504"><ele>422.6</ele><time>2026-03-26T06:42:34Z</time></trkpt><trkpt lat="45.92619424740166" lon="12.063693296043132"><ele>424.20000000000005</ele><time>2026-03-26T06:42:35Z</time></trkpt><trkpt lat="45.92617375703231" lon="12.063529210308854"><ele>425.79999999999995</ele><time>2026-03-26T06:42:36Z</time></trkpt><trkpt lat="45.9261548138078" lon="12.063378593087236"><ele>427.4</ele><time>2026-03-26T06:42:37Z</time></trkpt><trkpt lat="45.9261353506814" lon="12.063239894136352"><ele>429.0</ele><time>2026-03-26T06:42:38Z</time></trkpt><trkpt lat="45.92611491464895" lon="12.063133154380541"><ele>429.0</ele><time>2026-03-26T06:42:39Z</time></trkpt><trkpt lat="45.926083887582976" lon="12.063050968913274"><ele>429.0</ele><time>2026-03-26T06:42:40Z</time></trkpt><trkpt lat="45.92599934701397" lon="12.06299545687487"><ele>429.0</ele><time>2026-03-26T06:42:42Z</time></trkpt><trkpt lat="45.92601605702535" lon="12.063099407129437"><ele>429.0</ele><time>2026-03-26T06:43:52Z</time></trkpt><trkpt lat="45.92609370013927" lon="12.063225445706127"><ele>429.0</ele><time>2026-03-26T06:43:54Z</time></trkpt><trkpt lat="45.9261291212988" lon="12.06330940466017"><ele>429.0</ele><time>2026-03-26T06:43:55Z</time></trkpt><trkpt lat="45.926120303692265" lon="12.0634175730675"><ele>429.0</ele><time>2026-03-26T06:43:56Z</time></trkpt><trkpt lat="45.926152885939345" lon="12.063543102430796"><ele>429.0</ele><time>2026-03-26T06:43:57Z</time></trkpt><trkpt lat="45.926166755813384" lon="12.063696636735386"><ele>429.0</ele><time>2026-03-26T06:43:58Z</time></trkpt><trkpt lat="45.92618845351936" lon="12.063852880360148"><ele>429.0</ele><time>2026-03-26T06:43:59Z</time></trkpt><trkpt lat="45.92621093346649" lon="12.064015590885662"><ele>429.0</ele><time>2026-03-26T06:44:00Z</time></trkpt><trkpt lat="45.92622930201546" lon="12.064178642229605"><ele>427.4</ele><time>2026-03-26T06:44:01Z</time></trkpt><trkpt lat="45.926246990585916" lon="12.06434683498639"><ele>425.79999999999995</ele><time>2026-03-26T06:44:02Z</time></trkpt><trkpt lat="45.92626720956783" lon="12.064512575093516"><ele>424.20000000000005</ele><time>2026-03-26T06:44:03Z</time></trkpt><trkpt lat="45.92628578018005" lon="12.06466612654517"><ele>422.6</ele><time>2026-03-26T06:44:04Z</time></trkpt><trkpt lat="45.92630710713116" lon="12.064799288809805"><ele>421.0</ele><time>2026-03-26T06:44:05Z</time></trkpt><trkpt lat="45.926327155528426" lon="12.064919902104366"><ele>417.1666666666667</ele><time>2026-03-26T06:44:06Z</time></trkpt><trkpt lat="45.92634764197077" lon="12.065025688580782"><ele>413.33333333333337</ele><time>2026-03-26T06:44:07Z</time></trkpt><trkpt lat="45.92639357762665" lon="12.065118580863649"><ele>409.5</ele><time>2026-03-26T06:44:08Z</time></trkpt><trkpt lat="45.92645217035145" lon="12.065205512110008"><ele>405.66666666666663</ele><time>2026-03-26T06:44:09Z</time></trkpt><trkpt lat="45.926535408134406" lon="12.065274208726747"><ele>401.8333333333333</ele><time>2026-03-26T06:44:10Z</time></trkpt><trkpt lat="45.92662905759121" lon="12.06530831923079"><ele>398.0</ele><time>2026-03-26T06:44:11Z</time></trkpt><trkpt lat="45.92672266695382" lon="12.065318054371202"><ele>403.0</ele><time>2026-03-26T06:44:12Z</time></trkpt><trkpt lat="45.92681862784455" lon="12.065341846779985"><ele>408.0</ele><time>2026-03-26T06:44:13Z</time></trkpt><trkpt lat="45.92689134784104" lon="12.065404752449517"><ele>413.0</ele><time>2026-03-26T06:44:14Z</time></trkpt><trkpt lat="45.926949284173915" lon="12.065512284382583"><ele>418.0</ele><time>2026-03-26T06:44:15Z</time></trkpt><trkpt lat="45.92699190427558" lon="12.065639941044152"><ele>423.0</ele><time>2026-03-26T06:44:16Z</time></trkpt><trkpt lat="45.927042241307724" lon="12.065774177795989"><ele>418.5</ele><time>2026-03-26T06:44:17Z</time></trkpt><trkpt lat="45.92711702406588" lon="12.065896693542633"><ele>414.0</ele><time>2026-03-26T06:44:18Z</time></trkpt><trkpt lat="45.92721190585392" lon="12.066011397642033"><ele>409.5</ele><time>2026-03-26T06:44:19Z</time></trkpt><trkpt lat="45.92730920125629" lon="12.06611582326435"><ele>405.0</ele><time>2026-03-26T06:44:20Z</time></trkpt><trkpt lat="45.92738584906352" lon="12.066220972208544"><ele>405.0</ele><time>2026-03-26T06:44:21Z</time></trkpt><trkpt lat="45.92743670324654" lon="12.06633422465162"><ele>405.0</ele><time>2026-03-26T06:44:22Z</time></trkpt><trkpt lat="45.92746029683361" lon="12.066464589178404"><ele>405.0</ele><time>2026-03-26T06:44:23Z</time></trkpt><trkpt lat="45.927447539115285" lon="12.066597093453998"><ele>405.0</ele><time>2026-03-26T06:44:24Z</time></trkpt><trkpt lat="45.92740538337842" lon="12.06672501785679"><ele>405.0</ele><time>2026-03-26T06:44:25Z</time></trkpt><trkpt lat="45.927320194071626" lon="12.066818913581463"><ele>402.6</ele><time>2026-03-26T06:44:26Z</time></trkpt><trkpt lat="45.92725039980648" lon="12.06693852320189"><ele>400.2</ele><time>2026-03-26T06:44:27Z</time></trkpt><trkpt lat="45.927162889123345" lon="12.06703383864913"><ele>397.79999999999995</ele><time>2026-03-26T06:44:28Z</time></trkpt><trkpt lat="45.92708502042689" lon="12.067130703915259"><ele>395.4</ele><time>2026-03-26T06:44:29Z</time></trkpt><trkpt lat="45.92701913147463" lon="12.067231445778992"><ele>393.0</ele><time>2026-03-26T06:44:30Z</time></trkpt><trkpt lat="45.92697994685783" lon="12.067340709799502"><ele>392.4</ele><time>2026-03-26T06:44:31Z</time></trkpt><trkpt lat="45.92696427837141" lon="12.067454740335878"><ele>391.79999999999995</ele><time>2026-03-26T06:44:32Z</time></trkpt><trkpt lat="45.92697723439253" lon="12.067571084772984"><ele>391.2</ele><time>2026-03-26T06:44:33Z</time></trkpt><trkpt lat="45.92701400650885" lon="12.067692913590058"><ele>390.6</ele><time>2026-03-26T06:44:34Z</time></trkpt><trkpt lat="45.927074114035655" lon="12.067802439854628"><ele>390.0</ele><time>2026-03-26T06:44:35Z</time></trkpt><trkpt lat="45.92715809836004" lon="12.067888783096178"><ele>390.0</ele><time>2026-03-26T06:44:36Z</time></trkpt><trkpt lat="45.927257856626184" lon="12.067949882259246"><ele>390.0</ele><time>2026-03-26T06:44:37Z</time></trkpt><trkpt lat="45.927358899380486" lon="12.068003196180067"><ele>390.0</ele><time>2026-03-26T06:44:38Z</time></trkpt><trkpt lat="45.92745497399378" lon="12.068058628162646"><ele>390.0</ele><time>2026-03-26T06:44:39Z</time></trkpt><trkpt lat="45.92755748238827" lon="12.068108462297632"><ele>390.0</ele><time>2026-03-26T06:44:40Z</time></trkpt><trkpt lat="45.92765976861009" lon="12.068128969340949"><ele>391.6</ele><time>2026-03-26T06:44:41Z</time></trkpt><trkpt lat="45.927759277675655" lon="12.068119084904106"><ele>393.2</ele><time>2026-03-26T06:44:42Z</time></trkpt><trkpt lat="45.9278586223547" lon="12.06807787024125"><ele>394.79999999999995</ele><time>2026-03-26T06:44:42.999Z</time></trkpt><trkpt lat="45.92795281706151" lon="12.06801410470337"><ele>396.4</ele><time>2026-03-26T06:44:43.999Z</time></trkpt><trkpt lat="45.928039672150305" lon="12.067931411285258"><ele>398.0</ele><time>2026-03-26T06:44:44.999Z</time></trkpt><trkpt lat="45.928122411591325" lon="12.067866658763666"><ele>398.0</ele><time>2026-03-26T06:44:45.999Z</time></trkpt><trkpt lat="45.92821161243415" lon="12.067831090865527"><ele>398.0</ele><time>2026-03-26T06:44:46.999Z</time></trkpt><trkpt lat="45.92830705251858" lon="12.06783363372094"><ele>398.0</ele><time>2026-03-26T06:44:47.999Z</time></trkpt><trkpt lat="45.9283982331191" lon="12.067879235176507"><ele>398.0</ele><time>2026-03-26T06:44:48.999Z</time></trkpt><trkpt lat="45.92847981816218" lon="12.067963325533459"><ele>398.0</ele><time>2026-03-26T06:44:49.999Z</time></trkpt><trkpt lat="45.92854496566495" lon="12.0680754373416"><ele>397.0</ele><time>2026-03-26T06:44:50.999Z</time></trkpt><trkpt lat="45.928612821048205" lon="12.06819223568473"><ele>396.0</ele><time>2026-03-26T06:44:51.999Z</time></trkpt><trkpt lat="45.92867930027954" lon="12.068309484703066"><ele>395.0</ele><time>2026-03-26T06:44:52.999Z</time></trkpt><trkpt lat="45.92875355265512" lon="12.068431224730327"><ele>394.0</ele><time>2026-03-26T06:44:53.999Z</time></trkpt><trkpt lat="45.92882382792272" lon="12.068541018172935"><ele>393.0</ele><time>2026-03-26T06:44:54.999Z</time></trkpt><trkpt lat="45.92889067390498" lon="12.068652752226807"><ele>393.0</ele><time>2026-03-26T06:44:55.999Z</time></trkpt><trkpt lat="45.928953939934274" lon="12.06876087579018"><ele>393.0</ele><time>2026-03-26T06:44:56.999Z</time></trkpt><trkpt lat="45.92900659131233" lon="12.068851674323245"><ele>393.0</ele><time>2026-03-26T06:44:57.999Z</time></trkpt><trkpt lat="45.92905191824696" lon="12.068932644844582"><ele>393.0</ele><time>2026-03-26T06:44:58.999Z</time></trkpt><trkpt lat="45.929086538958515" lon="12.06906569494847"><ele>393.0</ele><time>2026-03-26T06:45:00.999Z</time></trkpt><trkpt lat="45.92910901008353" lon="12.06915629017522"><ele>393.0</ele><time>2026-03-26T06:45:02.999Z</time></trkpt><trkpt lat="45.92917409600103" lon="12.069194157839119"><ele>394.0</ele><time>2026-03-26T06:45:22.999Z</time></trkpt><trkpt lat="45.92922808366511" lon="12.069307134283628"><ele>395.0</ele><time>2026-03-26T06:45:24.999Z</time></trkpt><trkpt lat="45.929260697810605" lon="12.069389767969026"><ele>396.0</ele><time>2026-03-26T06:45:25.999Z</time></trkpt><trkpt lat="45.92929747129483" lon="12.06948449204786"><ele>397.0</ele><time>2026-03-26T06:45:26.999Z</time></trkpt><trkpt lat="45.92933385138439" lon="12.069569388206329"><ele>398.0</ele><time>2026-03-26T06:45:27.999Z</time></trkpt><trkpt lat="45.92936382046828" lon="12.069661485710274"><ele>399.0</ele><time>2026-03-26T06:45:28.999Z</time></trkpt><trkpt lat="45.92939843127807" lon="12.069759888935101"><ele>399.0</ele><time>2026-03-26T06:45:29.999Z</time></trkpt><trkpt lat="45.929435466261104" lon="12.069849872707898"><ele>399.0</ele><time>2026-03-26T06:45:30.999Z</time></trkpt><trkpt lat="45.92948538450447" lon="12.069998406582034"><ele>399.0</ele><time>2026-03-26T06:45:32.999Z</time></trkpt><trkpt lat="45.929531928305124" lon="12.07012439826788"><ele>399.0</ele><time>2026-03-26T06:45:51Z</time></trkpt><trkpt lat="45.92959589973021" lon="12.070282116949484"><ele>399.0</ele><time>2026-03-26T06:45:53Z</time></trkpt><trkpt lat="45.92963318692933" lon="12.070375264145785"><ele>398.3333333333333</ele><time>2026-03-26T06:45:54Z</time></trkpt><trkpt lat="45.92965510846985" lon="12.07046320401431"><ele>397.66666666666663</ele><time>2026-03-26T06:45:55Z</time></trkpt><trkpt lat="45.92969312004907" lon="12.07055009214563"><ele>397.0</ele><time>2026-03-26T06:45:56Z</time></trkpt><trkpt lat="45.92973815143232" lon="12.070649523399005"><ele>396.3333333333333</ele><time>2026-03-26T06:45:57Z</time></trkpt><trkpt lat="45.92978149832491" lon="12.070753655588842"><ele>395.66666666666663</ele><time>2026-03-26T06:45:58Z</time></trkpt><trkpt lat="45.92982450624965" lon="12.070845929762086"><ele>395.0</ele><time>2026-03-26T06:45:59Z</time></trkpt><trkpt lat="45.929847796062354" lon="12.070950818211193"><ele>394.3333333333333</ele><time>2026-03-26T06:46:00Z</time></trkpt><trkpt lat="45.92991346512099" lon="12.071115658904189"><ele>393.66666666666663</ele><time>2026-03-26T06:46:02Z</time></trkpt><trkpt lat="45.92995427921221" lon="12.071223069562569"><ele>393.0</ele><time>2026-03-26T06:46:04Z</time></trkpt><trkpt lat="45.929937093421515" lon="12.071324423757764"><ele>392.33333333333337</ele><time>2026-03-26T06:46:06Z</time></trkpt><trkpt lat="45.92993956245849" lon="12.071415614325959"><ele>391.6666666666667</ele><time>2026-03-26T06:46:10Z</time></trkpt><trkpt lat="45.929944263639285" lon="12.071537792538667"><ele>391.0</ele><time>2026-03-26T06:46:12Z</time></trkpt><trkpt lat="45.92994912487423" lon="12.071649831446685"><ele>391.0</ele><time>2026-03-26T06:46:14Z</time></trkpt><trkpt lat="45.92985981321789" lon="12.071698252396507"><ele>391.0</ele><time>2026-03-26T06:46:23Z</time></trkpt><trkpt lat="45.92996004809734" lon="12.07176167318073"><ele>391.0</ele><time>2026-03-26T06:47:11.999Z</time></trkpt><trkpt lat="45.929990606031595" lon="12.071905382458628"><ele>391.0</ele><time>2026-03-26T06:47:13.999Z</time></trkpt><trkpt lat="45.93001033850752" lon="12.07201250877607"><ele>391.0</ele><time>2026-03-26T06:47:15.999Z</time></trkpt><trkpt lat="45.93002023333815" lon="12.072143803056335"><ele>391.00000000000006</ele><time>2026-03-26T06:47:17.999Z</time></trkpt><trkpt lat="45.93001274496573" lon="12.07225201707604"><ele>391.0</ele><time>2026-03-26T06:47:19.999Z</time></trkpt><trkpt lat="45.929988304874534" lon="12.072353495162096"><ele>391.0</ele><time>2026-03-26T06:47:21.999Z</time></trkpt><trkpt lat="45.92996284704904" lon="12.072466670966921"><ele>391.0</ele><time>2026-03-26T06:47:23.999Z</time></trkpt><trkpt lat="45.929957447726395" lon="12.07261361743676"><ele>391.00000000000006</ele><time>2026-03-26T06:47:25.999Z</time></trkpt><trkpt lat="45.929896499494085" lon="12.072698989375294"><ele>391.0</ele><time>2026-03-26T06:47:27.999Z</time></trkpt><trkpt lat="45.92984929892484" lon="12.072781855414433"><ele>390.33333333333337</ele><time>2026-03-26T06:47:29.999Z</time></trkpt><trkpt lat="45.92976625748888" lon="12.072868607732405"><ele>389.6666666666667</ele><time>2026-03-26T06:47:31.999Z</time></trkpt><trkpt lat="45.929704740302036" lon="12.072899129369668"><ele>389.0</ele><time>2026-03-26T06:47:32.999Z</time></trkpt><trkpt lat="45.92965579455846" lon="12.073017486072978"><ele>388.33333333333337</ele><time>2026-03-26T06:47:34.999Z</time></trkpt><trkpt lat="45.92960873187478" lon="12.073103471447196"><ele>387.6666666666667</ele><time>2026-03-26T06:47:36.999Z</time></trkpt><trkpt lat="45.92957207582434" lon="12.073224493337717"><ele>387.0</ele><time>2026-03-26T06:47:38.999Z</time></trkpt><trkpt lat="45.92953426108725" lon="12.073300709961782"><ele>387.0</ele><time>2026-03-26T06:47:40.999Z</time></trkpt><trkpt lat="45.9295005179576" lon="12.073406511066972"><ele>387.0</ele><time>2026-03-26T06:47:42.999Z</time></trkpt><trkpt lat="45.92944145801817" lon="12.073453885475967"><ele>387.0</ele><time>2026-03-26T06:47:44.999Z</time></trkpt><trkpt lat="45.92935563461516" lon="12.07345175889589"><ele>387.0</ele><time>2026-03-26T06:47:47Z</time></trkpt><trkpt lat="45.92926300469101" lon="12.07351776805248"><ele>387.0</ele><time>2026-03-26T06:47:49Z</time></trkpt><trkpt lat="45.929192284779006" lon="12.073543900757528"><ele>387.0</ele><time>2026-03-26T06:47:51Z</time></trkpt><trkpt lat="45.92907762453358" lon="12.073511870287394"><ele>388.42857142857144</ele><time>2026-03-26T06:47:53Z</time></trkpt><trkpt lat="45.92901786863029" lon="12.073554565244605"><ele>389.8571428571429</ele><time>2026-03-26T06:47:55Z</time></trkpt><trkpt lat="45.928966735145586" lon="12.073622286618928"><ele>391.2857142857143</ele><time>2026-03-26T06:47:57Z</time></trkpt><trkpt lat="45.928881226392875" lon="12.073609333157657"><ele>392.7142857142857</ele><time>2026-03-26T06:48:00Z</time></trkpt><trkpt lat="45.92881015452643" lon="12.073554769822447"><ele>394.1428571428571</ele><time>2026-03-26T06:48:02Z</time></trkpt><trkpt lat="45.92876967032715" lon="12.073624132659534"><ele>395.57142857142856</ele><time>2026-03-26T06:48:20Z</time></trkpt><trkpt lat="45.92869030149891" lon="12.07359900617776"><ele>397.0</ele><time>2026-03-26T06:48:25Z</time></trkpt><trkpt lat="45.92861169902649" lon="12.073577127983526"><ele>397.0</ele><time>2026-03-26T06:48:27Z</time></trkpt><trkpt lat="45.92851108881914" lon="12.073559655638974"><ele>397.0</ele><time>2026-03-26T06:48:29Z</time></trkpt><trkpt lat="45.92841142261058" lon="12.073598038117193"><ele>397.0</ele><time>2026-03-26T06:48:31Z</time></trkpt><trkpt lat="45.92834094552431" lon="12.073615580957764"><ele>397.0</ele><time>2026-03-26T06:48:33Z</time></trkpt><trkpt lat="45.92824477397383" lon="12.073604813360106"><ele>397.0</ele><time>2026-03-26T06:48:35Z</time></trkpt><trkpt lat="45.928145480138866" lon="12.073577071790615"><ele>397.50000000000006</ele><time>2026-03-26T06:48:37Z</time></trkpt><trkpt lat="45.928058207532665" lon="12.073594941820952"><ele>398.0</ele><time>2026-03-26T06:48:40Z</time></trkpt><trkpt lat="45.927963599833284" lon="12.073624424949974"><ele>398.5</ele><time>2026-03-26T06:48:42Z</time></trkpt><trkpt lat="45.927856027231186" lon="12.073616749952937"><ele>399.0</ele><time>2026-03-26T06:48:44Z</time></trkpt><trkpt lat="45.927793143597874" lon="12.073604711657609"><ele>399.50000000000006</ele><time>2026-03-26T06:48:45.999Z</time></trkpt><trkpt lat="45.92771087502527" lon="12.07354421785398"><ele>400.0</ele><time>2026-03-26T06:48:47.999Z</time></trkpt><trkpt lat="45.92759369164415" lon="12.073465588684577"><ele>402.8</ele><time>2026-03-26T06:48:49.999Z</time></trkpt><trkpt lat="45.92754754840023" lon="12.07339868889268"><ele>405.6</ele><time>2026-03-26T06:48:50.999Z</time></trkpt><trkpt lat="45.92745046050743" lon="12.07336693699535"><ele>408.4</ele><time>2026-03-26T06:48:52.999Z</time></trkpt><trkpt lat="45.92738988366357" lon="12.073459846663491"><ele>411.2</ele><time>2026-03-26T06:48:54.999Z</time></trkpt><trkpt lat="45.927355371661974" lon="12.073600666938761"><ele>414.0</ele><time>2026-03-26T06:48:56.999Z</time></trkpt><trkpt lat="45.92742056400018" lon="12.073750855855025"><ele>414.00000000000006</ele><time>2026-03-26T06:48:58.999Z</time></trkpt><trkpt lat="45.92746947637441" lon="12.073827200631172"><ele>414.0</ele><time>2026-03-26T06:48:59.999Z</time></trkpt><trkpt lat="45.9275266835984" lon="12.073893387502244"><ele>414.0</ele><time>2026-03-26T06:49:00.999Z</time></trkpt><trkpt lat="45.92757119583034" lon="12.073958683430474"><ele>414.0</ele><time>2026-03-26T06:49:01.999Z</time></trkpt><trkpt lat="45.927617798557606" lon="12.07402043164861"><ele>414.0</ele><time>2026-03-26T06:49:02.999Z</time></trkpt><trkpt lat="45.92766735066363" lon="12.074086202639975"><ele>414.00000000000006</ele><time>2026-03-26T06:49:03.999Z</time></trkpt><trkpt lat="45.92772247133536" lon="12.074152122953167"><ele>414.0</ele><time>2026-03-26T06:49:04.999Z</time></trkpt><trkpt lat="45.927785517259494" lon="12.074211360619952"><ele>415.0</ele><time>2026-03-26T06:49:05.999Z</time></trkpt><trkpt lat="45.92785054413001" lon="12.074265854963786"><ele>416.0</ele><time>2026-03-26T06:49:06.999Z</time></trkpt><trkpt lat="45.92792202256976" lon="12.074312289524896"><ele>417.0</ele><time>2026-03-26T06:49:07.999Z</time></trkpt><trkpt lat="45.92799636292807" lon="12.074351938144526"><ele>418.0</ele><time>2026-03-26T06:49:08.999Z</time></trkpt><trkpt lat="45.92806542249946" lon="12.074397487796773"><ele>419.0</ele><time>2026-03-26T06:49:09.999Z</time></trkpt><trkpt lat="45.92813399225184" lon="12.074449212368034"><ele>420.0</ele><time>2026-03-26T06:49:10.999Z</time></trkpt><trkpt lat="45.928199945955505" lon="12.074513210800458"><ele>420.0</ele><time>2026-03-26T06:49:11.999Z</time></trkpt><trkpt lat="45.92826951905334" lon="12.074568414465835"><ele>420.0</ele><time>2026-03-26T06:49:12.999Z</time></trkpt><trkpt lat="45.92833675169745" lon="12.074616847878477"><ele>420.0</ele><time>2026-03-26T06:49:13.999Z</time></trkpt><trkpt lat="45.9284061201215" lon="12.074653378079153"><ele>420.0</ele><time>2026-03-26T06:49:14.999Z</time></trkpt><trkpt lat="45.928473448160446" lon="12.074667332173544"><ele>420.0</ele><time>2026-03-26T06:49:15.999Z</time></trkpt><trkpt lat="45.92853724443179" lon="12.074667614374249"><ele>420.0</ele><time>2026-03-26T06:49:16.999Z</time></trkpt><trkpt lat="45.92865289019363" lon="12.074641494659534"><ele>418.6666666666667</ele><time>2026-03-26T06:49:18.999Z</time></trkpt><trkpt lat="45.92873733584615" lon="12.074618198553953"><ele>417.33333333333337</ele><time>2026-03-26T06:49:20.999Z</time></trkpt><trkpt lat="45.92880916849964" lon="12.074703500276255"><ele>416.0</ele><time>2026-03-26T06:49:22.999Z</time></trkpt><trkpt lat="45.92884931580399" lon="12.074776249175956"><ele>414.6666666666667</ele><time>2026-03-26T06:49:23.999Z</time></trkpt><trkpt lat="45.928908608842136" lon="12.074829415701167"><ele>413.33333333333337</ele><time>2026-03-26T06:49:24.999Z</time></trkpt><trkpt lat="45.928961255447504" lon="12.074901302417812"><ele>412.0</ele><time>2026-03-26T06:49:27.999Z</time></trkpt><trkpt lat="45.92901152045164" lon="12.074993999050042"><ele>412.0</ele><time>2026-03-26T06:50:40Z</time></trkpt><trkpt lat="45.92908364511336" lon="12.075053796168197"><ele>412.0</ele><time>2026-03-26T06:50:42Z</time></trkpt><trkpt lat="45.92917931596509" lon="12.075098001837063"><ele>412.0</ele><time>2026-03-26T06:50:44Z</time></trkpt><trkpt lat="45.92929008821059" lon="12.075113955583543"><ele>412.0</ele><time>2026-03-26T06:50:46Z</time></trkpt><trkpt lat="45.929404820715575" lon="12.075128494442934"><ele>412.0</ele><time>2026-03-26T06:50:48Z</time></trkpt><trkpt lat="45.929487481917675" lon="12.075140677155876"><ele>412.00000000000006</ele><time>2026-03-26T06:50:49.999Z</time></trkpt><trkpt lat="45.929550957409276" lon="12.07515501006811"><ele>412.0</ele><time>2026-03-26T06:50:51.999Z</time></trkpt><trkpt lat="45.92958876380131" lon="12.075244962630789"><ele>412.0</ele><time>2026-03-26T06:50:54.999Z</time></trkpt><trkpt lat="45.92962823882055" lon="12.07534468646887"><ele>412.0</ele><time>2026-03-26T06:50:56.999Z</time></trkpt><trkpt lat="45.929679592376424" lon="12.075446562319614"><ele>412.00000000000006</ele><time>2026-03-26T06:50:58.999Z</time></trkpt><trkpt lat="45.92973469591949" lon="12.075537998733504"><ele>412.0</ele><time>2026-03-26T06:51:00.999Z</time></trkpt><trkpt lat="45.92980235463087" lon="12.075598856058528"><ele>412.00000000000006</ele><time>2026-03-26T06:51:02.999Z</time></trkpt><trkpt lat="45.929861957220474" lon="12.0756509096891"><ele>412.0</ele><time>2026-03-26T06:51:04.999Z</time></trkpt><trkpt lat="45.92994228389072" lon="12.075656994075418"><ele>412.0</ele><time>2026-03-26T06:51:09.999Z</time></trkpt><trkpt lat="45.93000371250184" lon="12.075593521782698"><ele>412.0</ele><time>2026-03-26T06:51:12.999Z</time></trkpt><trkpt lat="45.93003326835518" lon="12.075513088055565"><ele>412.00000000000006</ele><time>2026-03-26T06:51:14.999Z</time></trkpt><trkpt lat="45.930094163566075" lon="12.075401511000338"><ele>412.0</ele><time>2026-03-26T06:51:16.999Z</time></trkpt><trkpt lat="45.9301525311171" lon="12.07529037580372"><ele>409.20000000000005</ele><time>2026-03-26T06:51:17.999Z</time></trkpt><trkpt lat="45.93019653235562" lon="12.075167711783868"><ele>406.4</ele><time>2026-03-26T06:51:19.999Z</time></trkpt><trkpt lat="45.93021397528791" lon="12.075049100322893"><ele>403.6</ele><time>2026-03-26T06:51:21.999Z</time></trkpt><trkpt lat="45.930189163859694" lon="12.074962152111597"><ele>400.79999999999995</ele><time>2026-03-26T06:51:23.999Z</time></trkpt><trkpt lat="45.93011508638474" lon="12.074850149720472"><ele>398.0</ele><time>2026-03-26T06:51:46.999Z</time></trkpt><trkpt lat="45.930030410580976" lon="12.074751036333303"><ele>397.99999999999994</ele><time>2026-03-26T06:51:48.999Z</time></trkpt><trkpt lat="45.929980860883525" lon="12.07469484208965"><ele>398.0</ele><time>2026-03-26T06:51:49.999Z</time></trkpt><trkpt lat="45.929930080943286" lon="12.074639224933728"><ele>398.0</ele><time>2026-03-26T06:51:50.999Z</time></trkpt><trkpt lat="45.92987257958733" lon="12.074564326288233"><ele>398.0</ele><time>2026-03-26T06:51:51.999Z</time></trkpt><trkpt lat="45.92981191837227" lon="12.074503538226512"><ele>398.0</ele><time>2026-03-26T06:51:52.999Z</time></trkpt><trkpt lat="45.929754276734855" lon="12.07444426735134"><ele>397.99999999999994</ele><time>2026-03-26T06:51:53.999Z</time></trkpt><trkpt lat="45.92970271389341" lon="12.074391899669846"><ele>398.0</ele><time>2026-03-26T06:51:54.999Z</time></trkpt><trkpt lat="45.92965016603917" lon="12.074331791939096"><ele>398.0</ele><time>2026-03-26T06:51:55.999Z</time></trkpt><trkpt lat="45.92958892062838" lon="12.074181917452961"><ele>398.0</ele><time>2026-03-26T06:51:58Z</time></trkpt><trkpt lat="45.92957374939588" lon="12.074057062163783"><ele>398.0</ele><time>2026-03-26T06:52:00Z</time></trkpt><trkpt lat="45.92956779193211" lon="12.073931508231944"><ele>398.0</ele><time>2026-03-26T06:52:02Z</time></trkpt><trkpt lat="45.929555272363906" lon="12.073788772099249"><ele>398.0</ele><time>2026-03-26T06:52:04Z</time></trkpt><trkpt lat="45.92952726201479" lon="12.073649406977033"><ele>396.16666666666663</ele><time>2026-03-26T06:52:06Z</time></trkpt><trkpt lat="45.92951002156155" lon="12.073551021154007"><ele>394.3333333333333</ele><time>2026-03-26T06:52:08Z</time></trkpt><trkpt lat="45.92950413530967" lon="12.073449162538424"><ele>392.5</ele><time>2026-03-26T06:52:10Z</time></trkpt><trkpt lat="45.929565721585284" lon="12.073363036191148"><ele>390.66666666666663</ele><time>2026-03-26T06:52:12Z</time></trkpt><trkpt lat="45.92961159345495" lon="12.073251401285813"><ele>388.8333333333333</ele><time>2026-03-26T06:52:14Z</time></trkpt><trkpt lat="45.92962727901538" lon="12.073110127027325"><ele>387.0</ele><time>2026-03-26T06:52:16Z</time></trkpt><trkpt lat="45.92967365039223" lon="12.07302818375023"><ele>386.8</ele><time>2026-03-26T06:52:18Z</time></trkpt><trkpt lat="45.92971274235652" lon="12.07289519922308"><ele>386.6</ele><time>2026-03-26T06:52:20Z</time></trkpt><trkpt lat="45.92978487126524" lon="12.072810087519178"><ele>386.40000000000003</ele><time>2026-03-26T06:52:22Z</time></trkpt><trkpt lat="45.929849127711584" lon="12.072727315445487"><ele>386.20000000000005</ele><time>2026-03-26T06:52:24Z</time></trkpt><trkpt lat="45.92988866294846" lon="12.072617807592813"><ele>386.0</ele><time>2026-03-26T06:52:26Z</time></trkpt><trkpt lat="45.929923003071124" lon="12.072480121651083"><ele>386.8333333333333</ele><time>2026-03-26T06:52:28Z</time></trkpt><trkpt lat="45.92996526855026" lon="12.072402790115396"><ele>387.66666666666663</ele><time>2026-03-26T06:52:29Z</time></trkpt><trkpt lat="45.930047358350784" lon="12.07231433921975"><ele>388.5</ele><time>2026-03-26T06:52:31Z</time></trkpt><trkpt lat="45.9300787772225" lon="12.072218789348632"><ele>389.33333333333337</ele><time>2026-03-26T06:52:36Z</time></trkpt><trkpt lat="45.930186526243574" lon="12.072177521532488"><ele>390.1666666666667</ele><time>2026-03-26T06:52:38Z</time></trkpt><trkpt lat="45.93023070963438" lon="12.072110966938382"><ele>391.0</ele><time>2026-03-26T06:52:40Z</time></trkpt><trkpt lat="45.93029519382711" lon="12.072002470229295"><ele>390.33333333333337</ele><time>2026-03-26T06:52:42Z</time></trkpt><trkpt lat="45.9303064436153" lon="12.0718453039392"><ele>389.6666666666667</ele><time>2026-03-26T06:52:44Z</time></trkpt><trkpt lat="45.93031111470459" lon="12.071729330536659"><ele>389.0</ele><time>2026-03-26T06:52:47Z</time></trkpt><trkpt lat="45.930319727629126" lon="12.071608368673923"><ele>388.33333333333337</ele><time>2026-03-26T06:53:37.999Z</time></trkpt><trkpt lat="45.930325746821005" lon="12.071493041871824"><ele>387.6666666666667</ele><time>2026-03-26T06:53:40.999Z</time></trkpt><trkpt lat="45.93035830641254" lon="12.071409526579762"><ele>387.0</ele><time>2026-03-26T06:53:45.999Z</time></trkpt><trkpt lat="45.93044490989737" lon="12.071366898330272"><ele>387.0</ele><time>2026-03-26T06:53:47.999Z</time></trkpt><trkpt lat="45.93052443886736" lon="12.071285826359645"><ele>387.0</ele><time>2026-03-26T06:53:49.999Z</time></trkpt><trkpt lat="45.93058371298976" lon="12.071149543634188"><ele>387.0</ele><time>2026-03-26T06:53:51.999Z</time></trkpt><trkpt lat="45.930648334997166" lon="12.070980953751206"><ele>387.0</ele><time>2026-03-26T06:53:53.999Z</time></trkpt><trkpt lat="45.93068707615234" lon="12.070885290047164"><ele>387.0</ele><time>2026-03-26T06:53:54.999Z</time></trkpt><trkpt lat="45.930728974568254" lon="12.070791736959235"><ele>388.8333333333333</ele><time>2026-03-26T06:53:55.999Z</time></trkpt><trkpt lat="45.93077010051899" lon="12.07070598873976"><ele>390.66666666666663</ele><time>2026-03-26T06:53:56.999Z</time></trkpt><trkpt lat="45.930812475680916" lon="12.070629172314266"><ele>392.5</ele><time>2026-03-26T06:53:57.999Z</time></trkpt><trkpt lat="45.93092670296167" lon="12.07057359654975"><ele>394.3333333333333</ele><time>2026-03-26T06:53:59.999Z</time></trkpt><trkpt lat="45.930985125610825" lon="12.07060843348636"><ele>396.16666666666663</ele><time>2026-03-26T06:54:00.999Z</time></trkpt><trkpt lat="45.931025655764174" lon="12.070687136976604"><ele>398.0</ele><time>2026-03-26T06:54:01.999Z</time></trkpt><trkpt lat="45.93103153584517" lon="12.070784277182446"><ele>398.0</ele><time>2026-03-26T06:54:02.999Z</time></trkpt><trkpt lat="45.93102482043822" lon="12.070890772713673"><ele>398.0</ele><time>2026-03-26T06:54:04Z</time></trkpt><trkpt lat="45.93101012135408" lon="12.071008984483544"><ele>398.0</ele><time>2026-03-26T06:54:05Z</time></trkpt><trkpt lat="45.93099848817919" lon="12.071155426481699"><ele>398.0</ele><time>2026-03-26T06:54:06Z</time></trkpt><trkpt lat="45.93099073549639" lon="12.071302717819908"><ele>398.0</ele><time>2026-03-26T06:54:07Z</time></trkpt><trkpt lat="45.93098215933095" lon="12.071451911522995"><ele>398.0</ele><time>2026-03-26T06:54:08Z</time></trkpt><trkpt lat="45.93096994199224" lon="12.071606461644867"><ele>398.0</ele><time>2026-03-26T06:54:09Z</time></trkpt><trkpt lat="45.93096193677151" lon="12.071758084461482"><ele>398.0</ele><time>2026-03-26T06:54:10Z</time></trkpt><trkpt lat="45.93096243420763" lon="12.071898027494862"><ele>398.0</ele><time>2026-03-26T06:54:11Z</time></trkpt><trkpt lat="45.93098091639559" lon="12.072031065326833"><ele>398.0</ele><time>2026-03-26T06:54:12Z</time></trkpt><trkpt lat="45.931014240769024" lon="12.072155033099184"><ele>396.0</ele><time>2026-03-26T06:54:13Z</time></trkpt><trkpt lat="45.93107226274546" lon="12.072266669650046"><ele>394.0</ele><time>2026-03-26T06:54:14Z</time></trkpt><trkpt lat="45.931153336624924" lon="12.072357961846958"><ele>392.0</ele><time>2026-03-26T06:54:15Z</time></trkpt><trkpt lat="45.93124360205382" lon="12.07244708071907"><ele>390.0</ele><time>2026-03-26T06:54:16Z</time></trkpt><trkpt lat="45.93133548277974" lon="12.07254491011806"><ele>388.0</ele><time>2026-03-26T06:54:17Z</time></trkpt><trkpt lat="45.93141708220624" lon="12.072663048576853"><ele>386.0</ele><time>2026-03-26T06:54:18Z</time></trkpt><trkpt lat="45.93148109432085" lon="12.072804835470896"><ele>384.0</ele><time>2026-03-26T06:54:19Z</time></trkpt><trkpt lat="45.931523191672554" lon="12.07297493309047"><ele>382.0</ele><time>2026-03-26T06:54:20Z</time></trkpt><trkpt lat="45.931549980813635" lon="12.073168461326825"><ele>380.0</ele><time>2026-03-26T06:54:21Z</time></trkpt><trkpt lat="45.93157493516069" lon="12.073318720685178"><ele>378.0</ele><time>2026-03-26T06:54:22Z</time></trkpt><trkpt lat="45.93161424670003" lon="12.073478215308043"><ele>376.0</ele><time>2026-03-26T06:54:23Z</time></trkpt><trkpt lat="45.93167436025097" lon="12.07362492916707"><ele>374.0</ele><time>2026-03-26T06:54:24Z</time></trkpt><trkpt lat="45.93175151111388" lon="12.073765125453326"><ele>372.0</ele><time>2026-03-26T06:54:25Z</time></trkpt><trkpt lat="45.93185386501041" lon="12.073889487382399"><ele>372.0</ele><time>2026-03-26T06:54:26Z</time></trkpt><trkpt lat="45.93196501179011" lon="12.07400491414222"><ele>372.0</ele><time>2026-03-26T06:54:27Z</time></trkpt><trkpt lat="45.93208207642517" lon="12.074145953896192"><ele>372.0</ele><time>2026-03-26T06:54:28Z</time></trkpt><trkpt lat="45.932181370358336" lon="12.074311960118727"><ele>372.0</ele><time>2026-03-26T06:54:29Z</time></trkpt><trkpt lat="45.93226821717455" lon="12.074494111436305"><ele>366.0</ele><time>2026-03-26T06:54:30Z</time></trkpt><trkpt lat="45.93235396991592" lon="12.074675836531712"><ele>360.0</ele><time>2026-03-26T06:54:31Z</time></trkpt><trkpt lat="45.932451858586404" lon="12.074850100108662"><ele>354.0</ele><time>2026-03-26T06:54:32Z</time></trkpt><trkpt lat="45.93256553292134" lon="12.075012943552952"><ele>353.0</ele><time>2026-03-26T06:54:33Z</time></trkpt><trkpt lat="45.93269055795573" lon="12.075162496298537"><ele>352.0</ele><time>2026-03-26T06:54:34Z</time></trkpt><trkpt lat="45.932821305631286" lon="12.075302113598799"><ele>351.0</ele><time>2026-03-26T06:54:35Z</time></trkpt><trkpt lat="45.93295175535973" lon="12.075451163291197"><ele>351.0</ele><time>2026-03-26T06:54:36Z</time></trkpt><trkpt lat="45.93308278834779" lon="12.075599856895662"><ele>351.0</ele><time>2026-03-26T06:54:37Z</time></trkpt><trkpt lat="45.933214202017325" lon="12.075753496230677"><ele>351.0</ele><time>2026-03-26T06:54:38Z</time></trkpt><trkpt lat="45.93334441034633" lon="12.075907389267824"><ele>351.6666666666667</ele><time>2026-03-26T06:54:39Z</time></trkpt><trkpt lat="45.93347875066393" lon="12.076057173358107"><ele>352.33333333333337</ele><time>2026-03-26T06:54:40Z</time></trkpt><trkpt lat="45.93361425290005" lon="12.076208969821627"><ele>353.0</ele><time>2026-03-26T06:54:41Z</time></trkpt><trkpt lat="45.93375099586824" lon="12.076362400286113"><ele>353.0</ele><time>2026-03-26T06:54:42Z</time></trkpt><trkpt lat="45.93388732347904" lon="12.07651594651884"><ele>353.0</ele><time>2026-03-26T06:54:43Z</time></trkpt><trkpt lat="45.93402263646952" lon="12.076672946036307"><ele>353.0</ele><time>2026-03-26T06:54:44Z</time></trkpt><trkpt lat="45.93415557973332" lon="12.07682888160277"><ele>355.6666666666667</ele><time>2026-03-26T06:54:45Z</time></trkpt><trkpt lat="45.93428724049345" lon="12.076985006038063"><ele>358.3333333333333</ele><time>2026-03-26T06:54:46Z</time></trkpt><trkpt lat="45.93441458434744" lon="12.077153608993283"><ele>361.0</ele><time>2026-03-26T06:54:47Z</time></trkpt><trkpt lat="45.93453920593722" lon="12.077327207958204"><ele>350.3333333333333</ele><time>2026-03-26T06:54:48Z</time></trkpt><trkpt lat="45.93466395757415" lon="12.077503926816355"><ele>339.6666666666667</ele><time>2026-03-26T06:54:49Z</time></trkpt><trkpt lat="45.93478854456206" lon="12.077681221622784"><ele>329.0</ele><time>2026-03-26T06:54:50Z</time></trkpt><trkpt lat="45.93491510521156" lon="12.077855753888755"><ele>329.0</ele><time>2026-03-26T06:54:50.999Z</time></trkpt><trkpt lat="45.93504239857785" lon="12.078032129905388"><ele>329.0</ele><time>2026-03-26T06:54:51.999Z</time></trkpt><trkpt lat="45.93517072842211" lon="12.078207141999945"><ele>329.0</ele><time>2026-03-26T06:54:52.999Z</time></trkpt><trkpt lat="45.93529887339006" lon="12.078384070120476"><ele>328.6666666666667</ele><time>2026-03-26T06:54:53.999Z</time></trkpt><trkpt lat="45.93542793370632" lon="12.078560791988686"><ele>328.3333333333333</ele><time>2026-03-26T06:54:54.999Z</time></trkpt><trkpt lat="45.935556499516665" lon="12.078740631179542"><ele>328.0</ele><time>2026-03-26T06:54:55.999Z</time></trkpt><trkpt lat="45.9356864392889" lon="12.078918980736006"><ele>328.0</ele><time>2026-03-26T06:54:56.999Z</time></trkpt><trkpt lat="45.935816801151226" lon="12.079097257370956"><ele>328.0</ele><time>2026-03-26T06:54:57.999Z</time></trkpt><trkpt lat="45.93594493927105" lon="12.079279413233548"><ele>328.0</ele><time>2026-03-26T06:54:58.999Z</time></trkpt><trkpt lat="45.93607080188503" lon="12.079463102588564"><ele>328.3333333333333</ele><time>2026-03-26T06:54:59.999Z</time></trkpt><trkpt lat="45.9361899362846" lon="12.07965693108741"><ele>328.6666666666667</ele><time>2026-03-26T06:55:00.999Z</time></trkpt><trkpt lat="45.93629617567962" lon="12.079863267541791"><ele>329.0</ele><time>2026-03-26T06:55:01.999Z</time></trkpt><trkpt lat="45.93639443623962" lon="12.080065522737124"><ele>323.0</ele><time>2026-03-26T06:55:02.999Z</time></trkpt><trkpt lat="45.93648694746388" lon="12.080258054273889"><ele>317.0</ele><time>2026-03-26T06:55:03.999Z</time></trkpt><trkpt lat="45.936564461266784" lon="12.080448798214485"><ele>311.0</ele><time>2026-03-26T06:55:04.999Z</time></trkpt><trkpt lat="45.936624881158004" lon="12.080648326423033"><ele>306.33333333333337</ele><time>2026-03-26T06:55:05.999Z</time></trkpt><trkpt lat="45.93667502704284" lon="12.080855418695027"><ele>301.6666666666667</ele><time>2026-03-26T06:55:06.999Z</time></trkpt><trkpt lat="45.93670485106638" lon="12.081068609353405"><ele>297.0</ele><time>2026-03-26T06:55:07.999Z</time></trkpt><trkpt lat="45.93671504267786" lon="12.08127838327298"><ele>297.0</ele><time>2026-03-26T06:55:08.999Z</time></trkpt><trkpt lat="45.93671771183215" lon="12.081480002583378"><ele>297.0</ele><time>2026-03-26T06:55:09.999Z</time></trkpt><trkpt lat="45.93671551538126" lon="12.081672870147546"><ele>297.0</ele><time>2026-03-26T06:55:10.999Z</time></trkpt><trkpt lat="45.936715766089385" lon="12.0818678129903"><ele>297.0</ele><time>2026-03-26T06:55:11.999Z</time></trkpt><trkpt lat="45.93672835893616" lon="12.082061673948507"><ele>296.75</ele><time>2026-03-26T06:55:12.999Z</time></trkpt><trkpt lat="45.93675472276168" lon="12.082251417114984"><ele>296.5</ele><time>2026-03-26T06:55:13.999Z</time></trkpt><trkpt lat="45.93679535084724" lon="12.082435852380282"><ele>296.25</ele><time>2026-03-26T06:55:14.999Z</time></trkpt><trkpt lat="45.93684582191" lon="12.082608317173491"><ele>296.0</ele><time>2026-03-26T06:55:15.999Z</time></trkpt><trkpt lat="45.93690680947438" lon="12.082762901378503"><ele>296.0</ele><time>2026-03-26T06:55:16.999Z</time></trkpt><trkpt lat="45.936975982222926" lon="12.082909579857727"><ele>296.0</ele><time>2026-03-26T06:55:17.999Z</time></trkpt><trkpt lat="45.93704469927175" lon="12.083027148348648"><ele>296.0</ele><time>2026-03-26T06:55:18.999Z</time></trkpt><trkpt lat="45.93710574931215" lon="12.083122506681852"><ele>296.0</ele><time>2026-03-26T06:55:19.999Z</time></trkpt><trkpt lat="45.937154497476804" lon="12.08319403978048"><ele>296.0</ele><time>2026-03-26T06:55:20.999Z</time></trkpt><trkpt lat="45.93719052671537" lon="12.083274804333902"><ele>294.8</ele><time>2026-03-26T06:55:22.999Z</time></trkpt><trkpt lat="45.93724448581405" lon="12.083358254859323"><ele>293.6</ele><time>2026-03-26T06:55:40.999Z</time></trkpt><trkpt lat="45.93728584392458" lon="12.083441570078008"><ele>292.4</ele><time>2026-03-26T06:55:54.999Z</time></trkpt><trkpt lat="45.93733123940721" lon="12.083556740402761"><ele>291.2</ele><time>2026-03-26T06:55:56.999Z</time></trkpt><trkpt lat="45.93740301823505" lon="12.083701023271134"><ele>290.0</ele><time>2026-03-26T06:55:58.999Z</time></trkpt><trkpt lat="45.93748489545065" lon="12.083862542543692"><ele>290.0</ele><time>2026-03-26T06:56:00.999Z</time></trkpt><trkpt lat="45.93752384971557" lon="12.083962849180173"><ele>290.0</ele><time>2026-03-26T06:56:01.999Z</time></trkpt><trkpt lat="45.937553525416064" lon="12.084069766527202"><ele>290.0</ele><time>2026-03-26T06:56:02.999Z</time></trkpt><trkpt lat="45.937592985332515" lon="12.084188160020465"><ele>290.0</ele><time>2026-03-26T06:56:03.999Z</time></trkpt><trkpt lat="45.937638837790665" lon="12.08429885499983"><ele>290.0</ele><time>2026-03-26T06:56:04.999Z</time></trkpt><trkpt lat="45.937697038276546" lon="12.084401010375592"><ele>290.0</ele><time>2026-03-26T06:56:05.999Z</time></trkpt><trkpt lat="45.93775849850139" lon="12.084495174488705"><ele>288.8</ele><time>2026-03-26T06:56:06.999Z</time></trkpt><trkpt lat="45.93782041329898" lon="12.08457935410626"><ele>287.6</ele><time>2026-03-26T06:56:07.999Z</time></trkpt><trkpt lat="45.93790775984249" lon="12.084631500000935"><ele>286.4</ele><time>2026-03-26T06:56:08.999Z</time></trkpt><trkpt lat="45.93800206566247" lon="12.084666090098379"><ele>285.2</ele><time>2026-03-26T06:56:10Z</time></trkpt><trkpt lat="45.9380984704149" lon="12.084683975321573"><ele>284.0</ele><time>2026-03-26T06:56:11Z</time></trkpt><trkpt lat="45.93819313535105" lon="12.084705130258294"><ele>284.0</ele><time>2026-03-26T06:56:12Z</time></trkpt><trkpt lat="45.93828383993356" lon="12.084737160877108"><ele>284.0</ele><time>2026-03-26T06:56:13Z</time></trkpt><trkpt lat="45.93836774564024" lon="12.084771576885906"><ele>284.0</ele><time>2026-03-26T06:56:14Z</time></trkpt><trkpt lat="45.93844479292342" lon="12.084809385438776"><ele>284.0</ele><time>2026-03-26T06:56:15Z</time></trkpt><trkpt lat="45.938506933815376" lon="12.084863015071619"><ele>284.0</ele><time>2026-03-26T06:56:16Z</time></trkpt><trkpt lat="45.938593360021144" lon="12.08495657176104"><ele>284.0</ele><time>2026-03-26T06:56:18Z</time></trkpt><trkpt lat="45.93865070250844" lon="12.0850250760632"><ele>282.83333333333337</ele><time>2026-03-26T06:56:40Z</time></trkpt><trkpt lat="45.9386934221882" lon="12.08510679946125"><ele>281.6666666666667</ele><time>2026-03-26T06:56:43Z</time></trkpt><trkpt lat="45.93874068101045" lon="12.085200179086502"><ele>280.5</ele><time>2026-03-26T06:56:59.999Z</time></trkpt><trkpt lat="45.93879511158884" lon="12.085281559482965"><ele>279.3333333333333</ele><time>2026-03-26T06:57:01.999Z</time></trkpt><trkpt lat="45.93889077421388" lon="12.085411961307159"><ele>278.16666666666663</ele><time>2026-03-26T06:57:03.999Z</time></trkpt><trkpt lat="45.93894348984372" lon="12.085471281094799"><ele>277.0</ele><time>2026-03-26T06:57:04.999Z</time></trkpt><trkpt lat="45.93900827061969" lon="12.085507522721624"><ele>277.0</ele><time>2026-03-26T06:57:06.999Z</time></trkpt><trkpt lat="45.93911587452513" lon="12.085578688093836"><ele>277.0</ele><time>2026-03-26T06:57:33.999Z</time></trkpt><trkpt lat="45.939212549007145" lon="12.085616995906303"><ele>277.0</ele><time>2026-03-26T06:57:35.999Z</time></trkpt><trkpt lat="45.939285126018135" lon="12.085693148004491"><ele>277.0</ele><time>2026-03-26T06:57:58.999Z</time></trkpt><trkpt lat="45.93934739327871" lon="12.085726175032924"><ele>277.0</ele><time>2026-03-26T06:57:59.999Z</time></trkpt><trkpt lat="45.939415950513435" lon="12.085764707064618"><ele>277.0</ele><time>2026-03-26T06:58:00.999Z</time></trkpt><trkpt lat="45.93949079941399" lon="12.085847140741372"><ele>275.4</ele><time>2026-03-26T06:58:02.999Z</time></trkpt><trkpt lat="45.93959002041398" lon="12.085980448356356"><ele>273.79999999999995</ele><time>2026-03-26T06:58:27Z</time></trkpt><trkpt lat="45.93966734310016" lon="12.086027211043726"><ele>272.2</ele><time>2026-03-26T06:58:28Z</time></trkpt><trkpt lat="45.93972898160782" lon="12.086097067049277"><ele>270.59999999999997</ele><time>2026-03-26T06:58:29Z</time></trkpt><trkpt lat="45.939797312231185" lon="12.086163680687417"><ele>269.0</ele><time>2026-03-26T06:58:30Z</time></trkpt><trkpt lat="45.93988276442093" lon="12.086224877633367"><ele>269.0</ele><time>2026-03-26T06:58:31Z</time></trkpt><trkpt lat="45.939961830116985" lon="12.086288651218837"><ele>269.0</ele><time>2026-03-26T06:58:32Z</time></trkpt><trkpt lat="45.94002776532003" lon="12.086396041695133"><ele>269.0</ele><time>2026-03-26T06:58:33Z</time></trkpt><trkpt lat="45.94010424411734" lon="12.086479675414564"><ele>269.0</ele><time>2026-03-26T06:58:34Z</time></trkpt><trkpt lat="45.94017128426685" lon="12.086592087769102"><ele>269.0</ele><time>2026-03-26T06:58:35Z</time></trkpt><trkpt lat="45.9402311238302" lon="12.086723251184619"><ele>268.75</ele><time>2026-03-26T06:58:36Z</time></trkpt><trkpt lat="45.9402871866143" lon="12.086865567022947"><ele>268.5</ele><time>2026-03-26T06:58:37Z</time></trkpt><trkpt lat="45.94033847811029" lon="12.087019573226327"><ele>268.25</ele><time>2026-03-26T06:58:38Z</time></trkpt><trkpt lat="45.94038961082457" lon="12.087168030833752"><ele>268.0</ele><time>2026-03-26T06:58:39Z</time></trkpt><trkpt lat="45.94044893944509" lon="12.087323460622777"><ele>267.25</ele><time>2026-03-26T06:58:40Z</time></trkpt><trkpt lat="45.940514985416186" lon="12.087474005712547"><ele>266.5</ele><time>2026-03-26T06:58:41Z</time></trkpt><trkpt lat="45.94057995248861" lon="12.087618991383867"><ele>265.75</ele><time>2026-03-26T06:58:42Z</time></trkpt><trkpt lat="45.94063968909885" lon="12.087748936620141"><ele>265.0</ele><time>2026-03-26T06:58:43Z</time></trkpt><trkpt lat="45.940693293614984" lon="12.087884064178374"><ele>265.0</ele><time>2026-03-26T06:58:44Z</time></trkpt><trkpt lat="45.94074658363963" lon="12.088021543048203"><ele>265.0</ele><time>2026-03-26T06:58:45Z</time></trkpt><trkpt lat="45.940805128779814" lon="12.088159797828009"><ele>265.0</ele><time>2026-03-26T06:58:46Z</time></trkpt><trkpt lat="45.94087381340718" lon="12.088288706943787"><ele>265.0</ele><time>2026-03-26T06:58:47Z</time></trkpt><trkpt lat="45.940939457983525" lon="12.088404421271457"><ele>265.0</ele><time>2026-03-26T06:58:48Z</time></trkpt><trkpt lat="45.94100278079175" lon="12.088506570101952"><ele>265.2</ele><time>2026-03-26T06:58:49Z</time></trkpt><trkpt lat="45.941039891280106" lon="12.088591839078651"><ele>265.4</ele><time>2026-03-26T06:58:50Z</time></trkpt><trkpt lat="45.94107241562636" lon="12.08868533633199"><ele>265.6</ele><time>2026-03-26T06:58:52Z</time></trkpt><trkpt lat="45.94093528231138" lon="12.088745084381408"><ele>265.8</ele><time>2026-03-26T06:59:16.999Z</time></trkpt><trkpt lat="45.940819203970435" lon="12.088811726636932"><ele>266.0</ele><time>2026-03-26T06:59:18.999Z</time></trkpt><trkpt lat="45.940772618167244" lon="12.088874689416837"><ele>265.40000000000003</ele><time>2026-03-26T06:59:19.999Z</time></trkpt><trkpt lat="45.940727209264686" lon="12.088938999238628"><ele>264.8</ele><time>2026-03-26T06:59:20.999Z</time></trkpt><trkpt lat="45.94064099904016" lon="12.089043153065347"><ele>264.20000000000005</ele><time>2026-03-26T06:59:22.999Z</time></trkpt><trkpt lat="45.94049325647556" lon="12.089238560563317"><ele>263.6</ele><time>2026-03-26T06:59:41.999Z</time></trkpt><trkpt lat="45.94043892846394" lon="12.0893070773152"><ele>263.0</ele><time>2026-03-26T06:59:43.999Z</time></trkpt><trkpt lat="45.94031800275052" lon="12.089432869240124"><ele>262.2</ele><time>2026-03-26T07:00:04.999Z</time></trkpt><trkpt lat="45.94026214665812" lon="12.089490291737778"><ele>261.4</ele><time>2026-03-26T07:00:05.999Z</time></trkpt><trkpt lat="45.94021513706574" lon="12.0895521684074"><ele>260.59999999999997</ele><time>2026-03-26T07:00:06.999Z</time></trkpt><trkpt lat="45.94013848535828" lon="12.089668839403473"><ele>259.8</ele><time>2026-03-26T07:00:08.999Z</time></trkpt><trkpt lat="45.94001530536371" lon="12.089846412085677"><ele>259.0</ele><time>2026-03-26T07:00:28Z</time></trkpt><trkpt lat="45.939962087108405" lon="12.089917801299055"><ele>258.16666666666663</ele><time>2026-03-26T07:00:29Z</time></trkpt><trkpt lat="45.939897511778504" lon="12.08996626749762"><ele>257.3333333333333</ele><time>2026-03-26T07:00:30Z</time></trkpt><trkpt lat="45.93985098233381" lon="12.09006328169246"><ele>256.5</ele><time>2026-03-26T07:00:31Z</time></trkpt><trkpt lat="45.93978688118491" lon="12.090141888224329"><ele>255.66666666666669</ele><time>2026-03-26T07:00:32Z</time></trkpt><trkpt lat="45.93972167548084" lon="12.090216846556329"><ele>254.83333333333334</ele><time>2026-03-26T07:00:33Z</time></trkpt><trkpt lat="45.93965860163724" lon="12.090292239902464"><ele>254.0</ele><time>2026-03-26T07:00:34Z</time></trkpt><trkpt lat="45.93959788030245" lon="12.090362548729585"><ele>254.00000000000003</ele><time>2026-03-26T07:00:35Z</time></trkpt><trkpt lat="45.93951092881558" lon="12.09045691572014"><ele>254.0</ele><time>2026-03-26T07:00:37Z</time></trkpt><trkpt lat="45.939446354313354" lon="12.090490556810462"><ele>254.0</ele><time>2026-03-26T07:00:39Z</time></trkpt><trkpt lat="45.93935390506626" lon="12.09057628571454"><ele>254.0</ele><time>2026-03-26T07:00:42Z</time></trkpt><trkpt lat="45.93929175463794" lon="12.090606300606078"><ele>254.00000000000003</ele><time>2026-03-26T07:00:43Z</time></trkpt><trkpt lat="45.93923168399451" lon="12.090633677879662"><ele>254.0</ele><time>2026-03-26T07:00:44Z</time></trkpt><trkpt lat="45.93911512649482" lon="12.090693534781517"><ele>253.25</ele><time>2026-03-26T07:00:46Z</time></trkpt><trkpt lat="45.93902205129707" lon="12.090746801906386"><ele>252.5</ele><time>2026-03-26T07:00:48Z</time></trkpt><trkpt lat="45.93904677173214" lon="12.090943364945899"><ele>251.75</ele><time>2026-03-26T07:00:50Z</time></trkpt><trkpt lat="45.939110373506" lon="12.09106286858431"><ele>251.0</ele><time>2026-03-26T07:00:52Z</time></trkpt><trkpt lat="45.93918955647651" lon="12.091187241743155"><ele>250.57142857142856</ele><time>2026-03-26T07:00:54Z</time></trkpt><trkpt lat="45.93922814221074" lon="12.091259717202357"><ele>250.14285714285714</ele><time>2026-03-26T07:00:55Z</time></trkpt><trkpt lat="45.93926932828172" lon="12.091341808640284"><ele>249.71428571428572</ele><time>2026-03-26T07:00:56Z</time></trkpt><trkpt lat="45.93931904393767" lon="12.091427646650256"><ele>249.28571428571428</ele><time>2026-03-26T07:00:56.999Z</time></trkpt><trkpt lat="45.939359264267594" lon="12.091506914686091"><ele>248.8571428571429</ele><time>2026-03-26T07:00:57.999Z</time></trkpt><trkpt lat="45.93941264796703" lon="12.091579424718692"><ele>248.42857142857144</ele><time>2026-03-26T07:00:58.999Z</time></trkpt><trkpt lat="45.93945962445088" lon="12.09165626520848"><ele>248.0</ele><time>2026-03-26T07:00:59.999Z</time></trkpt><trkpt lat="45.93950158732229" lon="12.091736969405956"><ele>247.50000000000003</ele><time>2026-03-26T07:01:00.999Z</time></trkpt><trkpt lat="45.93954372425614" lon="12.091819141118476"><ele>247.0</ele><time>2026-03-26T07:01:01.999Z</time></trkpt><trkpt lat="45.93959326372799" lon="12.091950616015708"><ele>246.5</ele><time>2026-03-26T07:01:03.999Z</time></trkpt><trkpt lat="45.93953196135411" lon="12.092032033600344"><ele>246.0</ele><time>2026-03-26T07:01:05.999Z</time></trkpt><trkpt lat="45.93946657185421" lon="12.092082135657948"><ele>245.50000000000003</ele><time>2026-03-26T07:01:07.999Z</time></trkpt><trkpt lat="45.939403264900044" lon="12.09215629077598"><ele>245.0</ele><time>2026-03-26T07:01:09.999Z</time></trkpt><trkpt lat="45.93932640844995" lon="12.09224631713826"><ele>245.00000000000003</ele><time>2026-03-26T07:01:11.999Z</time></trkpt><trkpt lat="45.93927199794823" lon="12.092310051327415"><ele>245.0</ele><time>2026-03-26T07:01:13.999Z</time></trkpt><trkpt lat="45.939367060378544" lon="12.092252609585325"><ele>245.0</ele><time>2026-03-26T07:01:34.999Z</time></trkpt><trkpt lat="45.93943820238882" lon="12.09216650719752"><ele>245.0</ele><time>2026-03-26T07:01:36.999Z</time></trkpt><trkpt lat="45.93951771040474" lon="12.09207451388923"><ele>245.00000000000003</ele><time>2026-03-26T07:01:38.999Z</time></trkpt><trkpt lat="45.939572949589774" lon="12.091997543857053"><ele>245.0</ele><time>2026-03-26T07:01:40.999Z</time></trkpt><trkpt lat="45.93961532269634" lon="12.09190632330957"><ele>245.00000000000003</ele><time>2026-03-26T07:01:42.999Z</time></trkpt><trkpt lat="45.93956240799737" lon="12.091774516615038"><ele>245.0</ele><time>2026-03-26T07:01:44.999Z</time></trkpt><trkpt lat="45.93951059847277" lon="12.09170521401845"><ele>245.0</ele><time>2026-03-26T07:01:45.999Z</time></trkpt><trkpt lat="45.939434396136186" lon="12.091577140808331"><ele>245.0</ele><time>2026-03-26T07:01:47.999Z</time></trkpt><trkpt lat="45.93939328461232" lon="12.091495225570126"><ele>245.00000000000003</ele><time>2026-03-26T07:01:48.999Z</time></trkpt><trkpt lat="45.93934873405718" lon="12.091411954636182"><ele>245.0</ele><time>2026-03-26T07:01:49.999Z</time></trkpt><trkpt lat="45.9393002556462" lon="12.091332691079776"><ele>245.50000000000003</ele><time>2026-03-26T07:01:50.999Z</time></trkpt><trkpt lat="45.93925103283776" lon="12.091252510903754"><ele>246.0</ele><time>2026-03-26T07:01:51.999Z</time></trkpt><trkpt lat="45.93919823268256" lon="12.09116756274565"><ele>246.5</ele><time>2026-03-26T07:01:52.999Z</time></trkpt><trkpt lat="45.93914931607814" lon="12.091075390998116"><ele>247.0</ele><time>2026-03-26T07:01:53.999Z</time></trkpt><trkpt lat="45.939107194610465" lon="12.090993812392721"><ele>247.50000000000003</ele><time>2026-03-26T07:01:54.999Z</time></trkpt><trkpt lat="45.93906454282134" lon="12.09086096074781"><ele>248.0</ele><time>2026-03-26T07:01:56.999Z</time></trkpt><trkpt lat="45.93912340816093" lon="12.090713673608626"><ele>249.2</ele><time>2026-03-26T07:01:59.999Z</time></trkpt><trkpt lat="45.93925111830582" lon="12.090657958940254"><ele>250.4</ele><time>2026-03-26T07:02:01.999Z</time></trkpt><trkpt lat="45.93932577779024" lon="12.090624950646683"><ele>251.59999999999997</ele><time>2026-03-26T07:02:02.999Z</time></trkpt><trkpt lat="45.9393907282273" lon="12.090590647446346"><ele>252.79999999999998</ele><time>2026-03-26T07:02:03.999Z</time></trkpt><trkpt lat="45.939476514025486" lon="12.090555641658963"><ele>254.0</ele><time>2026-03-26T07:02:05.999Z</time></trkpt><trkpt lat="45.939540629259604" lon="12.090677444299525"><ele>252.79999999999998</ele><time>2026-03-26T07:02:07.999Z</time></trkpt><trkpt lat="45.939608171270905" lon="12.090836003221096"><ele>251.59999999999997</ele><time>2026-03-26T07:02:09.999Z</time></trkpt><trkpt lat="45.939645966686115" lon="12.090908836263957"><ele>250.4</ele><time>2026-03-26T07:02:10.999Z</time></trkpt><trkpt lat="45.93969699923192" lon="12.091005164193321"><ele>249.2</ele><time>2026-03-26T07:02:11.999Z</time></trkpt><trkpt lat="45.939755022405414" lon="12.09110549138412"><ele>248.0</ele><time>2026-03-26T07:02:12.999Z</time></trkpt><trkpt lat="45.93982024475697" lon="12.09121766011855"><ele>248.0</ele><time>2026-03-26T07:02:13.999Z</time></trkpt><trkpt lat="45.939886093968994" lon="12.091331411875148"><ele>248.0</ele><time>2026-03-26T07:02:14.999Z</time></trkpt><trkpt lat="45.93994996432721" lon="12.091442368208224"><ele>248.0</ele><time>2026-03-26T07:02:15.999Z</time></trkpt><trkpt lat="45.94001103511212" lon="12.091552097835871"><ele>248.0</ele><time>2026-03-26T07:02:16.999Z</time></trkpt><trkpt lat="45.94006882253682" lon="12.091641200329114"><ele>248.0</ele><time>2026-03-26T07:02:17.999Z</time></trkpt><trkpt lat="45.940117125638366" lon="12.09172042767467"><ele>248.33333333333334</ele><time>2026-03-26T07:02:18.999Z</time></trkpt><trkpt lat="45.940176118182876" lon="12.091825126215337"><ele>248.66666666666669</ele><time>2026-03-26T07:02:20.999Z</time></trkpt><trkpt lat="45.94019971383181" lon="12.091939405037852"><ele>249.0</ele><time>2026-03-26T07:02:34Z</time></trkpt><trkpt lat="45.940072376322846" lon="12.091992219687382"><ele>249.33333333333331</ele><time>2026-03-26T07:02:35Z</time></trkpt><trkpt lat="45.94002297997996" lon="12.092053743615383"><ele>249.66666666666666</ele><time>2026-03-26T07:02:37Z</time></trkpt><trkpt lat="45.940083567766706" lon="12.09208710470819"><ele>250.0</ele><time>2026-03-26T07:02:49Z</time></trkpt><trkpt lat="45.940125236996735" lon="12.092169386512444"><ele>249.99999999999997</ele><time>2026-03-26T07:02:56Z</time></trkpt><trkpt lat="45.940140297364316" lon="12.092278058507214"><ele>250.0</ele><time>2026-03-26T07:03:41.999Z</time></trkpt><trkpt lat="45.94008267128356" lon="12.092214740702595"><ele>250.0</ele><time>2026-03-26T07:05:36.999Z</time></trkpt><trkpt lat="45.94015617245643" lon="12.092268633999298"><ele>250.0</ele><time>2026-03-26T07:05:46.999Z</time></trkpt><trkpt lat="45.94012971762653" lon="12.09216293113387"><ele>249.99999999999997</ele><time>2026-03-26T07:06:04.999Z</time></trkpt><trkpt lat="45.94009708207206" lon="12.092085483110862"><ele>250.0</ele><time>2026-03-26T07:06:09.999Z</time></trkpt><trkpt lat="45.940032781600955" lon="12.092023914603653"><ele>249.16666666666666</ele><time>2026-03-26T07:06:17.999Z</time></trkpt><trkpt lat="45.93995568981243" lon="12.09208315916121"><ele>248.33333333333331</ele><time>2026-03-26T07:06:19.999Z</time></trkpt><trkpt lat="45.93987564202354" lon="12.09217798368258"><ele>247.5</ele><time>2026-03-26T07:06:21.999Z</time></trkpt><trkpt lat="45.93981963803683" lon="12.092237952663757"><ele>246.66666666666669</ele><time>2026-03-26T07:06:22.999Z</time></trkpt><trkpt lat="45.93976270941024" lon="12.092285641046297"><ele>245.83333333333334</ele><time>2026-03-26T07:06:23.999Z</time></trkpt><trkpt lat="45.939700031370705" lon="12.09234177739689"><ele>245.0</ele><time>2026-03-26T07:06:24.999Z</time></trkpt><trkpt lat="45.93962414996836" lon="12.092409148391571"><ele>245.0</ele><time>2026-03-26T07:06:25.999Z</time></trkpt><trkpt lat="45.93954057102033" lon="12.092486886775774"><ele>245.0</ele><time>2026-03-26T07:06:26.999Z</time></trkpt><trkpt lat="45.93945202781437" lon="12.092568916797315"><ele>245.0</ele><time>2026-03-26T07:06:27.999Z</time></trkpt><trkpt lat="45.939365066898404" lon="12.0926460632404"><ele>245.0</ele><time>2026-03-26T07:06:28.999Z</time></trkpt><trkpt lat="45.93927340935996" lon="12.092730062624012"><ele>245.0</ele><time>2026-03-26T07:06:29.999Z</time></trkpt><trkpt lat="45.939176259283954" lon="12.092820114185216"><ele>244.5</ele><time>2026-03-26T07:06:30.999Z</time></trkpt><trkpt lat="45.93907488832191" lon="12.092919766307205"><ele>244.0</ele><time>2026-03-26T07:06:31.999Z</time></trkpt><trkpt lat="45.93896785973257" lon="12.093026478153062"><ele>243.5</ele><time>2026-03-26T07:06:32.999Z</time></trkpt><trkpt lat="45.93886126599005" lon="12.093134827034996"><ele>243.0</ele><time>2026-03-26T07:06:33.999Z</time></trkpt><trkpt lat="45.938757067370574" lon="12.093250428784048"><ele>242.25</ele><time>2026-03-26T07:06:34.998Z</time></trkpt><trkpt lat="45.938650335678005" lon="12.093369724687797"><ele>241.5</ele><time>2026-03-26T07:06:35.998Z</time></trkpt><trkpt lat="45.9385405616304" lon="12.093494314524916"><ele>240.75</ele><time>2026-03-26T07:06:36.998Z</time></trkpt><trkpt lat="45.93842636913956" lon="12.093623551555527"><ele>240.0</ele><time>2026-03-26T07:06:37.998Z</time></trkpt><trkpt lat="45.93832026377127" lon="12.093770034765837"><ele>239.0</ele><time>2026-03-26T07:06:38.998Z</time></trkpt><trkpt lat="45.93822301119705" lon="12.093927571445697"><ele>238.0</ele><time>2026-03-26T07:06:40Z</time></trkpt><trkpt lat="45.93812986734739" lon="12.094088641890648"><ele>237.0</ele><time>2026-03-26T07:06:41Z</time></trkpt><trkpt lat="45.93803813173227" lon="12.094250997378381"><ele>236.0</ele><time>2026-03-26T07:06:42Z</time></trkpt><trkpt lat="45.93794828016814" lon="12.094412833022046"><ele>235.5</ele><time>2026-03-26T07:06:43Z</time></trkpt><trkpt lat="45.9378602419452" lon="12.094578713835316"><ele>235.0</ele><time>2026-03-26T07:06:44Z</time></trkpt><trkpt lat="45.9377681314295" lon="12.094739668392736"><ele>234.5</ele><time>2026-03-26T07:06:45Z</time></trkpt><trkpt lat="45.93767998345231" lon="12.094892999946547"><ele>234.0</ele><time>2026-03-26T07:06:46Z</time></trkpt><trkpt lat="45.937595145916795" lon="12.09505205746346"><ele>234.25</ele><time>2026-03-26T07:06:47Z</time></trkpt><trkpt lat="45.93752027597586" lon="12.095219837404642"><ele>234.5</ele><time>2026-03-26T07:06:48Z</time></trkpt><trkpt lat="45.937451959758434" lon="12.095402794084588"><ele>234.75</ele><time>2026-03-26T07:06:49Z</time></trkpt><trkpt lat="45.93739172738297" lon="12.0955987030322"><ele>235.0</ele><time>2026-03-26T07:06:50Z</time></trkpt><trkpt lat="45.93733186604693" lon="12.09579735743287"><ele>235.0</ele><time>2026-03-26T07:06:51Z</time></trkpt><trkpt lat="45.93726843936109" lon="12.09598908014471"><ele>235.0</ele><time>2026-03-26T07:06:52Z</time></trkpt><trkpt lat="45.937194532656946" lon="12.096180914595902"><ele>235.0</ele><time>2026-03-26T07:06:53Z</time></trkpt><trkpt lat="45.93710635568809" lon="12.096357604271322"><ele>235.0</ele><time>2026-03-26T07:06:54Z</time></trkpt><trkpt lat="45.93700519765106" lon="12.096517513369507"><ele>235.0</ele><time>2026-03-26T07:06:55Z</time></trkpt><trkpt lat="45.936893753379245" lon="12.096648781359168"><ele>235.0</ele><time>2026-03-26T07:06:56Z</time></trkpt><trkpt lat="45.93677608643654" lon="12.096742843927366"><ele>235.0</ele><time>2026-03-26T07:06:57Z</time></trkpt><trkpt lat="45.93665559443772" lon="12.096813915304297"><ele>235.25</ele><time>2026-03-26T07:06:58Z</time></trkpt><trkpt lat="45.93653621215126" lon="12.09686406716844"><ele>235.5</ele><time>2026-03-26T07:06:58.999Z</time></trkpt><trkpt lat="45.93642153647798" lon="12.096913330719179"><ele>235.75</ele><time>2026-03-26T07:06:59.999Z</time></trkpt><trkpt lat="45.93631516741859" lon="12.096960591917512"><ele>236.0</ele><time>2026-03-26T07:07:00.999Z</time></trkpt><trkpt lat="45.936219369457696" lon="12.097020101389647"><ele>236.0</ele><time>2026-03-26T07:07:01.999Z</time></trkpt><trkpt lat="45.93613700656741" lon="12.097079104003974"><ele>236.00000000000003</ele><time>2026-03-26T07:07:02.999Z</time></trkpt><trkpt lat="45.93607476655302" lon="12.097129383239285"><ele>236.00000000000003</ele><time>2026-03-26T07:07:03.999Z</time></trkpt><trkpt lat="45.93597273668058" lon="12.09716858753653"><ele>236.0</ele><time>2026-03-26T07:07:05.999Z</time></trkpt><trkpt lat="45.93586859784738" lon="12.097078195190802"><ele>236.0</ele><time>2026-03-26T07:07:07.999Z</time></trkpt><trkpt lat="45.93579591488874" lon="12.097005823432449"><ele>236.16666666666669</ele><time>2026-03-26T07:07:09.999Z</time></trkpt><trkpt lat="45.93572968435028" lon="12.096978220755988"><ele>236.33333333333334</ele><time>2026-03-26T07:07:11.999Z</time></trkpt><trkpt lat="45.93566060681724" lon="12.096943813876196"><ele>236.5</ele><time>2026-03-26T07:07:39.999Z</time></trkpt><trkpt lat="45.93568420147823" lon="12.096756696772667"><ele>236.66666666666669</ele><time>2026-03-26T07:07:59.999Z</time></trkpt><trkpt lat="45.93564917277638" lon="12.096831988190301"><ele>236.83333333333334</ele><time>2026-03-26T07:09:01Z</time></trkpt><trkpt lat="45.935669706400276" lon="12.096923112721676"><ele>237.0</ele><time>2026-03-26T07:11:20Z</time></trkpt><trkpt lat="45.93573193756824" lon="12.097004541126426"><ele>237.0</ele><time>2026-03-26T07:11:25Z</time></trkpt><trkpt lat="45.93581766337227" lon="12.097061932126037"><ele>237.0</ele><time>2026-03-26T07:11:27Z</time></trkpt><trkpt lat="45.935893178497466" lon="12.097125077117225"><ele>237.0</ele><time>2026-03-26T07:11:29Z</time></trkpt><trkpt lat="45.935947757506206" lon="12.097207770143594"><ele>237.0</ele><time>2026-03-26T07:11:32Z</time></trkpt><trkpt lat="45.93587002961081" lon="12.097397889758218"><ele>237.0</ele><time>2026-03-26T07:11:43Z</time></trkpt><trkpt lat="45.93578150963336" lon="12.0974978821261"><ele>236.6</ele><time>2026-03-26T07:11:45Z</time></trkpt><trkpt lat="45.93569031471443" lon="12.097614957045908"><ele>236.2</ele><time>2026-03-26T07:11:47Z</time></trkpt><trkpt lat="45.935634662531164" lon="12.097688883729486"><ele>235.8</ele><time>2026-03-26T07:11:48Z</time></trkpt><trkpt lat="45.935574512326866" lon="12.097768568099266"><ele>235.4</ele><time>2026-03-26T07:11:49Z</time></trkpt><trkpt lat="45.9355099669083" lon="12.097854947170408"><ele>235.0</ele><time>2026-03-26T07:11:50Z</time></trkpt><trkpt lat="45.93544228664671" lon="12.097941415978246"><ele>235.0</ele><time>2026-03-26T07:11:51Z</time></trkpt><trkpt lat="45.93537360123019" lon="12.098030783317897"><ele>235.0</ele><time>2026-03-26T07:11:52Z</time></trkpt><trkpt lat="45.93530661294714" lon="12.098120086408235"><ele>235.0</ele><time>2026-03-26T07:11:53Z</time></trkpt><trkpt lat="45.935237360907664" lon="12.098208747633652"><ele>235.0</ele><time>2026-03-26T07:11:54Z</time></trkpt><trkpt lat="45.93516315708929" lon="12.098304440345082"><ele>235.0</ele><time>2026-03-26T07:11:55Z</time></trkpt><trkpt lat="45.93508400620105" lon="12.098404901891557"><ele>233.0</ele><time>2026-03-26T07:11:56Z</time></trkpt><trkpt lat="45.93500475695504" lon="12.098510900011371"><ele>231.0</ele><time>2026-03-26T07:11:57Z</time></trkpt><trkpt lat="45.934926406271316" lon="12.098611976503776"><ele>229.0</ele><time>2026-03-26T07:11:58Z</time></trkpt><trkpt lat="45.93485501784193" lon="12.098711357977406"><ele>227.0</ele><time>2026-03-26T07:11:59Z</time></trkpt><trkpt lat="45.934788038055785" lon="12.098801594720605"><ele>225.0</ele><time>2026-03-26T07:12:00Z</time></trkpt><trkpt lat="45.93472481676444" lon="12.098883175093293"><ele>225.0</ele><time>2026-03-26T07:12:01Z</time></trkpt><trkpt lat="45.93466433385786" lon="12.09896809472703"><ele>225.0</ele><time>2026-03-26T07:12:02Z</time></trkpt><trkpt lat="45.93461190813712" lon="12.099065987947405"><ele>225.0</ele><time>2026-03-26T07:12:03Z</time></trkpt><trkpt lat="45.93455332164715" lon="12.099171405541268"><ele>225.0</ele><time>2026-03-26T07:12:04Z</time></trkpt><trkpt lat="45.93450093168888" lon="12.099295527813073"><ele>225.0</ele><time>2026-03-26T07:12:05Z</time></trkpt><trkpt lat="45.934449154963474" lon="12.099426830966278"><ele>225.75</ele><time>2026-03-26T07:12:06Z</time></trkpt><trkpt lat="45.93439186866095" lon="12.099558636879673"><ele>226.5</ele><time>2026-03-26T07:12:07Z</time></trkpt><trkpt lat="45.93433851909921" lon="12.09970065629851"><ele>227.25</ele><time>2026-03-26T07:12:08Z</time></trkpt><trkpt lat="45.934285799369626" lon="12.099846712698078"><ele>228.0</ele><time>2026-03-26T07:12:09Z</time></trkpt><trkpt lat="45.93422890453054" lon="12.099995426230699"><ele>226.25</ele><time>2026-03-26T07:12:10Z</time></trkpt><trkpt lat="45.934166759663604" lon="12.100144093694812"><ele>224.5</ele><time>2026-03-26T07:12:11Z</time></trkpt><trkpt lat="45.934109092919826" lon="12.100303835660483"><ele>222.75</ele><time>2026-03-26T07:12:12Z</time></trkpt><trkpt lat="45.93405091351569" lon="12.100460434457538"><ele>221.0</ele><time>2026-03-26T07:12:13Z</time></trkpt><trkpt lat="45.93399878045415" lon="12.100595496582185"><ele>221.0</ele><time>2026-03-26T07:12:14Z</time></trkpt><trkpt lat="45.933953503829706" lon="12.100714212114612"><ele>221.00000000000003</ele><time>2026-03-26T07:12:15Z</time></trkpt><trkpt lat="45.933915165092984" lon="12.100809704657655"><ele>221.00000000000003</ele><time>2026-03-26T07:12:16Z</time></trkpt><trkpt lat="45.93385728215094" lon="12.100953290310786"><ele>221.0</ele><time>2026-03-26T07:12:18Z</time></trkpt><trkpt lat="45.93379748633337" lon="12.101116014139246"><ele>221.0</ele><time>2026-03-26T07:12:20Z</time></trkpt><trkpt lat="45.93376247366823" lon="12.101207635417861"><ele>221.8</ele><time>2026-03-26T07:12:21Z</time></trkpt><trkpt lat="45.93372594770475" lon="12.101302512484619"><ele>222.60000000000002</ele><time>2026-03-26T07:12:22Z</time></trkpt><trkpt lat="45.93369000815327" lon="12.101393243573643"><ele>223.4</ele><time>2026-03-26T07:12:23Z</time></trkpt><trkpt lat="45.9336358033287" lon="12.101524661598024"><ele>224.2</ele><time>2026-03-26T07:12:25Z</time></trkpt><trkpt lat="45.93357519786622" lon="12.101656008058299"><ele>225.0</ele><time>2026-03-26T07:12:27Z</time></trkpt><trkpt lat="45.93351625997799" lon="12.10177413852741"><ele>225.4</ele><time>2026-03-26T07:12:29Z</time></trkpt><trkpt lat="45.93344386849587" lon="12.101907410490647"><ele>225.8</ele><time>2026-03-26T07:12:31Z</time></trkpt><trkpt lat="45.933360827743414" lon="12.102033239672796"><ele>226.2</ele><time>2026-03-26T07:12:33Z</time></trkpt><trkpt lat="45.93331287483254" lon="12.102103005096982"><ele>226.6</ele><time>2026-03-26T07:12:33.999Z</time></trkpt><trkpt lat="45.93322935342713" lon="12.102220196222252"><ele>227.0</ele><time>2026-03-26T07:12:35.999Z</time></trkpt><trkpt lat="45.933162968685494" lon="12.102284354111728"><ele>224.0</ele><time>2026-03-26T07:12:59Z</time></trkpt><trkpt lat="45.93309240040456" lon="12.102384087202262"><ele>221.0</ele><time>2026-03-26T07:13:01Z</time></trkpt><trkpt lat="45.9330032131232" lon="12.102497557063064"><ele>218.0</ele><time>2026-03-26T07:13:03Z</time></trkpt><trkpt lat="45.9329090652028" lon="12.102624209725592"><ele>215.0</ele><time>2026-03-26T07:13:05Z</time></trkpt><trkpt lat="45.93285585369672" lon="12.102695472337254"><ele>212.0</ele><time>2026-03-26T07:13:06Z</time></trkpt><trkpt lat="45.93280340113889" lon="12.102766232810756"><ele>211.71428571428572</ele><time>2026-03-26T07:13:07Z</time></trkpt><trkpt lat="45.932746888619064" lon="12.102838780859782"><ele>211.42857142857142</ele><time>2026-03-26T07:13:08Z</time></trkpt><trkpt lat="45.93269076663267" lon="12.102910853045051"><ele>211.14285714285714</ele><time>2026-03-26T07:13:09Z</time></trkpt><trkpt lat="45.932637854058704" lon="12.102974270379486"><ele>210.85714285714286</ele><time>2026-03-26T07:13:10Z</time></trkpt><trkpt lat="45.9325827196153" lon="12.10304115689978"><ele>210.57142857142856</ele><time>2026-03-26T07:13:11Z</time></trkpt><trkpt lat="45.93252443643373" lon="12.10310965344643"><ele>210.28571428571428</ele><time>2026-03-26T07:13:12Z</time></trkpt><trkpt lat="45.932465113588975" lon="12.103185007466413"><ele>210.0</ele><time>2026-03-26T07:13:13Z</time></trkpt><trkpt lat="45.9324041786461" lon="12.103264713377136"><ele>209.5</ele><time>2026-03-26T07:13:14Z</time></trkpt><trkpt lat="45.93235298874031" lon="12.103344614943843"><ele>209.0</ele><time>2026-03-26T07:13:15Z</time></trkpt><trkpt lat="45.93230341299394" lon="12.10341447069349"><ele>208.5</ele><time>2026-03-26T07:13:16Z</time></trkpt><trkpt lat="45.93226067109429" lon="12.103485353230463"><ele>208.0</ele><time>2026-03-26T07:13:17Z</time></trkpt><trkpt lat="45.93220203982885" lon="12.103577505101326"><ele>207.5</ele><time>2026-03-26T07:13:19Z</time></trkpt><trkpt lat="45.93214768808616" lon="12.103695962208183"><ele>207.0</ele><time>2026-03-26T07:13:38Z</time></trkpt><trkpt lat="45.93210503300688" lon="12.103766017976051"><ele>207.00000000000003</ele><time>2026-03-26T07:13:39Z</time></trkpt><trkpt lat="45.93206298412074" lon="12.103837550894735"><ele>207.0</ele><time>2026-03-26T07:13:40Z</time></trkpt><trkpt lat="45.93201830380701" lon="12.103909514607897"><ele>207.0</ele><time>2026-03-26T07:13:41Z</time></trkpt><trkpt lat="45.931968691062636" lon="12.103994261712481"><ele>207.0</ele><time>2026-03-26T07:13:42Z</time></trkpt><trkpt lat="45.931922864305484" lon="12.10407738951499"><ele>207.0</ele><time>2026-03-26T07:13:43Z</time></trkpt><trkpt lat="45.931878179642915" lon="12.104160994347856"><ele>207.00000000000003</ele><time>2026-03-26T07:13:44Z</time></trkpt><trkpt lat="45.931830933744045" lon="12.104241322604896"><ele>207.0</ele><time>2026-03-26T07:13:45Z</time></trkpt><trkpt lat="45.931790071484194" lon="12.104314636679621"><ele>207.2</ele><time>2026-03-26T07:13:46Z</time></trkpt><trkpt lat="45.9317457292511" lon="12.104397769389445"><ele>207.39999999999998</ele><time>2026-03-26T07:13:48Z</time></trkpt><trkpt lat="45.931689320399194" lon="12.104461389372842"><ele>207.60000000000002</ele><time>2026-03-26T07:14:25Z</time></trkpt><trkpt lat="45.93162626249409" lon="12.104564561195051"><ele>207.8</ele><time>2026-03-26T07:14:48.999Z</time></trkpt><trkpt lat="45.93156953598253" lon="12.104680618864249"><ele>208.0</ele><time>2026-03-26T07:14:50.999Z</time></trkpt><trkpt lat="45.93150592854935" lon="12.104814048770013"><ele>207.0</ele><time>2026-03-26T07:14:52.999Z</time></trkpt><trkpt lat="45.931427712055815" lon="12.104956237587933"><ele>206.0</ele><time>2026-03-26T07:14:54.999Z</time></trkpt><trkpt lat="45.93134481572424" lon="12.10509617719475"><ele>205.0</ele><time>2026-03-26T07:14:56.999Z</time></trkpt><trkpt lat="45.931296360626895" lon="12.105187649954912"><ele>204.0</ele><time>2026-03-26T07:14:57.999Z</time></trkpt><trkpt lat="45.931246790074084" lon="12.105277369253765"><ele>203.0</ele><time>2026-03-26T07:14:58.999Z</time></trkpt><trkpt lat="45.93119980896731" lon="12.105365039400809"><ele>203.0</ele><time>2026-03-26T07:14:59.999Z</time></trkpt><trkpt lat="45.931159900475876" lon="12.10544403948417"><ele>203.0</ele><time>2026-03-26T07:15:00.999Z</time></trkpt><trkpt lat="45.93109790106705" lon="12.105568701755853"><ele>203.0</ele><time>2026-03-26T07:15:03Z</time></trkpt><trkpt lat="45.93106306913246" lon="12.105679577193369"><ele>203.0</ele><time>2026-03-26T07:15:05Z</time></trkpt><trkpt lat="45.93112391498484" lon="12.105763302277825"><ele>203.0</ele><time>2026-03-26T07:15:07Z</time></trkpt><trkpt lat="45.931229357520124" lon="12.105837984012544"><ele>202.66666666666669</ele><time>2026-03-26T07:15:09Z</time></trkpt><trkpt lat="45.93132034553587" lon="12.105938505005986"><ele>202.33333333333334</ele><time>2026-03-26T07:15:11Z</time></trkpt><trkpt lat="45.93134672988059" lon="12.10602139071733"><ele>202.0</ele><time>2026-03-26T07:15:12Z</time></trkpt><trkpt lat="45.931402968081" lon="12.106182968746356"><ele>201.66666666666669</ele><time>2026-03-26T07:15:14Z</time></trkpt><trkpt lat="45.931423582147275" lon="12.106268552600602"><ele>201.33333333333334</ele><time>2026-03-26T07:15:15Z</time></trkpt><trkpt lat="45.931441243285086" lon="12.106363960260664"><ele>201.0</ele><time>2026-03-26T07:15:16Z</time></trkpt><trkpt lat="45.931485212941936" lon="12.106514731527525"><ele>201.0</ele><time>2026-03-26T07:15:18Z</time></trkpt><trkpt lat="45.93160951944897" lon="12.106577881052983"><ele>201.0</ele><time>2026-03-26T07:15:20Z</time></trkpt><trkpt lat="45.93168932110218" lon="12.106552718425231"><ele>201.0</ele><time>2026-03-26T07:15:21Z</time></trkpt><trkpt lat="45.931773245512964" lon="12.1065128606098"><ele>201.0</ele><time>2026-03-26T07:15:22Z</time></trkpt><trkpt lat="45.931844955463305" lon="12.106489220462958"><ele>201.0</ele><time>2026-03-26T07:15:23Z</time></trkpt><trkpt lat="45.93191139519429" lon="12.106470087982968"><ele>201.0</ele><time>2026-03-26T07:15:24Z</time></trkpt><trkpt lat="45.931996351264225" lon="12.106346205835507"><ele>201.83333333333334</ele><time>2026-03-26T07:15:26Z</time></trkpt><trkpt lat="45.932013506263345" lon="12.106249451572758"><ele>202.66666666666669</ele><time>2026-03-26T07:15:27Z</time></trkpt><trkpt lat="45.93200534312052" lon="12.106144885690515"><ele>203.5</ele><time>2026-03-26T07:15:28Z</time></trkpt><trkpt lat="45.93199662329557" lon="12.106039428087263"><ele>204.33333333333334</ele><time>2026-03-26T07:15:29Z</time></trkpt><trkpt lat="45.931995214415856" lon="12.10594399247292"><ele>205.16666666666669</ele><time>2026-03-26T07:15:30Z</time></trkpt><trkpt lat="45.93199594687933" lon="12.105791666429212"><ele>206.0</ele><time>2026-03-26T07:15:51Z</time></trkpt><trkpt lat="45.93200625461199" lon="12.105634873836877"><ele>206.00000000000003</ele><time>2026-03-26T07:15:53Z</time></trkpt><trkpt lat="45.93208385784134" lon="12.105561651593826"><ele>206.0</ele><time>2026-03-26T07:15:55Z</time></trkpt><trkpt lat="45.932176285449124" lon="12.105553165342117"><ele>206.0</ele><time>2026-03-26T07:15:57Z</time></trkpt><trkpt lat="45.932291390200994" lon="12.105539050958296"><ele>206.0</ele><time>2026-03-26T07:16:23Z</time></trkpt><trkpt lat="45.93236029487277" lon="12.1055298742586"><ele>206.00000000000003</ele><time>2026-03-26T07:16:25Z</time></trkpt><trkpt lat="45.932390536851244" lon="12.105425539253023"><ele>206.0</ele><time>2026-03-26T07:16:28Z</time></trkpt><trkpt lat="45.93232479881561" lon="12.105394075677925"><ele>206.0</ele><time>2026-03-26T07:16:31Z</time></trkpt><trkpt lat="45.932266624933746" lon="12.105498139131688"><ele>206.0</ele><time>2026-03-26T07:16:41.999Z</time></trkpt><trkpt lat="45.93218463306252" lon="12.10551050394797"><ele>206.0</ele><time>2026-03-26T07:16:43.999Z</time></trkpt><trkpt lat="45.932075180570166" lon="12.105522463366233"><ele>206.0</ele><time>2026-03-26T07:16:45.999Z</time></trkpt><trkpt lat="45.93198365754053" lon="12.10555992797268"><ele>206.0</ele><time>2026-03-26T07:16:47.999Z</time></trkpt><trkpt lat="45.93194166543138" lon="12.1056917180381"><ele>206.50000000000003</ele><time>2026-03-26T07:16:49.999Z</time></trkpt><trkpt lat="45.931947908838964" lon="12.105787673904251"><ele>207.0</ele><time>2026-03-26T07:16:50.999Z</time></trkpt><trkpt lat="45.93196273548917" lon="12.105963868847642"><ele>207.5</ele><time>2026-03-26T07:16:52.999Z</time></trkpt><trkpt lat="45.931968251715176" lon="12.106071985396857"><ele>208.0</ele><time>2026-03-26T07:16:53.999Z</time></trkpt><trkpt lat="45.93197833527444" lon="12.106182051551741"><ele>208.50000000000003</ele><time>2026-03-26T07:16:54.999Z</time></trkpt><trkpt lat="45.93196975775848" lon="12.106284173479802"><ele>209.0</ele><time>2026-03-26T07:16:55.999Z</time></trkpt><trkpt lat="45.931952759675255" lon="12.106372982437358"><ele>209.00000000000003</ele><time>2026-03-26T07:16:56.999Z</time></trkpt><trkpt lat="45.931907142663334" lon="12.106439218737364"><ele>209.0</ele><time>2026-03-26T07:16:57.999Z</time></trkpt><trkpt lat="45.93183041557277" lon="12.106474779399722"><ele>209.0</ele><time>2026-03-26T07:16:58.999Z</time></trkpt><trkpt lat="45.93174908540605" lon="12.106487796548315"><ele>209.0</ele><time>2026-03-26T07:16:59.999Z</time></trkpt><trkpt lat="45.93165604198052" lon="12.10649244349967"><ele>209.00000000000003</ele><time>2026-03-26T07:17:00.999Z</time></trkpt><trkpt lat="45.93157323907518" lon="12.106486547814532"><ele>209.0</ele><time>2026-03-26T07:17:01.999Z</time></trkpt><trkpt lat="45.93150317857388" lon="12.106452879298407"><ele>207.66666666666669</ele><time>2026-03-26T07:17:02.999Z</time></trkpt><trkpt lat="45.9314526674711" lon="12.106365498659235"><ele>206.33333333333334</ele><time>2026-03-26T07:17:03.999Z</time></trkpt><trkpt lat="45.93143036617505" lon="12.106230910083895"><ele>205.0</ele><time>2026-03-26T07:17:04.999Z</time></trkpt><trkpt lat="45.93141345268921" lon="12.106094527290594"><ele>203.66666666666669</ele><time>2026-03-26T07:17:05.999Z</time></trkpt><trkpt lat="45.93139421520786" lon="12.105966605466694"><ele>202.33333333333334</ele><time>2026-03-26T07:17:07Z</time></trkpt><trkpt lat="45.93135441208685" lon="12.105874040995563"><ele>201.0</ele><time>2026-03-26T07:17:08Z</time></trkpt><trkpt lat="45.93129658092914" lon="12.105817411303958"><ele>201.0</ele><time>2026-03-26T07:17:09Z</time></trkpt><trkpt lat="45.93122697202367" lon="12.105783408709122"><ele>201.0</ele><time>2026-03-26T07:17:11Z</time></trkpt><trkpt lat="45.931152561931704" lon="12.105727435150548"><ele>201.0</ele><time>2026-03-26T07:17:13Z</time></trkpt><trkpt lat="45.930997347303595" lon="12.105792901930341"><ele>201.0</ele><time>2026-03-26T07:17:33Z</time></trkpt><trkpt lat="45.930952601266576" lon="12.105863663368593"><ele>201.0</ele><time>2026-03-26T07:17:34Z</time></trkpt><trkpt lat="45.930888099303104" lon="12.105998649156389"><ele>201.83333333333334</ele><time>2026-03-26T07:17:36Z</time></trkpt><trkpt lat="45.93084401006081" lon="12.106074324713413"><ele>202.66666666666669</ele><time>2026-03-26T07:17:37Z</time></trkpt><trkpt lat="45.93079456591816" lon="12.106164786142383"><ele>203.5</ele><time>2026-03-26T07:17:38Z</time></trkpt><trkpt lat="45.93074741007837" lon="12.106254237271697"><ele>204.33333333333334</ele><time>2026-03-26T07:17:39Z</time></trkpt><trkpt lat="45.930708521744535" lon="12.106332153335174"><ele>205.16666666666669</ele><time>2026-03-26T07:17:40Z</time></trkpt><trkpt lat="45.93063759473917" lon="12.106447438646684"><ele>206.0</ele><time>2026-03-26T07:17:42Z</time></trkpt><trkpt lat="45.930578350347545" lon="12.10654934129669"><ele>205.20000000000002</ele><time>2026-03-26T07:17:44Z</time></trkpt><trkpt lat="45.93051232617427" lon="12.106683332552423"><ele>204.4</ele><time>2026-03-26T07:17:46Z</time></trkpt><trkpt lat="45.93048112017466" lon="12.106765368016651"><ele>203.6</ele><time>2026-03-26T07:17:47Z</time></trkpt><trkpt lat="45.93043267692442" lon="12.10689228937124"><ele>202.8</ele><time>2026-03-26T07:17:49Z</time></trkpt><trkpt lat="45.93037152304024" lon="12.107024020333656"><ele>202.0</ele><time>2026-03-26T07:17:51Z</time></trkpt><trkpt lat="45.9303091653499" lon="12.107112918107998"><ele>201.99999999999997</ele><time>2026-03-26T07:17:53Z</time></trkpt><trkpt lat="45.93023153217696" lon="12.107108283258565"><ele>202.0</ele><time>2026-03-26T07:17:55Z</time></trkpt><trkpt lat="45.930154142432066" lon="12.107006624224214"><ele>202.0</ele><time>2026-03-26T07:17:57Z</time></trkpt><trkpt lat="45.930062491296205" lon="12.106939402025104"><ele>202.0</ele><time>2026-03-26T07:17:59Z</time></trkpt><trkpt lat="45.9299901721834" lon="12.10684740232036"><ele>201.99999999999997</ele><time>2026-03-26T07:18:01Z</time></trkpt><trkpt lat="45.92995354492661" lon="12.106772048392406"><ele>202.0</ele><time>2026-03-26T07:18:02Z</time></trkpt><trkpt lat="45.929889853552794" lon="12.106708930274934"><ele>203.2</ele><time>2026-03-26T07:18:03Z</time></trkpt><trkpt lat="45.92982135456372" lon="12.10658884619887"><ele>204.39999999999998</ele><time>2026-03-26T07:18:05Z</time></trkpt><trkpt lat="45.92978892509064" lon="12.106459175309887"><ele>205.60000000000002</ele><time>2026-03-26T07:18:27Z</time></trkpt><trkpt lat="45.929691138033995" lon="12.106388999618142"><ele>206.8</ele><time>2026-03-26T07:18:29Z</time></trkpt><trkpt lat="45.92962318416103" lon="12.106274344025358"><ele>208.0</ele><time>2026-03-26T07:18:31Z</time></trkpt><trkpt lat="45.92953280891541" lon="12.10615362982802"><ele>207.66666666666666</ele><time>2026-03-26T07:18:33Z</time></trkpt><trkpt lat="45.929478912893586" lon="12.106081054186332"><ele>207.33333333333331</ele><time>2026-03-26T07:18:34Z</time></trkpt><trkpt lat="45.92941673862973" lon="12.105996704753824"><ele>207.0</ele><time>2026-03-26T07:18:35Z</time></trkpt><trkpt lat="45.9293525191631" lon="12.105917153303226"><ele>206.66666666666669</ele><time>2026-03-26T07:18:36Z</time></trkpt><trkpt lat="45.92929913079098" lon="12.105853853510537"><ele>206.33333333333334</ele><time>2026-03-26T07:18:37Z</time></trkpt><trkpt lat="45.92919598317383" lon="12.105742765492895"><ele>206.0</ele><time>2026-03-26T07:18:38.999Z</time></trkpt><trkpt lat="45.9291363802568" lon="12.105668302813738"><ele>206.00000000000003</ele><time>2026-03-26T07:18:40.999Z</time></trkpt><trkpt lat="45.929201806529406" lon="12.105744213330594"><ele>206.0</ele><time>2026-03-26T07:18:54.999Z</time></trkpt><trkpt lat="45.929125775256956" lon="12.10563039889372"><ele>206.0</ele><time>2026-03-26T07:19:40Z</time></trkpt><trkpt lat="45.929054458489574" lon="12.105564810888485"><ele>206.0</ele><time>2026-03-26T07:19:41Z</time></trkpt><trkpt lat="45.92899932843259" lon="12.105491634693351"><ele>206.00000000000003</ele><time>2026-03-26T07:19:42Z</time></trkpt><trkpt lat="45.92893304197024" lon="12.105424538772896"><ele>206.0</ele><time>2026-03-26T07:19:43Z</time></trkpt><trkpt lat="45.92886333869474" lon="12.10534537280879"><ele>206.00000000000003</ele><time>2026-03-26T07:19:44Z</time></trkpt><trkpt lat="45.92879221669233" lon="12.105268330115386"><ele>206.0</ele><time>2026-03-26T07:19:45Z</time></trkpt><trkpt lat="45.92872059787048" lon="12.105198507663978"><ele>206.0</ele><time>2026-03-26T07:19:46Z</time></trkpt><trkpt lat="45.928645135701345" lon="12.105135826202197"><ele>206.0</ele><time>2026-03-26T07:19:47Z</time></trkpt><trkpt lat="45.928570141389535" lon="12.105082525405768"><ele>206.00000000000003</ele><time>2026-03-26T07:19:48Z</time></trkpt><trkpt lat="45.92849456754031" lon="12.105024307932764"><ele>206.0</ele><time>2026-03-26T07:19:49Z</time></trkpt><trkpt lat="45.92842488843934" lon="12.104964797492881"><ele>206.0</ele><time>2026-03-26T07:19:50Z</time></trkpt><trkpt lat="45.928349077039265" lon="12.104901078230103"><ele>206.0</ele><time>2026-03-26T07:19:51Z</time></trkpt><trkpt lat="45.92826667576157" lon="12.104826470575926"><ele>206.0</ele><time>2026-03-26T07:19:52Z</time></trkpt><trkpt lat="45.92819108580264" lon="12.104737342272069"><ele>206.0</ele><time>2026-03-26T07:19:53Z</time></trkpt><trkpt lat="45.928118457319734" lon="12.10463280825337"><ele>206.0</ele><time>2026-03-26T07:19:54Z</time></trkpt><trkpt lat="45.928052904745066" lon="12.104532710114524"><ele>206.0</ele><time>2026-03-26T07:19:55Z</time></trkpt><trkpt lat="45.92799932912277" lon="12.1044419864259"><ele>206.0</ele><time>2026-03-26T07:19:56Z</time></trkpt><trkpt lat="45.92795240259748" lon="12.10436604632345"><ele>206.0</ele><time>2026-03-26T07:19:57Z</time></trkpt><trkpt lat="45.92795140968215" lon="12.10422573850812"><ele>206.0</ele><time>2026-03-26T07:19:59Z</time></trkpt><trkpt lat="45.92801626113584" lon="12.104094886410913"><ele>206.0</ele><time>2026-03-26T07:20:19Z</time></trkpt><trkpt lat="45.92807941493702" lon="12.10395790930421"><ele>207.14285714285714</ele><time>2026-03-26T07:20:21Z</time></trkpt><trkpt lat="45.928120751377996" lon="12.103887242122827"><ele>208.28571428571428</ele><time>2026-03-26T07:20:23Z</time></trkpt><trkpt lat="45.92806454816156" lon="12.10394835455693"><ele>209.42857142857144</ele><time>2026-03-26T07:21:22Z</time></trkpt><trkpt lat="45.92802784787777" lon="12.104034663740727"><ele>210.57142857142856</ele><time>2026-03-26T07:21:27Z</time></trkpt><trkpt lat="45.92797513100988" lon="12.10391670410763"><ele>211.71428571428572</ele><time>2026-03-26T07:21:34Z</time></trkpt><trkpt lat="45.92791354791812" lon="12.103896363727156"><ele>212.85714285714286</ele><time>2026-03-26T07:21:35Z</time></trkpt><trkpt lat="45.92784980350134" lon="12.103885994780278"><ele>214.0</ele><time>2026-03-26T07:21:38Z</time></trkpt><trkpt lat="45.92783876599563" lon="12.103749790927843"><ele>214.00000000000003</ele><time>2026-03-26T07:21:56Z</time></trkpt><trkpt lat="45.92778857202487" lon="12.10367550860281"><ele>214.0</ele><time>2026-03-26T07:21:58Z</time></trkpt><trkpt lat="45.92784218335266" lon="12.103754388625385"><ele>214.0</ele><time>2026-03-26T07:22:17Z</time></trkpt><trkpt lat="45.92789043960934" lon="12.103837974530578"><ele>214.0</ele><time>2026-03-26T07:22:19Z</time></trkpt><trkpt lat="45.92793726921704" lon="12.103915018782237"><ele>214.0</ele><time>2026-03-26T07:22:21Z</time></trkpt><trkpt lat="45.92798274126298" lon="12.103979441897694"><ele>214.00000000000003</ele><time>2026-03-26T07:22:24Z</time></trkpt><trkpt lat="45.92790915624182" lon="12.10405429743408"><ele>214.0</ele><time>2026-03-26T07:22:29Z</time></trkpt><trkpt lat="45.92790783695997" lon="12.104244678637562"><ele>212.39999999999998</ele><time>2026-03-26T07:22:31Z</time></trkpt><trkpt lat="45.92792230309391" lon="12.104343983736769"><ele>210.79999999999998</ele><time>2026-03-26T07:22:32Z</time></trkpt><trkpt lat="45.927951129533504" lon="12.10443331244186"><ele>209.2</ele><time>2026-03-26T07:22:33Z</time></trkpt><trkpt lat="45.9279797196139" lon="12.104536024731825"><ele>207.60000000000002</ele><time>2026-03-26T07:22:34Z</time></trkpt><trkpt lat="45.928056676659125" lon="12.104646869647304"><ele>206.0</ele><time>2026-03-26T07:22:36Z</time></trkpt><trkpt lat="45.927913522366886" lon="12.104591956500538"><ele>206.00000000000003</ele><time>2026-03-26T07:22:45Z</time></trkpt><trkpt lat="45.92785361075845" lon="12.1045380984055"><ele>206.0</ele><time>2026-03-26T07:22:46Z</time></trkpt><trkpt lat="45.927796812234405" lon="12.104486470858069"><ele>206.0</ele><time>2026-03-26T07:22:47Z</time></trkpt><trkpt lat="45.92773305948151" lon="12.104425017741107"><ele>206.0</ele><time>2026-03-26T07:22:48Z</time></trkpt><trkpt lat="45.92765614932869" lon="12.104336790577548"><ele>206.00000000000003</ele><time>2026-03-26T07:22:49Z</time></trkpt><trkpt lat="45.92756763199636" lon="12.104245956178689"><ele>206.0</ele><time>2026-03-26T07:22:50Z</time></trkpt><trkpt lat="45.927482253179086" lon="12.104159568402496"><ele>205.8</ele><time>2026-03-26T07:22:51Z</time></trkpt><trkpt lat="45.92740203466155" lon="12.104055087373302"><ele>205.60000000000002</ele><time>2026-03-26T07:22:52Z</time></trkpt><trkpt lat="45.927315772373426" lon="12.103952928969814"><ele>205.4</ele><time>2026-03-26T07:22:53Z</time></trkpt><trkpt lat="45.92723221252969" lon="12.103860572808168"><ele>205.2</ele><time>2026-03-26T07:22:54Z</time></trkpt><trkpt lat="45.927172938881434" lon="12.10378723832166"><ele>205.0</ele><time>2026-03-26T07:22:55Z</time></trkpt><trkpt lat="45.92712496985524" lon="12.103723335486066"><ele>205.0</ele><time>2026-03-26T07:22:55.999Z</time></trkpt><trkpt lat="45.927071307669074" lon="12.103654991650036"><ele>205.0</ele><time>2026-03-26T07:22:57.999Z</time></trkpt><trkpt lat="45.92701188884319" lon="12.103596313281352"><ele>205.0</ele><time>2026-03-26T07:23:31Z</time></trkpt><trkpt lat="45.926933939080506" lon="12.103524625596622"><ele>205.0</ele><time>2026-03-26T07:23:33Z</time></trkpt><trkpt lat="45.92684886962846" lon="12.103420155969577"><ele>205.0</ele><time>2026-03-26T07:23:35Z</time></trkpt><trkpt lat="45.92676485976589" lon="12.103274331321158"><ele>203.8</ele><time>2026-03-26T07:23:37Z</time></trkpt><trkpt lat="45.92671899928274" lon="12.103183693024388"><ele>202.6</ele><time>2026-03-26T07:23:38Z</time></trkpt><trkpt lat="45.92666983125895" lon="12.103075503163286"><ele>201.39999999999998</ele><time>2026-03-26T07:23:39Z</time></trkpt><trkpt lat="45.926625204739594" lon="12.102946530561947"><ele>200.2</ele><time>2026-03-26T07:23:40Z</time></trkpt><trkpt lat="45.9265953647464" lon="12.10280016053536"><ele>199.0</ele><time>2026-03-26T07:23:41Z</time></trkpt><trkpt lat="45.926575985410764" lon="12.102652352991985"><ele>199.0</ele><time>2026-03-26T07:23:42Z</time></trkpt><trkpt lat="45.92655722070874" lon="12.102510501961499"><ele>199.0</ele><time>2026-03-26T07:23:43Z</time></trkpt><trkpt lat="45.92652310037735" lon="12.102369368859065"><ele>199.0</ele><time>2026-03-26T07:23:44Z</time></trkpt><trkpt lat="45.92647557324769" lon="12.10222531396745"><ele>199.0</ele><time>2026-03-26T07:23:45Z</time></trkpt><trkpt lat="45.92641462372126" lon="12.102088597289681"><ele>199.0</ele><time>2026-03-26T07:23:46Z</time></trkpt><trkpt lat="45.92634469905696" lon="12.101962038711328"><ele>199.39999999999998</ele><time>2026-03-26T07:23:47Z</time></trkpt><trkpt lat="45.926269954756926" lon="12.101847052996844"><ele>199.8</ele><time>2026-03-26T07:23:48Z</time></trkpt><trkpt lat="45.92619690011497" lon="12.101729651612446"><ele>200.2</ele><time>2026-03-26T07:23:49Z</time></trkpt><trkpt lat="45.926129646160184" lon="12.101597073715963"><ele>200.60000000000002</ele><time>2026-03-26T07:23:50Z</time></trkpt><trkpt lat="45.9260775040353" lon="12.10145200992674"><ele>201.0</ele><time>2026-03-26T07:23:51Z</time></trkpt><trkpt lat="45.92603639369113" lon="12.10129522819708"><ele>202.0</ele><time>2026-03-26T07:23:52Z</time></trkpt><trkpt lat="45.926005023345056" lon="12.101129386406896"><ele>203.0</ele><time>2026-03-26T07:23:53Z</time></trkpt><trkpt lat="45.925984548586946" lon="12.100955213347344"><ele>204.0</ele><time>2026-03-26T07:23:54Z</time></trkpt><trkpt lat="45.9259746058692" lon="12.100775204463135"><ele>205.0</ele><time>2026-03-26T07:23:55Z</time></trkpt><trkpt lat="45.92597417080624" lon="12.100591881715612"><ele>205.5</ele><time>2026-03-26T07:23:56Z</time></trkpt><trkpt lat="45.92598406460541" lon="12.100408728353045"><ele>206.0</ele><time>2026-03-26T07:23:57Z</time></trkpt><trkpt lat="45.92599198156275" lon="12.10023072342429"><ele>206.5</ele><time>2026-03-26T07:23:58Z</time></trkpt><trkpt lat="45.92599691357551" lon="12.100051932022572"><ele>207.0</ele><time>2026-03-26T07:23:59Z</time></trkpt><trkpt lat="45.92599292299144" lon="12.099868814540176"><ele>207.5</ele><time>2026-03-26T07:24:00Z</time></trkpt><trkpt lat="45.92597593678731" lon="12.09968834284776"><ele>208.0</ele><time>2026-03-26T07:24:01Z</time></trkpt><trkpt lat="45.925943937328064" lon="12.09950952190242"><ele>208.5</ele><time>2026-03-26T07:24:02Z</time></trkpt><trkpt lat="45.92589823221356" lon="12.099333448759547"><ele>209.0</ele><time>2026-03-26T07:24:03Z</time></trkpt><trkpt lat="45.92584563218694" lon="12.09916794247618"><ele>208.50000000000003</ele><time>2026-03-26T07:24:04Z</time></trkpt><trkpt lat="45.925793047392645" lon="12.099020615098421"><ele>208.0</ele><time>2026-03-26T07:24:05Z</time></trkpt><trkpt lat="45.92574389512081" lon="12.09889104330233"><ele>207.5</ele><time>2026-03-26T07:24:06Z</time></trkpt><trkpt lat="45.925712404049214" lon="12.098784543730359"><ele>207.0</ele><time>2026-03-26T07:24:07Z</time></trkpt><trkpt lat="45.92570222761832" lon="12.098693905254686"><ele>206.50000000000003</ele><time>2026-03-26T07:24:08Z</time></trkpt><trkpt lat="45.925689677160165" lon="12.098593063012931"><ele>206.0</ele><time>2026-03-26T07:24:10Z</time></trkpt><trkpt lat="45.925613861220825" lon="12.098503215827307"><ele>206.0</ele><time>2026-03-26T07:24:34Z</time></trkpt><trkpt lat="45.92555463673836" lon="12.098334753368668"><ele>206.0</ele><time>2026-03-26T07:24:36Z</time></trkpt><trkpt lat="45.9255138522814" lon="12.098253902400403"><ele>206.0</ele><time>2026-03-26T07:24:37Z</time></trkpt><trkpt lat="45.925476323576284" lon="12.098178495412853"><ele>206.0</ele><time>2026-03-26T07:24:38Z</time></trkpt><trkpt lat="45.925383542056124" lon="12.09801974086679"><ele>206.0</ele><time>2026-03-26T07:24:40Z</time></trkpt><trkpt lat="45.92532575617808" lon="12.097937258829573"><ele>206.8</ele><time>2026-03-26T07:24:41Z</time></trkpt><trkpt lat="45.92525635137611" lon="12.097848269877765"><ele>207.60000000000002</ele><time>2026-03-26T07:24:42Z</time></trkpt><trkpt lat="45.92518422578053" lon="12.097747520828333"><ele>208.4</ele><time>2026-03-26T07:24:43Z</time></trkpt><trkpt lat="45.92510485502376" lon="12.097648598473748"><ele>209.2</ele><time>2026-03-26T07:24:44Z</time></trkpt><trkpt lat="45.92501695326127" lon="12.097542837345054"><ele>210.0</ele><time>2026-03-26T07:24:45Z</time></trkpt><trkpt lat="45.92493036632656" lon="12.097435609009633"><ele>211.33333333333334</ele><time>2026-03-26T07:24:46Z</time></trkpt><trkpt lat="45.924835560968994" lon="12.097335669161872"><ele>212.66666666666669</ele><time>2026-03-26T07:24:47Z</time></trkpt><trkpt lat="45.924757665340856" lon="12.097257879426422"><ele>214.0</ele><time>2026-03-26T07:24:48Z</time></trkpt><trkpt lat="45.92469858209677" lon="12.097204786610748"><ele>215.33333333333334</ele><time>2026-03-26T07:24:49Z</time></trkpt><trkpt lat="45.924625705287184" lon="12.09718588914652"><ele>216.66666666666669</ele><time>2026-03-26T07:24:52Z</time></trkpt><trkpt lat="45.9245997542895" lon="12.097273416552675"><ele>218.0</ele><time>2026-03-26T07:24:55Z</time></trkpt><trkpt lat="45.92468655530204" lon="12.097301260226404"><ele>218.0</ele><time>2026-03-26T07:25:09Z</time></trkpt><trkpt lat="45.92475067520715" lon="12.097346864025154"><ele>218.0</ele><time>2026-03-26T07:25:10Z</time></trkpt><trkpt lat="45.92484384322134" lon="12.097462947408445"><ele>218.0</ele><time>2026-03-26T07:25:12Z</time></trkpt><trkpt lat="45.924908268805154" lon="12.097527983415386"><ele>218.0</ele><time>2026-03-26T07:25:36Z</time></trkpt><trkpt lat="45.924968434439045" lon="12.097572109664327"><ele>218.0</ele><time>2026-03-26T07:25:38Z</time></trkpt><trkpt lat="45.92506377016703" lon="12.097677185023073"><ele>217.00000000000003</ele><time>2026-03-26T07:25:40Z</time></trkpt><trkpt lat="45.925116458386796" lon="12.097738993506997"><ele>216.0</ele><time>2026-03-26T07:25:41Z</time></trkpt><trkpt lat="45.925169468900826" lon="12.09781175179293"><ele>215.0</ele><time>2026-03-26T07:25:42Z</time></trkpt><trkpt lat="45.92523536452456" lon="12.097906436376114"><ele>214.0</ele><time>2026-03-26T07:25:43Z</time></trkpt><trkpt lat="45.92530584140367" lon="12.098006868820974"><ele>213.00000000000003</ele><time>2026-03-26T07:25:44Z</time></trkpt><trkpt lat="45.925373727111555" lon="12.098108677255608"><ele>212.0</ele><time>2026-03-26T07:25:45Z</time></trkpt><trkpt lat="45.92543664029197" lon="12.098219624582553"><ele>210.5</ele><time>2026-03-26T07:25:46Z</time></trkpt><trkpt lat="45.92549737945015" lon="12.098344328140096"><ele>209.0</ele><time>2026-03-26T07:25:47Z</time></trkpt><trkpt lat="45.92555520906988" lon="12.098487370390657"><ele>207.5</ele><time>2026-03-26T07:25:48Z</time></trkpt><trkpt lat="45.92561520589925" lon="12.098638848732588"><ele>206.0</ele><time>2026-03-26T07:25:49Z</time></trkpt><trkpt lat="45.925669561634294" lon="12.098805366485228"><ele>206.0</ele><time>2026-03-26T07:25:50Z</time></trkpt><trkpt lat="45.92573039844969" lon="12.098980149642161"><ele>206.0</ele><time>2026-03-26T07:25:51Z</time></trkpt><trkpt lat="45.92579435432468" lon="12.099159407206454"><ele>206.0</ele><time>2026-03-26T07:25:52Z</time></trkpt><trkpt lat="45.925855576468315" lon="12.099338451118747"><ele>206.0</ele><time>2026-03-26T07:25:53Z</time></trkpt><trkpt lat="45.925909347960356" lon="12.099527103813848"><ele>206.25</ele><time>2026-03-26T07:25:54Z</time></trkpt><trkpt lat="45.92593981546637" lon="12.099731119778328"><ele>206.5</ele><time>2026-03-26T07:25:55Z</time></trkpt><trkpt lat="45.9259541256165" lon="12.09993907681397"><ele>206.75</ele><time>2026-03-26T07:25:56Z</time></trkpt><trkpt lat="45.925959157658006" lon="12.100149099965018"><ele>207.0</ele><time>2026-03-26T07:25:57Z</time></trkpt><trkpt lat="45.92594828337957" lon="12.100356566762814"><ele>207.0</ele><time>2026-03-26T07:25:58Z</time></trkpt><trkpt lat="45.92593651393952" lon="12.10055364865466"><ele>207.0</ele><time>2026-03-26T07:25:59Z</time></trkpt><trkpt lat="45.92592984832754" lon="12.100748934472447"><ele>207.0</ele><time>2026-03-26T07:26:00Z</time></trkpt><trkpt lat="45.925938477901795" lon="12.100950488921914"><ele>207.0</ele><time>2026-03-26T07:26:01Z</time></trkpt><trkpt lat="45.9259653255873" lon="12.10115165591034"><ele>206.33333333333331</ele><time>2026-03-26T07:26:02Z</time></trkpt><trkpt lat="45.92600819248902" lon="12.101353868226116"><ele>205.66666666666666</ele><time>2026-03-26T07:26:03Z</time></trkpt><trkpt lat="45.9260704968478" lon="12.101550470907187"><ele>205.0</ele><time>2026-03-26T07:26:04Z</time></trkpt><trkpt lat="45.926152678078616" lon="12.10173541687494"><ele>203.66666666666666</ele><time>2026-03-26T07:26:05Z</time></trkpt><trkpt lat="45.92625322157645" lon="12.101909825490319"><ele>202.33333333333331</ele><time>2026-03-26T07:26:06Z</time></trkpt><trkpt lat="45.92635545427315" lon="12.102080472209932"><ele>201.0</ele><time>2026-03-26T07:26:07Z</time></trkpt><trkpt lat="45.9264422658143" lon="12.102261660864299"><ele>200.5</ele><time>2026-03-26T07:26:08Z</time></trkpt><trkpt lat="45.92649870543048" lon="12.102460081660295"><ele>200.0</ele><time>2026-03-26T07:26:09Z</time></trkpt><trkpt lat="45.92653509085982" lon="12.102661502216012"><ele>199.5</ele><time>2026-03-26T07:26:10Z</time></trkpt><trkpt lat="45.926567135327424" lon="12.102865477112879"><ele>199.0</ele><time>2026-03-26T07:26:11Z</time></trkpt><trkpt lat="45.9266104897444" lon="12.103053274649847"><ele>199.0</ele><time>2026-03-26T07:26:12Z</time></trkpt><trkpt lat="45.92667718455441" lon="12.10323460423001"><ele>199.0</ele><time>2026-03-26T07:26:13Z</time></trkpt><trkpt lat="45.92676549352758" lon="12.103404902103748"><ele>199.0</ele><time>2026-03-26T07:26:14Z</time></trkpt><trkpt lat="45.92686993579128" lon="12.103559038474586"><ele>199.0</ele><time>2026-03-26T07:26:15Z</time></trkpt><trkpt lat="45.926987298807425" lon="12.103697623167971"><ele>200.5</ele><time>2026-03-26T07:26:16Z</time></trkpt><trkpt lat="45.927106202602786" lon="12.103828462993846"><ele>202.0</ele><time>2026-03-26T07:26:17Z</time></trkpt><trkpt lat="45.92722622657916" lon="12.103959173638437"><ele>203.5</ele><time>2026-03-26T07:26:18Z</time></trkpt><trkpt lat="45.92734289237211" lon="12.104091688848046"><ele>205.0</ele><time>2026-03-26T07:26:19Z</time></trkpt><trkpt lat="45.92746038634876" lon="12.104222089807191"><ele>205.25</ele><time>2026-03-26T07:26:20Z</time></trkpt><trkpt lat="45.9275766096661" lon="12.104352650760493"><ele>205.5</ele><time>2026-03-26T07:26:21Z</time></trkpt><trkpt lat="45.92769159190318" lon="12.104480252541276"><ele>205.75</ele><time>2026-03-26T07:26:22Z</time></trkpt><trkpt lat="45.927804948417204" lon="12.104596991499509"><ele>206.0</ele><time>2026-03-26T07:26:23Z</time></trkpt><trkpt lat="45.927914142293226" lon="12.104694519918784"><ele>206.0</ele><time>2026-03-26T07:26:24Z</time></trkpt><trkpt lat="45.92801343736585" lon="12.104773851018006"><ele>206.0</ele><time>2026-03-26T07:26:25Z</time></trkpt><trkpt lat="45.928107060301805" lon="12.104829406269268"><ele>206.0</ele><time>2026-03-26T07:26:26Z</time></trkpt><trkpt lat="45.92819092705218" lon="12.104899847996261"><ele>206.0</ele><time>2026-03-26T07:26:27Z</time></trkpt><trkpt lat="45.9282710864783" lon="12.104960728942261"><ele>206.0</ele><time>2026-03-26T07:26:28Z</time></trkpt><trkpt lat="45.92841792334145" lon="12.104831455457314"><ele>207.60000000000002</ele><time>2026-03-26T07:26:29Z</time></trkpt><trkpt lat="45.928524468135265" lon="12.104817438137685"><ele>209.2</ele><time>2026-03-26T07:26:30Z</time></trkpt><trkpt lat="45.92863169074232" lon="12.104813875609729"><ele>210.79999999999998</ele><time>2026-03-26T07:26:31Z</time></trkpt><trkpt lat="45.928738690690395" lon="12.104821169656134"><ele>212.39999999999998</ele><time>2026-03-26T07:26:32Z</time></trkpt><trkpt lat="45.92884777834173" lon="12.104830535225487"><ele>214.0</ele><time>2026-03-26T07:26:33Z</time></trkpt><trkpt lat="45.92894821764065" lon="12.10483725913991"><ele>213.99999999999997</ele><time>2026-03-26T07:26:34Z</time></trkpt><trkpt lat="45.929043251698886" lon="12.10484830346695"><ele>214.0</ele><time>2026-03-26T07:26:35Z</time></trkpt><trkpt lat="45.92913290695618" lon="12.10487036796468"><ele>214.0</ele><time>2026-03-26T07:26:36Z</time></trkpt><trkpt lat="45.9292158287768" lon="12.104899347477744"><ele>214.0</ele><time>2026-03-26T07:26:37Z</time></trkpt><trkpt lat="45.92929931013809" lon="12.104928447450524"><ele>213.99999999999997</ele><time>2026-03-26T07:26:38Z</time></trkpt><trkpt lat="45.92938314846333" lon="12.104969768973572"><ele>214.0</ele><time>2026-03-26T07:26:39Z</time></trkpt><trkpt lat="45.92946920404402" lon="12.10500852178365"><ele>213.33333333333331</ele><time>2026-03-26T07:26:40Z</time></trkpt><trkpt lat="45.92955710394626" lon="12.1050524450555"><ele>212.66666666666666</ele><time>2026-03-26T07:26:41Z</time></trkpt><trkpt lat="45.92964547570235" lon="12.10509517615713"><ele>212.0</ele><time>2026-03-26T07:26:42Z</time></trkpt><trkpt lat="45.92972049907109" lon="12.105166316711403"><ele>211.33333333333331</ele><time>2026-03-26T07:26:43Z</time></trkpt><trkpt lat="45.929797988056414" lon="12.105221705939433"><ele>210.66666666666666</ele><time>2026-03-26T07:26:44Z</time></trkpt><trkpt lat="45.9298637741386" lon="12.105283220289657"><ele>210.0</ele><time>2026-03-26T07:26:45Z</time></trkpt><trkpt lat="45.92992792723755" lon="12.105339880670655"><ele>210.0</ele><time>2026-03-26T07:26:46Z</time></trkpt><trkpt lat="45.92997595122879" lon="12.105410966904133"><ele>210.0</ele><time>2026-03-26T07:26:47Z</time></trkpt><trkpt lat="45.9300406325287" lon="12.105543436790555"><ele>210.0</ele><time>2026-03-26T07:26:49Z</time></trkpt><trkpt lat="45.930097672726916" lon="12.105650786916264"><ele>210.0</ele><time>2026-03-26T07:26:51Z</time></trkpt><trkpt lat="45.93013772084264" lon="12.105732986355862"><ele>210.0</ele><time>2026-03-26T07:26:53Z</time></trkpt><trkpt lat="45.93017513653003" lon="12.1058169828773"><ele>210.0</ele><time>2026-03-26T07:27:21Z</time></trkpt><trkpt lat="45.930226963005616" lon="12.105942224116307"><ele>209.33333333333334</ele><time>2026-03-26T07:27:23Z</time></trkpt><trkpt lat="45.93027504902597" lon="12.106069866902523"><ele>208.66666666666669</ele><time>2026-03-26T07:27:25Z</time></trkpt><trkpt lat="45.93031294874198" lon="12.106148091238161"><ele>208.0</ele><time>2026-03-26T07:27:27Z</time></trkpt><trkpt lat="45.93033545602226" lon="12.106236857846921"><ele>207.33333333333334</ele><time>2026-03-26T07:27:29Z</time></trkpt><trkpt lat="45.9303841540711" lon="12.106357055278965"><ele>206.66666666666669</ele><time>2026-03-26T07:27:31Z</time></trkpt><trkpt lat="45.9304271947586" lon="12.106485590949136"><ele>206.0</ele><time>2026-03-26T07:27:32.999Z</time></trkpt><trkpt lat="45.93045236074174" lon="12.106582482246356"><ele>205.20000000000002</ele><time>2026-03-26T07:27:34.999Z</time></trkpt><trkpt lat="45.93045336469626" lon="12.106718734534983"><ele>204.4</ele><time>2026-03-26T07:27:39Z</time></trkpt><trkpt lat="45.930401060789706" lon="12.106861982148716"><ele>203.6</ele><time>2026-03-26T07:27:41Z</time></trkpt><trkpt lat="45.930342954221636" lon="12.106994754792224"><ele>202.8</ele><time>2026-03-26T07:27:43Z</time></trkpt><trkpt lat="45.93027255210407" lon="12.10713504420301"><ele>202.0</ele><time>2026-03-26T07:27:45Z</time></trkpt><trkpt lat="45.93022850753179" lon="12.107291017244602"><ele>201.99999999999997</ele><time>2026-03-26T07:27:47Z</time></trkpt><trkpt lat="45.93020410807677" lon="12.107394456048564"><ele>202.0</ele><time>2026-03-26T07:27:48Z</time></trkpt><trkpt lat="45.93017136427478" lon="12.107505052894318"><ele>202.0</ele><time>2026-03-26T07:27:49Z</time></trkpt><trkpt lat="45.930138454324386" lon="12.107628179755963"><ele>202.0</ele><time>2026-03-26T07:27:50Z</time></trkpt><trkpt lat="45.93011366338082" lon="12.107763100742972"><ele>201.99999999999997</ele><time>2026-03-26T07:27:51Z</time></trkpt><trkpt lat="45.93008471454396" lon="12.107890467936627"><ele>202.0</ele><time>2026-03-26T07:27:52Z</time></trkpt><trkpt lat="45.9300610447041" lon="12.108015202791563"><ele>202.49999999999997</ele><time>2026-03-26T07:27:53Z</time></trkpt><trkpt lat="45.930037593226814" lon="12.10813749581409"><ele>203.0</ele><time>2026-03-26T07:27:54Z</time></trkpt><trkpt lat="45.93001640091097" lon="12.108254048766494"><ele>203.5</ele><time>2026-03-26T07:27:55Z</time></trkpt><trkpt lat="45.929983407329566" lon="12.108356429627811"><ele>204.0</ele><time>2026-03-26T07:27:57Z</time></trkpt><trkpt lat="45.92998408019063" lon="12.108454023733533"><ele>204.49999999999997</ele><time>2026-03-26T07:28:19Z</time></trkpt><trkpt lat="45.929974598922925" lon="12.10854652971355"><ele>205.0</ele><time>2026-03-26T07:28:20Z</time></trkpt><trkpt lat="45.92996733646175" lon="12.108649416031751"><ele>204.99999999999997</ele><time>2026-03-26T07:28:21Z</time></trkpt><trkpt lat="45.9299360771913" lon="12.108736757655388"><ele>205.0</ele><time>2026-03-26T07:28:22Z</time></trkpt><trkpt lat="45.929924283916066" lon="12.108836587042637"><ele>205.0</ele><time>2026-03-26T07:28:23Z</time></trkpt><trkpt lat="45.92991289884621" lon="12.10893196043364"><ele>205.0</ele><time>2026-03-26T07:28:24Z</time></trkpt><trkpt lat="45.92989793282383" lon="12.109042447860684"><ele>204.99999999999997</ele><time>2026-03-26T07:28:25Z</time></trkpt><trkpt lat="45.929895501159756" lon="12.109188461075858"><ele>205.0</ele><time>2026-03-26T07:28:26Z</time></trkpt><trkpt lat="45.92986869090057" lon="12.109326591782931"><ele>204.4</ele><time>2026-03-26T07:28:27Z</time></trkpt><trkpt lat="45.92986693310046" lon="12.109454832926724"><ele>203.8</ele><time>2026-03-26T07:28:28Z</time></trkpt><trkpt lat="45.929881185538854" lon="12.109589349418483"><ele>203.2</ele><time>2026-03-26T07:28:29Z</time></trkpt><trkpt lat="45.92987962983768" lon="12.10971642042345"><ele>202.6</ele><time>2026-03-26T07:28:30Z</time></trkpt><trkpt lat="45.92986259923965" lon="12.109859476415597"><ele>202.0</ele><time>2026-03-26T07:28:31Z</time></trkpt><trkpt lat="45.92987187725202" lon="12.110009878432074"><ele>201.0</ele><time>2026-03-26T07:28:32Z</time></trkpt><trkpt lat="45.92985840785434" lon="12.110180132236541"><ele>200.0</ele><time>2026-03-26T07:28:33Z</time></trkpt><trkpt lat="45.92982548420418" lon="12.110355249910437"><ele>199.0</ele><time>2026-03-26T07:28:34Z</time></trkpt><trkpt lat="45.92977643393554" lon="12.110529169218287"><ele>198.0</ele><time>2026-03-26T07:28:35Z</time></trkpt><trkpt lat="45.92971248151329" lon="12.110686883220604"><ele>196.25</ele><time>2026-03-26T07:28:36Z</time></trkpt><trkpt lat="45.929637056628124" lon="12.110837392467031"><ele>194.5</ele><time>2026-03-26T07:28:37Z</time></trkpt><trkpt lat="45.92955484410961" lon="12.110970756744265"><ele>192.75</ele><time>2026-03-26T07:28:38Z</time></trkpt><trkpt lat="45.929475038815276" lon="12.111108946497614"><ele>191.0</ele><time>2026-03-26T07:28:39Z</time></trkpt><trkpt lat="45.929399961703325" lon="12.111247313544267"><ele>191.0</ele><time>2026-03-26T07:28:40Z</time></trkpt><trkpt lat="45.929327356999465" lon="12.111390894936015"><ele>191.0</ele><time>2026-03-26T07:28:41Z</time></trkpt><trkpt lat="45.92926094273742" lon="12.11154111189248"><ele>191.0</ele><time>2026-03-26T07:28:42Z</time></trkpt><trkpt lat="45.92920501151945" lon="12.111703429248488"><ele>191.0</ele><time>2026-03-26T07:28:43Z</time></trkpt><trkpt lat="45.92915907475201" lon="12.111870777449523"><ele>191.0</ele><time>2026-03-26T07:28:44Z</time></trkpt><trkpt lat="45.929122483865015" lon="12.112042701177156"><ele>191.0</ele><time>2026-03-26T07:28:45Z</time></trkpt><trkpt lat="45.92909806057301" lon="12.112211773561171"><ele>191.0</ele><time>2026-03-26T07:28:46Z</time></trkpt><trkpt lat="45.929077763073764" lon="12.112376586370907"><ele>191.0</ele><time>2026-03-26T07:28:47Z</time></trkpt><trkpt lat="45.929057791031354" lon="12.112536840953997"><ele>190.5</ele><time>2026-03-26T07:28:48Z</time></trkpt><trkpt lat="45.92903551781651" lon="12.112695612550127"><ele>190.0</ele><time>2026-03-26T07:28:49Z</time></trkpt><trkpt lat="45.929009701288074" lon="12.112860110094234"><ele>189.5</ele><time>2026-03-26T07:28:50Z</time></trkpt><trkpt lat="45.92898526973154" lon="12.113033014795942"><ele>189.0</ele><time>2026-03-26T07:28:51Z</time></trkpt><trkpt lat="45.92895929256458" lon="12.113211484413661"><ele>189.25</ele><time>2026-03-26T07:28:52Z</time></trkpt><trkpt lat="45.92893273089895" lon="12.113397910942211"><ele>189.5</ele><time>2026-03-26T07:28:53Z</time></trkpt><trkpt lat="45.92890711780421" lon="12.113587203667434"><ele>189.75</ele><time>2026-03-26T07:28:54Z</time></trkpt><trkpt lat="45.928876449085635" lon="12.11378172026653"><ele>190.0</ele><time>2026-03-26T07:28:55Z</time></trkpt><trkpt lat="45.92884432916058" lon="12.113979626494306"><ele>191.0</ele><time>2026-03-26T07:28:56Z</time></trkpt><trkpt lat="45.928815188773626" lon="12.11417081187789"><ele>192.0</ele><time>2026-03-26T07:28:57Z</time></trkpt><trkpt lat="45.92878726283831" lon="12.114362086678375"><ele>193.0</ele><time>2026-03-26T07:28:58Z</time></trkpt><trkpt lat="45.92876252479649" lon="12.114561731564335"><ele>194.0</ele><time>2026-03-26T07:28:59Z</time></trkpt><trkpt lat="45.92873725701152" lon="12.114769514822932"><ele>194.0</ele><time>2026-03-26T07:29:00Z</time></trkpt><trkpt lat="45.92871018851241" lon="12.114981292911168"><ele>194.0</ele><time>2026-03-26T07:29:01Z</time></trkpt><trkpt lat="45.92869133972804" lon="12.115200508378738"><ele>194.0</ele><time>2026-03-26T07:29:02Z</time></trkpt><trkpt lat="45.928685359024584" lon="12.115430198816338"><ele>194.0</ele><time>2026-03-26T07:29:03Z</time></trkpt><trkpt lat="45.928685876009666" lon="12.115667863235142"><ele>194.0</ele><time>2026-03-26T07:29:04Z</time></trkpt><trkpt lat="45.92869238853625" lon="12.1159136750265"><ele>194.0</ele><time>2026-03-26T07:29:05Z</time></trkpt><trkpt lat="45.928708821857875" lon="12.11615479604086"><ele>194.0</ele><time>2026-03-26T07:29:06Z</time></trkpt><trkpt lat="45.928733390760954" lon="12.116392748784568"><ele>194.0</ele><time>2026-03-26T07:29:07Z</time></trkpt><trkpt lat="45.9287702862327" lon="12.116627825664418"><ele>194.0</ele><time>2026-03-26T07:29:08Z</time></trkpt><trkpt lat="45.92881836435523" lon="12.11686615249809"><ele>193.0</ele><time>2026-03-26T07:29:09Z</time></trkpt><trkpt lat="45.92887818219533" lon="12.117102687691725"><ele>192.0</ele><time>2026-03-26T07:29:10Z</time></trkpt><trkpt lat="45.92894581669249" lon="12.117337656718034"><ele>191.0</ele><time>2026-03-26T07:29:11Z</time></trkpt><trkpt lat="45.92901802422227" lon="12.117567155839344"><ele>189.33333333333331</ele><time>2026-03-26T07:29:12Z</time></trkpt><trkpt lat="45.92908925279353" lon="12.117805895802185"><ele>187.66666666666666</ele><time>2026-03-26T07:29:13Z</time></trkpt><trkpt lat="45.929156830403855" lon="12.118042127786318"><ele>186.0</ele><time>2026-03-26T07:29:14Z</time></trkpt><trkpt lat="45.929228942435984" lon="12.118278494382784"><ele>192.33333333333331</ele><time>2026-03-26T07:29:15Z</time></trkpt><trkpt lat="45.92930043284648" lon="12.118515404249948"><ele>198.66666666666666</ele><time>2026-03-26T07:29:16Z</time></trkpt><trkpt lat="45.929373101073494" lon="12.118756995925349"><ele>205.0</ele><time>2026-03-26T07:29:17Z</time></trkpt><trkpt lat="45.92944799180945" lon="12.11900256375849"><ele>203.33333333333331</ele><time>2026-03-26T07:29:18Z</time></trkpt><trkpt lat="45.92952228587364" lon="12.119250136780302"><ele>201.66666666666669</ele><time>2026-03-26T07:29:19Z</time></trkpt><trkpt lat="45.92959798875195" lon="12.119499097848454"><ele>200.0</ele><time>2026-03-26T07:29:20Z</time></trkpt><trkpt lat="45.929674464074694" lon="12.11975132674648"><ele>197.33333333333334</ele><time>2026-03-26T07:29:21Z</time></trkpt><trkpt lat="45.92975244650122" lon="12.120003627679214"><ele>194.66666666666669</ele><time>2026-03-26T07:29:22Z</time></trkpt><trkpt lat="45.92982707839995" lon="12.120260776345688"><ele>192.0</ele><time>2026-03-26T07:29:23Z</time></trkpt><trkpt lat="45.92990385883268" lon="12.120514660194077"><ele>193.33333333333331</ele><time>2026-03-26T07:29:24Z</time></trkpt><trkpt lat="45.92998090126698" lon="12.120771034663118"><ele>194.66666666666666</ele><time>2026-03-26T07:29:25Z</time></trkpt><trkpt lat="45.930055795670086" lon="12.121029938258422"><ele>196.0</ele><time>2026-03-26T07:29:26Z</time></trkpt><trkpt lat="45.93013063140711" lon="12.121293511377598"><ele>196.0</ele><time>2026-03-26T07:29:27Z</time></trkpt><trkpt lat="45.930209665769105" lon="12.121561079050396"><ele>196.0</ele><time>2026-03-26T07:29:28Z</time></trkpt><trkpt lat="45.93028844655217" lon="12.121834011616436"><ele>196.0</ele><time>2026-03-26T07:29:29Z</time></trkpt><trkpt lat="45.93036628919797" lon="12.122110334716263"><ele>192.66666666666666</ele><time>2026-03-26T07:29:30Z</time></trkpt><trkpt lat="45.930418505311366" lon="12.122390959672336"><ele>189.33333333333331</ele><time>2026-03-26T07:29:31Z</time></trkpt><trkpt lat="45.93047140750551" lon="12.122668073700519"><ele>186.0</ele><time>2026-03-26T07:29:31.999Z</time></trkpt><trkpt lat="45.93053694443294" lon="12.122936423778501"><ele>184.0</ele><time>2026-03-26T07:29:32.999Z</time></trkpt><trkpt lat="45.93058065853771" lon="12.123210751764917"><ele>182.0</ele><time>2026-03-26T07:29:33.999Z</time></trkpt><trkpt lat="45.93062626549711" lon="12.123476109653362"><ele>180.0</ele><time>2026-03-26T07:29:34.999Z</time></trkpt><trkpt lat="45.93066982872481" lon="12.123695998791568"><ele>179.0</ele><time>2026-03-26T07:29:35.999Z</time></trkpt><trkpt lat="45.93069238234082" lon="12.123893024215484"><ele>178.0</ele><time>2026-03-26T07:29:36.999Z</time></trkpt><trkpt lat="45.93070692479675" lon="12.124065193188596"><ele>177.0</ele><time>2026-03-26T07:29:37.999Z</time></trkpt><trkpt lat="45.930703418315595" lon="12.124206955231154"><ele>176.0</ele><time>2026-03-26T07:29:38.999Z</time></trkpt><trkpt lat="45.93069500622364" lon="12.124335164477117"><ele>175.0</ele><time>2026-03-26T07:29:39.999Z</time></trkpt><trkpt lat="45.93066530552193" lon="12.12442958577377"><ele>174.8</ele><time>2026-03-26T07:29:41Z</time></trkpt><trkpt lat="45.930811111246165" lon="12.124616306045588"><ele>174.6</ele><time>2026-03-26T07:29:43Z</time></trkpt><trkpt lat="45.9308563437587" lon="12.124693553313156"><ele>174.39999999999998</ele><time>2026-03-26T07:29:44Z</time></trkpt><trkpt lat="45.93086432187007" lon="12.124800144528466"><ele>174.2</ele><time>2026-03-26T07:29:45Z</time></trkpt><trkpt lat="45.93090113711732" lon="12.12491053769122"><ele>174.0</ele><time>2026-03-26T07:29:46Z</time></trkpt><trkpt lat="45.93092511461683" lon="12.125050832672377"><ele>179.5</ele><time>2026-03-26T07:29:47Z</time></trkpt><trkpt lat="45.930952825612586" lon="12.12519835506345"><ele>185.0</ele><time>2026-03-26T07:29:48Z</time></trkpt><trkpt lat="45.93096815279168" lon="12.125359879536555"><ele>190.5</ele><time>2026-03-26T07:29:49Z</time></trkpt><trkpt lat="45.931008085346534" lon="12.125523401112284"><ele>196.0</ele><time>2026-03-26T07:29:50Z</time></trkpt><trkpt lat="45.93102344175567" lon="12.125689445502344"><ele>197.60000000000002</ele><time>2026-03-26T07:29:51Z</time></trkpt><trkpt lat="45.93103516402797" lon="12.125844977710981"><ele>199.2</ele><time>2026-03-26T07:29:52Z</time></trkpt><trkpt lat="45.931048298763585" lon="12.126001024247424"><ele>200.8</ele><time>2026-03-26T07:29:53Z</time></trkpt><trkpt lat="45.93105731862613" lon="12.126158010289801"><ele>202.39999999999998</ele><time>2026-03-26T07:29:54Z</time></trkpt><trkpt lat="45.93106589296988" lon="12.126317024229714"><ele>204.0</ele><time>2026-03-26T07:29:55Z</time></trkpt><trkpt lat="45.93108652478685" lon="12.126477332006186"><ele>203.75</ele><time>2026-03-26T07:29:56Z</time></trkpt><trkpt lat="45.93112023935148" lon="12.126636157957114"><ele>203.5</ele><time>2026-03-26T07:29:57Z</time></trkpt><trkpt lat="45.93116858401037" lon="12.126789994917337"><ele>203.25</ele><time>2026-03-26T07:29:58Z</time></trkpt><trkpt lat="45.93122392912543" lon="12.126940803395126"><ele>203.0</ele><time>2026-03-26T07:29:59Z</time></trkpt><trkpt lat="45.93129092094493" lon="12.127086193618274"><ele>203.0</ele><time>2026-03-26T07:30:00Z</time></trkpt><trkpt lat="45.931355870131696" lon="12.127237012071456"><ele>203.0</ele><time>2026-03-26T07:30:01Z</time></trkpt><trkpt lat="45.93142247329804" lon="12.127391145091899"><ele>203.0</ele><time>2026-03-26T07:30:02Z</time></trkpt><trkpt lat="45.931498966717754" lon="12.127541113845039"><ele>203.0</ele><time>2026-03-26T07:30:03Z</time></trkpt><trkpt lat="45.93158177272687" lon="12.127678716401178"><ele>201.4</ele><time>2026-03-26T07:30:04Z</time></trkpt><trkpt lat="45.931669073425674" lon="12.127797137558773"><ele>199.8</ele><time>2026-03-26T07:30:05Z</time></trkpt><trkpt lat="45.93175341383484" lon="12.127889852218397"><ele>198.2</ele><time>2026-03-26T07:30:06Z</time></trkpt><trkpt lat="45.931828079146946" lon="12.127963083151515"><ele>196.6</ele><time>2026-03-26T07:30:07Z</time></trkpt><trkpt lat="45.93188506874285" lon="12.128008655209605"><ele>195.0</ele><time>2026-03-26T07:30:08Z</time></trkpt><trkpt lat="45.93197124207681" lon="12.12807735517093"><ele>195.0</ele><time>2026-03-26T07:30:10Z</time></trkpt><trkpt lat="45.93203926426141" lon="12.128097737850773"><ele>195.0</ele><time>2026-03-26T07:30:13Z</time></trkpt><trkpt lat="45.93196367535005" lon="12.128089581678415"><ele>195.0</ele><time>2026-03-26T07:30:25Z</time></trkpt><trkpt lat="45.93189847031276" lon="12.128061884582037"><ele>195.0</ele><time>2026-03-26T07:30:30Z</time></trkpt><trkpt lat="45.931706970060674" lon="12.128667506010004"><ele>192.57142857142856</ele><time>2026-03-26T07:30:47Z</time></trkpt><trkpt lat="45.9316771016223" lon="12.128762741020347"><ele>190.14285714285714</ele><time>2026-03-26T07:30:55Z</time></trkpt><trkpt lat="45.93165299279982" lon="12.128869477783994"><ele>187.71428571428572</ele><time>2026-03-26T07:31:00Z</time></trkpt><trkpt lat="45.93159167215194" lon="12.12894616457651"><ele>185.28571428571428</ele><time>2026-03-26T07:31:03Z</time></trkpt><trkpt lat="45.9315756783878" lon="12.12904368916769"><ele>182.85714285714286</ele><time>2026-03-26T07:31:07Z</time></trkpt><trkpt lat="45.931590988356106" lon="12.128941158489917"><ele>180.42857142857142</ele><time>2026-03-26T07:31:22Z</time></trkpt><trkpt lat="45.93156198830612" lon="12.128850504566447"><ele>178.0</ele><time>2026-03-26T07:31:23Z</time></trkpt><trkpt lat="45.93166127811568" lon="12.128765077659224"><ele>178.0</ele><time>2026-03-26T07:31:23.999Z</time></trkpt><trkpt lat="45.931697404446105" lon="12.128628037208234"><ele>178.0</ele><time>2026-03-26T07:31:25.999Z</time></trkpt><trkpt lat="45.93175438495697" lon="12.128501130793204"><ele>178.0</ele><time>2026-03-26T07:31:27.999Z</time></trkpt><trkpt lat="45.931798216668895" lon="12.128326127620126"><ele>178.0</ele><time>2026-03-26T07:31:29.999Z</time></trkpt><trkpt lat="45.931824670627094" lon="12.128237972173817"><ele>178.0</ele><time>2026-03-26T07:31:30.999Z</time></trkpt><trkpt lat="45.931870999836356" lon="12.128172370126295"><ele>181.4</ele><time>2026-03-26T07:31:31.999Z</time></trkpt><trkpt lat="45.931972266968124" lon="12.128102502376159"><ele>184.8</ele><time>2026-03-26T07:31:33.999Z</time></trkpt><trkpt lat="45.93205457618003" lon="12.128054119136252"><ele>188.2</ele><time>2026-03-26T07:31:36.999Z</time></trkpt><trkpt lat="45.932185164126295" lon="12.128054977433868"><ele>191.6</ele><time>2026-03-26T07:31:38.999Z</time></trkpt><trkpt lat="45.932268269696785" lon="12.128050828463852"><ele>195.0</ele><time>2026-03-26T07:31:39.999Z</time></trkpt><trkpt lat="45.93233404662634" lon="12.128026047647019"><ele>195.0</ele><time>2026-03-26T07:31:40.999Z</time></trkpt><trkpt lat="45.93240372737527" lon="12.127983402886986"><ele>195.0</ele><time>2026-03-26T07:31:41.999Z</time></trkpt><trkpt lat="45.9324785358431" lon="12.127928989706403"><ele>195.0</ele><time>2026-03-26T07:31:42.999Z</time></trkpt><trkpt lat="45.93255640400875" lon="12.12785728884948"><ele>195.0</ele><time>2026-03-26T07:31:43.999Z</time></trkpt><trkpt lat="45.932637495540355" lon="12.127775123350846"><ele>195.0</ele><time>2026-03-26T07:31:44.999Z</time></trkpt><trkpt lat="45.932721314234016" lon="12.1276785578645"><ele>193.0</ele><time>2026-03-26T07:31:45.999Z</time></trkpt><trkpt lat="45.932800348234814" lon="12.12758939205483"><ele>191.0</ele><time>2026-03-26T07:31:47Z</time></trkpt><trkpt lat="45.93286114391274" lon="12.127523152698028"><ele>189.0</ele><time>2026-03-26T07:31:48Z</time></trkpt><trkpt lat="45.93293189107699" lon="12.127467848851278"><ele>187.0</ele><time>2026-03-26T07:31:50Z</time></trkpt><trkpt lat="45.93299402545481" lon="12.127597008975645"><ele>185.0</ele><time>2026-03-26T07:31:53Z</time></trkpt><trkpt lat="45.93305407856617" lon="12.12771942594309"><ele>185.0</ele><time>2026-03-26T07:31:55Z</time></trkpt><trkpt lat="45.933112465626515" lon="12.127862083905516"><ele>185.0</ele><time>2026-03-26T07:31:57Z</time></trkpt><trkpt lat="45.93317005091578" lon="12.127972097950412"><ele>185.0</ele><time>2026-03-26T07:32:16Z</time></trkpt><trkpt lat="45.93321053402583" lon="12.128053952881048"><ele>185.0</ele><time>2026-03-26T07:32:17Z</time></trkpt><trkpt lat="45.933249695272465" lon="12.128196702341121"><ele>185.0</ele><time>2026-03-26T07:32:19Z</time></trkpt><trkpt lat="45.9332206484411" lon="12.12833296207674"><ele>184.6</ele><time>2026-03-26T07:32:21Z</time></trkpt><trkpt lat="45.93312982529555" lon="12.1284266127834"><ele>184.2</ele><time>2026-03-26T07:32:23Z</time></trkpt><trkpt lat="45.933051981382995" lon="12.128400692763394"><ele>183.8</ele><time>2026-03-26T07:32:48Z</time></trkpt><trkpt lat="45.93300245393916" lon="12.128495791482788"><ele>183.4</ele><time>2026-03-26T07:32:50Z</time></trkpt><trkpt lat="45.93292278954646" lon="12.128611672469232"><ele>183.0</ele><time>2026-03-26T07:32:52Z</time></trkpt><trkpt lat="45.93281663023607" lon="12.128702056816357"><ele>183.0</ele><time>2026-03-26T07:32:54Z</time></trkpt><trkpt lat="45.932741718828936" lon="12.12873954578312"><ele>183.0</ele><time>2026-03-26T07:32:56Z</time></trkpt><trkpt lat="45.93270338221451" lon="12.128663146860525"><ele>183.0</ele><time>2026-03-26T07:32:58Z</time></trkpt><trkpt lat="45.932661695762164" lon="12.128547452798186"><ele>183.0</ele><time>2026-03-26T07:33:14Z</time></trkpt><trkpt lat="45.932627912912736" lon="12.128464198750308"><ele>183.0</ele><time>2026-03-26T07:33:26.999Z</time></trkpt><trkpt lat="45.93258116065192" lon="12.12836804862784"><ele>183.0</ele><time>2026-03-26T07:33:28.999Z</time></trkpt><trkpt lat="45.93253801794232" lon="12.128250550218203"><ele>183.0</ele><time>2026-03-26T07:33:38.999Z</time></trkpt><trkpt lat="45.932498710137175" lon="12.128129471673338"><ele>183.0</ele><time>2026-03-26T07:34:08Z</time></trkpt><trkpt lat="45.9324753301988" lon="12.12802984445274"><ele>183.0</ele><time>2026-03-26T07:34:10Z</time></trkpt><trkpt lat="45.932440449941" lon="12.128111292021043"><ele>183.0</ele><time>2026-03-26T07:34:59Z</time></trkpt><trkpt lat="45.93248653629723" lon="12.128219115103187"><ele>183.0</ele><time>2026-03-26T07:35:02Z</time></trkpt><trkpt lat="45.93253564384359" lon="12.128318336221485"><ele>183.0</ele><time>2026-03-26T07:35:04Z</time></trkpt><trkpt lat="45.932590024689326" lon="12.128434618034609"><ele>183.0</ele><time>2026-03-26T07:35:06Z</time></trkpt><trkpt lat="45.93264379112452" lon="12.128566030768843"><ele>183.0</ele><time>2026-03-26T07:35:08Z</time></trkpt><trkpt lat="45.93269820538287" lon="12.128698274997912"><ele>183.0</ele><time>2026-03-26T07:35:09.999Z</time></trkpt><trkpt lat="45.93274445306199" lon="12.128783699453505"><ele>183.0</ele><time>2026-03-26T07:35:11.999Z</time></trkpt><trkpt lat="45.93284639021938" lon="12.128745074537607"><ele>183.0</ele><time>2026-03-26T07:35:14.999Z</time></trkpt><trkpt lat="45.932909568830325" lon="12.128710672229323"><ele>183.0</ele><time>2026-03-26T07:35:15.999Z</time></trkpt><trkpt lat="45.93296218230271" lon="12.128645236474988"><ele>183.0</ele><time>2026-03-26T07:35:16.999Z</time></trkpt><trkpt lat="45.933070820186074" lon="12.128558300919668"><ele>183.0</ele><time>2026-03-26T07:35:18.999Z</time></trkpt><trkpt lat="45.933133566704115" lon="12.12849865253427"><ele>183.0</ele><time>2026-03-26T07:35:19.999Z</time></trkpt><trkpt lat="45.933195634559645" lon="12.128434626590344"><ele>183.0</ele><time>2026-03-26T07:35:20.999Z</time></trkpt><trkpt lat="45.93326997350147" lon="12.128298534775402"><ele>183.33333333333334</ele><time>2026-03-26T07:35:22.999Z</time></trkpt><trkpt lat="45.933276641363975" lon="12.12816766712767"><ele>183.66666666666666</ele><time>2026-03-26T07:35:24.999Z</time></trkpt><trkpt lat="45.933312344460205" lon="12.128089627223344"><ele>184.0</ele><time>2026-03-26T07:35:28.999Z</time></trkpt><trkpt lat="45.933256703687775" lon="12.128134038826797"><ele>184.33333333333331</ele><time>2026-03-26T07:35:34.999Z</time></trkpt><trkpt lat="45.933322309284755" lon="12.128094815829263"><ele>184.66666666666666</ele><time>2026-03-26T07:35:36.999Z</time></trkpt><trkpt lat="45.933425272982056" lon="12.128197887411963"><ele>185.0</ele><time>2026-03-26T07:35:37.999Z</time></trkpt><trkpt lat="45.93342275427616" lon="12.128304706857273"><ele>184.7142857142857</ele><time>2026-03-26T07:35:39.999Z</time></trkpt><trkpt lat="45.93338415603846" lon="12.12838094778492"><ele>184.42857142857142</ele><time>2026-03-26T07:35:41.999Z</time></trkpt><trkpt lat="45.93339851617991" lon="12.12852317055532"><ele>184.14285714285714</ele><time>2026-03-26T07:36:04Z</time></trkpt><trkpt lat="45.93339340434413" lon="12.128619066718265"><ele>183.85714285714283</ele><time>2026-03-26T07:36:07Z</time></trkpt><trkpt lat="45.933385419887315" lon="12.12852722795743"><ele>183.57142857142858</ele><time>2026-03-26T07:36:41Z</time></trkpt><trkpt lat="45.93339507122429" lon="12.128414645869956"><ele>183.28571428571428</ele><time>2026-03-26T07:36:44Z</time></trkpt><trkpt lat="45.9334230473331" lon="12.128326289466036"><ele>183.0</ele><time>2026-03-26T07:36:46Z</time></trkpt><trkpt lat="45.93347209524625" lon="12.128243073822182"><ele>182.66666666666666</ele><time>2026-03-26T07:36:50Z</time></trkpt><trkpt lat="45.93343937505115" lon="12.128163356072266"><ele>182.33333333333334</ele><time>2026-03-26T07:36:54Z</time></trkpt><trkpt lat="45.93338047261406" lon="12.128052278295252"><ele>182.0</ele><time>2026-03-26T07:37:14.999Z</time></trkpt><trkpt lat="45.933341117934866" lon="12.127946972203075"><ele>181.66666666666669</ele><time>2026-03-26T07:37:18.999Z</time></trkpt><trkpt lat="45.93330401168597" lon="12.127870174633328"><ele>181.33333333333334</ele><time>2026-03-26T07:37:21.999Z</time></trkpt><trkpt lat="45.93326841973411" lon="12.127786705708894"><ele>181.0</ele><time>2026-03-26T07:37:24.999Z</time></trkpt><trkpt lat="45.933219490070016" lon="12.127705017622052"><ele>181.66666666666669</ele><time>2026-03-26T07:37:26.999Z</time></trkpt><trkpt lat="45.93313359402648" lon="12.127578770045169"><ele>182.33333333333334</ele><time>2026-03-26T07:37:28.999Z</time></trkpt><trkpt lat="45.93305902120249" lon="12.127470079986438"><ele>183.0</ele><time>2026-03-26T07:37:30.999Z</time></trkpt><trkpt lat="45.93303017648929" lon="12.127389602606046"><ele>183.66666666666666</ele><time>2026-03-26T07:37:33.999Z</time></trkpt><trkpt lat="45.933060892716945" lon="12.127285476985586"><ele>184.33333333333331</ele><time>2026-03-26T07:37:37.999Z</time></trkpt><trkpt lat="45.93311631381748" lon="12.127242403761977"><ele>185.0</ele><time>2026-03-26T07:37:38.999Z</time></trkpt><trkpt lat="45.93322353767411" lon="12.127170497665155"><ele>185.16666666666666</ele><time>2026-03-26T07:37:40.999Z</time></trkpt><trkpt lat="45.933298575304086" lon="12.127077739719905"><ele>185.33333333333331</ele><time>2026-03-26T07:37:59.999Z</time></trkpt><trkpt lat="45.93335780074114" lon="12.127021249785239"><ele>185.5</ele><time>2026-03-26T07:38:00.999Z</time></trkpt><trkpt lat="45.93342262187952" lon="12.126957678429694"><ele>185.66666666666666</ele><time>2026-03-26T07:38:01.999Z</time></trkpt><trkpt lat="45.93348565210968" lon="12.126898193678768"><ele>185.83333333333334</ele><time>2026-03-26T07:38:02.999Z</time></trkpt><trkpt lat="45.933546573737836" lon="12.126840629790193"><ele>186.0</ele><time>2026-03-26T07:38:04Z</time></trkpt><trkpt lat="45.93361547386028" lon="12.126774850440293"><ele>186.0</ele><time>2026-03-26T07:38:05Z</time></trkpt><trkpt lat="45.93370020388241" lon="12.126698423586586"><ele>186.0</ele><time>2026-03-26T07:38:06Z</time></trkpt><trkpt lat="45.93379149037523" lon="12.126622121727582"><ele>186.0</ele><time>2026-03-26T07:38:07Z</time></trkpt><trkpt lat="45.93387982407967" lon="12.126559382480027"><ele>186.0</ele><time>2026-03-26T07:38:08Z</time></trkpt><trkpt lat="45.93396619283472" lon="12.126512168981312"><ele>186.0</ele><time>2026-03-26T07:38:10Z</time></trkpt><trkpt lat="45.93402772194738" lon="12.126482733837427"><ele>187.4</ele><time>2026-03-26T07:38:12Z</time></trkpt><trkpt lat="45.93415275012784" lon="12.126418424370298"><ele>188.8</ele><time>2026-03-26T07:38:14Z</time></trkpt><trkpt lat="45.93421792667488" lon="12.126389588344207"><ele>190.20000000000002</ele><time>2026-03-26T07:38:15Z</time></trkpt><trkpt lat="45.93429289810933" lon="12.126364164908702"><ele>191.60000000000002</ele><time>2026-03-26T07:38:16Z</time></trkpt><trkpt lat="45.934378415594175" lon="12.126346754005537"><ele>193.0</ele><time>2026-03-26T07:38:17Z</time></trkpt><trkpt lat="45.9344641313256" lon="12.126336588548314"><ele>193.0</ele><time>2026-03-26T07:38:18Z</time></trkpt><trkpt lat="45.93455058860369" lon="12.126336683927697"><ele>193.0</ele><time>2026-03-26T07:38:19Z</time></trkpt><trkpt lat="45.9346372478891" lon="12.126341698866723"><ele>193.0</ele><time>2026-03-26T07:38:20Z</time></trkpt><trkpt lat="45.934726082127966" lon="12.126346105161067"><ele>193.0</ele><time>2026-03-26T07:38:21Z</time></trkpt><trkpt lat="45.9348236311506" lon="12.126350886630215"><ele>193.0</ele><time>2026-03-26T07:38:22Z</time></trkpt><trkpt lat="45.93492014492067" lon="12.126350643563518"><ele>193.0</ele><time>2026-03-26T07:38:23Z</time></trkpt><trkpt lat="45.93502239062975" lon="12.126347502259359"><ele>193.0</ele><time>2026-03-26T07:38:24Z</time></trkpt><trkpt lat="45.935128732830634" lon="12.126340003202822"><ele>193.0</ele><time>2026-03-26T07:38:25Z</time></trkpt><trkpt lat="45.93523024631653" lon="12.12632651649738"><ele>193.0</ele><time>2026-03-26T07:38:26Z</time></trkpt><trkpt lat="45.93532554179484" lon="12.126304908628644"><ele>193.0</ele><time>2026-03-26T07:38:27Z</time></trkpt><trkpt lat="45.93541607308781" lon="12.12625320390424"><ele>191.75</ele><time>2026-03-26T07:38:28Z</time></trkpt><trkpt lat="45.93552173342691" lon="12.126194545337887"><ele>190.5</ele><time>2026-03-26T07:38:29Z</time></trkpt><trkpt lat="45.93562435147793" lon="12.126131896382127"><ele>189.25</ele><time>2026-03-26T07:38:30Z</time></trkpt><trkpt lat="45.93573208833444" lon="12.126073140468803"><ele>188.0</ele><time>2026-03-26T07:38:31Z</time></trkpt><trkpt lat="45.9358399896015" lon="12.126017656867047"><ele>187.4</ele><time>2026-03-26T07:38:32Z</time></trkpt><trkpt lat="45.93593767622053" lon="12.125957633190191"><ele>186.8</ele><time>2026-03-26T07:38:33Z</time></trkpt><trkpt lat="45.93602971787263" lon="12.12591099289913"><ele>186.2</ele><time>2026-03-26T07:38:34Z</time></trkpt><trkpt lat="45.936120247449836" lon="12.125882366862584"><ele>185.6</ele><time>2026-03-26T07:38:35Z</time></trkpt><trkpt lat="45.93620856773187" lon="12.125867356037041"><ele>185.0</ele><time>2026-03-26T07:38:36Z</time></trkpt><trkpt lat="45.93629993106355" lon="12.125871950703264"><ele>185.0</ele><time>2026-03-26T07:38:37Z</time></trkpt><trkpt lat="45.936390309071186" lon="12.125886450432573"><ele>185.0</ele><time>2026-03-26T07:38:38Z</time></trkpt><trkpt lat="45.93647812816026" lon="12.125900844157021"><ele>185.0</ele><time>2026-03-26T07:38:39Z</time></trkpt><trkpt lat="45.93656483937003" lon="12.12590835321531"><ele>185.0</ele><time>2026-03-26T07:38:40Z</time></trkpt><trkpt lat="45.936652068649146" lon="12.125915479757717"><ele>185.0</ele><time>2026-03-26T07:38:41Z</time></trkpt><trkpt lat="45.93673764835081" lon="12.125928950373904"><ele>185.0</ele><time>2026-03-26T07:38:42Z</time></trkpt><trkpt lat="45.93681984660003" lon="12.125938679283179"><ele>185.14285714285714</ele><time>2026-03-26T07:38:43Z</time></trkpt><trkpt lat="45.93688860421176" lon="12.125950368170473"><ele>185.28571428571428</ele><time>2026-03-26T07:38:44Z</time></trkpt><trkpt lat="45.93695377730866" lon="12.125956520843713"><ele>185.42857142857144</ele><time>2026-03-26T07:38:45Z</time></trkpt><trkpt lat="45.93702768386513" lon="12.12596690711147"><ele>185.57142857142856</ele><time>2026-03-26T07:38:46Z</time></trkpt><trkpt lat="45.93710191379362" lon="12.125972544067915"><ele>185.71428571428572</ele><time>2026-03-26T07:38:47Z</time></trkpt><trkpt lat="45.93717775726949" lon="12.125981393173896"><ele>185.85714285714286</ele><time>2026-03-26T07:38:48Z</time></trkpt><trkpt lat="45.937241536711035" lon="12.12598667064912"><ele>186.0</ele><time>2026-03-26T07:38:49Z</time></trkpt><trkpt lat="45.93731183196573" lon="12.125991552292536"><ele>186.0</ele><time>2026-03-26T07:38:51Z</time></trkpt><trkpt lat="45.937397774854745" lon="12.125860714661101"><ele>186.0</ele><time>2026-03-26T07:38:54Z</time></trkpt><trkpt lat="45.93746812291786" lon="12.125747256202832"><ele>186.0</ele><time>2026-03-26T07:38:56Z</time></trkpt><trkpt lat="45.93751925248539" lon="12.125650432387504"><ele>186.0</ele><time>2026-03-26T07:38:58Z</time></trkpt><trkpt lat="45.937649123516856" lon="12.125563779644004"><ele>187.8</ele><time>2026-03-26T07:40:01.999Z</time></trkpt><trkpt lat="45.93772835486994" lon="12.125487107060906"><ele>189.60000000000002</ele><time>2026-03-26T07:40:03.999Z</time></trkpt><trkpt lat="45.937790561603556" lon="12.1254570065035"><ele>191.4</ele><time>2026-03-26T07:40:09Z</time></trkpt><trkpt lat="45.93782118432322" lon="12.125580187161551"><ele>193.2</ele><time>2026-03-26T07:40:12Z</time></trkpt><trkpt lat="45.937896608397764" lon="12.12569907348681"><ele>195.0</ele><time>2026-03-26T07:40:14Z</time></trkpt><trkpt lat="45.93792925763607" lon="12.125848969406292"><ele>195.0</ele><time>2026-03-26T07:40:16Z</time></trkpt><trkpt lat="45.93802074629758" lon="12.1259247071467"><ele>195.0</ele><time>2026-03-26T07:40:18Z</time></trkpt><trkpt lat="45.93810653849228" lon="12.12599159659058"><ele>195.0</ele><time>2026-03-26T07:40:20Z</time></trkpt><trkpt lat="45.938165990687686" lon="12.126039963906893"><ele>195.0</ele><time>2026-03-26T07:40:21Z</time></trkpt><trkpt lat="45.938271855153666" lon="12.126074024529725"><ele>195.0</ele><time>2026-03-26T07:40:23Z</time></trkpt><trkpt lat="45.93833180341826" lon="12.126114293116398"><ele>195.0</ele><time>2026-03-26T07:40:25Z</time></trkpt><trkpt lat="45.938432071856035" lon="12.126114323443723"><ele>194.6</ele><time>2026-03-26T07:40:42Z</time></trkpt><trkpt lat="45.93860068128178" lon="12.126130367003356"><ele>194.2</ele><time>2026-03-26T07:40:47Z</time></trkpt><trkpt lat="45.93868160107489" lon="12.126098994939852"><ele>193.8</ele><time>2026-03-26T07:40:48Z</time></trkpt><trkpt lat="45.93874724559478" lon="12.126078795661167"><ele>193.4</ele><time>2026-03-26T07:40:49Z</time></trkpt><trkpt lat="45.93883185471927" lon="12.126092860671454"><ele>193.0</ele><time>2026-03-26T07:40:50Z</time></trkpt><trkpt lat="45.938940440595324" lon="12.12607717724348"><ele>193.0</ele><time>2026-03-26T07:40:51Z</time></trkpt><trkpt lat="45.93904250794881" lon="12.126060569610345"><ele>193.0</ele><time>2026-03-26T07:40:52Z</time></trkpt><trkpt lat="45.93913550918109" lon="12.126043225334643"><ele>193.0</ele><time>2026-03-26T07:40:53Z</time></trkpt><trkpt lat="45.939240811248304" lon="12.126015926306673"><ele>193.0</ele><time>2026-03-26T07:40:54Z</time></trkpt><trkpt lat="45.93936237408573" lon="12.125959900745192"><ele>193.0</ele><time>2026-03-26T07:40:55Z</time></trkpt><trkpt lat="45.93947786020695" lon="12.125906094672537"><ele>190.75</ele><time>2026-03-26T07:40:56Z</time></trkpt><trkpt lat="45.939593626083685" lon="12.125833423496074"><ele>188.5</ele><time>2026-03-26T07:40:57Z</time></trkpt><trkpt lat="45.93971658399445" lon="12.125756871435962"><ele>186.25</ele><time>2026-03-26T07:40:58Z</time></trkpt><trkpt lat="45.93984559568243" lon="12.125702395907524"><ele>184.0</ele><time>2026-03-26T07:40:59Z</time></trkpt><trkpt lat="45.939972136216" lon="12.125676378516468"><ele>183.0</ele><time>2026-03-26T07:41:00Z</time></trkpt><trkpt lat="45.940107713129166" lon="12.125675987741362"><ele>182.0</ele><time>2026-03-26T07:41:01Z</time></trkpt><trkpt lat="45.94023249059147" lon="12.125692879098498"><ele>181.0</ele><time>2026-03-26T07:41:02Z</time></trkpt><trkpt lat="45.940339781616665" lon="12.12576450837759"><ele>180.0</ele><time>2026-03-26T07:41:03Z</time></trkpt><trkpt lat="45.940445665442425" lon="12.125812577982405"><ele>180.0</ele><time>2026-03-26T07:41:04Z</time></trkpt><trkpt lat="45.94053362837403" lon="12.125872425333377"><ele>180.0</ele><time>2026-03-26T07:41:05Z</time></trkpt><trkpt lat="45.940625977157204" lon="12.125907686805355"><ele>180.0</ele><time>2026-03-26T07:41:06Z</time></trkpt><trkpt lat="45.94072252423534" lon="12.125919065025696"><ele>180.0</ele><time>2026-03-26T07:41:07Z</time></trkpt><trkpt lat="45.940818553161094" lon="12.125906400871346"><ele>180.0</ele><time>2026-03-26T07:41:08Z</time></trkpt><trkpt lat="45.94091865453396" lon="12.12586907135813"><ele>179.75</ele><time>2026-03-26T07:41:09Z</time></trkpt><trkpt lat="45.94102020838451" lon="12.125825744440405"><ele>179.5</ele><time>2026-03-26T07:41:10Z</time></trkpt><trkpt lat="45.94112370556494" lon="12.125775158976653"><ele>179.25</ele><time>2026-03-26T07:41:11Z</time></trkpt><trkpt lat="45.941232906593264" lon="12.125729419267456"><ele>179.0</ele><time>2026-03-26T07:41:11.999Z</time></trkpt><trkpt lat="45.94134833345202" lon="12.125675288315447"><ele>180.2</ele><time>2026-03-26T07:41:12.999Z</time></trkpt><trkpt lat="45.941461134759955" lon="12.125617413153105"><ele>181.39999999999998</ele><time>2026-03-26T07:41:13.999Z</time></trkpt><trkpt lat="45.94156204412721" lon="12.12556049974255"><ele>182.6</ele><time>2026-03-26T07:41:14.999Z</time></trkpt><trkpt lat="45.94165068280389" lon="12.12551012271156"><ele>183.8</ele><time>2026-03-26T07:41:15.999Z</time></trkpt><trkpt lat="45.941723917619804" lon="12.125487389339805"><ele>185.0</ele><time>2026-03-26T07:41:16.999Z</time></trkpt><trkpt lat="45.941792578485305" lon="12.125483794554215"><ele>185.0</ele><time>2026-03-26T07:41:17.999Z</time></trkpt><trkpt lat="45.94189083678636" lon="12.1255128841429"><ele>185.0</ele><time>2026-03-26T07:41:19.999Z</time></trkpt><trkpt lat="45.94194283651293" lon="12.125588211880736"><ele>185.0</ele><time>2026-03-26T07:41:21.999Z</time></trkpt><trkpt lat="45.94201365512334" lon="12.125590108360731"><ele>185.0</ele><time>2026-03-26T07:41:25.999Z</time></trkpt><trkpt lat="45.94194178010412" lon="12.12548616396192"><ele>185.0</ele><time>2026-03-26T07:41:52.999Z</time></trkpt><trkpt lat="45.941913976073316" lon="12.125389221664783"><ele>185.0</ele><time>2026-03-26T07:41:55.999Z</time></trkpt><trkpt lat="45.9417428659564" lon="12.125437330852924"><ele>185.83333333333331</ele><time>2026-03-26T07:41:56.999Z</time></trkpt><trkpt lat="45.941661962817065" lon="12.125447466919857"><ele>186.66666666666666</ele><time>2026-03-26T07:41:57.999Z</time></trkpt><trkpt lat="45.94158952936895" lon="12.125487372407346"><ele>187.5</ele><time>2026-03-26T07:41:58.999Z</time></trkpt><trkpt lat="45.94152246455866" lon="12.125534704409011"><ele>188.33333333333334</ele><time>2026-03-26T07:41:59.999Z</time></trkpt><trkpt lat="45.94143268757065" lon="12.125576959994426"><ele>189.16666666666669</ele><time>2026-03-26T07:42:00.999Z</time></trkpt><trkpt lat="45.94133433290033" lon="12.125626504992432"><ele>190.0</ele><time>2026-03-26T07:42:01.999Z</time></trkpt><trkpt lat="45.94122953003948" lon="12.125678923237185"><ele>188.0</ele><time>2026-03-26T07:42:02.999Z</time></trkpt><trkpt lat="45.941120590329625" lon="12.12573433543447"><ele>186.0</ele><time>2026-03-26T07:42:03.999Z</time></trkpt><trkpt lat="45.94102380415357" lon="12.125777678295288"><ele>184.0</ele><time>2026-03-26T07:42:04.999Z</time></trkpt><trkpt lat="45.94091508979791" lon="12.125818341496588"><ele>182.0</ele><time>2026-03-26T07:42:05.999Z</time></trkpt><trkpt lat="45.94081374810757" lon="12.125857002511712"><ele>180.0</ele><time>2026-03-26T07:42:06.999Z</time></trkpt><trkpt lat="45.94071719761395" lon="12.125885580693703"><ele>180.0</ele><time>2026-03-26T07:42:07.999Z</time></trkpt><trkpt lat="45.94062877884092" lon="12.125883477109388"><ele>180.0</ele><time>2026-03-26T07:42:08.999Z</time></trkpt><trkpt lat="45.940532077970204" lon="12.125846894048205"><ele>180.0</ele><time>2026-03-26T07:42:09.999Z</time></trkpt><trkpt lat="45.94043741536923" lon="12.125783618174264"><ele>180.0</ele><time>2026-03-26T07:42:10.999Z</time></trkpt><trkpt lat="45.94034199678797" lon="12.125704886538765"><ele>180.0</ele><time>2026-03-26T07:42:11.999Z</time></trkpt><trkpt lat="45.94023428645908" lon="12.125646422814123"><ele>185.25</ele><time>2026-03-26T07:42:12.999Z</time></trkpt><trkpt lat="45.94011390223609" lon="12.125633031435521"><ele>190.5</ele><time>2026-03-26T07:42:14Z</time></trkpt><trkpt lat="45.939984741562725" lon="12.125646094094838"><ele>195.75</ele><time>2026-03-26T07:42:15Z</time></trkpt><trkpt lat="45.93985109394967" lon="12.125685132360474"><ele>201.0</ele><time>2026-03-26T07:42:16Z</time></trkpt><trkpt lat="45.93971477405899" lon="12.125725574170733"><ele>196.75</ele><time>2026-03-26T07:42:17Z</time></trkpt><trkpt lat="45.93958378018703" lon="12.125800031771185"><ele>192.5</ele><time>2026-03-26T07:42:18Z</time></trkpt><trkpt lat="45.93946300242651" lon="12.125875322035904"><ele>188.25</ele><time>2026-03-26T07:42:19Z</time></trkpt><trkpt lat="45.93934782055415" lon="12.125931299245067"><ele>184.0</ele><time>2026-03-26T07:42:20Z</time></trkpt><trkpt lat="45.93923502265033" lon="12.125968922406015"><ele>185.79999999999998</ele><time>2026-03-26T07:42:21Z</time></trkpt><trkpt lat="45.939125550933284" lon="12.125997559913062"><ele>187.6</ele><time>2026-03-26T07:42:22Z</time></trkpt><trkpt lat="45.939019932106106" lon="12.126033125764136"><ele>189.4</ele><time>2026-03-26T07:42:23Z</time></trkpt><trkpt lat="45.93891489636649" lon="12.126046230349743"><ele>191.2</ele><time>2026-03-26T07:42:24Z</time></trkpt><trkpt lat="45.938815936117244" lon="12.12606457726257"><ele>193.0</ele><time>2026-03-26T07:42:25Z</time></trkpt><trkpt lat="45.93872446812739" lon="12.126077863427977"><ele>192.99999999999997</ele><time>2026-03-26T07:42:26Z</time></trkpt><trkpt lat="45.93864991527203" lon="12.126085521812627"><ele>193.0</ele><time>2026-03-26T07:42:27Z</time></trkpt><trkpt lat="45.93854883411333" lon="12.126122589066972"><ele>193.0</ele><time>2026-03-26T07:42:29Z</time></trkpt><trkpt lat="45.93847250423445" lon="12.126128796071475"><ele>193.0</ele><time>2026-03-26T07:42:31Z</time></trkpt><trkpt lat="45.93841451839823" lon="12.126254821155745"><ele>192.99999999999997</ele><time>2026-03-26T07:42:34Z</time></trkpt><trkpt lat="45.9384164418553" lon="12.126381728554152"><ele>193.0</ele><time>2026-03-26T07:42:36Z</time></trkpt><trkpt lat="45.93847374723501" lon="12.126429393822173"><ele>192.99999999999997</ele><time>2026-03-26T07:42:51Z</time></trkpt><trkpt lat="45.93847314760213" lon="12.126523690543348"><ele>193.0</ele><time>2026-03-26T07:42:54Z</time></trkpt><trkpt lat="45.938507451622264" lon="12.126642793852934"><ele>193.0</ele><time>2026-03-26T07:42:56Z</time></trkpt><trkpt lat="45.93852052754788" lon="12.1267950981866"><ele>193.0</ele><time>2026-03-26T07:42:59Z</time></trkpt><trkpt lat="45.93854080175652" lon="12.126922312696253"><ele>192.99999999999997</ele><time>2026-03-26T07:43:01Z</time></trkpt><trkpt lat="45.93855119248576" lon="12.127028140678235"><ele>193.0</ele><time>2026-03-26T07:43:03Z</time></trkpt><trkpt lat="45.938544085024006" lon="12.127128001476148"><ele>190.49999999999997</ele><time>2026-03-26T07:43:31.999Z</time></trkpt><trkpt lat="45.93851050649466" lon="12.127208883184593"><ele>188.0</ele><time>2026-03-26T07:43:42.999Z</time></trkpt><trkpt lat="45.938499479036125" lon="12.12732174358647"><ele>185.5</ele><time>2026-03-26T07:43:44.999Z</time></trkpt><trkpt lat="45.93852697828224" lon="12.127457594392258"><ele>183.0</ele><time>2026-03-26T07:43:46.999Z</time></trkpt><trkpt lat="45.93853609133296" lon="12.127631320678244"><ele>180.5</ele><time>2026-03-26T07:43:48.999Z</time></trkpt><trkpt lat="45.938508686148175" lon="12.127731651656548"><ele>178.0</ele><time>2026-03-26T07:43:50.999Z</time></trkpt><trkpt lat="45.93843494291577" lon="12.127778009360291"><ele>177.83333333333334</ele><time>2026-03-26T07:43:52.999Z</time></trkpt><trkpt lat="45.938365934770516" lon="12.127780229275379"><ele>177.66666666666669</ele><time>2026-03-26T07:43:54.999Z</time></trkpt><trkpt lat="45.938278615131864" lon="12.127811608180426"><ele>177.5</ele><time>2026-03-26T07:44:16.999Z</time></trkpt><trkpt lat="45.938210752807706" lon="12.127843021763029"><ele>177.33333333333334</ele><time>2026-03-26T07:44:26Z</time></trkpt><trkpt lat="45.938113580489876" lon="12.127839431003876"><ele>177.16666666666666</ele><time>2026-03-26T07:44:50Z</time></trkpt><trkpt lat="45.938002483541524" lon="12.127884635123504"><ele>177.0</ele><time>2026-03-26T07:44:52Z</time></trkpt><trkpt lat="45.93792819881321" lon="12.127995797593186"><ele>177.0</ele><time>2026-03-26T07:44:54Z</time></trkpt><trkpt lat="45.93793109076564" lon="12.128168045698194"><ele>177.0</ele><time>2026-03-26T07:44:56Z</time></trkpt><trkpt lat="45.93795683497283" lon="12.128288055506713"><ele>177.0</ele><time>2026-03-26T07:44:58Z</time></trkpt><trkpt lat="45.93795463472958" lon="12.12843340731195"><ele>177.0</ele><time>2026-03-26T07:45:14Z</time></trkpt><trkpt lat="45.937976039907085" lon="12.128527160160088"><ele>177.0</ele><time>2026-03-26T07:45:15Z</time></trkpt><trkpt lat="45.93799915203288" lon="12.12867470572389"><ele>176.66666666666666</ele><time>2026-03-26T07:45:16.999Z</time></trkpt><trkpt lat="45.93801762823768" lon="12.128834602990041"><ele>176.33333333333334</ele><time>2026-03-26T07:45:18.999Z</time></trkpt><trkpt lat="45.93792085855876" lon="12.128865572653028"><ele>176.0</ele><time>2026-03-26T07:45:21.999Z</time></trkpt><trkpt lat="45.937849808591096" lon="12.128864212190134"><ele>175.66666666666669</ele><time>2026-03-26T07:45:23.999Z</time></trkpt><trkpt lat="45.93777975064364" lon="12.128918919142162"><ele>175.33333333333334</ele><time>2026-03-26T07:45:41.999Z</time></trkpt><trkpt lat="45.93771349466255" lon="12.128925878432415"><ele>175.0</ele><time>2026-03-26T07:45:45.999Z</time></trkpt><trkpt lat="45.93765014592587" lon="12.128959682655474"><ele>175.0</ele><time>2026-03-26T07:45:55.999Z</time></trkpt><trkpt lat="45.937580739869425" lon="12.128926069837151"><ele>175.0</ele><time>2026-03-26T07:45:57.999Z</time></trkpt><trkpt lat="45.93751128624917" lon="12.128921373898612"><ele>175.0</ele><time>2026-03-26T07:46:06.999Z</time></trkpt><trkpt lat="45.93751308964524" lon="12.12905070767789"><ele>175.0</ele><time>2026-03-26T07:46:32Z</time></trkpt><trkpt lat="45.93758273369095" lon="12.129049071584761"><ele>175.0</ele><time>2026-03-26T07:46:36Z</time></trkpt><trkpt lat="45.937682708063065" lon="12.128977573647054"><ele>175.0</ele><time>2026-03-26T07:46:39Z</time></trkpt><trkpt lat="45.93779711291059" lon="12.128947999936422"><ele>175.0</ele><time>2026-03-26T07:46:41Z</time></trkpt><trkpt lat="45.937908449462256" lon="12.128933840186816"><ele>175.0</ele><time>2026-03-26T07:46:43Z</time></trkpt><trkpt lat="45.93800165929414" lon="12.128908429458088"><ele>175.0</ele><time>2026-03-26T07:46:45Z</time></trkpt><trkpt lat="45.93803628421329" lon="12.128827008216035"><ele>175.0</ele><time>2026-03-26T07:46:47Z</time></trkpt><trkpt lat="45.938018692094005" lon="12.12868181461272"><ele>175.0</ele><time>2026-03-26T07:46:49Z</time></trkpt><trkpt lat="45.93798493904457" lon="12.128518519843393"><ele>175.0</ele><time>2026-03-26T07:46:51Z</time></trkpt><trkpt lat="45.937970787148785" lon="12.128370782597855"><ele>175.0</ele><time>2026-03-26T07:46:53Z</time></trkpt><trkpt lat="45.937954904112225" lon="12.12819215529076"><ele>175.0</ele><time>2026-03-26T07:46:55Z</time></trkpt><trkpt lat="45.937942975034716" lon="12.128101907195084"><ele>175.0</ele><time>2026-03-26T07:46:56Z</time></trkpt><trkpt lat="45.93793554857274" lon="12.127979207521067"><ele>175.0</ele><time>2026-03-26T07:46:58Z</time></trkpt><trkpt lat="45.9378471237443" lon="12.127939099441871"><ele>175.2</ele><time>2026-03-26T07:47:03Z</time></trkpt><trkpt lat="45.93776538753972" lon="12.12797388774403"><ele>175.4</ele><time>2026-03-26T07:47:05Z</time></trkpt><trkpt lat="45.937680276949735" lon="12.127999367149254"><ele>175.60000000000002</ele><time>2026-03-26T07:47:07Z</time></trkpt><trkpt lat="45.93757124998846" lon="12.128033502134489"><ele>175.8</ele><time>2026-03-26T07:47:08.999Z</time></trkpt><trkpt lat="45.93745016394966" lon="12.128051972303535"><ele>176.0</ele><time>2026-03-26T07:47:10.999Z</time></trkpt><trkpt lat="45.93737903817064" lon="12.12808040491084"><ele>176.0</ele><time>2026-03-26T07:47:11.999Z</time></trkpt><trkpt lat="45.93731521252162" lon="12.128103999859322"><ele>176.0</ele><time>2026-03-26T07:47:12.999Z</time></trkpt><trkpt lat="45.93719168549764" lon="12.128149652353935"><ele>176.0</ele><time>2026-03-26T07:47:14.999Z</time></trkpt><trkpt lat="45.93712371270708" lon="12.128174692356309"><ele>176.0</ele><time>2026-03-26T07:47:15.999Z</time></trkpt><trkpt lat="45.93705910120673" lon="12.128200701947174"><ele>176.0</ele><time>2026-03-26T07:47:16.999Z</time></trkpt><trkpt lat="45.93699493521436" lon="12.128225200996022"><ele>176.0</ele><time>2026-03-26T07:47:17.999Z</time></trkpt><trkpt lat="45.936928511965505" lon="12.128253128172865"><ele>175.83333333333331</ele><time>2026-03-26T07:47:18.999Z</time></trkpt><trkpt lat="45.93685495089733" lon="12.128284828013683"><ele>175.66666666666666</ele><time>2026-03-26T07:47:19.999Z</time></trkpt><trkpt lat="45.936776434449094" lon="12.128309928065455"><ele>175.5</ele><time>2026-03-26T07:47:20.999Z</time></trkpt><trkpt lat="45.936699958799124" lon="12.128330126283378"><ele>175.33333333333334</ele><time>2026-03-26T07:47:21.999Z</time></trkpt><trkpt lat="45.93663533531107" lon="12.128347465678976"><ele>175.16666666666669</ele><time>2026-03-26T07:47:22.999Z</time></trkpt><trkpt lat="45.936556718647495" lon="12.128356934563579"><ele>175.0</ele><time>2026-03-26T07:47:24.999Z</time></trkpt><trkpt lat="45.93654412655394" lon="12.128236598107193"><ele>175.0</ele><time>2026-03-26T07:47:47.999Z</time></trkpt><trkpt lat="45.936556233013796" lon="12.128336714059845"><ele>175.0</ele><time>2026-03-26T07:47:54.999Z</time></trkpt><trkpt lat="45.936650824974116" lon="12.128371091682768"><ele>175.0</ele><time>2026-03-26T07:48:02.999Z</time></trkpt><trkpt lat="45.93678726504585" lon="12.128348059592469"><ele>175.0</ele><time>2026-03-26T07:48:04.999Z</time></trkpt><trkpt lat="45.93685014401919" lon="12.128322103986843"><ele>175.0</ele><time>2026-03-26T07:48:05.999Z</time></trkpt><trkpt lat="45.93697899274435" lon="12.12827246100822"><ele>175.0</ele><time>2026-03-26T07:48:07.999Z</time></trkpt><trkpt lat="45.93705938063644" lon="12.128248386533933"><ele>175.0</ele><time>2026-03-26T07:48:08.999Z</time></trkpt><trkpt lat="45.937142602556925" lon="12.128223025142262"><ele>175.0</ele><time>2026-03-26T07:48:09.999Z</time></trkpt><trkpt lat="45.93721406088986" lon="12.128201295204178"><ele>175.0</ele><time>2026-03-26T07:48:10.999Z</time></trkpt><trkpt lat="45.93730244964629" lon="12.128164819515554"><ele>175.0</ele><time>2026-03-26T07:48:12.999Z</time></trkpt><trkpt lat="45.93724263493242" lon="12.127924540359581"><ele>175.16666666666669</ele><time>2026-03-26T07:48:14.999Z</time></trkpt><trkpt lat="45.93722873897233" lon="12.127834036615582"><ele>175.33333333333334</ele><time>2026-03-26T07:48:15.999Z</time></trkpt><trkpt lat="45.93721446508251" lon="12.12774107147395"><ele>175.5</ele><time>2026-03-26T07:48:16.999Z</time></trkpt><trkpt lat="45.93720562180147" lon="12.127645824665802"><ele>175.66666666666666</ele><time>2026-03-26T07:48:34Z</time></trkpt><trkpt lat="45.93718462961025" lon="12.127509512730102"><ele>175.83333333333331</ele><time>2026-03-26T07:48:36Z</time></trkpt><trkpt lat="45.93716554479702" lon="12.127422513584085"><ele>176.0</ele><time>2026-03-26T07:48:38Z</time></trkpt><trkpt lat="45.93718767925356" lon="12.12728324846111"><ele>177.4</ele><time>2026-03-26T07:49:04Z</time></trkpt><trkpt lat="45.9372398518331" lon="12.127195235280679"><ele>178.8</ele><time>2026-03-26T07:49:07Z</time></trkpt><trkpt lat="45.93732122859387" lon="12.127219231034223"><ele>180.20000000000002</ele><time>2026-03-26T07:49:24.999Z</time></trkpt><trkpt lat="45.93742321883783" lon="12.127193434346278"><ele>181.60000000000002</ele><time>2026-03-26T07:49:26.999Z</time></trkpt><trkpt lat="45.937530844252" lon="12.127147786775891"><ele>183.0</ele><time>2026-03-26T07:49:28.999Z</time></trkpt><trkpt lat="45.93764334138715" lon="12.127109958441716"><ele>183.0</ele><time>2026-03-26T07:49:30.999Z</time></trkpt><trkpt lat="45.93770912693346" lon="12.127087247459443"><ele>183.0</ele><time>2026-03-26T07:49:31.999Z</time></trkpt><trkpt lat="45.937783326881274" lon="12.127062293976964"><ele>183.0</ele><time>2026-03-26T07:49:32.999Z</time></trkpt><trkpt lat="45.93786387128468" lon="12.127035669600259"><ele>183.0</ele><time>2026-03-26T07:49:33.999Z</time></trkpt><trkpt lat="45.93794090908748" lon="12.12701151064604"><ele>183.0</ele><time>2026-03-26T07:49:34.999Z</time></trkpt><trkpt lat="45.9380045799976" lon="12.126964466100148"><ele>183.0</ele><time>2026-03-26T07:49:35.999Z</time></trkpt><trkpt lat="45.93809780243496" lon="12.12694710415227"><ele>183.0</ele><time>2026-03-26T07:49:37.999Z</time></trkpt><trkpt lat="45.93818179393894" lon="12.126915043246086"><ele>183.0</ele><time>2026-03-26T07:49:39.999Z</time></trkpt><trkpt lat="45.93823866072987" lon="12.126858510944201"><ele>183.0</ele><time>2026-03-26T07:49:42.999Z</time></trkpt><trkpt lat="45.93834916227472" lon="12.12698939798978"><ele>183.0</ele><time>2026-03-26T07:49:47.999Z</time></trkpt><trkpt lat="45.93838648019197" lon="12.127079749203808"><ele>183.0</ele><time>2026-03-26T07:49:48.999Z</time></trkpt><trkpt lat="45.93842597651086" lon="12.12716431963423"><ele>183.0</ele><time>2026-03-26T07:49:49.999Z</time></trkpt><trkpt lat="45.938458711371595" lon="12.127260724135034"><ele>182.0</ele><time>2026-03-26T07:49:50.999Z</time></trkpt><trkpt lat="45.93849567781208" lon="12.127375853268576"><ele>181.0</ele><time>2026-03-26T07:49:51.999Z</time></trkpt><trkpt lat="45.938524605428945" lon="12.12750891685304"><ele>180.0</ele><time>2026-03-26T07:49:52.999Z</time></trkpt><trkpt lat="45.938532850844375" lon="12.127639851342803"><ele>179.0</ele><time>2026-03-26T07:49:53.999Z</time></trkpt><trkpt lat="45.93852638676865" lon="12.127773239677255"><ele>178.0</ele><time>2026-03-26T07:49:54.999Z</time></trkpt><trkpt lat="45.93851503120851" lon="12.127908915313325"><ele>177.5</ele><time>2026-03-26T07:49:55.999Z</time></trkpt><trkpt lat="45.9385111402113" lon="12.128053708566393"><ele>177.0</ele><time>2026-03-26T07:49:56.999Z</time></trkpt><trkpt lat="45.938509236823876" lon="12.128187840977542"><ele>176.5</ele><time>2026-03-26T07:49:57.999Z</time></trkpt><trkpt lat="45.93851252244674" lon="12.128312780735595"><ele>176.0</ele><time>2026-03-26T07:49:58.999Z</time></trkpt><trkpt lat="45.938520375458175" lon="12.128427578516801"><ele>175.5</ele><time>2026-03-26T07:49:59.999Z</time></trkpt><trkpt lat="45.93853904888408" lon="12.128546387189237"><ele>175.0</ele><time>2026-03-26T07:50:00.999Z</time></trkpt><trkpt lat="45.93856707994032" lon="12.128653136342658"><ele>174.6</ele><time>2026-03-26T07:50:01.999Z</time></trkpt><trkpt lat="45.93860519376476" lon="12.12875525465466"><ele>174.2</ele><time>2026-03-26T07:50:02.999Z</time></trkpt><trkpt lat="45.938647777231644" lon="12.128864580086063"><ele>173.8</ele><time>2026-03-26T07:50:03.999Z</time></trkpt><trkpt lat="45.93869454617407" lon="12.12896979483719"><ele>173.4</ele><time>2026-03-26T07:50:04.999Z</time></trkpt><trkpt lat="45.93873947786563" lon="12.129089160766206"><ele>173.0</ele><time>2026-03-26T07:50:05.999Z</time></trkpt><trkpt lat="45.93880051787814" lon="12.12924564710379"><ele>172.8</ele><time>2026-03-26T07:50:06.999Z</time></trkpt><trkpt lat="45.93886359906746" lon="12.129391528663785"><ele>172.60000000000002</ele><time>2026-03-26T07:50:07.999Z</time></trkpt><trkpt lat="45.93892330475714" lon="12.129538117777114"><ele>172.39999999999998</ele><time>2026-03-26T07:50:08.999Z</time></trkpt><trkpt lat="45.938982898486636" lon="12.129669842420492"><ele>172.2</ele><time>2026-03-26T07:50:09.999Z</time></trkpt><trkpt lat="45.939037652363446" lon="12.129782110638212"><ele>172.0</ele><time>2026-03-26T07:50:10.999Z</time></trkpt><trkpt lat="45.939087248127414" lon="12.129862415713978"><ele>172.0</ele><time>2026-03-26T07:50:11.999Z</time></trkpt><trkpt lat="45.93913177293019" lon="12.129926505885848"><ele>172.0</ele><time>2026-03-26T07:50:12.999Z</time></trkpt><trkpt lat="45.939173795783894" lon="12.130010596466816"><ele>172.0</ele><time>2026-03-26T07:50:14.999Z</time></trkpt><trkpt lat="45.939237836834444" lon="12.129816775384421"><ele>172.0</ele><time>2026-03-26T07:50:16.999Z</time></trkpt><trkpt lat="45.93908100711617" lon="12.129740650562475"><ele>172.0</ele><time>2026-03-26T07:50:21.999Z</time></trkpt><trkpt lat="45.93900107559113" lon="12.129635728013945"><ele>172.0</ele><time>2026-03-26T07:50:23.999Z</time></trkpt><trkpt lat="45.93896384742115" lon="12.129549285737507"><ele>172.0</ele><time>2026-03-26T07:50:24.999Z</time></trkpt><trkpt lat="45.938920199139766" lon="12.129445289718719"><ele>172.0</ele><time>2026-03-26T07:50:25.999Z</time></trkpt><trkpt lat="45.93887475222247" lon="12.129328722668262"><ele>172.0</ele><time>2026-03-26T07:50:26.999Z</time></trkpt><trkpt lat="45.93883221620676" lon="12.12922120963978"><ele>172.0</ele><time>2026-03-26T07:50:27.999Z</time></trkpt><trkpt lat="45.938783790534266" lon="12.129098546436637"><ele>172.25</ele><time>2026-03-26T07:50:28.999Z</time></trkpt><trkpt lat="45.938730946515854" lon="12.128967809964314"><ele>172.5</ele><time>2026-03-26T07:50:29.999Z</time></trkpt><trkpt lat="45.9386746111317" lon="12.128828341292872"><ele>172.75</ele><time>2026-03-26T07:50:30.999Z</time></trkpt><trkpt lat="45.93861923133643" lon="12.128673477388151"><ele>173.0</ele><time>2026-03-26T07:50:31.999Z</time></trkpt><trkpt lat="45.93857172082844" lon="12.128506834566563"><ele>173.0</ele><time>2026-03-26T07:50:32.999Z</time></trkpt><trkpt lat="45.938543013044715" lon="12.128318202145985"><ele>173.0</ele><time>2026-03-26T07:50:33.999Z</time></trkpt><trkpt lat="45.938538577045" lon="12.12812272388687"><ele>173.0</ele><time>2026-03-26T07:50:34.999Z</time></trkpt><trkpt lat="45.93854660433052" lon="12.127926500559122"><ele>173.0</ele><time>2026-03-26T07:50:35.999Z</time></trkpt><trkpt lat="45.93855156568859" lon="12.127747960955997"><ele>173.5</ele><time>2026-03-26T07:50:37Z</time></trkpt><trkpt lat="45.938548455982435" lon="12.127567243674003"><ele>174.0</ele><time>2026-03-26T07:50:38Z</time></trkpt><trkpt lat="45.938532646806536" lon="12.127387696212981"><ele>174.5</ele><time>2026-03-26T07:50:39Z</time></trkpt><trkpt lat="45.93849616297363" lon="12.127216425251302"><ele>175.0</ele><time>2026-03-26T07:50:40Z</time></trkpt><trkpt lat="45.9384395273073" lon="12.12705521756226"><ele>177.0</ele><time>2026-03-26T07:50:41Z</time></trkpt><trkpt lat="45.93836306491796" lon="12.12691046418177"><ele>179.0</ele><time>2026-03-26T07:50:42Z</time></trkpt><trkpt lat="45.93827385410664" lon="12.1267975275685"><ele>181.0</ele><time>2026-03-26T07:50:43Z</time></trkpt><trkpt lat="45.938185070486014" lon="12.126711365555446"><ele>183.0</ele><time>2026-03-26T07:50:44Z</time></trkpt><trkpt lat="45.93809973793547" lon="12.126632329777864"><ele>185.0</ele><time>2026-03-26T07:50:45Z</time></trkpt><trkpt lat="45.93803180492304" lon="12.126541222263874"><ele>187.0</ele><time>2026-03-26T07:50:46Z</time></trkpt><trkpt lat="45.93798263542697" lon="12.126431844798136"><ele>189.0</ele><time>2026-03-26T07:50:47Z</time></trkpt><trkpt lat="45.93794720371105" lon="12.126341554806947"><ele>191.0</ele><time>2026-03-26T07:50:48Z</time></trkpt><trkpt lat="45.937887362868814" lon="12.126250885683996"><ele>193.0</ele><time>2026-03-26T07:50:50Z</time></trkpt><trkpt lat="45.93793794003399" lon="12.126194785781149"><ele>195.0</ele><time>2026-03-26T07:51:08Z</time></trkpt><trkpt lat="45.937859404484506" lon="12.12621123177058"><ele>195.0</ele><time>2026-03-26T07:51:10Z</time></trkpt><trkpt lat="45.937797118564745" lon="12.126186898092948"><ele>195.0</ele><time>2026-03-26T07:51:11Z</time></trkpt><trkpt lat="45.937685834965365" lon="12.126131835705632"><ele>195.0</ele><time>2026-03-26T07:51:38.999Z</time></trkpt><trkpt lat="45.93761203276555" lon="12.126086994926203"><ele>195.0</ele><time>2026-03-26T07:52:00.999Z</time></trkpt><trkpt lat="45.937541404293604" lon="12.12603781557379"><ele>195.0</ele><time>2026-03-26T07:52:02.999Z</time></trkpt><trkpt lat="45.93740771628846" lon="12.12595299837113"><ele>193.5</ele><time>2026-03-26T07:52:04.999Z</time></trkpt><trkpt lat="45.937340995346005" lon="12.125928739088417"><ele>192.0</ele><time>2026-03-26T07:52:05.999Z</time></trkpt><trkpt lat="45.937271812678574" lon="12.125920553202969"><ele>190.5</ele><time>2026-03-26T07:52:06.999Z</time></trkpt><trkpt lat="45.93719285453536" lon="12.125913248124355"><ele>189.0</ele><time>2026-03-26T07:52:07.999Z</time></trkpt><trkpt lat="45.93710422561752" lon="12.125904494317338"><ele>187.5</ele><time>2026-03-26T07:52:08.999Z</time></trkpt><trkpt lat="45.93700495000774" lon="12.125895407064899"><ele>186.0</ele><time>2026-03-26T07:52:09.999Z</time></trkpt><trkpt lat="45.93690767944562" lon="12.125881420356217"><ele>186.0</ele><time>2026-03-26T07:52:10.999Z</time></trkpt><trkpt lat="45.93682789351806" lon="12.125865393090663"><ele>186.0</ele><time>2026-03-26T07:52:11.999Z</time></trkpt><trkpt lat="45.93675355312529" lon="12.125863439900852"><ele>186.0</ele><time>2026-03-26T07:52:12.999Z</time></trkpt><trkpt lat="45.93667938824675" lon="12.125849634696081"><ele>186.0</ele><time>2026-03-26T07:52:13.999Z</time></trkpt><trkpt lat="45.93658853032621" lon="12.125839421781084"><ele>186.0</ele><time>2026-03-26T07:52:14.999Z</time></trkpt><trkpt lat="45.93648944596685" lon="12.125826323258272"><ele>186.0</ele><time>2026-03-26T07:52:15.999Z</time></trkpt><trkpt lat="45.936378613683196" lon="12.125812048342686"><ele>185.8</ele><time>2026-03-26T07:52:16.999Z</time></trkpt><trkpt lat="45.93626589810824" lon="12.125804234905523"><ele>185.60000000000002</ele><time>2026-03-26T07:52:17.999Z</time></trkpt><trkpt lat="45.93616016326436" lon="12.125811370059564"><ele>185.4</ele><time>2026-03-26T07:52:18.999Z</time></trkpt><trkpt lat="45.93605563641718" lon="12.125842305874231"><ele>185.2</ele><time>2026-03-26T07:52:19.999Z</time></trkpt><trkpt lat="45.935949943008794" lon="12.125891035370397"><ele>185.0</ele><time>2026-03-26T07:52:20.999Z</time></trkpt><trkpt lat="45.9358465038253" lon="12.12595471321891"><ele>185.75</ele><time>2026-03-26T07:52:21.999Z</time></trkpt><trkpt lat="45.93573961749234" lon="12.126023088256455"><ele>186.5</ele><time>2026-03-26T07:52:22.999Z</time></trkpt><trkpt lat="45.93562403739633" lon="12.1260904390333"><ele>187.25</ele><time>2026-03-26T07:52:23.999Z</time></trkpt><trkpt lat="45.93550651179969" lon="12.126153567500463"><ele>188.0</ele><time>2026-03-26T07:52:24.999Z</time></trkpt><trkpt lat="45.93539184908309" lon="12.126212539420704"><ele>188.0</ele><time>2026-03-26T07:52:25.999Z</time></trkpt><trkpt lat="45.93527815127288" lon="12.126262144950756"><ele>188.0</ele><time>2026-03-26T07:52:26.999Z</time></trkpt><trkpt lat="45.93515981194023" lon="12.126298563024438"><ele>188.0</ele><time>2026-03-26T07:52:27.999Z</time></trkpt><trkpt lat="45.93504419032591" lon="12.126298600816565"><ele>188.0</ele><time>2026-03-26T07:52:28.999Z</time></trkpt><trkpt lat="45.934925004684764" lon="12.126306695119666"><ele>189.25</ele><time>2026-03-26T07:52:29.999Z</time></trkpt><trkpt lat="45.93480500934316" lon="12.126302530193843"><ele>190.5</ele><time>2026-03-26T07:52:30.999Z</time></trkpt><trkpt lat="45.934682172929975" lon="12.126304412586727"><ele>191.75</ele><time>2026-03-26T07:52:31.999Z</time></trkpt><trkpt lat="45.9345610478709" lon="12.12628771065028"><ele>193.0</ele><time>2026-03-26T07:52:32.999Z</time></trkpt><trkpt lat="45.93443583416193" lon="12.126290732842655"><ele>193.0</ele><time>2026-03-26T07:52:33.999Z</time></trkpt><trkpt lat="45.9343245353418" lon="12.12631277877861"><ele>193.0</ele><time>2026-03-26T07:52:34.999Z</time></trkpt><trkpt lat="45.93422765243483" lon="12.126340628493713"><ele>193.0</ele><time>2026-03-26T07:52:35.999Z</time></trkpt><trkpt lat="45.934133676795355" lon="12.126373561512732"><ele>193.0</ele><time>2026-03-26T07:52:36.999Z</time></trkpt><trkpt lat="45.934049808588306" lon="12.126412387583821"><ele>193.0</ele><time>2026-03-26T07:52:37.999Z</time></trkpt><trkpt lat="45.93397902900613" lon="12.126445754987458"><ele>191.25</ele><time>2026-03-26T07:52:38.999Z</time></trkpt><trkpt lat="45.933895939159605" lon="12.12650509032903"><ele>189.5</ele><time>2026-03-26T07:52:40.999Z</time></trkpt><trkpt lat="45.933974830237936" lon="12.126749411913574"><ele>187.75</ele><time>2026-03-26T07:52:47Z</time></trkpt><trkpt lat="45.93402681471639" lon="12.126854882561467"><ele>186.0</ele><time>2026-03-26T07:52:49Z</time></trkpt><trkpt lat="45.93407984294902" lon="12.12695538549424"><ele>186.0</ele><time>2026-03-26T07:52:51Z</time></trkpt><trkpt lat="45.934085790171146" lon="12.12705159152006"><ele>186.0</ele><time>2026-03-26T07:52:54Z</time></trkpt><trkpt lat="45.93403058140319" lon="12.12700712927907"><ele>186.0</ele><time>2026-03-26T07:53:10Z</time></trkpt><trkpt lat="45.934095467714506" lon="12.126997435891248"><ele>186.0</ele><time>2026-03-26T07:53:59.999Z</time></trkpt><trkpt lat="45.934058795633966" lon="12.126869726175924"><ele>186.0</ele><time>2026-03-26T07:54:07.999Z</time></trkpt><trkpt lat="45.933989564139026" lon="12.126740922381996"><ele>186.0</ele><time>2026-03-26T07:54:09.999Z</time></trkpt><trkpt lat="45.93393556593181" lon="12.126631084648167"><ele>186.00000000000003</ele><time>2026-03-26T07:54:11.999Z</time></trkpt><trkpt lat="45.9338964985489" lon="12.126548975021276"><ele>186.0</ele><time>2026-03-26T07:54:13.999Z</time></trkpt><trkpt lat="45.93381572945933" lon="12.126538897349002"><ele>186.0</ele><time>2026-03-26T07:54:20.999Z</time></trkpt><trkpt lat="45.93375201067042" lon="12.1265792803299"><ele>186.0</ele><time>2026-03-26T07:54:21.999Z</time></trkpt><trkpt lat="45.93369038629601" lon="12.126637181977857"><ele>186.0</ele><time>2026-03-26T07:54:22.999Z</time></trkpt><trkpt lat="45.933632010598096" lon="12.126697158969973"><ele>186.00000000000003</ele><time>2026-03-26T07:54:23.999Z</time></trkpt><trkpt lat="45.93357525312719" lon="12.126749975354883"><ele>186.0</ele><time>2026-03-26T07:54:24.999Z</time></trkpt><trkpt lat="45.93351135090227" lon="12.126806270502723"><ele>186.0</ele><time>2026-03-26T07:54:25.999Z</time></trkpt><trkpt lat="45.9334401123932" lon="12.12687383913534"><ele>186.0</ele><time>2026-03-26T07:54:26.999Z</time></trkpt><trkpt lat="45.93335676866408" lon="12.126952732341742"><ele>186.0</ele><time>2026-03-26T07:54:27.999Z</time></trkpt><trkpt lat="45.933266887803256" lon="12.1270429655381"><ele>186.0</ele><time>2026-03-26T07:54:28.999Z</time></trkpt><trkpt lat="45.93316893641076" lon="12.127142194584374"><ele>186.0</ele><time>2026-03-26T07:54:29.999Z</time></trkpt><trkpt lat="45.93306801029368" lon="12.127246909808795"><ele>185.75</ele><time>2026-03-26T07:54:30.999Z</time></trkpt><trkpt lat="45.932969493231425" lon="12.127345392770254"><ele>185.5</ele><time>2026-03-26T07:54:31.999Z</time></trkpt><trkpt lat="45.93286886141305" lon="12.127452757994886"><ele>185.25</ele><time>2026-03-26T07:54:32.999Z</time></trkpt><trkpt lat="45.93276635906171" lon="12.127557698849706"><ele>185.0</ele><time>2026-03-26T07:54:33.999Z</time></trkpt><trkpt lat="45.932668541496824" lon="12.127662951427174"><ele>185.0</ele><time>2026-03-26T07:54:34.999Z</time></trkpt><trkpt lat="45.93257862464792" lon="12.127762276816103"><ele>185.0</ele><time>2026-03-26T07:54:35.999Z</time></trkpt><trkpt lat="45.9324804955627" lon="12.12785397404643"><ele>185.0</ele><time>2026-03-26T07:54:36.999Z</time></trkpt><trkpt lat="45.9323745139948" lon="12.127930143599693"><ele>185.0</ele><time>2026-03-26T07:54:37.999Z</time></trkpt><trkpt lat="45.93226685996308" lon="12.1279741849337"><ele>187.5</ele><time>2026-03-26T07:54:38.999Z</time></trkpt><trkpt lat="45.932154906585204" lon="12.12800123129331"><ele>190.0</ele><time>2026-03-26T07:54:39.999Z</time></trkpt><trkpt lat="45.93204483993277" lon="12.127994387502245"><ele>192.5</ele><time>2026-03-26T07:54:40.999Z</time></trkpt><trkpt lat="45.931934493987875" lon="12.127958414447372"><ele>195.0</ele><time>2026-03-26T07:54:41.999Z</time></trkpt><trkpt lat="45.93183469839282" lon="12.127879082644196"><ele>195.0</ele><time>2026-03-26T07:54:42.999Z</time></trkpt><trkpt lat="45.931728514004504" lon="12.127783030381243"><ele>195.0</ele><time>2026-03-26T07:54:43.999Z</time></trkpt><trkpt lat="45.93163439838733" lon="12.127655728502582"><ele>195.0</ele><time>2026-03-26T07:54:44.999Z</time></trkpt><trkpt lat="45.93154113540385" lon="12.127512614862564"><ele>195.0</ele><time>2026-03-26T07:54:45.999Z</time></trkpt><trkpt lat="45.93145427349288" lon="12.127352494063436"><ele>197.66666666666669</ele><time>2026-03-26T07:54:46.999Z</time></trkpt><trkpt lat="45.93137169741947" lon="12.127174812624409"><ele>200.33333333333334</ele><time>2026-03-26T07:54:47.999Z</time></trkpt><trkpt lat="45.93129170237519" lon="12.126982010485712"><ele>203.0</ele><time>2026-03-26T07:54:49Z</time></trkpt><trkpt lat="45.931217573018195" lon="12.126781968599548"><ele>203.0</ele><time>2026-03-26T07:54:50Z</time></trkpt><trkpt lat="45.931148807096186" lon="12.12658630651948"><ele>203.0</ele><time>2026-03-26T07:54:51Z</time></trkpt><trkpt lat="45.931099057546746" lon="12.126392169097105"><ele>203.0</ele><time>2026-03-26T07:54:52Z</time></trkpt><trkpt lat="45.93107979573438" lon="12.12618225698458"><ele>203.0</ele><time>2026-03-26T07:54:53Z</time></trkpt><trkpt lat="45.93107297461947" lon="12.125969685873798"><ele>203.33333333333334</ele><time>2026-03-26T07:54:54Z</time></trkpt><trkpt lat="45.931060163124535" lon="12.12574754550879"><ele>203.66666666666669</ele><time>2026-03-26T07:54:55Z</time></trkpt><trkpt lat="45.93103704588446" lon="12.12552071077602"><ele>204.0</ele><time>2026-03-26T07:54:56Z</time></trkpt><trkpt lat="45.93100247248782" lon="12.125294140059049"><ele>202.0</ele><time>2026-03-26T07:54:57Z</time></trkpt><trkpt lat="45.930963825381525" lon="12.12508674408137"><ele>200.0</ele><time>2026-03-26T07:54:58Z</time></trkpt><trkpt lat="45.93092475540719" lon="12.124897523476276"><ele>198.0</ele><time>2026-03-26T07:54:59Z</time></trkpt><trkpt lat="45.93088576153359" lon="12.124729296320643"><ele>196.0</ele><time>2026-03-26T07:55:00Z</time></trkpt><trkpt lat="45.930837771418965" lon="12.124585955655691"><ele>192.49999999999997</ele><time>2026-03-26T07:55:01Z</time></trkpt><trkpt lat="45.93078978902157" lon="12.12447354770013"><ele>189.0</ele><time>2026-03-26T07:55:02Z</time></trkpt><trkpt lat="45.930736908700354" lon="12.124373976704668"><ele>185.5</ele><time>2026-03-26T07:55:04Z</time></trkpt><trkpt lat="45.93074504333927" lon="12.124208564921133"><ele>182.0</ele><time>2026-03-26T07:55:06Z</time></trkpt><trkpt lat="45.93074799318587" lon="12.124108070814493"><ele>178.5</ele><time>2026-03-26T07:55:07Z</time></trkpt><trkpt lat="45.93074527502079" lon="12.12398761568154"><ele>175.0</ele><time>2026-03-26T07:55:08Z</time></trkpt><trkpt lat="45.93073299686656" lon="12.123857079821985"><ele>175.0</ele><time>2026-03-26T07:55:09Z</time></trkpt><trkpt lat="45.930712290073764" lon="12.123732658606032"><ele>175.0</ele><time>2026-03-26T07:55:10Z</time></trkpt><trkpt lat="45.93069140236932" lon="12.123620371554738"><ele>175.0</ele><time>2026-03-26T07:55:11Z</time></trkpt><trkpt lat="45.93066443914098" lon="12.123492135058395"><ele>175.0</ele><time>2026-03-26T07:55:11.999Z</time></trkpt><trkpt lat="45.93063955208369" lon="12.123352088163038"><ele>175.0</ele><time>2026-03-26T07:55:12.999Z</time></trkpt><trkpt lat="45.93061161770254" lon="12.123203247271745"><ele>176.25</ele><time>2026-03-26T07:55:13.999Z</time></trkpt><trkpt lat="45.93058088737532" lon="12.12304645741237"><ele>177.5</ele><time>2026-03-26T07:55:14.999Z</time></trkpt><trkpt lat="45.93055229951592" lon="12.122879335501777"><ele>178.75</ele><time>2026-03-26T07:55:15.999Z</time></trkpt><trkpt lat="45.930522252991125" lon="12.122703760279022"><ele>180.0</ele><time>2026-03-26T07:55:16.999Z</time></trkpt><trkpt lat="45.930490104061896" lon="12.122521575725377"><ele>181.5</ele><time>2026-03-26T07:55:17.999Z</time></trkpt><trkpt lat="45.930451982659385" lon="12.12233508151657"><ele>183.0</ele><time>2026-03-26T07:55:18.999Z</time></trkpt><trkpt lat="45.930410103569265" lon="12.122145034345962"><ele>184.5</ele><time>2026-03-26T07:55:19.999Z</time></trkpt><trkpt lat="45.930359167126994" lon="12.121948910799897"><ele>186.0</ele><time>2026-03-26T07:55:20.999Z</time></trkpt><trkpt lat="45.93030206397806" lon="12.121750238863054"><ele>189.33333333333331</ele><time>2026-03-26T07:55:21.999Z</time></trkpt><trkpt lat="45.930241098406874" lon="12.12154837141417"><ele>192.66666666666666</ele><time>2026-03-26T07:55:22.999Z</time></trkpt><trkpt lat="45.930178212630665" lon="12.121342008584612"><ele>196.0</ele><time>2026-03-26T07:55:23.999Z</time></trkpt><trkpt lat="45.930117677590864" lon="12.121130403298295"><ele>196.0</ele><time>2026-03-26T07:55:24.999Z</time></trkpt><trkpt lat="45.93005904072447" lon="12.120921533234704"><ele>196.0</ele><time>2026-03-26T07:55:25.999Z</time></trkpt><trkpt lat="45.92999890123276" lon="12.120721305628734"><ele>196.0</ele><time>2026-03-26T07:55:26.999Z</time></trkpt><trkpt lat="45.92994299638965" lon="12.120511298778798"><ele>194.66666666666666</ele><time>2026-03-26T07:55:27.999Z</time></trkpt><trkpt lat="45.929878203010766" lon="12.120297453358239"><ele>193.33333333333331</ele><time>2026-03-26T07:55:28.999Z</time></trkpt><trkpt lat="45.929810673680734" lon="12.12007681475242"><ele>192.0</ele><time>2026-03-26T07:55:29.999Z</time></trkpt><trkpt lat="45.92974058208969" lon="12.119850886416655"><ele>194.66666666666669</ele><time>2026-03-26T07:55:30.999Z</time></trkpt><trkpt lat="45.92967158560551" lon="12.119618151861141"><ele>197.33333333333334</ele><time>2026-03-26T07:55:31.999Z</time></trkpt><trkpt lat="45.9296005129296" lon="12.119379422165146"><ele>200.0</ele><time>2026-03-26T07:55:32.999Z</time></trkpt><trkpt lat="45.929525360737046" lon="12.119135494452056"><ele>201.66666666666669</ele><time>2026-03-26T07:55:33.999Z</time></trkpt><trkpt lat="45.929449657133624" lon="12.118885823654894"><ele>203.33333333333331</ele><time>2026-03-26T07:55:34.999Z</time></trkpt><trkpt lat="45.929372050216664" lon="12.118631906448982"><ele>205.0</ele><time>2026-03-26T07:55:35.999Z</time></trkpt><trkpt lat="45.929299377771535" lon="12.118370737048632"><ele>198.66666666666666</ele><time>2026-03-26T07:55:36.999Z</time></trkpt><trkpt lat="45.929223751964564" lon="12.118109289053878"><ele>192.33333333333331</ele><time>2026-03-26T07:55:37.999Z</time></trkpt><trkpt lat="45.9291427814142" lon="12.117846176476288"><ele>186.0</ele><time>2026-03-26T07:55:38.999Z</time></trkpt><trkpt lat="45.92906120567321" lon="12.117581413101167"><ele>187.66666666666666</ele><time>2026-03-26T07:55:39.999Z</time></trkpt><trkpt lat="45.92897752948901" lon="12.117315079054988"><ele>189.33333333333331</ele><time>2026-03-26T07:55:40.999Z</time></trkpt><trkpt lat="45.92889731926186" lon="12.117043488016185"><ele>191.0</ele><time>2026-03-26T07:55:41.999Z</time></trkpt><trkpt lat="45.928828402280395" lon="12.11676539903712"><ele>192.0</ele><time>2026-03-26T07:55:42.999Z</time></trkpt><trkpt lat="45.928780327753515" lon="12.11647357005286"><ele>193.0</ele><time>2026-03-26T07:55:43.999Z</time></trkpt><trkpt lat="45.92874307498219" lon="12.116182032176171"><ele>194.0</ele><time>2026-03-26T07:55:44.999Z</time></trkpt><trkpt lat="45.928721046598" lon="12.115887938366594"><ele>194.0</ele><time>2026-03-26T07:55:45.999Z</time></trkpt><trkpt lat="45.92871110608856" lon="12.115594086586286"><ele>194.0</ele><time>2026-03-26T07:55:46.999Z</time></trkpt><trkpt lat="45.92871645968485" lon="12.115299515226988"><ele>194.0</ele><time>2026-03-26T07:55:47.999Z</time></trkpt><trkpt lat="45.92873407466553" lon="12.115006780199048"><ele>194.0</ele><time>2026-03-26T07:55:48.999Z</time></trkpt><trkpt lat="45.92876126770532" lon="12.114715213517455"><ele>194.0</ele><time>2026-03-26T07:55:49.999Z</time></trkpt><trkpt lat="45.92879807324078" lon="12.114424086226927"><ele>194.0</ele><time>2026-03-26T07:55:50.999Z</time></trkpt><trkpt lat="45.9288437235235" lon="12.1141325697257"><ele>192.66666666666669</ele><time>2026-03-26T07:55:51.999Z</time></trkpt><trkpt lat="45.92889123001698" lon="12.113838845120867"><ele>191.33333333333334</ele><time>2026-03-26T07:55:52.999Z</time></trkpt><trkpt lat="45.92893368575825" lon="12.113540603130163"><ele>190.0</ele><time>2026-03-26T07:55:53.999Z</time></trkpt><trkpt lat="45.92897632311437" lon="12.113250487025777"><ele>189.66666666666669</ele><time>2026-03-26T07:55:54.999Z</time></trkpt><trkpt lat="45.92901784708867" lon="12.112966282266148"><ele>189.33333333333334</ele><time>2026-03-26T07:55:55.999Z</time></trkpt><trkpt lat="45.92905545565945" lon="12.112686577096719"><ele>189.0</ele><time>2026-03-26T07:55:56.999Z</time></trkpt><trkpt lat="45.92909285433574" lon="12.112413897469139"><ele>189.66666666666666</ele><time>2026-03-26T07:55:57.999Z</time></trkpt><trkpt lat="45.92912946693608" lon="12.112146350591063"><ele>190.33333333333331</ele><time>2026-03-26T07:55:58.999Z</time></trkpt><trkpt lat="45.92917443811703" lon="12.111888572330566"><ele>191.0</ele><time>2026-03-26T07:55:59.999Z</time></trkpt><trkpt lat="45.92925904195541" lon="12.111656499321311"><ele>191.0</ele><time>2026-03-26T07:56:00.999Z</time></trkpt><trkpt lat="45.92935304679038" lon="12.111427388236425"><ele>191.0</ele><time>2026-03-26T07:56:01.999Z</time></trkpt><trkpt lat="45.92946211411154" lon="12.1112089252992"><ele>191.0</ele><time>2026-03-26T07:56:02.999Z</time></trkpt><trkpt lat="45.92958007962131" lon="12.110995527510623"><ele>191.0</ele><time>2026-03-26T07:56:03.999Z</time></trkpt><trkpt lat="45.92967595757813" lon="12.110773360068393"><ele>191.0</ele><time>2026-03-26T07:56:04.999Z</time></trkpt><trkpt lat="45.92976924306938" lon="12.110568737192686"><ele>191.0</ele><time>2026-03-26T07:56:05.999Z</time></trkpt><trkpt lat="45.92983364830806" lon="12.11035578190443"><ele>193.33333333333331</ele><time>2026-03-26T07:56:06.999Z</time></trkpt><trkpt lat="45.92987555082163" lon="12.110136449662862"><ele>195.66666666666666</ele><time>2026-03-26T07:56:07.999Z</time></trkpt><trkpt lat="45.9298939490149" lon="12.109924646724116"><ele>198.0</ele><time>2026-03-26T07:56:08.999Z</time></trkpt><trkpt lat="45.92989638801532" lon="12.109712173490836"><ele>199.0</ele><time>2026-03-26T07:56:09.999Z</time></trkpt><trkpt lat="45.92989650467124" lon="12.109501737847392"><ele>200.0</ele><time>2026-03-26T07:56:10.999Z</time></trkpt><trkpt lat="45.92989819417842" lon="12.10929403882712"><ele>201.0</ele><time>2026-03-26T07:56:11.999Z</time></trkpt><trkpt lat="45.92991730804734" lon="12.109092475758208"><ele>202.0</ele><time>2026-03-26T07:56:12.999Z</time></trkpt><trkpt lat="45.92993900670818" lon="12.108886857655243"><ele>201.75</ele><time>2026-03-26T07:56:13.999Z</time></trkpt><trkpt lat="45.92996704107801" lon="12.108678393901648"><ele>201.5</ele><time>2026-03-26T07:56:14.999Z</time></trkpt><trkpt lat="45.92999210005634" lon="12.10846545739875"><ele>201.25</ele><time>2026-03-26T07:56:15.999Z</time></trkpt><trkpt lat="45.93002274076333" lon="12.10825321965032"><ele>201.0</ele><time>2026-03-26T07:56:16.999Z</time></trkpt><trkpt lat="45.930067683865275" lon="12.10804198013119"><ele>201.0</ele><time>2026-03-26T07:56:17.999Z</time></trkpt><trkpt lat="45.93011169187847" lon="12.10783263114985"><ele>201.0</ele><time>2026-03-26T07:56:18.999Z</time></trkpt><trkpt lat="45.93015720768942" lon="12.10762824750326"><ele>201.0</ele><time>2026-03-26T07:56:19.999Z</time></trkpt><trkpt lat="45.93021922826587" lon="12.1074494960232"><ele>201.0</ele><time>2026-03-26T07:56:20.999Z</time></trkpt><trkpt lat="45.93027503281697" lon="12.10727846605471"><ele>201.25</ele><time>2026-03-26T07:56:21.999Z</time></trkpt><trkpt lat="45.93033440572605" lon="12.107122713688316"><ele>201.5</ele><time>2026-03-26T07:56:22.999Z</time></trkpt><trkpt lat="45.93039907064369" lon="12.106978036390899"><ele>201.75</ele><time>2026-03-26T07:56:23.999Z</time></trkpt><trkpt lat="45.930465938119426" lon="12.10683724627882"><ele>202.0</ele><time>2026-03-26T07:56:24.999Z</time></trkpt><trkpt lat="45.930537376487585" lon="12.106692323221218"><ele>203.0</ele><time>2026-03-26T07:56:25.999Z</time></trkpt><trkpt lat="45.93061324479492" lon="12.10655048068335"><ele>204.0</ele><time>2026-03-26T07:56:26.999Z</time></trkpt><trkpt lat="45.93069143866939" lon="12.106405709705257"><ele>205.0</ele><time>2026-03-26T07:56:27.999Z</time></trkpt><trkpt lat="45.93077029089086" lon="12.106267862938271"><ele>206.0</ele><time>2026-03-26T07:56:28.999Z</time></trkpt><trkpt lat="45.930854088189136" lon="12.106121047516972"><ele>205.25</ele><time>2026-03-26T07:56:29.999Z</time></trkpt><trkpt lat="45.93093604709143" lon="12.105973216755945"><ele>204.5</ele><time>2026-03-26T07:56:30.999Z</time></trkpt><trkpt lat="45.93101920327701" lon="12.10582322643743"><ele>203.75</ele><time>2026-03-26T07:56:31.999Z</time></trkpt><trkpt lat="45.93110006076095" lon="12.105677382464814"><ele>203.0</ele><time>2026-03-26T07:56:32.999Z</time></trkpt><trkpt lat="45.93118586677634" lon="12.105523846350128"><ele>203.0</ele><time>2026-03-26T07:56:33.999Z</time></trkpt><trkpt lat="45.931272779772286" lon="12.10536679498047"><ele>203.0</ele><time>2026-03-26T07:56:34.999Z</time></trkpt><trkpt lat="45.93136174653482" lon="12.105205320080977"><ele>203.0</ele><time>2026-03-26T07:56:35.999Z</time></trkpt><trkpt lat="45.93145474339965" lon="12.105036530524938"><ele>203.0</ele><time>2026-03-26T07:56:36.999Z</time></trkpt><trkpt lat="45.93154709609047" lon="12.104868910161901"><ele>204.66666666666669</ele><time>2026-03-26T07:56:37.999Z</time></trkpt><trkpt lat="45.93164124465843" lon="12.104697458811687"><ele>206.33333333333331</ele><time>2026-03-26T07:56:38.999Z</time></trkpt><trkpt lat="45.93173785623169" lon="12.104520319329595"><ele>208.0</ele><time>2026-03-26T07:56:39.999Z</time></trkpt><trkpt lat="45.93182386453828" lon="12.104328319612533"><ele>208.0</ele><time>2026-03-26T07:56:40.999Z</time></trkpt><trkpt lat="45.9319246185482" lon="12.10414862408277"><ele>208.0</ele><time>2026-03-26T07:56:41.999Z</time></trkpt><trkpt lat="45.93203023761851" lon="12.103966031447259"><ele>208.0</ele><time>2026-03-26T07:56:42.999Z</time></trkpt><trkpt lat="45.932136956936304" lon="12.10378302294673"><ele>207.75</ele><time>2026-03-26T07:56:43.999Z</time></trkpt><trkpt lat="45.93223780158042" lon="12.103608875412508"><ele>207.5</ele><time>2026-03-26T07:56:44.999Z</time></trkpt><trkpt lat="45.93231980338718" lon="12.103467908917972"><ele>207.25</ele><time>2026-03-26T07:56:45.999Z</time></trkpt><trkpt lat="45.932387878389434" lon="12.103363177425164"><ele>207.0</ele><time>2026-03-26T07:56:46.999Z</time></trkpt><trkpt lat="45.93244054749547" lon="12.103288843073713"><ele>207.6</ele><time>2026-03-26T07:56:47.999Z</time></trkpt><trkpt lat="45.932523094481816" lon="12.103191693838264"><ele>208.2</ele><time>2026-03-26T07:56:49.999Z</time></trkpt><trkpt lat="45.93260399741372" lon="12.103092694796251"><ele>208.8</ele><time>2026-03-26T07:56:51.999Z</time></trkpt><trkpt lat="45.93265599788313" lon="12.10303288859667"><ele>209.4</ele><time>2026-03-26T07:56:52.999Z</time></trkpt><trkpt lat="45.93272155194821" lon="12.102951642022292"><ele>210.0</ele><time>2026-03-26T07:56:53.999Z</time></trkpt><trkpt lat="45.93279254577059" lon="12.102862742164493"><ele>210.0</ele><time>2026-03-26T07:56:55Z</time></trkpt><trkpt lat="45.93286157183452" lon="12.102776516449302"><ele>210.0</ele><time>2026-03-26T07:56:56Z</time></trkpt><trkpt lat="45.932929316757644" lon="12.102692505033096"><ele>210.0</ele><time>2026-03-26T07:56:57Z</time></trkpt><trkpt lat="45.93300185683598" lon="12.102594911216979"><ele>210.0</ele><time>2026-03-26T07:56:58Z</time></trkpt><trkpt lat="45.933084004264046" lon="12.102486164412818"><ele>210.0</ele><time>2026-03-26T07:56:59Z</time></trkpt><trkpt lat="45.9331727781832" lon="12.10237220834044"><ele>210.5</ele><time>2026-03-26T07:57:00Z</time></trkpt><trkpt lat="45.933270677399804" lon="12.10224829836335"><ele>211.0</ele><time>2026-03-26T07:57:01Z</time></trkpt><trkpt lat="45.933367497220644" lon="12.102116305438642"><ele>211.5</ele><time>2026-03-26T07:57:02Z</time></trkpt><trkpt lat="45.933461190564245" lon="12.101969976414459"><ele>212.0</ele><time>2026-03-26T07:57:03Z</time></trkpt><trkpt lat="45.93355372075626" lon="12.101805283729568"><ele>216.33333333333334</ele><time>2026-03-26T07:57:04Z</time></trkpt><trkpt lat="45.933637169796384" lon="12.101620997547741"><ele>220.66666666666669</ele><time>2026-03-26T07:57:05Z</time></trkpt><trkpt lat="45.93371657282838" lon="12.101431642802792"><ele>225.0</ele><time>2026-03-26T07:57:06Z</time></trkpt><trkpt lat="45.93379131281863" lon="12.101233716301296"><ele>225.0</ele><time>2026-03-26T07:57:07Z</time></trkpt><trkpt lat="45.93386506075658" lon="12.101033865085574"><ele>225.0</ele><time>2026-03-26T07:57:08Z</time></trkpt><trkpt lat="45.933939471123" lon="12.100835325897165"><ele>225.0</ele><time>2026-03-26T07:57:09Z</time></trkpt><trkpt lat="45.93401247586293" lon="12.10063832852002"><ele>226.0</ele><time>2026-03-26T07:57:10Z</time></trkpt><trkpt lat="45.93408675348719" lon="12.100438275831543"><ele>227.0</ele><time>2026-03-26T07:57:11Z</time></trkpt><trkpt lat="45.93416398314751" lon="12.100242750330372"><ele>228.0</ele><time>2026-03-26T07:57:12Z</time></trkpt><trkpt lat="45.93424273893314" lon="12.100045222494057"><ele>228.0</ele><time>2026-03-26T07:57:13Z</time></trkpt><trkpt lat="45.934319149932506" lon="12.099849200182607"><ele>228.0</ele><time>2026-03-26T07:57:14Z</time></trkpt><trkpt lat="45.93439565163642" lon="12.099649997998222"><ele>228.0</ele><time>2026-03-26T07:57:15Z</time></trkpt><trkpt lat="45.934469472692946" lon="12.09945053853121"><ele>228.0</ele><time>2026-03-26T07:57:16Z</time></trkpt><trkpt lat="45.934544959278455" lon="12.099254799932368"><ele>228.0</ele><time>2026-03-26T07:57:17Z</time></trkpt><trkpt lat="45.93462657112266" lon="12.099079620984671"><ele>228.0</ele><time>2026-03-26T07:57:18Z</time></trkpt><trkpt lat="45.9347234822846" lon="12.098920553849606"><ele>228.0</ele><time>2026-03-26T07:57:19Z</time></trkpt><trkpt lat="45.93483398988233" lon="12.098770880065887"><ele>227.0</ele><time>2026-03-26T07:57:20Z</time></trkpt><trkpt lat="45.93495381689498" lon="12.098625721061001"><ele>226.0</ele><time>2026-03-26T07:57:21Z</time></trkpt><trkpt lat="45.935076368217985" lon="12.098474678872877"><ele>225.0</ele><time>2026-03-26T07:57:21.999Z</time></trkpt><trkpt lat="45.93520019622216" lon="12.098315576931489"><ele>228.33333333333331</ele><time>2026-03-26T07:57:22.999Z</time></trkpt><trkpt lat="45.935324868191" lon="12.098149784199405"><ele>231.66666666666666</ele><time>2026-03-26T07:57:23.999Z</time></trkpt><trkpt lat="45.93544898278213" lon="12.097983117486093"><ele>235.0</ele><time>2026-03-26T07:57:24.999Z</time></trkpt><trkpt lat="45.93557458222944" lon="12.097820484401794"><ele>235.0</ele><time>2026-03-26T07:57:25.999Z</time></trkpt><trkpt lat="45.93568835330391" lon="12.09767655104249"><ele>235.0</ele><time>2026-03-26T07:57:26.999Z</time></trkpt><trkpt lat="45.935785271550806" lon="12.097552684647765"><ele>235.0</ele><time>2026-03-26T07:57:27.999Z</time></trkpt><trkpt lat="45.935863522071145" lon="12.09745096828813"><ele>235.0</ele><time>2026-03-26T07:57:28.999Z</time></trkpt><trkpt lat="45.93592497641923" lon="12.097374649574938"><ele>235.2</ele><time>2026-03-26T07:57:29.999Z</time></trkpt><trkpt lat="45.93600020104839" lon="12.097266762723203"><ele>235.4</ele><time>2026-03-26T07:57:31.999Z</time></trkpt><trkpt lat="45.935961537531966" lon="12.097118925775789"><ele>235.60000000000002</ele><time>2026-03-26T07:57:34.999Z</time></trkpt><trkpt lat="45.935863911883864" lon="12.097069625477982"><ele>235.8</ele><time>2026-03-26T07:57:36.999Z</time></trkpt><trkpt lat="45.935796303130786" lon="12.097004331770446"><ele>236.0</ele><time>2026-03-26T07:57:38.999Z</time></trkpt><trkpt lat="45.93572733237086" lon="12.096957378545307"><ele>236.0</ele><time>2026-03-26T07:57:40.999Z</time></trkpt><trkpt lat="45.93565760688349" lon="12.096945999955405"><ele>236.0</ele><time>2026-03-26T07:57:44.999Z</time></trkpt><trkpt lat="45.935715718578436" lon="12.096987365977796"><ele>236.0</ele><time>2026-03-26T08:00:22.999Z</time></trkpt><trkpt lat="45.93577421534486" lon="12.097066259375122"><ele>236.0</ele><time>2026-03-26T08:00:50.999Z</time></trkpt><trkpt lat="45.935836511578046" lon="12.097115338819112"><ele>236.0</ele><time>2026-03-26T08:00:53.999Z</time></trkpt><trkpt lat="45.93591892982645" lon="12.09718463194436"><ele>236.0</ele><time>2026-03-26T08:00:56.999Z</time></trkpt><trkpt lat="45.93597081389049" lon="12.097243037765868"><ele>236.0</ele><time>2026-03-26T08:00:59.999Z</time></trkpt><trkpt lat="45.936039164874835" lon="12.097254677055998"><ele>236.0</ele><time>2026-03-26T08:01:02.999Z</time></trkpt><trkpt lat="45.93613741246849" lon="12.097163392243816"><ele>236.00000000000003</ele><time>2026-03-26T08:01:04.999Z</time></trkpt><trkpt lat="45.93623339108118" lon="12.09707572132531"><ele>236.00000000000003</ele><time>2026-03-26T08:01:07Z</time></trkpt><trkpt lat="45.93634140423815" lon="12.097013987375385"><ele>236.0</ele><time>2026-03-26T08:01:09Z</time></trkpt><trkpt lat="45.93640835600428" lon="12.096992710094769"><ele>236.0</ele><time>2026-03-26T08:01:10Z</time></trkpt><trkpt lat="45.9364894127784" lon="12.09697029386402"><ele>236.0</ele><time>2026-03-26T08:01:11Z</time></trkpt><trkpt lat="45.93656013424804" lon="12.096933262291428"><ele>236.00000000000003</ele><time>2026-03-26T08:01:12Z</time></trkpt><trkpt lat="45.936639074697865" lon="12.096891456744112"><ele>236.00000000000003</ele><time>2026-03-26T08:01:13Z</time></trkpt><trkpt lat="45.93671314393191" lon="12.09683337918605"><ele>236.0</ele><time>2026-03-26T08:01:14Z</time></trkpt><trkpt lat="45.93683736054813" lon="12.096764990362585"><ele>236.0</ele><time>2026-03-26T08:01:15Z</time></trkpt><trkpt lat="45.93694101618199" lon="12.096669346109008"><ele>235.75</ele><time>2026-03-26T08:01:16Z</time></trkpt><trkpt lat="45.937042166383875" lon="12.09654878661874"><ele>235.5</ele><time>2026-03-26T08:01:17Z</time></trkpt><trkpt lat="45.9371318253784" lon="12.096409031151607"><ele>235.25</ele><time>2026-03-26T08:01:18Z</time></trkpt><trkpt lat="45.937207255292" lon="12.096250341401387"><ele>235.0</ele><time>2026-03-26T08:01:19Z</time></trkpt><trkpt lat="45.93728036378348" lon="12.096075816955072"><ele>235.0</ele><time>2026-03-26T08:01:20Z</time></trkpt><trkpt lat="45.93733627854101" lon="12.095893398277859"><ele>235.0</ele><time>2026-03-26T08:01:21Z</time></trkpt><trkpt lat="45.93739223775154" lon="12.095714288816945"><ele>235.0</ele><time>2026-03-26T08:01:22Z</time></trkpt><trkpt lat="45.93744386495025" lon="12.09554518614261"><ele>235.0</ele><time>2026-03-26T08:01:23Z</time></trkpt><trkpt lat="45.937501867099336" lon="12.095375969856939"><ele>234.75</ele><time>2026-03-26T08:01:24Z</time></trkpt><trkpt lat="45.93756637225679" lon="12.09520506727719"><ele>234.5</ele><time>2026-03-26T08:01:25Z</time></trkpt><trkpt lat="45.93764057797829" lon="12.095038900285138"><ele>234.25</ele><time>2026-03-26T08:01:26Z</time></trkpt><trkpt lat="45.93772366429468" lon="12.094877703076076"><ele>234.0</ele><time>2026-03-26T08:01:27Z</time></trkpt><trkpt lat="45.93781010575291" lon="12.094717953440064"><ele>234.0</ele><time>2026-03-26T08:01:28Z</time></trkpt><trkpt lat="45.93789968292398" lon="12.094550309593066"><ele>234.0</ele><time>2026-03-26T08:01:29Z</time></trkpt><trkpt lat="45.937992794371795" lon="12.09438466592628"><ele>234.0</ele><time>2026-03-26T08:01:30Z</time></trkpt><trkpt lat="45.9380902632099" lon="12.094219127287463"><ele>234.0</ele><time>2026-03-26T08:01:30.999Z</time></trkpt><trkpt lat="45.938187506326045" lon="12.09405104815569"><ele>234.66666666666669</ele><time>2026-03-26T08:01:31.999Z</time></trkpt><trkpt lat="45.93828959023966" lon="12.093885311965142"><ele>235.33333333333334</ele><time>2026-03-26T08:01:32.999Z</time></trkpt><trkpt lat="45.938397704550155" lon="12.09372686381184"><ele>236.0</ele><time>2026-03-26T08:01:33.999Z</time></trkpt><trkpt lat="45.938514275455816" lon="12.093573120419798"><ele>237.33333333333334</ele><time>2026-03-26T08:01:34.999Z</time></trkpt><trkpt lat="45.938637485586675" lon="12.093428209082877"><ele>238.66666666666669</ele><time>2026-03-26T08:01:35.999Z</time></trkpt><trkpt lat="45.93876721334253" lon="12.093291849045299"><ele>240.0</ele><time>2026-03-26T08:01:36.999Z</time></trkpt><trkpt lat="45.93890140764829" lon="12.093159042017083"><ele>241.0</ele><time>2026-03-26T08:01:37.999Z</time></trkpt><trkpt lat="45.9390346169437" lon="12.0930199686441"><ele>242.0</ele><time>2026-03-26T08:01:38.999Z</time></trkpt><trkpt lat="45.9391699238629" lon="12.092881781362344"><ele>243.0</ele><time>2026-03-26T08:01:39.999Z</time></trkpt><trkpt lat="45.939305312327576" lon="12.092751621581861"><ele>243.5</ele><time>2026-03-26T08:01:40.999Z</time></trkpt><trkpt lat="45.939439634903714" lon="12.092633817113434"><ele>244.0</ele><time>2026-03-26T08:01:41.999Z</time></trkpt><trkpt lat="45.93956540850714" lon="12.092521170113196"><ele>244.5</ele><time>2026-03-26T08:01:42.999Z</time></trkpt><trkpt lat="45.93968474095383" lon="12.092409302893229"><ele>245.0</ele><time>2026-03-26T08:01:43.999Z</time></trkpt><trkpt lat="45.93979942425422" lon="12.092303913067004"><ele>245.0</ele><time>2026-03-26T08:01:44.999Z</time></trkpt><trkpt lat="45.93990773887492" lon="12.092206048664808"><ele>245.0</ele><time>2026-03-26T08:01:45.999Z</time></trkpt><trkpt lat="45.94000677043959" lon="12.092115506597535"><ele>245.0</ele><time>2026-03-26T08:01:46.999Z</time></trkpt><trkpt lat="45.94009354904621" lon="12.092032793780191"><ele>245.0</ele><time>2026-03-26T08:01:47.999Z</time></trkpt><trkpt lat="45.940167382063294" lon="12.091965622936286"><ele>245.0</ele><time>2026-03-26T08:01:48.999Z</time></trkpt><trkpt lat="45.9402323740737" lon="12.091954605480735"><ele>245.66666666666669</ele><time>2026-03-26T08:01:49.999Z</time></trkpt><trkpt lat="45.940313505202596" lon="12.09206500349131"><ele>246.33333333333334</ele><time>2026-03-26T08:01:51.999Z</time></trkpt><trkpt lat="45.94036455144398" lon="12.092123242090514"><ele>247.0</ele><time>2026-03-26T08:01:52.999Z</time></trkpt><trkpt lat="45.94039951072523" lon="12.09220824231481"><ele>247.66666666666669</ele><time>2026-03-26T08:01:53.999Z</time></trkpt><trkpt lat="45.94044567473837" lon="12.092303829766731"><ele>248.33333333333334</ele><time>2026-03-26T08:01:54.999Z</time></trkpt><trkpt lat="45.940500517166114" lon="12.092409825826168"><ele>249.0</ele><time>2026-03-26T08:01:55.999Z</time></trkpt><trkpt lat="45.94056373579945" lon="12.092523604420728"><ele>249.0</ele><time>2026-03-26T08:01:56.999Z</time></trkpt><trkpt lat="45.94063474941609" lon="12.092648330988638"><ele>249.0</ele><time>2026-03-26T08:01:57.999Z</time></trkpt><trkpt lat="45.94070910381006" lon="12.09278662715736"><ele>249.0</ele><time>2026-03-26T08:01:58.999Z</time></trkpt><trkpt lat="45.940787587024154" lon="12.092935419355172"><ele>249.0</ele><time>2026-03-26T08:01:59.999Z</time></trkpt><trkpt lat="45.94087683177762" lon="12.093091064270999"><ele>249.0</ele><time>2026-03-26T08:02:00.999Z</time></trkpt><trkpt lat="45.94097321849745" lon="12.093251067093794"><ele>249.0</ele><time>2026-03-26T08:02:01.999Z</time></trkpt><trkpt lat="45.94108009536787" lon="12.093412139074067"><ele>249.0</ele><time>2026-03-26T08:02:02.999Z</time></trkpt><trkpt lat="45.94119434873826" lon="12.093572236124471"><ele>249.0</ele><time>2026-03-26T08:02:03.999Z</time></trkpt><trkpt lat="45.94131030495539" lon="12.09372729258763"><ele>249.0</ele><time>2026-03-26T08:02:04.999Z</time></trkpt><trkpt lat="45.941423131575974" lon="12.09387979078534"><ele>249.0</ele><time>2026-03-26T08:02:05.999Z</time></trkpt><trkpt lat="45.94154196006936" lon="12.09403710057015"><ele>248.66666666666669</ele><time>2026-03-26T08:02:06.999Z</time></trkpt><trkpt lat="45.94166456273424" lon="12.094197900557807"><ele>248.33333333333334</ele><time>2026-03-26T08:02:07.999Z</time></trkpt><trkpt lat="45.941788786080465" lon="12.094364779091778"><ele>248.0</ele><time>2026-03-26T08:02:08.999Z</time></trkpt><trkpt lat="45.941914066277064" lon="12.09453776309949"><ele>248.33333333333334</ele><time>2026-03-26T08:02:09.999Z</time></trkpt><trkpt lat="45.94204153579636" lon="12.094713719322673"><ele>248.66666666666669</ele><time>2026-03-26T08:02:10.999Z</time></trkpt><trkpt lat="45.94217238052712" lon="12.094890704832169"><ele>249.0</ele><time>2026-03-26T08:02:11.999Z</time></trkpt><trkpt lat="45.942305153542314" lon="12.095068233930686"><ele>249.0</ele><time>2026-03-26T08:02:12.999Z</time></trkpt><trkpt lat="45.942437120302266" lon="12.095249064282969"><ele>249.0</ele><time>2026-03-26T08:02:13.999Z</time></trkpt><trkpt lat="45.94257014777353" lon="12.095432639112603"><ele>249.0</ele><time>2026-03-26T08:02:14.999Z</time></trkpt><trkpt lat="45.94269379932312" lon="12.095631119716757"><ele>250.0</ele><time>2026-03-26T08:02:15.999Z</time></trkpt><trkpt lat="45.9428029898689" lon="12.095849407809782"><ele>251.0</ele><time>2026-03-26T08:02:16.999Z</time></trkpt><trkpt lat="45.9429005434864" lon="12.096081067175165"><ele>252.0</ele><time>2026-03-26T08:02:17.999Z</time></trkpt><trkpt lat="45.942994370515635" lon="12.09631830541146"><ele>252.0</ele><time>2026-03-26T08:02:18.999Z</time></trkpt><trkpt lat="45.94309008974585" lon="12.096556201493582"><ele>252.0</ele><time>2026-03-26T08:02:19.999Z</time></trkpt><trkpt lat="45.94318743052911" lon="12.096787488480635"><ele>252.0</ele><time>2026-03-26T08:02:20.999Z</time></trkpt><trkpt lat="45.943283035211564" lon="12.097008682209733"><ele>252.0</ele><time>2026-03-26T08:02:21.999Z</time></trkpt><trkpt lat="45.943374226679715" lon="12.097222608105588"><ele>252.0</ele><time>2026-03-26T08:02:22.999Z</time></trkpt><trkpt lat="45.94346013858701" lon="12.097431423100053"><ele>252.0</ele><time>2026-03-26T08:02:23.999Z</time></trkpt><trkpt lat="45.943543338724446" lon="12.097638116880265"><ele>252.66666666666669</ele><time>2026-03-26T08:02:24.999Z</time></trkpt><trkpt lat="45.9436235945736" lon="12.09784708457189"><ele>253.33333333333334</ele><time>2026-03-26T08:02:25.999Z</time></trkpt><trkpt lat="45.94370773270836" lon="12.098058659334942"><ele>254.0</ele><time>2026-03-26T08:02:26.999Z</time></trkpt><trkpt lat="45.94379409838476" lon="12.098273397232802"><ele>254.0</ele><time>2026-03-26T08:02:27.999Z</time></trkpt><trkpt lat="45.943883038177276" lon="12.0984932684856"><ele>254.0</ele><time>2026-03-26T08:02:28.999Z</time></trkpt><trkpt lat="45.94397442805266" lon="12.098717631362312"><ele>254.0</ele><time>2026-03-26T08:02:29.999Z</time></trkpt><trkpt lat="45.9440686170779" lon="12.098946135212264"><ele>253.33333333333334</ele><time>2026-03-26T08:02:30.999Z</time></trkpt><trkpt lat="45.944163839854895" lon="12.099180006802355"><ele>252.66666666666669</ele><time>2026-03-26T08:02:31.999Z</time></trkpt><trkpt lat="45.94426019888047" lon="12.099417878501662"><ele>252.0</ele><time>2026-03-26T08:02:32.999Z</time></trkpt><trkpt lat="45.944366017110156" lon="12.099651060671645"><ele>252.0</ele><time>2026-03-26T08:02:33.999Z</time></trkpt><trkpt lat="45.94447675077972" lon="12.09988182140965"><ele>252.0</ele><time>2026-03-26T08:02:34.999Z</time></trkpt><trkpt lat="45.94459350244642" lon="12.1001053092791"><ele>252.0</ele><time>2026-03-26T08:02:35.999Z</time></trkpt><trkpt lat="45.944718233553175" lon="12.100318228477091"><ele>251.33333333333331</ele><time>2026-03-26T08:02:36.999Z</time></trkpt><trkpt lat="45.944847246134366" lon="12.100522843958109"><ele>250.66666666666666</ele><time>2026-03-26T08:02:37.999Z</time></trkpt><trkpt lat="45.94497369824852" lon="12.100726963233582"><ele>250.0</ele><time>2026-03-26T08:02:38.999Z</time></trkpt><trkpt lat="45.945097803963066" lon="12.10093265413851"><ele>250.0</ele><time>2026-03-26T08:02:39.999Z</time></trkpt><trkpt lat="45.94522084000695" lon="12.101136049916423"><ele>250.0</ele><time>2026-03-26T08:02:40.999Z</time></trkpt><trkpt lat="45.945346283094054" lon="12.101337610726688"><ele>250.0</ele><time>2026-03-26T08:02:41.999Z</time></trkpt><trkpt lat="45.9454713392993" lon="12.101539519891293"><ele>248.66666666666666</ele><time>2026-03-26T08:02:42.999Z</time></trkpt><trkpt lat="45.94559560769558" lon="12.101744603895586"><ele>247.33333333333331</ele><time>2026-03-26T08:02:43.999Z</time></trkpt><trkpt lat="45.94572022551244" lon="12.101950145534412"><ele>246.0</ele><time>2026-03-26T08:02:44.999Z</time></trkpt><trkpt lat="45.94584456441564" lon="12.102146829336062"><ele>246.0</ele><time>2026-03-26T08:02:45.999Z</time></trkpt><trkpt lat="45.94596498976359" lon="12.102340613814944"><ele>246.0</ele><time>2026-03-26T08:02:46.999Z</time></trkpt><trkpt lat="45.946079858302205" lon="12.102529673746194"><ele>246.0</ele><time>2026-03-26T08:02:47.999Z</time></trkpt><trkpt lat="45.946184944898846" lon="12.102703154475536"><ele>245.25</ele><time>2026-03-26T08:02:48.999Z</time></trkpt><trkpt lat="45.946279200769816" lon="12.102853932272634"><ele>244.5</ele><time>2026-03-26T08:02:49.999Z</time></trkpt><trkpt lat="45.9463676246911" lon="12.102996881108416"><ele>243.75</ele><time>2026-03-26T08:02:50.999Z</time></trkpt><trkpt lat="45.94645208924735" lon="12.103143296701498"><ele>243.0</ele><time>2026-03-26T08:02:51.999Z</time></trkpt><trkpt lat="45.94653369890684" lon="12.10328452375319"><ele>242.66666666666666</ele><time>2026-03-26T08:02:52.999Z</time></trkpt><trkpt lat="45.94661132700293" lon="12.103401733113365"><ele>242.33333333333331</ele><time>2026-03-26T08:02:53.999Z</time></trkpt><trkpt lat="45.94669605740402" lon="12.103456109875097"><ele>242.0</ele><time>2026-03-26T08:02:54.999Z</time></trkpt><trkpt lat="45.94676541974001" lon="12.10349529159661"><ele>241.66666666666666</ele><time>2026-03-26T08:02:55.999Z</time></trkpt><trkpt lat="45.94685357129464" lon="12.103546359851391"><ele>241.33333333333331</ele><time>2026-03-26T08:02:57.999Z</time></trkpt><trkpt lat="45.946914040982115" lon="12.103581393267433"><ele>241.0</ele><time>2026-03-26T08:02:59.999Z</time></trkpt><trkpt lat="45.94692345528171" lon="12.103759073676004"><ele>241.0</ele><time>2026-03-26T08:03:00.999Z</time></trkpt><trkpt lat="45.94695711264468" lon="12.10387316052717"><ele>241.00000000000003</ele><time>2026-03-26T08:03:01.999Z</time></trkpt><trkpt lat="45.947006786635264" lon="12.103992222009705"><ele>241.00000000000003</ele><time>2026-03-26T08:03:02.999Z</time></trkpt><trkpt lat="45.94705584315679" lon="12.104106099848678"><ele>241.0</ele><time>2026-03-26T08:03:03.999Z</time></trkpt><trkpt lat="45.94711205610207" lon="12.104234944035039"><ele>241.0</ele><time>2026-03-26T08:03:04.999Z</time></trkpt><trkpt lat="45.94717926033612" lon="12.104380392405643"><ele>239.75</ele><time>2026-03-26T08:03:05.999Z</time></trkpt><trkpt lat="45.94725539186328" lon="12.10453848566525"><ele>238.5</ele><time>2026-03-26T08:03:06.999Z</time></trkpt><trkpt lat="45.947341824110985" lon="12.104706774422217"><ele>237.25</ele><time>2026-03-26T08:03:07.999Z</time></trkpt><trkpt lat="45.94743022174202" lon="12.104882041518573"><ele>236.0</ele><time>2026-03-26T08:03:08.999Z</time></trkpt><trkpt lat="45.94751546364302" lon="12.105058382978253"><ele>235.0</ele><time>2026-03-26T08:03:09.999Z</time></trkpt><trkpt lat="45.94760165056526" lon="12.105236416680823"><ele>234.0</ele><time>2026-03-26T08:03:11Z</time></trkpt><trkpt lat="45.94768854987733" lon="12.10541229642675"><ele>233.0</ele><time>2026-03-26T08:03:12Z</time></trkpt><trkpt lat="45.947776964282596" lon="12.105588448988007"><ele>231.33333333333334</ele><time>2026-03-26T08:03:13Z</time></trkpt><trkpt lat="45.94786507159822" lon="12.105765913741047"><ele>229.66666666666669</ele><time>2026-03-26T08:03:14Z</time></trkpt><trkpt lat="45.94795414162439" lon="12.10594172717854"><ele>228.0</ele><time>2026-03-26T08:03:15Z</time></trkpt><trkpt lat="45.948044303384265" lon="12.106117681912947"><ele>228.0</ele><time>2026-03-26T08:03:16Z</time></trkpt><trkpt lat="45.94813659614076" lon="12.106293248402109"><ele>228.0</ele><time>2026-03-26T08:03:17Z</time></trkpt><trkpt lat="45.948233148937916" lon="12.1064657047562"><ele>228.0</ele><time>2026-03-26T08:03:18Z</time></trkpt><trkpt lat="45.94833891232446" lon="12.106631235047793"><ele>227.0</ele><time>2026-03-26T08:03:19Z</time></trkpt><trkpt lat="45.9484555482699" lon="12.106784913650833"><ele>226.0</ele><time>2026-03-26T08:03:20Z</time></trkpt><trkpt lat="45.94857838714759" lon="12.106932348999852"><ele>225.0</ele><time>2026-03-26T08:03:21Z</time></trkpt><trkpt lat="45.94870344650331" lon="12.107075694113181"><ele>225.0</ele><time>2026-03-26T08:03:22Z</time></trkpt><trkpt lat="45.94882822443572" lon="12.107216996647615"><ele>225.0</ele><time>2026-03-26T08:03:23Z</time></trkpt><trkpt lat="45.94895329239785" lon="12.107357713521468"><ele>225.0</ele><time>2026-03-26T08:03:24Z</time></trkpt><trkpt lat="45.94907790415677" lon="12.10749864099518"><ele>222.66666666666669</ele><time>2026-03-26T08:03:25Z</time></trkpt><trkpt lat="45.94919951402726" lon="12.107642945384248"><ele>220.33333333333334</ele><time>2026-03-26T08:03:26Z</time></trkpt><trkpt lat="45.94932118017465" lon="12.107787525123475"><ele>218.0</ele><time>2026-03-26T08:03:27Z</time></trkpt><trkpt lat="45.949443560503774" lon="12.107928260253408"><ele>218.0</ele><time>2026-03-26T08:03:28Z</time></trkpt><trkpt lat="45.949563812839806" lon="12.108067873650985"><ele>218.0</ele><time>2026-03-26T08:03:29Z</time></trkpt><trkpt lat="45.94968550863164" lon="12.10820381058997"><ele>218.0</ele><time>2026-03-26T08:03:30Z</time></trkpt><trkpt lat="45.94980656812398" lon="12.108341341400045"><ele>218.0</ele><time>2026-03-26T08:03:30.999Z</time></trkpt><trkpt lat="45.949926927957264" lon="12.108477643812689"><ele>218.0</ele><time>2026-03-26T08:03:31.999Z</time></trkpt><trkpt lat="45.950046071185675" lon="12.108614570070756"><ele>218.0</ele><time>2026-03-26T08:03:32.999Z</time></trkpt><trkpt lat="45.950164173042594" lon="12.108750438674722"><ele>218.0</ele><time>2026-03-26T08:03:33.999Z</time></trkpt><trkpt lat="45.950281500082326" lon="12.108885664584834"><ele>218.0</ele><time>2026-03-26T08:03:34.999Z</time></trkpt><trkpt lat="45.95039622346776" lon="12.109022758639602"><ele>218.0</ele><time>2026-03-26T08:03:35.999Z</time></trkpt><trkpt lat="45.95050628288299" lon="12.109164692227957"><ele>218.0</ele><time>2026-03-26T08:03:36.999Z</time></trkpt><trkpt lat="45.950605927557625" lon="12.109319988440136"><ele>217.0</ele><time>2026-03-26T08:03:37.999Z</time></trkpt><trkpt lat="45.95069468645902" lon="12.109491453369742"><ele>216.0</ele><time>2026-03-26T08:03:38.999Z</time></trkpt><trkpt lat="45.95077732589753" lon="12.109671395893903"><ele>215.0</ele><time>2026-03-26T08:03:39.999Z</time></trkpt><trkpt lat="45.95085845082236" lon="12.109859139885973"><ele>216.0</ele><time>2026-03-26T08:03:40.999Z</time></trkpt><trkpt lat="45.950941810241126" lon="12.110048974750038"><ele>217.0</ele><time>2026-03-26T08:03:41.999Z</time></trkpt><trkpt lat="45.95102777033013" lon="12.110240915209099"><ele>218.0</ele><time>2026-03-26T08:03:42.999Z</time></trkpt><trkpt lat="45.951113007013916" lon="12.110436630694833"><ele>218.0</ele><time>2026-03-26T08:03:43.999Z</time></trkpt><trkpt lat="45.95119842744459" lon="12.110637741280373"><ele>218.0</ele><time>2026-03-26T08:03:44.999Z</time></trkpt><trkpt lat="45.95128179865244" lon="12.110833871208962"><ele>218.0</ele><time>2026-03-26T08:03:45.999Z</time></trkpt><trkpt lat="45.951361787312365" lon="12.111023746996317"><ele>216.75</ele><time>2026-03-26T08:03:46.999Z</time></trkpt><trkpt lat="45.95143252336545" lon="12.111205399757306"><ele>215.5</ele><time>2026-03-26T08:03:47.999Z</time></trkpt><trkpt lat="45.95149229041913" lon="12.111395898752386"><ele>214.25</ele><time>2026-03-26T08:03:48.999Z</time></trkpt><trkpt lat="45.951537282454" lon="12.111590707907839"><ele>213.0</ele><time>2026-03-26T08:03:49.999Z</time></trkpt><trkpt lat="45.95157547519016" lon="12.11179095907812"><ele>212.0</ele><time>2026-03-26T08:03:50.999Z</time></trkpt><trkpt lat="45.95160615065889" lon="12.11199511551442"><ele>211.0</ele><time>2026-03-26T08:03:51.999Z</time></trkpt><trkpt lat="45.95162412174378" lon="12.112206959430468"><ele>210.0</ele><time>2026-03-26T08:03:52.999Z</time></trkpt><trkpt lat="45.95163541122506" lon="12.112420883171593"><ele>209.0</ele><time>2026-03-26T08:03:53.999Z</time></trkpt><trkpt lat="45.95164883447677" lon="12.112631399811493"><ele>208.25</ele><time>2026-03-26T08:03:54.999Z</time></trkpt><trkpt lat="45.95166290068851" lon="12.112842034186036"><ele>207.5</ele><time>2026-03-26T08:03:55.999Z</time></trkpt><trkpt lat="45.95167773627935" lon="12.113054212806897"><ele>206.75</ele><time>2026-03-26T08:03:56.999Z</time></trkpt><trkpt lat="45.951692438364866" lon="12.113268354333865"><ele>206.0</ele><time>2026-03-26T08:03:57.999Z</time></trkpt><trkpt lat="45.95170651513641" lon="12.113483886762928"><ele>206.33333333333334</ele><time>2026-03-26T08:03:58.999Z</time></trkpt><trkpt lat="45.9517194617407" lon="12.113705069420746"><ele>206.66666666666669</ele><time>2026-03-26T08:03:59.999Z</time></trkpt><trkpt lat="45.95173303685082" lon="12.113926316448328"><ele>207.0</ele><time>2026-03-26T08:04:00.999Z</time></trkpt><trkpt lat="45.951744855040246" lon="12.114144497890884"><ele>205.75</ele><time>2026-03-26T08:04:01.999Z</time></trkpt><trkpt lat="45.95175559548461" lon="12.114361367010172"><ele>204.5</ele><time>2026-03-26T08:04:02.999Z</time></trkpt><trkpt lat="45.951770243250856" lon="12.114572152263419"><ele>203.25</ele><time>2026-03-26T08:04:03.999Z</time></trkpt><trkpt lat="45.95178623059538" lon="12.114780080441438"><ele>202.0</ele><time>2026-03-26T08:04:04.999Z</time></trkpt><trkpt lat="45.95180702503271" lon="12.114985720421895"><ele>201.25</ele><time>2026-03-26T08:04:05.999Z</time></trkpt><trkpt lat="45.95183783369966" lon="12.11518313707607"><ele>200.5</ele><time>2026-03-26T08:04:07Z</time></trkpt><trkpt lat="45.951879385721476" lon="12.115370367192346"><ele>199.75</ele><time>2026-03-26T08:04:08Z</time></trkpt><trkpt lat="45.95192508148694" lon="12.115545419084004"><ele>199.0</ele><time>2026-03-26T08:04:09Z</time></trkpt><trkpt lat="45.95196851388574" lon="12.115708184462013"><ele>198.39999999999998</ele><time>2026-03-26T08:04:10Z</time></trkpt><trkpt lat="45.95201571509557" lon="12.115859036260353"><ele>197.8</ele><time>2026-03-26T08:04:11Z</time></trkpt><trkpt lat="45.95206396469556" lon="12.115986995353122"><ele>197.2</ele><time>2026-03-26T08:04:12Z</time></trkpt><trkpt lat="45.952103519581485" lon="12.116082060560581"><ele>196.60000000000002</ele><time>2026-03-26T08:04:13Z</time></trkpt><trkpt lat="45.9521536722113" lon="12.116190470572514"><ele>196.0</ele><time>2026-03-26T08:04:15Z</time></trkpt><trkpt lat="45.952261411879554" lon="12.116108316876057"><ele>196.0</ele><time>2026-03-26T08:04:20Z</time></trkpt><trkpt lat="45.952235529429856" lon="12.115978232134939"><ele>196.0</ele><time>2026-03-26T08:04:24Z</time></trkpt><trkpt lat="45.95218104518368" lon="12.116064744738843"><ele>196.0</ele><time>2026-03-26T08:04:42Z</time></trkpt><trkpt lat="45.95211227976142" lon="12.115993420639262"><ele>196.0</ele><time>2026-03-26T08:04:45Z</time></trkpt><trkpt lat="45.95207715524983" lon="12.115861079841766"><ele>196.0</ele><time>2026-03-26T08:04:47Z</time></trkpt><trkpt lat="45.95202899184758" lon="12.115711010946423"><ele>196.60000000000002</ele><time>2026-03-26T08:04:49Z</time></trkpt><trkpt lat="45.95198311186574" lon="12.11554619625305"><ele>197.2</ele><time>2026-03-26T08:04:51Z</time></trkpt><trkpt lat="45.95195722474337" lon="12.115446418213084"><ele>197.8</ele><time>2026-03-26T08:04:52Z</time></trkpt><trkpt lat="45.951936146103854" lon="12.115319525741398"><ele>198.39999999999998</ele><time>2026-03-26T08:04:53Z</time></trkpt><trkpt lat="45.95190591561463" lon="12.115206261692693"><ele>199.0</ele><time>2026-03-26T08:04:54Z</time></trkpt><trkpt lat="45.95187882475797" lon="12.115072758566141"><ele>199.0</ele><time>2026-03-26T08:04:55Z</time></trkpt><trkpt lat="45.95185583879912" lon="12.114922053620745"><ele>199.0</ele><time>2026-03-26T08:04:56Z</time></trkpt><trkpt lat="45.95184017858461" lon="12.114761194107329"><ele>199.0</ele><time>2026-03-26T08:04:57Z</time></trkpt><trkpt lat="45.951826622097805" lon="12.114588775028617"><ele>199.0</ele><time>2026-03-26T08:04:58Z</time></trkpt><trkpt lat="45.951813375511" lon="12.114406018821159"><ele>199.75</ele><time>2026-03-26T08:04:59Z</time></trkpt><trkpt lat="45.95180157095218" lon="12.114212088127848"><ele>200.5</ele><time>2026-03-26T08:05:00Z</time></trkpt><trkpt lat="45.95178422991683" lon="12.11401744236825"><ele>201.25</ele><time>2026-03-26T08:05:01Z</time></trkpt><trkpt lat="45.951772493223366" lon="12.113819266585558"><ele>202.0</ele><time>2026-03-26T08:05:02Z</time></trkpt><trkpt lat="45.95175944989606" lon="12.113630165967788"><ele>203.25</ele><time>2026-03-26T08:05:03Z</time></trkpt><trkpt lat="45.95174715470204" lon="12.113445482180433"><ele>204.5</ele><time>2026-03-26T08:05:04Z</time></trkpt><trkpt lat="45.95173751053318" lon="12.113254961202758"><ele>205.75</ele><time>2026-03-26T08:05:05Z</time></trkpt><trkpt lat="45.95172506161577" lon="12.113063294321783"><ele>207.0</ele><time>2026-03-26T08:05:06Z</time></trkpt><trkpt lat="45.95171239266023" lon="12.112867971584228"><ele>206.75</ele><time>2026-03-26T08:05:07Z</time></trkpt><trkpt lat="45.951700008375035" lon="12.112670106308734"><ele>206.5</ele><time>2026-03-26T08:05:08Z</time></trkpt><trkpt lat="45.95168577863573" lon="12.112468428132031"><ele>206.25</ele><time>2026-03-26T08:05:09Z</time></trkpt><trkpt lat="45.95167130914094" lon="12.112263711621294"><ele>206.0</ele><time>2026-03-26T08:05:10Z</time></trkpt><trkpt lat="45.95165615534773" lon="12.112056960345987"><ele>206.75</ele><time>2026-03-26T08:05:11Z</time></trkpt><trkpt lat="45.95163840156422" lon="12.111847797460035"><ele>207.5</ele><time>2026-03-26T08:05:12Z</time></trkpt><trkpt lat="45.95160718657986" lon="12.111640411507084"><ele>208.25</ele><time>2026-03-26T08:05:13Z</time></trkpt><trkpt lat="45.951563174126875" lon="12.111435858693577"><ele>209.0</ele><time>2026-03-26T08:05:14Z</time></trkpt><trkpt lat="45.95150720761895" lon="12.111248021826533"><ele>210.0</ele><time>2026-03-26T08:05:15Z</time></trkpt><trkpt lat="45.95144642501787" lon="12.111061417909633"><ele>211.0</ele><time>2026-03-26T08:05:16Z</time></trkpt><trkpt lat="45.95137308491899" lon="12.110881800033166"><ele>212.0</ele><time>2026-03-26T08:05:17.001Z</time></trkpt><trkpt lat="45.951293375011716" lon="12.110703881109915"><ele>213.0</ele><time>2026-03-26T08:05:18.001Z</time></trkpt><trkpt lat="45.95121325438882" lon="12.110526710956654"><ele>214.25</ele><time>2026-03-26T08:05:19.001Z</time></trkpt><trkpt lat="45.951130187615924" lon="12.110354454415027"><ele>215.5</ele><time>2026-03-26T08:05:20.001Z</time></trkpt><trkpt lat="45.951049892709996" lon="12.11017196263516"><ele>216.75</ele><time>2026-03-26T08:05:21.001Z</time></trkpt><trkpt lat="45.95097219353528" lon="12.109987135774452"><ele>218.0</ele><time>2026-03-26T08:05:22.001Z</time></trkpt><trkpt lat="45.95089291593255" lon="12.10980382888386"><ele>217.0</ele><time>2026-03-26T08:05:23.001Z</time></trkpt><trkpt lat="45.95081010395866" lon="12.109619725587201"><ele>216.0</ele><time>2026-03-26T08:05:24.001Z</time></trkpt><trkpt lat="45.95072602041539" lon="12.109439291895875"><ele>215.0</ele><time>2026-03-26T08:05:25.001Z</time></trkpt><trkpt lat="45.950636692336886" lon="12.10926351695215"><ele>215.0</ele><time>2026-03-26T08:05:26.001Z</time></trkpt><trkpt lat="45.95053509428786" lon="12.109097978228073"><ele>215.0</ele><time>2026-03-26T08:05:27.001Z</time></trkpt><trkpt lat="45.95042764763085" lon="12.10895562904573"><ele>215.0</ele><time>2026-03-26T08:05:28.001Z</time></trkpt><trkpt lat="45.9503166167588" lon="12.108817285805124"><ele>215.0</ele><time>2026-03-26T08:05:29.001Z</time></trkpt><trkpt lat="45.95019764621672" lon="12.108681873663926"><ele>215.0</ele><time>2026-03-26T08:05:30.001Z</time></trkpt><trkpt lat="45.95007508641175" lon="12.10854970290212"><ele>215.0</ele><time>2026-03-26T08:05:31.001Z</time></trkpt><trkpt lat="45.94995099634348" lon="12.108410688708712"><ele>215.0</ele><time>2026-03-26T08:05:32Z</time></trkpt><trkpt lat="45.94982814586634" lon="12.108268676538879"><ele>216.0</ele><time>2026-03-26T08:05:33Z</time></trkpt><trkpt lat="45.949705162031655" lon="12.108123307458378"><ele>217.0</ele><time>2026-03-26T08:05:34Z</time></trkpt><trkpt lat="45.949581058790216" lon="12.107977265287907"><ele>218.0</ele><time>2026-03-26T08:05:35Z</time></trkpt><trkpt lat="45.94945707610651" lon="12.107836782410837"><ele>218.0</ele><time>2026-03-26T08:05:36Z</time></trkpt><trkpt lat="45.949335084261214" lon="12.107698864122218"><ele>218.0</ele><time>2026-03-26T08:05:37Z</time></trkpt><trkpt lat="45.9492133160702" lon="12.10755865773709"><ele>218.0</ele><time>2026-03-26T08:05:38Z</time></trkpt><trkpt lat="45.94908656044938" lon="12.107416367071002"><ele>220.33333333333334</ele><time>2026-03-26T08:05:39Z</time></trkpt><trkpt lat="45.94896036392013" lon="12.10727186303556"><ele>222.66666666666669</ele><time>2026-03-26T08:05:40Z</time></trkpt><trkpt lat="45.94883249366857" lon="12.107126133248643"><ele>225.0</ele><time>2026-03-26T08:05:41Z</time></trkpt><trkpt lat="45.948708215576126" lon="12.106984574516353"><ele>225.0</ele><time>2026-03-26T08:05:42Z</time></trkpt><trkpt lat="45.948592712042355" lon="12.106849258978697"><ele>225.0</ele><time>2026-03-26T08:05:43Z</time></trkpt><trkpt lat="45.94848706993803" lon="12.10672480511189"><ele>225.0</ele><time>2026-03-26T08:05:44Z</time></trkpt><trkpt lat="45.94839196095207" lon="12.106608093648987"><ele>225.0</ele><time>2026-03-26T08:05:45Z</time></trkpt><trkpt lat="45.94831285123982" lon="12.106492945857514"><ele>225.5</ele><time>2026-03-26T08:05:46Z</time></trkpt><trkpt lat="45.94825030297212" lon="12.106398741462984"><ele>226.0</ele><time>2026-03-26T08:05:47Z</time></trkpt><trkpt lat="45.94819819492103" lon="12.10631544310694"><ele>226.5</ele><time>2026-03-26T08:05:48Z</time></trkpt><trkpt lat="45.9481539691812" lon="12.10623152334172"><ele>227.0</ele><time>2026-03-26T08:05:49Z</time></trkpt><trkpt lat="45.948113649484426" lon="12.106152250185465"><ele>227.5</ele><time>2026-03-26T08:05:50Z</time></trkpt><trkpt lat="45.948048000760465" lon="12.106037949290776"><ele>228.0</ele><time>2026-03-26T08:05:52Z</time></trkpt><trkpt lat="45.94797691200106" lon="12.106058361597476"><ele>228.0</ele><time>2026-03-26T08:05:54Z</time></trkpt><trkpt lat="45.947933074083295" lon="12.106133096104394"><ele>228.0</ele><time>2026-03-26T08:05:57Z</time></trkpt><trkpt lat="45.94789376047259" lon="12.106042145128518"><ele>228.0</ele><time>2026-03-26T08:06:48Z</time></trkpt><trkpt lat="45.94785932947851" lon="12.105948144890514"><ele>228.0</ele><time>2026-03-26T08:06:50Z</time></trkpt><trkpt lat="45.9478713860609" lon="12.105852700712534"><ele>228.0</ele><time>2026-03-26T08:06:52Z</time></trkpt><trkpt lat="45.947953240132364" lon="12.105892756849505"><ele>228.0</ele><time>2026-03-26T08:06:58Z</time></trkpt><trkpt lat="45.94801025793573" lon="12.10603316555645"><ele>228.0</ele><time>2026-03-26T08:07:00Z</time></trkpt><trkpt lat="45.948076918207924" lon="12.106178948482542"><ele>228.0</ele><time>2026-03-26T08:07:02Z</time></trkpt><trkpt lat="45.948119433368674" lon="12.106261552152821"><ele>228.0</ele><time>2026-03-26T08:07:03Z</time></trkpt><trkpt lat="45.948172071252166" lon="12.106359337214514"><ele>228.0</ele><time>2026-03-26T08:07:04Z</time></trkpt><trkpt lat="45.94824116029079" lon="12.10646883587959"><ele>228.0</ele><time>2026-03-26T08:07:05Z</time></trkpt><trkpt lat="45.94831068373683" lon="12.106584844942544"><ele>227.25</ele><time>2026-03-26T08:07:06Z</time></trkpt><trkpt lat="45.94839163982578" lon="12.106698622830637"><ele>226.5</ele><time>2026-03-26T08:07:07Z</time></trkpt><trkpt lat="45.94847684240084" lon="12.10680565294862"><ele>225.75</ele><time>2026-03-26T08:07:08Z</time></trkpt><trkpt lat="45.94857102299481" lon="12.106911002130072"><ele>225.0</ele><time>2026-03-26T08:07:09Z</time></trkpt><trkpt lat="45.948669878805184" lon="12.107023798745445"><ele>225.0</ele><time>2026-03-26T08:07:10Z</time></trkpt><trkpt lat="45.948776983642006" lon="12.107150763257689"><ele>225.0</ele><time>2026-03-26T08:07:11Z</time></trkpt><trkpt lat="45.948889690956975" lon="12.107278596248122"><ele>225.0</ele><time>2026-03-26T08:07:12Z</time></trkpt><trkpt lat="45.94899813778477" lon="12.107412818509777"><ele>225.0</ele><time>2026-03-26T08:07:13Z</time></trkpt><trkpt lat="45.949108352615625" lon="12.107533127769651"><ele>223.25</ele><time>2026-03-26T08:07:14Z</time></trkpt><trkpt lat="45.94921559107676" lon="12.107655998838327"><ele>221.5</ele><time>2026-03-26T08:07:15Z</time></trkpt><trkpt lat="45.94932504213304" lon="12.10778348115067"><ele>219.75</ele><time>2026-03-26T08:07:16Z</time></trkpt><trkpt lat="45.94942492314649" lon="12.107901169398705"><ele>218.0</ele><time>2026-03-26T08:07:17Z</time></trkpt><trkpt lat="45.94953222945309" lon="12.10802008392431"><ele>218.0</ele><time>2026-03-26T08:07:18Z</time></trkpt><trkpt lat="45.9496374682402" lon="12.108139809219303"><ele>218.0</ele><time>2026-03-26T08:07:18.999Z</time></trkpt><trkpt lat="45.94973963903538" lon="12.10825801910928"><ele>218.0</ele><time>2026-03-26T08:07:19.999Z</time></trkpt><trkpt lat="45.949845065652674" lon="12.108377620953089"><ele>218.0</ele><time>2026-03-26T08:07:20.999Z</time></trkpt><trkpt lat="45.949946854368925" lon="12.108496570993383"><ele>218.0</ele><time>2026-03-26T08:07:21.999Z</time></trkpt><trkpt lat="45.95004974914696" lon="12.108609708998296"><ele>218.0</ele><time>2026-03-26T08:07:23Z</time></trkpt><trkpt lat="45.95014991670016" lon="12.10872486437764"><ele>218.0</ele><time>2026-03-26T08:07:24Z</time></trkpt><trkpt lat="45.95024727102192" lon="12.108842279509657"><ele>218.0</ele><time>2026-03-26T08:07:25Z</time></trkpt><trkpt lat="45.950349207949984" lon="12.108950418906586"><ele>218.0</ele><time>2026-03-26T08:07:26Z</time></trkpt><trkpt lat="45.95044376137104" lon="12.109068717564197"><ele>218.0</ele><time>2026-03-26T08:07:27Z</time></trkpt><trkpt lat="45.95053165545936" lon="12.109187758726701"><ele>218.0</ele><time>2026-03-26T08:07:28Z</time></trkpt><trkpt lat="45.95061263797337" lon="12.109321828591826"><ele>218.0</ele><time>2026-03-26T08:07:29Z</time></trkpt><trkpt lat="45.95068503936927" lon="12.10946173733332"><ele>218.0</ele><time>2026-03-26T08:07:30Z</time></trkpt><trkpt lat="45.950751560631936" lon="12.10960329268151"><ele>218.0</ele><time>2026-03-26T08:07:31Z</time></trkpt><trkpt lat="45.95081585405578" lon="12.109749781788915"><ele>218.0</ele><time>2026-03-26T08:07:32Z</time></trkpt><trkpt lat="45.95087912502829" lon="12.109895840200416"><ele>218.0</ele><time>2026-03-26T08:07:33Z</time></trkpt><trkpt lat="45.950944098242765" lon="12.110043556754112"><ele>218.0</ele><time>2026-03-26T08:07:34Z</time></trkpt><trkpt lat="45.95100611276765" lon="12.110192663022646"><ele>218.0</ele><time>2026-03-26T08:07:35Z</time></trkpt><trkpt lat="45.951070671023665" lon="12.110341529821898"><ele>218.0</ele><time>2026-03-26T08:07:36Z</time></trkpt></trkseg></trk></gpx>